<?xml version="1.0" encoding="UTF-8"?><gpx creator="Wikiloc - https://www.wikiloc.com" version="1.1" xmlns="http://www.topografix.com/GPX/1/1" xmlns:xsi="http://www.w3.org/2001/XMLSchema-instance" xsi:schemaLocation="http://www.topografix.com/GPX/1/1 http://www.topografix.com/GPX/1/1/gpx.xsd"><metadata><name>Wikiloc - Magoster - Hamoir</name><author><name>Daniels F</name><link href="https://www.wikiloc.com/wikiloc/user.do?id=2647483"><text>Daniels F on Wikiloc</text></link></author><link href="https://www.wikiloc.com/enduro-trails/magoster-hamoir-113949485"><text>Magoster - Hamoir on Wikiloc</text></link><time>2022-09-18T13:40:13Z</time></metadata><trk><name>Magoster - Hamoir</name><cmt></cmt><desc></desc><trkseg><trkpt lat="50.248994" lon="5.546751"><ele>390.716</ele><time>2022-09-17T10:10:05Z</time></trkpt><trkpt lat="50.249041" lon="5.546744"><ele>390.976</ele><time>2022-09-17T10:10:30Z</time></trkpt><trkpt lat="50.248966" lon="5.546772"><ele>390.913</ele><time>2022-09-17T10:10:40Z</time></trkpt><trkpt lat="50.249040" lon="5.546753"><ele>391.009</ele><time>2022-09-17T10:13:10Z</time></trkpt><trkpt lat="50.249019" lon="5.546669"><ele>391.122</ele><time>2022-09-17T10:14:00Z</time></trkpt><trkpt lat="50.249015" lon="5.546747"><ele>391.322</ele><time>2022-09-17T10:14:15Z</time></trkpt><trkpt lat="50.249070" lon="5.546768"><ele>391.354</ele><time>2022-09-17T10:15:07Z</time></trkpt><trkpt lat="50.249051" lon="5.546677"><ele>391.370</ele><time>2022-09-17T10:15:29Z</time></trkpt><trkpt lat="50.249064" lon="5.546753"><ele>391.125</ele><time>2022-09-17T10:15:33Z</time></trkpt><trkpt lat="50.249016" lon="5.546744"><ele>391.060</ele><time>2022-09-17T10:15:47Z</time></trkpt><trkpt lat="50.248952" lon="5.546753"><ele>390.755</ele><time>2022-09-17T10:20:21Z</time></trkpt><trkpt lat="50.248912" lon="5.546860"><ele>390.649</ele><time>2022-09-17T10:20:23Z</time></trkpt><trkpt lat="50.248909" lon="5.546945"><ele>390.686</ele><time>2022-09-17T10:20:24Z</time></trkpt><trkpt lat="50.248879" lon="5.547024"><ele>390.688</ele><time>2022-09-17T10:20:25Z</time></trkpt><trkpt lat="50.248813" lon="5.547109"><ele>390.624</ele><time>2022-09-17T10:20:26Z</time></trkpt><trkpt lat="50.248732" lon="5.547191"><ele>390.526</ele><time>2022-09-17T10:20:27Z</time></trkpt><trkpt lat="50.248631" lon="5.547296"><ele>390.409</ele><time>2022-09-17T10:20:28Z</time></trkpt><trkpt lat="50.248545" lon="5.547385"><ele>390.299</ele><time>2022-09-17T10:20:29Z</time></trkpt><trkpt lat="50.248465" lon="5.547500"><ele>390.069</ele><time>2022-09-17T10:20:30Z</time></trkpt><trkpt lat="50.248350" lon="5.547594"><ele>389.511</ele><time>2022-09-17T10:20:31Z</time></trkpt><trkpt lat="50.248237" lon="5.547687"><ele>389.137</ele><time>2022-09-17T10:20:32Z</time></trkpt><trkpt lat="50.248129" lon="5.547790"><ele>388.512</ele><time>2022-09-17T10:20:33Z</time></trkpt><trkpt lat="50.248011" lon="5.547903"><ele>387.827</ele><time>2022-09-17T10:20:34Z</time></trkpt><trkpt lat="50.247893" lon="5.548021"><ele>387.482</ele><time>2022-09-17T10:20:35Z</time></trkpt><trkpt lat="50.247771" lon="5.548142"><ele>386.766</ele><time>2022-09-17T10:20:36Z</time></trkpt><trkpt lat="50.247649" lon="5.548254"><ele>385.813</ele><time>2022-09-17T10:20:37Z</time></trkpt><trkpt lat="50.247522" lon="5.548374"><ele>384.862</ele><time>2022-09-17T10:20:38Z</time></trkpt><trkpt lat="50.247403" lon="5.548491"><ele>384.083</ele><time>2022-09-17T10:20:39Z</time></trkpt><trkpt lat="50.247291" lon="5.548602"><ele>383.211</ele><time>2022-09-17T10:20:40Z</time></trkpt><trkpt lat="50.247179" lon="5.548718"><ele>382.709</ele><time>2022-09-17T10:20:41Z</time></trkpt><trkpt lat="50.247080" lon="5.548823"><ele>382.067</ele><time>2022-09-17T10:20:42Z</time></trkpt><trkpt lat="50.246976" lon="5.548920"><ele>381.697</ele><time>2022-09-17T10:20:43Z</time></trkpt><trkpt lat="50.246869" lon="5.549018"><ele>380.959</ele><time>2022-09-17T10:20:44Z</time></trkpt><trkpt lat="50.246758" lon="5.549081"><ele>380.215</ele><time>2022-09-17T10:20:45Z</time></trkpt><trkpt lat="50.246662" lon="5.549153"><ele>379.390</ele><time>2022-09-17T10:20:46Z</time></trkpt><trkpt lat="50.246556" lon="5.549206"><ele>378.165</ele><time>2022-09-17T10:20:47Z</time></trkpt><trkpt lat="50.246432" lon="5.549245"><ele>376.550</ele><time>2022-09-17T10:20:48Z</time></trkpt><trkpt lat="50.246311" lon="5.549271"><ele>375.594</ele><time>2022-09-17T10:20:49Z</time></trkpt><trkpt lat="50.246181" lon="5.549288"><ele>374.851</ele><time>2022-09-17T10:20:50Z</time></trkpt><trkpt lat="50.246047" lon="5.549306"><ele>374.137</ele><time>2022-09-17T10:20:51Z</time></trkpt><trkpt lat="50.245910" lon="5.549333"><ele>373.749</ele><time>2022-09-17T10:20:52Z</time></trkpt><trkpt lat="50.245781" lon="5.549383"><ele>373.313</ele><time>2022-09-17T10:20:53Z</time></trkpt><trkpt lat="50.245640" lon="5.549435"><ele>372.509</ele><time>2022-09-17T10:20:54Z</time></trkpt><trkpt lat="50.245513" lon="5.549482"><ele>371.874</ele><time>2022-09-17T10:20:55Z</time></trkpt><trkpt lat="50.245374" lon="5.549533"><ele>371.214</ele><time>2022-09-17T10:20:56Z</time></trkpt><trkpt lat="50.245227" lon="5.549583"><ele>370.476</ele><time>2022-09-17T10:20:57Z</time></trkpt><trkpt lat="50.245076" lon="5.549624"><ele>369.522</ele><time>2022-09-17T10:20:58Z</time></trkpt><trkpt lat="50.244940" lon="5.549661"><ele>368.997</ele><time>2022-09-17T10:20:59Z</time></trkpt><trkpt lat="50.244808" lon="5.549701"><ele>368.262</ele><time>2022-09-17T10:21:00Z</time></trkpt><trkpt lat="50.244690" lon="5.549743"><ele>367.737</ele><time>2022-09-17T10:21:01Z</time></trkpt><trkpt lat="50.244568" lon="5.549815"><ele>366.821</ele><time>2022-09-17T10:21:02Z</time></trkpt><trkpt lat="50.244459" lon="5.549893"><ele>366.058</ele><time>2022-09-17T10:21:03Z</time></trkpt><trkpt lat="50.244359" lon="5.550008"><ele>365.143</ele><time>2022-09-17T10:21:04Z</time></trkpt><trkpt lat="50.244244" lon="5.550120"><ele>364.264</ele><time>2022-09-17T10:21:05Z</time></trkpt><trkpt lat="50.244110" lon="5.550280"><ele>363.110</ele><time>2022-09-17T10:21:06Z</time></trkpt><trkpt lat="50.243987" lon="5.550494"><ele>362.409</ele><time>2022-09-17T10:21:07Z</time></trkpt><trkpt lat="50.243855" lon="5.550676"><ele>361.965</ele><time>2022-09-17T10:21:08Z</time></trkpt><trkpt lat="50.243717" lon="5.550835"><ele>361.235</ele><time>2022-09-17T10:21:09Z</time></trkpt><trkpt lat="50.243596" lon="5.551025"><ele>360.067</ele><time>2022-09-17T10:21:10Z</time></trkpt><trkpt lat="50.243492" lon="5.551201"><ele>358.653</ele><time>2022-09-17T10:21:11Z</time></trkpt><trkpt lat="50.243396" lon="5.551356"><ele>357.258</ele><time>2022-09-17T10:21:12Z</time></trkpt><trkpt lat="50.243293" lon="5.551479"><ele>356.343</ele><time>2022-09-17T10:21:13Z</time></trkpt><trkpt lat="50.243196" lon="5.551579"><ele>354.938</ele><time>2022-09-17T10:21:14Z</time></trkpt><trkpt lat="50.243098" lon="5.551683"><ele>353.982</ele><time>2022-09-17T10:21:15Z</time></trkpt><trkpt lat="50.243007" lon="5.551789"><ele>353.629</ele><time>2022-09-17T10:21:16Z</time></trkpt><trkpt lat="50.242899" lon="5.551891"><ele>353.421</ele><time>2022-09-17T10:21:17Z</time></trkpt><trkpt lat="50.242781" lon="5.552002"><ele>353.441</ele><time>2022-09-17T10:21:18Z</time></trkpt><trkpt lat="50.242671" lon="5.552113"><ele>353.605</ele><time>2022-09-17T10:21:19Z</time></trkpt><trkpt lat="50.242550" lon="5.552223"><ele>353.809</ele><time>2022-09-17T10:21:20Z</time></trkpt><trkpt lat="50.242435" lon="5.552325"><ele>354.023</ele><time>2022-09-17T10:21:21Z</time></trkpt><trkpt lat="50.242315" lon="5.552418"><ele>354.143</ele><time>2022-09-17T10:21:22Z</time></trkpt><trkpt lat="50.242198" lon="5.552496"><ele>354.835</ele><time>2022-09-17T10:21:23Z</time></trkpt><trkpt lat="50.242097" lon="5.552567"><ele>355.681</ele><time>2022-09-17T10:21:24Z</time></trkpt><trkpt lat="50.241998" lon="5.552640"><ele>356.396</ele><time>2022-09-17T10:21:25Z</time></trkpt><trkpt lat="50.241917" lon="5.552703"><ele>357.031</ele><time>2022-09-17T10:21:26Z</time></trkpt><trkpt lat="50.241831" lon="5.552764"><ele>357.676</ele><time>2022-09-17T10:21:27Z</time></trkpt><trkpt lat="50.241748" lon="5.552828"><ele>357.970</ele><time>2022-09-17T10:21:28Z</time></trkpt><trkpt lat="50.241670" lon="5.552876"><ele>357.987</ele><time>2022-09-17T10:21:29Z</time></trkpt><trkpt lat="50.241602" lon="5.552915"><ele>358.092</ele><time>2022-09-17T10:21:30Z</time></trkpt><trkpt lat="50.241545" lon="5.552951"><ele>358.073</ele><time>2022-09-17T10:21:31Z</time></trkpt><trkpt lat="50.241499" lon="5.552968"><ele>357.920</ele><time>2022-09-17T10:21:32Z</time></trkpt><trkpt lat="50.241450" lon="5.552973"><ele>357.909</ele><time>2022-09-17T10:21:34Z</time></trkpt><trkpt lat="50.241421" lon="5.552821"><ele>357.610</ele><time>2022-09-17T10:21:35Z</time></trkpt><trkpt lat="50.241426" lon="5.552684"><ele>357.060</ele><time>2022-09-17T10:21:36Z</time></trkpt><trkpt lat="50.241413" lon="5.552493"><ele>356.812</ele><time>2022-09-17T10:21:37Z</time></trkpt><trkpt lat="50.241384" lon="5.552264"><ele>356.698</ele><time>2022-09-17T10:21:38Z</time></trkpt><trkpt lat="50.241341" lon="5.552023"><ele>356.433</ele><time>2022-09-17T10:21:39Z</time></trkpt><trkpt lat="50.241279" lon="5.551755"><ele>356.598</ele><time>2022-09-17T10:21:40Z</time></trkpt><trkpt lat="50.241202" lon="5.551471"><ele>356.623</ele><time>2022-09-17T10:21:41Z</time></trkpt><trkpt lat="50.241118" lon="5.551203"><ele>356.667</ele><time>2022-09-17T10:21:42Z</time></trkpt><trkpt lat="50.241014" lon="5.550942"><ele>356.664</ele><time>2022-09-17T10:21:43Z</time></trkpt><trkpt lat="50.240914" lon="5.550729"><ele>356.466</ele><time>2022-09-17T10:21:44Z</time></trkpt><trkpt lat="50.240803" lon="5.550511"><ele>355.829</ele><time>2022-09-17T10:21:45Z</time></trkpt><trkpt lat="50.240690" lon="5.550303"><ele>355.121</ele><time>2022-09-17T10:21:46Z</time></trkpt><trkpt lat="50.240573" lon="5.550099"><ele>354.909</ele><time>2022-09-17T10:21:47Z</time></trkpt><trkpt lat="50.240453" lon="5.549895"><ele>355.027</ele><time>2022-09-17T10:21:48Z</time></trkpt><trkpt lat="50.240335" lon="5.549688"><ele>355.357</ele><time>2022-09-17T10:21:49Z</time></trkpt><trkpt lat="50.240217" lon="5.549483"><ele>355.779</ele><time>2022-09-17T10:21:50Z</time></trkpt><trkpt lat="50.240098" lon="5.549268"><ele>356.395</ele><time>2022-09-17T10:21:51Z</time></trkpt><trkpt lat="50.239979" lon="5.549060"><ele>356.640</ele><time>2022-09-17T10:21:52Z</time></trkpt><trkpt lat="50.239860" lon="5.548848"><ele>356.665</ele><time>2022-09-17T10:21:53Z</time></trkpt><trkpt lat="50.239746" lon="5.548642"><ele>356.710</ele><time>2022-09-17T10:21:54Z</time></trkpt><trkpt lat="50.239638" lon="5.548439"><ele>356.844</ele><time>2022-09-17T10:21:55Z</time></trkpt><trkpt lat="50.239542" lon="5.548257"><ele>356.741</ele><time>2022-09-17T10:21:56Z</time></trkpt><trkpt lat="50.239453" lon="5.548083"><ele>356.428</ele><time>2022-09-17T10:21:57Z</time></trkpt><trkpt lat="50.239355" lon="5.547897"><ele>356.189</ele><time>2022-09-17T10:21:58Z</time></trkpt><trkpt lat="50.239259" lon="5.547688"><ele>356.017</ele><time>2022-09-17T10:21:59Z</time></trkpt><trkpt lat="50.239162" lon="5.547483"><ele>356.009</ele><time>2022-09-17T10:22:00Z</time></trkpt><trkpt lat="50.239075" lon="5.547298"><ele>356.193</ele><time>2022-09-17T10:22:01Z</time></trkpt><trkpt lat="50.238999" lon="5.547126"><ele>356.263</ele><time>2022-09-17T10:22:02Z</time></trkpt><trkpt lat="50.238929" lon="5.546951"><ele>356.295</ele><time>2022-09-17T10:22:03Z</time></trkpt><trkpt lat="50.238866" lon="5.546806"><ele>356.391</ele><time>2022-09-17T10:22:04Z</time></trkpt><trkpt lat="50.238811" lon="5.546669"><ele>356.336</ele><time>2022-09-17T10:22:05Z</time></trkpt><trkpt lat="50.238766" lon="5.546564"><ele>356.081</ele><time>2022-09-17T10:22:06Z</time></trkpt><trkpt lat="50.238732" lon="5.546451"><ele>355.956</ele><time>2022-09-17T10:22:07Z</time></trkpt><trkpt lat="50.238729" lon="5.546319"><ele>355.760</ele><time>2022-09-17T10:22:08Z</time></trkpt><trkpt lat="50.238737" lon="5.546156"><ele>355.547</ele><time>2022-09-17T10:22:09Z</time></trkpt><trkpt lat="50.238741" lon="5.545953"><ele>355.211</ele><time>2022-09-17T10:22:10Z</time></trkpt><trkpt lat="50.238732" lon="5.545757"><ele>355.021</ele><time>2022-09-17T10:22:11Z</time></trkpt><trkpt lat="50.238713" lon="5.545549"><ele>354.403</ele><time>2022-09-17T10:22:12Z</time></trkpt><trkpt lat="50.238705" lon="5.545340"><ele>354.409</ele><time>2022-09-17T10:22:13Z</time></trkpt><trkpt lat="50.238690" lon="5.545135"><ele>353.782</ele><time>2022-09-17T10:22:14Z</time></trkpt><trkpt lat="50.238678" lon="5.544914"><ele>353.582</ele><time>2022-09-17T10:22:15Z</time></trkpt><trkpt lat="50.238674" lon="5.544687"><ele>353.824</ele><time>2022-09-17T10:22:16Z</time></trkpt><trkpt lat="50.238673" lon="5.544455"><ele>354.290</ele><time>2022-09-17T10:22:17Z</time></trkpt><trkpt lat="50.238670" lon="5.544219"><ele>354.635</ele><time>2022-09-17T10:22:18Z</time></trkpt><trkpt lat="50.238670" lon="5.543992"><ele>354.830</ele><time>2022-09-17T10:22:19Z</time></trkpt><trkpt lat="50.238660" lon="5.543770"><ele>354.785</ele><time>2022-09-17T10:22:20Z</time></trkpt><trkpt lat="50.238656" lon="5.543546"><ele>354.419</ele><time>2022-09-17T10:22:21Z</time></trkpt><trkpt lat="50.238653" lon="5.543322"><ele>353.966</ele><time>2022-09-17T10:22:23Z</time></trkpt><trkpt lat="50.238657" lon="5.543095"><ele>353.515</ele><time>2022-09-17T10:22:24Z</time></trkpt><trkpt lat="50.238668" lon="5.542869"><ele>353.465</ele><time>2022-09-17T10:22:25Z</time></trkpt><trkpt lat="50.238689" lon="5.542643"><ele>353.211</ele><time>2022-09-17T10:22:26Z</time></trkpt><trkpt lat="50.238718" lon="5.542409"><ele>352.709</ele><time>2022-09-17T10:22:27Z</time></trkpt><trkpt lat="50.238738" lon="5.542194"><ele>352.062</ele><time>2022-09-17T10:22:28Z</time></trkpt><trkpt lat="50.238767" lon="5.541979"><ele>351.292</ele><time>2022-09-17T10:22:29Z</time></trkpt><trkpt lat="50.238794" lon="5.541777"><ele>350.384</ele><time>2022-09-17T10:22:30Z</time></trkpt><trkpt lat="50.238826" lon="5.541581"><ele>349.930</ele><time>2022-09-17T10:22:31Z</time></trkpt><trkpt lat="50.238863" lon="5.541388"><ele>348.795</ele><time>2022-09-17T10:22:32Z</time></trkpt><trkpt lat="50.238903" lon="5.541185"><ele>348.310</ele><time>2022-09-17T10:22:33Z</time></trkpt><trkpt lat="50.238944" lon="5.540973"><ele>348.185</ele><time>2022-09-17T10:22:34Z</time></trkpt><trkpt lat="50.238981" lon="5.540752"><ele>348.369</ele><time>2022-09-17T10:22:35Z</time></trkpt><trkpt lat="50.239033" lon="5.540512"><ele>348.886</ele><time>2022-09-17T10:22:36Z</time></trkpt><trkpt lat="50.239091" lon="5.540290"><ele>349.442</ele><time>2022-09-17T10:22:37Z</time></trkpt><trkpt lat="50.239149" lon="5.540086"><ele>349.822</ele><time>2022-09-17T10:22:38Z</time></trkpt><trkpt lat="50.239202" lon="5.539899"><ele>349.914</ele><time>2022-09-17T10:22:39Z</time></trkpt><trkpt lat="50.239259" lon="5.539736"><ele>349.809</ele><time>2022-09-17T10:22:40Z</time></trkpt><trkpt lat="50.239301" lon="5.539585"><ele>349.895</ele><time>2022-09-17T10:22:41Z</time></trkpt><trkpt lat="50.239339" lon="5.539435"><ele>349.175</ele><time>2022-09-17T10:22:42Z</time></trkpt><trkpt lat="50.239358" lon="5.539285"><ele>348.267</ele><time>2022-09-17T10:22:43Z</time></trkpt><trkpt lat="50.239365" lon="5.539119"><ele>348.053</ele><time>2022-09-17T10:22:44Z</time></trkpt><trkpt lat="50.239364" lon="5.538944"><ele>347.428</ele><time>2022-09-17T10:22:45Z</time></trkpt><trkpt lat="50.239351" lon="5.538768"><ele>347.313</ele><time>2022-09-17T10:22:46Z</time></trkpt><trkpt lat="50.239348" lon="5.538578"><ele>347.388</ele><time>2022-09-17T10:22:47Z</time></trkpt><trkpt lat="50.239349" lon="5.538389"><ele>347.512</ele><time>2022-09-17T10:22:48Z</time></trkpt><trkpt lat="50.239345" lon="5.538197"><ele>347.859</ele><time>2022-09-17T10:22:49Z</time></trkpt><trkpt lat="50.239331" lon="5.538004"><ele>347.985</ele><time>2022-09-17T10:22:50Z</time></trkpt><trkpt lat="50.239309" lon="5.537843"><ele>348.089</ele><time>2022-09-17T10:22:51Z</time></trkpt><trkpt lat="50.239291" lon="5.537673"><ele>348.017</ele><time>2022-09-17T10:22:52Z</time></trkpt><trkpt lat="50.239270" lon="5.537509"><ele>347.809</ele><time>2022-09-17T10:22:53Z</time></trkpt><trkpt lat="50.239274" lon="5.537326"><ele>347.759</ele><time>2022-09-17T10:22:54Z</time></trkpt><trkpt lat="50.239280" lon="5.537139"><ele>347.779</ele><time>2022-09-17T10:22:55Z</time></trkpt><trkpt lat="50.239309" lon="5.536961"><ele>347.641</ele><time>2022-09-17T10:22:56Z</time></trkpt><trkpt lat="50.239345" lon="5.536771"><ele>347.427</ele><time>2022-09-17T10:22:57Z</time></trkpt><trkpt lat="50.239374" lon="5.536596"><ele>347.332</ele><time>2022-09-17T10:22:58Z</time></trkpt><trkpt lat="50.239410" lon="5.536421"><ele>347.237</ele><time>2022-09-17T10:22:59Z</time></trkpt><trkpt lat="50.239414" lon="5.536250"><ele>346.832</ele><time>2022-09-17T10:23:00Z</time></trkpt><trkpt lat="50.239420" lon="5.536062"><ele>346.336</ele><time>2022-09-17T10:23:01Z</time></trkpt><trkpt lat="50.239445" lon="5.535866"><ele>345.923</ele><time>2022-09-17T10:23:02Z</time></trkpt><trkpt lat="50.239448" lon="5.535668"><ele>345.883</ele><time>2022-09-17T10:23:03Z</time></trkpt><trkpt lat="50.239466" lon="5.535455"><ele>345.725</ele><time>2022-09-17T10:23:04Z</time></trkpt><trkpt lat="50.239492" lon="5.535253"><ele>345.717</ele><time>2022-09-17T10:23:05Z</time></trkpt><trkpt lat="50.239524" lon="5.535051"><ele>345.709</ele><time>2022-09-17T10:23:06Z</time></trkpt><trkpt lat="50.239561" lon="5.534855"><ele>345.879</ele><time>2022-09-17T10:23:07Z</time></trkpt><trkpt lat="50.239605" lon="5.534658"><ele>345.849</ele><time>2022-09-17T10:23:08Z</time></trkpt><trkpt lat="50.239649" lon="5.534478"><ele>345.651</ele><time>2022-09-17T10:23:09Z</time></trkpt><trkpt lat="50.239690" lon="5.534318"><ele>345.347</ele><time>2022-09-17T10:23:10Z</time></trkpt><trkpt lat="50.239729" lon="5.534175"><ele>345.222</ele><time>2022-09-17T10:23:11Z</time></trkpt><trkpt lat="50.239759" lon="5.534050"><ele>345.227</ele><time>2022-09-17T10:23:12Z</time></trkpt><trkpt lat="50.239788" lon="5.533965"><ele>345.282</ele><time>2022-09-17T10:23:13Z</time></trkpt><trkpt lat="50.239825" lon="5.533888"><ele>345.396</ele><time>2022-09-17T10:23:15Z</time></trkpt><trkpt lat="50.239825" lon="5.533747"><ele>345.653</ele><time>2022-09-17T10:23:25Z</time></trkpt><trkpt lat="50.239846" lon="5.533606"><ele>346.386</ele><time>2022-09-17T10:23:26Z</time></trkpt><trkpt lat="50.239895" lon="5.533422"><ele>346.860</ele><time>2022-09-17T10:23:27Z</time></trkpt><trkpt lat="50.239968" lon="5.533224"><ele>346.826</ele><time>2022-09-17T10:23:28Z</time></trkpt><trkpt lat="50.240052" lon="5.533009"><ele>346.909</ele><time>2022-09-17T10:23:29Z</time></trkpt><trkpt lat="50.240112" lon="5.532805"><ele>347.029</ele><time>2022-09-17T10:23:30Z</time></trkpt><trkpt lat="50.240158" lon="5.532591"><ele>346.999</ele><time>2022-09-17T10:23:31Z</time></trkpt><trkpt lat="50.240211" lon="5.532364"><ele>346.771</ele><time>2022-09-17T10:23:32Z</time></trkpt><trkpt lat="50.240242" lon="5.532170"><ele>346.457</ele><time>2022-09-17T10:23:33Z</time></trkpt><trkpt lat="50.240281" lon="5.531989"><ele>346.292</ele><time>2022-09-17T10:23:34Z</time></trkpt><trkpt lat="50.240342" lon="5.531820"><ele>346.087</ele><time>2022-09-17T10:23:35Z</time></trkpt><trkpt lat="50.240402" lon="5.531663"><ele>346.052</ele><time>2022-09-17T10:23:36Z</time></trkpt><trkpt lat="50.240483" lon="5.531501"><ele>347.056</ele><time>2022-09-17T10:23:37Z</time></trkpt><trkpt lat="50.240592" lon="5.531365"><ele>348.733</ele><time>2022-09-17T10:23:38Z</time></trkpt><trkpt lat="50.240716" lon="5.531220"><ele>349.828</ele><time>2022-09-17T10:23:39Z</time></trkpt><trkpt lat="50.240852" lon="5.531054"><ele>350.689</ele><time>2022-09-17T10:23:40Z</time></trkpt><trkpt lat="50.240984" lon="5.530887"><ele>351.017</ele><time>2022-09-17T10:23:41Z</time></trkpt><trkpt lat="50.241113" lon="5.530726"><ele>351.109</ele><time>2022-09-17T10:23:42Z</time></trkpt><trkpt lat="50.241218" lon="5.530589"><ele>351.133</ele><time>2022-09-17T10:23:43Z</time></trkpt><trkpt lat="50.241320" lon="5.530453"><ele>351.123</ele><time>2022-09-17T10:23:44Z</time></trkpt><trkpt lat="50.241416" lon="5.530318"><ele>351.135</ele><time>2022-09-17T10:23:45Z</time></trkpt><trkpt lat="50.241492" lon="5.530203"><ele>351.371</ele><time>2022-09-17T10:23:46Z</time></trkpt><trkpt lat="50.241569" lon="5.530062"><ele>351.836</ele><time>2022-09-17T10:23:47Z</time></trkpt><trkpt lat="50.241640" lon="5.529910"><ele>352.261</ele><time>2022-09-17T10:23:48Z</time></trkpt><trkpt lat="50.241713" lon="5.529732"><ele>352.586</ele><time>2022-09-17T10:23:49Z</time></trkpt><trkpt lat="50.241774" lon="5.529549"><ele>352.890</ele><time>2022-09-17T10:23:50Z</time></trkpt><trkpt lat="50.241852" lon="5.529351"><ele>352.937</ele><time>2022-09-17T10:23:51Z</time></trkpt><trkpt lat="50.241900" lon="5.529182"><ele>352.938</ele><time>2022-09-17T10:23:52Z</time></trkpt><trkpt lat="50.241950" lon="5.529009"><ele>352.670</ele><time>2022-09-17T10:23:53Z</time></trkpt><trkpt lat="50.242008" lon="5.528864"><ele>351.917</ele><time>2022-09-17T10:23:54Z</time></trkpt><trkpt lat="50.242071" lon="5.528699"><ele>351.309</ele><time>2022-09-17T10:23:55Z</time></trkpt><trkpt lat="50.242122" lon="5.528537"><ele>350.734</ele><time>2022-09-17T10:23:56Z</time></trkpt><trkpt lat="50.242176" lon="5.528363"><ele>350.254</ele><time>2022-09-17T10:23:57Z</time></trkpt><trkpt lat="50.242233" lon="5.528206"><ele>349.666</ele><time>2022-09-17T10:23:58Z</time></trkpt><trkpt lat="50.242285" lon="5.528062"><ele>349.172</ele><time>2022-09-17T10:23:59Z</time></trkpt><trkpt lat="50.242332" lon="5.527916"><ele>348.667</ele><time>2022-09-17T10:24:00Z</time></trkpt><trkpt lat="50.242417" lon="5.527784"><ele>347.922</ele><time>2022-09-17T10:24:01Z</time></trkpt><trkpt lat="50.242478" lon="5.527623"><ele>347.317</ele><time>2022-09-17T10:24:02Z</time></trkpt><trkpt lat="50.242539" lon="5.527467"><ele>346.761</ele><time>2022-09-17T10:24:03Z</time></trkpt><trkpt lat="50.242605" lon="5.527326"><ele>346.248</ele><time>2022-09-17T10:24:04Z</time></trkpt><trkpt lat="50.242683" lon="5.527179"><ele>345.647</ele><time>2022-09-17T10:24:05Z</time></trkpt><trkpt lat="50.242762" lon="5.527029"><ele>345.029</ele><time>2022-09-17T10:24:06Z</time></trkpt><trkpt lat="50.242837" lon="5.526870"><ele>344.521</ele><time>2022-09-17T10:24:07Z</time></trkpt><trkpt lat="50.242916" lon="5.526711"><ele>344.009</ele><time>2022-09-17T10:24:08Z</time></trkpt><trkpt lat="50.242994" lon="5.526562"><ele>343.485</ele><time>2022-09-17T10:24:09Z</time></trkpt><trkpt lat="50.243060" lon="5.526409"><ele>342.765</ele><time>2022-09-17T10:24:10Z</time></trkpt><trkpt lat="50.243131" lon="5.526261"><ele>342.147</ele><time>2022-09-17T10:24:11Z</time></trkpt><trkpt lat="50.243219" lon="5.526123"><ele>341.323</ele><time>2022-09-17T10:24:12Z</time></trkpt><trkpt lat="50.243308" lon="5.526000"><ele>340.568</ele><time>2022-09-17T10:24:13Z</time></trkpt><trkpt lat="50.243380" lon="5.525860"><ele>339.733</ele><time>2022-09-17T10:24:14Z</time></trkpt><trkpt lat="50.243464" lon="5.525727"><ele>338.868</ele><time>2022-09-17T10:24:15Z</time></trkpt><trkpt lat="50.243554" lon="5.525638"><ele>337.862</ele><time>2022-09-17T10:24:16Z</time></trkpt><trkpt lat="50.243631" lon="5.525549"><ele>337.129</ele><time>2022-09-17T10:24:17Z</time></trkpt><trkpt lat="50.243735" lon="5.525431"><ele>336.693</ele><time>2022-09-17T10:24:18Z</time></trkpt><trkpt lat="50.243831" lon="5.525307"><ele>335.865</ele><time>2022-09-17T10:24:19Z</time></trkpt><trkpt lat="50.243917" lon="5.525168"><ele>335.221</ele><time>2022-09-17T10:24:20Z</time></trkpt><trkpt lat="50.244010" lon="5.525016"><ele>334.609</ele><time>2022-09-17T10:24:21Z</time></trkpt><trkpt lat="50.244092" lon="5.524859"><ele>333.980</ele><time>2022-09-17T10:24:22Z</time></trkpt><trkpt lat="50.244172" lon="5.524704"><ele>333.160</ele><time>2022-09-17T10:24:23Z</time></trkpt><trkpt lat="50.244256" lon="5.524557"><ele>332.212</ele><time>2022-09-17T10:24:24Z</time></trkpt><trkpt lat="50.244338" lon="5.524412"><ele>331.518</ele><time>2022-09-17T10:24:25Z</time></trkpt><trkpt lat="50.244419" lon="5.524286"><ele>330.853</ele><time>2022-09-17T10:24:26Z</time></trkpt><trkpt lat="50.244501" lon="5.524172"><ele>330.058</ele><time>2022-09-17T10:24:27Z</time></trkpt><trkpt lat="50.244585" lon="5.524070"><ele>329.313</ele><time>2022-09-17T10:24:28Z</time></trkpt><trkpt lat="50.244670" lon="5.523990"><ele>328.847</ele><time>2022-09-17T10:24:29Z</time></trkpt><trkpt lat="50.244755" lon="5.523927"><ele>328.554</ele><time>2022-09-17T10:24:30Z</time></trkpt><trkpt lat="50.244811" lon="5.523869"><ele>328.433</ele><time>2022-09-17T10:24:31Z</time></trkpt><trkpt lat="50.244861" lon="5.523816"><ele>328.323</ele><time>2022-09-17T10:24:32Z</time></trkpt><trkpt lat="50.244909" lon="5.523762"><ele>328.315</ele><time>2022-09-17T10:24:33Z</time></trkpt><trkpt lat="50.244969" lon="5.523696"><ele>328.309</ele><time>2022-09-17T10:24:35Z</time></trkpt><trkpt lat="50.245011" lon="5.523591"><ele>328.424</ele><time>2022-09-17T10:24:37Z</time></trkpt><trkpt lat="50.244976" lon="5.523404"><ele>328.544</ele><time>2022-09-17T10:24:39Z</time></trkpt><trkpt lat="50.244942" lon="5.523329"><ele>328.556</ele><time>2022-09-17T10:24:40Z</time></trkpt><trkpt lat="50.244904" lon="5.523261"><ele>328.562</ele><time>2022-09-17T10:24:41Z</time></trkpt><trkpt lat="50.244861" lon="5.523184"><ele>328.497</ele><time>2022-09-17T10:24:42Z</time></trkpt><trkpt lat="50.244805" lon="5.523090"><ele>328.362</ele><time>2022-09-17T10:24:43Z</time></trkpt><trkpt lat="50.244751" lon="5.523011"><ele>328.137</ele><time>2022-09-17T10:24:44Z</time></trkpt><trkpt lat="50.244691" lon="5.522920"><ele>328.081</ele><time>2022-09-17T10:24:45Z</time></trkpt><trkpt lat="50.244622" lon="5.522799"><ele>327.968</ele><time>2022-09-17T10:24:46Z</time></trkpt><trkpt lat="50.244547" lon="5.522659"><ele>327.866</ele><time>2022-09-17T10:24:47Z</time></trkpt><trkpt lat="50.244490" lon="5.522501"><ele>327.729</ele><time>2022-09-17T10:24:48Z</time></trkpt><trkpt lat="50.244426" lon="5.522359"><ele>327.421</ele><time>2022-09-17T10:24:49Z</time></trkpt><trkpt lat="50.244346" lon="5.522233"><ele>326.809</ele><time>2022-09-17T10:24:50Z</time></trkpt><trkpt lat="50.244257" lon="5.522112"><ele>326.077</ele><time>2022-09-17T10:24:51Z</time></trkpt><trkpt lat="50.244138" lon="5.522033"><ele>325.017</ele><time>2022-09-17T10:24:52Z</time></trkpt><trkpt lat="50.244018" lon="5.521976"><ele>323.869</ele><time>2022-09-17T10:24:53Z</time></trkpt><trkpt lat="50.243890" lon="5.521942"><ele>322.655</ele><time>2022-09-17T10:24:54Z</time></trkpt><trkpt lat="50.243748" lon="5.521965"><ele>320.930</ele><time>2022-09-17T10:24:55Z</time></trkpt><trkpt lat="50.243620" lon="5.522035"><ele>319.745</ele><time>2022-09-17T10:24:56Z</time></trkpt><trkpt lat="50.243487" lon="5.522089"><ele>318.470</ele><time>2022-09-17T10:24:57Z</time></trkpt><trkpt lat="50.243355" lon="5.522152"><ele>317.064</ele><time>2022-09-17T10:24:58Z</time></trkpt><trkpt lat="50.243232" lon="5.522152"><ele>316.221</ele><time>2022-09-17T10:24:59Z</time></trkpt><trkpt lat="50.243114" lon="5.522145"><ele>314.612</ele><time>2022-09-17T10:25:00Z</time></trkpt><trkpt lat="50.242991" lon="5.522102"><ele>313.232</ele><time>2022-09-17T10:25:01Z</time></trkpt><trkpt lat="50.242882" lon="5.522009"><ele>311.905</ele><time>2022-09-17T10:25:02Z</time></trkpt><trkpt lat="50.242764" lon="5.521919"><ele>310.609</ele><time>2022-09-17T10:25:03Z</time></trkpt><trkpt lat="50.242635" lon="5.521816"><ele>308.582</ele><time>2022-09-17T10:25:04Z</time></trkpt><trkpt lat="50.242514" lon="5.521698"><ele>307.192</ele><time>2022-09-17T10:25:05Z</time></trkpt><trkpt lat="50.242395" lon="5.521581"><ele>305.774</ele><time>2022-09-17T10:25:06Z</time></trkpt><trkpt lat="50.242272" lon="5.521462"><ele>304.370</ele><time>2022-09-17T10:25:07Z</time></trkpt><trkpt lat="50.242144" lon="5.521339"><ele>303.045</ele><time>2022-09-17T10:25:08Z</time></trkpt><trkpt lat="50.242012" lon="5.521211"><ele>301.760</ele><time>2022-09-17T10:25:09Z</time></trkpt><trkpt lat="50.241877" lon="5.521070"><ele>300.325</ele><time>2022-09-17T10:25:10Z</time></trkpt><trkpt lat="50.241757" lon="5.520938"><ele>298.779</ele><time>2022-09-17T10:25:11Z</time></trkpt><trkpt lat="50.241633" lon="5.520791"><ele>296.936</ele><time>2022-09-17T10:25:12Z</time></trkpt><trkpt lat="50.241508" lon="5.520643"><ele>294.954</ele><time>2022-09-17T10:25:13Z</time></trkpt><trkpt lat="50.241391" lon="5.520483"><ele>293.156</ele><time>2022-09-17T10:25:14Z</time></trkpt><trkpt lat="50.241271" lon="5.520318"><ele>291.411</ele><time>2022-09-17T10:25:15Z</time></trkpt><trkpt lat="50.241152" lon="5.520155"><ele>289.709</ele><time>2022-09-17T10:25:16Z</time></trkpt><trkpt lat="50.241051" lon="5.519940"><ele>288.296</ele><time>2022-09-17T10:25:17Z</time></trkpt><trkpt lat="50.240949" lon="5.519719"><ele>286.856</ele><time>2022-09-17T10:25:18Z</time></trkpt><trkpt lat="50.240851" lon="5.519508"><ele>285.128</ele><time>2022-09-17T10:25:19Z</time></trkpt><trkpt lat="50.240745" lon="5.519320"><ele>283.344</ele><time>2022-09-17T10:25:20Z</time></trkpt><trkpt lat="50.240653" lon="5.519100"><ele>281.489</ele><time>2022-09-17T10:25:21Z</time></trkpt><trkpt lat="50.240555" lon="5.518892"><ele>279.464</ele><time>2022-09-17T10:25:22Z</time></trkpt><trkpt lat="50.240452" lon="5.518700"><ele>277.489</ele><time>2022-09-17T10:25:23Z</time></trkpt><trkpt lat="50.240360" lon="5.518496"><ele>275.563</ele><time>2022-09-17T10:25:24Z</time></trkpt><trkpt lat="50.240248" lon="5.518330"><ele>273.720</ele><time>2022-09-17T10:25:25Z</time></trkpt><trkpt lat="50.240124" lon="5.518166"><ele>272.129</ele><time>2022-09-17T10:25:26Z</time></trkpt><trkpt lat="50.239999" lon="5.518033"><ele>270.300</ele><time>2022-09-17T10:25:27Z</time></trkpt><trkpt lat="50.239865" lon="5.517889"><ele>268.220</ele><time>2022-09-17T10:25:28Z</time></trkpt><trkpt lat="50.239734" lon="5.517763"><ele>266.009</ele><time>2022-09-17T10:25:29Z</time></trkpt><trkpt lat="50.239630" lon="5.517575"><ele>263.833</ele><time>2022-09-17T10:25:30Z</time></trkpt><trkpt lat="50.239507" lon="5.517411"><ele>261.573</ele><time>2022-09-17T10:25:31Z</time></trkpt><trkpt lat="50.239401" lon="5.517224"><ele>259.325</ele><time>2022-09-17T10:25:32Z</time></trkpt><trkpt lat="50.239299" lon="5.517029"><ele>257.321</ele><time>2022-09-17T10:25:33Z</time></trkpt><trkpt lat="50.239200" lon="5.516840"><ele>255.216</ele><time>2022-09-17T10:25:34Z</time></trkpt><trkpt lat="50.239109" lon="5.516647"><ele>252.951</ele><time>2022-09-17T10:25:35Z</time></trkpt><trkpt lat="50.239023" lon="5.516454"><ele>250.676</ele><time>2022-09-17T10:25:36Z</time></trkpt><trkpt lat="50.238934" lon="5.516245"><ele>248.360</ele><time>2022-09-17T10:25:37Z</time></trkpt><trkpt lat="50.238850" lon="5.516023"><ele>246.017</ele><time>2022-09-17T10:25:38Z</time></trkpt><trkpt lat="50.238771" lon="5.515801"><ele>243.922</ele><time>2022-09-17T10:25:39Z</time></trkpt><trkpt lat="50.238723" lon="5.515561"><ele>242.062</ele><time>2022-09-17T10:25:40Z</time></trkpt><trkpt lat="50.238672" lon="5.515325"><ele>240.108</ele><time>2022-09-17T10:25:41Z</time></trkpt><trkpt lat="50.238628" lon="5.515079"><ele>238.209</ele><time>2022-09-17T10:25:42Z</time></trkpt><trkpt lat="50.238598" lon="5.514834"><ele>236.493</ele><time>2022-09-17T10:25:43Z</time></trkpt><trkpt lat="50.238585" lon="5.514587"><ele>234.583</ele><time>2022-09-17T10:25:44Z</time></trkpt><trkpt lat="50.238581" lon="5.514334"><ele>232.575</ele><time>2022-09-17T10:25:45Z</time></trkpt><trkpt lat="50.238593" lon="5.514064"><ele>230.681</ele><time>2022-09-17T10:25:46Z</time></trkpt><trkpt lat="50.238608" lon="5.513801"><ele>228.726</ele><time>2022-09-17T10:25:47Z</time></trkpt><trkpt lat="50.238636" lon="5.513528"><ele>226.711</ele><time>2022-09-17T10:25:48Z</time></trkpt><trkpt lat="50.238689" lon="5.513269"><ele>224.866</ele><time>2022-09-17T10:25:49Z</time></trkpt><trkpt lat="50.238744" lon="5.513018"><ele>223.020</ele><time>2022-09-17T10:25:50Z</time></trkpt><trkpt lat="50.238808" lon="5.512781"><ele>221.217</ele><time>2022-09-17T10:25:51Z</time></trkpt><trkpt lat="50.238874" lon="5.512541"><ele>219.472</ele><time>2022-09-17T10:25:52Z</time></trkpt><trkpt lat="50.238947" lon="5.512297"><ele>217.613</ele><time>2022-09-17T10:25:53Z</time></trkpt><trkpt lat="50.239023" lon="5.512049"><ele>215.614</ele><time>2022-09-17T10:25:54Z</time></trkpt><trkpt lat="50.239097" lon="5.511796"><ele>213.609</ele><time>2022-09-17T10:25:55Z</time></trkpt><trkpt lat="50.239171" lon="5.511553"><ele>211.658</ele><time>2022-09-17T10:25:56Z</time></trkpt><trkpt lat="50.239244" lon="5.511327"><ele>209.438</ele><time>2022-09-17T10:25:57Z</time></trkpt><trkpt lat="50.239307" lon="5.511112"><ele>207.210</ele><time>2022-09-17T10:25:58Z</time></trkpt><trkpt lat="50.239364" lon="5.510907"><ele>205.286</ele><time>2022-09-17T10:25:59Z</time></trkpt><trkpt lat="50.239417" lon="5.510691"><ele>203.361</ele><time>2022-09-17T10:26:00Z</time></trkpt><trkpt lat="50.239450" lon="5.510457"><ele>201.386</ele><time>2022-09-17T10:26:01Z</time></trkpt><trkpt lat="50.239465" lon="5.510221"><ele>199.311</ele><time>2022-09-17T10:26:02Z</time></trkpt><trkpt lat="50.239483" lon="5.509965"><ele>197.485</ele><time>2022-09-17T10:26:03Z</time></trkpt><trkpt lat="50.239464" lon="5.509732"><ele>195.632</ele><time>2022-09-17T10:26:04Z</time></trkpt><trkpt lat="50.239425" lon="5.509511"><ele>193.826</ele><time>2022-09-17T10:26:05Z</time></trkpt><trkpt lat="50.239349" lon="5.509269"><ele>192.147</ele><time>2022-09-17T10:26:06Z</time></trkpt><trkpt lat="50.239226" lon="5.509003"><ele>190.711</ele><time>2022-09-17T10:26:07Z</time></trkpt><trkpt lat="50.239070" lon="5.508789"><ele>189.709</ele><time>2022-09-17T10:26:08Z</time></trkpt><trkpt lat="50.238917" lon="5.508626"><ele>188.713</ele><time>2022-09-17T10:26:09Z</time></trkpt><trkpt lat="50.238734" lon="5.508486"><ele>187.933</ele><time>2022-09-17T10:26:10Z</time></trkpt><trkpt lat="50.238564" lon="5.508396"><ele>187.775</ele><time>2022-09-17T10:26:11Z</time></trkpt><trkpt lat="50.238396" lon="5.508306"><ele>187.971</ele><time>2022-09-17T10:26:12Z</time></trkpt><trkpt lat="50.238228" lon="5.508218"><ele>188.266</ele><time>2022-09-17T10:26:13Z</time></trkpt><trkpt lat="50.238071" lon="5.508138"><ele>188.721</ele><time>2022-09-17T10:26:14Z</time></trkpt><trkpt lat="50.237922" lon="5.508056"><ele>189.316</ele><time>2022-09-17T10:26:15Z</time></trkpt><trkpt lat="50.237782" lon="5.507970"><ele>189.670</ele><time>2022-09-17T10:26:16Z</time></trkpt><trkpt lat="50.237645" lon="5.507907"><ele>189.737</ele><time>2022-09-17T10:26:17Z</time></trkpt><trkpt lat="50.237507" lon="5.507823"><ele>189.787</ele><time>2022-09-17T10:26:18Z</time></trkpt><trkpt lat="50.237361" lon="5.507751"><ele>189.642</ele><time>2022-09-17T10:26:19Z</time></trkpt><trkpt lat="50.237211" lon="5.507690"><ele>189.326</ele><time>2022-09-17T10:26:20Z</time></trkpt><trkpt lat="50.237066" lon="5.507669"><ele>188.909</ele><time>2022-09-17T10:26:21Z</time></trkpt><trkpt lat="50.236924" lon="5.507667"><ele>188.339</ele><time>2022-09-17T10:26:22Z</time></trkpt><trkpt lat="50.236783" lon="5.507695"><ele>187.819</ele><time>2022-09-17T10:26:23Z</time></trkpt><trkpt lat="50.236663" lon="5.507746"><ele>187.621</ele><time>2022-09-17T10:26:24Z</time></trkpt><trkpt lat="50.236558" lon="5.507827"><ele>187.147</ele><time>2022-09-17T10:26:25Z</time></trkpt><trkpt lat="50.236471" lon="5.507902"><ele>186.842</ele><time>2022-09-17T10:26:26Z</time></trkpt><trkpt lat="50.236405" lon="5.507966"><ele>186.627</ele><time>2022-09-17T10:26:27Z</time></trkpt><trkpt lat="50.236348" lon="5.508014"><ele>186.552</ele><time>2022-09-17T10:26:28Z</time></trkpt><trkpt lat="50.236306" lon="5.508055"><ele>186.476</ele><time>2022-09-17T10:26:29Z</time></trkpt><trkpt lat="50.236244" lon="5.508052"><ele>186.443</ele><time>2022-09-17T10:26:31Z</time></trkpt><trkpt lat="50.236191" lon="5.508023"><ele>186.471</ele><time>2022-09-17T10:26:34Z</time></trkpt><trkpt lat="50.236116" lon="5.507936"><ele>186.541</ele><time>2022-09-17T10:26:40Z</time></trkpt><trkpt lat="50.236044" lon="5.507840"><ele>186.715</ele><time>2022-09-17T10:26:42Z</time></trkpt><trkpt lat="50.235993" lon="5.507802"><ele>186.709</ele><time>2022-09-17T10:26:43Z</time></trkpt><trkpt lat="50.235917" lon="5.507745"><ele>186.788</ele><time>2022-09-17T10:26:44Z</time></trkpt><trkpt lat="50.235847" lon="5.507692"><ele>186.788</ele><time>2022-09-17T10:26:45Z</time></trkpt><trkpt lat="50.235774" lon="5.507629"><ele>186.740</ele><time>2022-09-17T10:26:46Z</time></trkpt><trkpt lat="50.235695" lon="5.507570"><ele>186.746</ele><time>2022-09-17T10:26:47Z</time></trkpt><trkpt lat="50.235617" lon="5.507484"><ele>186.791</ele><time>2022-09-17T10:26:48Z</time></trkpt><trkpt lat="50.235535" lon="5.507404"><ele>186.826</ele><time>2022-09-17T10:26:49Z</time></trkpt><trkpt lat="50.235449" lon="5.507321"><ele>186.981</ele><time>2022-09-17T10:26:50Z</time></trkpt><trkpt lat="50.235360" lon="5.507233"><ele>187.035</ele><time>2022-09-17T10:26:51Z</time></trkpt><trkpt lat="50.235267" lon="5.507141"><ele>187.132</ele><time>2022-09-17T10:26:52Z</time></trkpt><trkpt lat="50.235172" lon="5.507018"><ele>187.163</ele><time>2022-09-17T10:26:53Z</time></trkpt><trkpt lat="50.235082" lon="5.506897"><ele>187.144</ele><time>2022-09-17T10:26:54Z</time></trkpt><trkpt lat="50.234992" lon="5.506752"><ele>187.218</ele><time>2022-09-17T10:26:55Z</time></trkpt><trkpt lat="50.234904" lon="5.506615"><ele>187.209</ele><time>2022-09-17T10:26:56Z</time></trkpt><trkpt lat="50.234824" lon="5.506472"><ele>187.377</ele><time>2022-09-17T10:26:57Z</time></trkpt><trkpt lat="50.234754" lon="5.506334"><ele>187.527</ele><time>2022-09-17T10:26:58Z</time></trkpt><trkpt lat="50.234690" lon="5.506198"><ele>187.659</ele><time>2022-09-17T10:26:59Z</time></trkpt><trkpt lat="50.234628" lon="5.506067"><ele>187.635</ele><time>2022-09-17T10:27:00Z</time></trkpt><trkpt lat="50.234564" lon="5.505922"><ele>187.550</ele><time>2022-09-17T10:27:01Z</time></trkpt><trkpt lat="50.234502" lon="5.505783"><ele>187.415</ele><time>2022-09-17T10:27:02Z</time></trkpt><trkpt lat="50.234439" lon="5.505639"><ele>187.470</ele><time>2022-09-17T10:27:03Z</time></trkpt><trkpt lat="50.234377" lon="5.505489"><ele>187.424</ele><time>2022-09-17T10:27:04Z</time></trkpt><trkpt lat="50.234323" lon="5.505337"><ele>187.421</ele><time>2022-09-17T10:27:05Z</time></trkpt><trkpt lat="50.234276" lon="5.505169"><ele>187.414</ele><time>2022-09-17T10:27:06Z</time></trkpt><trkpt lat="50.234247" lon="5.505008"><ele>187.554</ele><time>2022-09-17T10:27:07Z</time></trkpt><trkpt lat="50.234220" lon="5.504844"><ele>187.609</ele><time>2022-09-17T10:27:08Z</time></trkpt><trkpt lat="50.234206" lon="5.504695"><ele>187.609</ele><time>2022-09-17T10:27:09Z</time></trkpt><trkpt lat="50.234207" lon="5.504562"><ele>187.762</ele><time>2022-09-17T10:27:10Z</time></trkpt><trkpt lat="50.234225" lon="5.504444"><ele>187.852</ele><time>2022-09-17T10:27:11Z</time></trkpt><trkpt lat="50.234248" lon="5.504352"><ele>188.034</ele><time>2022-09-17T10:27:12Z</time></trkpt><trkpt lat="50.234270" lon="5.504258"><ele>188.240</ele><time>2022-09-17T10:27:13Z</time></trkpt><trkpt lat="50.234278" lon="5.504156"><ele>188.475</ele><time>2022-09-17T10:27:14Z</time></trkpt><trkpt lat="50.234320" lon="5.504035"><ele>188.680</ele><time>2022-09-17T10:27:15Z</time></trkpt><trkpt lat="50.234281" lon="5.503906"><ele>188.845</ele><time>2022-09-17T10:27:16Z</time></trkpt><trkpt lat="50.234223" lon="5.503801"><ele>188.929</ele><time>2022-09-17T10:27:17Z</time></trkpt><trkpt lat="50.234124" lon="5.503761"><ele>189.026</ele><time>2022-09-17T10:27:18Z</time></trkpt><trkpt lat="50.234052" lon="5.503706"><ele>189.048</ele><time>2022-09-17T10:27:19Z</time></trkpt><trkpt lat="50.233971" lon="5.503686"><ele>189.061</ele><time>2022-09-17T10:27:20Z</time></trkpt><trkpt lat="50.233886" lon="5.503679"><ele>189.017</ele><time>2022-09-17T10:27:21Z</time></trkpt><trkpt lat="50.233805" lon="5.503644"><ele>189.009</ele><time>2022-09-17T10:27:22Z</time></trkpt><trkpt lat="50.233719" lon="5.503641"><ele>189.135</ele><time>2022-09-17T10:27:23Z</time></trkpt><trkpt lat="50.233644" lon="5.503624"><ele>189.325</ele><time>2022-09-17T10:27:24Z</time></trkpt><trkpt lat="50.233574" lon="5.503603"><ele>189.547</ele><time>2022-09-17T10:27:25Z</time></trkpt><trkpt lat="50.233518" lon="5.503586"><ele>189.823</ele><time>2022-09-17T10:27:26Z</time></trkpt><trkpt lat="50.233474" lon="5.503560"><ele>190.058</ele><time>2022-09-17T10:27:27Z</time></trkpt><trkpt lat="50.233421" lon="5.503535"><ele>190.263</ele><time>2022-09-17T10:27:28Z</time></trkpt><trkpt lat="50.233374" lon="5.503475"><ele>190.428</ele><time>2022-09-17T10:27:29Z</time></trkpt><trkpt lat="50.233346" lon="5.503362"><ele>190.782</ele><time>2022-09-17T10:27:30Z</time></trkpt><trkpt lat="50.233296" lon="5.503245"><ele>191.249</ele><time>2022-09-17T10:27:31Z</time></trkpt><trkpt lat="50.233243" lon="5.503121"><ele>191.598</ele><time>2022-09-17T10:27:32Z</time></trkpt><trkpt lat="50.233179" lon="5.502999"><ele>191.815</ele><time>2022-09-17T10:27:33Z</time></trkpt><trkpt lat="50.233110" lon="5.502887"><ele>192.026</ele><time>2022-09-17T10:27:34Z</time></trkpt><trkpt lat="50.233013" lon="5.502819"><ele>192.209</ele><time>2022-09-17T10:27:35Z</time></trkpt><trkpt lat="50.232916" lon="5.502752"><ele>192.460</ele><time>2022-09-17T10:27:36Z</time></trkpt><trkpt lat="50.232817" lon="5.502690"><ele>192.630</ele><time>2022-09-17T10:27:37Z</time></trkpt><trkpt lat="50.232726" lon="5.502608"><ele>192.972</ele><time>2022-09-17T10:27:38Z</time></trkpt><trkpt lat="50.232654" lon="5.502484"><ele>193.298</ele><time>2022-09-17T10:27:39Z</time></trkpt><trkpt lat="50.232677" lon="5.502299"><ele>193.533</ele><time>2022-09-17T10:27:40Z</time></trkpt><trkpt lat="50.232641" lon="5.502156"><ele>193.828</ele><time>2022-09-17T10:27:41Z</time></trkpt><trkpt lat="50.232607" lon="5.502020"><ele>194.293</ele><time>2022-09-17T10:27:42Z</time></trkpt><trkpt lat="50.232574" lon="5.501887"><ele>194.537</ele><time>2022-09-17T10:27:43Z</time></trkpt><trkpt lat="50.232557" lon="5.501767"><ele>194.584</ele><time>2022-09-17T10:27:44Z</time></trkpt><trkpt lat="50.232492" lon="5.501678"><ele>194.528</ele><time>2022-09-17T10:27:45Z</time></trkpt><trkpt lat="50.232446" lon="5.501564"><ele>194.589</ele><time>2022-09-17T10:27:46Z</time></trkpt><trkpt lat="50.232438" lon="5.501405"><ele>194.617</ele><time>2022-09-17T10:27:47Z</time></trkpt><trkpt lat="50.232397" lon="5.501239"><ele>194.809</ele><time>2022-09-17T10:27:48Z</time></trkpt><trkpt lat="50.232349" lon="5.501070"><ele>195.173</ele><time>2022-09-17T10:27:49Z</time></trkpt><trkpt lat="50.232296" lon="5.500885"><ele>195.523</ele><time>2022-09-17T10:27:50Z</time></trkpt><trkpt lat="50.232246" lon="5.500685"><ele>196.145</ele><time>2022-09-17T10:27:51Z</time></trkpt><trkpt lat="50.232195" lon="5.500476"><ele>196.971</ele><time>2022-09-17T10:27:52Z</time></trkpt><trkpt lat="50.232155" lon="5.500290"><ele>197.216</ele><time>2022-09-17T10:27:53Z</time></trkpt><trkpt lat="50.232131" lon="5.500101"><ele>198.091</ele><time>2022-09-17T10:27:54Z</time></trkpt><trkpt lat="50.232144" lon="5.499913"><ele>198.756</ele><time>2022-09-17T10:27:55Z</time></trkpt><trkpt lat="50.232166" lon="5.499755"><ele>199.450</ele><time>2022-09-17T10:27:56Z</time></trkpt><trkpt lat="50.232187" lon="5.499629"><ele>200.567</ele><time>2022-09-17T10:27:57Z</time></trkpt><trkpt lat="50.232196" lon="5.499487"><ele>201.198</ele><time>2022-09-17T10:27:58Z</time></trkpt><trkpt lat="50.232207" lon="5.499345"><ele>201.515</ele><time>2022-09-17T10:27:59Z</time></trkpt><trkpt lat="50.232227" lon="5.499187"><ele>202.826</ele><time>2022-09-17T10:28:00Z</time></trkpt><trkpt lat="50.232225" lon="5.499023"><ele>203.709</ele><time>2022-09-17T10:28:01Z</time></trkpt><trkpt lat="50.232215" lon="5.498835"><ele>204.580</ele><time>2022-09-17T10:28:02Z</time></trkpt><trkpt lat="50.232197" lon="5.498655"><ele>205.650</ele><time>2022-09-17T10:28:03Z</time></trkpt><trkpt lat="50.232161" lon="5.498469"><ele>206.812</ele><time>2022-09-17T10:28:04Z</time></trkpt><trkpt lat="50.232155" lon="5.498290"><ele>208.088</ele><time>2022-09-17T10:28:05Z</time></trkpt><trkpt lat="50.232143" lon="5.498123"><ele>209.333</ele><time>2022-09-17T10:28:06Z</time></trkpt><trkpt lat="50.232133" lon="5.497949"><ele>210.688</ele><time>2022-09-17T10:28:07Z</time></trkpt><trkpt lat="50.232119" lon="5.497778"><ele>211.963</ele><time>2022-09-17T10:28:08Z</time></trkpt><trkpt lat="50.232100" lon="5.497619"><ele>213.217</ele><time>2022-09-17T10:28:09Z</time></trkpt><trkpt lat="50.232077" lon="5.497453"><ele>214.724</ele><time>2022-09-17T10:28:10Z</time></trkpt><trkpt lat="50.232046" lon="5.497250"><ele>216.163</ele><time>2022-09-17T10:28:11Z</time></trkpt><trkpt lat="50.232013" lon="5.497063"><ele>217.444</ele><time>2022-09-17T10:28:12Z</time></trkpt><trkpt lat="50.231987" lon="5.496873"><ele>218.618</ele><time>2022-09-17T10:28:13Z</time></trkpt><trkpt lat="50.231919" lon="5.496659"><ele>220.209</ele><time>2022-09-17T10:28:14Z</time></trkpt><trkpt lat="50.231837" lon="5.496484"><ele>221.297</ele><time>2022-09-17T10:28:15Z</time></trkpt><trkpt lat="50.231734" lon="5.496294"><ele>222.337</ele><time>2022-09-17T10:28:16Z</time></trkpt><trkpt lat="50.231664" lon="5.496087"><ele>223.519</ele><time>2022-09-17T10:28:17Z</time></trkpt><trkpt lat="50.231589" lon="5.495881"><ele>225.015</ele><time>2022-09-17T10:28:18Z</time></trkpt><trkpt lat="50.231523" lon="5.495672"><ele>226.610</ele><time>2022-09-17T10:28:19Z</time></trkpt><trkpt lat="50.231457" lon="5.495462"><ele>228.025</ele><time>2022-09-17T10:28:20Z</time></trkpt><trkpt lat="50.231375" lon="5.495255"><ele>229.240</ele><time>2022-09-17T10:28:21Z</time></trkpt><trkpt lat="50.231313" lon="5.495029"><ele>230.354</ele><time>2022-09-17T10:28:22Z</time></trkpt><trkpt lat="50.231244" lon="5.494795"><ele>231.221</ele><time>2022-09-17T10:28:23Z</time></trkpt><trkpt lat="50.231196" lon="5.494552"><ele>232.147</ele><time>2022-09-17T10:28:24Z</time></trkpt><trkpt lat="50.231142" lon="5.494325"><ele>233.329</ele><time>2022-09-17T10:28:25Z</time></trkpt><trkpt lat="50.231093" lon="5.494113"><ele>234.821</ele><time>2022-09-17T10:28:26Z</time></trkpt><trkpt lat="50.231040" lon="5.493914"><ele>236.309</ele><time>2022-09-17T10:28:27Z</time></trkpt><trkpt lat="50.230978" lon="5.493746"><ele>237.195</ele><time>2022-09-17T10:28:28Z</time></trkpt><trkpt lat="50.230935" lon="5.493561"><ele>238.825</ele><time>2022-09-17T10:28:29Z</time></trkpt><trkpt lat="50.230878" lon="5.493395"><ele>240.347</ele><time>2022-09-17T10:28:30Z</time></trkpt><trkpt lat="50.230809" lon="5.493213"><ele>241.793</ele><time>2022-09-17T10:28:31Z</time></trkpt><trkpt lat="50.230737" lon="5.493027"><ele>243.498</ele><time>2022-09-17T10:28:32Z</time></trkpt><trkpt lat="50.230662" lon="5.492825"><ele>244.293</ele><time>2022-09-17T10:28:33Z</time></trkpt><trkpt lat="50.230585" lon="5.492623"><ele>244.968</ele><time>2022-09-17T10:28:34Z</time></trkpt><trkpt lat="50.230499" lon="5.492413"><ele>245.472</ele><time>2022-09-17T10:28:35Z</time></trkpt><trkpt lat="50.230416" lon="5.492195"><ele>245.969</ele><time>2022-09-17T10:28:36Z</time></trkpt><trkpt lat="50.230325" lon="5.491997"><ele>246.637</ele><time>2022-09-17T10:28:37Z</time></trkpt><trkpt lat="50.230237" lon="5.491832"><ele>247.449</ele><time>2022-09-17T10:28:38Z</time></trkpt><trkpt lat="50.230145" lon="5.491700"><ele>247.813</ele><time>2022-09-17T10:28:39Z</time></trkpt><trkpt lat="50.230085" lon="5.491552"><ele>248.709</ele><time>2022-09-17T10:28:40Z</time></trkpt><trkpt lat="50.230025" lon="5.491418"><ele>249.634</ele><time>2022-09-17T10:28:41Z</time></trkpt><trkpt lat="50.229969" lon="5.491265"><ele>250.794</ele><time>2022-09-17T10:28:42Z</time></trkpt><trkpt lat="50.229910" lon="5.491104"><ele>251.886</ele><time>2022-09-17T10:28:43Z</time></trkpt><trkpt lat="50.229852" lon="5.490936"><ele>252.992</ele><time>2022-09-17T10:28:44Z</time></trkpt><trkpt lat="50.229765" lon="5.490823"><ele>253.827</ele><time>2022-09-17T10:28:45Z</time></trkpt><trkpt lat="50.229696" lon="5.490718"><ele>254.442</ele><time>2022-09-17T10:28:46Z</time></trkpt><trkpt lat="50.229638" lon="5.490588"><ele>255.087</ele><time>2022-09-17T10:28:47Z</time></trkpt><trkpt lat="50.229596" lon="5.490421"><ele>255.531</ele><time>2022-09-17T10:28:48Z</time></trkpt><trkpt lat="50.229562" lon="5.490249"><ele>255.938</ele><time>2022-09-17T10:28:49Z</time></trkpt><trkpt lat="50.229526" lon="5.490073"><ele>257.066</ele><time>2022-09-17T10:28:50Z</time></trkpt><trkpt lat="50.229463" lon="5.489935"><ele>257.829</ele><time>2022-09-17T10:28:51Z</time></trkpt><trkpt lat="50.229426" lon="5.489799"><ele>258.421</ele><time>2022-09-17T10:28:52Z</time></trkpt><trkpt lat="50.229373" lon="5.489645"><ele>259.109</ele><time>2022-09-17T10:28:53Z</time></trkpt><trkpt lat="50.229338" lon="5.489449"><ele>259.727</ele><time>2022-09-17T10:28:54Z</time></trkpt><trkpt lat="50.229342" lon="5.489260"><ele>259.987</ele><time>2022-09-17T10:28:55Z</time></trkpt><trkpt lat="50.229350" lon="5.489140"><ele>260.489</ele><time>2022-09-17T10:28:56Z</time></trkpt><trkpt lat="50.229299" lon="5.488966"><ele>260.785</ele><time>2022-09-17T10:28:57Z</time></trkpt><trkpt lat="50.229232" lon="5.488806"><ele>261.160</ele><time>2022-09-17T10:28:58Z</time></trkpt><trkpt lat="50.229165" lon="5.488625"><ele>261.755</ele><time>2022-09-17T10:28:59Z</time></trkpt><trkpt lat="50.229097" lon="5.488445"><ele>262.450</ele><time>2022-09-17T10:29:00Z</time></trkpt><trkpt lat="50.229031" lon="5.488261"><ele>263.284</ele><time>2022-09-17T10:29:01Z</time></trkpt><trkpt lat="50.228966" lon="5.488088"><ele>264.361</ele><time>2022-09-17T10:29:02Z</time></trkpt><trkpt lat="50.228903" lon="5.487918"><ele>265.472</ele><time>2022-09-17T10:29:03Z</time></trkpt><trkpt lat="50.228838" lon="5.487754"><ele>266.313</ele><time>2022-09-17T10:29:04Z</time></trkpt><trkpt lat="50.228770" lon="5.487588"><ele>267.114</ele><time>2022-09-17T10:29:05Z</time></trkpt><trkpt lat="50.228706" lon="5.487415"><ele>268.009</ele><time>2022-09-17T10:29:06Z</time></trkpt><trkpt lat="50.228645" lon="5.487232"><ele>269.278</ele><time>2022-09-17T10:29:07Z</time></trkpt><trkpt lat="50.228585" lon="5.487049"><ele>270.498</ele><time>2022-09-17T10:29:08Z</time></trkpt><trkpt lat="50.228514" lon="5.486852"><ele>271.870</ele><time>2022-09-17T10:29:09Z</time></trkpt><trkpt lat="50.228447" lon="5.486656"><ele>272.596</ele><time>2022-09-17T10:29:10Z</time></trkpt><trkpt lat="50.228389" lon="5.486487"><ele>273.251</ele><time>2022-09-17T10:29:11Z</time></trkpt><trkpt lat="50.228332" lon="5.486317"><ele>274.426</ele><time>2022-09-17T10:29:12Z</time></trkpt><trkpt lat="50.228266" lon="5.486144"><ele>275.371</ele><time>2022-09-17T10:29:13Z</time></trkpt><trkpt lat="50.228194" lon="5.485991"><ele>276.185</ele><time>2022-09-17T10:29:14Z</time></trkpt><trkpt lat="50.228119" lon="5.485877"><ele>276.542</ele><time>2022-09-17T10:29:15Z</time></trkpt><trkpt lat="50.228046" lon="5.485795"><ele>276.616</ele><time>2022-09-17T10:29:16Z</time></trkpt><trkpt lat="50.227997" lon="5.485737"><ele>276.976</ele><time>2022-09-17T10:29:17Z</time></trkpt><trkpt lat="50.227945" lon="5.485707"><ele>277.513</ele><time>2022-09-17T10:29:19Z</time></trkpt><trkpt lat="50.227895" lon="5.485640"><ele>278.109</ele><time>2022-09-17T10:29:22Z</time></trkpt><trkpt lat="50.227822" lon="5.485567"><ele>278.272</ele><time>2022-09-17T10:29:24Z</time></trkpt><trkpt lat="50.227781" lon="5.485516"><ele>278.252</ele><time>2022-09-17T10:29:25Z</time></trkpt><trkpt lat="50.227807" lon="5.485356"><ele>278.284</ele><time>2022-09-17T10:29:26Z</time></trkpt><trkpt lat="50.227765" lon="5.485300"><ele>278.210</ele><time>2022-09-17T10:29:27Z</time></trkpt><trkpt lat="50.227727" lon="5.485250"><ele>278.265</ele><time>2022-09-17T10:29:28Z</time></trkpt><trkpt lat="50.227692" lon="5.485203"><ele>278.390</ele><time>2022-09-17T10:29:29Z</time></trkpt><trkpt lat="50.227654" lon="5.485153"><ele>278.335</ele><time>2022-09-17T10:29:30Z</time></trkpt><trkpt lat="50.227611" lon="5.485096"><ele>278.319</ele><time>2022-09-17T10:29:32Z</time></trkpt><trkpt lat="50.227452" lon="5.485401"><ele>278.836</ele><time>2022-09-17T10:29:47Z</time></trkpt><trkpt lat="50.227431" lon="5.485475"><ele>279.088</ele><time>2022-09-17T10:29:48Z</time></trkpt><trkpt lat="50.227388" lon="5.485577"><ele>279.124</ele><time>2022-09-17T10:29:49Z</time></trkpt><trkpt lat="50.227345" lon="5.485677"><ele>279.226</ele><time>2022-09-17T10:29:50Z</time></trkpt><trkpt lat="50.227290" lon="5.485804"><ele>279.409</ele><time>2022-09-17T10:29:51Z</time></trkpt><trkpt lat="50.227214" lon="5.485905"><ele>280.019</ele><time>2022-09-17T10:29:52Z</time></trkpt><trkpt lat="50.227147" lon="5.485977"><ele>280.259</ele><time>2022-09-17T10:29:53Z</time></trkpt><trkpt lat="50.227074" lon="5.486042"><ele>280.331</ele><time>2022-09-17T10:29:54Z</time></trkpt><trkpt lat="50.227001" lon="5.486100"><ele>280.567</ele><time>2022-09-17T10:29:55Z</time></trkpt><trkpt lat="50.226935" lon="5.486142"><ele>280.742</ele><time>2022-09-17T10:29:56Z</time></trkpt><trkpt lat="50.226847" lon="5.486192"><ele>281.197</ele><time>2022-09-17T10:29:57Z</time></trkpt><trkpt lat="50.226769" lon="5.486210"><ele>281.782</ele><time>2022-09-17T10:29:58Z</time></trkpt><trkpt lat="50.226705" lon="5.486240"><ele>282.526</ele><time>2022-09-17T10:29:59Z</time></trkpt><trkpt lat="50.226639" lon="5.486267"><ele>283.363</ele><time>2022-09-17T10:30:00Z</time></trkpt><trkpt lat="50.226574" lon="5.486298"><ele>283.899</ele><time>2022-09-17T10:30:01Z</time></trkpt><trkpt lat="50.226514" lon="5.486317"><ele>283.707</ele><time>2022-09-17T10:30:02Z</time></trkpt><trkpt lat="50.226448" lon="5.486307"><ele>283.727</ele><time>2022-09-17T10:30:03Z</time></trkpt><trkpt lat="50.226379" lon="5.486249"><ele>283.509</ele><time>2022-09-17T10:30:04Z</time></trkpt><trkpt lat="50.226304" lon="5.486195"><ele>283.010</ele><time>2022-09-17T10:30:05Z</time></trkpt><trkpt lat="50.226229" lon="5.486166"><ele>282.690</ele><time>2022-09-17T10:30:06Z</time></trkpt><trkpt lat="50.226163" lon="5.486104"><ele>282.122</ele><time>2022-09-17T10:30:07Z</time></trkpt><trkpt lat="50.226104" lon="5.486034"><ele>281.448</ele><time>2022-09-17T10:30:08Z</time></trkpt><trkpt lat="50.226038" lon="5.485972"><ele>280.663</ele><time>2022-09-17T10:30:09Z</time></trkpt><trkpt lat="50.225987" lon="5.485931"><ele>279.928</ele><time>2022-09-17T10:30:10Z</time></trkpt><trkpt lat="50.225950" lon="5.485887"><ele>279.613</ele><time>2022-09-17T10:30:11Z</time></trkpt><trkpt lat="50.225885" lon="5.485830"><ele>279.027</ele><time>2022-09-17T10:30:13Z</time></trkpt><trkpt lat="50.225813" lon="5.485812"><ele>278.614</ele><time>2022-09-17T10:30:15Z</time></trkpt><trkpt lat="50.225742" lon="5.485818"><ele>278.252</ele><time>2022-09-17T10:30:17Z</time></trkpt><trkpt lat="50.225676" lon="5.485817"><ele>277.553</ele><time>2022-09-17T10:30:19Z</time></trkpt><trkpt lat="50.225623" lon="5.485799"><ele>277.208</ele><time>2022-09-17T10:30:20Z</time></trkpt><trkpt lat="50.225567" lon="5.485813"><ele>276.209</ele><time>2022-09-17T10:30:21Z</time></trkpt><trkpt lat="50.225505" lon="5.485839"><ele>275.736</ele><time>2022-09-17T10:30:22Z</time></trkpt><trkpt lat="50.225437" lon="5.485853"><ele>275.156</ele><time>2022-09-17T10:30:23Z</time></trkpt><trkpt lat="50.225376" lon="5.485872"><ele>274.628</ele><time>2022-09-17T10:30:24Z</time></trkpt><trkpt lat="50.225317" lon="5.485880"><ele>273.974</ele><time>2022-09-17T10:30:25Z</time></trkpt><trkpt lat="50.225262" lon="5.485901"><ele>273.369</ele><time>2022-09-17T10:30:26Z</time></trkpt><trkpt lat="50.225215" lon="5.485902"><ele>272.624</ele><time>2022-09-17T10:30:27Z</time></trkpt><trkpt lat="50.225160" lon="5.485847"><ele>272.159</ele><time>2022-09-17T10:30:28Z</time></trkpt><trkpt lat="50.225112" lon="5.485836"><ele>272.043</ele><time>2022-09-17T10:30:29Z</time></trkpt><trkpt lat="50.225055" lon="5.485793"><ele>272.020</ele><time>2022-09-17T10:30:30Z</time></trkpt><trkpt lat="50.225011" lon="5.485769"><ele>272.061</ele><time>2022-09-17T10:30:31Z</time></trkpt><trkpt lat="50.224910" lon="5.485770"><ele>272.321</ele><time>2022-09-17T10:30:33Z</time></trkpt><trkpt lat="50.224829" lon="5.485802"><ele>272.713</ele><time>2022-09-17T10:30:35Z</time></trkpt><trkpt lat="50.224774" lon="5.485807"><ele>272.809</ele><time>2022-09-17T10:30:36Z</time></trkpt><trkpt lat="50.224658" lon="5.485793"><ele>272.887</ele><time>2022-09-17T10:30:37Z</time></trkpt><trkpt lat="50.224548" lon="5.485740"><ele>272.827</ele><time>2022-09-17T10:30:38Z</time></trkpt><trkpt lat="50.224440" lon="5.485666"><ele>272.879</ele><time>2022-09-17T10:30:39Z</time></trkpt><trkpt lat="50.224340" lon="5.485602"><ele>272.715</ele><time>2022-09-17T10:30:40Z</time></trkpt><trkpt lat="50.224229" lon="5.485534"><ele>272.510</ele><time>2022-09-17T10:30:41Z</time></trkpt><trkpt lat="50.224120" lon="5.485449"><ele>272.145</ele><time>2022-09-17T10:30:42Z</time></trkpt><trkpt lat="50.224014" lon="5.485353"><ele>271.510</ele><time>2022-09-17T10:30:43Z</time></trkpt><trkpt lat="50.223925" lon="5.485248"><ele>270.784</ele><time>2022-09-17T10:30:44Z</time></trkpt><trkpt lat="50.223855" lon="5.485140"><ele>270.121</ele><time>2022-09-17T10:30:45Z</time></trkpt><trkpt lat="50.223787" lon="5.485035"><ele>269.446</ele><time>2022-09-17T10:30:46Z</time></trkpt><trkpt lat="50.223710" lon="5.484994"><ele>269.188</ele><time>2022-09-17T10:30:47Z</time></trkpt><trkpt lat="50.223628" lon="5.485034"><ele>269.216</ele><time>2022-09-17T10:30:48Z</time></trkpt><trkpt lat="50.223564" lon="5.484988"><ele>269.209</ele><time>2022-09-17T10:30:49Z</time></trkpt><trkpt lat="50.223521" lon="5.484921"><ele>269.485</ele><time>2022-09-17T10:30:50Z</time></trkpt><trkpt lat="50.223466" lon="5.484879"><ele>269.875</ele><time>2022-09-17T10:30:51Z</time></trkpt><trkpt lat="50.223387" lon="5.484857"><ele>270.287</ele><time>2022-09-17T10:30:52Z</time></trkpt><trkpt lat="50.223306" lon="5.484829"><ele>270.413</ele><time>2022-09-17T10:30:53Z</time></trkpt><trkpt lat="50.223224" lon="5.484785"><ele>270.498</ele><time>2022-09-17T10:30:54Z</time></trkpt><trkpt lat="50.223146" lon="5.484724"><ele>270.483</ele><time>2022-09-17T10:30:55Z</time></trkpt><trkpt lat="50.223055" lon="5.484690"><ele>270.298</ele><time>2022-09-17T10:30:56Z</time></trkpt><trkpt lat="50.222972" lon="5.484631"><ele>269.472</ele><time>2022-09-17T10:30:57Z</time></trkpt><trkpt lat="50.222919" lon="5.484620"><ele>269.059</ele><time>2022-09-17T10:30:58Z</time></trkpt><trkpt lat="50.222848" lon="5.484641"><ele>268.385</ele><time>2022-09-17T10:30:59Z</time></trkpt><trkpt lat="50.222755" lon="5.484661"><ele>267.689</ele><time>2022-09-17T10:31:00Z</time></trkpt><trkpt lat="50.222669" lon="5.484688"><ele>267.017</ele><time>2022-09-17T10:31:01Z</time></trkpt><trkpt lat="50.222594" lon="5.484711"><ele>266.509</ele><time>2022-09-17T10:31:02Z</time></trkpt><trkpt lat="50.222515" lon="5.484716"><ele>266.139</ele><time>2022-09-17T10:31:03Z</time></trkpt><trkpt lat="50.222448" lon="5.484732"><ele>265.719</ele><time>2022-09-17T10:31:04Z</time></trkpt><trkpt lat="50.222374" lon="5.484726"><ele>265.481</ele><time>2022-09-17T10:31:05Z</time></trkpt><trkpt lat="50.222307" lon="5.484728"><ele>265.117</ele><time>2022-09-17T10:31:06Z</time></trkpt><trkpt lat="50.222234" lon="5.484739"><ele>264.942</ele><time>2022-09-17T10:31:07Z</time></trkpt><trkpt lat="50.222155" lon="5.484751"><ele>264.777</ele><time>2022-09-17T10:31:08Z</time></trkpt><trkpt lat="50.222074" lon="5.484760"><ele>264.522</ele><time>2022-09-17T10:31:09Z</time></trkpt><trkpt lat="50.221981" lon="5.484767"><ele>264.376</ele><time>2022-09-17T10:31:10Z</time></trkpt><trkpt lat="50.221905" lon="5.484773"><ele>264.283</ele><time>2022-09-17T10:31:11Z</time></trkpt><trkpt lat="50.221830" lon="5.484730"><ele>264.197</ele><time>2022-09-17T10:31:12Z</time></trkpt><trkpt lat="50.221722" lon="5.484659"><ele>263.823</ele><time>2022-09-17T10:31:13Z</time></trkpt><trkpt lat="50.221567" lon="5.484532"><ele>263.425</ele><time>2022-09-17T10:31:14Z</time></trkpt><trkpt lat="50.221418" lon="5.484421"><ele>263.209</ele><time>2022-09-17T10:31:15Z</time></trkpt><trkpt lat="50.221260" lon="5.484369"><ele>263.170</ele><time>2022-09-17T10:31:16Z</time></trkpt><trkpt lat="50.221140" lon="5.484304"><ele>263.170</ele><time>2022-09-17T10:31:17Z</time></trkpt><trkpt lat="50.221029" lon="5.484233"><ele>263.132</ele><time>2022-09-17T10:31:18Z</time></trkpt><trkpt lat="50.220903" lon="5.484156"><ele>263.428</ele><time>2022-09-17T10:31:19Z</time></trkpt><trkpt lat="50.220808" lon="5.484104"><ele>263.453</ele><time>2022-09-17T10:31:20Z</time></trkpt><trkpt lat="50.220717" lon="5.484074"><ele>263.178</ele><time>2022-09-17T10:31:21Z</time></trkpt><trkpt lat="50.220613" lon="5.484081"><ele>263.043</ele><time>2022-09-17T10:31:22Z</time></trkpt><trkpt lat="50.220509" lon="5.484137"><ele>262.677</ele><time>2022-09-17T10:31:23Z</time></trkpt><trkpt lat="50.220420" lon="5.484215"><ele>262.594</ele><time>2022-09-17T10:31:24Z</time></trkpt><trkpt lat="50.220347" lon="5.484309"><ele>262.599</ele><time>2022-09-17T10:31:25Z</time></trkpt><trkpt lat="50.220289" lon="5.484383"><ele>262.907</ele><time>2022-09-17T10:31:26Z</time></trkpt><trkpt lat="50.220243" lon="5.484483"><ele>263.127</ele><time>2022-09-17T10:31:27Z</time></trkpt><trkpt lat="50.220214" lon="5.484539"><ele>263.709</ele><time>2022-09-17T10:31:28Z</time></trkpt><trkpt lat="50.220143" lon="5.484478"><ele>264.440</ele><time>2022-09-17T10:31:30Z</time></trkpt><trkpt lat="50.220086" lon="5.484355"><ele>265.550</ele><time>2022-09-17T10:31:31Z</time></trkpt><trkpt lat="50.220012" lon="5.484194"><ele>266.942</ele><time>2022-09-17T10:31:32Z</time></trkpt><trkpt lat="50.219932" lon="5.484026"><ele>267.498</ele><time>2022-09-17T10:31:33Z</time></trkpt><trkpt lat="50.219835" lon="5.483834"><ele>268.133</ele><time>2022-09-17T10:31:34Z</time></trkpt><trkpt lat="50.219733" lon="5.483618"><ele>268.618</ele><time>2022-09-17T10:31:35Z</time></trkpt><trkpt lat="50.219631" lon="5.483401"><ele>269.123</ele><time>2022-09-17T10:31:36Z</time></trkpt><trkpt lat="50.219525" lon="5.483178"><ele>269.727</ele><time>2022-09-17T10:31:37Z</time></trkpt><trkpt lat="50.219423" lon="5.482966"><ele>270.554</ele><time>2022-09-17T10:31:38Z</time></trkpt><trkpt lat="50.219322" lon="5.482750"><ele>271.329</ele><time>2022-09-17T10:31:39Z</time></trkpt><trkpt lat="50.219220" lon="5.482529"><ele>271.800</ele><time>2022-09-17T10:31:40Z</time></trkpt><trkpt lat="50.219118" lon="5.482317"><ele>272.320</ele><time>2022-09-17T10:31:41Z</time></trkpt><trkpt lat="50.219020" lon="5.482109"><ele>272.509</ele><time>2022-09-17T10:31:42Z</time></trkpt><trkpt lat="50.218928" lon="5.481899"><ele>272.663</ele><time>2022-09-17T10:31:43Z</time></trkpt><trkpt lat="50.218833" lon="5.481714"><ele>272.663</ele><time>2022-09-17T10:31:44Z</time></trkpt><trkpt lat="50.218749" lon="5.481521"><ele>272.585</ele><time>2022-09-17T10:31:45Z</time></trkpt><trkpt lat="50.218665" lon="5.481345"><ele>272.591</ele><time>2022-09-17T10:31:46Z</time></trkpt><trkpt lat="50.218582" lon="5.481166"><ele>272.526</ele><time>2022-09-17T10:31:47Z</time></trkpt><trkpt lat="50.218499" lon="5.480994"><ele>272.481</ele><time>2022-09-17T10:31:48Z</time></trkpt><trkpt lat="50.218417" lon="5.480815"><ele>272.326</ele><time>2022-09-17T10:31:49Z</time></trkpt><trkpt lat="50.218336" lon="5.480639"><ele>272.220</ele><time>2022-09-17T10:31:50Z</time></trkpt><trkpt lat="50.218264" lon="5.480454"><ele>272.027</ele><time>2022-09-17T10:31:51Z</time></trkpt><trkpt lat="50.218197" lon="5.480278"><ele>271.956</ele><time>2022-09-17T10:31:52Z</time></trkpt><trkpt lat="50.218142" lon="5.480101"><ele>271.959</ele><time>2022-09-17T10:31:53Z</time></trkpt><trkpt lat="50.218095" lon="5.479916"><ele>271.914</ele><time>2022-09-17T10:31:54Z</time></trkpt><trkpt lat="50.218053" lon="5.479735"><ele>272.009</ele><time>2022-09-17T10:31:55Z</time></trkpt><trkpt lat="50.218013" lon="5.479561"><ele>272.196</ele><time>2022-09-17T10:31:56Z</time></trkpt><trkpt lat="50.217973" lon="5.479383"><ele>272.136</ele><time>2022-09-17T10:31:57Z</time></trkpt><trkpt lat="50.217932" lon="5.479215"><ele>272.128</ele><time>2022-09-17T10:31:58Z</time></trkpt><trkpt lat="50.217888" lon="5.479046"><ele>272.194</ele><time>2022-09-17T10:31:59Z</time></trkpt><trkpt lat="50.217847" lon="5.478879"><ele>272.089</ele><time>2022-09-17T10:32:00Z</time></trkpt><trkpt lat="50.217819" lon="5.478732"><ele>272.024</ele><time>2022-09-17T10:32:01Z</time></trkpt><trkpt lat="50.217793" lon="5.478584"><ele>272.119</ele><time>2022-09-17T10:32:02Z</time></trkpt><trkpt lat="50.217761" lon="5.478435"><ele>272.323</ele><time>2022-09-17T10:32:03Z</time></trkpt><trkpt lat="50.217732" lon="5.478276"><ele>272.550</ele><time>2022-09-17T10:32:04Z</time></trkpt><trkpt lat="50.217726" lon="5.478106"><ele>272.732</ele><time>2022-09-17T10:32:05Z</time></trkpt><trkpt lat="50.217749" lon="5.477945"><ele>273.192</ele><time>2022-09-17T10:32:06Z</time></trkpt><trkpt lat="50.217765" lon="5.477783"><ele>273.511</ele><time>2022-09-17T10:32:07Z</time></trkpt><trkpt lat="50.217781" lon="5.477623"><ele>273.609</ele><time>2022-09-17T10:32:08Z</time></trkpt><trkpt lat="50.217797" lon="5.477473"><ele>273.784</ele><time>2022-09-17T10:32:09Z</time></trkpt><trkpt lat="50.217806" lon="5.477315"><ele>273.774</ele><time>2022-09-17T10:32:10Z</time></trkpt><trkpt lat="50.217814" lon="5.477166"><ele>273.786</ele><time>2022-09-17T10:32:11Z</time></trkpt><trkpt lat="50.217797" lon="5.477011"><ele>273.522</ele><time>2022-09-17T10:32:12Z</time></trkpt><trkpt lat="50.217765" lon="5.476870"><ele>273.367</ele><time>2022-09-17T10:32:13Z</time></trkpt><trkpt lat="50.217732" lon="5.476733"><ele>272.942</ele><time>2022-09-17T10:32:14Z</time></trkpt><trkpt lat="50.217678" lon="5.476598"><ele>272.487</ele><time>2022-09-17T10:32:15Z</time></trkpt><trkpt lat="50.217638" lon="5.476443"><ele>272.031</ele><time>2022-09-17T10:32:16Z</time></trkpt><trkpt lat="50.217561" lon="5.476301"><ele>271.418</ele><time>2022-09-17T10:32:17Z</time></trkpt><trkpt lat="50.217507" lon="5.476134"><ele>270.841</ele><time>2022-09-17T10:32:18Z</time></trkpt><trkpt lat="50.217446" lon="5.475964"><ele>270.481</ele><time>2022-09-17T10:32:19Z</time></trkpt><trkpt lat="50.217388" lon="5.475797"><ele>270.009</ele><time>2022-09-17T10:32:20Z</time></trkpt><trkpt lat="50.217334" lon="5.475627"><ele>269.409</ele><time>2022-09-17T10:32:21Z</time></trkpt><trkpt lat="50.217284" lon="5.475445"><ele>268.865</ele><time>2022-09-17T10:32:22Z</time></trkpt><trkpt lat="50.217237" lon="5.475262"><ele>268.155</ele><time>2022-09-17T10:32:23Z</time></trkpt><trkpt lat="50.217201" lon="5.475078"><ele>267.517</ele><time>2022-09-17T10:32:24Z</time></trkpt><trkpt lat="50.217169" lon="5.474895"><ele>267.093</ele><time>2022-09-17T10:32:25Z</time></trkpt><trkpt lat="50.217143" lon="5.474700"><ele>266.528</ele><time>2022-09-17T10:32:26Z</time></trkpt><trkpt lat="50.217117" lon="5.474516"><ele>266.033</ele><time>2022-09-17T10:32:27Z</time></trkpt><trkpt lat="50.217094" lon="5.474336"><ele>265.658</ele><time>2022-09-17T10:32:28Z</time></trkpt><trkpt lat="50.217073" lon="5.474161"><ele>265.152</ele><time>2022-09-17T10:32:29Z</time></trkpt><trkpt lat="50.217050" lon="5.473978"><ele>264.589</ele><time>2022-09-17T10:32:30Z</time></trkpt><trkpt lat="50.217038" lon="5.473795"><ele>263.975</ele><time>2022-09-17T10:32:31Z</time></trkpt><trkpt lat="50.217027" lon="5.473617"><ele>263.528</ele><time>2022-09-17T10:32:32Z</time></trkpt><trkpt lat="50.217042" lon="5.473450"><ele>263.120</ele><time>2022-09-17T10:32:33Z</time></trkpt><trkpt lat="50.217066" lon="5.473302"><ele>262.909</ele><time>2022-09-17T10:32:34Z</time></trkpt><trkpt lat="50.217102" lon="5.473156"><ele>262.978</ele><time>2022-09-17T10:32:35Z</time></trkpt><trkpt lat="50.217124" lon="5.473004"><ele>262.948</ele><time>2022-09-17T10:32:36Z</time></trkpt><trkpt lat="50.217134" lon="5.472853"><ele>262.810</ele><time>2022-09-17T10:32:37Z</time></trkpt><trkpt lat="50.217139" lon="5.472724"><ele>262.796</ele><time>2022-09-17T10:32:38Z</time></trkpt><trkpt lat="50.217144" lon="5.472610"><ele>262.721</ele><time>2022-09-17T10:32:39Z</time></trkpt><trkpt lat="50.217153" lon="5.472518"><ele>262.616</ele><time>2022-09-17T10:32:40Z</time></trkpt><trkpt lat="50.217163" lon="5.472419"><ele>262.541</ele><time>2022-09-17T10:32:41Z</time></trkpt><trkpt lat="50.217168" lon="5.472330"><ele>262.465</ele><time>2022-09-17T10:32:42Z</time></trkpt><trkpt lat="50.217020" lon="5.472228"><ele>262.032</ele><time>2022-09-17T10:32:43Z</time></trkpt><trkpt lat="50.216943" lon="5.472134"><ele>261.769</ele><time>2022-09-17T10:32:44Z</time></trkpt><trkpt lat="50.216878" lon="5.472010"><ele>261.404</ele><time>2022-09-17T10:32:45Z</time></trkpt><trkpt lat="50.216801" lon="5.471870"><ele>260.924</ele><time>2022-09-17T10:32:46Z</time></trkpt><trkpt lat="50.216708" lon="5.471747"><ele>260.609</ele><time>2022-09-17T10:32:47Z</time></trkpt><trkpt lat="50.216600" lon="5.471632"><ele>260.447</ele><time>2022-09-17T10:32:48Z</time></trkpt><trkpt lat="50.216485" lon="5.471512"><ele>260.157</ele><time>2022-09-17T10:32:49Z</time></trkpt><trkpt lat="50.216364" lon="5.471397"><ele>259.489</ele><time>2022-09-17T10:32:50Z</time></trkpt><trkpt lat="50.216281" lon="5.471275"><ele>259.255</ele><time>2022-09-17T10:32:51Z</time></trkpt><trkpt lat="50.216224" lon="5.471127"><ele>258.790</ele><time>2022-09-17T10:32:52Z</time></trkpt><trkpt lat="50.216169" lon="5.470958"><ele>258.325</ele><time>2022-09-17T10:32:53Z</time></trkpt><trkpt lat="50.216114" lon="5.470743"><ele>258.060</ele><time>2022-09-17T10:32:54Z</time></trkpt><trkpt lat="50.216050" lon="5.470519"><ele>258.074</ele><time>2022-09-17T10:32:55Z</time></trkpt><trkpt lat="50.216014" lon="5.470287"><ele>258.191</ele><time>2022-09-17T10:32:56Z</time></trkpt><trkpt lat="50.215982" lon="5.470080"><ele>258.255</ele><time>2022-09-17T10:32:57Z</time></trkpt><trkpt lat="50.215962" lon="5.469866"><ele>258.507</ele><time>2022-09-17T10:32:58Z</time></trkpt><trkpt lat="50.215921" lon="5.469701"><ele>258.717</ele><time>2022-09-17T10:32:59Z</time></trkpt><trkpt lat="50.215875" lon="5.469546"><ele>259.309</ele><time>2022-09-17T10:33:00Z</time></trkpt><trkpt lat="50.215823" lon="5.469381"><ele>259.616</ele><time>2022-09-17T10:33:01Z</time></trkpt><trkpt lat="50.215728" lon="5.469222"><ele>260.526</ele><time>2022-09-17T10:33:02Z</time></trkpt><trkpt lat="50.215586" lon="5.469184"><ele>261.528</ele><time>2022-09-17T10:33:03Z</time></trkpt><trkpt lat="50.215460" lon="5.469134"><ele>262.124</ele><time>2022-09-17T10:33:04Z</time></trkpt><trkpt lat="50.215330" lon="5.469082"><ele>262.489</ele><time>2022-09-17T10:33:05Z</time></trkpt><trkpt lat="50.215201" lon="5.469013"><ele>263.644</ele><time>2022-09-17T10:33:06Z</time></trkpt><trkpt lat="50.215085" lon="5.468937"><ele>264.049</ele><time>2022-09-17T10:33:07Z</time></trkpt><trkpt lat="50.214965" lon="5.468832"><ele>265.183</ele><time>2022-09-17T10:33:08Z</time></trkpt><trkpt lat="50.214844" lon="5.468714"><ele>266.860</ele><time>2022-09-17T10:33:09Z</time></trkpt><trkpt lat="50.214732" lon="5.468583"><ele>267.966</ele><time>2022-09-17T10:33:10Z</time></trkpt><trkpt lat="50.214619" lon="5.468427"><ele>269.029</ele><time>2022-09-17T10:33:11Z</time></trkpt><trkpt lat="50.214519" lon="5.468252"><ele>270.021</ele><time>2022-09-17T10:33:12Z</time></trkpt><trkpt lat="50.214410" lon="5.468068"><ele>271.009</ele><time>2022-09-17T10:33:13Z</time></trkpt><trkpt lat="50.214309" lon="5.467893"><ele>272.147</ele><time>2022-09-17T10:33:14Z</time></trkpt><trkpt lat="50.214219" lon="5.467741"><ele>273.187</ele><time>2022-09-17T10:33:15Z</time></trkpt><trkpt lat="50.214127" lon="5.467586"><ele>273.539</ele><time>2022-09-17T10:33:16Z</time></trkpt><trkpt lat="50.214037" lon="5.467431"><ele>274.915</ele><time>2022-09-17T10:33:17Z</time></trkpt><trkpt lat="50.213944" lon="5.467277"><ele>275.720</ele><time>2022-09-17T10:33:18Z</time></trkpt><trkpt lat="50.213838" lon="5.467118"><ele>276.395</ele><time>2022-09-17T10:33:19Z</time></trkpt><trkpt lat="50.213732" lon="5.466965"><ele>276.880</ele><time>2022-09-17T10:33:20Z</time></trkpt><trkpt lat="50.213625" lon="5.466804"><ele>277.144</ele><time>2022-09-17T10:33:21Z</time></trkpt><trkpt lat="50.213516" lon="5.466652"><ele>277.081</ele><time>2022-09-17T10:33:22Z</time></trkpt><trkpt lat="50.213402" lon="5.466484"><ele>276.833</ele><time>2022-09-17T10:33:23Z</time></trkpt><trkpt lat="50.213296" lon="5.466317"><ele>276.523</ele><time>2022-09-17T10:33:24Z</time></trkpt><trkpt lat="50.213197" lon="5.466146"><ele>276.415</ele><time>2022-09-17T10:33:25Z</time></trkpt><trkpt lat="50.213107" lon="5.465975"><ele>276.409</ele><time>2022-09-17T10:33:26Z</time></trkpt><trkpt lat="50.213024" lon="5.465797"><ele>276.564</ele><time>2022-09-17T10:33:27Z</time></trkpt><trkpt lat="50.212942" lon="5.465602"><ele>276.784</ele><time>2022-09-17T10:33:28Z</time></trkpt><trkpt lat="50.212870" lon="5.465401"><ele>276.886</ele><time>2022-09-17T10:33:29Z</time></trkpt><trkpt lat="50.212792" lon="5.465184"><ele>276.832</ele><time>2022-09-17T10:33:30Z</time></trkpt><trkpt lat="50.212707" lon="5.464959"><ele>276.857</ele><time>2022-09-17T10:33:31Z</time></trkpt><trkpt lat="50.212620" lon="5.464733"><ele>276.742</ele><time>2022-09-17T10:33:32Z</time></trkpt><trkpt lat="50.212529" lon="5.464493"><ele>276.797</ele><time>2022-09-17T10:33:33Z</time></trkpt><trkpt lat="50.212439" lon="5.464249"><ele>276.891</ele><time>2022-09-17T10:33:34Z</time></trkpt><trkpt lat="50.212353" lon="5.464006"><ele>276.998</ele><time>2022-09-17T10:33:35Z</time></trkpt><trkpt lat="50.212265" lon="5.463763"><ele>277.046</ele><time>2022-09-17T10:33:36Z</time></trkpt><trkpt lat="50.212177" lon="5.463520"><ele>277.088</ele><time>2022-09-17T10:33:37Z</time></trkpt><trkpt lat="50.212088" lon="5.463273"><ele>276.916</ele><time>2022-09-17T10:33:38Z</time></trkpt><trkpt lat="50.211999" lon="5.463031"><ele>276.509</ele><time>2022-09-17T10:33:39Z</time></trkpt><trkpt lat="50.211910" lon="5.462788"><ele>276.115</ele><time>2022-09-17T10:33:40Z</time></trkpt><trkpt lat="50.211818" lon="5.462553"><ele>275.565</ele><time>2022-09-17T10:33:41Z</time></trkpt><trkpt lat="50.211722" lon="5.462291"><ele>274.637</ele><time>2022-09-17T10:33:42Z</time></trkpt><trkpt lat="50.211625" lon="5.462036"><ele>273.723</ele><time>2022-09-17T10:33:43Z</time></trkpt><trkpt lat="50.211533" lon="5.461787"><ele>272.848</ele><time>2022-09-17T10:33:44Z</time></trkpt><trkpt lat="50.211443" lon="5.461540"><ele>271.973</ele><time>2022-09-17T10:33:45Z</time></trkpt><trkpt lat="50.211351" lon="5.461285"><ele>270.948</ele><time>2022-09-17T10:33:46Z</time></trkpt><trkpt lat="50.211263" lon="5.461046"><ele>270.292</ele><time>2022-09-17T10:33:47Z</time></trkpt><trkpt lat="50.211176" lon="5.460812"><ele>270.049</ele><time>2022-09-17T10:33:48Z</time></trkpt><trkpt lat="50.211086" lon="5.460576"><ele>270.078</ele><time>2022-09-17T10:33:49Z</time></trkpt><trkpt lat="50.211001" lon="5.460340"><ele>270.233</ele><time>2022-09-17T10:33:50Z</time></trkpt><trkpt lat="50.210918" lon="5.460097"><ele>270.826</ele><time>2022-09-17T10:33:51Z</time></trkpt><trkpt lat="50.210831" lon="5.459859"><ele>271.509</ele><time>2022-09-17T10:33:52Z</time></trkpt><trkpt lat="50.210742" lon="5.459611"><ele>272.248</ele><time>2022-09-17T10:33:53Z</time></trkpt><trkpt lat="50.210653" lon="5.459362"><ele>273.178</ele><time>2022-09-17T10:33:54Z</time></trkpt><trkpt lat="50.210563" lon="5.459110"><ele>274.220</ele><time>2022-09-17T10:33:55Z</time></trkpt><trkpt lat="50.210474" lon="5.458859"><ele>275.456</ele><time>2022-09-17T10:33:56Z</time></trkpt><trkpt lat="50.210380" lon="5.458603"><ele>276.741</ele><time>2022-09-17T10:33:57Z</time></trkpt><trkpt lat="50.210303" lon="5.458333"><ele>278.076</ele><time>2022-09-17T10:33:58Z</time></trkpt><trkpt lat="50.210213" lon="5.458070"><ele>279.321</ele><time>2022-09-17T10:33:59Z</time></trkpt><trkpt lat="50.210122" lon="5.457803"><ele>280.555</ele><time>2022-09-17T10:34:00Z</time></trkpt><trkpt lat="50.210032" lon="5.457539"><ele>281.542</ele><time>2022-09-17T10:34:01Z</time></trkpt><trkpt lat="50.209940" lon="5.457270"><ele>282.589</ele><time>2022-09-17T10:34:02Z</time></trkpt><trkpt lat="50.209841" lon="5.457013"><ele>283.406</ele><time>2022-09-17T10:34:03Z</time></trkpt><trkpt lat="50.209741" lon="5.456762"><ele>284.126</ele><time>2022-09-17T10:34:04Z</time></trkpt><trkpt lat="50.209642" lon="5.456516"><ele>284.709</ele><time>2022-09-17T10:34:05Z</time></trkpt><trkpt lat="50.209541" lon="5.456268"><ele>285.149</ele><time>2022-09-17T10:34:06Z</time></trkpt><trkpt lat="50.209440" lon="5.456023"><ele>285.259</ele><time>2022-09-17T10:34:07Z</time></trkpt><trkpt lat="50.209340" lon="5.455784"><ele>285.241</ele><time>2022-09-17T10:34:08Z</time></trkpt><trkpt lat="50.209240" lon="5.455543"><ele>285.297</ele><time>2022-09-17T10:34:09Z</time></trkpt><trkpt lat="50.209140" lon="5.455307"><ele>285.282</ele><time>2022-09-17T10:34:10Z</time></trkpt><trkpt lat="50.209041" lon="5.455076"><ele>285.397</ele><time>2022-09-17T10:34:11Z</time></trkpt><trkpt lat="50.208941" lon="5.454846"><ele>285.582</ele><time>2022-09-17T10:34:12Z</time></trkpt><trkpt lat="50.208838" lon="5.454608"><ele>285.986</ele><time>2022-09-17T10:34:13Z</time></trkpt><trkpt lat="50.208735" lon="5.454371"><ele>286.353</ele><time>2022-09-17T10:34:14Z</time></trkpt><trkpt lat="50.208635" lon="5.454131"><ele>286.634</ele><time>2022-09-17T10:34:15Z</time></trkpt><trkpt lat="50.208537" lon="5.453895"><ele>286.955</ele><time>2022-09-17T10:34:16Z</time></trkpt><trkpt lat="50.208437" lon="5.453655"><ele>287.110</ele><time>2022-09-17T10:34:17Z</time></trkpt><trkpt lat="50.208337" lon="5.453415"><ele>287.409</ele><time>2022-09-17T10:34:18Z</time></trkpt><trkpt lat="50.208235" lon="5.453179"><ele>288.244</ele><time>2022-09-17T10:34:19Z</time></trkpt><trkpt lat="50.208135" lon="5.452950"><ele>289.374</ele><time>2022-09-17T10:34:20Z</time></trkpt><trkpt lat="50.208033" lon="5.452717"><ele>290.526</ele><time>2022-09-17T10:34:21Z</time></trkpt><trkpt lat="50.207931" lon="5.452484"><ele>292.432</ele><time>2022-09-17T10:34:22Z</time></trkpt><trkpt lat="50.207826" lon="5.452244"><ele>293.957</ele><time>2022-09-17T10:34:23Z</time></trkpt><trkpt lat="50.207725" lon="5.452011"><ele>294.722</ele><time>2022-09-17T10:34:24Z</time></trkpt><trkpt lat="50.207621" lon="5.451773"><ele>295.957</ele><time>2022-09-17T10:34:25Z</time></trkpt><trkpt lat="50.207518" lon="5.451537"><ele>297.031</ele><time>2022-09-17T10:34:26Z</time></trkpt><trkpt lat="50.207418" lon="5.451307"><ele>298.048</ele><time>2022-09-17T10:34:27Z</time></trkpt><trkpt lat="50.207315" lon="5.451071"><ele>299.469</ele><time>2022-09-17T10:34:28Z</time></trkpt><trkpt lat="50.207214" lon="5.450835"><ele>300.904</ele><time>2022-09-17T10:34:29Z</time></trkpt><trkpt lat="50.207115" lon="5.450603"><ele>302.124</ele><time>2022-09-17T10:34:30Z</time></trkpt><trkpt lat="50.207014" lon="5.450367"><ele>303.309</ele><time>2022-09-17T10:34:31Z</time></trkpt><trkpt lat="50.206913" lon="5.450132"><ele>304.517</ele><time>2022-09-17T10:34:32Z</time></trkpt><trkpt lat="50.206792" lon="5.449916"><ele>307.627</ele><time>2022-09-17T10:34:33Z</time></trkpt><trkpt lat="50.206700" lon="5.449697"><ele>310.269</ele><time>2022-09-17T10:34:34Z</time></trkpt><trkpt lat="50.206600" lon="5.449469"><ele>310.255</ele><time>2022-09-17T10:34:35Z</time></trkpt><trkpt lat="50.206498" lon="5.449232"><ele>310.290</ele><time>2022-09-17T10:34:36Z</time></trkpt><trkpt lat="50.206396" lon="5.448995"><ele>310.225</ele><time>2022-09-17T10:34:37Z</time></trkpt><trkpt lat="50.206313" lon="5.448756"><ele>310.540</ele><time>2022-09-17T10:34:38Z</time></trkpt><trkpt lat="50.206216" lon="5.448531"><ele>311.174</ele><time>2022-09-17T10:34:39Z</time></trkpt><trkpt lat="50.206122" lon="5.448300"><ele>311.831</ele><time>2022-09-17T10:34:40Z</time></trkpt><trkpt lat="50.206034" lon="5.448077"><ele>312.677</ele><time>2022-09-17T10:34:41Z</time></trkpt><trkpt lat="50.205944" lon="5.447866"><ele>313.561</ele><time>2022-09-17T10:34:42Z</time></trkpt><trkpt lat="50.205857" lon="5.447646"><ele>314.427</ele><time>2022-09-17T10:34:43Z</time></trkpt><trkpt lat="50.205740" lon="5.447420"><ele>315.509</ele><time>2022-09-17T10:34:44Z</time></trkpt><trkpt lat="50.205651" lon="5.447161"><ele>316.648</ele><time>2022-09-17T10:34:45Z</time></trkpt><trkpt lat="50.205540" lon="5.446896"><ele>317.658</ele><time>2022-09-17T10:34:46Z</time></trkpt><trkpt lat="50.205448" lon="5.446678"><ele>318.690</ele><time>2022-09-17T10:34:47Z</time></trkpt><trkpt lat="50.205361" lon="5.446470"><ele>319.516</ele><time>2022-09-17T10:34:48Z</time></trkpt><trkpt lat="50.205276" lon="5.446264"><ele>320.361</ele><time>2022-09-17T10:34:49Z</time></trkpt><trkpt lat="50.205185" lon="5.446042"><ele>321.186</ele><time>2022-09-17T10:34:50Z</time></trkpt><trkpt lat="50.205089" lon="5.445808"><ele>321.571</ele><time>2022-09-17T10:34:51Z</time></trkpt><trkpt lat="50.204992" lon="5.445571"><ele>321.645</ele><time>2022-09-17T10:34:52Z</time></trkpt><trkpt lat="50.204886" lon="5.445313"><ele>321.562</ele><time>2022-09-17T10:34:53Z</time></trkpt><trkpt lat="50.204787" lon="5.445060"><ele>321.373</ele><time>2022-09-17T10:34:54Z</time></trkpt><trkpt lat="50.204685" lon="5.444789"><ele>321.085</ele><time>2022-09-17T10:34:55Z</time></trkpt><trkpt lat="50.204584" lon="5.444519"><ele>320.713</ele><time>2022-09-17T10:34:56Z</time></trkpt><trkpt lat="50.204486" lon="5.444252"><ele>320.609</ele><time>2022-09-17T10:34:57Z</time></trkpt><trkpt lat="50.204375" lon="5.443990"><ele>320.678</ele><time>2022-09-17T10:34:58Z</time></trkpt><trkpt lat="50.204275" lon="5.443712"><ele>320.558</ele><time>2022-09-17T10:34:59Z</time></trkpt><trkpt lat="50.204176" lon="5.443429"><ele>320.110</ele><time>2022-09-17T10:35:00Z</time></trkpt><trkpt lat="50.204093" lon="5.443181"><ele>319.466</ele><time>2022-09-17T10:35:01Z</time></trkpt><trkpt lat="50.204022" lon="5.442967"><ele>318.731</ele><time>2022-09-17T10:35:02Z</time></trkpt><trkpt lat="50.203954" lon="5.442787"><ele>317.956</ele><time>2022-09-17T10:35:03Z</time></trkpt><trkpt lat="50.203897" lon="5.442639"><ele>317.471</ele><time>2022-09-17T10:35:04Z</time></trkpt><trkpt lat="50.203846" lon="5.442502"><ele>316.155</ele><time>2022-09-17T10:35:05Z</time></trkpt><trkpt lat="50.203803" lon="5.442387"><ele>315.032</ele><time>2022-09-17T10:35:06Z</time></trkpt><trkpt lat="50.203765" lon="5.442293"><ele>314.655</ele><time>2022-09-17T10:35:07Z</time></trkpt><trkpt lat="50.203752" lon="5.442220"><ele>313.707</ele><time>2022-09-17T10:35:08Z</time></trkpt><trkpt lat="50.203721" lon="5.442161"><ele>313.217</ele><time>2022-09-17T10:35:09Z</time></trkpt><trkpt lat="50.203703" lon="5.442093"><ele>312.309</ele><time>2022-09-17T10:35:10Z</time></trkpt><trkpt lat="50.203570" lon="5.442118"><ele>311.976</ele><time>2022-09-17T10:35:12Z</time></trkpt><trkpt lat="50.203522" lon="5.442172"><ele>311.616</ele><time>2022-09-17T10:35:13Z</time></trkpt><trkpt lat="50.203486" lon="5.442248"><ele>311.468</ele><time>2022-09-17T10:35:14Z</time></trkpt><trkpt lat="50.203449" lon="5.442321"><ele>311.364</ele><time>2022-09-17T10:35:15Z</time></trkpt><trkpt lat="50.203403" lon="5.442403"><ele>311.299</ele><time>2022-09-17T10:35:16Z</time></trkpt><trkpt lat="50.203339" lon="5.442496"><ele>310.974</ele><time>2022-09-17T10:35:17Z</time></trkpt><trkpt lat="50.203277" lon="5.442598"><ele>310.839</ele><time>2022-09-17T10:35:18Z</time></trkpt><trkpt lat="50.203209" lon="5.442712"><ele>310.593</ele><time>2022-09-17T10:35:19Z</time></trkpt><trkpt lat="50.203138" lon="5.442830"><ele>310.520</ele><time>2022-09-17T10:35:20Z</time></trkpt><trkpt lat="50.203063" lon="5.442951"><ele>310.557</ele><time>2022-09-17T10:35:21Z</time></trkpt><trkpt lat="50.202982" lon="5.443075"><ele>310.700</ele><time>2022-09-17T10:35:22Z</time></trkpt><trkpt lat="50.202898" lon="5.443202"><ele>311.020</ele><time>2022-09-17T10:35:23Z</time></trkpt><trkpt lat="50.202805" lon="5.443339"><ele>311.509</ele><time>2022-09-17T10:35:24Z</time></trkpt><trkpt lat="50.202712" lon="5.443485"><ele>312.016</ele><time>2022-09-17T10:35:25Z</time></trkpt><trkpt lat="50.202615" lon="5.443646"><ele>312.866</ele><time>2022-09-17T10:35:26Z</time></trkpt><trkpt lat="50.202516" lon="5.443810"><ele>313.328</ele><time>2022-09-17T10:35:27Z</time></trkpt><trkpt lat="50.202416" lon="5.443965"><ele>313.794</ele><time>2022-09-17T10:35:28Z</time></trkpt><trkpt lat="50.202309" lon="5.444139"><ele>314.149</ele><time>2022-09-17T10:35:29Z</time></trkpt><trkpt lat="50.202223" lon="5.444292"><ele>314.644</ele><time>2022-09-17T10:35:30Z</time></trkpt><trkpt lat="50.202150" lon="5.444422"><ele>314.829</ele><time>2022-09-17T10:35:31Z</time></trkpt><trkpt lat="50.202088" lon="5.444517"><ele>315.213</ele><time>2022-09-17T10:35:32Z</time></trkpt><trkpt lat="50.202043" lon="5.444576"><ele>315.640</ele><time>2022-09-17T10:35:33Z</time></trkpt><trkpt lat="50.201991" lon="5.444621"><ele>316.644</ele><time>2022-09-17T10:35:34Z</time></trkpt><trkpt lat="50.201922" lon="5.444594"><ele>317.805</ele><time>2022-09-17T10:35:35Z</time></trkpt><trkpt lat="50.201864" lon="5.444517"><ele>318.415</ele><time>2022-09-17T10:35:36Z</time></trkpt><trkpt lat="50.201798" lon="5.444413"><ele>320.509</ele><time>2022-09-17T10:35:37Z</time></trkpt><trkpt lat="50.201727" lon="5.444261"><ele>321.895</ele><time>2022-09-17T10:35:38Z</time></trkpt><trkpt lat="50.201640" lon="5.444082"><ele>321.865</ele><time>2022-09-17T10:35:39Z</time></trkpt><trkpt lat="50.201532" lon="5.443909"><ele>321.367</ele><time>2022-09-17T10:35:40Z</time></trkpt><trkpt lat="50.201428" lon="5.443749"><ele>320.763</ele><time>2022-09-17T10:35:41Z</time></trkpt><trkpt lat="50.201353" lon="5.443584"><ele>320.248</ele><time>2022-09-17T10:35:42Z</time></trkpt><trkpt lat="50.201288" lon="5.443441"><ele>320.043</ele><time>2022-09-17T10:35:43Z</time></trkpt><trkpt lat="50.201210" lon="5.443345"><ele>319.978</ele><time>2022-09-17T10:35:44Z</time></trkpt><trkpt lat="50.201162" lon="5.443209"><ele>319.952</ele><time>2022-09-17T10:35:45Z</time></trkpt><trkpt lat="50.201118" lon="5.443107"><ele>320.039</ele><time>2022-09-17T10:35:46Z</time></trkpt><trkpt lat="50.201061" lon="5.443002"><ele>320.353</ele><time>2022-09-17T10:35:47Z</time></trkpt><trkpt lat="50.201007" lon="5.442913"><ele>320.704</ele><time>2022-09-17T10:35:48Z</time></trkpt><trkpt lat="50.200956" lon="5.442851"><ele>320.914</ele><time>2022-09-17T10:35:49Z</time></trkpt><trkpt lat="50.200895" lon="5.442778"><ele>321.009</ele><time>2022-09-17T10:35:50Z</time></trkpt><trkpt lat="50.200820" lon="5.442704"><ele>321.096</ele><time>2022-09-17T10:35:51Z</time></trkpt><trkpt lat="50.200736" lon="5.442630"><ele>320.936</ele><time>2022-09-17T10:35:52Z</time></trkpt><trkpt lat="50.200661" lon="5.442517"><ele>320.658</ele><time>2022-09-17T10:35:53Z</time></trkpt><trkpt lat="50.200554" lon="5.442446"><ele>320.664</ele><time>2022-09-17T10:35:54Z</time></trkpt><trkpt lat="50.200458" lon="5.442367"><ele>320.729</ele><time>2022-09-17T10:35:55Z</time></trkpt><trkpt lat="50.200380" lon="5.442274"><ele>321.094</ele><time>2022-09-17T10:35:56Z</time></trkpt><trkpt lat="50.200302" lon="5.442137"><ele>321.419</ele><time>2022-09-17T10:35:57Z</time></trkpt><trkpt lat="50.200213" lon="5.441995"><ele>321.653</ele><time>2022-09-17T10:35:58Z</time></trkpt><trkpt lat="50.200124" lon="5.441857"><ele>321.720</ele><time>2022-09-17T10:35:59Z</time></trkpt><trkpt lat="50.200035" lon="5.441731"><ele>321.876</ele><time>2022-09-17T10:36:00Z</time></trkpt><trkpt lat="50.199941" lon="5.441585"><ele>321.890</ele><time>2022-09-17T10:36:01Z</time></trkpt><trkpt lat="50.199842" lon="5.441482"><ele>321.819</ele><time>2022-09-17T10:36:02Z</time></trkpt><trkpt lat="50.199748" lon="5.441362"><ele>321.809</ele><time>2022-09-17T10:36:03Z</time></trkpt><trkpt lat="50.199661" lon="5.441238"><ele>321.868</ele><time>2022-09-17T10:36:04Z</time></trkpt><trkpt lat="50.199577" lon="5.441134"><ele>321.788</ele><time>2022-09-17T10:36:05Z</time></trkpt><trkpt lat="50.199506" lon="5.441022"><ele>321.410</ele><time>2022-09-17T10:36:06Z</time></trkpt><trkpt lat="50.199434" lon="5.440924"><ele>321.246</ele><time>2022-09-17T10:36:07Z</time></trkpt><trkpt lat="50.199360" lon="5.440832"><ele>320.991</ele><time>2022-09-17T10:36:08Z</time></trkpt><trkpt lat="50.199285" lon="5.440730"><ele>320.756</ele><time>2022-09-17T10:36:09Z</time></trkpt><trkpt lat="50.199207" lon="5.440632"><ele>320.411</ele><time>2022-09-17T10:36:10Z</time></trkpt><trkpt lat="50.199111" lon="5.440545"><ele>320.095</ele><time>2022-09-17T10:36:11Z</time></trkpt><trkpt lat="50.199015" lon="5.440445"><ele>319.652</ele><time>2022-09-17T10:36:12Z</time></trkpt><trkpt lat="50.198923" lon="5.440361"><ele>318.982</ele><time>2022-09-17T10:36:13Z</time></trkpt><trkpt lat="50.198832" lon="5.440293"><ele>318.143</ele><time>2022-09-17T10:36:14Z</time></trkpt><trkpt lat="50.198743" lon="5.440222"><ele>317.617</ele><time>2022-09-17T10:36:15Z</time></trkpt><trkpt lat="50.198659" lon="5.440159"><ele>317.009</ele><time>2022-09-17T10:36:16Z</time></trkpt><trkpt lat="50.198574" lon="5.440064"><ele>316.599</ele><time>2022-09-17T10:36:17Z</time></trkpt><trkpt lat="50.198493" lon="5.440009"><ele>316.089</ele><time>2022-09-17T10:36:18Z</time></trkpt><trkpt lat="50.198404" lon="5.439966"><ele>315.661</ele><time>2022-09-17T10:36:19Z</time></trkpt><trkpt lat="50.198314" lon="5.439973"><ele>315.067</ele><time>2022-09-17T10:36:20Z</time></trkpt><trkpt lat="50.198228" lon="5.439989"><ele>314.522</ele><time>2022-09-17T10:36:21Z</time></trkpt><trkpt lat="50.198140" lon="5.440007"><ele>314.227</ele><time>2022-09-17T10:36:22Z</time></trkpt><trkpt lat="50.198054" lon="5.440031"><ele>313.672</ele><time>2022-09-17T10:36:23Z</time></trkpt><trkpt lat="50.197964" lon="5.440067"><ele>312.976</ele><time>2022-09-17T10:36:24Z</time></trkpt><trkpt lat="50.197882" lon="5.440105"><ele>312.233</ele><time>2022-09-17T10:36:25Z</time></trkpt><trkpt lat="50.197816" lon="5.440153"><ele>311.469</ele><time>2022-09-17T10:36:26Z</time></trkpt><trkpt lat="50.197739" lon="5.440213"><ele>310.604</ele><time>2022-09-17T10:36:27Z</time></trkpt><trkpt lat="50.197657" lon="5.440251"><ele>309.924</ele><time>2022-09-17T10:36:28Z</time></trkpt><trkpt lat="50.197575" lon="5.440286"><ele>309.209</ele><time>2022-09-17T10:36:29Z</time></trkpt><trkpt lat="50.197491" lon="5.440302"><ele>308.617</ele><time>2022-09-17T10:36:30Z</time></trkpt><trkpt lat="50.197401" lon="5.440305"><ele>308.147</ele><time>2022-09-17T10:36:31Z</time></trkpt><trkpt lat="50.197321" lon="5.440299"><ele>307.699</ele><time>2022-09-17T10:36:32Z</time></trkpt><trkpt lat="50.197238" lon="5.440280"><ele>307.115</ele><time>2022-09-17T10:36:33Z</time></trkpt><trkpt lat="50.197156" lon="5.440262"><ele>306.750</ele><time>2022-09-17T10:36:34Z</time></trkpt><trkpt lat="50.197080" lon="5.440232"><ele>306.525</ele><time>2022-09-17T10:36:35Z</time></trkpt><trkpt lat="50.197029" lon="5.440187"><ele>306.510</ele><time>2022-09-17T10:36:36Z</time></trkpt><trkpt lat="50.196986" lon="5.440126"><ele>306.554</ele><time>2022-09-17T10:36:37Z</time></trkpt><trkpt lat="50.196947" lon="5.440083"><ele>306.651</ele><time>2022-09-17T10:36:38Z</time></trkpt><trkpt lat="50.196919" lon="5.439965"><ele>307.137</ele><time>2022-09-17T10:36:40Z</time></trkpt><trkpt lat="50.196930" lon="5.439825"><ele>308.349</ele><time>2022-09-17T10:36:41Z</time></trkpt><trkpt lat="50.196944" lon="5.439706"><ele>309.013</ele><time>2022-09-17T10:36:42Z</time></trkpt><trkpt lat="50.196922" lon="5.439613"><ele>309.209</ele><time>2022-09-17T10:36:43Z</time></trkpt><trkpt lat="50.196893" lon="5.439557"><ele>309.214</ele><time>2022-09-17T10:36:44Z</time></trkpt><trkpt lat="50.196832" lon="5.439443"><ele>309.174</ele><time>2022-09-17T10:36:53Z</time></trkpt><trkpt lat="50.196772" lon="5.439367"><ele>309.086</ele><time>2022-09-17T10:36:54Z</time></trkpt><trkpt lat="50.196699" lon="5.439272"><ele>309.062</ele><time>2022-09-17T10:36:55Z</time></trkpt><trkpt lat="50.196630" lon="5.439120"><ele>309.137</ele><time>2022-09-17T10:36:56Z</time></trkpt><trkpt lat="50.196562" lon="5.438928"><ele>309.212</ele><time>2022-09-17T10:36:57Z</time></trkpt><trkpt lat="50.196504" lon="5.438705"><ele>309.657</ele><time>2022-09-17T10:36:58Z</time></trkpt><trkpt lat="50.196463" lon="5.438473"><ele>310.211</ele><time>2022-09-17T10:36:59Z</time></trkpt><trkpt lat="50.196430" lon="5.438275"><ele>310.958</ele><time>2022-09-17T10:37:00Z</time></trkpt><trkpt lat="50.196394" lon="5.438086"><ele>311.337</ele><time>2022-09-17T10:37:01Z</time></trkpt><trkpt lat="50.196344" lon="5.437883"><ele>312.249</ele><time>2022-09-17T10:37:02Z</time></trkpt><trkpt lat="50.196270" lon="5.437697"><ele>313.213</ele><time>2022-09-17T10:37:03Z</time></trkpt><trkpt lat="50.196162" lon="5.437505"><ele>313.709</ele><time>2022-09-17T10:37:04Z</time></trkpt><trkpt lat="50.196066" lon="5.437355"><ele>314.364</ele><time>2022-09-17T10:37:05Z</time></trkpt><trkpt lat="50.195971" lon="5.437216"><ele>314.764</ele><time>2022-09-17T10:37:06Z</time></trkpt><trkpt lat="50.195883" lon="5.437099"><ele>315.576</ele><time>2022-09-17T10:37:07Z</time></trkpt><trkpt lat="50.195798" lon="5.437001"><ele>316.692</ele><time>2022-09-17T10:37:08Z</time></trkpt><trkpt lat="50.195722" lon="5.436914"><ele>317.787</ele><time>2022-09-17T10:37:09Z</time></trkpt><trkpt lat="50.195645" lon="5.436843"><ele>318.532</ele><time>2022-09-17T10:37:10Z</time></trkpt><trkpt lat="50.195560" lon="5.436799"><ele>319.357</ele><time>2022-09-17T10:37:11Z</time></trkpt><trkpt lat="50.195475" lon="5.436784"><ele>319.671</ele><time>2022-09-17T10:37:12Z</time></trkpt><trkpt lat="50.195374" lon="5.436787"><ele>320.428</ele><time>2022-09-17T10:37:13Z</time></trkpt><trkpt lat="50.195274" lon="5.436801"><ele>320.854</ele><time>2022-09-17T10:37:14Z</time></trkpt><trkpt lat="50.195167" lon="5.436839"><ele>321.556</ele><time>2022-09-17T10:37:15Z</time></trkpt><trkpt lat="50.195055" lon="5.436893"><ele>322.111</ele><time>2022-09-17T10:37:16Z</time></trkpt><trkpt lat="50.194951" lon="5.436946"><ele>322.609</ele><time>2022-09-17T10:37:17Z</time></trkpt><trkpt lat="50.194830" lon="5.437021"><ele>323.376</ele><time>2022-09-17T10:37:18Z</time></trkpt><trkpt lat="50.194720" lon="5.437091"><ele>324.176</ele><time>2022-09-17T10:37:19Z</time></trkpt><trkpt lat="50.194613" lon="5.437163"><ele>324.958</ele><time>2022-09-17T10:37:20Z</time></trkpt><trkpt lat="50.194505" lon="5.437249"><ele>325.864</ele><time>2022-09-17T10:37:21Z</time></trkpt><trkpt lat="50.194389" lon="5.437348"><ele>326.999</ele><time>2022-09-17T10:37:22Z</time></trkpt><trkpt lat="50.194268" lon="5.437452"><ele>328.434</ele><time>2022-09-17T10:37:23Z</time></trkpt><trkpt lat="50.194150" lon="5.437559"><ele>329.359</ele><time>2022-09-17T10:37:24Z</time></trkpt><trkpt lat="50.194036" lon="5.437656"><ele>329.753</ele><time>2022-09-17T10:37:25Z</time></trkpt><trkpt lat="50.193938" lon="5.437741"><ele>330.240</ele><time>2022-09-17T10:37:26Z</time></trkpt><trkpt lat="50.193835" lon="5.437846"><ele>330.528</ele><time>2022-09-17T10:37:27Z</time></trkpt><trkpt lat="50.193733" lon="5.437943"><ele>330.989</ele><time>2022-09-17T10:37:28Z</time></trkpt><trkpt lat="50.193623" lon="5.438046"><ele>331.317</ele><time>2022-09-17T10:37:29Z</time></trkpt><trkpt lat="50.193508" lon="5.438156"><ele>331.609</ele><time>2022-09-17T10:37:30Z</time></trkpt><trkpt lat="50.193381" lon="5.438265"><ele>331.863</ele><time>2022-09-17T10:37:31Z</time></trkpt><trkpt lat="50.193246" lon="5.438360"><ele>331.833</ele><time>2022-09-17T10:37:32Z</time></trkpt><trkpt lat="50.193121" lon="5.438436"><ele>331.635</ele><time>2022-09-17T10:37:33Z</time></trkpt><trkpt lat="50.192998" lon="5.438493"><ele>331.431</ele><time>2022-09-17T10:37:34Z</time></trkpt><trkpt lat="50.192889" lon="5.438535"><ele>330.986</ele><time>2022-09-17T10:37:35Z</time></trkpt><trkpt lat="50.192797" lon="5.438562"><ele>330.371</ele><time>2022-09-17T10:37:36Z</time></trkpt><trkpt lat="50.192730" lon="5.438535"><ele>329.956</ele><time>2022-09-17T10:37:37Z</time></trkpt><trkpt lat="50.192681" lon="5.438478"><ele>329.750</ele><time>2022-09-17T10:37:38Z</time></trkpt><trkpt lat="50.192651" lon="5.438369"><ele>329.467</ele><time>2022-09-17T10:37:39Z</time></trkpt><trkpt lat="50.192624" lon="5.438225"><ele>329.447</ele><time>2022-09-17T10:37:40Z</time></trkpt><trkpt lat="50.192605" lon="5.438042"><ele>329.529</ele><time>2022-09-17T10:37:41Z</time></trkpt><trkpt lat="50.192605" lon="5.437854"><ele>329.921</ele><time>2022-09-17T10:37:42Z</time></trkpt><trkpt lat="50.192612" lon="5.437674"><ele>330.309</ele><time>2022-09-17T10:37:43Z</time></trkpt><trkpt lat="50.192621" lon="5.437528"><ele>330.995</ele><time>2022-09-17T10:37:44Z</time></trkpt><trkpt lat="50.192622" lon="5.437386"><ele>331.615</ele><time>2022-09-17T10:37:45Z</time></trkpt><trkpt lat="50.192589" lon="5.437258"><ele>332.637</ele><time>2022-09-17T10:37:46Z</time></trkpt><trkpt lat="50.192545" lon="5.437139"><ele>333.183</ele><time>2022-09-17T10:37:47Z</time></trkpt><trkpt lat="50.192487" lon="5.437031"><ele>334.088</ele><time>2022-09-17T10:37:48Z</time></trkpt><trkpt lat="50.192420" lon="5.436949"><ele>334.873</ele><time>2022-09-17T10:37:49Z</time></trkpt><trkpt lat="50.192326" lon="5.436906"><ele>335.848</ele><time>2022-09-17T10:37:50Z</time></trkpt><trkpt lat="50.192210" lon="5.436896"><ele>335.832</ele><time>2022-09-17T10:37:51Z</time></trkpt><trkpt lat="50.192108" lon="5.436919"><ele>336.989</ele><time>2022-09-17T10:37:52Z</time></trkpt><trkpt lat="50.192000" lon="5.436951"><ele>337.375</ele><time>2022-09-17T10:37:53Z</time></trkpt><trkpt lat="50.191898" lon="5.437033"><ele>337.928</ele><time>2022-09-17T10:37:54Z</time></trkpt><trkpt lat="50.191814" lon="5.437144"><ele>337.920</ele><time>2022-09-17T10:37:55Z</time></trkpt><trkpt lat="50.191725" lon="5.437286"><ele>338.709</ele><time>2022-09-17T10:37:56Z</time></trkpt><trkpt lat="50.191642" lon="5.437450"><ele>338.898</ele><time>2022-09-17T10:37:57Z</time></trkpt><trkpt lat="50.191553" lon="5.437628"><ele>338.858</ele><time>2022-09-17T10:37:58Z</time></trkpt><trkpt lat="50.191457" lon="5.437809"><ele>338.830</ele><time>2022-09-17T10:37:59Z</time></trkpt><trkpt lat="50.191363" lon="5.438004"><ele>338.816</ele><time>2022-09-17T10:38:00Z</time></trkpt><trkpt lat="50.191285" lon="5.438186"><ele>338.791</ele><time>2022-09-17T10:38:01Z</time></trkpt><trkpt lat="50.191204" lon="5.438323"><ele>338.636</ele><time>2022-09-17T10:38:02Z</time></trkpt><trkpt lat="50.191111" lon="5.438440"><ele>338.621</ele><time>2022-09-17T10:38:03Z</time></trkpt><trkpt lat="50.191011" lon="5.438526"><ele>338.655</ele><time>2022-09-17T10:38:04Z</time></trkpt><trkpt lat="50.190911" lon="5.438608"><ele>338.712</ele><time>2022-09-17T10:38:05Z</time></trkpt><trkpt lat="50.190810" lon="5.438707"><ele>339.048</ele><time>2022-09-17T10:38:06Z</time></trkpt><trkpt lat="50.190701" lon="5.438827"><ele>339.161</ele><time>2022-09-17T10:38:07Z</time></trkpt><trkpt lat="50.190605" lon="5.438964"><ele>339.617</ele><time>2022-09-17T10:38:08Z</time></trkpt><trkpt lat="50.190504" lon="5.439107"><ele>340.109</ele><time>2022-09-17T10:38:09Z</time></trkpt><trkpt lat="50.190413" lon="5.439235"><ele>340.485</ele><time>2022-09-17T10:38:10Z</time></trkpt><trkpt lat="50.190321" lon="5.439352"><ele>340.635</ele><time>2022-09-17T10:38:11Z</time></trkpt><trkpt lat="50.190227" lon="5.439462"><ele>340.617</ele><time>2022-09-17T10:38:12Z</time></trkpt><trkpt lat="50.190135" lon="5.439566"><ele>340.453</ele><time>2022-09-17T10:38:13Z</time></trkpt><trkpt lat="50.190041" lon="5.439669"><ele>339.998</ele><time>2022-09-17T10:38:14Z</time></trkpt><trkpt lat="50.189957" lon="5.439794"><ele>339.323</ele><time>2022-09-17T10:38:15Z</time></trkpt><trkpt lat="50.189879" lon="5.439950"><ele>338.518</ele><time>2022-09-17T10:38:16Z</time></trkpt><trkpt lat="50.189814" lon="5.440126"><ele>338.092</ele><time>2022-09-17T10:38:17Z</time></trkpt><trkpt lat="50.189763" lon="5.440293"><ele>337.599</ele><time>2022-09-17T10:38:18Z</time></trkpt><trkpt lat="50.189717" lon="5.440437"><ele>337.071</ele><time>2022-09-17T10:38:19Z</time></trkpt><trkpt lat="50.189679" lon="5.440559"><ele>336.541</ele><time>2022-09-17T10:38:20Z</time></trkpt><trkpt lat="50.189647" lon="5.440662"><ele>336.515</ele><time>2022-09-17T10:38:21Z</time></trkpt><trkpt lat="50.189612" lon="5.440732"><ele>336.409</ele><time>2022-09-17T10:38:22Z</time></trkpt><trkpt lat="50.189584" lon="5.440798"><ele>336.398</ele><time>2022-09-17T10:38:23Z</time></trkpt><trkpt lat="50.189554" lon="5.440851"><ele>336.338</ele><time>2022-09-17T10:38:24Z</time></trkpt><trkpt lat="50.189512" lon="5.440929"><ele>336.210</ele><time>2022-09-17T10:38:26Z</time></trkpt><trkpt lat="50.189473" lon="5.440999"><ele>336.166</ele><time>2022-09-17T10:38:29Z</time></trkpt><trkpt lat="50.189432" lon="5.441035"><ele>335.851</ele><time>2022-09-17T10:38:32Z</time></trkpt><trkpt lat="50.189359" lon="5.441105"><ele>335.386</ele><time>2022-09-17T10:39:06Z</time></trkpt><trkpt lat="50.189328" lon="5.441163"><ele>335.341</ele><time>2022-09-17T10:39:07Z</time></trkpt><trkpt lat="50.189302" lon="5.441229"><ele>335.365</ele><time>2022-09-17T10:39:08Z</time></trkpt><trkpt lat="50.189260" lon="5.441301"><ele>335.332</ele><time>2022-09-17T10:39:09Z</time></trkpt><trkpt lat="50.189222" lon="5.441371"><ele>335.337</ele><time>2022-09-17T10:39:10Z</time></trkpt><trkpt lat="50.189188" lon="5.441420"><ele>335.349</ele><time>2022-09-17T10:39:11Z</time></trkpt><trkpt lat="50.189153" lon="5.441481"><ele>335.313</ele><time>2022-09-17T10:39:12Z</time></trkpt><trkpt lat="50.189085" lon="5.441581"><ele>335.309</ele><time>2022-09-17T10:39:14Z</time></trkpt><trkpt lat="50.189040" lon="5.441646"><ele>335.314</ele><time>2022-09-17T10:39:15Z</time></trkpt><trkpt lat="50.188988" lon="5.441714"><ele>335.364</ele><time>2022-09-17T10:39:16Z</time></trkpt><trkpt lat="50.188938" lon="5.441781"><ele>335.396</ele><time>2022-09-17T10:39:17Z</time></trkpt><trkpt lat="50.188877" lon="5.441863"><ele>335.372</ele><time>2022-09-17T10:39:18Z</time></trkpt><trkpt lat="50.188813" lon="5.441952"><ele>335.467</ele><time>2022-09-17T10:39:19Z</time></trkpt><trkpt lat="50.188751" lon="5.442040"><ele>335.522</ele><time>2022-09-17T10:39:20Z</time></trkpt><trkpt lat="50.188683" lon="5.442162"><ele>335.727</ele><time>2022-09-17T10:39:21Z</time></trkpt><trkpt lat="50.188607" lon="5.442234"><ele>335.771</ele><time>2022-09-17T10:39:22Z</time></trkpt><trkpt lat="50.188542" lon="5.442337"><ele>335.768</ele><time>2022-09-17T10:39:23Z</time></trkpt><trkpt lat="50.188468" lon="5.442438"><ele>335.677</ele><time>2022-09-17T10:39:24Z</time></trkpt><trkpt lat="50.188384" lon="5.442523"><ele>335.561</ele><time>2022-09-17T10:39:25Z</time></trkpt><trkpt lat="50.188321" lon="5.442634"><ele>335.227</ele><time>2022-09-17T10:39:26Z</time></trkpt><trkpt lat="50.188247" lon="5.442723"><ele>335.009</ele><time>2022-09-17T10:39:27Z</time></trkpt><trkpt lat="50.188177" lon="5.442820"><ele>334.618</ele><time>2022-09-17T10:39:28Z</time></trkpt><trkpt lat="50.188112" lon="5.442901"><ele>334.438</ele><time>2022-09-17T10:39:29Z</time></trkpt><trkpt lat="50.188046" lon="5.442986"><ele>334.360</ele><time>2022-09-17T10:39:30Z</time></trkpt><trkpt lat="50.187972" lon="5.443099"><ele>333.946</ele><time>2022-09-17T10:39:31Z</time></trkpt><trkpt lat="50.187900" lon="5.443203"><ele>333.771</ele><time>2022-09-17T10:39:32Z</time></trkpt><trkpt lat="50.187819" lon="5.443321"><ele>333.786</ele><time>2022-09-17T10:39:33Z</time></trkpt><trkpt lat="50.187725" lon="5.443451"><ele>333.511</ele><time>2022-09-17T10:39:34Z</time></trkpt><trkpt lat="50.187621" lon="5.443594"><ele>333.065</ele><time>2022-09-17T10:39:35Z</time></trkpt><trkpt lat="50.187511" lon="5.443744"><ele>332.452</ele><time>2022-09-17T10:39:36Z</time></trkpt><trkpt lat="50.187400" lon="5.443894"><ele>331.621</ele><time>2022-09-17T10:39:37Z</time></trkpt><trkpt lat="50.187287" lon="5.444042"><ele>330.741</ele><time>2022-09-17T10:39:38Z</time></trkpt><trkpt lat="50.187183" lon="5.444191"><ele>329.805</ele><time>2022-09-17T10:39:39Z</time></trkpt><trkpt lat="50.187085" lon="5.444352"><ele>329.009</ele><time>2022-09-17T10:39:40Z</time></trkpt><trkpt lat="50.186979" lon="5.444501"><ele>328.043</ele><time>2022-09-17T10:39:41Z</time></trkpt><trkpt lat="50.186885" lon="5.444636"><ele>327.183</ele><time>2022-09-17T10:39:42Z</time></trkpt><trkpt lat="50.186787" lon="5.444752"><ele>326.765</ele><time>2022-09-17T10:39:43Z</time></trkpt><trkpt lat="50.186696" lon="5.444867"><ele>326.021</ele><time>2022-09-17T10:39:44Z</time></trkpt><trkpt lat="50.186605" lon="5.444983"><ele>325.236</ele><time>2022-09-17T10:39:45Z</time></trkpt><trkpt lat="50.186530" lon="5.445088"><ele>324.711</ele><time>2022-09-17T10:39:46Z</time></trkpt><trkpt lat="50.186456" lon="5.445185"><ele>324.266</ele><time>2022-09-17T10:39:47Z</time></trkpt><trkpt lat="50.186386" lon="5.445286"><ele>323.880</ele><time>2022-09-17T10:39:48Z</time></trkpt><trkpt lat="50.186341" lon="5.445403"><ele>323.527</ele><time>2022-09-17T10:39:49Z</time></trkpt><trkpt lat="50.186316" lon="5.445522"><ele>323.476</ele><time>2022-09-17T10:39:50Z</time></trkpt><trkpt lat="50.186293" lon="5.445649"><ele>323.490</ele><time>2022-09-17T10:39:51Z</time></trkpt><trkpt lat="50.186287" lon="5.445813"><ele>323.619</ele><time>2022-09-17T10:39:52Z</time></trkpt><trkpt lat="50.186326" lon="5.445972"><ele>323.709</ele><time>2022-09-17T10:39:53Z</time></trkpt><trkpt lat="50.186358" lon="5.446120"><ele>323.758</ele><time>2022-09-17T10:39:54Z</time></trkpt><trkpt lat="50.186382" lon="5.446252"><ele>323.758</ele><time>2022-09-17T10:39:55Z</time></trkpt><trkpt lat="50.186413" lon="5.446380"><ele>323.530</ele><time>2022-09-17T10:39:56Z</time></trkpt><trkpt lat="50.186448" lon="5.446484"><ele>323.436</ele><time>2022-09-17T10:39:57Z</time></trkpt><trkpt lat="50.186475" lon="5.446572"><ele>323.351</ele><time>2022-09-17T10:39:58Z</time></trkpt><trkpt lat="50.186501" lon="5.446656"><ele>323.376</ele><time>2022-09-17T10:39:59Z</time></trkpt><trkpt lat="50.186533" lon="5.446745"><ele>323.351</ele><time>2022-09-17T10:40:00Z</time></trkpt><trkpt lat="50.186584" lon="5.446845"><ele>323.545</ele><time>2022-09-17T10:40:01Z</time></trkpt><trkpt lat="50.186645" lon="5.446920"><ele>323.752</ele><time>2022-09-17T10:40:02Z</time></trkpt><trkpt lat="50.186703" lon="5.446979"><ele>323.985</ele><time>2022-09-17T10:40:03Z</time></trkpt><trkpt lat="50.186745" lon="5.447055"><ele>324.189</ele><time>2022-09-17T10:40:04Z</time></trkpt><trkpt lat="50.186762" lon="5.447159"><ele>324.217</ele><time>2022-09-17T10:40:05Z</time></trkpt><trkpt lat="50.186755" lon="5.447282"><ele>324.409</ele><time>2022-09-17T10:40:06Z</time></trkpt><trkpt lat="50.186738" lon="5.447404"><ele>324.799</ele><time>2022-09-17T10:40:07Z</time></trkpt><trkpt lat="50.186708" lon="5.447528"><ele>325.159</ele><time>2022-09-17T10:40:08Z</time></trkpt><trkpt lat="50.186699" lon="5.447692"><ele>325.891</ele><time>2022-09-17T10:40:09Z</time></trkpt><trkpt lat="50.186703" lon="5.447855"><ele>326.467</ele><time>2022-09-17T10:40:10Z</time></trkpt><trkpt lat="50.186716" lon="5.448035"><ele>327.212</ele><time>2022-09-17T10:40:11Z</time></trkpt><trkpt lat="50.186739" lon="5.448226"><ele>327.987</ele><time>2022-09-17T10:40:12Z</time></trkpt><trkpt lat="50.186780" lon="5.448373"><ele>328.722</ele><time>2022-09-17T10:40:13Z</time></trkpt><trkpt lat="50.186829" lon="5.448525"><ele>329.436</ele><time>2022-09-17T10:40:14Z</time></trkpt><trkpt lat="50.186874" lon="5.448627"><ele>330.273</ele><time>2022-09-17T10:40:15Z</time></trkpt><trkpt lat="50.186888" lon="5.448760"><ele>330.947</ele><time>2022-09-17T10:40:16Z</time></trkpt><trkpt lat="50.186870" lon="5.448883"><ele>331.229</ele><time>2022-09-17T10:40:17Z</time></trkpt><trkpt lat="50.186821" lon="5.448991"><ele>331.721</ele><time>2022-09-17T10:40:18Z</time></trkpt><trkpt lat="50.186745" lon="5.449072"><ele>332.209</ele><time>2022-09-17T10:40:19Z</time></trkpt><trkpt lat="50.186654" lon="5.449124"><ele>333.155</ele><time>2022-09-17T10:40:20Z</time></trkpt><trkpt lat="50.186544" lon="5.449176"><ele>333.815</ele><time>2022-09-17T10:40:21Z</time></trkpt><trkpt lat="50.186457" lon="5.449131"><ele>334.487</ele><time>2022-09-17T10:40:22Z</time></trkpt><trkpt lat="50.186434" lon="5.449067"><ele>334.753</ele><time>2022-09-17T10:40:23Z</time></trkpt><trkpt lat="50.186331" lon="5.449051"><ele>335.378</ele><time>2022-09-17T10:40:24Z</time></trkpt><trkpt lat="50.186229" lon="5.449059"><ele>336.033</ele><time>2022-09-17T10:40:25Z</time></trkpt><trkpt lat="50.186121" lon="5.449048"><ele>337.038</ele><time>2022-09-17T10:40:26Z</time></trkpt><trkpt lat="50.186045" lon="5.449120"><ele>337.722</ele><time>2022-09-17T10:40:27Z</time></trkpt><trkpt lat="50.185968" lon="5.449215"><ele>338.799</ele><time>2022-09-17T10:40:28Z</time></trkpt><trkpt lat="50.185906" lon="5.449335"><ele>339.731</ele><time>2022-09-17T10:40:29Z</time></trkpt><trkpt lat="50.185862" lon="5.449474"><ele>340.561</ele><time>2022-09-17T10:40:30Z</time></trkpt><trkpt lat="50.185818" lon="5.449632"><ele>341.307</ele><time>2022-09-17T10:40:31Z</time></trkpt><trkpt lat="50.185784" lon="5.449775"><ele>342.109</ele><time>2022-09-17T10:40:32Z</time></trkpt><trkpt lat="50.185750" lon="5.449922"><ele>342.844</ele><time>2022-09-17T10:40:33Z</time></trkpt><trkpt lat="50.185722" lon="5.450072"><ele>343.514</ele><time>2022-09-17T10:40:34Z</time></trkpt><trkpt lat="50.185679" lon="5.450200"><ele>344.156</ele><time>2022-09-17T10:40:35Z</time></trkpt><trkpt lat="50.185634" lon="5.450323"><ele>344.712</ele><time>2022-09-17T10:40:36Z</time></trkpt><trkpt lat="50.185575" lon="5.450434"><ele>345.457</ele><time>2022-09-17T10:40:37Z</time></trkpt><trkpt lat="50.185506" lon="5.450562"><ele>346.142</ele><time>2022-09-17T10:40:38Z</time></trkpt><trkpt lat="50.185440" lon="5.450672"><ele>346.797</ele><time>2022-09-17T10:40:39Z</time></trkpt><trkpt lat="50.185388" lon="5.450779"><ele>347.371</ele><time>2022-09-17T10:40:40Z</time></trkpt><trkpt lat="50.185338" lon="5.450865"><ele>347.638</ele><time>2022-09-17T10:40:41Z</time></trkpt><trkpt lat="50.185277" lon="5.450932"><ele>348.168</ele><time>2022-09-17T10:40:42Z</time></trkpt><trkpt lat="50.185204" lon="5.450970"><ele>348.442</ele><time>2022-09-17T10:40:43Z</time></trkpt><trkpt lat="50.185124" lon="5.450970"><ele>348.726</ele><time>2022-09-17T10:40:44Z</time></trkpt><trkpt lat="50.185035" lon="5.450963"><ele>349.109</ele><time>2022-09-17T10:40:45Z</time></trkpt><trkpt lat="50.184924" lon="5.450955"><ele>349.687</ele><time>2022-09-17T10:40:46Z</time></trkpt><trkpt lat="50.184814" lon="5.450960"><ele>349.647</ele><time>2022-09-17T10:40:47Z</time></trkpt><trkpt lat="50.184716" lon="5.450954"><ele>349.519</ele><time>2022-09-17T10:40:48Z</time></trkpt><trkpt lat="50.184618" lon="5.450937"><ele>349.155</ele><time>2022-09-17T10:40:49Z</time></trkpt><trkpt lat="50.184515" lon="5.450918"><ele>348.570</ele><time>2022-09-17T10:40:50Z</time></trkpt><trkpt lat="50.184416" lon="5.450899"><ele>347.915</ele><time>2022-09-17T10:40:51Z</time></trkpt><trkpt lat="50.184320" lon="5.450879"><ele>347.430</ele><time>2022-09-17T10:40:52Z</time></trkpt><trkpt lat="50.184234" lon="5.450856"><ele>347.044</ele><time>2022-09-17T10:40:53Z</time></trkpt><trkpt lat="50.184152" lon="5.450834"><ele>346.831</ele><time>2022-09-17T10:40:54Z</time></trkpt><trkpt lat="50.184075" lon="5.450807"><ele>346.422</ele><time>2022-09-17T10:40:55Z</time></trkpt><trkpt lat="50.184001" lon="5.450784"><ele>346.062</ele><time>2022-09-17T10:40:56Z</time></trkpt><trkpt lat="50.183925" lon="5.450777"><ele>345.608</ele><time>2022-09-17T10:40:57Z</time></trkpt><trkpt lat="50.183846" lon="5.450791"><ele>345.409</ele><time>2022-09-17T10:40:58Z</time></trkpt><trkpt lat="50.183770" lon="5.450817"><ele>345.223</ele><time>2022-09-17T10:40:59Z</time></trkpt><trkpt lat="50.183690" lon="5.450837"><ele>344.913</ele><time>2022-09-17T10:41:00Z</time></trkpt><trkpt lat="50.183602" lon="5.450857"><ele>344.695</ele><time>2022-09-17T10:41:01Z</time></trkpt><trkpt lat="50.183521" lon="5.450869"><ele>344.221</ele><time>2022-09-17T10:41:02Z</time></trkpt><trkpt lat="50.183442" lon="5.450888"><ele>343.666</ele><time>2022-09-17T10:41:03Z</time></trkpt><trkpt lat="50.183361" lon="5.450906"><ele>342.931</ele><time>2022-09-17T10:41:04Z</time></trkpt><trkpt lat="50.183278" lon="5.450924"><ele>342.356</ele><time>2022-09-17T10:41:05Z</time></trkpt><trkpt lat="50.183205" lon="5.450969"><ele>341.730</ele><time>2022-09-17T10:41:06Z</time></trkpt><trkpt lat="50.183120" lon="5.450988"><ele>341.077</ele><time>2022-09-17T10:41:07Z</time></trkpt><trkpt lat="50.183042" lon="5.451011"><ele>340.477</ele><time>2022-09-17T10:41:08Z</time></trkpt><trkpt lat="50.182971" lon="5.451050"><ele>339.861</ele><time>2022-09-17T10:41:09Z</time></trkpt><trkpt lat="50.182890" lon="5.451088"><ele>339.227</ele><time>2022-09-17T10:41:10Z</time></trkpt><trkpt lat="50.182824" lon="5.451135"><ele>338.609</ele><time>2022-09-17T10:41:11Z</time></trkpt><trkpt lat="50.182755" lon="5.451198"><ele>338.198</ele><time>2022-09-17T10:41:12Z</time></trkpt><trkpt lat="50.182684" lon="5.451264"><ele>337.698</ele><time>2022-09-17T10:41:13Z</time></trkpt><trkpt lat="50.182612" lon="5.451357"><ele>337.210</ele><time>2022-09-17T10:41:14Z</time></trkpt><trkpt lat="50.182536" lon="5.451450"><ele>336.846</ele><time>2022-09-17T10:41:15Z</time></trkpt><trkpt lat="50.182458" lon="5.451532"><ele>336.591</ele><time>2022-09-17T10:41:16Z</time></trkpt><trkpt lat="50.182369" lon="5.451610"><ele>336.336</ele><time>2022-09-17T10:41:17Z</time></trkpt><trkpt lat="50.182276" lon="5.451676"><ele>336.131</ele><time>2022-09-17T10:41:18Z</time></trkpt><trkpt lat="50.182182" lon="5.451738"><ele>336.135</ele><time>2022-09-17T10:41:19Z</time></trkpt><trkpt lat="50.182099" lon="5.451798"><ele>335.922</ele><time>2022-09-17T10:41:20Z</time></trkpt><trkpt lat="50.182015" lon="5.451858"><ele>335.953</ele><time>2022-09-17T10:41:21Z</time></trkpt><trkpt lat="50.181929" lon="5.451923"><ele>335.904</ele><time>2022-09-17T10:41:22Z</time></trkpt><trkpt lat="50.181833" lon="5.451986"><ele>336.114</ele><time>2022-09-17T10:41:23Z</time></trkpt><trkpt lat="50.181724" lon="5.452046"><ele>336.209</ele><time>2022-09-17T10:41:24Z</time></trkpt><trkpt lat="50.181624" lon="5.452105"><ele>336.656</ele><time>2022-09-17T10:41:25Z</time></trkpt><trkpt lat="50.181533" lon="5.452161"><ele>336.896</ele><time>2022-09-17T10:41:26Z</time></trkpt><trkpt lat="50.181439" lon="5.452217"><ele>337.158</ele><time>2022-09-17T10:41:27Z</time></trkpt><trkpt lat="50.181353" lon="5.452286"><ele>337.194</ele><time>2022-09-17T10:41:28Z</time></trkpt><trkpt lat="50.181284" lon="5.452343"><ele>337.279</ele><time>2022-09-17T10:41:29Z</time></trkpt><trkpt lat="50.181221" lon="5.452400"><ele>337.274</ele><time>2022-09-17T10:41:30Z</time></trkpt><trkpt lat="50.181144" lon="5.452403"><ele>337.359</ele><time>2022-09-17T10:41:31Z</time></trkpt><trkpt lat="50.181072" lon="5.452404"><ele>337.553</ele><time>2022-09-17T10:41:32Z</time></trkpt><trkpt lat="50.180986" lon="5.452383"><ele>337.730</ele><time>2022-09-17T10:41:33Z</time></trkpt><trkpt lat="50.180906" lon="5.452363"><ele>337.999</ele><time>2022-09-17T10:41:34Z</time></trkpt><trkpt lat="50.180812" lon="5.452381"><ele>338.107</ele><time>2022-09-17T10:41:35Z</time></trkpt><trkpt lat="50.180710" lon="5.452428"><ele>338.327</ele><time>2022-09-17T10:41:36Z</time></trkpt><trkpt lat="50.180615" lon="5.452473"><ele>338.509</ele><time>2022-09-17T10:41:37Z</time></trkpt><trkpt lat="50.180520" lon="5.452526"><ele>339.010</ele><time>2022-09-17T10:41:38Z</time></trkpt><trkpt lat="50.180415" lon="5.452583"><ele>339.720</ele><time>2022-09-17T10:41:39Z</time></trkpt><trkpt lat="50.180291" lon="5.452647"><ele>340.532</ele><time>2022-09-17T10:41:40Z</time></trkpt><trkpt lat="50.180151" lon="5.452718"><ele>342.188</ele><time>2022-09-17T10:41:41Z</time></trkpt><trkpt lat="50.180042" lon="5.452769"><ele>342.693</ele><time>2022-09-17T10:41:42Z</time></trkpt><trkpt lat="50.179945" lon="5.452820"><ele>343.728</ele><time>2022-09-17T10:41:43Z</time></trkpt><trkpt lat="50.179837" lon="5.452869"><ele>344.733</ele><time>2022-09-17T10:41:44Z</time></trkpt><trkpt lat="50.179729" lon="5.452942"><ele>345.567</ele><time>2022-09-17T10:41:45Z</time></trkpt><trkpt lat="50.179619" lon="5.453024"><ele>346.544</ele><time>2022-09-17T10:41:46Z</time></trkpt><trkpt lat="50.179532" lon="5.453104"><ele>347.239</ele><time>2022-09-17T10:41:47Z</time></trkpt><trkpt lat="50.179458" lon="5.453200"><ele>347.801</ele><time>2022-09-17T10:41:48Z</time></trkpt><trkpt lat="50.179386" lon="5.453303"><ele>348.421</ele><time>2022-09-17T10:41:49Z</time></trkpt><trkpt lat="50.179328" lon="5.453425"><ele>349.009</ele><time>2022-09-17T10:41:50Z</time></trkpt><trkpt lat="50.179302" lon="5.453543"><ele>349.584</ele><time>2022-09-17T10:41:51Z</time></trkpt><trkpt lat="50.179295" lon="5.453673"><ele>349.964</ele><time>2022-09-17T10:41:52Z</time></trkpt><trkpt lat="50.179301" lon="5.453839"><ele>351.356</ele><time>2022-09-17T10:41:53Z</time></trkpt><trkpt lat="50.179300" lon="5.454000"><ele>352.362</ele><time>2022-09-17T10:41:54Z</time></trkpt><trkpt lat="50.179295" lon="5.454161"><ele>353.297</ele><time>2022-09-17T10:41:55Z</time></trkpt><trkpt lat="50.179294" lon="5.454308"><ele>354.252</ele><time>2022-09-17T10:41:56Z</time></trkpt><trkpt lat="50.179295" lon="5.454477"><ele>355.197</ele><time>2022-09-17T10:41:57Z</time></trkpt><trkpt lat="50.179302" lon="5.454673"><ele>355.821</ele><time>2022-09-17T10:41:58Z</time></trkpt><trkpt lat="50.179300" lon="5.454874"><ele>356.438</ele><time>2022-09-17T10:41:59Z</time></trkpt><trkpt lat="50.179293" lon="5.455081"><ele>357.214</ele><time>2022-09-17T10:42:00Z</time></trkpt><trkpt lat="50.179266" lon="5.455279"><ele>357.954</ele><time>2022-09-17T10:42:01Z</time></trkpt><trkpt lat="50.179232" lon="5.455457"><ele>358.309</ele><time>2022-09-17T10:42:02Z</time></trkpt><trkpt lat="50.179173" lon="5.455665"><ele>358.909</ele><time>2022-09-17T10:42:03Z</time></trkpt><trkpt lat="50.179118" lon="5.455864"><ele>360.252</ele><time>2022-09-17T10:42:04Z</time></trkpt><trkpt lat="50.179071" lon="5.456057"><ele>361.242</ele><time>2022-09-17T10:42:05Z</time></trkpt><trkpt lat="50.179011" lon="5.456258"><ele>362.074</ele><time>2022-09-17T10:42:06Z</time></trkpt><trkpt lat="50.178978" lon="5.456467"><ele>363.060</ele><time>2022-09-17T10:42:07Z</time></trkpt><trkpt lat="50.178961" lon="5.456649"><ele>363.575</ele><time>2022-09-17T10:42:08Z</time></trkpt><trkpt lat="50.178945" lon="5.456854"><ele>364.620</ele><time>2022-09-17T10:42:09Z</time></trkpt><trkpt lat="50.178932" lon="5.457078"><ele>365.895</ele><time>2022-09-17T10:42:10Z</time></trkpt><trkpt lat="50.178939" lon="5.457299"><ele>367.079</ele><time>2022-09-17T10:42:11Z</time></trkpt><trkpt lat="50.178955" lon="5.457512"><ele>368.036</ele><time>2022-09-17T10:42:12Z</time></trkpt><trkpt lat="50.178951" lon="5.457736"><ele>368.817</ele><time>2022-09-17T10:42:13Z</time></trkpt><trkpt lat="50.178949" lon="5.457915"><ele>369.187</ele><time>2022-09-17T10:42:14Z</time></trkpt><trkpt lat="50.178943" lon="5.458107"><ele>370.115</ele><time>2022-09-17T10:42:15Z</time></trkpt><trkpt lat="50.178954" lon="5.458301"><ele>370.709</ele><time>2022-09-17T10:42:16Z</time></trkpt><trkpt lat="50.178983" lon="5.458482"><ele>371.342</ele><time>2022-09-17T10:42:17Z</time></trkpt><trkpt lat="50.179030" lon="5.458616"><ele>371.742</ele><time>2022-09-17T10:42:18Z</time></trkpt><trkpt lat="50.179070" lon="5.458760"><ele>372.224</ele><time>2022-09-17T10:42:19Z</time></trkpt><trkpt lat="50.179095" lon="5.458900"><ele>372.480</ele><time>2022-09-17T10:42:20Z</time></trkpt><trkpt lat="50.179121" lon="5.459039"><ele>372.755</ele><time>2022-09-17T10:42:21Z</time></trkpt><trkpt lat="50.179144" lon="5.459180"><ele>372.790</ele><time>2022-09-17T10:42:22Z</time></trkpt><trkpt lat="50.179162" lon="5.459340"><ele>372.715</ele><time>2022-09-17T10:42:23Z</time></trkpt><trkpt lat="50.179179" lon="5.459480"><ele>372.669</ele><time>2022-09-17T10:42:24Z</time></trkpt><trkpt lat="50.179198" lon="5.459631"><ele>372.366</ele><time>2022-09-17T10:42:25Z</time></trkpt><trkpt lat="50.179215" lon="5.459771"><ele>371.664</ele><time>2022-09-17T10:42:26Z</time></trkpt><trkpt lat="50.179232" lon="5.459893"><ele>371.006</ele><time>2022-09-17T10:42:27Z</time></trkpt><trkpt lat="50.179239" lon="5.460019"><ele>370.816</ele><time>2022-09-17T10:42:28Z</time></trkpt><trkpt lat="50.179252" lon="5.460103"><ele>370.409</ele><time>2022-09-17T10:42:29Z</time></trkpt><trkpt lat="50.179266" lon="5.460189"><ele>370.137</ele><time>2022-09-17T10:42:30Z</time></trkpt><trkpt lat="50.179269" lon="5.460265"><ele>370.067</ele><time>2022-09-17T10:42:31Z</time></trkpt><trkpt lat="50.179260" lon="5.460349"><ele>369.979</ele><time>2022-09-17T10:42:32Z</time></trkpt><trkpt lat="50.179258" lon="5.460473"><ele>369.975</ele><time>2022-09-17T10:42:33Z</time></trkpt><trkpt lat="50.179274" lon="5.460611"><ele>369.790</ele><time>2022-09-17T10:42:34Z</time></trkpt><trkpt lat="50.179294" lon="5.460768"><ele>369.395</ele><time>2022-09-17T10:42:35Z</time></trkpt><trkpt lat="50.179314" lon="5.460915"><ele>369.160</ele><time>2022-09-17T10:42:36Z</time></trkpt><trkpt lat="50.179326" lon="5.461044"><ele>368.744</ele><time>2022-09-17T10:42:37Z</time></trkpt><trkpt lat="50.179328" lon="5.461165"><ele>368.631</ele><time>2022-09-17T10:42:38Z</time></trkpt><trkpt lat="50.179342" lon="5.461270"><ele>368.563</ele><time>2022-09-17T10:42:39Z</time></trkpt><trkpt lat="50.179344" lon="5.461375"><ele>368.544</ele><time>2022-09-17T10:42:40Z</time></trkpt><trkpt lat="50.179348" lon="5.461489"><ele>368.518</ele><time>2022-09-17T10:42:41Z</time></trkpt><trkpt lat="50.179368" lon="5.461603"><ele>368.609</ele><time>2022-09-17T10:42:42Z</time></trkpt><trkpt lat="50.179382" lon="5.461717"><ele>368.717</ele><time>2022-09-17T10:42:43Z</time></trkpt><trkpt lat="50.179396" lon="5.461834"><ele>368.837</ele><time>2022-09-17T10:42:44Z</time></trkpt><trkpt lat="50.179418" lon="5.461958"><ele>369.099</ele><time>2022-09-17T10:42:45Z</time></trkpt><trkpt lat="50.179448" lon="5.462075"><ele>369.235</ele><time>2022-09-17T10:42:46Z</time></trkpt><trkpt lat="50.179484" lon="5.462183"><ele>369.420</ele><time>2022-09-17T10:42:47Z</time></trkpt><trkpt lat="50.179528" lon="5.462267"><ele>369.645</ele><time>2022-09-17T10:42:48Z</time></trkpt><trkpt lat="50.179573" lon="5.462344"><ele>369.870</ele><time>2022-09-17T10:42:49Z</time></trkpt><trkpt lat="50.179613" lon="5.462426"><ele>369.984</ele><time>2022-09-17T10:42:50Z</time></trkpt><trkpt lat="50.179646" lon="5.462493"><ele>369.971</ele><time>2022-09-17T10:42:51Z</time></trkpt><trkpt lat="50.179681" lon="5.462570"><ele>370.051</ele><time>2022-09-17T10:42:52Z</time></trkpt><trkpt lat="50.179735" lon="5.462653"><ele>370.101</ele><time>2022-09-17T10:42:53Z</time></trkpt><trkpt lat="50.179800" lon="5.462754"><ele>370.211</ele><time>2022-09-17T10:42:54Z</time></trkpt><trkpt lat="50.179858" lon="5.462915"><ele>370.509</ele><time>2022-09-17T10:42:55Z</time></trkpt><trkpt lat="50.179931" lon="5.463096"><ele>370.716</ele><time>2022-09-17T10:42:56Z</time></trkpt><trkpt lat="50.180001" lon="5.463291"><ele>371.086</ele><time>2022-09-17T10:42:57Z</time></trkpt><trkpt lat="50.180076" lon="5.463485"><ele>371.248</ele><time>2022-09-17T10:42:58Z</time></trkpt><trkpt lat="50.180124" lon="5.463696"><ele>371.324</ele><time>2022-09-17T10:42:59Z</time></trkpt><trkpt lat="50.180159" lon="5.463910"><ele>371.459</ele><time>2022-09-17T10:43:00Z</time></trkpt><trkpt lat="50.180177" lon="5.464106"><ele>371.554</ele><time>2022-09-17T10:43:01Z</time></trkpt><trkpt lat="50.180187" lon="5.464270"><ele>371.549</ele><time>2022-09-17T10:43:02Z</time></trkpt><trkpt lat="50.180191" lon="5.464435"><ele>371.653</ele><time>2022-09-17T10:43:03Z</time></trkpt><trkpt lat="50.180187" lon="5.464577"><ele>371.630</ele><time>2022-09-17T10:43:04Z</time></trkpt><trkpt lat="50.180177" lon="5.464713"><ele>371.865</ele><time>2022-09-17T10:43:05Z</time></trkpt><trkpt lat="50.180151" lon="5.464860"><ele>372.068</ele><time>2022-09-17T10:43:06Z</time></trkpt><trkpt lat="50.180135" lon="5.465031"><ele>372.114</ele><time>2022-09-17T10:43:07Z</time></trkpt><trkpt lat="50.180114" lon="5.465192"><ele>372.309</ele><time>2022-09-17T10:43:08Z</time></trkpt><trkpt lat="50.180085" lon="5.465384"><ele>372.387</ele><time>2022-09-17T10:43:09Z</time></trkpt><trkpt lat="50.180059" lon="5.465560"><ele>372.337</ele><time>2022-09-17T10:43:10Z</time></trkpt><trkpt lat="50.180035" lon="5.465738"><ele>372.179</ele><time>2022-09-17T10:43:11Z</time></trkpt><trkpt lat="50.180012" lon="5.465906"><ele>372.135</ele><time>2022-09-17T10:43:12Z</time></trkpt><trkpt lat="50.179993" lon="5.466102"><ele>371.880</ele><time>2022-09-17T10:43:13Z</time></trkpt><trkpt lat="50.179973" lon="5.466308"><ele>371.565</ele><time>2022-09-17T10:43:14Z</time></trkpt><trkpt lat="50.179947" lon="5.466505"><ele>371.240</ele><time>2022-09-17T10:43:15Z</time></trkpt><trkpt lat="50.179916" lon="5.466709"><ele>371.164</ele><time>2022-09-17T10:43:16Z</time></trkpt><trkpt lat="50.179890" lon="5.466909"><ele>370.761</ele><time>2022-09-17T10:43:17Z</time></trkpt><trkpt lat="50.179879" lon="5.467122"><ele>370.632</ele><time>2022-09-17T10:43:18Z</time></trkpt><trkpt lat="50.179870" lon="5.467327"><ele>370.392</ele><time>2022-09-17T10:43:19Z</time></trkpt><trkpt lat="50.179869" lon="5.467521"><ele>370.311</ele><time>2022-09-17T10:43:20Z</time></trkpt><trkpt lat="50.179848" lon="5.467733"><ele>370.209</ele><time>2022-09-17T10:43:21Z</time></trkpt><trkpt lat="50.179821" lon="5.467946"><ele>370.354</ele><time>2022-09-17T10:43:22Z</time></trkpt><trkpt lat="50.179791" lon="5.468116"><ele>370.434</ele><time>2022-09-17T10:43:23Z</time></trkpt><trkpt lat="50.179746" lon="5.468270"><ele>370.846</ele><time>2022-09-17T10:43:24Z</time></trkpt><trkpt lat="50.179680" lon="5.468422"><ele>371.022</ele><time>2022-09-17T10:43:25Z</time></trkpt><trkpt lat="50.179634" lon="5.468611"><ele>371.467</ele><time>2022-09-17T10:43:26Z</time></trkpt><trkpt lat="50.179583" lon="5.468820"><ele>371.672</ele><time>2022-09-17T10:43:27Z</time></trkpt><trkpt lat="50.179547" lon="5.469038"><ele>371.767</ele><time>2022-09-17T10:43:28Z</time></trkpt><trkpt lat="50.179507" lon="5.469276"><ele>371.911</ele><time>2022-09-17T10:43:29Z</time></trkpt><trkpt lat="50.179465" lon="5.469521"><ele>372.388</ele><time>2022-09-17T10:43:30Z</time></trkpt><trkpt lat="50.179419" lon="5.469774"><ele>372.736</ele><time>2022-09-17T10:43:31Z</time></trkpt><trkpt lat="50.179372" lon="5.470025"><ele>373.117</ele><time>2022-09-17T10:43:32Z</time></trkpt><trkpt lat="50.179327" lon="5.470267"><ele>373.418</ele><time>2022-09-17T10:43:33Z</time></trkpt><trkpt lat="50.179222" lon="5.470504"><ele>373.509</ele><time>2022-09-17T10:43:34Z</time></trkpt><trkpt lat="50.179171" lon="5.470757"><ele>373.464</ele><time>2022-09-17T10:43:35Z</time></trkpt><trkpt lat="50.179120" lon="5.471011"><ele>373.344</ele><time>2022-09-17T10:43:36Z</time></trkpt><trkpt lat="50.179070" lon="5.471259"><ele>373.376</ele><time>2022-09-17T10:43:37Z</time></trkpt><trkpt lat="50.179020" lon="5.471511"><ele>373.332</ele><time>2022-09-17T10:43:38Z</time></trkpt><trkpt lat="50.178971" lon="5.471753"><ele>373.357</ele><time>2022-09-17T10:43:39Z</time></trkpt><trkpt lat="50.178932" lon="5.471983"><ele>373.312</ele><time>2022-09-17T10:43:40Z</time></trkpt><trkpt lat="50.178898" lon="5.472204"><ele>373.357</ele><time>2022-09-17T10:43:41Z</time></trkpt><trkpt lat="50.178864" lon="5.472423"><ele>373.291</ele><time>2022-09-17T10:43:42Z</time></trkpt><trkpt lat="50.178827" lon="5.472658"><ele>372.948</ele><time>2022-09-17T10:43:43Z</time></trkpt><trkpt lat="50.178791" lon="5.472885"><ele>372.738</ele><time>2022-09-17T10:43:44Z</time></trkpt><trkpt lat="50.178749" lon="5.473093"><ele>372.470</ele><time>2022-09-17T10:43:45Z</time></trkpt><trkpt lat="50.178694" lon="5.473323"><ele>372.217</ele><time>2022-09-17T10:43:46Z</time></trkpt><trkpt lat="50.178639" lon="5.473556"><ele>372.109</ele><time>2022-09-17T10:43:47Z</time></trkpt><trkpt lat="50.178581" lon="5.473796"><ele>372.094</ele><time>2022-09-17T10:43:48Z</time></trkpt><trkpt lat="50.178525" lon="5.474035"><ele>371.984</ele><time>2022-09-17T10:43:49Z</time></trkpt><trkpt lat="50.178479" lon="5.474287"><ele>371.986</ele><time>2022-09-17T10:43:50Z</time></trkpt><trkpt lat="50.178448" lon="5.474522"><ele>371.822</ele><time>2022-09-17T10:43:51Z</time></trkpt><trkpt lat="50.178418" lon="5.474751"><ele>371.627</ele><time>2022-09-17T10:43:52Z</time></trkpt><trkpt lat="50.178393" lon="5.474945"><ele>371.322</ele><time>2022-09-17T10:43:53Z</time></trkpt><trkpt lat="50.178368" lon="5.475134"><ele>371.287</ele><time>2022-09-17T10:43:54Z</time></trkpt><trkpt lat="50.178343" lon="5.475326"><ele>371.011</ele><time>2022-09-17T10:43:55Z</time></trkpt><trkpt lat="50.178342" lon="5.475532"><ele>370.888</ele><time>2022-09-17T10:43:56Z</time></trkpt><trkpt lat="50.178347" lon="5.475700"><ele>370.576</ele><time>2022-09-17T10:43:57Z</time></trkpt><trkpt lat="50.178357" lon="5.475884"><ele>370.290</ele><time>2022-09-17T10:43:58Z</time></trkpt><trkpt lat="50.178388" lon="5.476109"><ele>370.019</ele><time>2022-09-17T10:43:59Z</time></trkpt><trkpt lat="50.178428" lon="5.476302"><ele>370.009</ele><time>2022-09-17T10:44:00Z</time></trkpt><trkpt lat="50.178483" lon="5.476522"><ele>370.298</ele><time>2022-09-17T10:44:01Z</time></trkpt><trkpt lat="50.178514" lon="5.476724"><ele>370.628</ele><time>2022-09-17T10:44:02Z</time></trkpt><trkpt lat="50.178553" lon="5.476922"><ele>370.880</ele><time>2022-09-17T10:44:03Z</time></trkpt><trkpt lat="50.178592" lon="5.477119"><ele>371.266</ele><time>2022-09-17T10:44:04Z</time></trkpt><trkpt lat="50.178657" lon="5.477299"><ele>371.281</ele><time>2022-09-17T10:44:05Z</time></trkpt><trkpt lat="50.178705" lon="5.477500"><ele>370.996</ele><time>2022-09-17T10:44:06Z</time></trkpt><trkpt lat="50.178786" lon="5.477684"><ele>370.711</ele><time>2022-09-17T10:44:07Z</time></trkpt><trkpt lat="50.178859" lon="5.477856"><ele>370.615</ele><time>2022-09-17T10:44:08Z</time></trkpt><trkpt lat="50.178924" lon="5.478023"><ele>370.652</ele><time>2022-09-17T10:44:09Z</time></trkpt><trkpt lat="50.178973" lon="5.478201"><ele>370.645</ele><time>2022-09-17T10:44:10Z</time></trkpt><trkpt lat="50.179019" lon="5.478395"><ele>371.147</ele><time>2022-09-17T10:44:11Z</time></trkpt><trkpt lat="50.179062" lon="5.478588"><ele>371.511</ele><time>2022-09-17T10:44:12Z</time></trkpt><trkpt lat="50.179090" lon="5.478794"><ele>371.809</ele><time>2022-09-17T10:44:13Z</time></trkpt><trkpt lat="50.179107" lon="5.478988"><ele>372.145</ele><time>2022-09-17T10:44:14Z</time></trkpt><trkpt lat="50.179119" lon="5.479177"><ele>372.415</ele><time>2022-09-17T10:44:15Z</time></trkpt><trkpt lat="50.179122" lon="5.479350"><ele>372.667</ele><time>2022-09-17T10:44:16Z</time></trkpt><trkpt lat="50.179105" lon="5.479523"><ele>372.913</ele><time>2022-09-17T10:44:17Z</time></trkpt><trkpt lat="50.179080" lon="5.479689"><ele>373.238</ele><time>2022-09-17T10:44:18Z</time></trkpt><trkpt lat="50.179012" lon="5.479788"><ele>373.563</ele><time>2022-09-17T10:44:19Z</time></trkpt><trkpt lat="50.178940" lon="5.479836"><ele>373.838</ele><time>2022-09-17T10:44:20Z</time></trkpt><trkpt lat="50.178865" lon="5.479927"><ele>373.952</ele><time>2022-09-17T10:44:21Z</time></trkpt><trkpt lat="50.178800" lon="5.480006"><ele>373.949</ele><time>2022-09-17T10:44:22Z</time></trkpt><trkpt lat="50.178755" lon="5.480147"><ele>373.967</ele><time>2022-09-17T10:44:23Z</time></trkpt><trkpt lat="50.178736" lon="5.480282"><ele>373.781</ele><time>2022-09-17T10:44:24Z</time></trkpt><trkpt lat="50.178717" lon="5.480401"><ele>373.619</ele><time>2022-09-17T10:44:25Z</time></trkpt><trkpt lat="50.178706" lon="5.480526"><ele>373.509</ele><time>2022-09-17T10:44:26Z</time></trkpt><trkpt lat="50.178703" lon="5.480610"><ele>373.567</ele><time>2022-09-17T10:44:27Z</time></trkpt><trkpt lat="50.178664" lon="5.480697"><ele>373.547</ele><time>2022-09-17T10:44:29Z</time></trkpt><trkpt lat="50.178584" lon="5.480712"><ele>373.719</ele><time>2022-09-17T10:44:30Z</time></trkpt><trkpt lat="50.178481" lon="5.480719"><ele>374.025</ele><time>2022-09-17T10:44:31Z</time></trkpt><trkpt lat="50.178376" lon="5.480728"><ele>374.250</ele><time>2022-09-17T10:44:32Z</time></trkpt><trkpt lat="50.178271" lon="5.480735"><ele>374.255</ele><time>2022-09-17T10:44:33Z</time></trkpt><trkpt lat="50.178168" lon="5.480753"><ele>374.280</ele><time>2022-09-17T10:44:34Z</time></trkpt><trkpt lat="50.178048" lon="5.480772"><ele>374.284</ele><time>2022-09-17T10:44:35Z</time></trkpt><trkpt lat="50.177920" lon="5.480792"><ele>374.271</ele><time>2022-09-17T10:44:36Z</time></trkpt><trkpt lat="50.177781" lon="5.480815"><ele>374.347</ele><time>2022-09-17T10:44:37Z</time></trkpt><trkpt lat="50.177649" lon="5.480836"><ele>374.629</ele><time>2022-09-17T10:44:38Z</time></trkpt><trkpt lat="50.177520" lon="5.480859"><ele>374.821</ele><time>2022-09-17T10:44:39Z</time></trkpt><trkpt lat="50.177393" lon="5.480878"><ele>375.109</ele><time>2022-09-17T10:44:40Z</time></trkpt><trkpt lat="50.177264" lon="5.480863"><ele>375.465</ele><time>2022-09-17T10:44:41Z</time></trkpt><trkpt lat="50.177133" lon="5.480864"><ele>375.495</ele><time>2022-09-17T10:44:42Z</time></trkpt><trkpt lat="50.176994" lon="5.480864"><ele>375.497</ele><time>2022-09-17T10:44:43Z</time></trkpt><trkpt lat="50.176864" lon="5.480832"><ele>375.263</ele><time>2022-09-17T10:44:44Z</time></trkpt><trkpt lat="50.176730" lon="5.480800"><ele>375.148</ele><time>2022-09-17T10:44:45Z</time></trkpt><trkpt lat="50.176600" lon="5.480763"><ele>374.923</ele><time>2022-09-17T10:44:46Z</time></trkpt><trkpt lat="50.176491" lon="5.480694"><ele>374.738</ele><time>2022-09-17T10:44:47Z</time></trkpt><trkpt lat="50.176388" lon="5.480625"><ele>374.572</ele><time>2022-09-17T10:44:48Z</time></trkpt><trkpt lat="50.176292" lon="5.480535"><ele>374.339</ele><time>2022-09-17T10:44:49Z</time></trkpt><trkpt lat="50.176204" lon="5.480411"><ele>374.338</ele><time>2022-09-17T10:44:50Z</time></trkpt><trkpt lat="50.176115" lon="5.480273"><ele>374.570</ele><time>2022-09-17T10:44:51Z</time></trkpt><trkpt lat="50.176074" lon="5.480066"><ele>374.917</ele><time>2022-09-17T10:44:52Z</time></trkpt><trkpt lat="50.175998" lon="5.479884"><ele>375.409</ele><time>2022-09-17T10:44:53Z</time></trkpt><trkpt lat="50.175914" lon="5.479704"><ele>375.984</ele><time>2022-09-17T10:44:54Z</time></trkpt><trkpt lat="50.175815" lon="5.479552"><ele>376.384</ele><time>2022-09-17T10:44:55Z</time></trkpt><trkpt lat="50.175710" lon="5.479427"><ele>376.646</ele><time>2022-09-17T10:44:56Z</time></trkpt><trkpt lat="50.175593" lon="5.479342"><ele>376.722</ele><time>2022-09-17T10:44:57Z</time></trkpt><trkpt lat="50.175469" lon="5.479264"><ele>377.147</ele><time>2022-09-17T10:44:58Z</time></trkpt><trkpt lat="50.175348" lon="5.479245"><ele>377.212</ele><time>2022-09-17T10:44:59Z</time></trkpt><trkpt lat="50.175216" lon="5.479223"><ele>377.557</ele><time>2022-09-17T10:45:00Z</time></trkpt><trkpt lat="50.175075" lon="5.479206"><ele>378.221</ele><time>2022-09-17T10:45:01Z</time></trkpt><trkpt lat="50.174927" lon="5.479184"><ele>378.668</ele><time>2022-09-17T10:45:02Z</time></trkpt><trkpt lat="50.174754" lon="5.479148"><ele>378.999</ele><time>2022-09-17T10:45:03Z</time></trkpt><trkpt lat="50.174580" lon="5.479119"><ele>379.207</ele><time>2022-09-17T10:45:04Z</time></trkpt><trkpt lat="50.174394" lon="5.479087"><ele>379.627</ele><time>2022-09-17T10:45:05Z</time></trkpt><trkpt lat="50.174213" lon="5.479055"><ele>380.209</ele><time>2022-09-17T10:45:06Z</time></trkpt><trkpt lat="50.174041" lon="5.479019"><ele>380.980</ele><time>2022-09-17T10:45:07Z</time></trkpt><trkpt lat="50.173886" lon="5.478988"><ele>381.640</ele><time>2022-09-17T10:45:08Z</time></trkpt><trkpt lat="50.173738" lon="5.478956"><ele>382.212</ele><time>2022-09-17T10:45:09Z</time></trkpt><trkpt lat="50.173609" lon="5.478934"><ele>382.678</ele><time>2022-09-17T10:45:10Z</time></trkpt><trkpt lat="50.173488" lon="5.478903"><ele>382.883</ele><time>2022-09-17T10:45:11Z</time></trkpt><trkpt lat="50.173392" lon="5.478881"><ele>383.058</ele><time>2022-09-17T10:45:12Z</time></trkpt><trkpt lat="50.173315" lon="5.478878"><ele>383.213</ele><time>2022-09-17T10:45:13Z</time></trkpt><trkpt lat="50.173262" lon="5.478890"><ele>383.447</ele><time>2022-09-17T10:45:14Z</time></trkpt><trkpt lat="50.173197" lon="5.478934"><ele>383.884</ele><time>2022-09-17T10:45:21Z</time></trkpt><trkpt lat="50.173138" lon="5.478986"><ele>384.089</ele><time>2022-09-17T10:45:22Z</time></trkpt><trkpt lat="50.173050" lon="5.479049"><ele>385.106</ele><time>2022-09-17T10:45:23Z</time></trkpt><trkpt lat="50.172928" lon="5.479112"><ele>385.126</ele><time>2022-09-17T10:45:24Z</time></trkpt><trkpt lat="50.172793" lon="5.479204"><ele>384.709</ele><time>2022-09-17T10:45:25Z</time></trkpt><trkpt lat="50.172656" lon="5.479310"><ele>384.169</ele><time>2022-09-17T10:45:26Z</time></trkpt><trkpt lat="50.172513" lon="5.479446"><ele>383.259</ele><time>2022-09-17T10:45:27Z</time></trkpt><trkpt lat="50.172377" lon="5.479628"><ele>382.111</ele><time>2022-09-17T10:45:28Z</time></trkpt><trkpt lat="50.172268" lon="5.479848"><ele>380.977</ele><time>2022-09-17T10:45:29Z</time></trkpt><trkpt lat="50.172187" lon="5.480115"><ele>379.752</ele><time>2022-09-17T10:45:30Z</time></trkpt><trkpt lat="50.172152" lon="5.480379"><ele>378.627</ele><time>2022-09-17T10:45:31Z</time></trkpt><trkpt lat="50.172120" lon="5.480677"><ele>377.582</ele><time>2022-09-17T10:45:32Z</time></trkpt><trkpt lat="50.172100" lon="5.480934"><ele>376.566</ele><time>2022-09-17T10:45:33Z</time></trkpt><trkpt lat="50.172114" lon="5.481221"><ele>375.713</ele><time>2022-09-17T10:45:34Z</time></trkpt><trkpt lat="50.172124" lon="5.481509"><ele>374.995</ele><time>2022-09-17T10:45:35Z</time></trkpt><trkpt lat="50.172135" lon="5.481787"><ele>374.349</ele><time>2022-09-17T10:45:36Z</time></trkpt><trkpt lat="50.172138" lon="5.482059"><ele>373.823</ele><time>2022-09-17T10:45:37Z</time></trkpt><trkpt lat="50.172141" lon="5.482328"><ele>373.309</ele><time>2022-09-17T10:45:38Z</time></trkpt><trkpt lat="50.172146" lon="5.482587"><ele>372.740</ele><time>2022-09-17T10:45:39Z</time></trkpt><trkpt lat="50.172153" lon="5.482825"><ele>371.810</ele><time>2022-09-17T10:45:40Z</time></trkpt><trkpt lat="50.172159" lon="5.483052"><ele>370.722</ele><time>2022-09-17T10:45:41Z</time></trkpt><trkpt lat="50.172176" lon="5.483270"><ele>369.528</ele><time>2022-09-17T10:45:42Z</time></trkpt><trkpt lat="50.172179" lon="5.483466"><ele>368.963</ele><time>2022-09-17T10:45:43Z</time></trkpt><trkpt lat="50.172145" lon="5.483666"><ele>367.618</ele><time>2022-09-17T10:45:44Z</time></trkpt><trkpt lat="50.172087" lon="5.483826"><ele>366.723</ele><time>2022-09-17T10:45:45Z</time></trkpt><trkpt lat="50.172002" lon="5.483936"><ele>366.017</ele><time>2022-09-17T10:45:46Z</time></trkpt><trkpt lat="50.171920" lon="5.484038"><ele>365.454</ele><time>2022-09-17T10:45:47Z</time></trkpt><trkpt lat="50.171803" lon="5.484028"><ele>364.989</ele><time>2022-09-17T10:45:48Z</time></trkpt><trkpt lat="50.171668" lon="5.484036"><ele>364.506</ele><time>2022-09-17T10:45:49Z</time></trkpt><trkpt lat="50.171526" lon="5.484045"><ele>363.426</ele><time>2022-09-17T10:45:50Z</time></trkpt><trkpt lat="50.171382" lon="5.484054"><ele>362.609</ele><time>2022-09-17T10:45:51Z</time></trkpt><trkpt lat="50.171240" lon="5.484063"><ele>361.749</ele><time>2022-09-17T10:45:52Z</time></trkpt><trkpt lat="50.171063" lon="5.484100"><ele>361.229</ele><time>2022-09-17T10:45:53Z</time></trkpt><trkpt lat="50.170902" lon="5.484102"><ele>360.631</ele><time>2022-09-17T10:45:54Z</time></trkpt><trkpt lat="50.170745" lon="5.484102"><ele>359.067</ele><time>2022-09-17T10:45:55Z</time></trkpt><trkpt lat="50.170595" lon="5.484123"><ele>357.932</ele><time>2022-09-17T10:45:56Z</time></trkpt><trkpt lat="50.170457" lon="5.484140"><ele>356.667</ele><time>2022-09-17T10:45:57Z</time></trkpt><trkpt lat="50.170315" lon="5.484147"><ele>355.342</ele><time>2022-09-17T10:45:58Z</time></trkpt><trkpt lat="50.170175" lon="5.484154"><ele>354.896</ele><time>2022-09-17T10:45:59Z</time></trkpt><trkpt lat="50.170048" lon="5.484095"><ele>353.743</ele><time>2022-09-17T10:46:00Z</time></trkpt><trkpt lat="50.169907" lon="5.484086"><ele>352.687</ele><time>2022-09-17T10:46:01Z</time></trkpt><trkpt lat="50.169781" lon="5.484062"><ele>352.142</ele><time>2022-09-17T10:46:02Z</time></trkpt><trkpt lat="50.169632" lon="5.484049"><ele>351.126</ele><time>2022-09-17T10:46:03Z</time></trkpt><trkpt lat="50.169513" lon="5.484024"><ele>350.809</ele><time>2022-09-17T10:46:04Z</time></trkpt><trkpt lat="50.169380" lon="5.484008"><ele>350.179</ele><time>2022-09-17T10:46:05Z</time></trkpt><trkpt lat="50.169249" lon="5.484040"><ele>349.319</ele><time>2022-09-17T10:46:06Z</time></trkpt><trkpt lat="50.169121" lon="5.484056"><ele>348.571</ele><time>2022-09-17T10:46:07Z</time></trkpt><trkpt lat="50.168973" lon="5.484105"><ele>347.057</ele><time>2022-09-17T10:46:08Z</time></trkpt><trkpt lat="50.168851" lon="5.484205"><ele>346.022</ele><time>2022-09-17T10:46:09Z</time></trkpt><trkpt lat="50.168740" lon="5.484369"><ele>345.057</ele><time>2022-09-17T10:46:10Z</time></trkpt><trkpt lat="50.168647" lon="5.484537"><ele>344.062</ele><time>2022-09-17T10:46:11Z</time></trkpt><trkpt lat="50.168576" lon="5.484749"><ele>343.056</ele><time>2022-09-17T10:46:12Z</time></trkpt><trkpt lat="50.168551" lon="5.484937"><ele>342.163</ele><time>2022-09-17T10:46:13Z</time></trkpt><trkpt lat="50.168557" lon="5.485138"><ele>341.768</ele><time>2022-09-17T10:46:14Z</time></trkpt><trkpt lat="50.168592" lon="5.485333"><ele>341.042</ele><time>2022-09-17T10:46:15Z</time></trkpt><trkpt lat="50.168667" lon="5.485510"><ele>340.526</ele><time>2022-09-17T10:46:16Z</time></trkpt><trkpt lat="50.168782" lon="5.485616"><ele>340.309</ele><time>2022-09-17T10:46:17Z</time></trkpt><trkpt lat="50.168882" lon="5.485714"><ele>340.317</ele><time>2022-09-17T10:46:18Z</time></trkpt><trkpt lat="50.168939" lon="5.485839"><ele>340.617</ele><time>2022-09-17T10:46:19Z</time></trkpt><trkpt lat="50.169050" lon="5.485898"><ele>341.179</ele><time>2022-09-17T10:46:20Z</time></trkpt><trkpt lat="50.169176" lon="5.485974"><ele>341.785</ele><time>2022-09-17T10:46:21Z</time></trkpt><trkpt lat="50.169319" lon="5.486057"><ele>343.040</ele><time>2022-09-17T10:46:22Z</time></trkpt><trkpt lat="50.169462" lon="5.486142"><ele>344.035</ele><time>2022-09-17T10:46:23Z</time></trkpt><trkpt lat="50.169608" lon="5.486224"><ele>344.960</ele><time>2022-09-17T10:46:24Z</time></trkpt><trkpt lat="50.169754" lon="5.486317"><ele>345.864</ele><time>2022-09-17T10:46:25Z</time></trkpt><trkpt lat="50.169902" lon="5.486413"><ele>346.521</ele><time>2022-09-17T10:46:26Z</time></trkpt><trkpt lat="50.170049" lon="5.486529"><ele>347.279</ele><time>2022-09-17T10:46:27Z</time></trkpt><trkpt lat="50.170189" lon="5.486643"><ele>347.905</ele><time>2022-09-17T10:46:28Z</time></trkpt><trkpt lat="50.170318" lon="5.486744"><ele>348.525</ele><time>2022-09-17T10:46:29Z</time></trkpt><trkpt lat="50.170438" lon="5.486830"><ele>349.209</ele><time>2022-09-17T10:46:30Z</time></trkpt><trkpt lat="50.170576" lon="5.486911"><ele>350.098</ele><time>2022-09-17T10:46:31Z</time></trkpt><trkpt lat="50.170722" lon="5.486980"><ele>350.758</ele><time>2022-09-17T10:46:32Z</time></trkpt><trkpt lat="50.170864" lon="5.487055"><ele>351.340</ele><time>2022-09-17T10:46:33Z</time></trkpt><trkpt lat="50.170998" lon="5.487139"><ele>352.056</ele><time>2022-09-17T10:46:34Z</time></trkpt><trkpt lat="50.171127" lon="5.487225"><ele>352.781</ele><time>2022-09-17T10:46:35Z</time></trkpt><trkpt lat="50.171236" lon="5.487378"><ele>353.516</ele><time>2022-09-17T10:46:36Z</time></trkpt><trkpt lat="50.171350" lon="5.487530"><ele>354.371</ele><time>2022-09-17T10:46:37Z</time></trkpt><trkpt lat="50.171465" lon="5.487703"><ele>355.245</ele><time>2022-09-17T10:46:38Z</time></trkpt><trkpt lat="50.171555" lon="5.487874"><ele>356.142</ele><time>2022-09-17T10:46:39Z</time></trkpt><trkpt lat="50.171658" lon="5.488057"><ele>357.152</ele><time>2022-09-17T10:46:40Z</time></trkpt><trkpt lat="50.171765" lon="5.488230"><ele>358.053</ele><time>2022-09-17T10:46:41Z</time></trkpt><trkpt lat="50.171888" lon="5.488400"><ele>358.808</ele><time>2022-09-17T10:46:42Z</time></trkpt><trkpt lat="50.172012" lon="5.488558"><ele>359.509</ele><time>2022-09-17T10:46:43Z</time></trkpt><trkpt lat="50.172137" lon="5.488696"><ele>360.216</ele><time>2022-09-17T10:46:44Z</time></trkpt><trkpt lat="50.172264" lon="5.488822"><ele>360.826</ele><time>2022-09-17T10:46:45Z</time></trkpt><trkpt lat="50.172395" lon="5.488924"><ele>361.438</ele><time>2022-09-17T10:46:46Z</time></trkpt><trkpt lat="50.172511" lon="5.489080"><ele>362.064</ele><time>2022-09-17T10:46:47Z</time></trkpt><trkpt lat="50.172604" lon="5.489285"><ele>362.719</ele><time>2022-09-17T10:46:48Z</time></trkpt><trkpt lat="50.172698" lon="5.489467"><ele>363.524</ele><time>2022-09-17T10:46:49Z</time></trkpt><trkpt lat="50.172793" lon="5.489651"><ele>364.349</ele><time>2022-09-17T10:46:50Z</time></trkpt><trkpt lat="50.172881" lon="5.489827"><ele>365.153</ele><time>2022-09-17T10:46:51Z</time></trkpt><trkpt lat="50.172957" lon="5.490018"><ele>365.850</ele><time>2022-09-17T10:46:52Z</time></trkpt><trkpt lat="50.173015" lon="5.490221"><ele>366.435</ele><time>2022-09-17T10:46:53Z</time></trkpt><trkpt lat="50.173050" lon="5.490426"><ele>367.086</ele><time>2022-09-17T10:46:54Z</time></trkpt><trkpt lat="50.173034" lon="5.490625"><ele>367.314</ele><time>2022-09-17T10:46:55Z</time></trkpt><trkpt lat="50.173000" lon="5.490817"><ele>368.009</ele><time>2022-09-17T10:46:56Z</time></trkpt><trkpt lat="50.172965" lon="5.490999"><ele>368.684</ele><time>2022-09-17T10:46:57Z</time></trkpt><trkpt lat="50.172909" lon="5.491247"><ele>369.754</ele><time>2022-09-17T10:46:58Z</time></trkpt><trkpt lat="50.172849" lon="5.491510"><ele>370.416</ele><time>2022-09-17T10:46:59Z</time></trkpt><trkpt lat="50.172796" lon="5.491793"><ele>370.972</ele><time>2022-09-17T10:47:00Z</time></trkpt><trkpt lat="50.172727" lon="5.492056"><ele>371.397</ele><time>2022-09-17T10:47:01Z</time></trkpt><trkpt lat="50.172666" lon="5.492330"><ele>371.562</ele><time>2022-09-17T10:47:02Z</time></trkpt><trkpt lat="50.172604" lon="5.492595"><ele>371.617</ele><time>2022-09-17T10:47:03Z</time></trkpt><trkpt lat="50.172540" lon="5.492858"><ele>371.671</ele><time>2022-09-17T10:47:04Z</time></trkpt><trkpt lat="50.172492" lon="5.493102"><ele>371.578</ele><time>2022-09-17T10:47:05Z</time></trkpt><trkpt lat="50.172448" lon="5.493326"><ele>371.434</ele><time>2022-09-17T10:47:06Z</time></trkpt><trkpt lat="50.172398" lon="5.493536"><ele>371.555</ele><time>2022-09-17T10:47:07Z</time></trkpt><trkpt lat="50.172359" lon="5.493739"><ele>371.610</ele><time>2022-09-17T10:47:08Z</time></trkpt><trkpt lat="50.172311" lon="5.493934"><ele>371.609</ele><time>2022-09-17T10:47:09Z</time></trkpt><trkpt lat="50.172280" lon="5.494156"><ele>371.754</ele><time>2022-09-17T10:47:10Z</time></trkpt><trkpt lat="50.172254" lon="5.494376"><ele>371.984</ele><time>2022-09-17T10:47:11Z</time></trkpt><trkpt lat="50.172231" lon="5.494625"><ele>372.096</ele><time>2022-09-17T10:47:12Z</time></trkpt><trkpt lat="50.172234" lon="5.494880"><ele>372.022</ele><time>2022-09-17T10:47:13Z</time></trkpt><trkpt lat="50.172243" lon="5.495133"><ele>372.077</ele><time>2022-09-17T10:47:14Z</time></trkpt><trkpt lat="50.172270" lon="5.495391"><ele>372.162</ele><time>2022-09-17T10:47:15Z</time></trkpt><trkpt lat="50.172306" lon="5.495633"><ele>372.317</ele><time>2022-09-17T10:47:16Z</time></trkpt><trkpt lat="50.172359" lon="5.495867"><ele>372.681</ele><time>2022-09-17T10:47:17Z</time></trkpt><trkpt lat="50.172423" lon="5.496093"><ele>373.018</ele><time>2022-09-17T10:47:18Z</time></trkpt><trkpt lat="50.172514" lon="5.496306"><ele>373.645</ele><time>2022-09-17T10:47:19Z</time></trkpt><trkpt lat="50.172603" lon="5.496516"><ele>374.447</ele><time>2022-09-17T10:47:20Z</time></trkpt><trkpt lat="50.172688" lon="5.496735"><ele>375.311</ele><time>2022-09-17T10:47:21Z</time></trkpt><trkpt lat="50.172768" lon="5.496967"><ele>376.209</ele><time>2022-09-17T10:47:22Z</time></trkpt><trkpt lat="50.172841" lon="5.497203"><ele>377.055</ele><time>2022-09-17T10:47:23Z</time></trkpt><trkpt lat="50.172910" lon="5.497442"><ele>377.765</ele><time>2022-09-17T10:47:24Z</time></trkpt><trkpt lat="50.172978" lon="5.497685"><ele>378.337</ele><time>2022-09-17T10:47:25Z</time></trkpt><trkpt lat="50.173025" lon="5.497929"><ele>378.763</ele><time>2022-09-17T10:47:26Z</time></trkpt><trkpt lat="50.173070" lon="5.498165"><ele>379.118</ele><time>2022-09-17T10:47:27Z</time></trkpt><trkpt lat="50.173118" lon="5.498395"><ele>379.453</ele><time>2022-09-17T10:47:28Z</time></trkpt><trkpt lat="50.173164" lon="5.498621"><ele>379.688</ele><time>2022-09-17T10:47:29Z</time></trkpt><trkpt lat="50.173210" lon="5.498846"><ele>379.722</ele><time>2022-09-17T10:47:30Z</time></trkpt><trkpt lat="50.173252" lon="5.499070"><ele>379.939</ele><time>2022-09-17T10:47:31Z</time></trkpt><trkpt lat="50.173298" lon="5.499307"><ele>380.399</ele><time>2022-09-17T10:47:32Z</time></trkpt><trkpt lat="50.173344" lon="5.499526"><ele>380.807</ele><time>2022-09-17T10:47:33Z</time></trkpt><trkpt lat="50.173383" lon="5.499717"><ele>381.227</ele><time>2022-09-17T10:47:34Z</time></trkpt><trkpt lat="50.173422" lon="5.499895"><ele>381.409</ele><time>2022-09-17T10:47:35Z</time></trkpt><trkpt lat="50.173452" lon="5.500073"><ele>382.180</ele><time>2022-09-17T10:47:36Z</time></trkpt><trkpt lat="50.173450" lon="5.500246"><ele>382.550</ele><time>2022-09-17T10:47:37Z</time></trkpt><trkpt lat="50.173416" lon="5.500391"><ele>383.082</ele><time>2022-09-17T10:47:38Z</time></trkpt><trkpt lat="50.173355" lon="5.500528"><ele>383.568</ele><time>2022-09-17T10:47:39Z</time></trkpt><trkpt lat="50.173279" lon="5.500627"><ele>384.193</ele><time>2022-09-17T10:47:40Z</time></trkpt><trkpt lat="50.173204" lon="5.500682"><ele>384.828</ele><time>2022-09-17T10:47:41Z</time></trkpt><trkpt lat="50.173123" lon="5.500716"><ele>385.213</ele><time>2022-09-17T10:47:42Z</time></trkpt><trkpt lat="50.173052" lon="5.500734"><ele>385.857</ele><time>2022-09-17T10:47:43Z</time></trkpt><trkpt lat="50.173005" lon="5.500744"><ele>386.414</ele><time>2022-09-17T10:47:44Z</time></trkpt><trkpt lat="50.172943" lon="5.500840"><ele>387.032</ele><time>2022-09-17T10:47:46Z</time></trkpt><trkpt lat="50.172968" lon="5.500953"><ele>387.692</ele><time>2022-09-17T10:47:48Z</time></trkpt><trkpt lat="50.173002" lon="5.501009"><ele>388.011</ele><time>2022-09-17T10:47:49Z</time></trkpt><trkpt lat="50.173055" lon="5.501098"><ele>388.509</ele><time>2022-09-17T10:47:50Z</time></trkpt><trkpt lat="50.173130" lon="5.501200"><ele>388.624</ele><time>2022-09-17T10:47:51Z</time></trkpt><trkpt lat="50.173205" lon="5.501301"><ele>388.714</ele><time>2022-09-17T10:47:52Z</time></trkpt><trkpt lat="50.173298" lon="5.501431"><ele>388.886</ele><time>2022-09-17T10:47:53Z</time></trkpt><trkpt lat="50.173384" lon="5.501553"><ele>389.082</ele><time>2022-09-17T10:47:54Z</time></trkpt><trkpt lat="50.173463" lon="5.501696"><ele>389.197</ele><time>2022-09-17T10:47:55Z</time></trkpt><trkpt lat="50.173525" lon="5.501838"><ele>389.152</ele><time>2022-09-17T10:47:56Z</time></trkpt><trkpt lat="50.173570" lon="5.501985"><ele>389.217</ele><time>2022-09-17T10:47:57Z</time></trkpt><trkpt lat="50.173612" lon="5.502141"><ele>389.221</ele><time>2022-09-17T10:47:58Z</time></trkpt><trkpt lat="50.173641" lon="5.502310"><ele>389.228</ele><time>2022-09-17T10:47:59Z</time></trkpt><trkpt lat="50.173656" lon="5.502476"><ele>389.247</ele><time>2022-09-17T10:48:00Z</time></trkpt><trkpt lat="50.173656" lon="5.502640"><ele>389.329</ele><time>2022-09-17T10:48:01Z</time></trkpt><trkpt lat="50.173640" lon="5.502803"><ele>389.421</ele><time>2022-09-17T10:48:02Z</time></trkpt><trkpt lat="50.173610" lon="5.502966"><ele>389.509</ele><time>2022-09-17T10:48:03Z</time></trkpt><trkpt lat="50.173577" lon="5.503122"><ele>389.545</ele><time>2022-09-17T10:48:04Z</time></trkpt><trkpt lat="50.173559" lon="5.503279"><ele>389.315</ele><time>2022-09-17T10:48:05Z</time></trkpt><trkpt lat="50.173559" lon="5.503441"><ele>389.097</ele><time>2022-09-17T10:48:06Z</time></trkpt><trkpt lat="50.173572" lon="5.503577"><ele>388.543</ele><time>2022-09-17T10:48:07Z</time></trkpt><trkpt lat="50.173595" lon="5.503707"><ele>387.738</ele><time>2022-09-17T10:48:08Z</time></trkpt><trkpt lat="50.173615" lon="5.503832"><ele>387.373</ele><time>2022-09-17T10:48:09Z</time></trkpt><trkpt lat="50.173633" lon="5.503967"><ele>386.728</ele><time>2022-09-17T10:48:10Z</time></trkpt><trkpt lat="50.173653" lon="5.504105"><ele>386.222</ele><time>2022-09-17T10:48:11Z</time></trkpt><trkpt lat="50.173674" lon="5.504254"><ele>385.689</ele><time>2022-09-17T10:48:12Z</time></trkpt><trkpt lat="50.173672" lon="5.504413"><ele>385.555</ele><time>2022-09-17T10:48:13Z</time></trkpt><trkpt lat="50.173698" lon="5.504568"><ele>385.407</ele><time>2022-09-17T10:48:14Z</time></trkpt><trkpt lat="50.173737" lon="5.504710"><ele>385.217</ele><time>2022-09-17T10:48:15Z</time></trkpt><trkpt lat="50.173741" lon="5.504875"><ele>385.109</ele><time>2022-09-17T10:48:16Z</time></trkpt><trkpt lat="50.173751" lon="5.505047"><ele>384.926</ele><time>2022-09-17T10:48:17Z</time></trkpt><trkpt lat="50.173789" lon="5.505198"><ele>384.886</ele><time>2022-09-17T10:48:18Z</time></trkpt><trkpt lat="50.173813" lon="5.505367"><ele>384.788</ele><time>2022-09-17T10:48:19Z</time></trkpt><trkpt lat="50.173830" lon="5.505545"><ele>384.544</ele><time>2022-09-17T10:48:20Z</time></trkpt><trkpt lat="50.173875" lon="5.505721"><ele>384.339</ele><time>2022-09-17T10:48:21Z</time></trkpt><trkpt lat="50.173924" lon="5.505906"><ele>384.164</ele><time>2022-09-17T10:48:22Z</time></trkpt><trkpt lat="50.173973" lon="5.506100"><ele>383.879</ele><time>2022-09-17T10:48:23Z</time></trkpt><trkpt lat="50.174030" lon="5.506298"><ele>383.693</ele><time>2022-09-17T10:48:24Z</time></trkpt><trkpt lat="50.174096" lon="5.506489"><ele>383.450</ele><time>2022-09-17T10:48:25Z</time></trkpt><trkpt lat="50.174163" lon="5.506688"><ele>383.119</ele><time>2022-09-17T10:48:26Z</time></trkpt><trkpt lat="50.174229" lon="5.506884"><ele>382.909</ele><time>2022-09-17T10:48:27Z</time></trkpt><trkpt lat="50.174294" lon="5.507070"><ele>382.719</ele><time>2022-09-17T10:48:28Z</time></trkpt><trkpt lat="50.174358" lon="5.507245"><ele>382.509</ele><time>2022-09-17T10:48:29Z</time></trkpt><trkpt lat="50.174420" lon="5.507406"><ele>382.342</ele><time>2022-09-17T10:48:30Z</time></trkpt><trkpt lat="50.174473" lon="5.507558"><ele>382.352</ele><time>2022-09-17T10:48:31Z</time></trkpt><trkpt lat="50.174525" lon="5.507705"><ele>382.294</ele><time>2022-09-17T10:48:32Z</time></trkpt><trkpt lat="50.174581" lon="5.507851"><ele>381.890</ele><time>2022-09-17T10:48:33Z</time></trkpt><trkpt lat="50.174615" lon="5.508026"><ele>381.515</ele><time>2022-09-17T10:48:34Z</time></trkpt><trkpt lat="50.174627" lon="5.508191"><ele>381.370</ele><time>2022-09-17T10:48:35Z</time></trkpt><trkpt lat="50.174664" lon="5.508360"><ele>381.155</ele><time>2022-09-17T10:48:36Z</time></trkpt><trkpt lat="50.174703" lon="5.508523"><ele>380.939</ele><time>2022-09-17T10:48:37Z</time></trkpt><trkpt lat="50.174744" lon="5.508673"><ele>380.466</ele><time>2022-09-17T10:48:38Z</time></trkpt><trkpt lat="50.175210" lon="5.508666"><ele>380.282</ele><time>2022-09-17T10:48:39Z</time></trkpt><trkpt lat="50.175337" lon="5.508797"><ele>380.043</ele><time>2022-09-17T10:48:40Z</time></trkpt><trkpt lat="50.175473" lon="5.508949"><ele>379.817</ele><time>2022-09-17T10:48:41Z</time></trkpt><trkpt lat="50.175607" lon="5.509101"><ele>380.109</ele><time>2022-09-17T10:48:42Z</time></trkpt><trkpt lat="50.175748" lon="5.509267"><ele>380.429</ele><time>2022-09-17T10:48:43Z</time></trkpt><trkpt lat="50.175878" lon="5.509429"><ele>380.439</ele><time>2022-09-17T10:48:44Z</time></trkpt><trkpt lat="50.175999" lon="5.509585"><ele>380.481</ele><time>2022-09-17T10:48:45Z</time></trkpt><trkpt lat="50.176109" lon="5.509748"><ele>380.237</ele><time>2022-09-17T10:48:46Z</time></trkpt><trkpt lat="50.176215" lon="5.509926"><ele>379.922</ele><time>2022-09-17T10:48:47Z</time></trkpt><trkpt lat="50.176323" lon="5.510110"><ele>379.827</ele><time>2022-09-17T10:48:48Z</time></trkpt><trkpt lat="50.176434" lon="5.510297"><ele>379.972</ele><time>2022-09-17T10:48:49Z</time></trkpt><trkpt lat="50.176544" lon="5.510482"><ele>380.536</ele><time>2022-09-17T10:48:50Z</time></trkpt><trkpt lat="50.176660" lon="5.510662"><ele>381.363</ele><time>2022-09-17T10:48:51Z</time></trkpt><trkpt lat="50.176779" lon="5.510831"><ele>381.664</ele><time>2022-09-17T10:48:52Z</time></trkpt><trkpt lat="50.176893" lon="5.511007"><ele>381.706</ele><time>2022-09-17T10:48:53Z</time></trkpt><trkpt lat="50.177001" lon="5.511186"><ele>381.716</ele><time>2022-09-17T10:48:54Z</time></trkpt><trkpt lat="50.177104" lon="5.511392"><ele>381.509</ele><time>2022-09-17T10:48:55Z</time></trkpt><trkpt lat="50.177192" lon="5.511606"><ele>381.297</ele><time>2022-09-17T10:48:56Z</time></trkpt><trkpt lat="50.177292" lon="5.511812"><ele>380.937</ele><time>2022-09-17T10:48:57Z</time></trkpt><trkpt lat="50.177397" lon="5.512021"><ele>380.479</ele><time>2022-09-17T10:48:58Z</time></trkpt><trkpt lat="50.177504" lon="5.512230"><ele>379.845</ele><time>2022-09-17T10:48:59Z</time></trkpt><trkpt lat="50.177607" lon="5.512433"><ele>379.210</ele><time>2022-09-17T10:49:00Z</time></trkpt><trkpt lat="50.177711" lon="5.512622"><ele>378.175</ele><time>2022-09-17T10:49:01Z</time></trkpt><trkpt lat="50.177826" lon="5.512798"><ele>377.090</ele><time>2022-09-17T10:49:02Z</time></trkpt><trkpt lat="50.177954" lon="5.512968"><ele>376.584</ele><time>2022-09-17T10:49:03Z</time></trkpt><trkpt lat="50.178080" lon="5.513121"><ele>376.111</ele><time>2022-09-17T10:49:04Z</time></trkpt><trkpt lat="50.178197" lon="5.513282"><ele>375.832</ele><time>2022-09-17T10:49:05Z</time></trkpt><trkpt lat="50.178300" lon="5.513440"><ele>375.792</ele><time>2022-09-17T10:49:06Z</time></trkpt><trkpt lat="50.178392" lon="5.513602"><ele>375.611</ele><time>2022-09-17T10:49:07Z</time></trkpt><trkpt lat="50.178468" lon="5.513773"><ele>375.209</ele><time>2022-09-17T10:49:08Z</time></trkpt><trkpt lat="50.178532" lon="5.513943"><ele>374.894</ele><time>2022-09-17T10:49:09Z</time></trkpt><trkpt lat="50.178588" lon="5.514102"><ele>374.524</ele><time>2022-09-17T10:49:10Z</time></trkpt><trkpt lat="50.178647" lon="5.514245"><ele>374.436</ele><time>2022-09-17T10:49:11Z</time></trkpt><trkpt lat="50.178700" lon="5.514393"><ele>374.062</ele><time>2022-09-17T10:49:12Z</time></trkpt><trkpt lat="50.178744" lon="5.514548"><ele>373.977</ele><time>2022-09-17T10:49:13Z</time></trkpt><trkpt lat="50.178801" lon="5.514689"><ele>373.852</ele><time>2022-09-17T10:49:14Z</time></trkpt><trkpt lat="50.178848" lon="5.514815"><ele>373.757</ele><time>2022-09-17T10:49:15Z</time></trkpt><trkpt lat="50.178898" lon="5.514939"><ele>373.571</ele><time>2022-09-17T10:49:16Z</time></trkpt><trkpt lat="50.178940" lon="5.515074"><ele>373.548</ele><time>2022-09-17T10:49:17Z</time></trkpt><trkpt lat="50.178988" lon="5.515216"><ele>373.997</ele><time>2022-09-17T10:49:18Z</time></trkpt><trkpt lat="50.179037" lon="5.515363"><ele>374.723</ele><time>2022-09-17T10:49:19Z</time></trkpt><trkpt lat="50.179083" lon="5.515521"><ele>375.325</ele><time>2022-09-17T10:49:20Z</time></trkpt><trkpt lat="50.179110" lon="5.515695"><ele>375.509</ele><time>2022-09-17T10:49:21Z</time></trkpt><trkpt lat="50.179116" lon="5.515882"><ele>375.620</ele><time>2022-09-17T10:49:22Z</time></trkpt><trkpt lat="50.179107" lon="5.516072"><ele>375.670</ele><time>2022-09-17T10:49:23Z</time></trkpt><trkpt lat="50.179072" lon="5.516271"><ele>375.432</ele><time>2022-09-17T10:49:24Z</time></trkpt><trkpt lat="50.179025" lon="5.516482"><ele>375.468</ele><time>2022-09-17T10:49:25Z</time></trkpt><trkpt lat="50.178983" lon="5.516703"><ele>375.443</ele><time>2022-09-17T10:49:26Z</time></trkpt><trkpt lat="50.178951" lon="5.516951"><ele>375.578</ele><time>2022-09-17T10:49:27Z</time></trkpt><trkpt lat="50.178931" lon="5.517192"><ele>375.793</ele><time>2022-09-17T10:49:28Z</time></trkpt><trkpt lat="50.178912" lon="5.517419"><ele>375.987</ele><time>2022-09-17T10:49:29Z</time></trkpt><trkpt lat="50.178894" lon="5.517641"><ele>375.984</ele><time>2022-09-17T10:49:30Z</time></trkpt><trkpt lat="50.178853" lon="5.517874"><ele>376.027</ele><time>2022-09-17T10:49:31Z</time></trkpt><trkpt lat="50.178807" lon="5.518105"><ele>376.168</ele><time>2022-09-17T10:49:32Z</time></trkpt><trkpt lat="50.178739" lon="5.518346"><ele>375.814</ele><time>2022-09-17T10:49:33Z</time></trkpt><trkpt lat="50.178678" lon="5.518571"><ele>375.409</ele><time>2022-09-17T10:49:34Z</time></trkpt><trkpt lat="50.178631" lon="5.518798"><ele>374.933</ele><time>2022-09-17T10:49:35Z</time></trkpt><trkpt lat="50.178594" lon="5.519019"><ele>374.253</ele><time>2022-09-17T10:49:36Z</time></trkpt><trkpt lat="50.178544" lon="5.519232"><ele>373.745</ele><time>2022-09-17T10:49:37Z</time></trkpt><trkpt lat="50.178478" lon="5.519439"><ele>373.291</ele><time>2022-09-17T10:49:38Z</time></trkpt><trkpt lat="50.178388" lon="5.519633"><ele>372.686</ele><time>2022-09-17T10:49:39Z</time></trkpt><trkpt lat="50.178272" lon="5.519809"><ele>372.211</ele><time>2022-09-17T10:49:40Z</time></trkpt><trkpt lat="50.178137" lon="5.519955"><ele>372.266</ele><time>2022-09-17T10:49:41Z</time></trkpt><trkpt lat="50.177996" lon="5.520082"><ele>372.180</ele><time>2022-09-17T10:49:42Z</time></trkpt><trkpt lat="50.177867" lon="5.520198"><ele>371.847</ele><time>2022-09-17T10:49:43Z</time></trkpt><trkpt lat="50.177737" lon="5.520278"><ele>371.521</ele><time>2022-09-17T10:49:44Z</time></trkpt><trkpt lat="50.177612" lon="5.520366"><ele>371.241</ele><time>2022-09-17T10:49:45Z</time></trkpt><trkpt lat="50.177481" lon="5.520517"><ele>370.705</ele><time>2022-09-17T10:49:46Z</time></trkpt><trkpt lat="50.177360" lon="5.520659"><ele>370.209</ele><time>2022-09-17T10:49:47Z</time></trkpt><trkpt lat="50.177248" lon="5.520777"><ele>369.953</ele><time>2022-09-17T10:49:48Z</time></trkpt><trkpt lat="50.177148" lon="5.520880"><ele>369.723</ele><time>2022-09-17T10:49:49Z</time></trkpt><trkpt lat="50.177048" lon="5.520961"><ele>369.575</ele><time>2022-09-17T10:49:50Z</time></trkpt><trkpt lat="50.176953" lon="5.521032"><ele>369.111</ele><time>2022-09-17T10:49:51Z</time></trkpt><trkpt lat="50.176867" lon="5.521099"><ele>368.946</ele><time>2022-09-17T10:49:52Z</time></trkpt><trkpt lat="50.176789" lon="5.521167"><ele>368.481</ele><time>2022-09-17T10:49:53Z</time></trkpt><trkpt lat="50.176717" lon="5.521239"><ele>368.026</ele><time>2022-09-17T10:49:54Z</time></trkpt><trkpt lat="50.176652" lon="5.521318"><ele>367.890</ele><time>2022-09-17T10:49:55Z</time></trkpt><trkpt lat="50.176592" lon="5.521405"><ele>367.427</ele><time>2022-09-17T10:49:56Z</time></trkpt><trkpt lat="50.176530" lon="5.521491"><ele>366.862</ele><time>2022-09-17T10:49:57Z</time></trkpt><trkpt lat="50.176468" lon="5.521585"><ele>366.183</ele><time>2022-09-17T10:49:58Z</time></trkpt><trkpt lat="50.176410" lon="5.521672"><ele>365.211</ele><time>2022-09-17T10:49:59Z</time></trkpt><trkpt lat="50.176352" lon="5.521755"><ele>364.309</ele><time>2022-09-17T10:50:00Z</time></trkpt><trkpt lat="50.176299" lon="5.521834"><ele>363.337</ele><time>2022-09-17T10:50:01Z</time></trkpt><trkpt lat="50.176255" lon="5.521918"><ele>362.357</ele><time>2022-09-17T10:50:02Z</time></trkpt><trkpt lat="50.176220" lon="5.521978"><ele>361.379</ele><time>2022-09-17T10:50:03Z</time></trkpt><trkpt lat="50.176184" lon="5.522031"><ele>360.985</ele><time>2022-09-17T10:50:04Z</time></trkpt><trkpt lat="50.176142" lon="5.522066"><ele>360.020</ele><time>2022-09-17T10:50:05Z</time></trkpt><trkpt lat="50.176069" lon="5.522081"><ele>359.215</ele><time>2022-09-17T10:50:07Z</time></trkpt><trkpt lat="50.175992" lon="5.522068"><ele>358.430</ele><time>2022-09-17T10:50:09Z</time></trkpt><trkpt lat="50.175899" lon="5.522071"><ele>356.774</ele><time>2022-09-17T10:50:11Z</time></trkpt><trkpt lat="50.175836" lon="5.522082"><ele>356.031</ele><time>2022-09-17T10:50:12Z</time></trkpt><trkpt lat="50.175758" lon="5.522095"><ele>355.646</ele><time>2022-09-17T10:50:13Z</time></trkpt><trkpt lat="50.175673" lon="5.522113"><ele>355.388</ele><time>2022-09-17T10:50:14Z</time></trkpt><trkpt lat="50.175593" lon="5.522133"><ele>354.916</ele><time>2022-09-17T10:50:15Z</time></trkpt><trkpt lat="50.175519" lon="5.522185"><ele>354.409</ele><time>2022-09-17T10:50:16Z</time></trkpt><trkpt lat="50.175449" lon="5.522240"><ele>353.875</ele><time>2022-09-17T10:50:17Z</time></trkpt><trkpt lat="50.175391" lon="5.522389"><ele>352.845</ele><time>2022-09-17T10:50:18Z</time></trkpt><trkpt lat="50.175368" lon="5.522490"><ele>352.477</ele><time>2022-09-17T10:50:19Z</time></trkpt><trkpt lat="50.175339" lon="5.522546"><ele>351.753</ele><time>2022-09-17T10:50:20Z</time></trkpt><trkpt lat="50.175315" lon="5.522605"><ele>351.128</ele><time>2022-09-17T10:50:21Z</time></trkpt><trkpt lat="50.175281" lon="5.522671"><ele>350.873</ele><time>2022-09-17T10:50:24Z</time></trkpt><trkpt lat="50.175231" lon="5.522801"><ele>350.338</ele><time>2022-09-17T10:50:26Z</time></trkpt><trkpt lat="50.175207" lon="5.522867"><ele>349.362</ele><time>2022-09-17T10:50:27Z</time></trkpt><trkpt lat="50.175251" lon="5.522830"><ele>348.759</ele><time>2022-09-17T10:50:31Z</time></trkpt><trkpt lat="50.175271" lon="5.522764"><ele>348.436</ele><time>2022-09-17T10:50:32Z</time></trkpt><trkpt lat="50.175278" lon="5.522667"><ele>347.317</ele><time>2022-09-17T10:50:33Z</time></trkpt><trkpt lat="50.175303" lon="5.522560"><ele>347.318</ele><time>2022-09-17T10:50:34Z</time></trkpt><trkpt lat="50.175353" lon="5.522459"><ele>347.309</ele><time>2022-09-17T10:50:35Z</time></trkpt><trkpt lat="50.175421" lon="5.522371"><ele>347.484</ele><time>2022-09-17T10:50:36Z</time></trkpt><trkpt lat="50.175487" lon="5.522270"><ele>347.634</ele><time>2022-09-17T10:50:37Z</time></trkpt><trkpt lat="50.175552" lon="5.522215"><ele>348.076</ele><time>2022-09-17T10:50:38Z</time></trkpt><trkpt lat="50.175606" lon="5.522194"><ele>348.592</ele><time>2022-09-17T10:50:39Z</time></trkpt><trkpt lat="50.175660" lon="5.522136"><ele>349.157</ele><time>2022-09-17T10:50:41Z</time></trkpt><trkpt lat="50.175634" lon="5.522061"><ele>349.572</ele><time>2022-09-17T10:50:43Z</time></trkpt><trkpt lat="50.175589" lon="5.522030"><ele>350.717</ele><time>2022-09-17T10:50:49Z</time></trkpt><trkpt lat="50.175498" lon="5.522050"><ele>351.641</ele><time>2022-09-17T10:50:51Z</time></trkpt><trkpt lat="50.175374" lon="5.522070"><ele>352.458</ele><time>2022-09-17T10:50:52Z</time></trkpt><trkpt lat="50.175241" lon="5.522091"><ele>352.611</ele><time>2022-09-17T10:50:53Z</time></trkpt><trkpt lat="50.175106" lon="5.522054"><ele>352.821</ele><time>2022-09-17T10:50:54Z</time></trkpt><trkpt lat="50.174935" lon="5.522021"><ele>352.803</ele><time>2022-09-17T10:50:55Z</time></trkpt><trkpt lat="50.174765" lon="5.521967"><ele>352.709</ele><time>2022-09-17T10:50:56Z</time></trkpt><trkpt lat="50.174554" lon="5.521973"><ele>352.382</ele><time>2022-09-17T10:50:57Z</time></trkpt><trkpt lat="50.174393" lon="5.521977"><ele>351.492</ele><time>2022-09-17T10:50:58Z</time></trkpt><trkpt lat="50.174279" lon="5.521925"><ele>350.554</ele><time>2022-09-17T10:50:59Z</time></trkpt><trkpt lat="50.174145" lon="5.521912"><ele>350.230</ele><time>2022-09-17T10:51:00Z</time></trkpt><trkpt lat="50.173992" lon="5.521901"><ele>349.365</ele><time>2022-09-17T10:51:01Z</time></trkpt><trkpt lat="50.173863" lon="5.521897"><ele>348.940</ele><time>2022-09-17T10:51:02Z</time></trkpt><trkpt lat="50.173737" lon="5.521856"><ele>348.975</ele><time>2022-09-17T10:51:03Z</time></trkpt><trkpt lat="50.173612" lon="5.521802"><ele>349.279</ele><time>2022-09-17T10:51:04Z</time></trkpt><trkpt lat="50.173489" lon="5.521730"><ele>349.276</ele><time>2022-09-17T10:51:05Z</time></trkpt><trkpt lat="50.173379" lon="5.521639"><ele>349.261</ele><time>2022-09-17T10:51:06Z</time></trkpt><trkpt lat="50.173284" lon="5.521522"><ele>349.221</ele><time>2022-09-17T10:51:07Z</time></trkpt><trkpt lat="50.173218" lon="5.521434"><ele>349.113</ele><time>2022-09-17T10:51:08Z</time></trkpt><trkpt lat="50.173152" lon="5.521324"><ele>349.109</ele><time>2022-09-17T10:51:09Z</time></trkpt><trkpt lat="50.173087" lon="5.521205"><ele>349.187</ele><time>2022-09-17T10:51:10Z</time></trkpt><trkpt lat="50.173031" lon="5.521088"><ele>349.137</ele><time>2022-09-17T10:51:11Z</time></trkpt><trkpt lat="50.172973" lon="5.520968"><ele>349.149</ele><time>2022-09-17T10:51:12Z</time></trkpt><trkpt lat="50.172913" lon="5.520852"><ele>349.555</ele><time>2022-09-17T10:51:13Z</time></trkpt><trkpt lat="50.172849" lon="5.520724"><ele>349.680</ele><time>2022-09-17T10:51:14Z</time></trkpt><trkpt lat="50.172801" lon="5.520598"><ele>349.735</ele><time>2022-09-17T10:51:15Z</time></trkpt><trkpt lat="50.172752" lon="5.520468"><ele>350.350</ele><time>2022-09-17T10:51:16Z</time></trkpt><trkpt lat="50.172703" lon="5.520316"><ele>350.364</ele><time>2022-09-17T10:51:17Z</time></trkpt><trkpt lat="50.172652" lon="5.520176"><ele>350.311</ele><time>2022-09-17T10:51:18Z</time></trkpt><trkpt lat="50.172598" lon="5.520022"><ele>350.255</ele><time>2022-09-17T10:51:19Z</time></trkpt><trkpt lat="50.172549" lon="5.519874"><ele>349.807</ele><time>2022-09-17T10:51:20Z</time></trkpt><trkpt lat="50.172491" lon="5.519705"><ele>348.917</ele><time>2022-09-17T10:51:21Z</time></trkpt><trkpt lat="50.172429" lon="5.519524"><ele>348.009</ele><time>2022-09-17T10:51:22Z</time></trkpt><trkpt lat="50.172354" lon="5.519355"><ele>347.256</ele><time>2022-09-17T10:51:23Z</time></trkpt><trkpt lat="50.172267" lon="5.519181"><ele>345.616</ele><time>2022-09-17T10:51:24Z</time></trkpt><trkpt lat="50.172176" lon="5.519030"><ele>344.678</ele><time>2022-09-17T10:51:25Z</time></trkpt><trkpt lat="50.172090" lon="5.518876"><ele>344.084</ele><time>2022-09-17T10:51:26Z</time></trkpt><trkpt lat="50.172010" lon="5.518725"><ele>342.949</ele><time>2022-09-17T10:51:27Z</time></trkpt><trkpt lat="50.171943" lon="5.518570"><ele>341.544</ele><time>2022-09-17T10:51:28Z</time></trkpt><trkpt lat="50.171896" lon="5.518414"><ele>340.319</ele><time>2022-09-17T10:51:29Z</time></trkpt><trkpt lat="50.171846" lon="5.518258"><ele>338.983</ele><time>2022-09-17T10:51:30Z</time></trkpt><trkpt lat="50.171784" lon="5.518099"><ele>337.990</ele><time>2022-09-17T10:51:31Z</time></trkpt><trkpt lat="50.171720" lon="5.517969"><ele>337.326</ele><time>2022-09-17T10:51:32Z</time></trkpt><trkpt lat="50.171646" lon="5.517846"><ele>336.747</ele><time>2022-09-17T10:51:33Z</time></trkpt><trkpt lat="50.171581" lon="5.517734"><ele>336.111</ele><time>2022-09-17T10:51:34Z</time></trkpt><trkpt lat="50.171505" lon="5.517623"><ele>335.609</ele><time>2022-09-17T10:51:35Z</time></trkpt><trkpt lat="50.171438" lon="5.517538"><ele>334.923</ele><time>2022-09-17T10:51:36Z</time></trkpt><trkpt lat="50.171372" lon="5.517433"><ele>334.143</ele><time>2022-09-17T10:51:37Z</time></trkpt><trkpt lat="50.171322" lon="5.517348"><ele>333.695</ele><time>2022-09-17T10:51:38Z</time></trkpt><trkpt lat="50.171271" lon="5.517232"><ele>332.651</ele><time>2022-09-17T10:51:39Z</time></trkpt><trkpt lat="50.171219" lon="5.517131"><ele>331.466</ele><time>2022-09-17T10:51:40Z</time></trkpt><trkpt lat="50.171164" lon="5.517040"><ele>330.111</ele><time>2022-09-17T10:51:41Z</time></trkpt><trkpt lat="50.171095" lon="5.516986"><ele>328.846</ele><time>2022-09-17T10:51:42Z</time></trkpt><trkpt lat="50.171042" lon="5.516973"><ele>327.590</ele><time>2022-09-17T10:51:43Z</time></trkpt><trkpt lat="50.170972" lon="5.517045"><ele>326.457</ele><time>2022-09-17T10:51:45Z</time></trkpt><trkpt lat="50.170949" lon="5.517115"><ele>325.894</ele><time>2022-09-17T10:51:46Z</time></trkpt><trkpt lat="50.170935" lon="5.517188"><ele>324.157</ele><time>2022-09-17T10:51:47Z</time></trkpt><trkpt lat="50.170924" lon="5.517345"><ele>323.122</ele><time>2022-09-17T10:51:49Z</time></trkpt><trkpt lat="50.170928" lon="5.517435"><ele>322.809</ele><time>2022-09-17T10:51:50Z</time></trkpt><trkpt lat="50.170938" lon="5.517524"><ele>321.410</ele><time>2022-09-17T10:51:51Z</time></trkpt><trkpt lat="50.170947" lon="5.517625"><ele>320.370</ele><time>2022-09-17T10:51:52Z</time></trkpt><trkpt lat="50.170936" lon="5.517696"><ele>320.092</ele><time>2022-09-17T10:51:53Z</time></trkpt><trkpt lat="50.170890" lon="5.517737"><ele>319.228</ele><time>2022-09-17T10:51:54Z</time></trkpt><trkpt lat="50.170840" lon="5.517764"><ele>318.563</ele><time>2022-09-17T10:51:55Z</time></trkpt><trkpt lat="50.170786" lon="5.517731"><ele>317.788</ele><time>2022-09-17T10:51:56Z</time></trkpt><trkpt lat="50.170749" lon="5.517606"><ele>317.033</ele><time>2022-09-17T10:51:57Z</time></trkpt><trkpt lat="50.170700" lon="5.517531"><ele>316.297</ele><time>2022-09-17T10:51:58Z</time></trkpt><trkpt lat="50.170636" lon="5.517457"><ele>314.914</ele><time>2022-09-17T10:51:59Z</time></trkpt><trkpt lat="50.170549" lon="5.517373"><ele>314.028</ele><time>2022-09-17T10:52:00Z</time></trkpt><trkpt lat="50.170467" lon="5.517284"><ele>312.589</ele><time>2022-09-17T10:52:01Z</time></trkpt><trkpt lat="50.170419" lon="5.517198"><ele>311.417</ele><time>2022-09-17T10:52:02Z</time></trkpt><trkpt lat="50.170378" lon="5.517104"><ele>310.909</ele><time>2022-09-17T10:52:03Z</time></trkpt><trkpt lat="50.170350" lon="5.516993"><ele>309.873</ele><time>2022-09-17T10:52:04Z</time></trkpt><trkpt lat="50.170334" lon="5.516891"><ele>308.743</ele><time>2022-09-17T10:52:05Z</time></trkpt><trkpt lat="50.170319" lon="5.516786"><ele>307.735</ele><time>2022-09-17T10:52:06Z</time></trkpt><trkpt lat="50.170340" lon="5.516669"><ele>306.761</ele><time>2022-09-17T10:52:07Z</time></trkpt><trkpt lat="50.170356" lon="5.516556"><ele>305.786</ele><time>2022-09-17T10:52:08Z</time></trkpt><trkpt lat="50.170378" lon="5.516449"><ele>304.771</ele><time>2022-09-17T10:52:09Z</time></trkpt><trkpt lat="50.170398" lon="5.516346"><ele>303.866</ele><time>2022-09-17T10:52:10Z</time></trkpt><trkpt lat="50.170411" lon="5.516244"><ele>303.050</ele><time>2022-09-17T10:52:11Z</time></trkpt><trkpt lat="50.170442" lon="5.516143"><ele>302.367</ele><time>2022-09-17T10:52:12Z</time></trkpt><trkpt lat="50.170467" lon="5.516057"><ele>302.052</ele><time>2022-09-17T10:52:13Z</time></trkpt><trkpt lat="50.170506" lon="5.515974"><ele>301.353</ele><time>2022-09-17T10:52:14Z</time></trkpt><trkpt lat="50.170533" lon="5.515913"><ele>300.708</ele><time>2022-09-17T10:52:15Z</time></trkpt><trkpt lat="50.170576" lon="5.515827"><ele>300.109</ele><time>2022-09-17T10:52:16Z</time></trkpt><trkpt lat="50.170627" lon="5.515756"><ele>299.546</ele><time>2022-09-17T10:52:17Z</time></trkpt><trkpt lat="50.170684" lon="5.515684"><ele>298.826</ele><time>2022-09-17T10:52:18Z</time></trkpt><trkpt lat="50.170735" lon="5.515639"><ele>298.058</ele><time>2022-09-17T10:52:19Z</time></trkpt><trkpt lat="50.170808" lon="5.515602"><ele>297.584</ele><time>2022-09-17T10:52:20Z</time></trkpt><trkpt lat="50.170865" lon="5.515603"><ele>297.219</ele><time>2022-09-17T10:52:21Z</time></trkpt><trkpt lat="50.170948" lon="5.515605"><ele>296.614</ele><time>2022-09-17T10:52:22Z</time></trkpt><trkpt lat="50.171020" lon="5.515606"><ele>296.179</ele><time>2022-09-17T10:52:23Z</time></trkpt><trkpt lat="50.171087" lon="5.515620"><ele>295.583</ele><time>2022-09-17T10:52:24Z</time></trkpt><trkpt lat="50.171105" lon="5.515534"><ele>295.010</ele><time>2022-09-17T10:52:26Z</time></trkpt><trkpt lat="50.171056" lon="5.515430"><ele>294.195</ele><time>2022-09-17T10:52:27Z</time></trkpt><trkpt lat="50.171007" lon="5.515330"><ele>293.249</ele><time>2022-09-17T10:52:28Z</time></trkpt><trkpt lat="50.170963" lon="5.515246"><ele>292.623</ele><time>2022-09-17T10:52:29Z</time></trkpt><trkpt lat="50.170929" lon="5.515186"><ele>291.909</ele><time>2022-09-17T10:52:30Z</time></trkpt><trkpt lat="50.170876" lon="5.515155"><ele>291.680</ele><time>2022-09-17T10:52:31Z</time></trkpt><trkpt lat="50.170803" lon="5.515120"><ele>290.950</ele><time>2022-09-17T10:52:32Z</time></trkpt><trkpt lat="50.170729" lon="5.515087"><ele>290.012</ele><time>2022-09-17T10:52:33Z</time></trkpt><trkpt lat="50.170679" lon="5.515068"><ele>288.978</ele><time>2022-09-17T10:52:34Z</time></trkpt><trkpt lat="50.170638" lon="5.515032"><ele>287.973</ele><time>2022-09-17T10:52:35Z</time></trkpt><trkpt lat="50.170555" lon="5.514987"><ele>286.838</ele><time>2022-09-17T10:52:37Z</time></trkpt><trkpt lat="50.170520" lon="5.514918"><ele>285.743</ele><time>2022-09-17T10:52:38Z</time></trkpt><trkpt lat="50.170477" lon="5.514800"><ele>283.667</ele><time>2022-09-17T10:52:40Z</time></trkpt><trkpt lat="50.170440" lon="5.514753"><ele>282.754</ele><time>2022-09-17T10:52:41Z</time></trkpt><trkpt lat="50.170395" lon="5.514706"><ele>282.157</ele><time>2022-09-17T10:52:42Z</time></trkpt><trkpt lat="50.170324" lon="5.514673"><ele>281.600</ele><time>2022-09-17T10:52:43Z</time></trkpt><trkpt lat="50.170265" lon="5.514675"><ele>281.120</ele><time>2022-09-17T10:52:44Z</time></trkpt><trkpt lat="50.170168" lon="5.514730"><ele>280.509</ele><time>2022-09-17T10:52:45Z</time></trkpt><trkpt lat="50.170076" lon="5.514782"><ele>280.326</ele><time>2022-09-17T10:52:46Z</time></trkpt><trkpt lat="50.169991" lon="5.514829"><ele>280.336</ele><time>2022-09-17T10:52:47Z</time></trkpt><trkpt lat="50.169936" lon="5.514902"><ele>280.418</ele><time>2022-09-17T10:52:48Z</time></trkpt><trkpt lat="50.169877" lon="5.514986"><ele>280.744</ele><time>2022-09-17T10:52:49Z</time></trkpt><trkpt lat="50.169831" lon="5.515074"><ele>281.029</ele><time>2022-09-17T10:52:50Z</time></trkpt><trkpt lat="50.169783" lon="5.515183"><ele>281.514</ele><time>2022-09-17T10:52:51Z</time></trkpt><trkpt lat="50.169749" lon="5.515286"><ele>282.049</ele><time>2022-09-17T10:52:52Z</time></trkpt><trkpt lat="50.169716" lon="5.515372"><ele>282.553</ele><time>2022-09-17T10:52:53Z</time></trkpt><trkpt lat="50.169683" lon="5.515460"><ele>283.070</ele><time>2022-09-17T10:52:54Z</time></trkpt><trkpt lat="50.169650" lon="5.515551"><ele>283.642</ele><time>2022-09-17T10:52:55Z</time></trkpt><trkpt lat="50.169611" lon="5.515641"><ele>283.922</ele><time>2022-09-17T10:52:56Z</time></trkpt><trkpt lat="50.169539" lon="5.515727"><ele>284.614</ele><time>2022-09-17T10:52:57Z</time></trkpt><trkpt lat="50.169474" lon="5.515820"><ele>285.109</ele><time>2022-09-17T10:52:58Z</time></trkpt><trkpt lat="50.169411" lon="5.515923"><ele>286.015</ele><time>2022-09-17T10:52:59Z</time></trkpt><trkpt lat="50.169330" lon="5.516031"><ele>286.745</ele><time>2022-09-17T10:53:00Z</time></trkpt><trkpt lat="50.169216" lon="5.516134"><ele>287.637</ele><time>2022-09-17T10:53:01Z</time></trkpt><trkpt lat="50.169122" lon="5.516242"><ele>288.453</ele><time>2022-09-17T10:53:02Z</time></trkpt><trkpt lat="50.169021" lon="5.516359"><ele>289.358</ele><time>2022-09-17T10:53:03Z</time></trkpt><trkpt lat="50.168928" lon="5.516489"><ele>290.183</ele><time>2022-09-17T10:53:04Z</time></trkpt><trkpt lat="50.168844" lon="5.516607"><ele>291.188</ele><time>2022-09-17T10:53:05Z</time></trkpt><trkpt lat="50.168766" lon="5.516714"><ele>291.962</ele><time>2022-09-17T10:53:06Z</time></trkpt><trkpt lat="50.168699" lon="5.516789"><ele>293.149</ele><time>2022-09-17T10:53:07Z</time></trkpt><trkpt lat="50.168626" lon="5.516868"><ele>294.254</ele><time>2022-09-17T10:53:08Z</time></trkpt><trkpt lat="50.168542" lon="5.516946"><ele>295.056</ele><time>2022-09-17T10:53:09Z</time></trkpt><trkpt lat="50.168454" lon="5.517021"><ele>297.311</ele><time>2022-09-17T10:53:10Z</time></trkpt><trkpt lat="50.168359" lon="5.517112"><ele>299.109</ele><time>2022-09-17T10:53:11Z</time></trkpt><trkpt lat="50.168264" lon="5.517153"><ele>300.786</ele><time>2022-09-17T10:53:12Z</time></trkpt><trkpt lat="50.168155" lon="5.517183"><ele>302.496</ele><time>2022-09-17T10:53:13Z</time></trkpt><trkpt lat="50.168074" lon="5.517200"><ele>304.098</ele><time>2022-09-17T10:53:14Z</time></trkpt><trkpt lat="50.167961" lon="5.517247"><ele>305.244</ele><time>2022-09-17T10:53:15Z</time></trkpt><trkpt lat="50.167875" lon="5.517255"><ele>306.519</ele><time>2022-09-17T10:53:16Z</time></trkpt><trkpt lat="50.167782" lon="5.517241"><ele>307.844</ele><time>2022-09-17T10:53:17Z</time></trkpt><trkpt lat="50.167705" lon="5.517233"><ele>308.499</ele><time>2022-09-17T10:53:18Z</time></trkpt><trkpt lat="50.167614" lon="5.517208"><ele>309.673</ele><time>2022-09-17T10:53:19Z</time></trkpt><trkpt lat="50.167565" lon="5.517065"><ele>311.460</ele><time>2022-09-17T10:53:20Z</time></trkpt><trkpt lat="50.167493" lon="5.516993"><ele>312.538</ele><time>2022-09-17T10:53:21Z</time></trkpt><trkpt lat="50.167429" lon="5.516901"><ele>313.570</ele><time>2022-09-17T10:53:22Z</time></trkpt><trkpt lat="50.167363" lon="5.516775"><ele>314.517</ele><time>2022-09-17T10:53:23Z</time></trkpt><trkpt lat="50.167363" lon="5.516547"><ele>315.509</ele><time>2022-09-17T10:53:24Z</time></trkpt><trkpt lat="50.167350" lon="5.516333"><ele>317.084</ele><time>2022-09-17T10:53:25Z</time></trkpt><trkpt lat="50.167312" lon="5.516159"><ele>317.674</ele><time>2022-09-17T10:53:26Z</time></trkpt><trkpt lat="50.167272" lon="5.515992"><ele>318.926</ele><time>2022-09-17T10:53:27Z</time></trkpt><trkpt lat="50.167216" lon="5.515830"><ele>320.162</ele><time>2022-09-17T10:53:28Z</time></trkpt><trkpt lat="50.167155" lon="5.515662"><ele>321.437</ele><time>2022-09-17T10:53:29Z</time></trkpt><trkpt lat="50.167098" lon="5.515506"><ele>322.892</ele><time>2022-09-17T10:53:30Z</time></trkpt><trkpt lat="50.167012" lon="5.515335"><ele>324.057</ele><time>2022-09-17T10:53:31Z</time></trkpt><trkpt lat="50.166934" lon="5.515171"><ele>325.561</ele><time>2022-09-17T10:53:32Z</time></trkpt><trkpt lat="50.166853" lon="5.514989"><ele>326.398</ele><time>2022-09-17T10:53:33Z</time></trkpt><trkpt lat="50.166788" lon="5.514815"><ele>327.167</ele><time>2022-09-17T10:53:34Z</time></trkpt><trkpt lat="50.166715" lon="5.514634"><ele>327.581</ele><time>2022-09-17T10:53:35Z</time></trkpt><trkpt lat="50.166627" lon="5.514466"><ele>328.819</ele><time>2022-09-17T10:53:36Z</time></trkpt><trkpt lat="50.166539" lon="5.514301"><ele>329.809</ele><time>2022-09-17T10:53:37Z</time></trkpt><trkpt lat="50.166449" lon="5.514150"><ele>331.147</ele><time>2022-09-17T10:53:38Z</time></trkpt><trkpt lat="50.166354" lon="5.513988"><ele>332.557</ele><time>2022-09-17T10:53:39Z</time></trkpt><trkpt lat="50.166260" lon="5.513827"><ele>333.679</ele><time>2022-09-17T10:53:40Z</time></trkpt><trkpt lat="50.166167" lon="5.513663"><ele>334.655</ele><time>2022-09-17T10:53:41Z</time></trkpt><trkpt lat="50.166077" lon="5.513485"><ele>335.810</ele><time>2022-09-17T10:53:42Z</time></trkpt><trkpt lat="50.165984" lon="5.513317"><ele>336.935</ele><time>2022-09-17T10:53:43Z</time></trkpt><trkpt lat="50.165893" lon="5.513153"><ele>337.740</ele><time>2022-09-17T10:53:44Z</time></trkpt><trkpt lat="50.165809" lon="5.512967"><ele>338.544</ele><time>2022-09-17T10:53:45Z</time></trkpt><trkpt lat="50.165734" lon="5.512797"><ele>339.331</ele><time>2022-09-17T10:53:46Z</time></trkpt><trkpt lat="50.165669" lon="5.512659"><ele>339.685</ele><time>2022-09-17T10:53:47Z</time></trkpt><trkpt lat="50.165588" lon="5.512529"><ele>340.089</ele><time>2022-09-17T10:53:48Z</time></trkpt><trkpt lat="50.165487" lon="5.512417"><ele>340.617</ele><time>2022-09-17T10:53:49Z</time></trkpt><trkpt lat="50.165372" lon="5.512343"><ele>341.109</ele><time>2022-09-17T10:53:50Z</time></trkpt><trkpt lat="50.165246" lon="5.512304"><ele>341.939</ele><time>2022-09-17T10:53:51Z</time></trkpt><trkpt lat="50.165109" lon="5.512303"><ele>342.839</ele><time>2022-09-17T10:53:52Z</time></trkpt><trkpt lat="50.164969" lon="5.512346"><ele>344.351</ele><time>2022-09-17T10:53:53Z</time></trkpt><trkpt lat="50.164827" lon="5.512391"><ele>345.147</ele><time>2022-09-17T10:53:54Z</time></trkpt><trkpt lat="50.164695" lon="5.512429"><ele>345.982</ele><time>2022-09-17T10:53:55Z</time></trkpt><trkpt lat="50.164567" lon="5.512488"><ele>346.217</ele><time>2022-09-17T10:53:56Z</time></trkpt><trkpt lat="50.164453" lon="5.512593"><ele>346.812</ele><time>2022-09-17T10:53:57Z</time></trkpt><trkpt lat="50.164333" lon="5.512739"><ele>347.936</ele><time>2022-09-17T10:53:58Z</time></trkpt><trkpt lat="50.164196" lon="5.512895"><ele>348.653</ele><time>2022-09-17T10:53:59Z</time></trkpt><trkpt lat="50.164038" lon="5.513051"><ele>349.384</ele><time>2022-09-17T10:54:00Z</time></trkpt><trkpt lat="50.163875" lon="5.513199"><ele>350.307</ele><time>2022-09-17T10:54:01Z</time></trkpt><trkpt lat="50.163739" lon="5.513319"><ele>351.017</ele><time>2022-09-17T10:54:02Z</time></trkpt><trkpt lat="50.163625" lon="5.513408"><ele>351.409</ele><time>2022-09-17T10:54:03Z</time></trkpt><trkpt lat="50.163504" lon="5.513493"><ele>351.689</ele><time>2022-09-17T10:54:04Z</time></trkpt><trkpt lat="50.163379" lon="5.513573"><ele>352.019</ele><time>2022-09-17T10:54:05Z</time></trkpt><trkpt lat="50.163238" lon="5.513661"><ele>352.171</ele><time>2022-09-17T10:54:06Z</time></trkpt><trkpt lat="50.163094" lon="5.513745"><ele>352.177</ele><time>2022-09-17T10:54:07Z</time></trkpt><trkpt lat="50.162945" lon="5.513816"><ele>352.162</ele><time>2022-09-17T10:54:08Z</time></trkpt><trkpt lat="50.162798" lon="5.513887"><ele>352.117</ele><time>2022-09-17T10:54:09Z</time></trkpt><trkpt lat="50.162651" lon="5.513951"><ele>352.142</ele><time>2022-09-17T10:54:10Z</time></trkpt><trkpt lat="50.162491" lon="5.513994"><ele>352.376</ele><time>2022-09-17T10:54:11Z</time></trkpt><trkpt lat="50.162330" lon="5.514021"><ele>352.533</ele><time>2022-09-17T10:54:12Z</time></trkpt><trkpt lat="50.162158" lon="5.514040"><ele>352.551</ele><time>2022-09-17T10:54:13Z</time></trkpt><trkpt lat="50.161992" lon="5.514069"><ele>352.501</ele><time>2022-09-17T10:54:14Z</time></trkpt><trkpt lat="50.161826" lon="5.514097"><ele>352.311</ele><time>2022-09-17T10:54:15Z</time></trkpt><trkpt lat="50.161660" lon="5.514130"><ele>351.809</ele><time>2022-09-17T10:54:16Z</time></trkpt><trkpt lat="50.161490" lon="5.514150"><ele>351.536</ele><time>2022-09-17T10:54:17Z</time></trkpt><trkpt lat="50.161314" lon="5.514174"><ele>351.516</ele><time>2022-09-17T10:54:18Z</time></trkpt><trkpt lat="50.161146" lon="5.514194"><ele>351.558</ele><time>2022-09-17T10:54:19Z</time></trkpt><trkpt lat="50.160983" lon="5.514207"><ele>351.454</ele><time>2022-09-17T10:54:20Z</time></trkpt><trkpt lat="50.160807" lon="5.514207"><ele>351.159</ele><time>2022-09-17T10:54:21Z</time></trkpt><trkpt lat="50.160629" lon="5.514204"><ele>350.844</ele><time>2022-09-17T10:54:22Z</time></trkpt><trkpt lat="50.160466" lon="5.514198"><ele>350.549</ele><time>2022-09-17T10:54:23Z</time></trkpt><trkpt lat="50.160309" lon="5.514210"><ele>350.433</ele><time>2022-09-17T10:54:24Z</time></trkpt><trkpt lat="50.160167" lon="5.514210"><ele>350.720</ele><time>2022-09-17T10:54:25Z</time></trkpt><trkpt lat="50.160017" lon="5.514224"><ele>351.281</ele><time>2022-09-17T10:54:26Z</time></trkpt><trkpt lat="50.159874" lon="5.514252"><ele>351.661</ele><time>2022-09-17T10:54:27Z</time></trkpt><trkpt lat="50.159731" lon="5.514275"><ele>351.717</ele><time>2022-09-17T10:54:28Z</time></trkpt><trkpt lat="50.159584" lon="5.514289"><ele>351.909</ele><time>2022-09-17T10:54:29Z</time></trkpt><trkpt lat="50.159437" lon="5.514292"><ele>352.289</ele><time>2022-09-17T10:54:30Z</time></trkpt><trkpt lat="50.159297" lon="5.514271"><ele>352.449</ele><time>2022-09-17T10:54:31Z</time></trkpt><trkpt lat="50.159157" lon="5.514223"><ele>352.641</ele><time>2022-09-17T10:54:32Z</time></trkpt><trkpt lat="50.159029" lon="5.514166"><ele>352.837</ele><time>2022-09-17T10:54:33Z</time></trkpt><trkpt lat="50.158902" lon="5.514107"><ele>352.942</ele><time>2022-09-17T10:54:34Z</time></trkpt><trkpt lat="50.158773" lon="5.514044"><ele>352.977</ele><time>2022-09-17T10:54:35Z</time></trkpt><trkpt lat="50.158650" lon="5.513980"><ele>352.852</ele><time>2022-09-17T10:54:36Z</time></trkpt><trkpt lat="50.158523" lon="5.513897"><ele>352.886</ele><time>2022-09-17T10:54:37Z</time></trkpt><trkpt lat="50.158390" lon="5.513794"><ele>352.553</ele><time>2022-09-17T10:54:38Z</time></trkpt><trkpt lat="50.158255" lon="5.513683"><ele>352.368</ele><time>2022-09-17T10:54:39Z</time></trkpt><trkpt lat="50.158129" lon="5.513562"><ele>352.242</ele><time>2022-09-17T10:54:40Z</time></trkpt><trkpt lat="50.158010" lon="5.513423"><ele>352.026</ele><time>2022-09-17T10:54:41Z</time></trkpt><trkpt lat="50.157896" lon="5.513268"><ele>351.909</ele><time>2022-09-17T10:54:42Z</time></trkpt><trkpt lat="50.157791" lon="5.513116"><ele>351.937</ele><time>2022-09-17T10:54:43Z</time></trkpt><trkpt lat="50.157677" lon="5.512974"><ele>351.717</ele><time>2022-09-17T10:54:44Z</time></trkpt><trkpt lat="50.157554" lon="5.512870"><ele>351.549</ele><time>2022-09-17T10:54:45Z</time></trkpt><trkpt lat="50.157425" lon="5.512772"><ele>351.475</ele><time>2022-09-17T10:54:46Z</time></trkpt><trkpt lat="50.157296" lon="5.512695"><ele>351.320</ele><time>2022-09-17T10:54:47Z</time></trkpt><trkpt lat="50.157166" lon="5.512617"><ele>351.315</ele><time>2022-09-17T10:54:48Z</time></trkpt><trkpt lat="50.157037" lon="5.512556"><ele>351.350</ele><time>2022-09-17T10:54:49Z</time></trkpt><trkpt lat="50.156904" lon="5.512504"><ele>351.474</ele><time>2022-09-17T10:54:50Z</time></trkpt><trkpt lat="50.156776" lon="5.512418"><ele>351.611</ele><time>2022-09-17T10:54:51Z</time></trkpt><trkpt lat="50.156660" lon="5.512339"><ele>351.734</ele><time>2022-09-17T10:54:52Z</time></trkpt><trkpt lat="50.156547" lon="5.512245"><ele>352.055</ele><time>2022-09-17T10:54:53Z</time></trkpt><trkpt lat="50.156453" lon="5.512159"><ele>352.210</ele><time>2022-09-17T10:54:54Z</time></trkpt><trkpt lat="50.156374" lon="5.512083"><ele>352.409</ele><time>2022-09-17T10:54:55Z</time></trkpt><trkpt lat="50.156306" lon="5.512009"><ele>352.434</ele><time>2022-09-17T10:54:56Z</time></trkpt><trkpt lat="50.156247" lon="5.511941"><ele>352.514</ele><time>2022-09-17T10:54:57Z</time></trkpt><trkpt lat="50.156196" lon="5.511887"><ele>352.766</ele><time>2022-09-17T10:54:58Z</time></trkpt><trkpt lat="50.156120" lon="5.511830"><ele>352.942</ele><time>2022-09-17T10:55:00Z</time></trkpt><trkpt lat="50.156070" lon="5.511826"><ele>353.077</ele><time>2022-09-17T10:55:01Z</time></trkpt><trkpt lat="50.156003" lon="5.511860"><ele>353.742</ele><time>2022-09-17T10:55:02Z</time></trkpt><trkpt lat="50.155918" lon="5.511955"><ele>354.257</ele><time>2022-09-17T10:55:03Z</time></trkpt><trkpt lat="50.155813" lon="5.512047"><ele>354.641</ele><time>2022-09-17T10:55:04Z</time></trkpt><trkpt lat="50.155709" lon="5.512138"><ele>355.018</ele><time>2022-09-17T10:55:05Z</time></trkpt><trkpt lat="50.155604" lon="5.512235"><ele>355.437</ele><time>2022-09-17T10:55:06Z</time></trkpt><trkpt lat="50.155484" lon="5.512325"><ele>356.049</ele><time>2022-09-17T10:55:07Z</time></trkpt><trkpt lat="50.155369" lon="5.512412"><ele>356.713</ele><time>2022-09-17T10:55:08Z</time></trkpt><trkpt lat="50.155252" lon="5.512484"><ele>357.609</ele><time>2022-09-17T10:55:09Z</time></trkpt><trkpt lat="50.155128" lon="5.512558"><ele>359.664</ele><time>2022-09-17T10:55:10Z</time></trkpt><trkpt lat="50.155011" lon="5.512636"><ele>359.684</ele><time>2022-09-17T10:55:11Z</time></trkpt><trkpt lat="50.154888" lon="5.512704"><ele>361.546</ele><time>2022-09-17T10:55:12Z</time></trkpt><trkpt lat="50.154765" lon="5.512772"><ele>362.222</ele><time>2022-09-17T10:55:13Z</time></trkpt><trkpt lat="50.154637" lon="5.512843"><ele>362.227</ele><time>2022-09-17T10:55:14Z</time></trkpt><trkpt lat="50.154509" lon="5.512914"><ele>364.252</ele><time>2022-09-17T10:55:15Z</time></trkpt><trkpt lat="50.154374" lon="5.512997"><ele>365.327</ele><time>2022-09-17T10:55:16Z</time></trkpt><trkpt lat="50.154242" lon="5.513078"><ele>366.471</ele><time>2022-09-17T10:55:17Z</time></trkpt><trkpt lat="50.154109" lon="5.513158"><ele>367.028</ele><time>2022-09-17T10:55:18Z</time></trkpt><trkpt lat="50.153976" lon="5.513235"><ele>368.199</ele><time>2022-09-17T10:55:19Z</time></trkpt><trkpt lat="50.153847" lon="5.513309"><ele>369.007</ele><time>2022-09-17T10:55:20Z</time></trkpt><trkpt lat="50.153707" lon="5.513392"><ele>369.727</ele><time>2022-09-17T10:55:21Z</time></trkpt><trkpt lat="50.153580" lon="5.513459"><ele>370.109</ele><time>2022-09-17T10:55:22Z</time></trkpt><trkpt lat="50.153460" lon="5.513529"><ele>370.230</ele><time>2022-09-17T10:55:23Z</time></trkpt><trkpt lat="50.153334" lon="5.513602"><ele>370.240</ele><time>2022-09-17T10:55:24Z</time></trkpt><trkpt lat="50.153220" lon="5.513685"><ele>370.252</ele><time>2022-09-17T10:55:25Z</time></trkpt><trkpt lat="50.153117" lon="5.513790"><ele>370.058</ele><time>2022-09-17T10:55:26Z</time></trkpt><trkpt lat="50.153020" lon="5.513928"><ele>369.853</ele><time>2022-09-17T10:55:27Z</time></trkpt><trkpt lat="50.152942" lon="5.514078"><ele>369.498</ele><time>2022-09-17T10:55:28Z</time></trkpt><trkpt lat="50.152874" lon="5.514247"><ele>368.973</ele><time>2022-09-17T10:55:29Z</time></trkpt><trkpt lat="50.152826" lon="5.514434"><ele>368.667</ele><time>2022-09-17T10:55:30Z</time></trkpt><trkpt lat="50.152779" lon="5.514621"><ele>368.684</ele><time>2022-09-17T10:55:31Z</time></trkpt><trkpt lat="50.152736" lon="5.514807"><ele>368.748</ele><time>2022-09-17T10:55:32Z</time></trkpt><trkpt lat="50.152683" lon="5.514984"><ele>369.161</ele><time>2022-09-17T10:55:33Z</time></trkpt><trkpt lat="50.152641" lon="5.515131"><ele>369.817</ele><time>2022-09-17T10:55:34Z</time></trkpt><trkpt lat="50.152596" lon="5.515261"><ele>370.709</ele><time>2022-09-17T10:55:35Z</time></trkpt><trkpt lat="50.152550" lon="5.515377"><ele>371.715</ele><time>2022-09-17T10:55:36Z</time></trkpt><trkpt lat="50.152509" lon="5.515471"><ele>372.115</ele><time>2022-09-17T10:55:37Z</time></trkpt><trkpt lat="50.152473" lon="5.515523"><ele>373.087</ele><time>2022-09-17T10:55:38Z</time></trkpt><trkpt lat="50.152390" lon="5.515526"><ele>373.933</ele><time>2022-09-17T10:55:40Z</time></trkpt><trkpt lat="50.152333" lon="5.515442"><ele>374.898</ele><time>2022-09-17T10:55:41Z</time></trkpt><trkpt lat="50.152266" lon="5.515375"><ele>375.563</ele><time>2022-09-17T10:55:42Z</time></trkpt><trkpt lat="50.152180" lon="5.515279"><ele>375.948</ele><time>2022-09-17T10:55:43Z</time></trkpt><trkpt lat="50.152091" lon="5.515185"><ele>376.462</ele><time>2022-09-17T10:55:44Z</time></trkpt><trkpt lat="50.152029" lon="5.515070"><ele>376.979</ele><time>2022-09-17T10:55:45Z</time></trkpt><trkpt lat="50.151995" lon="5.514953"><ele>377.695</ele><time>2022-09-17T10:55:46Z</time></trkpt><trkpt lat="50.151981" lon="5.514823"><ele>378.049</ele><time>2022-09-17T10:55:47Z</time></trkpt><trkpt lat="50.151956" lon="5.514747"><ele>378.923</ele><time>2022-09-17T10:55:48Z</time></trkpt><trkpt lat="50.151916" lon="5.514703"><ele>379.809</ele><time>2022-09-17T10:55:49Z</time></trkpt><trkpt lat="50.151860" lon="5.514670"><ele>380.320</ele><time>2022-09-17T10:55:50Z</time></trkpt><trkpt lat="50.151793" lon="5.514624"><ele>381.120</ele><time>2022-09-17T10:55:51Z</time></trkpt><trkpt lat="50.151722" lon="5.514567"><ele>381.922</ele><time>2022-09-17T10:55:52Z</time></trkpt><trkpt lat="50.151646" lon="5.514518"><ele>382.728</ele><time>2022-09-17T10:55:53Z</time></trkpt><trkpt lat="50.151556" lon="5.514490"><ele>383.223</ele><time>2022-09-17T10:55:54Z</time></trkpt><trkpt lat="50.151472" lon="5.514462"><ele>383.758</ele><time>2022-09-17T10:55:55Z</time></trkpt><trkpt lat="50.151395" lon="5.514436"><ele>384.273</ele><time>2022-09-17T10:55:56Z</time></trkpt><trkpt lat="50.151328" lon="5.514392"><ele>384.647</ele><time>2022-09-17T10:55:57Z</time></trkpt><trkpt lat="50.151283" lon="5.514316"><ele>385.024</ele><time>2022-09-17T10:55:58Z</time></trkpt><trkpt lat="50.151254" lon="5.514215"><ele>385.465</ele><time>2022-09-17T10:55:59Z</time></trkpt><trkpt lat="50.151240" lon="5.514092"><ele>385.968</ele><time>2022-09-17T10:56:00Z</time></trkpt><trkpt lat="50.151228" lon="5.513964"><ele>386.514</ele><time>2022-09-17T10:56:01Z</time></trkpt><trkpt lat="50.151206" lon="5.513821"><ele>387.109</ele><time>2022-09-17T10:56:02Z</time></trkpt><trkpt lat="50.151180" lon="5.513692"><ele>387.877</ele><time>2022-09-17T10:56:03Z</time></trkpt><trkpt lat="50.151150" lon="5.513558"><ele>388.547</ele><time>2022-09-17T10:56:04Z</time></trkpt><trkpt lat="50.151115" lon="5.513421"><ele>388.539</ele><time>2022-09-17T10:56:05Z</time></trkpt><trkpt lat="50.151072" lon="5.513284"><ele>388.445</ele><time>2022-09-17T10:56:06Z</time></trkpt><trkpt lat="50.151029" lon="5.513158"><ele>388.380</ele><time>2022-09-17T10:56:07Z</time></trkpt><trkpt lat="50.150980" lon="5.513037"><ele>388.315</ele><time>2022-09-17T10:56:08Z</time></trkpt><trkpt lat="50.150931" lon="5.512925"><ele>388.390</ele><time>2022-09-17T10:56:09Z</time></trkpt><trkpt lat="50.150882" lon="5.512832"><ele>388.324</ele><time>2022-09-17T10:56:10Z</time></trkpt><trkpt lat="50.150834" lon="5.512755"><ele>388.581</ele><time>2022-09-17T10:56:11Z</time></trkpt><trkpt lat="50.150786" lon="5.512706"><ele>388.794</ele><time>2022-09-17T10:56:12Z</time></trkpt><trkpt lat="50.150745" lon="5.512663"><ele>388.757</ele><time>2022-09-17T10:56:13Z</time></trkpt><trkpt lat="50.150670" lon="5.512631"><ele>388.922</ele><time>2022-09-17T10:56:15Z</time></trkpt><trkpt lat="50.150647" lon="5.512769"><ele>389.509</ele><time>2022-09-17T10:56:27Z</time></trkpt><trkpt lat="50.150650" lon="5.512887"><ele>391.790</ele><time>2022-09-17T10:56:28Z</time></trkpt><trkpt lat="50.150648" lon="5.513061"><ele>393.520</ele><time>2022-09-17T10:56:29Z</time></trkpt><trkpt lat="50.150645" lon="5.513234"><ele>393.532</ele><time>2022-09-17T10:56:30Z</time></trkpt><trkpt lat="50.150620" lon="5.513436"><ele>393.628</ele><time>2022-09-17T10:56:31Z</time></trkpt><trkpt lat="50.150573" lon="5.513613"><ele>393.613</ele><time>2022-09-17T10:56:32Z</time></trkpt><trkpt lat="50.150516" lon="5.513749"><ele>393.878</ele><time>2022-09-17T10:56:33Z</time></trkpt><trkpt lat="50.150441" lon="5.513853"><ele>394.043</ele><time>2022-09-17T10:56:34Z</time></trkpt><trkpt lat="50.150360" lon="5.513938"><ele>394.397</ele><time>2022-09-17T10:56:35Z</time></trkpt><trkpt lat="50.150272" lon="5.514013"><ele>394.454</ele><time>2022-09-17T10:56:36Z</time></trkpt><trkpt lat="50.150179" lon="5.514084"><ele>394.841</ele><time>2022-09-17T10:56:37Z</time></trkpt><trkpt lat="50.150089" lon="5.514154"><ele>395.181</ele><time>2022-09-17T10:56:38Z</time></trkpt><trkpt lat="50.150005" lon="5.514249"><ele>395.509</ele><time>2022-09-17T10:56:39Z</time></trkpt><trkpt lat="50.149921" lon="5.514364"><ele>396.109</ele><time>2022-09-17T10:56:40Z</time></trkpt><trkpt lat="50.149848" lon="5.514504"><ele>396.625</ele><time>2022-09-17T10:56:41Z</time></trkpt><trkpt lat="50.149766" lon="5.514644"><ele>397.265</ele><time>2022-09-17T10:56:42Z</time></trkpt><trkpt lat="50.149683" lon="5.514780"><ele>397.587</ele><time>2022-09-17T10:56:43Z</time></trkpt><trkpt lat="50.149600" lon="5.514915"><ele>398.183</ele><time>2022-09-17T10:56:44Z</time></trkpt><trkpt lat="50.149530" lon="5.515032"><ele>398.538</ele><time>2022-09-17T10:56:45Z</time></trkpt><trkpt lat="50.149466" lon="5.515129"><ele>398.923</ele><time>2022-09-17T10:56:46Z</time></trkpt><trkpt lat="50.149400" lon="5.515187"><ele>399.148</ele><time>2022-09-17T10:56:47Z</time></trkpt><trkpt lat="50.149338" lon="5.515209"><ele>399.512</ele><time>2022-09-17T10:56:48Z</time></trkpt><trkpt lat="50.149275" lon="5.515191"><ele>399.999</ele><time>2022-09-17T10:56:49Z</time></trkpt><trkpt lat="50.149197" lon="5.515134"><ele>400.391</ele><time>2022-09-17T10:56:50Z</time></trkpt><trkpt lat="50.149115" lon="5.515048"><ele>400.681</ele><time>2022-09-17T10:56:51Z</time></trkpt><trkpt lat="50.149028" lon="5.514936"><ele>400.919</ele><time>2022-09-17T10:56:52Z</time></trkpt><trkpt lat="50.148930" lon="5.514804"><ele>401.209</ele><time>2022-09-17T10:56:53Z</time></trkpt><trkpt lat="50.148823" lon="5.514648"><ele>401.270</ele><time>2022-09-17T10:56:54Z</time></trkpt><trkpt lat="50.148726" lon="5.514513"><ele>401.320</ele><time>2022-09-17T10:56:55Z</time></trkpt><trkpt lat="50.148628" lon="5.514362"><ele>401.472</ele><time>2022-09-17T10:56:56Z</time></trkpt><trkpt lat="50.148529" lon="5.514214"><ele>401.718</ele><time>2022-09-17T10:56:57Z</time></trkpt><trkpt lat="50.148480" lon="5.513975"><ele>401.963</ele><time>2022-09-17T10:56:58Z</time></trkpt><trkpt lat="50.148387" lon="5.513824"><ele>402.388</ele><time>2022-09-17T10:56:59Z</time></trkpt><trkpt lat="50.148291" lon="5.513665"><ele>402.733</ele><time>2022-09-17T10:57:00Z</time></trkpt><trkpt lat="50.148191" lon="5.513501"><ele>403.057</ele><time>2022-09-17T10:57:01Z</time></trkpt><trkpt lat="50.148089" lon="5.513334"><ele>403.454</ele><time>2022-09-17T10:57:02Z</time></trkpt><trkpt lat="50.147987" lon="5.513167"><ele>404.095</ele><time>2022-09-17T10:57:03Z</time></trkpt><trkpt lat="50.147887" lon="5.513003"><ele>404.649</ele><time>2022-09-17T10:57:04Z</time></trkpt><trkpt lat="50.147780" lon="5.512827"><ele>405.123</ele><time>2022-09-17T10:57:05Z</time></trkpt><trkpt lat="50.147664" lon="5.512635"><ele>405.609</ele><time>2022-09-17T10:57:06Z</time></trkpt><trkpt lat="50.147555" lon="5.512456"><ele>406.060</ele><time>2022-09-17T10:57:07Z</time></trkpt><trkpt lat="50.147463" lon="5.512274"><ele>406.370</ele><time>2022-09-17T10:57:08Z</time></trkpt><trkpt lat="50.147366" lon="5.512076"><ele>406.422</ele><time>2022-09-17T10:57:09Z</time></trkpt><trkpt lat="50.147276" lon="5.511890"><ele>406.518</ele><time>2022-09-17T10:57:10Z</time></trkpt><trkpt lat="50.147199" lon="5.511710"><ele>406.833</ele><time>2022-09-17T10:57:11Z</time></trkpt><trkpt lat="50.147115" lon="5.511538"><ele>407.068</ele><time>2022-09-17T10:57:12Z</time></trkpt><trkpt lat="50.147042" lon="5.511345"><ele>407.133</ele><time>2022-09-17T10:57:13Z</time></trkpt><trkpt lat="50.146969" lon="5.511153"><ele>407.457</ele><time>2022-09-17T10:57:14Z</time></trkpt><trkpt lat="50.146897" lon="5.510966"><ele>407.694</ele><time>2022-09-17T10:57:15Z</time></trkpt><trkpt lat="50.146823" lon="5.510777"><ele>407.642</ele><time>2022-09-17T10:57:16Z</time></trkpt><trkpt lat="50.146750" lon="5.510586"><ele>407.722</ele><time>2022-09-17T10:57:17Z</time></trkpt><trkpt lat="50.146677" lon="5.510393"><ele>407.814</ele><time>2022-09-17T10:57:18Z</time></trkpt><trkpt lat="50.146599" lon="5.510195"><ele>407.809</ele><time>2022-09-17T10:57:19Z</time></trkpt><trkpt lat="50.146524" lon="5.510001"><ele>407.965</ele><time>2022-09-17T10:57:20Z</time></trkpt><trkpt lat="50.146449" lon="5.509815"><ele>408.185</ele><time>2022-09-17T10:57:21Z</time></trkpt><trkpt lat="50.146362" lon="5.509626"><ele>408.287</ele><time>2022-09-17T10:57:22Z</time></trkpt><trkpt lat="50.146289" lon="5.509413"><ele>408.293</ele><time>2022-09-17T10:57:23Z</time></trkpt><trkpt lat="50.146203" lon="5.509194"><ele>408.378</ele><time>2022-09-17T10:57:24Z</time></trkpt><trkpt lat="50.146116" lon="5.508976"><ele>408.433</ele><time>2022-09-17T10:57:25Z</time></trkpt><trkpt lat="50.146024" lon="5.508745"><ele>408.498</ele><time>2022-09-17T10:57:26Z</time></trkpt><trkpt lat="50.145932" lon="5.508514"><ele>408.472</ele><time>2022-09-17T10:57:27Z</time></trkpt><trkpt lat="50.145842" lon="5.508290"><ele>408.489</ele><time>2022-09-17T10:57:28Z</time></trkpt><trkpt lat="50.145750" lon="5.508063"><ele>408.393</ele><time>2022-09-17T10:57:29Z</time></trkpt><trkpt lat="50.145662" lon="5.507841"><ele>408.065</ele><time>2022-09-17T10:57:30Z</time></trkpt><trkpt lat="50.145575" lon="5.507622"><ele>407.821</ele><time>2022-09-17T10:57:31Z</time></trkpt><trkpt lat="50.145490" lon="5.507407"><ele>407.609</ele><time>2022-09-17T10:57:32Z</time></trkpt><trkpt lat="50.145402" lon="5.507184"><ele>407.520</ele><time>2022-09-17T10:57:33Z</time></trkpt><trkpt lat="50.145313" lon="5.506961"><ele>407.580</ele><time>2022-09-17T10:57:34Z</time></trkpt><trkpt lat="50.145222" lon="5.506735"><ele>407.462</ele><time>2022-09-17T10:57:35Z</time></trkpt><trkpt lat="50.145130" lon="5.506510"><ele>407.348</ele><time>2022-09-17T10:57:36Z</time></trkpt><trkpt lat="50.145034" lon="5.506275"><ele>407.363</ele><time>2022-09-17T10:57:37Z</time></trkpt><trkpt lat="50.144927" lon="5.506055"><ele>407.388</ele><time>2022-09-17T10:57:38Z</time></trkpt><trkpt lat="50.144836" lon="5.505825"><ele>407.383</ele><time>2022-09-17T10:57:39Z</time></trkpt><trkpt lat="50.144745" lon="5.505597"><ele>407.327</ele><time>2022-09-17T10:57:40Z</time></trkpt><trkpt lat="50.144669" lon="5.505356"><ele>407.294</ele><time>2022-09-17T10:57:41Z</time></trkpt><trkpt lat="50.144593" lon="5.505105"><ele>407.038</ele><time>2022-09-17T10:57:42Z</time></trkpt><trkpt lat="50.144501" lon="5.504876"><ele>406.770</ele><time>2022-09-17T10:57:43Z</time></trkpt><trkpt lat="50.144414" lon="5.504660"><ele>406.317</ele><time>2022-09-17T10:57:44Z</time></trkpt><trkpt lat="50.144328" lon="5.504441"><ele>406.009</ele><time>2022-09-17T10:57:45Z</time></trkpt><trkpt lat="50.144238" lon="5.504216"><ele>405.964</ele><time>2022-09-17T10:57:46Z</time></trkpt><trkpt lat="50.144147" lon="5.503997"><ele>405.964</ele><time>2022-09-17T10:57:47Z</time></trkpt><trkpt lat="50.144057" lon="5.503777"><ele>406.026</ele><time>2022-09-17T10:57:48Z</time></trkpt><trkpt lat="50.143963" lon="5.503558"><ele>406.232</ele><time>2022-09-17T10:57:49Z</time></trkpt><trkpt lat="50.143860" lon="5.503350"><ele>406.447</ele><time>2022-09-17T10:57:50Z</time></trkpt><trkpt lat="50.143745" lon="5.503161"><ele>406.682</ele><time>2022-09-17T10:57:51Z</time></trkpt><trkpt lat="50.143621" lon="5.502987"><ele>406.887</ele><time>2022-09-17T10:57:52Z</time></trkpt><trkpt lat="50.143488" lon="5.502823"><ele>407.281</ele><time>2022-09-17T10:57:53Z</time></trkpt><trkpt lat="50.143349" lon="5.502672"><ele>407.728</ele><time>2022-09-17T10:57:54Z</time></trkpt><trkpt lat="50.143206" lon="5.502532"><ele>408.263</ele><time>2022-09-17T10:57:55Z</time></trkpt><trkpt lat="50.143058" lon="5.502407"><ele>408.944</ele><time>2022-09-17T10:57:56Z</time></trkpt><trkpt lat="50.142904" lon="5.502307"><ele>409.718</ele><time>2022-09-17T10:57:57Z</time></trkpt><trkpt lat="50.142752" lon="5.502223"><ele>410.509</ele><time>2022-09-17T10:57:58Z</time></trkpt><trkpt lat="50.142595" lon="5.502160"><ele>411.497</ele><time>2022-09-17T10:57:59Z</time></trkpt><trkpt lat="50.142437" lon="5.502114"><ele>412.577</ele><time>2022-09-17T10:58:00Z</time></trkpt><trkpt lat="50.142268" lon="5.502089"><ele>413.689</ele><time>2022-09-17T10:58:01Z</time></trkpt><trkpt lat="50.142097" lon="5.502061"><ele>414.835</ele><time>2022-09-17T10:58:02Z</time></trkpt><trkpt lat="50.141927" lon="5.502036"><ele>415.970</ele><time>2022-09-17T10:58:03Z</time></trkpt><trkpt lat="50.141755" lon="5.501995"><ele>416.915</ele><time>2022-09-17T10:58:04Z</time></trkpt><trkpt lat="50.141581" lon="5.501945"><ele>418.020</ele><time>2022-09-17T10:58:05Z</time></trkpt><trkpt lat="50.141419" lon="5.501853"><ele>419.324</ele><time>2022-09-17T10:58:06Z</time></trkpt><trkpt lat="50.141252" lon="5.501754"><ele>420.681</ele><time>2022-09-17T10:58:07Z</time></trkpt><trkpt lat="50.141088" lon="5.501630"><ele>421.928</ele><time>2022-09-17T10:58:08Z</time></trkpt><trkpt lat="50.140926" lon="5.501493"><ele>423.389</ele><time>2022-09-17T10:58:09Z</time></trkpt><trkpt lat="50.140777" lon="5.501338"><ele>424.517</ele><time>2022-09-17T10:58:10Z</time></trkpt><trkpt lat="50.140641" lon="5.501154"><ele>425.409</ele><time>2022-09-17T10:58:11Z</time></trkpt><trkpt lat="50.140507" lon="5.500962"><ele>426.283</ele><time>2022-09-17T10:58:12Z</time></trkpt><trkpt lat="50.140374" lon="5.500755"><ele>427.093</ele><time>2022-09-17T10:58:13Z</time></trkpt><trkpt lat="50.140247" lon="5.500545"><ele>427.635</ele><time>2022-09-17T10:58:14Z</time></trkpt><trkpt lat="50.140121" lon="5.500332"><ele>428.211</ele><time>2022-09-17T10:58:15Z</time></trkpt><trkpt lat="50.139995" lon="5.500122"><ele>428.986</ele><time>2022-09-17T10:58:16Z</time></trkpt><trkpt lat="50.139868" lon="5.499915"><ele>429.591</ele><time>2022-09-17T10:58:17Z</time></trkpt><trkpt lat="50.139737" lon="5.499702"><ele>429.966</ele><time>2022-09-17T10:58:18Z</time></trkpt><trkpt lat="50.139605" lon="5.499487"><ele>430.410</ele><time>2022-09-17T10:58:19Z</time></trkpt><trkpt lat="50.139473" lon="5.499271"><ele>430.987</ele><time>2022-09-17T10:58:20Z</time></trkpt><trkpt lat="50.139342" lon="5.499058"><ele>431.326</ele><time>2022-09-17T10:58:21Z</time></trkpt><trkpt lat="50.139210" lon="5.498843"><ele>431.747</ele><time>2022-09-17T10:58:22Z</time></trkpt><trkpt lat="50.139078" lon="5.498628"><ele>432.211</ele><time>2022-09-17T10:58:23Z</time></trkpt><trkpt lat="50.138956" lon="5.498426"><ele>432.609</ele><time>2022-09-17T10:58:24Z</time></trkpt><trkpt lat="50.138829" lon="5.498214"><ele>433.023</ele><time>2022-09-17T10:58:25Z</time></trkpt><trkpt lat="50.138703" lon="5.498005"><ele>433.493</ele><time>2022-09-17T10:58:26Z</time></trkpt><trkpt lat="50.138580" lon="5.497801"><ele>433.835</ele><time>2022-09-17T10:58:27Z</time></trkpt><trkpt lat="50.138463" lon="5.497605"><ele>434.051</ele><time>2022-09-17T10:58:28Z</time></trkpt><trkpt lat="50.138347" lon="5.497412"><ele>434.186</ele><time>2022-09-17T10:58:29Z</time></trkpt><trkpt lat="50.138228" lon="5.497212"><ele>434.211</ele><time>2022-09-17T10:58:30Z</time></trkpt><trkpt lat="50.138114" lon="5.497023"><ele>434.366</ele><time>2022-09-17T10:58:31Z</time></trkpt><trkpt lat="50.137996" lon="5.496826"><ele>434.460</ele><time>2022-09-17T10:58:32Z</time></trkpt><trkpt lat="50.137878" lon="5.496631"><ele>434.687</ele><time>2022-09-17T10:58:33Z</time></trkpt><trkpt lat="50.137761" lon="5.496435"><ele>434.858</ele><time>2022-09-17T10:58:34Z</time></trkpt><trkpt lat="50.137643" lon="5.496239"><ele>435.052</ele><time>2022-09-17T10:58:35Z</time></trkpt><trkpt lat="50.137523" lon="5.496039"><ele>435.217</ele><time>2022-09-17T10:58:36Z</time></trkpt><trkpt lat="50.137404" lon="5.495840"><ele>435.509</ele><time>2022-09-17T10:58:37Z</time></trkpt><trkpt lat="50.137275" lon="5.495655"><ele>435.976</ele><time>2022-09-17T10:58:38Z</time></trkpt><trkpt lat="50.137155" lon="5.495460"><ele>436.596</ele><time>2022-09-17T10:58:39Z</time></trkpt><trkpt lat="50.137048" lon="5.495245"><ele>437.218</ele><time>2022-09-17T10:58:40Z</time></trkpt><trkpt lat="50.136922" lon="5.495034"><ele>437.814</ele><time>2022-09-17T10:58:41Z</time></trkpt><trkpt lat="50.136796" lon="5.494822"><ele>438.499</ele><time>2022-09-17T10:58:42Z</time></trkpt><trkpt lat="50.136668" lon="5.494610"><ele>439.184</ele><time>2022-09-17T10:58:43Z</time></trkpt><trkpt lat="50.136534" lon="5.494387"><ele>439.729</ele><time>2022-09-17T10:58:44Z</time></trkpt><trkpt lat="50.136403" lon="5.494170"><ele>440.393</ele><time>2022-09-17T10:58:45Z</time></trkpt><trkpt lat="50.136267" lon="5.493948"><ele>440.940</ele><time>2022-09-17T10:58:46Z</time></trkpt><trkpt lat="50.136126" lon="5.493720"><ele>441.544</ele><time>2022-09-17T10:58:47Z</time></trkpt><trkpt lat="50.135985" lon="5.493490"><ele>442.105</ele><time>2022-09-17T10:58:48Z</time></trkpt><trkpt lat="50.135843" lon="5.493260"><ele>442.615</ele><time>2022-09-17T10:58:49Z</time></trkpt><trkpt lat="50.135701" lon="5.493030"><ele>443.009</ele><time>2022-09-17T10:58:50Z</time></trkpt><trkpt lat="50.135558" lon="5.492797"><ele>443.685</ele><time>2022-09-17T10:58:51Z</time></trkpt><trkpt lat="50.135407" lon="5.492588"><ele>444.325</ele><time>2022-09-17T10:58:52Z</time></trkpt><trkpt lat="50.135282" lon="5.492374"><ele>444.997</ele><time>2022-09-17T10:58:53Z</time></trkpt><trkpt lat="50.135161" lon="5.492150"><ele>445.893</ele><time>2022-09-17T10:58:54Z</time></trkpt><trkpt lat="50.135036" lon="5.491957"><ele>446.748</ele><time>2022-09-17T10:58:55Z</time></trkpt><trkpt lat="50.134916" lon="5.491745"><ele>447.573</ele><time>2022-09-17T10:58:56Z</time></trkpt><trkpt lat="50.134797" lon="5.491528"><ele>448.398</ele><time>2022-09-17T10:58:57Z</time></trkpt><trkpt lat="50.134673" lon="5.491320"><ele>449.182</ele><time>2022-09-17T10:58:58Z</time></trkpt><trkpt lat="50.134549" lon="5.491097"><ele>449.839</ele><time>2022-09-17T10:58:59Z</time></trkpt><trkpt lat="50.134428" lon="5.490884"><ele>450.648</ele><time>2022-09-17T10:59:00Z</time></trkpt><trkpt lat="50.134299" lon="5.490669"><ele>451.361</ele><time>2022-09-17T10:59:01Z</time></trkpt><trkpt lat="50.134171" lon="5.490467"><ele>451.917</ele><time>2022-09-17T10:59:02Z</time></trkpt><trkpt lat="50.134045" lon="5.490258"><ele>452.609</ele><time>2022-09-17T10:59:03Z</time></trkpt><trkpt lat="50.133909" lon="5.490062"><ele>453.115</ele><time>2022-09-17T10:59:04Z</time></trkpt><trkpt lat="50.133783" lon="5.489866"><ele>453.435</ele><time>2022-09-17T10:59:05Z</time></trkpt><trkpt lat="50.133644" lon="5.489694"><ele>453.747</ele><time>2022-09-17T10:59:06Z</time></trkpt><trkpt lat="50.133503" lon="5.489558"><ele>454.093</ele><time>2022-09-17T10:59:07Z</time></trkpt><trkpt lat="50.133383" lon="5.489433"><ele>454.218</ele><time>2022-09-17T10:59:08Z</time></trkpt><trkpt lat="50.133260" lon="5.489327"><ele>454.353</ele><time>2022-09-17T10:59:09Z</time></trkpt><trkpt lat="50.133147" lon="5.489236"><ele>454.418</ele><time>2022-09-17T10:59:10Z</time></trkpt><trkpt lat="50.133046" lon="5.489147"><ele>454.742</ele><time>2022-09-17T10:59:11Z</time></trkpt><trkpt lat="50.132934" lon="5.489084"><ele>454.919</ele><time>2022-09-17T10:59:12Z</time></trkpt><trkpt lat="50.132844" lon="5.489019"><ele>455.278</ele><time>2022-09-17T10:59:13Z</time></trkpt><trkpt lat="50.132760" lon="5.488948"><ele>455.333</ele><time>2022-09-17T10:59:14Z</time></trkpt><trkpt lat="50.132676" lon="5.488932"><ele>455.326</ele><time>2022-09-17T10:59:15Z</time></trkpt><trkpt lat="50.132614" lon="5.488894"><ele>455.309</ele><time>2022-09-17T10:59:16Z</time></trkpt><trkpt lat="50.132499" lon="5.489000"><ele>455.368</ele><time>2022-09-17T10:59:17Z</time></trkpt><trkpt lat="50.132413" lon="5.489049"><ele>455.118</ele><time>2022-09-17T10:59:18Z</time></trkpt><trkpt lat="50.132329" lon="5.489088"><ele>454.990</ele><time>2022-09-17T10:59:19Z</time></trkpt><trkpt lat="50.132258" lon="5.489118"><ele>454.736</ele><time>2022-09-17T10:59:20Z</time></trkpt><trkpt lat="50.132212" lon="5.489156"><ele>454.231</ele><time>2022-09-17T10:59:21Z</time></trkpt><trkpt lat="50.132205" lon="5.489307"><ele>453.566</ele><time>2022-09-17T10:59:22Z</time></trkpt><trkpt lat="50.132168" lon="5.489413"><ele>452.831</ele><time>2022-09-17T10:59:23Z</time></trkpt><trkpt lat="50.132115" lon="5.489551"><ele>451.625</ele><time>2022-09-17T10:59:24Z</time></trkpt><trkpt lat="50.132063" lon="5.489680"><ele>450.742</ele><time>2022-09-17T10:59:25Z</time></trkpt><trkpt lat="50.131999" lon="5.489792"><ele>449.631</ele><time>2022-09-17T10:59:26Z</time></trkpt><trkpt lat="50.131966" lon="5.489913"><ele>448.461</ele><time>2022-09-17T10:59:27Z</time></trkpt><trkpt lat="50.131932" lon="5.490012"><ele>447.907</ele><time>2022-09-17T10:59:28Z</time></trkpt><trkpt lat="50.131902" lon="5.490079"><ele>446.809</ele><time>2022-09-17T10:59:29Z</time></trkpt><trkpt lat="50.131864" lon="5.490173"><ele>445.734</ele><time>2022-09-17T10:59:30Z</time></trkpt><trkpt lat="50.131818" lon="5.490281"><ele>444.754</ele><time>2022-09-17T10:59:31Z</time></trkpt><trkpt lat="50.131764" lon="5.490407"><ele>443.816</ele><time>2022-09-17T10:59:32Z</time></trkpt><trkpt lat="50.131711" lon="5.490536"><ele>442.422</ele><time>2022-09-17T10:59:33Z</time></trkpt><trkpt lat="50.131670" lon="5.490641"><ele>441.597</ele><time>2022-09-17T10:59:34Z</time></trkpt><trkpt lat="50.131615" lon="5.490775"><ele>440.832</ele><time>2022-09-17T10:59:35Z</time></trkpt><trkpt lat="50.131567" lon="5.490896"><ele>440.057</ele><time>2022-09-17T10:59:36Z</time></trkpt><trkpt lat="50.131514" lon="5.491020"><ele>439.391</ele><time>2022-09-17T10:59:37Z</time></trkpt><trkpt lat="50.131449" lon="5.491174"><ele>438.838</ele><time>2022-09-17T10:59:38Z</time></trkpt><trkpt lat="50.131388" lon="5.491328"><ele>438.332</ele><time>2022-09-17T10:59:39Z</time></trkpt><trkpt lat="50.131329" lon="5.491468"><ele>437.692</ele><time>2022-09-17T10:59:40Z</time></trkpt><trkpt lat="50.131273" lon="5.491611"><ele>436.911</ele><time>2022-09-17T10:59:41Z</time></trkpt><trkpt lat="50.131221" lon="5.491740"><ele>436.209</ele><time>2022-09-17T10:59:42Z</time></trkpt><trkpt lat="50.131167" lon="5.491861"><ele>435.794</ele><time>2022-09-17T10:59:43Z</time></trkpt><trkpt lat="50.131115" lon="5.491972"><ele>435.224</ele><time>2022-09-17T10:59:44Z</time></trkpt><trkpt lat="50.131063" lon="5.492115"><ele>434.836</ele><time>2022-09-17T10:59:45Z</time></trkpt><trkpt lat="50.131013" lon="5.492245"><ele>434.672</ele><time>2022-09-17T10:59:46Z</time></trkpt><trkpt lat="50.130950" lon="5.492399"><ele>434.447</ele><time>2022-09-17T10:59:47Z</time></trkpt><trkpt lat="50.130890" lon="5.492534"><ele>434.152</ele><time>2022-09-17T10:59:48Z</time></trkpt><trkpt lat="50.130836" lon="5.492677"><ele>433.757</ele><time>2022-09-17T10:59:49Z</time></trkpt><trkpt lat="50.130782" lon="5.492799"><ele>433.241</ele><time>2022-09-17T10:59:50Z</time></trkpt><trkpt lat="50.130735" lon="5.492927"><ele>432.778</ele><time>2022-09-17T10:59:51Z</time></trkpt><trkpt lat="50.130694" lon="5.493045"><ele>432.366</ele><time>2022-09-17T10:59:52Z</time></trkpt><trkpt lat="50.130626" lon="5.493206"><ele>431.929</ele><time>2022-09-17T10:59:53Z</time></trkpt><trkpt lat="50.130560" lon="5.493360"><ele>431.521</ele><time>2022-09-17T10:59:54Z</time></trkpt><trkpt lat="50.130497" lon="5.493520"><ele>431.109</ele><time>2022-09-17T10:59:55Z</time></trkpt><trkpt lat="50.130444" lon="5.493664"><ele>430.527</ele><time>2022-09-17T10:59:56Z</time></trkpt><trkpt lat="50.130390" lon="5.493807"><ele>429.867</ele><time>2022-09-17T10:59:57Z</time></trkpt><trkpt lat="50.130331" lon="5.493947"><ele>429.099</ele><time>2022-09-17T10:59:58Z</time></trkpt><trkpt lat="50.130280" lon="5.494071"><ele>428.375</ele><time>2022-09-17T10:59:59Z</time></trkpt><trkpt lat="50.130224" lon="5.494220"><ele>427.460</ele><time>2022-09-17T11:00:00Z</time></trkpt><trkpt lat="50.130178" lon="5.494333"><ele>426.685</ele><time>2022-09-17T11:00:01Z</time></trkpt><trkpt lat="50.130119" lon="5.494451"><ele>425.810</ele><time>2022-09-17T11:00:02Z</time></trkpt><trkpt lat="50.130076" lon="5.494547"><ele>425.564</ele><time>2022-09-17T11:00:03Z</time></trkpt><trkpt lat="50.130032" lon="5.494655"><ele>424.951</ele><time>2022-09-17T11:00:04Z</time></trkpt><trkpt lat="50.129980" lon="5.494782"><ele>424.216</ele><time>2022-09-17T11:00:05Z</time></trkpt><trkpt lat="50.129931" lon="5.494880"><ele>423.676</ele><time>2022-09-17T11:00:06Z</time></trkpt><trkpt lat="50.129885" lon="5.495001"><ele>422.913</ele><time>2022-09-17T11:00:07Z</time></trkpt><trkpt lat="50.129846" lon="5.495109"><ele>422.109</ele><time>2022-09-17T11:00:08Z</time></trkpt><trkpt lat="50.129798" lon="5.495216"><ele>421.232</ele><time>2022-09-17T11:00:09Z</time></trkpt><trkpt lat="50.129785" lon="5.495289"><ele>420.332</ele><time>2022-09-17T11:00:10Z</time></trkpt><trkpt lat="50.129746" lon="5.495385"><ele>419.414</ele><time>2022-09-17T11:00:11Z</time></trkpt><trkpt lat="50.129684" lon="5.495473"><ele>418.550</ele><time>2022-09-17T11:00:12Z</time></trkpt><trkpt lat="50.129633" lon="5.495598"><ele>417.755</ele><time>2022-09-17T11:00:13Z</time></trkpt><trkpt lat="50.129583" lon="5.495726"><ele>416.460</ele><time>2022-09-17T11:00:14Z</time></trkpt><trkpt lat="50.129519" lon="5.495877"><ele>415.775</ele><time>2022-09-17T11:00:15Z</time></trkpt><trkpt lat="50.129449" lon="5.496042"><ele>414.939</ele><time>2022-09-17T11:00:16Z</time></trkpt><trkpt lat="50.129386" lon="5.496198"><ele>414.076</ele><time>2022-09-17T11:00:17Z</time></trkpt><trkpt lat="50.129336" lon="5.496332"><ele>413.247</ele><time>2022-09-17T11:00:18Z</time></trkpt><trkpt lat="50.129287" lon="5.496463"><ele>412.529</ele><time>2022-09-17T11:00:19Z</time></trkpt><trkpt lat="50.129214" lon="5.496621"><ele>411.621</ele><time>2022-09-17T11:00:20Z</time></trkpt><trkpt lat="50.129151" lon="5.496775"><ele>410.909</ele><time>2022-09-17T11:00:21Z</time></trkpt><trkpt lat="50.129098" lon="5.496914"><ele>410.155</ele><time>2022-09-17T11:00:22Z</time></trkpt><trkpt lat="50.129035" lon="5.497063"><ele>409.355</ele><time>2022-09-17T11:00:23Z</time></trkpt><trkpt lat="50.128966" lon="5.497206"><ele>408.477</ele><time>2022-09-17T11:00:24Z</time></trkpt><trkpt lat="50.128914" lon="5.497374"><ele>407.763</ele><time>2022-09-17T11:00:25Z</time></trkpt><trkpt lat="50.128861" lon="5.497530"><ele>406.958</ele><time>2022-09-17T11:00:26Z</time></trkpt><trkpt lat="50.128785" lon="5.497653"><ele>406.153</ele><time>2022-09-17T11:00:27Z</time></trkpt><trkpt lat="50.128706" lon="5.497801"><ele>405.218</ele><time>2022-09-17T11:00:28Z</time></trkpt><trkpt lat="50.128645" lon="5.497937"><ele>404.222</ele><time>2022-09-17T11:00:29Z</time></trkpt><trkpt lat="50.128599" lon="5.498065"><ele>403.449</ele><time>2022-09-17T11:00:30Z</time></trkpt><trkpt lat="50.128559" lon="5.498198"><ele>402.699</ele><time>2022-09-17T11:00:31Z</time></trkpt><trkpt lat="50.128529" lon="5.498384"><ele>401.807</ele><time>2022-09-17T11:00:32Z</time></trkpt><trkpt lat="50.128475" lon="5.498517"><ele>401.127</ele><time>2022-09-17T11:00:33Z</time></trkpt><trkpt lat="50.128418" lon="5.498657"><ele>400.209</ele><time>2022-09-17T11:00:34Z</time></trkpt><trkpt lat="50.128359" lon="5.498804"><ele>399.380</ele><time>2022-09-17T11:00:35Z</time></trkpt><trkpt lat="50.128301" lon="5.498947"><ele>398.380</ele><time>2022-09-17T11:00:36Z</time></trkpt><trkpt lat="50.128250" lon="5.499073"><ele>397.362</ele><time>2022-09-17T11:00:37Z</time></trkpt><trkpt lat="50.128199" lon="5.499200"><ele>396.338</ele><time>2022-09-17T11:00:38Z</time></trkpt><trkpt lat="50.128142" lon="5.499342"><ele>395.493</ele><time>2022-09-17T11:00:39Z</time></trkpt><trkpt lat="50.128060" lon="5.499481"><ele>394.648</ele><time>2022-09-17T11:00:40Z</time></trkpt><trkpt lat="50.127989" lon="5.499655"><ele>394.243</ele><time>2022-09-17T11:00:41Z</time></trkpt><trkpt lat="50.127910" lon="5.499848"><ele>393.637</ele><time>2022-09-17T11:00:42Z</time></trkpt><trkpt lat="50.127819" lon="5.500071"><ele>393.474</ele><time>2022-09-17T11:00:43Z</time></trkpt><trkpt lat="50.127727" lon="5.500297"><ele>393.089</ele><time>2022-09-17T11:00:44Z</time></trkpt><trkpt lat="50.127623" lon="5.500549"><ele>392.206</ele><time>2022-09-17T11:00:45Z</time></trkpt><trkpt lat="50.127522" lon="5.500791"><ele>391.126</ele><time>2022-09-17T11:00:46Z</time></trkpt><trkpt lat="50.127438" lon="5.501022"><ele>389.709</ele><time>2022-09-17T11:00:47Z</time></trkpt><trkpt lat="50.127338" lon="5.501239"><ele>388.249</ele><time>2022-09-17T11:00:48Z</time></trkpt><trkpt lat="50.127249" lon="5.501453"><ele>386.899</ele><time>2022-09-17T11:00:49Z</time></trkpt><trkpt lat="50.127174" lon="5.501664"><ele>385.441</ele><time>2022-09-17T11:00:50Z</time></trkpt><trkpt lat="50.127094" lon="5.501850"><ele>384.377</ele><time>2022-09-17T11:00:51Z</time></trkpt><trkpt lat="50.127039" lon="5.502002"><ele>383.842</ele><time>2022-09-17T11:00:52Z</time></trkpt><trkpt lat="50.126953" lon="5.502159"><ele>382.927</ele><time>2022-09-17T11:00:53Z</time></trkpt><trkpt lat="50.126844" lon="5.502291"><ele>381.652</ele><time>2022-09-17T11:00:54Z</time></trkpt><trkpt lat="50.126753" lon="5.502389"><ele>381.386</ele><time>2022-09-17T11:00:55Z</time></trkpt><trkpt lat="50.126601" lon="5.502500"><ele>380.473</ele><time>2022-09-17T11:00:56Z</time></trkpt><trkpt lat="50.126469" lon="5.502606"><ele>379.728</ele><time>2022-09-17T11:00:57Z</time></trkpt><trkpt lat="50.126302" lon="5.502629"><ele>379.089</ele><time>2022-09-17T11:00:58Z</time></trkpt><trkpt lat="50.126173" lon="5.502737"><ele>378.217</ele><time>2022-09-17T11:00:59Z</time></trkpt><trkpt lat="50.126071" lon="5.502822"><ele>377.809</ele><time>2022-09-17T11:01:00Z</time></trkpt><trkpt lat="50.125978" lon="5.502970"><ele>377.033</ele><time>2022-09-17T11:01:01Z</time></trkpt><trkpt lat="50.125892" lon="5.503063"><ele>376.053</ele><time>2022-09-17T11:01:02Z</time></trkpt><trkpt lat="50.125853" lon="5.503185"><ele>375.285</ele><time>2022-09-17T11:01:03Z</time></trkpt><trkpt lat="50.125826" lon="5.503319"><ele>374.271</ele><time>2022-09-17T11:01:04Z</time></trkpt><trkpt lat="50.125807" lon="5.503496"><ele>373.246</ele><time>2022-09-17T11:01:05Z</time></trkpt><trkpt lat="50.125810" lon="5.503714"><ele>372.171</ele><time>2022-09-17T11:01:06Z</time></trkpt><trkpt lat="50.125817" lon="5.503940"><ele>370.716</ele><time>2022-09-17T11:01:07Z</time></trkpt><trkpt lat="50.125820" lon="5.504156"><ele>369.970</ele><time>2022-09-17T11:01:08Z</time></trkpt><trkpt lat="50.125819" lon="5.504367"><ele>369.337</ele><time>2022-09-17T11:01:09Z</time></trkpt><trkpt lat="50.125814" lon="5.504586"><ele>368.742</ele><time>2022-09-17T11:01:10Z</time></trkpt><trkpt lat="50.125798" lon="5.504807"><ele>368.122</ele><time>2022-09-17T11:01:11Z</time></trkpt><trkpt lat="50.125776" lon="5.505022"><ele>367.514</ele><time>2022-09-17T11:01:12Z</time></trkpt><trkpt lat="50.125757" lon="5.505238"><ele>366.809</ele><time>2022-09-17T11:01:13Z</time></trkpt><trkpt lat="50.125738" lon="5.505454"><ele>366.155</ele><time>2022-09-17T11:01:14Z</time></trkpt><trkpt lat="50.125717" lon="5.505668"><ele>365.455</ele><time>2022-09-17T11:01:15Z</time></trkpt><trkpt lat="50.125691" lon="5.505922"><ele>364.747</ele><time>2022-09-17T11:01:16Z</time></trkpt><trkpt lat="50.125668" lon="5.506158"><ele>364.223</ele><time>2022-09-17T11:01:17Z</time></trkpt><trkpt lat="50.125644" lon="5.506393"><ele>364.058</ele><time>2022-09-17T11:01:18Z</time></trkpt><trkpt lat="50.125620" lon="5.506648"><ele>364.223</ele><time>2022-09-17T11:01:19Z</time></trkpt><trkpt lat="50.125594" lon="5.506884"><ele>365.058</ele><time>2022-09-17T11:01:20Z</time></trkpt><trkpt lat="50.125580" lon="5.507130"><ele>366.482</ele><time>2022-09-17T11:01:21Z</time></trkpt><trkpt lat="50.125562" lon="5.507390"><ele>368.199</ele><time>2022-09-17T11:01:22Z</time></trkpt><trkpt lat="50.125524" lon="5.507678"><ele>369.931</ele><time>2022-09-17T11:01:23Z</time></trkpt><trkpt lat="50.125512" lon="5.507952"><ele>371.761</ele><time>2022-09-17T11:01:24Z</time></trkpt><trkpt lat="50.125472" lon="5.508242"><ele>373.307</ele><time>2022-09-17T11:01:25Z</time></trkpt><trkpt lat="50.125461" lon="5.508507"><ele>374.609</ele><time>2022-09-17T11:01:26Z</time></trkpt><trkpt lat="50.125436" lon="5.508772"><ele>375.734</ele><time>2022-09-17T11:01:27Z</time></trkpt><trkpt lat="50.125413" lon="5.509034"><ele>376.844</ele><time>2022-09-17T11:01:28Z</time></trkpt><trkpt lat="50.125359" lon="5.509290"><ele>377.916</ele><time>2022-09-17T11:01:29Z</time></trkpt><trkpt lat="50.125341" lon="5.509553"><ele>378.912</ele><time>2022-09-17T11:01:30Z</time></trkpt><trkpt lat="50.125318" lon="5.509810"><ele>379.957</ele><time>2022-09-17T11:01:31Z</time></trkpt><trkpt lat="50.125305" lon="5.510046"><ele>380.882</ele><time>2022-09-17T11:01:32Z</time></trkpt><trkpt lat="50.125281" lon="5.510281"><ele>381.527</ele><time>2022-09-17T11:01:33Z</time></trkpt><trkpt lat="50.125258" lon="5.510548"><ele>382.031</ele><time>2022-09-17T11:01:34Z</time></trkpt><trkpt lat="50.125242" lon="5.510827"><ele>382.628</ele><time>2022-09-17T11:01:35Z</time></trkpt><trkpt lat="50.125215" lon="5.511091"><ele>383.574</ele><time>2022-09-17T11:01:36Z</time></trkpt><trkpt lat="50.125195" lon="5.511332"><ele>384.656</ele><time>2022-09-17T11:01:37Z</time></trkpt><trkpt lat="50.125172" lon="5.511579"><ele>385.821</ele><time>2022-09-17T11:01:38Z</time></trkpt><trkpt lat="50.125149" lon="5.511824"><ele>387.009</ele><time>2022-09-17T11:01:39Z</time></trkpt><trkpt lat="50.125128" lon="5.512059"><ele>388.088</ele><time>2022-09-17T11:01:40Z</time></trkpt><trkpt lat="50.125105" lon="5.512308"><ele>388.748</ele><time>2022-09-17T11:01:41Z</time></trkpt><trkpt lat="50.125084" lon="5.512555"><ele>389.360</ele><time>2022-09-17T11:01:42Z</time></trkpt><trkpt lat="50.125053" lon="5.512802"><ele>389.896</ele><time>2022-09-17T11:01:43Z</time></trkpt><trkpt lat="50.125028" lon="5.513039"><ele>390.281</ele><time>2022-09-17T11:01:44Z</time></trkpt><trkpt lat="50.125013" lon="5.513279"><ele>390.576</ele><time>2022-09-17T11:01:45Z</time></trkpt><trkpt lat="50.124997" lon="5.513502"><ele>390.931</ele><time>2022-09-17T11:01:46Z</time></trkpt><trkpt lat="50.124977" lon="5.513718"><ele>391.375</ele><time>2022-09-17T11:01:47Z</time></trkpt><trkpt lat="50.124943" lon="5.513921"><ele>391.792</ele><time>2022-09-17T11:01:48Z</time></trkpt><trkpt lat="50.124903" lon="5.514118"><ele>391.987</ele><time>2022-09-17T11:01:49Z</time></trkpt><trkpt lat="50.124863" lon="5.514300"><ele>392.542</ele><time>2022-09-17T11:01:50Z</time></trkpt><trkpt lat="50.124827" lon="5.514459"><ele>393.126</ele><time>2022-09-17T11:01:51Z</time></trkpt><trkpt lat="50.124786" lon="5.514622"><ele>393.809</ele><time>2022-09-17T11:01:52Z</time></trkpt><trkpt lat="50.124719" lon="5.514773"><ele>394.629</ele><time>2022-09-17T11:01:53Z</time></trkpt><trkpt lat="50.124643" lon="5.514939"><ele>395.269</ele><time>2022-09-17T11:01:54Z</time></trkpt><trkpt lat="50.124532" lon="5.515109"><ele>396.571</ele><time>2022-09-17T11:01:55Z</time></trkpt><trkpt lat="50.124408" lon="5.515305"><ele>397.457</ele><time>2022-09-17T11:01:56Z</time></trkpt><trkpt lat="50.124287" lon="5.515474"><ele>397.822</ele><time>2022-09-17T11:01:57Z</time></trkpt><trkpt lat="50.124168" lon="5.515630"><ele>398.287</ele><time>2022-09-17T11:01:58Z</time></trkpt><trkpt lat="50.124068" lon="5.515779"><ele>398.952</ele><time>2022-09-17T11:01:59Z</time></trkpt><trkpt lat="50.123980" lon="5.515941"><ele>399.776</ele><time>2022-09-17T11:02:00Z</time></trkpt><trkpt lat="50.123896" lon="5.516092"><ele>400.193</ele><time>2022-09-17T11:02:01Z</time></trkpt><trkpt lat="50.123825" lon="5.516225"><ele>400.926</ele><time>2022-09-17T11:02:02Z</time></trkpt><trkpt lat="50.123757" lon="5.516333"><ele>402.647</ele><time>2022-09-17T11:02:03Z</time></trkpt><trkpt lat="50.123704" lon="5.516443"><ele>404.311</ele><time>2022-09-17T11:02:04Z</time></trkpt><trkpt lat="50.123657" lon="5.516524"><ele>404.809</ele><time>2022-09-17T11:02:05Z</time></trkpt><trkpt lat="50.123611" lon="5.516582"><ele>405.783</ele><time>2022-09-17T11:02:06Z</time></trkpt><trkpt lat="50.123571" lon="5.516637"><ele>406.643</ele><time>2022-09-17T11:02:07Z</time></trkpt><trkpt lat="50.123531" lon="5.516705"><ele>407.135</ele><time>2022-09-17T11:02:08Z</time></trkpt><trkpt lat="50.123491" lon="5.516767"><ele>407.951</ele><time>2022-09-17T11:02:09Z</time></trkpt><trkpt lat="50.123455" lon="5.516846"><ele>408.396</ele><time>2022-09-17T11:02:10Z</time></trkpt><trkpt lat="50.123396" lon="5.516918"><ele>408.961</ele><time>2022-09-17T11:02:12Z</time></trkpt><trkpt lat="50.123393" lon="5.516841"><ele>409.456</ele><time>2022-09-17T11:02:15Z</time></trkpt><trkpt lat="50.123360" lon="5.516769"><ele>410.220</ele><time>2022-09-17T11:02:25Z</time></trkpt><trkpt lat="50.123321" lon="5.516696"><ele>411.047</ele><time>2022-09-17T11:02:26Z</time></trkpt><trkpt lat="50.123269" lon="5.516603"><ele>411.648</ele><time>2022-09-17T11:02:27Z</time></trkpt><trkpt lat="50.123194" lon="5.516482"><ele>411.861</ele><time>2022-09-17T11:02:28Z</time></trkpt><trkpt lat="50.123095" lon="5.516312"><ele>412.217</ele><time>2022-09-17T11:02:29Z</time></trkpt><trkpt lat="50.122996" lon="5.516150"><ele>412.809</ele><time>2022-09-17T11:02:30Z</time></trkpt><trkpt lat="50.122889" lon="5.515958"><ele>413.445</ele><time>2022-09-17T11:02:31Z</time></trkpt><trkpt lat="50.122780" lon="5.515770"><ele>414.235</ele><time>2022-09-17T11:02:32Z</time></trkpt><trkpt lat="50.122679" lon="5.515590"><ele>415.067</ele><time>2022-09-17T11:02:33Z</time></trkpt><trkpt lat="50.122571" lon="5.515399"><ele>415.873</ele><time>2022-09-17T11:02:34Z</time></trkpt><trkpt lat="50.122455" lon="5.515199"><ele>416.268</ele><time>2022-09-17T11:02:35Z</time></trkpt><trkpt lat="50.122357" lon="5.515038"><ele>416.393</ele><time>2022-09-17T11:02:36Z</time></trkpt><trkpt lat="50.122266" lon="5.514880"><ele>416.218</ele><time>2022-09-17T11:02:37Z</time></trkpt><trkpt lat="50.122183" lon="5.514747"><ele>416.182</ele><time>2022-09-17T11:02:38Z</time></trkpt><trkpt lat="50.122095" lon="5.514600"><ele>416.079</ele><time>2022-09-17T11:02:39Z</time></trkpt><trkpt lat="50.122006" lon="5.514451"><ele>416.055</ele><time>2022-09-17T11:02:40Z</time></trkpt><trkpt lat="50.121917" lon="5.514304"><ele>416.207</ele><time>2022-09-17T11:02:41Z</time></trkpt><trkpt lat="50.121832" lon="5.514169"><ele>417.817</ele><time>2022-09-17T11:02:42Z</time></trkpt><trkpt lat="50.121747" lon="5.514036"><ele>419.109</ele><time>2022-09-17T11:02:43Z</time></trkpt><trkpt lat="50.121661" lon="5.513898"><ele>420.546</ele><time>2022-09-17T11:02:44Z</time></trkpt><trkpt lat="50.121571" lon="5.513752"><ele>421.366</ele><time>2022-09-17T11:02:45Z</time></trkpt><trkpt lat="50.121483" lon="5.513605"><ele>422.198</ele><time>2022-09-17T11:02:46Z</time></trkpt><trkpt lat="50.121398" lon="5.513450"><ele>423.064</ele><time>2022-09-17T11:02:47Z</time></trkpt><trkpt lat="50.121310" lon="5.513301"><ele>423.689</ele><time>2022-09-17T11:02:48Z</time></trkpt><trkpt lat="50.121225" lon="5.513157"><ele>423.974</ele><time>2022-09-17T11:02:49Z</time></trkpt><trkpt lat="50.121140" lon="5.513026"><ele>424.199</ele><time>2022-09-17T11:02:50Z</time></trkpt><trkpt lat="50.121054" lon="5.512894"><ele>424.543</ele><time>2022-09-17T11:02:51Z</time></trkpt><trkpt lat="50.120959" lon="5.512750"><ele>424.570</ele><time>2022-09-17T11:02:52Z</time></trkpt><trkpt lat="50.120869" lon="5.512616"><ele>424.591</ele><time>2022-09-17T11:02:53Z</time></trkpt><trkpt lat="50.120773" lon="5.512493"><ele>424.781</ele><time>2022-09-17T11:02:54Z</time></trkpt><trkpt lat="50.120670" lon="5.512375"><ele>424.719</ele><time>2022-09-17T11:02:55Z</time></trkpt><trkpt lat="50.120556" lon="5.512261"><ele>425.009</ele><time>2022-09-17T11:02:56Z</time></trkpt><trkpt lat="50.120438" lon="5.512158"><ele>425.550</ele><time>2022-09-17T11:02:57Z</time></trkpt><trkpt lat="50.120328" lon="5.512058"><ele>425.750</ele><time>2022-09-17T11:02:58Z</time></trkpt><trkpt lat="50.120215" lon="5.511942"><ele>426.472</ele><time>2022-09-17T11:02:59Z</time></trkpt><trkpt lat="50.120114" lon="5.511815"><ele>427.018</ele><time>2022-09-17T11:03:00Z</time></trkpt><trkpt lat="50.120014" lon="5.511694"><ele>427.513</ele><time>2022-09-17T11:03:01Z</time></trkpt><trkpt lat="50.119928" lon="5.511556"><ele>427.558</ele><time>2022-09-17T11:03:02Z</time></trkpt><trkpt lat="50.119837" lon="5.511416"><ele>427.373</ele><time>2022-09-17T11:03:03Z</time></trkpt><trkpt lat="50.119739" lon="5.511272"><ele>427.327</ele><time>2022-09-17T11:03:04Z</time></trkpt><trkpt lat="50.119648" lon="5.511113"><ele>427.794</ele><time>2022-09-17T11:03:05Z</time></trkpt><trkpt lat="50.119560" lon="5.510965"><ele>427.947</ele><time>2022-09-17T11:03:06Z</time></trkpt><trkpt lat="50.119479" lon="5.510813"><ele>428.229</ele><time>2022-09-17T11:03:07Z</time></trkpt><trkpt lat="50.119397" lon="5.510662"><ele>428.221</ele><time>2022-09-17T11:03:08Z</time></trkpt><trkpt lat="50.119327" lon="5.510482"><ele>428.109</ele><time>2022-09-17T11:03:09Z</time></trkpt><trkpt lat="50.119253" lon="5.510306"><ele>427.435</ele><time>2022-09-17T11:03:10Z</time></trkpt><trkpt lat="50.119169" lon="5.510134"><ele>427.095</ele><time>2022-09-17T11:03:11Z</time></trkpt><trkpt lat="50.119081" lon="5.509964"><ele>426.857</ele><time>2022-09-17T11:03:12Z</time></trkpt><trkpt lat="50.118986" lon="5.509810"><ele>426.883</ele><time>2022-09-17T11:03:13Z</time></trkpt><trkpt lat="50.118880" lon="5.509652"><ele>426.718</ele><time>2022-09-17T11:03:14Z</time></trkpt><trkpt lat="50.118776" lon="5.509498"><ele>426.233</ele><time>2022-09-17T11:03:15Z</time></trkpt><trkpt lat="50.118670" lon="5.509353"><ele>425.518</ele><time>2022-09-17T11:03:16Z</time></trkpt><trkpt lat="50.118580" lon="5.509226"><ele>425.222</ele><time>2022-09-17T11:03:17Z</time></trkpt><trkpt lat="50.118483" lon="5.509110"><ele>424.659</ele><time>2022-09-17T11:03:18Z</time></trkpt><trkpt lat="50.118379" lon="5.508995"><ele>423.733</ele><time>2022-09-17T11:03:19Z</time></trkpt><trkpt lat="50.118271" lon="5.508880"><ele>423.023</ele><time>2022-09-17T11:03:20Z</time></trkpt><trkpt lat="50.118170" lon="5.508779"><ele>422.715</ele><time>2022-09-17T11:03:21Z</time></trkpt><trkpt lat="50.118072" lon="5.508667"><ele>422.109</ele><time>2022-09-17T11:03:22Z</time></trkpt><trkpt lat="50.117981" lon="5.508568"><ele>421.814</ele><time>2022-09-17T11:03:23Z</time></trkpt><trkpt lat="50.117909" lon="5.508484"><ele>421.874</ele><time>2022-09-17T11:03:24Z</time></trkpt><trkpt lat="50.117862" lon="5.508430"><ele>421.996</ele><time>2022-09-17T11:03:25Z</time></trkpt><trkpt lat="50.117837" lon="5.508302"><ele>422.072</ele><time>2022-09-17T11:03:27Z</time></trkpt><trkpt lat="50.117857" lon="5.508186"><ele>422.587</ele><time>2022-09-17T11:03:28Z</time></trkpt><trkpt lat="50.117919" lon="5.507989"><ele>423.732</ele><time>2022-09-17T11:03:29Z</time></trkpt><trkpt lat="50.117969" lon="5.507798"><ele>423.957</ele><time>2022-09-17T11:03:30Z</time></trkpt><trkpt lat="50.118013" lon="5.507601"><ele>423.921</ele><time>2022-09-17T11:03:31Z</time></trkpt><trkpt lat="50.118055" lon="5.507398"><ele>422.958</ele><time>2022-09-17T11:03:32Z</time></trkpt><trkpt lat="50.118092" lon="5.507173"><ele>421.859</ele><time>2022-09-17T11:03:33Z</time></trkpt><trkpt lat="50.118103" lon="5.506987"><ele>421.103</ele><time>2022-09-17T11:03:34Z</time></trkpt><trkpt lat="50.118103" lon="5.506816"><ele>419.623</ele><time>2022-09-17T11:03:35Z</time></trkpt><trkpt lat="50.118101" lon="5.506637"><ele>418.109</ele><time>2022-09-17T11:03:36Z</time></trkpt><trkpt lat="50.118105" lon="5.506483"><ele>416.656</ele><time>2022-09-17T11:03:37Z</time></trkpt><trkpt lat="50.118090" lon="5.506375"><ele>415.086</ele><time>2022-09-17T11:03:38Z</time></trkpt><trkpt lat="50.118069" lon="5.506276"><ele>414.228</ele><time>2022-09-17T11:03:40Z</time></trkpt><trkpt lat="50.118011" lon="5.506284"><ele>411.954</ele><time>2022-09-17T11:03:42Z</time></trkpt><trkpt lat="50.117972" lon="5.506321"><ele>410.369</ele><time>2022-09-17T11:03:43Z</time></trkpt><trkpt lat="50.117909" lon="5.506366"><ele>408.014</ele><time>2022-09-17T11:03:44Z</time></trkpt><trkpt lat="50.117808" lon="5.506428"><ele>407.649</ele><time>2022-09-17T11:03:45Z</time></trkpt><trkpt lat="50.117664" lon="5.506502"><ele>407.783</ele><time>2022-09-17T11:03:46Z</time></trkpt><trkpt lat="50.117506" lon="5.506585"><ele>408.840</ele><time>2022-09-17T11:03:47Z</time></trkpt><trkpt lat="50.117380" lon="5.506677"><ele>409.916</ele><time>2022-09-17T11:03:48Z</time></trkpt><trkpt lat="50.117264" lon="5.506771"><ele>411.276</ele><time>2022-09-17T11:03:49Z</time></trkpt><trkpt lat="50.117151" lon="5.506867"><ele>411.913</ele><time>2022-09-17T11:03:50Z</time></trkpt><trkpt lat="50.117025" lon="5.506980"><ele>414.209</ele><time>2022-09-17T11:03:51Z</time></trkpt><trkpt lat="50.116905" lon="5.507093"><ele>415.972</ele><time>2022-09-17T11:03:52Z</time></trkpt><trkpt lat="50.116800" lon="5.507216"><ele>417.682</ele><time>2022-09-17T11:03:53Z</time></trkpt><trkpt lat="50.116691" lon="5.507363"><ele>419.234</ele><time>2022-09-17T11:03:54Z</time></trkpt><trkpt lat="50.116583" lon="5.507527"><ele>420.870</ele><time>2022-09-17T11:03:55Z</time></trkpt><trkpt lat="50.116492" lon="5.507717"><ele>422.425</ele><time>2022-09-17T11:03:56Z</time></trkpt><trkpt lat="50.116408" lon="5.507896"><ele>423.890</ele><time>2022-09-17T11:03:57Z</time></trkpt><trkpt lat="50.116318" lon="5.508076"><ele>425.145</ele><time>2022-09-17T11:03:58Z</time></trkpt><trkpt lat="50.116233" lon="5.508267"><ele>426.469</ele><time>2022-09-17T11:03:59Z</time></trkpt><trkpt lat="50.116144" lon="5.508443"><ele>427.646</ele><time>2022-09-17T11:04:00Z</time></trkpt><trkpt lat="50.116030" lon="5.508613"><ele>428.571</ele><time>2022-09-17T11:04:01Z</time></trkpt><trkpt lat="50.115924" lon="5.508785"><ele>429.241</ele><time>2022-09-17T11:04:02Z</time></trkpt><trkpt lat="50.115816" lon="5.508950"><ele>429.915</ele><time>2022-09-17T11:04:03Z</time></trkpt><trkpt lat="50.115704" lon="5.509104"><ele>430.609</ele><time>2022-09-17T11:04:04Z</time></trkpt><trkpt lat="50.115590" lon="5.509261"><ele>431.368</ele><time>2022-09-17T11:04:05Z</time></trkpt><trkpt lat="50.115479" lon="5.509394"><ele>432.018</ele><time>2022-09-17T11:04:06Z</time></trkpt><trkpt lat="50.115367" lon="5.509528"><ele>432.640</ele><time>2022-09-17T11:04:07Z</time></trkpt><trkpt lat="50.115251" lon="5.509667"><ele>433.196</ele><time>2022-09-17T11:04:08Z</time></trkpt><trkpt lat="50.115134" lon="5.509803"><ele>433.751</ele><time>2022-09-17T11:04:09Z</time></trkpt><trkpt lat="50.115011" lon="5.509941"><ele>434.286</ele><time>2022-09-17T11:04:10Z</time></trkpt><trkpt lat="50.114885" lon="5.510083"><ele>434.631</ele><time>2022-09-17T11:04:11Z</time></trkpt><trkpt lat="50.114746" lon="5.510248"><ele>435.075</ele><time>2022-09-17T11:04:12Z</time></trkpt><trkpt lat="50.114592" lon="5.510378"><ele>435.462</ele><time>2022-09-17T11:04:13Z</time></trkpt><trkpt lat="50.114433" lon="5.510513"><ele>435.882</ele><time>2022-09-17T11:04:14Z</time></trkpt><trkpt lat="50.114272" lon="5.510664"><ele>436.043</ele><time>2022-09-17T11:04:15Z</time></trkpt><trkpt lat="50.114115" lon="5.510815"><ele>435.917</ele><time>2022-09-17T11:04:16Z</time></trkpt><trkpt lat="50.113954" lon="5.510975"><ele>435.709</ele><time>2022-09-17T11:04:17Z</time></trkpt><trkpt lat="50.113790" lon="5.511149"><ele>435.559</ele><time>2022-09-17T11:04:18Z</time></trkpt><trkpt lat="50.113627" lon="5.511320"><ele>435.469</ele><time>2022-09-17T11:04:19Z</time></trkpt><trkpt lat="50.113470" lon="5.511484"><ele>435.431</ele><time>2022-09-17T11:04:20Z</time></trkpt><trkpt lat="50.113314" lon="5.511629"><ele>435.827</ele><time>2022-09-17T11:04:21Z</time></trkpt><trkpt lat="50.113180" lon="5.511776"><ele>436.852</ele><time>2022-09-17T11:04:22Z</time></trkpt><trkpt lat="50.113049" lon="5.511907"><ele>437.957</ele><time>2022-09-17T11:04:23Z</time></trkpt><trkpt lat="50.112912" lon="5.512031"><ele>439.042</ele><time>2022-09-17T11:04:24Z</time></trkpt><trkpt lat="50.112766" lon="5.512140"><ele>440.216</ele><time>2022-09-17T11:04:25Z</time></trkpt><trkpt lat="50.112641" lon="5.512228"><ele>441.523</ele><time>2022-09-17T11:04:26Z</time></trkpt><trkpt lat="50.112524" lon="5.512300"><ele>442.239</ele><time>2022-09-17T11:04:27Z</time></trkpt><trkpt lat="50.112423" lon="5.512351"><ele>443.501</ele><time>2022-09-17T11:04:28Z</time></trkpt><trkpt lat="50.112339" lon="5.512396"><ele>444.621</ele><time>2022-09-17T11:04:29Z</time></trkpt><trkpt lat="50.112263" lon="5.512440"><ele>445.609</ele><time>2022-09-17T11:04:30Z</time></trkpt><trkpt lat="50.112206" lon="5.512489"><ele>445.924</ele><time>2022-09-17T11:04:31Z</time></trkpt><trkpt lat="50.112165" lon="5.512607"><ele>446.494</ele><time>2022-09-17T11:04:33Z</time></trkpt><trkpt lat="50.112151" lon="5.512676"><ele>446.896</ele><time>2022-09-17T11:04:34Z</time></trkpt><trkpt lat="50.112150" lon="5.512762"><ele>447.092</ele><time>2022-09-17T11:04:35Z</time></trkpt><trkpt lat="50.112149" lon="5.512867"><ele>447.177</ele><time>2022-09-17T11:04:36Z</time></trkpt><trkpt lat="50.112147" lon="5.513000"><ele>447.352</ele><time>2022-09-17T11:04:37Z</time></trkpt><trkpt lat="50.112145" lon="5.513156"><ele>447.577</ele><time>2022-09-17T11:04:38Z</time></trkpt><trkpt lat="50.112143" lon="5.513327"><ele>447.741</ele><time>2022-09-17T11:04:39Z</time></trkpt><trkpt lat="50.112140" lon="5.513543"><ele>447.798</ele><time>2022-09-17T11:04:40Z</time></trkpt><trkpt lat="50.112137" lon="5.513751"><ele>447.787</ele><time>2022-09-17T11:04:41Z</time></trkpt><trkpt lat="50.112134" lon="5.513985"><ele>447.742</ele><time>2022-09-17T11:04:42Z</time></trkpt><trkpt lat="50.112341" lon="5.514241"><ele>447.526</ele><time>2022-09-17T11:04:43Z</time></trkpt><trkpt lat="50.112364" lon="5.514471"><ele>447.209</ele><time>2022-09-17T11:04:44Z</time></trkpt><trkpt lat="50.112398" lon="5.514706"><ele>446.629</ele><time>2022-09-17T11:04:45Z</time></trkpt><trkpt lat="50.112411" lon="5.514943"><ele>445.949</ele><time>2022-09-17T11:04:46Z</time></trkpt><trkpt lat="50.112389" lon="5.515187"><ele>445.491</ele><time>2022-09-17T11:04:47Z</time></trkpt><trkpt lat="50.112358" lon="5.515420"><ele>444.997</ele><time>2022-09-17T11:04:48Z</time></trkpt><trkpt lat="50.112327" lon="5.515656"><ele>444.352</ele><time>2022-09-17T11:04:49Z</time></trkpt><trkpt lat="50.112302" lon="5.515887"><ele>443.957</ele><time>2022-09-17T11:04:50Z</time></trkpt><trkpt lat="50.112260" lon="5.516129"><ele>443.852</ele><time>2022-09-17T11:04:51Z</time></trkpt><trkpt lat="50.112221" lon="5.516381"><ele>443.716</ele><time>2022-09-17T11:04:52Z</time></trkpt><trkpt lat="50.112181" lon="5.516646"><ele>443.743</ele><time>2022-09-17T11:04:53Z</time></trkpt><trkpt lat="50.112141" lon="5.516911"><ele>443.715</ele><time>2022-09-17T11:04:54Z</time></trkpt><trkpt lat="50.112112" lon="5.517160"><ele>443.765</ele><time>2022-09-17T11:04:55Z</time></trkpt><trkpt lat="50.112080" lon="5.517382"><ele>443.511</ele><time>2022-09-17T11:04:56Z</time></trkpt><trkpt lat="50.112048" lon="5.517586"><ele>442.909</ele><time>2022-09-17T11:04:57Z</time></trkpt><trkpt lat="50.112028" lon="5.517777"><ele>442.582</ele><time>2022-09-17T11:04:58Z</time></trkpt><trkpt lat="50.111998" lon="5.517976"><ele>442.252</ele><time>2022-09-17T11:04:59Z</time></trkpt><trkpt lat="50.111980" lon="5.518179"><ele>441.884</ele><time>2022-09-17T11:05:00Z</time></trkpt><trkpt lat="50.111970" lon="5.518395"><ele>441.810</ele><time>2022-09-17T11:05:01Z</time></trkpt><trkpt lat="50.111956" lon="5.518619"><ele>442.075</ele><time>2022-09-17T11:05:02Z</time></trkpt><trkpt lat="50.111953" lon="5.518838"><ele>442.380</ele><time>2022-09-17T11:05:03Z</time></trkpt><trkpt lat="50.111946" lon="5.519081"><ele>442.575</ele><time>2022-09-17T11:05:04Z</time></trkpt><trkpt lat="50.111946" lon="5.519309"><ele>442.639</ele><time>2022-09-17T11:05:05Z</time></trkpt><trkpt lat="50.111963" lon="5.519508"><ele>442.726</ele><time>2022-09-17T11:05:06Z</time></trkpt><trkpt lat="50.111966" lon="5.519705"><ele>442.829</ele><time>2022-09-17T11:05:07Z</time></trkpt><trkpt lat="50.111958" lon="5.519900"><ele>442.800</ele><time>2022-09-17T11:05:08Z</time></trkpt><trkpt lat="50.111945" lon="5.520102"><ele>443.320</ele><time>2022-09-17T11:05:09Z</time></trkpt><trkpt lat="50.111912" lon="5.520305"><ele>443.609</ele><time>2022-09-17T11:05:10Z</time></trkpt><trkpt lat="50.111886" lon="5.520512"><ele>444.093</ele><time>2022-09-17T11:05:11Z</time></trkpt><trkpt lat="50.111869" lon="5.520726"><ele>444.153</ele><time>2022-09-17T11:05:12Z</time></trkpt><trkpt lat="50.111858" lon="5.520930"><ele>443.995</ele><time>2022-09-17T11:05:13Z</time></trkpt><trkpt lat="50.111851" lon="5.521123"><ele>443.761</ele><time>2022-09-17T11:05:14Z</time></trkpt><trkpt lat="50.111853" lon="5.521317"><ele>443.096</ele><time>2022-09-17T11:05:15Z</time></trkpt><trkpt lat="50.111859" lon="5.521482"><ele>442.311</ele><time>2022-09-17T11:05:16Z</time></trkpt><trkpt lat="50.111865" lon="5.521646"><ele>441.996</ele><time>2022-09-17T11:05:17Z</time></trkpt><trkpt lat="50.111880" lon="5.521805"><ele>441.390</ele><time>2022-09-17T11:05:18Z</time></trkpt><trkpt lat="50.111893" lon="5.521970"><ele>441.137</ele><time>2022-09-17T11:05:19Z</time></trkpt><trkpt lat="50.111911" lon="5.522170"><ele>441.133</ele><time>2022-09-17T11:05:20Z</time></trkpt><trkpt lat="50.111942" lon="5.522365"><ele>441.223</ele><time>2022-09-17T11:05:21Z</time></trkpt><trkpt lat="50.111964" lon="5.522553"><ele>441.315</ele><time>2022-09-17T11:05:22Z</time></trkpt><trkpt lat="50.111991" lon="5.522736"><ele>441.409</ele><time>2022-09-17T11:05:23Z</time></trkpt><trkpt lat="50.112023" lon="5.522901"><ele>441.464</ele><time>2022-09-17T11:05:24Z</time></trkpt><trkpt lat="50.112021" lon="5.523100"><ele>441.574</ele><time>2022-09-17T11:05:25Z</time></trkpt><trkpt lat="50.112020" lon="5.523318"><ele>441.596</ele><time>2022-09-17T11:05:26Z</time></trkpt><trkpt lat="50.112018" lon="5.523509"><ele>441.632</ele><time>2022-09-17T11:05:27Z</time></trkpt><trkpt lat="50.112002" lon="5.523721"><ele>442.017</ele><time>2022-09-17T11:05:28Z</time></trkpt><trkpt lat="50.112006" lon="5.523905"><ele>442.472</ele><time>2022-09-17T11:05:29Z</time></trkpt><trkpt lat="50.112014" lon="5.524090"><ele>442.517</ele><time>2022-09-17T11:05:30Z</time></trkpt><trkpt lat="50.112024" lon="5.524258"><ele>442.521</ele><time>2022-09-17T11:05:31Z</time></trkpt><trkpt lat="50.112021" lon="5.524425"><ele>442.588</ele><time>2022-09-17T11:05:32Z</time></trkpt><trkpt lat="50.111997" lon="5.524603"><ele>442.077</ele><time>2022-09-17T11:05:33Z</time></trkpt><trkpt lat="50.111957" lon="5.524840"><ele>441.861</ele><time>2022-09-17T11:05:34Z</time></trkpt><trkpt lat="50.111918" lon="5.525083"><ele>441.827</ele><time>2022-09-17T11:05:35Z</time></trkpt><trkpt lat="50.111891" lon="5.525347"><ele>441.709</ele><time>2022-09-17T11:05:36Z</time></trkpt><trkpt lat="50.111863" lon="5.525589"><ele>441.178</ele><time>2022-09-17T11:05:37Z</time></trkpt><trkpt lat="50.111848" lon="5.525791"><ele>440.128</ele><time>2022-09-17T11:05:38Z</time></trkpt><trkpt lat="50.111820" lon="5.525964"><ele>439.670</ele><time>2022-09-17T11:05:39Z</time></trkpt><trkpt lat="50.111791" lon="5.526140"><ele>438.396</ele><time>2022-09-17T11:05:40Z</time></trkpt><trkpt lat="50.111758" lon="5.526294"><ele>437.191</ele><time>2022-09-17T11:05:41Z</time></trkpt><trkpt lat="50.111741" lon="5.526403"><ele>436.786</ele><time>2022-09-17T11:05:42Z</time></trkpt><trkpt lat="50.111720" lon="5.526478"><ele>436.911</ele><time>2022-09-17T11:05:43Z</time></trkpt><trkpt lat="50.111692" lon="5.526539"><ele>436.975</ele><time>2022-09-17T11:05:44Z</time></trkpt><trkpt lat="50.111620" lon="5.526582"><ele>437.182</ele><time>2022-09-17T11:05:46Z</time></trkpt><trkpt lat="50.111550" lon="5.526474"><ele>437.426</ele><time>2022-09-17T11:05:48Z</time></trkpt><trkpt lat="50.111497" lon="5.526340"><ele>437.547</ele><time>2022-09-17T11:05:49Z</time></trkpt><trkpt lat="50.111421" lon="5.526072"><ele>437.511</ele><time>2022-09-17T11:05:50Z</time></trkpt><trkpt lat="50.111322" lon="5.525881"><ele>437.509</ele><time>2022-09-17T11:05:51Z</time></trkpt><trkpt lat="50.111197" lon="5.525674"><ele>437.523</ele><time>2022-09-17T11:05:52Z</time></trkpt><trkpt lat="50.111074" lon="5.525486"><ele>437.593</ele><time>2022-09-17T11:05:53Z</time></trkpt><trkpt lat="50.110987" lon="5.525261"><ele>437.525</ele><time>2022-09-17T11:05:54Z</time></trkpt><trkpt lat="50.110849" lon="5.525122"><ele>437.421</ele><time>2022-09-17T11:05:55Z</time></trkpt><trkpt lat="50.110734" lon="5.524931"><ele>437.256</ele><time>2022-09-17T11:05:56Z</time></trkpt><trkpt lat="50.110624" lon="5.524743"><ele>436.911</ele><time>2022-09-17T11:05:57Z</time></trkpt><trkpt lat="50.110508" lon="5.524553"><ele>436.546</ele><time>2022-09-17T11:05:58Z</time></trkpt><trkpt lat="50.110391" lon="5.524362"><ele>436.190</ele><time>2022-09-17T11:05:59Z</time></trkpt><trkpt lat="50.110270" lon="5.524161"><ele>435.687</ele><time>2022-09-17T11:06:00Z</time></trkpt><trkpt lat="50.110147" lon="5.523960"><ele>435.365</ele><time>2022-09-17T11:06:01Z</time></trkpt><trkpt lat="50.110025" lon="5.523753"><ele>435.168</ele><time>2022-09-17T11:06:02Z</time></trkpt><trkpt lat="50.109902" lon="5.523547"><ele>434.714</ele><time>2022-09-17T11:06:03Z</time></trkpt><trkpt lat="50.109780" lon="5.523345"><ele>434.309</ele><time>2022-09-17T11:06:04Z</time></trkpt><trkpt lat="50.109658" lon="5.523150"><ele>433.937</ele><time>2022-09-17T11:06:05Z</time></trkpt><trkpt lat="50.109571" lon="5.522901"><ele>433.427</ele><time>2022-09-17T11:06:06Z</time></trkpt><trkpt lat="50.109448" lon="5.522697"><ele>432.999</ele><time>2022-09-17T11:06:07Z</time></trkpt><trkpt lat="50.109333" lon="5.522505"><ele>432.545</ele><time>2022-09-17T11:06:08Z</time></trkpt><trkpt lat="50.109223" lon="5.522322"><ele>432.140</ele><time>2022-09-17T11:06:09Z</time></trkpt><trkpt lat="50.109115" lon="5.522142"><ele>431.525</ele><time>2022-09-17T11:06:10Z</time></trkpt><trkpt lat="50.109007" lon="5.521962"><ele>430.940</ele><time>2022-09-17T11:06:11Z</time></trkpt><trkpt lat="50.108898" lon="5.521780"><ele>430.494</ele><time>2022-09-17T11:06:12Z</time></trkpt><trkpt lat="50.108789" lon="5.521599"><ele>429.811</ele><time>2022-09-17T11:06:13Z</time></trkpt><trkpt lat="50.108681" lon="5.521418"><ele>429.354</ele><time>2022-09-17T11:06:14Z</time></trkpt><trkpt lat="50.108570" lon="5.521232"><ele>429.056</ele><time>2022-09-17T11:06:15Z</time></trkpt><trkpt lat="50.108455" lon="5.521040"><ele>428.711</ele><time>2022-09-17T11:06:16Z</time></trkpt><trkpt lat="50.108342" lon="5.520852"><ele>428.209</ele><time>2022-09-17T11:06:17Z</time></trkpt><trkpt lat="50.108234" lon="5.520670"><ele>427.866</ele><time>2022-09-17T11:06:18Z</time></trkpt><trkpt lat="50.108134" lon="5.520496"><ele>427.676</ele><time>2022-09-17T11:06:19Z</time></trkpt><trkpt lat="50.108041" lon="5.520333"><ele>427.078</ele><time>2022-09-17T11:06:20Z</time></trkpt><trkpt lat="50.107960" lon="5.520186"><ele>426.554</ele><time>2022-09-17T11:06:21Z</time></trkpt><trkpt lat="50.107885" lon="5.520015"><ele>426.329</ele><time>2022-09-17T11:06:22Z</time></trkpt><trkpt lat="50.107812" lon="5.519843"><ele>426.054</ele><time>2022-09-17T11:06:23Z</time></trkpt><trkpt lat="50.107738" lon="5.519684"><ele>425.929</ele><time>2022-09-17T11:06:24Z</time></trkpt><trkpt lat="50.107701" lon="5.519503"><ele>425.683</ele><time>2022-09-17T11:06:25Z</time></trkpt><trkpt lat="50.107678" lon="5.519346"><ele>425.470</ele><time>2022-09-17T11:06:26Z</time></trkpt><trkpt lat="50.107664" lon="5.519203"><ele>424.817</ele><time>2022-09-17T11:06:27Z</time></trkpt><trkpt lat="50.107651" lon="5.519095"><ele>424.687</ele><time>2022-09-17T11:06:28Z</time></trkpt><trkpt lat="50.107629" lon="5.519015"><ele>424.015</ele><time>2022-09-17T11:06:29Z</time></trkpt><trkpt lat="50.107487" lon="5.519028"><ele>423.209</ele><time>2022-09-17T11:06:32Z</time></trkpt><trkpt lat="50.107471" lon="5.519159"><ele>421.872</ele><time>2022-09-17T11:06:33Z</time></trkpt><trkpt lat="50.107455" lon="5.519287"><ele>421.482</ele><time>2022-09-17T11:06:34Z</time></trkpt><trkpt lat="50.107428" lon="5.519511"><ele>421.134</ele><time>2022-09-17T11:06:35Z</time></trkpt><trkpt lat="50.107413" lon="5.519742"><ele>420.650</ele><time>2022-09-17T11:06:36Z</time></trkpt><trkpt lat="50.107383" lon="5.519957"><ele>420.255</ele><time>2022-09-17T11:06:37Z</time></trkpt><trkpt lat="50.107348" lon="5.520171"><ele>419.750</ele><time>2022-09-17T11:06:38Z</time></trkpt><trkpt lat="50.107324" lon="5.520381"><ele>419.155</ele><time>2022-09-17T11:06:39Z</time></trkpt><trkpt lat="50.107299" lon="5.520595"><ele>418.589</ele><time>2022-09-17T11:06:40Z</time></trkpt><trkpt lat="50.107258" lon="5.520824"><ele>417.866</ele><time>2022-09-17T11:06:41Z</time></trkpt><trkpt lat="50.107205" lon="5.521053"><ele>417.047</ele><time>2022-09-17T11:06:42Z</time></trkpt><trkpt lat="50.107163" lon="5.521268"><ele>416.429</ele><time>2022-09-17T11:06:43Z</time></trkpt><trkpt lat="50.107123" lon="5.521477"><ele>415.621</ele><time>2022-09-17T11:06:44Z</time></trkpt><trkpt lat="50.107086" lon="5.521671"><ele>414.609</ele><time>2022-09-17T11:06:45Z</time></trkpt><trkpt lat="50.107051" lon="5.521856"><ele>414.245</ele><time>2022-09-17T11:06:46Z</time></trkpt><trkpt lat="50.107035" lon="5.522030"><ele>413.595</ele><time>2022-09-17T11:06:47Z</time></trkpt><trkpt lat="50.107001" lon="5.522204"><ele>412.677</ele><time>2022-09-17T11:06:48Z</time></trkpt><trkpt lat="50.106969" lon="5.522378"><ele>411.873</ele><time>2022-09-17T11:06:49Z</time></trkpt><trkpt lat="50.106925" lon="5.522587"><ele>411.658</ele><time>2022-09-17T11:06:50Z</time></trkpt><trkpt lat="50.106882" lon="5.522794"><ele>411.253</ele><time>2022-09-17T11:06:51Z</time></trkpt><trkpt lat="50.106841" lon="5.522998"><ele>411.028</ele><time>2022-09-17T11:06:52Z</time></trkpt><trkpt lat="50.106796" lon="5.523217"><ele>411.042</ele><time>2022-09-17T11:06:53Z</time></trkpt><trkpt lat="50.106748" lon="5.523431"><ele>411.059</ele><time>2022-09-17T11:06:54Z</time></trkpt><trkpt lat="50.106666" lon="5.523628"><ele>411.125</ele><time>2022-09-17T11:06:55Z</time></trkpt><trkpt lat="50.106595" lon="5.523827"><ele>411.326</ele><time>2022-09-17T11:06:56Z</time></trkpt><trkpt lat="50.106526" lon="5.524022"><ele>411.508</ele><time>2022-09-17T11:06:57Z</time></trkpt><trkpt lat="50.106463" lon="5.524224"><ele>412.009</ele><time>2022-09-17T11:06:58Z</time></trkpt><trkpt lat="50.106427" lon="5.524445"><ele>412.633</ele><time>2022-09-17T11:06:59Z</time></trkpt><trkpt lat="50.106410" lon="5.524678"><ele>413.223</ele><time>2022-09-17T11:07:00Z</time></trkpt><trkpt lat="50.106380" lon="5.524902"><ele>413.995</ele><time>2022-09-17T11:07:01Z</time></trkpt><trkpt lat="50.106347" lon="5.525115"><ele>414.711</ele><time>2022-09-17T11:07:02Z</time></trkpt><trkpt lat="50.106307" lon="5.525330"><ele>415.536</ele><time>2022-09-17T11:07:03Z</time></trkpt><trkpt lat="50.106252" lon="5.525541"><ele>416.151</ele><time>2022-09-17T11:07:04Z</time></trkpt><trkpt lat="50.106181" lon="5.525767"><ele>416.726</ele><time>2022-09-17T11:07:05Z</time></trkpt><trkpt lat="50.106103" lon="5.525981"><ele>417.360</ele><time>2022-09-17T11:07:06Z</time></trkpt><trkpt lat="50.106015" lon="5.526200"><ele>417.837</ele><time>2022-09-17T11:07:07Z</time></trkpt><trkpt lat="50.105933" lon="5.526426"><ele>418.353</ele><time>2022-09-17T11:07:08Z</time></trkpt><trkpt lat="50.105855" lon="5.526657"><ele>419.104</ele><time>2022-09-17T11:07:09Z</time></trkpt><trkpt lat="50.105775" lon="5.526894"><ele>419.714</ele><time>2022-09-17T11:07:10Z</time></trkpt><trkpt lat="50.105696" lon="5.527128"><ele>420.309</ele><time>2022-09-17T11:07:11Z</time></trkpt><trkpt lat="50.105625" lon="5.527352"><ele>420.946</ele><time>2022-09-17T11:07:12Z</time></trkpt><trkpt lat="50.105552" lon="5.527568"><ele>421.486</ele><time>2022-09-17T11:07:13Z</time></trkpt><trkpt lat="50.105482" lon="5.527782"><ele>421.828</ele><time>2022-09-17T11:07:14Z</time></trkpt><trkpt lat="50.105418" lon="5.527978"><ele>422.214</ele><time>2022-09-17T11:07:15Z</time></trkpt><trkpt lat="50.105360" lon="5.528145"><ele>422.429</ele><time>2022-09-17T11:07:16Z</time></trkpt><trkpt lat="50.105318" lon="5.528295"><ele>422.514</ele><time>2022-09-17T11:07:17Z</time></trkpt><trkpt lat="50.105283" lon="5.528431"><ele>422.929</ele><time>2022-09-17T11:07:18Z</time></trkpt><trkpt lat="50.105246" lon="5.528562"><ele>423.213</ele><time>2022-09-17T11:07:19Z</time></trkpt><trkpt lat="50.105207" lon="5.528718"><ele>423.220</ele><time>2022-09-17T11:07:20Z</time></trkpt><trkpt lat="50.105166" lon="5.528867"><ele>423.214</ele><time>2022-09-17T11:07:21Z</time></trkpt><trkpt lat="50.105119" lon="5.529022"><ele>423.154</ele><time>2022-09-17T11:07:22Z</time></trkpt><trkpt lat="50.105074" lon="5.529175"><ele>422.709</ele><time>2022-09-17T11:07:23Z</time></trkpt><trkpt lat="50.105026" lon="5.529324"><ele>422.109</ele><time>2022-09-17T11:07:24Z</time></trkpt><trkpt lat="50.104983" lon="5.529469"><ele>421.592</ele><time>2022-09-17T11:07:25Z</time></trkpt><trkpt lat="50.104936" lon="5.529635"><ele>420.942</ele><time>2022-09-17T11:07:26Z</time></trkpt><trkpt lat="50.104888" lon="5.529814"><ele>420.114</ele><time>2022-09-17T11:07:27Z</time></trkpt><trkpt lat="50.104838" lon="5.529981"><ele>419.510</ele><time>2022-09-17T11:07:28Z</time></trkpt><trkpt lat="50.104785" lon="5.530163"><ele>418.975</ele><time>2022-09-17T11:07:29Z</time></trkpt><trkpt lat="50.104736" lon="5.530358"><ele>418.310</ele><time>2022-09-17T11:07:30Z</time></trkpt><trkpt lat="50.104692" lon="5.530545"><ele>417.445</ele><time>2022-09-17T11:07:31Z</time></trkpt><trkpt lat="50.104642" lon="5.530723"><ele>416.639</ele><time>2022-09-17T11:07:32Z</time></trkpt><trkpt lat="50.104608" lon="5.530885"><ele>415.656</ele><time>2022-09-17T11:07:33Z</time></trkpt><trkpt lat="50.104567" lon="5.531035"><ele>415.054</ele><time>2022-09-17T11:07:34Z</time></trkpt><trkpt lat="50.104533" lon="5.531175"><ele>414.256</ele><time>2022-09-17T11:07:35Z</time></trkpt><trkpt lat="50.104503" lon="5.531298"><ele>413.911</ele><time>2022-09-17T11:07:36Z</time></trkpt><trkpt lat="50.104475" lon="5.531419"><ele>413.809</ele><time>2022-09-17T11:07:37Z</time></trkpt><trkpt lat="50.104434" lon="5.531536"><ele>413.746</ele><time>2022-09-17T11:07:38Z</time></trkpt><trkpt lat="50.104386" lon="5.531668"><ele>413.656</ele><time>2022-09-17T11:07:39Z</time></trkpt><trkpt lat="50.104347" lon="5.531797"><ele>413.538</ele><time>2022-09-17T11:07:40Z</time></trkpt><trkpt lat="50.104324" lon="5.531924"><ele>413.394</ele><time>2022-09-17T11:07:41Z</time></trkpt><trkpt lat="50.104298" lon="5.532040"><ele>413.369</ele><time>2022-09-17T11:07:42Z</time></trkpt><trkpt lat="50.104279" lon="5.532153"><ele>413.364</ele><time>2022-09-17T11:07:43Z</time></trkpt><trkpt lat="50.104236" lon="5.532283"><ele>413.339</ele><time>2022-09-17T11:07:44Z</time></trkpt><trkpt lat="50.104198" lon="5.532398"><ele>413.363</ele><time>2022-09-17T11:07:45Z</time></trkpt><trkpt lat="50.104142" lon="5.532539"><ele>413.360</ele><time>2022-09-17T11:07:46Z</time></trkpt><trkpt lat="50.104091" lon="5.532696"><ele>413.122</ele><time>2022-09-17T11:07:47Z</time></trkpt><trkpt lat="50.104049" lon="5.532854"><ele>413.162</ele><time>2022-09-17T11:07:48Z</time></trkpt><trkpt lat="50.104000" lon="5.533007"><ele>412.908</ele><time>2022-09-17T11:07:49Z</time></trkpt><trkpt lat="50.103946" lon="5.533159"><ele>412.609</ele><time>2022-09-17T11:07:50Z</time></trkpt><trkpt lat="50.103903" lon="5.533295"><ele>412.643</ele><time>2022-09-17T11:07:51Z</time></trkpt><trkpt lat="50.103851" lon="5.533418"><ele>412.613</ele><time>2022-09-17T11:07:52Z</time></trkpt><trkpt lat="50.103810" lon="5.533522"><ele>412.685</ele><time>2022-09-17T11:07:53Z</time></trkpt><trkpt lat="50.103760" lon="5.533596"><ele>412.631</ele><time>2022-09-17T11:07:54Z</time></trkpt><trkpt lat="50.103699" lon="5.533642"><ele>412.886</ele><time>2022-09-17T11:07:55Z</time></trkpt><trkpt lat="50.103622" lon="5.533650"><ele>413.181</ele><time>2022-09-17T11:07:56Z</time></trkpt><trkpt lat="50.103523" lon="5.533638"><ele>413.456</ele><time>2022-09-17T11:07:57Z</time></trkpt><trkpt lat="50.103421" lon="5.533612"><ele>413.860</ele><time>2022-09-17T11:07:58Z</time></trkpt><trkpt lat="50.103305" lon="5.533586"><ele>414.057</ele><time>2022-09-17T11:07:59Z</time></trkpt><trkpt lat="50.103184" lon="5.533563"><ele>414.011</ele><time>2022-09-17T11:08:00Z</time></trkpt><trkpt lat="50.103072" lon="5.533558"><ele>413.621</ele><time>2022-09-17T11:08:01Z</time></trkpt><trkpt lat="50.102962" lon="5.533553"><ele>413.103</ele><time>2022-09-17T11:08:02Z</time></trkpt><trkpt lat="50.102852" lon="5.533538"><ele>412.509</ele><time>2022-09-17T11:08:03Z</time></trkpt><trkpt lat="50.102749" lon="5.533542"><ele>412.012</ele><time>2022-09-17T11:08:04Z</time></trkpt><trkpt lat="50.102634" lon="5.533521"><ele>411.492</ele><time>2022-09-17T11:08:05Z</time></trkpt><trkpt lat="50.102522" lon="5.533496"><ele>411.144</ele><time>2022-09-17T11:08:06Z</time></trkpt><trkpt lat="50.102411" lon="5.533481"><ele>410.890</ele><time>2022-09-17T11:08:07Z</time></trkpt><trkpt lat="50.102291" lon="5.533463"><ele>410.635</ele><time>2022-09-17T11:08:08Z</time></trkpt><trkpt lat="50.102172" lon="5.533452"><ele>410.340</ele><time>2022-09-17T11:08:09Z</time></trkpt><trkpt lat="50.102058" lon="5.533420"><ele>410.035</ele><time>2022-09-17T11:08:10Z</time></trkpt><trkpt lat="50.101945" lon="5.533391"><ele>409.879</ele><time>2022-09-17T11:08:11Z</time></trkpt><trkpt lat="50.101821" lon="5.533361"><ele>409.636</ele><time>2022-09-17T11:08:12Z</time></trkpt><trkpt lat="50.101702" lon="5.533349"><ele>409.239</ele><time>2022-09-17T11:08:13Z</time></trkpt><trkpt lat="50.101585" lon="5.533332"><ele>408.801</ele><time>2022-09-17T11:08:14Z</time></trkpt><trkpt lat="50.101467" lon="5.533317"><ele>408.221</ele><time>2022-09-17T11:08:15Z</time></trkpt><trkpt lat="50.101350" lon="5.533306"><ele>408.009</ele><time>2022-09-17T11:08:16Z</time></trkpt><trkpt lat="50.101227" lon="5.533277"><ele>407.764</ele><time>2022-09-17T11:08:17Z</time></trkpt><trkpt lat="50.101110" lon="5.533265"><ele>407.484</ele><time>2022-09-17T11:08:18Z</time></trkpt><trkpt lat="50.100996" lon="5.533237"><ele>407.076</ele><time>2022-09-17T11:08:19Z</time></trkpt><trkpt lat="50.100878" lon="5.533199"><ele>407.052</ele><time>2022-09-17T11:08:20Z</time></trkpt><trkpt lat="50.100767" lon="5.533161"><ele>406.467</ele><time>2022-09-17T11:08:21Z</time></trkpt><trkpt lat="50.100667" lon="5.533117"><ele>405.672</ele><time>2022-09-17T11:08:22Z</time></trkpt><trkpt lat="50.100575" lon="5.533084"><ele>404.887</ele><time>2022-09-17T11:08:23Z</time></trkpt><trkpt lat="50.100487" lon="5.533036"><ele>404.361</ele><time>2022-09-17T11:08:24Z</time></trkpt><trkpt lat="50.100407" lon="5.532991"><ele>403.668</ele><time>2022-09-17T11:08:25Z</time></trkpt><trkpt lat="50.100329" lon="5.532947"><ele>403.529</ele><time>2022-09-17T11:08:26Z</time></trkpt><trkpt lat="50.100260" lon="5.532910"><ele>403.200</ele><time>2022-09-17T11:08:27Z</time></trkpt><trkpt lat="50.100199" lon="5.532870"><ele>403.120</ele><time>2022-09-17T11:08:28Z</time></trkpt><trkpt lat="50.100150" lon="5.532837"><ele>403.109</ele><time>2022-09-17T11:08:29Z</time></trkpt><trkpt lat="50.100107" lon="5.532815"><ele>403.133</ele><time>2022-09-17T11:08:30Z</time></trkpt><trkpt lat="50.100064" lon="5.532787"><ele>403.113</ele><time>2022-09-17T11:08:31Z</time></trkpt><trkpt lat="50.100057" lon="5.532698"><ele>403.185</ele><time>2022-09-17T11:08:32Z</time></trkpt><trkpt lat="50.100001" lon="5.532617"><ele>403.191</ele><time>2022-09-17T11:08:34Z</time></trkpt><trkpt lat="50.099970" lon="5.532542"><ele>403.226</ele><time>2022-09-17T11:08:50Z</time></trkpt><trkpt lat="50.099922" lon="5.532456"><ele>403.471</ele><time>2022-09-17T11:08:51Z</time></trkpt><trkpt lat="50.099844" lon="5.532318"><ele>403.756</ele><time>2022-09-17T11:08:52Z</time></trkpt><trkpt lat="50.099771" lon="5.532155"><ele>403.740</ele><time>2022-09-17T11:08:53Z</time></trkpt><trkpt lat="50.099657" lon="5.531972"><ele>403.327</ele><time>2022-09-17T11:08:54Z</time></trkpt><trkpt lat="50.099546" lon="5.531765"><ele>403.014</ele><time>2022-09-17T11:08:55Z</time></trkpt><trkpt lat="50.099442" lon="5.531524"><ele>402.954</ele><time>2022-09-17T11:08:56Z</time></trkpt><trkpt lat="50.099315" lon="5.531273"><ele>403.109</ele><time>2022-09-17T11:08:57Z</time></trkpt><trkpt lat="50.099178" lon="5.531008"><ele>403.609</ele><time>2022-09-17T11:08:58Z</time></trkpt><trkpt lat="50.099040" lon="5.530784"><ele>404.442</ele><time>2022-09-17T11:08:59Z</time></trkpt><trkpt lat="50.098916" lon="5.530539"><ele>405.182</ele><time>2022-09-17T11:09:00Z</time></trkpt><trkpt lat="50.098792" lon="5.530290"><ele>405.754</ele><time>2022-09-17T11:09:01Z</time></trkpt><trkpt lat="50.098668" lon="5.530051"><ele>406.090</ele><time>2022-09-17T11:09:02Z</time></trkpt><trkpt lat="50.098543" lon="5.529803"><ele>405.855</ele><time>2022-09-17T11:09:03Z</time></trkpt><trkpt lat="50.098416" lon="5.529567"><ele>405.390</ele><time>2022-09-17T11:09:04Z</time></trkpt><trkpt lat="50.098284" lon="5.529331"><ele>404.635</ele><time>2022-09-17T11:09:05Z</time></trkpt><trkpt lat="50.098164" lon="5.529082"><ele>403.669</ele><time>2022-09-17T11:09:06Z</time></trkpt><trkpt lat="50.098079" lon="5.528820"><ele>402.126</ele><time>2022-09-17T11:09:07Z</time></trkpt><trkpt lat="50.097971" lon="5.528604"><ele>400.571</ele><time>2022-09-17T11:09:08Z</time></trkpt><trkpt lat="50.097869" lon="5.528398"><ele>399.341</ele><time>2022-09-17T11:09:09Z</time></trkpt><trkpt lat="50.097773" lon="5.528204"><ele>398.215</ele><time>2022-09-17T11:09:10Z</time></trkpt><trkpt lat="50.097664" lon="5.527993"><ele>397.309</ele><time>2022-09-17T11:09:11Z</time></trkpt><trkpt lat="50.097538" lon="5.527812"><ele>396.968</ele><time>2022-09-17T11:09:12Z</time></trkpt><trkpt lat="50.097420" lon="5.527625"><ele>396.868</ele><time>2022-09-17T11:09:13Z</time></trkpt><trkpt lat="50.097310" lon="5.527430"><ele>396.840</ele><time>2022-09-17T11:09:14Z</time></trkpt><trkpt lat="50.097206" lon="5.527245"><ele>396.816</ele><time>2022-09-17T11:09:15Z</time></trkpt><trkpt lat="50.097106" lon="5.527048"><ele>396.881</ele><time>2022-09-17T11:09:16Z</time></trkpt><trkpt lat="50.097011" lon="5.526847"><ele>396.656</ele><time>2022-09-17T11:09:17Z</time></trkpt><trkpt lat="50.096913" lon="5.526642"><ele>396.021</ele><time>2022-09-17T11:09:18Z</time></trkpt><trkpt lat="50.096809" lon="5.526449"><ele>395.375</ele><time>2022-09-17T11:09:19Z</time></trkpt><trkpt lat="50.096707" lon="5.526261"><ele>394.482</ele><time>2022-09-17T11:09:20Z</time></trkpt><trkpt lat="50.096603" lon="5.526072"><ele>393.535</ele><time>2022-09-17T11:09:21Z</time></trkpt><trkpt lat="50.096488" lon="5.525885"><ele>392.586</ele><time>2022-09-17T11:09:22Z</time></trkpt><trkpt lat="50.096359" lon="5.525711"><ele>391.514</ele><time>2022-09-17T11:09:23Z</time></trkpt><trkpt lat="50.096211" lon="5.525549"><ele>390.509</ele><time>2022-09-17T11:09:24Z</time></trkpt><trkpt lat="50.096056" lon="5.525401"><ele>389.644</ele><time>2022-09-17T11:09:25Z</time></trkpt><trkpt lat="50.095906" lon="5.525252"><ele>388.934</ele><time>2022-09-17T11:09:26Z</time></trkpt><trkpt lat="50.095766" lon="5.525110"><ele>388.516</ele><time>2022-09-17T11:09:27Z</time></trkpt><trkpt lat="50.095616" lon="5.524956"><ele>388.122</ele><time>2022-09-17T11:09:28Z</time></trkpt><trkpt lat="50.095475" lon="5.524813"><ele>387.717</ele><time>2022-09-17T11:09:29Z</time></trkpt><trkpt lat="50.095335" lon="5.524673"><ele>387.232</ele><time>2022-09-17T11:09:30Z</time></trkpt><trkpt lat="50.095195" lon="5.524556"><ele>386.737</ele><time>2022-09-17T11:09:31Z</time></trkpt><trkpt lat="50.095078" lon="5.524423"><ele>386.271</ele><time>2022-09-17T11:09:32Z</time></trkpt><trkpt lat="50.094967" lon="5.524285"><ele>385.758</ele><time>2022-09-17T11:09:33Z</time></trkpt><trkpt lat="50.094858" lon="5.524123"><ele>385.222</ele><time>2022-09-17T11:09:34Z</time></trkpt><trkpt lat="50.094768" lon="5.523959"><ele>384.862</ele><time>2022-09-17T11:09:35Z</time></trkpt><trkpt lat="50.094680" lon="5.523768"><ele>384.508</ele><time>2022-09-17T11:09:36Z</time></trkpt><trkpt lat="50.094597" lon="5.523551"><ele>384.209</ele><time>2022-09-17T11:09:37Z</time></trkpt><trkpt lat="50.094522" lon="5.523330"><ele>383.853</ele><time>2022-09-17T11:09:38Z</time></trkpt><trkpt lat="50.094453" lon="5.523094"><ele>383.533</ele><time>2022-09-17T11:09:39Z</time></trkpt><trkpt lat="50.094386" lon="5.522837"><ele>383.175</ele><time>2022-09-17T11:09:40Z</time></trkpt><trkpt lat="50.094323" lon="5.522581"><ele>382.631</ele><time>2022-09-17T11:09:41Z</time></trkpt><trkpt lat="50.094255" lon="5.522315"><ele>381.746</ele><time>2022-09-17T11:09:42Z</time></trkpt><trkpt lat="50.094200" lon="5.522048"><ele>380.871</ele><time>2022-09-17T11:09:43Z</time></trkpt><trkpt lat="50.094156" lon="5.521785"><ele>380.256</ele><time>2022-09-17T11:09:44Z</time></trkpt><trkpt lat="50.094119" lon="5.521528"><ele>379.590</ele><time>2022-09-17T11:09:45Z</time></trkpt><trkpt lat="50.094073" lon="5.521289"><ele>378.857</ele><time>2022-09-17T11:09:46Z</time></trkpt><trkpt lat="50.094003" lon="5.521064"><ele>378.269</ele><time>2022-09-17T11:09:47Z</time></trkpt><trkpt lat="50.093914" lon="5.520852"><ele>377.704</ele><time>2022-09-17T11:09:48Z</time></trkpt><trkpt lat="50.093824" lon="5.520630"><ele>377.024</ele><time>2022-09-17T11:09:49Z</time></trkpt><trkpt lat="50.093731" lon="5.520425"><ele>376.309</ele><time>2022-09-17T11:09:50Z</time></trkpt><trkpt lat="50.093630" lon="5.520221"><ele>375.787</ele><time>2022-09-17T11:09:51Z</time></trkpt><trkpt lat="50.093537" lon="5.520024"><ele>375.117</ele><time>2022-09-17T11:09:52Z</time></trkpt><trkpt lat="50.093446" lon="5.519813"><ele>374.269</ele><time>2022-09-17T11:09:53Z</time></trkpt><trkpt lat="50.093368" lon="5.519602"><ele>373.085</ele><time>2022-09-17T11:09:54Z</time></trkpt><trkpt lat="50.093294" lon="5.519376"><ele>371.750</ele><time>2022-09-17T11:09:55Z</time></trkpt><trkpt lat="50.093209" lon="5.519137"><ele>370.255</ele><time>2022-09-17T11:09:56Z</time></trkpt><trkpt lat="50.093133" lon="5.518969"><ele>368.750</ele><time>2022-09-17T11:09:57Z</time></trkpt><trkpt lat="50.093053" lon="5.518817"><ele>368.074</ele><time>2022-09-17T11:09:58Z</time></trkpt><trkpt lat="50.092979" lon="5.518669"><ele>366.921</ele><time>2022-09-17T11:09:59Z</time></trkpt><trkpt lat="50.092915" lon="5.518520"><ele>365.718</ele><time>2022-09-17T11:10:00Z</time></trkpt><trkpt lat="50.092875" lon="5.518390"><ele>364.898</ele><time>2022-09-17T11:10:01Z</time></trkpt><trkpt lat="50.092861" lon="5.518277"><ele>364.117</ele><time>2022-09-17T11:10:02Z</time></trkpt><trkpt lat="50.092838" lon="5.518196"><ele>363.809</ele><time>2022-09-17T11:10:03Z</time></trkpt><trkpt lat="50.092833" lon="5.518104"><ele>363.422</ele><time>2022-09-17T11:10:05Z</time></trkpt><trkpt lat="50.092782" lon="5.518045"><ele>363.362</ele><time>2022-09-17T11:10:06Z</time></trkpt><trkpt lat="50.092715" lon="5.518036"><ele>363.214</ele><time>2022-09-17T11:10:07Z</time></trkpt><trkpt lat="50.092647" lon="5.518032"><ele>363.210</ele><time>2022-09-17T11:10:08Z</time></trkpt><trkpt lat="50.092568" lon="5.518030"><ele>363.245</ele><time>2022-09-17T11:10:09Z</time></trkpt><trkpt lat="50.092489" lon="5.518026"><ele>363.270</ele><time>2022-09-17T11:10:10Z</time></trkpt><trkpt lat="50.092428" lon="5.518000"><ele>363.265</ele><time>2022-09-17T11:10:11Z</time></trkpt><trkpt lat="50.092377" lon="5.517963"><ele>363.219</ele><time>2022-09-17T11:10:12Z</time></trkpt><trkpt lat="50.092362" lon="5.517864"><ele>363.226</ele><time>2022-09-17T11:10:13Z</time></trkpt><trkpt lat="50.092365" lon="5.517728"><ele>363.291</ele><time>2022-09-17T11:10:14Z</time></trkpt><trkpt lat="50.092361" lon="5.517594"><ele>363.381</ele><time>2022-09-17T11:10:15Z</time></trkpt><trkpt lat="50.092350" lon="5.517490"><ele>363.519</ele><time>2022-09-17T11:10:16Z</time></trkpt><trkpt lat="50.092329" lon="5.517395"><ele>363.809</ele><time>2022-09-17T11:10:17Z</time></trkpt><trkpt lat="50.092324" lon="5.517300"><ele>364.260</ele><time>2022-09-17T11:10:18Z</time></trkpt><trkpt lat="50.092308" lon="5.517183"><ele>364.620</ele><time>2022-09-17T11:10:19Z</time></trkpt><trkpt lat="50.092288" lon="5.517034"><ele>365.232</ele><time>2022-09-17T11:10:20Z</time></trkpt><trkpt lat="50.092291" lon="5.516853"><ele>366.168</ele><time>2022-09-17T11:10:21Z</time></trkpt><trkpt lat="50.092297" lon="5.516637"><ele>366.533</ele><time>2022-09-17T11:10:22Z</time></trkpt><trkpt lat="50.092310" lon="5.516414"><ele>367.218</ele><time>2022-09-17T11:10:23Z</time></trkpt><trkpt lat="50.092320" lon="5.516189"><ele>367.563</ele><time>2022-09-17T11:10:24Z</time></trkpt><trkpt lat="50.092327" lon="5.515943"><ele>367.847</ele><time>2022-09-17T11:10:25Z</time></trkpt><trkpt lat="50.092335" lon="5.515705"><ele>368.234</ele><time>2022-09-17T11:10:26Z</time></trkpt><trkpt lat="50.092344" lon="5.515457"><ele>368.619</ele><time>2022-09-17T11:10:27Z</time></trkpt><trkpt lat="50.092354" lon="5.515200"><ele>368.909</ele><time>2022-09-17T11:10:28Z</time></trkpt><trkpt lat="50.092364" lon="5.514929"><ele>369.219</ele><time>2022-09-17T11:10:29Z</time></trkpt><trkpt lat="50.092375" lon="5.514660"><ele>369.609</ele><time>2022-09-17T11:10:30Z</time></trkpt><trkpt lat="50.092385" lon="5.514387"><ele>370.152</ele><time>2022-09-17T11:10:31Z</time></trkpt><trkpt lat="50.092395" lon="5.514108"><ele>370.722</ele><time>2022-09-17T11:10:32Z</time></trkpt><trkpt lat="50.092405" lon="5.513837"><ele>371.464</ele><time>2022-09-17T11:10:33Z</time></trkpt><trkpt lat="50.092415" lon="5.513573"><ele>372.140</ele><time>2022-09-17T11:10:34Z</time></trkpt><trkpt lat="50.092422" lon="5.513338"><ele>372.525</ele><time>2022-09-17T11:10:35Z</time></trkpt><trkpt lat="50.092424" lon="5.513141"><ele>372.560</ele><time>2022-09-17T11:10:36Z</time></trkpt><trkpt lat="50.092430" lon="5.512961"><ele>372.565</ele><time>2022-09-17T11:10:37Z</time></trkpt><trkpt lat="50.092436" lon="5.512800"><ele>372.229</ele><time>2022-09-17T11:10:38Z</time></trkpt><trkpt lat="50.092439" lon="5.512660"><ele>371.946</ele><time>2022-09-17T11:10:39Z</time></trkpt><trkpt lat="50.092445" lon="5.512546"><ele>371.943</ele><time>2022-09-17T11:10:40Z</time></trkpt><trkpt lat="50.092451" lon="5.512442"><ele>371.964</ele><time>2022-09-17T11:10:41Z</time></trkpt><trkpt lat="50.092455" lon="5.512354"><ele>372.010</ele><time>2022-09-17T11:10:42Z</time></trkpt><trkpt lat="50.092477" lon="5.512244"><ele>372.109</ele><time>2022-09-17T11:10:44Z</time></trkpt><trkpt lat="50.092481" lon="5.512171"><ele>372.155</ele><time>2022-09-17T11:10:46Z</time></trkpt><trkpt lat="50.092485" lon="5.512098"><ele>372.135</ele><time>2022-09-17T11:10:48Z</time></trkpt><trkpt lat="50.092489" lon="5.512015"><ele>371.937</ele><time>2022-09-17T11:10:50Z</time></trkpt><trkpt lat="50.092674" lon="5.511884"><ele>371.963</ele><time>2022-09-17T11:15:17Z</time></trkpt><trkpt lat="50.092582" lon="5.511917"><ele>372.138</ele><time>2022-09-17T11:15:46Z</time></trkpt><trkpt lat="50.092669" lon="5.511842"><ele>372.093</ele><time>2022-09-17T11:16:43Z</time></trkpt><trkpt lat="50.092642" lon="5.511770"><ele>372.028</ele><time>2022-09-17T11:16:49Z</time></trkpt><trkpt lat="50.092569" lon="5.511792"><ele>372.012</ele><time>2022-09-17T11:17:35Z</time></trkpt><trkpt lat="50.092541" lon="5.511706"><ele>372.069</ele><time>2022-09-17T11:19:14Z</time></trkpt><trkpt lat="50.092498" lon="5.511682"><ele>372.091</ele><time>2022-09-17T11:19:16Z</time></trkpt><trkpt lat="50.092430" lon="5.511736"><ele>372.081</ele><time>2022-09-17T11:19:29Z</time></trkpt><trkpt lat="50.092361" lon="5.511798"><ele>371.919</ele><time>2022-09-17T11:19:31Z</time></trkpt><trkpt lat="50.092329" lon="5.511900"><ele>371.909</ele><time>2022-09-17T11:19:33Z</time></trkpt><trkpt lat="50.092336" lon="5.512000"><ele>371.990</ele><time>2022-09-17T11:19:34Z</time></trkpt><trkpt lat="50.092347" lon="5.512133"><ele>371.950</ele><time>2022-09-17T11:19:35Z</time></trkpt><trkpt lat="50.092342" lon="5.512307"><ele>371.962</ele><time>2022-09-17T11:19:36Z</time></trkpt><trkpt lat="50.092332" lon="5.512531"><ele>372.058</ele><time>2022-09-17T11:19:37Z</time></trkpt><trkpt lat="50.092320" lon="5.512778"><ele>372.073</ele><time>2022-09-17T11:19:38Z</time></trkpt><trkpt lat="50.092314" lon="5.512971"><ele>372.028</ele><time>2022-09-17T11:19:39Z</time></trkpt><trkpt lat="50.092306" lon="5.513122"><ele>372.023</ele><time>2022-09-17T11:19:40Z</time></trkpt><trkpt lat="50.092304" lon="5.513266"><ele>371.757</ele><time>2022-09-17T11:19:41Z</time></trkpt><trkpt lat="50.092303" lon="5.513374"><ele>371.684</ele><time>2022-09-17T11:19:42Z</time></trkpt><trkpt lat="50.092312" lon="5.513454"><ele>371.435</ele><time>2022-09-17T11:19:43Z</time></trkpt><trkpt lat="50.092340" lon="5.513528"><ele>371.286</ele><time>2022-09-17T11:19:45Z</time></trkpt><trkpt lat="50.092333" lon="5.513623"><ele>371.114</ele><time>2022-09-17T11:19:48Z</time></trkpt><trkpt lat="50.092521" lon="5.513590"><ele>370.609</ele><time>2022-09-17T11:19:50Z</time></trkpt><trkpt lat="50.092601" lon="5.513538"><ele>370.114</ele><time>2022-09-17T11:19:51Z</time></trkpt><trkpt lat="50.092651" lon="5.513506"><ele>369.924</ele><time>2022-09-17T11:19:52Z</time></trkpt><trkpt lat="50.092715" lon="5.513491"><ele>369.786</ele><time>2022-09-17T11:19:54Z</time></trkpt><trkpt lat="50.092775" lon="5.513523"><ele>369.552</ele><time>2022-09-17T11:19:55Z</time></trkpt><trkpt lat="50.092806" lon="5.513717"><ele>368.847</ele><time>2022-09-17T11:19:57Z</time></trkpt><trkpt lat="50.092858" lon="5.513786"><ele>368.732</ele><time>2022-09-17T11:19:58Z</time></trkpt><trkpt lat="50.092921" lon="5.513869"><ele>368.477</ele><time>2022-09-17T11:19:59Z</time></trkpt><trkpt lat="50.092982" lon="5.513950"><ele>368.311</ele><time>2022-09-17T11:20:00Z</time></trkpt><trkpt lat="50.093041" lon="5.514036"><ele>368.018</ele><time>2022-09-17T11:20:01Z</time></trkpt><trkpt lat="50.093111" lon="5.514137"><ele>367.693</ele><time>2022-09-17T11:20:02Z</time></trkpt><trkpt lat="50.093170" lon="5.514247"><ele>367.265</ele><time>2022-09-17T11:20:03Z</time></trkpt><trkpt lat="50.093212" lon="5.514368"><ele>366.821</ele><time>2022-09-17T11:20:04Z</time></trkpt><trkpt lat="50.093247" lon="5.514515"><ele>366.709</ele><time>2022-09-17T11:20:05Z</time></trkpt><trkpt lat="50.093282" lon="5.514693"><ele>366.750</ele><time>2022-09-17T11:20:06Z</time></trkpt><trkpt lat="50.093297" lon="5.514888"><ele>366.970</ele><time>2022-09-17T11:20:07Z</time></trkpt><trkpt lat="50.093299" lon="5.515092"><ele>367.232</ele><time>2022-09-17T11:20:08Z</time></trkpt><trkpt lat="50.093302" lon="5.515290"><ele>367.498</ele><time>2022-09-17T11:20:09Z</time></trkpt><trkpt lat="50.093309" lon="5.515483"><ele>367.913</ele><time>2022-09-17T11:20:10Z</time></trkpt><trkpt lat="50.093350" lon="5.515659"><ele>368.228</ele><time>2022-09-17T11:20:11Z</time></trkpt><trkpt lat="50.093400" lon="5.515824"><ele>368.583</ele><time>2022-09-17T11:20:12Z</time></trkpt><trkpt lat="50.093454" lon="5.515964"><ele>368.667</ele><time>2022-09-17T11:20:13Z</time></trkpt><trkpt lat="50.093511" lon="5.516119"><ele>368.814</ele><time>2022-09-17T11:20:14Z</time></trkpt><trkpt lat="50.093578" lon="5.516279"><ele>368.885</ele><time>2022-09-17T11:20:15Z</time></trkpt><trkpt lat="50.093646" lon="5.516450"><ele>368.889</ele><time>2022-09-17T11:20:16Z</time></trkpt><trkpt lat="50.093718" lon="5.516628"><ele>369.117</ele><time>2022-09-17T11:20:17Z</time></trkpt><trkpt lat="50.093788" lon="5.516801"><ele>369.509</ele><time>2022-09-17T11:20:18Z</time></trkpt><trkpt lat="50.093861" lon="5.516986"><ele>370.499</ele><time>2022-09-17T11:20:19Z</time></trkpt><trkpt lat="50.093925" lon="5.517155"><ele>370.759</ele><time>2022-09-17T11:20:20Z</time></trkpt><trkpt lat="50.093987" lon="5.517312"><ele>371.511</ele><time>2022-09-17T11:20:21Z</time></trkpt><trkpt lat="50.094045" lon="5.517448"><ele>372.287</ele><time>2022-09-17T11:20:22Z</time></trkpt><trkpt lat="50.094088" lon="5.517579"><ele>373.052</ele><time>2022-09-17T11:20:23Z</time></trkpt><trkpt lat="50.094131" lon="5.517695"><ele>373.957</ele><time>2022-09-17T11:20:24Z</time></trkpt><trkpt lat="50.094172" lon="5.517805"><ele>374.392</ele><time>2022-09-17T11:20:25Z</time></trkpt><trkpt lat="50.094216" lon="5.517918"><ele>375.156</ele><time>2022-09-17T11:20:26Z</time></trkpt><trkpt lat="50.094273" lon="5.518006"><ele>375.873</ele><time>2022-09-17T11:20:27Z</time></trkpt><trkpt lat="50.094323" lon="5.518095"><ele>376.529</ele><time>2022-09-17T11:20:28Z</time></trkpt><trkpt lat="50.094376" lon="5.518190"><ele>377.000</ele><time>2022-09-17T11:20:29Z</time></trkpt><trkpt lat="50.094426" lon="5.518280"><ele>377.420</ele><time>2022-09-17T11:20:30Z</time></trkpt><trkpt lat="50.094495" lon="5.518325"><ele>377.809</ele><time>2022-09-17T11:20:31Z</time></trkpt><trkpt lat="50.094558" lon="5.518406"><ele>378.313</ele><time>2022-09-17T11:20:32Z</time></trkpt><trkpt lat="50.094648" lon="5.518475"><ele>378.773</ele><time>2022-09-17T11:20:33Z</time></trkpt><trkpt lat="50.094743" lon="5.518547"><ele>379.375</ele><time>2022-09-17T11:20:34Z</time></trkpt><trkpt lat="50.094842" lon="5.518622"><ele>379.741</ele><time>2022-09-17T11:20:35Z</time></trkpt><trkpt lat="50.094940" lon="5.518705"><ele>380.166</ele><time>2022-09-17T11:20:36Z</time></trkpt><trkpt lat="50.095046" lon="5.518744"><ele>380.631</ele><time>2022-09-17T11:20:37Z</time></trkpt><trkpt lat="50.095139" lon="5.518802"><ele>381.266</ele><time>2022-09-17T11:20:38Z</time></trkpt><trkpt lat="50.095230" lon="5.518853"><ele>381.850</ele><time>2022-09-17T11:20:39Z</time></trkpt><trkpt lat="50.095304" lon="5.518892"><ele>382.737</ele><time>2022-09-17T11:20:40Z</time></trkpt><trkpt lat="50.095391" lon="5.518931"><ele>383.125</ele><time>2022-09-17T11:20:41Z</time></trkpt><trkpt lat="50.095484" lon="5.518964"><ele>383.726</ele><time>2022-09-17T11:20:42Z</time></trkpt><trkpt lat="50.095579" lon="5.518997"><ele>384.408</ele><time>2022-09-17T11:20:43Z</time></trkpt><trkpt lat="50.095668" lon="5.519026"><ele>384.809</ele><time>2022-09-17T11:20:44Z</time></trkpt><trkpt lat="50.095748" lon="5.519044"><ele>384.973</ele><time>2022-09-17T11:20:45Z</time></trkpt><trkpt lat="50.095833" lon="5.519093"><ele>385.293</ele><time>2022-09-17T11:20:46Z</time></trkpt><trkpt lat="50.095906" lon="5.519107"><ele>385.675</ele><time>2022-09-17T11:20:47Z</time></trkpt><trkpt lat="50.095980" lon="5.519118"><ele>386.151</ele><time>2022-09-17T11:20:48Z</time></trkpt><trkpt lat="50.096060" lon="5.519131"><ele>386.576</ele><time>2022-09-17T11:20:49Z</time></trkpt><trkpt lat="50.096148" lon="5.519146"><ele>386.891</ele><time>2022-09-17T11:20:50Z</time></trkpt><trkpt lat="50.096240" lon="5.519160"><ele>387.146</ele><time>2022-09-17T11:20:51Z</time></trkpt><trkpt lat="50.096346" lon="5.519171"><ele>387.640</ele><time>2022-09-17T11:20:52Z</time></trkpt><trkpt lat="50.096459" lon="5.519186"><ele>387.817</ele><time>2022-09-17T11:20:53Z</time></trkpt><trkpt lat="50.096580" lon="5.519205"><ele>387.999</ele><time>2022-09-17T11:20:54Z</time></trkpt><trkpt lat="50.096699" lon="5.519226"><ele>388.307</ele><time>2022-09-17T11:20:55Z</time></trkpt><trkpt lat="50.096828" lon="5.519249"><ele>388.627</ele><time>2022-09-17T11:20:56Z</time></trkpt><trkpt lat="50.096960" lon="5.519272"><ele>388.909</ele><time>2022-09-17T11:20:57Z</time></trkpt><trkpt lat="50.097095" lon="5.519295"><ele>389.250</ele><time>2022-09-17T11:20:58Z</time></trkpt><trkpt lat="50.097229" lon="5.519317"><ele>389.990</ele><time>2022-09-17T11:20:59Z</time></trkpt><trkpt lat="50.097364" lon="5.519342"><ele>390.362</ele><time>2022-09-17T11:21:00Z</time></trkpt><trkpt lat="50.097486" lon="5.519365"><ele>390.558</ele><time>2022-09-17T11:21:01Z</time></trkpt><trkpt lat="50.097598" lon="5.519385"><ele>390.973</ele><time>2022-09-17T11:21:02Z</time></trkpt><trkpt lat="50.097701" lon="5.519400"><ele>391.278</ele><time>2022-09-17T11:21:03Z</time></trkpt><trkpt lat="50.097794" lon="5.519413"><ele>391.423</ele><time>2022-09-17T11:21:04Z</time></trkpt><trkpt lat="50.097872" lon="5.519423"><ele>391.737</ele><time>2022-09-17T11:21:05Z</time></trkpt><trkpt lat="50.097929" lon="5.519375"><ele>391.914</ele><time>2022-09-17T11:21:06Z</time></trkpt><trkpt lat="50.097976" lon="5.519364"><ele>392.223</ele><time>2022-09-17T11:21:07Z</time></trkpt><trkpt lat="50.098024" lon="5.519353"><ele>392.383</ele><time>2022-09-17T11:21:09Z</time></trkpt><trkpt lat="50.098092" lon="5.519349"><ele>392.611</ele><time>2022-09-17T11:21:17Z</time></trkpt><trkpt lat="50.098150" lon="5.519313"><ele>393.009</ele><time>2022-09-17T11:21:19Z</time></trkpt><trkpt lat="50.098212" lon="5.519353"><ele>393.333</ele><time>2022-09-17T11:21:21Z</time></trkpt><trkpt lat="50.098294" lon="5.519367"><ele>393.363</ele><time>2022-09-17T11:21:23Z</time></trkpt><trkpt lat="50.098355" lon="5.519377"><ele>393.315</ele><time>2022-09-17T11:21:24Z</time></trkpt><trkpt lat="50.098345" lon="5.519489"><ele>393.381</ele><time>2022-09-17T11:21:25Z</time></trkpt><trkpt lat="50.098414" lon="5.519614"><ele>393.386</ele><time>2022-09-17T11:21:27Z</time></trkpt><trkpt lat="50.098470" lon="5.519690"><ele>393.041</ele><time>2022-09-17T11:21:28Z</time></trkpt><trkpt lat="50.098527" lon="5.519768"><ele>392.786</ele><time>2022-09-17T11:21:29Z</time></trkpt><trkpt lat="50.098578" lon="5.519843"><ele>392.670</ele><time>2022-09-17T11:21:30Z</time></trkpt><trkpt lat="50.098634" lon="5.519928"><ele>392.477</ele><time>2022-09-17T11:21:31Z</time></trkpt><trkpt lat="50.098693" lon="5.520018"><ele>392.326</ele><time>2022-09-17T11:21:32Z</time></trkpt><trkpt lat="50.098750" lon="5.520104"><ele>392.347</ele><time>2022-09-17T11:21:33Z</time></trkpt><trkpt lat="50.098813" lon="5.520199"><ele>392.311</ele><time>2022-09-17T11:21:34Z</time></trkpt><trkpt lat="50.098876" lon="5.520294"><ele>392.309</ele><time>2022-09-17T11:21:35Z</time></trkpt><trkpt lat="50.098932" lon="5.520378"><ele>392.263</ele><time>2022-09-17T11:21:36Z</time></trkpt><trkpt lat="50.098986" lon="5.520459"><ele>392.153</ele><time>2022-09-17T11:21:37Z</time></trkpt><trkpt lat="50.099039" lon="5.520539"><ele>392.195</ele><time>2022-09-17T11:21:38Z</time></trkpt><trkpt lat="50.099090" lon="5.520617"><ele>392.131</ele><time>2022-09-17T11:21:39Z</time></trkpt><trkpt lat="50.099498" lon="5.520366"><ele>393.286</ele><time>2022-09-17T11:21:41Z</time></trkpt><trkpt lat="50.099602" lon="5.520427"><ele>393.461</ele><time>2022-09-17T11:21:42Z</time></trkpt><trkpt lat="50.099710" lon="5.520488"><ele>393.626</ele><time>2022-09-17T11:21:43Z</time></trkpt><trkpt lat="50.099808" lon="5.520546"><ele>393.720</ele><time>2022-09-17T11:21:44Z</time></trkpt><trkpt lat="50.099897" lon="5.520601"><ele>393.777</ele><time>2022-09-17T11:21:45Z</time></trkpt><trkpt lat="50.099998" lon="5.520661"><ele>393.556</ele><time>2022-09-17T11:21:46Z</time></trkpt><trkpt lat="50.100087" lon="5.520705"><ele>393.259</ele><time>2022-09-17T11:21:47Z</time></trkpt><trkpt lat="50.100176" lon="5.520764"><ele>393.114</ele><time>2022-09-17T11:21:48Z</time></trkpt><trkpt lat="50.100263" lon="5.520827"><ele>393.109</ele><time>2022-09-17T11:21:49Z</time></trkpt><trkpt lat="50.100350" lon="5.520889"><ele>393.446</ele><time>2022-09-17T11:21:50Z</time></trkpt><trkpt lat="50.100430" lon="5.520965"><ele>393.716</ele><time>2022-09-17T11:21:51Z</time></trkpt><trkpt lat="50.100505" lon="5.521030"><ele>394.028</ele><time>2022-09-17T11:21:52Z</time></trkpt><trkpt lat="50.100579" lon="5.521097"><ele>394.144</ele><time>2022-09-17T11:21:53Z</time></trkpt><trkpt lat="50.100653" lon="5.521173"><ele>394.259</ele><time>2022-09-17T11:21:54Z</time></trkpt><trkpt lat="50.100720" lon="5.521257"><ele>394.224</ele><time>2022-09-17T11:21:55Z</time></trkpt><trkpt lat="50.100786" lon="5.521327"><ele>394.299</ele><time>2022-09-17T11:21:56Z</time></trkpt><trkpt lat="50.100859" lon="5.521406"><ele>394.123</ele><time>2022-09-17T11:21:57Z</time></trkpt><trkpt lat="50.100926" lon="5.521490"><ele>394.160</ele><time>2022-09-17T11:21:58Z</time></trkpt><trkpt lat="50.101003" lon="5.521581"><ele>394.124</ele><time>2022-09-17T11:21:59Z</time></trkpt><trkpt lat="50.101077" lon="5.521661"><ele>394.204</ele><time>2022-09-17T11:22:00Z</time></trkpt><trkpt lat="50.101152" lon="5.521740"><ele>394.414</ele><time>2022-09-17T11:22:01Z</time></trkpt><trkpt lat="50.101225" lon="5.521819"><ele>394.609</ele><time>2022-09-17T11:22:02Z</time></trkpt><trkpt lat="50.101296" lon="5.521896"><ele>394.973</ele><time>2022-09-17T11:22:03Z</time></trkpt><trkpt lat="50.101369" lon="5.521985"><ele>395.263</ele><time>2022-09-17T11:22:04Z</time></trkpt><trkpt lat="50.101448" lon="5.522039"><ele>395.555</ele><time>2022-09-17T11:22:05Z</time></trkpt><trkpt lat="50.101534" lon="5.522112"><ele>396.061</ele><time>2022-09-17T11:22:06Z</time></trkpt><trkpt lat="50.101611" lon="5.522173"><ele>396.376</ele><time>2022-09-17T11:22:07Z</time></trkpt><trkpt lat="50.101682" lon="5.522220"><ele>396.421</ele><time>2022-09-17T11:22:08Z</time></trkpt><trkpt lat="50.101754" lon="5.522257"><ele>396.496</ele><time>2022-09-17T11:22:09Z</time></trkpt><trkpt lat="50.101825" lon="5.522301"><ele>396.480</ele><time>2022-09-17T11:22:10Z</time></trkpt><trkpt lat="50.101890" lon="5.522331"><ele>396.317</ele><time>2022-09-17T11:22:11Z</time></trkpt><trkpt lat="50.101971" lon="5.522374"><ele>396.396</ele><time>2022-09-17T11:22:12Z</time></trkpt><trkpt lat="50.102052" lon="5.522413"><ele>396.331</ele><time>2022-09-17T11:22:13Z</time></trkpt><trkpt lat="50.102143" lon="5.522440"><ele>396.424</ele><time>2022-09-17T11:22:14Z</time></trkpt><trkpt lat="50.102228" lon="5.522470"><ele>396.609</ele><time>2022-09-17T11:22:15Z</time></trkpt><trkpt lat="50.102309" lon="5.522498"><ele>396.890</ele><time>2022-09-17T11:22:16Z</time></trkpt><trkpt lat="50.102387" lon="5.522526"><ele>396.860</ele><time>2022-09-17T11:22:17Z</time></trkpt><trkpt lat="50.102471" lon="5.522546"><ele>396.882</ele><time>2022-09-17T11:22:18Z</time></trkpt><trkpt lat="50.102558" lon="5.522572"><ele>396.748</ele><time>2022-09-17T11:22:19Z</time></trkpt><trkpt lat="50.102659" lon="5.522594"><ele>396.493</ele><time>2022-09-17T11:22:20Z</time></trkpt><trkpt lat="50.102766" lon="5.522613"><ele>396.058</ele><time>2022-09-17T11:22:21Z</time></trkpt><trkpt lat="50.102855" lon="5.522643"><ele>395.753</ele><time>2022-09-17T11:22:22Z</time></trkpt><trkpt lat="50.102945" lon="5.522665"><ele>395.667</ele><time>2022-09-17T11:22:23Z</time></trkpt><trkpt lat="50.103044" lon="5.522701"><ele>395.214</ele><time>2022-09-17T11:22:24Z</time></trkpt><trkpt lat="50.103157" lon="5.522740"><ele>395.265</ele><time>2022-09-17T11:22:25Z</time></trkpt><trkpt lat="50.103262" lon="5.522777"><ele>395.168</ele><time>2022-09-17T11:22:26Z</time></trkpt><trkpt lat="50.103364" lon="5.522807"><ele>395.014</ele><time>2022-09-17T11:22:27Z</time></trkpt><trkpt lat="50.103475" lon="5.522840"><ele>395.009</ele><time>2022-09-17T11:22:28Z</time></trkpt><trkpt lat="50.103584" lon="5.522882"><ele>395.077</ele><time>2022-09-17T11:22:29Z</time></trkpt><trkpt lat="50.103684" lon="5.522928"><ele>395.277</ele><time>2022-09-17T11:22:30Z</time></trkpt><trkpt lat="50.103783" lon="5.522963"><ele>395.649</ele><time>2022-09-17T11:22:31Z</time></trkpt><trkpt lat="50.103886" lon="5.522990"><ele>396.135</ele><time>2022-09-17T11:22:32Z</time></trkpt><trkpt lat="50.103986" lon="5.523010"><ele>396.970</ele><time>2022-09-17T11:22:33Z</time></trkpt><trkpt lat="50.104081" lon="5.523034"><ele>397.655</ele><time>2022-09-17T11:22:34Z</time></trkpt><trkpt lat="50.104185" lon="5.523058"><ele>397.670</ele><time>2022-09-17T11:22:35Z</time></trkpt><trkpt lat="50.104280" lon="5.523082"><ele>397.774</ele><time>2022-09-17T11:22:36Z</time></trkpt><trkpt lat="50.104381" lon="5.523126"><ele>397.731</ele><time>2022-09-17T11:22:37Z</time></trkpt><trkpt lat="50.104473" lon="5.523151"><ele>397.723</ele><time>2022-09-17T11:22:38Z</time></trkpt><trkpt lat="50.104567" lon="5.523169"><ele>397.783</ele><time>2022-09-17T11:22:39Z</time></trkpt><trkpt lat="50.104653" lon="5.523189"><ele>397.711</ele><time>2022-09-17T11:22:40Z</time></trkpt><trkpt lat="50.104739" lon="5.523213"><ele>397.809</ele><time>2022-09-17T11:22:41Z</time></trkpt><trkpt lat="50.104809" lon="5.523239"><ele>397.853</ele><time>2022-09-17T11:22:42Z</time></trkpt><trkpt lat="50.104887" lon="5.523257"><ele>397.813</ele><time>2022-09-17T11:22:43Z</time></trkpt><trkpt lat="50.104970" lon="5.523259"><ele>397.925</ele><time>2022-09-17T11:22:44Z</time></trkpt><trkpt lat="50.105051" lon="5.523255"><ele>398.241</ele><time>2022-09-17T11:22:45Z</time></trkpt><trkpt lat="50.105123" lon="5.523237"><ele>398.566</ele><time>2022-09-17T11:22:46Z</time></trkpt><trkpt lat="50.105197" lon="5.523240"><ele>398.911</ele><time>2022-09-17T11:22:47Z</time></trkpt><trkpt lat="50.105260" lon="5.523271"><ele>399.386</ele><time>2022-09-17T11:22:48Z</time></trkpt><trkpt lat="50.105322" lon="5.523326"><ele>399.620</ele><time>2022-09-17T11:22:49Z</time></trkpt><trkpt lat="50.105397" lon="5.523380"><ele>399.967</ele><time>2022-09-17T11:22:50Z</time></trkpt><trkpt lat="50.105482" lon="5.523439"><ele>400.356</ele><time>2022-09-17T11:22:51Z</time></trkpt><trkpt lat="50.105569" lon="5.523493"><ele>400.959</ele><time>2022-09-17T11:22:52Z</time></trkpt><trkpt lat="50.105676" lon="5.523546"><ele>402.114</ele><time>2022-09-17T11:22:53Z</time></trkpt><trkpt lat="50.105782" lon="5.523602"><ele>402.809</ele><time>2022-09-17T11:22:54Z</time></trkpt><trkpt lat="50.105895" lon="5.523648"><ele>403.696</ele><time>2022-09-17T11:22:55Z</time></trkpt><trkpt lat="50.106011" lon="5.523700"><ele>404.426</ele><time>2022-09-17T11:22:56Z</time></trkpt><trkpt lat="50.106122" lon="5.523759"><ele>405.418</ele><time>2022-09-17T11:22:57Z</time></trkpt><trkpt lat="50.106226" lon="5.523819"><ele>406.484</ele><time>2022-09-17T11:22:58Z</time></trkpt><trkpt lat="50.106328" lon="5.523874"><ele>407.559</ele><time>2022-09-17T11:22:59Z</time></trkpt><trkpt lat="50.106427" lon="5.523922"><ele>408.714</ele><time>2022-09-17T11:23:00Z</time></trkpt><trkpt lat="50.106507" lon="5.523955"><ele>409.649</ele><time>2022-09-17T11:23:01Z</time></trkpt><trkpt lat="50.106562" lon="5.523974"><ele>410.143</ele><time>2022-09-17T11:23:02Z</time></trkpt><trkpt lat="50.106635" lon="5.523910"><ele>410.940</ele><time>2022-09-17T11:23:04Z</time></trkpt><trkpt lat="50.106669" lon="5.523843"><ele>411.841</ele><time>2022-09-17T11:23:05Z</time></trkpt><trkpt lat="50.106698" lon="5.523712"><ele>412.481</ele><time>2022-09-17T11:23:06Z</time></trkpt><trkpt lat="50.106730" lon="5.523530"><ele>412.409</ele><time>2022-09-17T11:23:07Z</time></trkpt><trkpt lat="50.106773" lon="5.523354"><ele>412.209</ele><time>2022-09-17T11:23:08Z</time></trkpt><trkpt lat="50.106840" lon="5.523195"><ele>411.635</ele><time>2022-09-17T11:23:09Z</time></trkpt><trkpt lat="50.106881" lon="5.522996"><ele>410.715</ele><time>2022-09-17T11:23:10Z</time></trkpt><trkpt lat="50.106920" lon="5.522803"><ele>409.747</ele><time>2022-09-17T11:23:11Z</time></trkpt><trkpt lat="50.106958" lon="5.522618"><ele>408.893</ele><time>2022-09-17T11:23:12Z</time></trkpt><trkpt lat="50.106997" lon="5.522430"><ele>408.198</ele><time>2022-09-17T11:23:13Z</time></trkpt><trkpt lat="50.107036" lon="5.522233"><ele>406.383</ele><time>2022-09-17T11:23:14Z</time></trkpt><trkpt lat="50.107060" lon="5.522022"><ele>406.368</ele><time>2022-09-17T11:23:15Z</time></trkpt><trkpt lat="50.107107" lon="5.521816"><ele>406.422</ele><time>2022-09-17T11:23:16Z</time></trkpt><trkpt lat="50.107145" lon="5.521611"><ele>406.939</ele><time>2022-09-17T11:23:17Z</time></trkpt><trkpt lat="50.107186" lon="5.521400"><ele>408.346</ele><time>2022-09-17T11:23:18Z</time></trkpt><trkpt lat="50.107226" lon="5.521190"><ele>410.088</ele><time>2022-09-17T11:23:19Z</time></trkpt><trkpt lat="50.107268" lon="5.520979"><ele>411.416</ele><time>2022-09-17T11:23:20Z</time></trkpt><trkpt lat="50.107318" lon="5.520762"><ele>413.009</ele><time>2022-09-17T11:23:21Z</time></trkpt><trkpt lat="50.107366" lon="5.520523"><ele>414.135</ele><time>2022-09-17T11:23:22Z</time></trkpt><trkpt lat="50.107408" lon="5.520294"><ele>414.855</ele><time>2022-09-17T11:23:23Z</time></trkpt><trkpt lat="50.107438" lon="5.520057"><ele>415.837</ele><time>2022-09-17T11:23:24Z</time></trkpt><trkpt lat="50.107464" lon="5.519817"><ele>416.263</ele><time>2022-09-17T11:23:25Z</time></trkpt><trkpt lat="50.107487" lon="5.519603"><ele>416.068</ele><time>2022-09-17T11:23:26Z</time></trkpt><trkpt lat="50.107515" lon="5.519424"><ele>415.823</ele><time>2022-09-17T11:23:27Z</time></trkpt><trkpt lat="50.107536" lon="5.519279"><ele>415.178</ele><time>2022-09-17T11:23:28Z</time></trkpt><trkpt lat="50.107545" lon="5.519153"><ele>414.432</ele><time>2022-09-17T11:23:29Z</time></trkpt><trkpt lat="50.107518" lon="5.519068"><ele>414.129</ele><time>2022-09-17T11:23:30Z</time></trkpt><trkpt lat="50.107533" lon="5.518961"><ele>414.123</ele><time>2022-09-17T11:23:32Z</time></trkpt><trkpt lat="50.107546" lon="5.518874"><ele>415.083</ele><time>2022-09-17T11:23:35Z</time></trkpt><trkpt lat="50.107590" lon="5.519142"><ele>419.311</ele><time>2022-09-17T11:23:37Z</time></trkpt><trkpt lat="50.107614" lon="5.519284"><ele>420.209</ele><time>2022-09-17T11:23:38Z</time></trkpt><trkpt lat="50.107645" lon="5.519472"><ele>420.383</ele><time>2022-09-17T11:23:39Z</time></trkpt><trkpt lat="50.107703" lon="5.519675"><ele>420.363</ele><time>2022-09-17T11:23:40Z</time></trkpt><trkpt lat="50.107781" lon="5.519876"><ele>420.425</ele><time>2022-09-17T11:23:41Z</time></trkpt><trkpt lat="50.107859" lon="5.520084"><ele>420.411</ele><time>2022-09-17T11:23:42Z</time></trkpt><trkpt lat="50.107937" lon="5.520289"><ele>420.426</ele><time>2022-09-17T11:23:43Z</time></trkpt><trkpt lat="50.108034" lon="5.520471"><ele>420.651</ele><time>2022-09-17T11:23:44Z</time></trkpt><trkpt lat="50.108133" lon="5.520647"><ele>420.936</ele><time>2022-09-17T11:23:45Z</time></trkpt><trkpt lat="50.108232" lon="5.520817"><ele>421.420</ele><time>2022-09-17T11:23:46Z</time></trkpt><trkpt lat="50.108331" lon="5.520993"><ele>421.997</ele><time>2022-09-17T11:23:47Z</time></trkpt><trkpt lat="50.108427" lon="5.521161"><ele>422.668</ele><time>2022-09-17T11:23:48Z</time></trkpt><trkpt lat="50.108521" lon="5.521318"><ele>423.142</ele><time>2022-09-17T11:23:49Z</time></trkpt><trkpt lat="50.108618" lon="5.521480"><ele>423.326</ele><time>2022-09-17T11:23:50Z</time></trkpt><trkpt lat="50.108712" lon="5.521634"><ele>423.509</ele><time>2022-09-17T11:23:51Z</time></trkpt><trkpt lat="50.108808" lon="5.521802"><ele>423.717</ele><time>2022-09-17T11:23:52Z</time></trkpt><trkpt lat="50.108910" lon="5.521972"><ele>423.827</ele><time>2022-09-17T11:23:53Z</time></trkpt><trkpt lat="50.109012" lon="5.522150"><ele>423.939</ele><time>2022-09-17T11:23:54Z</time></trkpt><trkpt lat="50.109117" lon="5.522331"><ele>424.345</ele><time>2022-09-17T11:23:55Z</time></trkpt><trkpt lat="50.109224" lon="5.522521"><ele>425.070</ele><time>2022-09-17T11:23:56Z</time></trkpt><trkpt lat="50.109333" lon="5.522704"><ele>425.755</ele><time>2022-09-17T11:23:57Z</time></trkpt><trkpt lat="50.109446" lon="5.522883"><ele>426.350</ele><time>2022-09-17T11:23:58Z</time></trkpt><trkpt lat="50.109558" lon="5.523064"><ele>427.174</ele><time>2022-09-17T11:23:59Z</time></trkpt><trkpt lat="50.109670" lon="5.523249"><ele>427.571</ele><time>2022-09-17T11:24:00Z</time></trkpt><trkpt lat="50.109783" lon="5.523433"><ele>427.476</ele><time>2022-09-17T11:24:01Z</time></trkpt><trkpt lat="50.109899" lon="5.523617"><ele>427.390</ele><time>2022-09-17T11:24:02Z</time></trkpt><trkpt lat="50.110014" lon="5.523804"><ele>427.419</ele><time>2022-09-17T11:24:03Z</time></trkpt><trkpt lat="50.110128" lon="5.523985"><ele>427.509</ele><time>2022-09-17T11:24:04Z</time></trkpt><trkpt lat="50.110241" lon="5.524166"><ele>427.818</ele><time>2022-09-17T11:24:05Z</time></trkpt><trkpt lat="50.110356" lon="5.524347"><ele>428.438</ele><time>2022-09-17T11:24:06Z</time></trkpt><trkpt lat="50.110470" lon="5.524536"><ele>429.370</ele><time>2022-09-17T11:24:07Z</time></trkpt><trkpt lat="50.110582" lon="5.524725"><ele>430.246</ele><time>2022-09-17T11:24:08Z</time></trkpt><trkpt lat="50.110694" lon="5.524914"><ele>430.911</ele><time>2022-09-17T11:24:09Z</time></trkpt><trkpt lat="50.110805" lon="5.525090"><ele>431.646</ele><time>2022-09-17T11:24:10Z</time></trkpt><trkpt lat="50.110911" lon="5.525271"><ele>432.361</ele><time>2022-09-17T11:24:11Z</time></trkpt><trkpt lat="50.111020" lon="5.525462"><ele>432.775</ele><time>2022-09-17T11:24:12Z</time></trkpt><trkpt lat="50.111126" lon="5.525643"><ele>432.992</ele><time>2022-09-17T11:24:13Z</time></trkpt><trkpt lat="50.111229" lon="5.525819"><ele>433.386</ele><time>2022-09-17T11:24:14Z</time></trkpt><trkpt lat="50.111328" lon="5.525991"><ele>433.860</ele><time>2022-09-17T11:24:15Z</time></trkpt><trkpt lat="50.111417" lon="5.526150"><ele>434.126</ele><time>2022-09-17T11:24:16Z</time></trkpt><trkpt lat="50.111495" lon="5.526316"><ele>434.309</ele><time>2022-09-17T11:24:17Z</time></trkpt><trkpt lat="50.111560" lon="5.526495"><ele>434.339</ele><time>2022-09-17T11:24:18Z</time></trkpt><trkpt lat="50.111612" lon="5.526682"><ele>434.859</ele><time>2022-09-17T11:24:19Z</time></trkpt><trkpt lat="50.111650" lon="5.526887"><ele>435.041</ele><time>2022-09-17T11:24:20Z</time></trkpt><trkpt lat="50.111677" lon="5.527106"><ele>435.457</ele><time>2022-09-17T11:24:21Z</time></trkpt><trkpt lat="50.111672" lon="5.527330"><ele>435.682</ele><time>2022-09-17T11:24:22Z</time></trkpt><trkpt lat="50.111663" lon="5.527551"><ele>435.797</ele><time>2022-09-17T11:24:23Z</time></trkpt><trkpt lat="50.111652" lon="5.527778"><ele>435.682</ele><time>2022-09-17T11:24:24Z</time></trkpt><trkpt lat="50.111640" lon="5.528015"><ele>435.496</ele><time>2022-09-17T11:24:25Z</time></trkpt><trkpt lat="50.111627" lon="5.528263"><ele>435.233</ele><time>2022-09-17T11:24:26Z</time></trkpt><trkpt lat="50.111615" lon="5.528497"><ele>434.743</ele><time>2022-09-17T11:24:27Z</time></trkpt><trkpt lat="50.111604" lon="5.528724"><ele>434.164</ele><time>2022-09-17T11:24:28Z</time></trkpt><trkpt lat="50.111600" lon="5.528949"><ele>433.510</ele><time>2022-09-17T11:24:29Z</time></trkpt><trkpt lat="50.111578" lon="5.529170"><ele>432.809</ele><time>2022-09-17T11:24:30Z</time></trkpt><trkpt lat="50.111531" lon="5.529389"><ele>431.935</ele><time>2022-09-17T11:24:31Z</time></trkpt><trkpt lat="50.111497" lon="5.529597"><ele>431.275</ele><time>2022-09-17T11:24:32Z</time></trkpt><trkpt lat="50.111457" lon="5.529801"><ele>430.657</ele><time>2022-09-17T11:24:33Z</time></trkpt><trkpt lat="50.111414" lon="5.530004"><ele>429.933</ele><time>2022-09-17T11:24:34Z</time></trkpt><trkpt lat="50.111371" lon="5.530206"><ele>429.398</ele><time>2022-09-17T11:24:35Z</time></trkpt><trkpt lat="50.111329" lon="5.530393"><ele>429.093</ele><time>2022-09-17T11:24:36Z</time></trkpt><trkpt lat="50.111286" lon="5.530557"><ele>428.538</ele><time>2022-09-17T11:24:37Z</time></trkpt><trkpt lat="50.111244" lon="5.530715"><ele>427.872</ele><time>2022-09-17T11:24:38Z</time></trkpt><trkpt lat="50.111207" lon="5.530854"><ele>426.929</ele><time>2022-09-17T11:24:39Z</time></trkpt><trkpt lat="50.111178" lon="5.530960"><ele>426.149</ele><time>2022-09-17T11:24:40Z</time></trkpt><trkpt lat="50.111145" lon="5.531082"><ele>425.802</ele><time>2022-09-17T11:24:41Z</time></trkpt><trkpt lat="50.111116" lon="5.531200"><ele>425.122</ele><time>2022-09-17T11:24:42Z</time></trkpt><trkpt lat="50.111083" lon="5.531333"><ele>424.409</ele><time>2022-09-17T11:24:43Z</time></trkpt><trkpt lat="50.110990" lon="5.531410"><ele>423.765</ele><time>2022-09-17T11:24:44Z</time></trkpt><trkpt lat="50.110869" lon="5.531551"><ele>423.215</ele><time>2022-09-17T11:24:45Z</time></trkpt><trkpt lat="50.110741" lon="5.531714"><ele>422.597</ele><time>2022-09-17T11:24:46Z</time></trkpt><trkpt lat="50.110626" lon="5.531866"><ele>421.513</ele><time>2022-09-17T11:24:47Z</time></trkpt><trkpt lat="50.110512" lon="5.532013"><ele>420.158</ele><time>2022-09-17T11:24:48Z</time></trkpt><trkpt lat="50.110395" lon="5.532135"><ele>418.923</ele><time>2022-09-17T11:24:49Z</time></trkpt><trkpt lat="50.110270" lon="5.532263"><ele>417.878</ele><time>2022-09-17T11:24:50Z</time></trkpt><trkpt lat="50.110144" lon="5.532393"><ele>417.212</ele><time>2022-09-17T11:24:51Z</time></trkpt><trkpt lat="50.110017" lon="5.532525"><ele>417.349</ele><time>2022-09-17T11:24:52Z</time></trkpt><trkpt lat="50.109899" lon="5.532650"><ele>417.664</ele><time>2022-09-17T11:24:53Z</time></trkpt><trkpt lat="50.109784" lon="5.532772"><ele>418.006</ele><time>2022-09-17T11:24:54Z</time></trkpt><trkpt lat="50.109669" lon="5.532926"><ele>418.216</ele><time>2022-09-17T11:24:55Z</time></trkpt><trkpt lat="50.109549" lon="5.533055"><ele>418.209</ele><time>2022-09-17T11:24:56Z</time></trkpt><trkpt lat="50.109450" lon="5.533152"><ele>418.247</ele><time>2022-09-17T11:24:57Z</time></trkpt><trkpt lat="50.109322" lon="5.533253"><ele>417.937</ele><time>2022-09-17T11:24:58Z</time></trkpt><trkpt lat="50.109188" lon="5.533349"><ele>417.429</ele><time>2022-09-17T11:24:59Z</time></trkpt><trkpt lat="50.109059" lon="5.533410"><ele>416.955</ele><time>2022-09-17T11:25:00Z</time></trkpt><trkpt lat="50.108915" lon="5.533463"><ele>416.690</ele><time>2022-09-17T11:25:01Z</time></trkpt><trkpt lat="50.108787" lon="5.533559"><ele>416.045</ele><time>2022-09-17T11:25:02Z</time></trkpt><trkpt lat="50.108675" lon="5.533683"><ele>415.290</ele><time>2022-09-17T11:25:03Z</time></trkpt><trkpt lat="50.108554" lon="5.533830"><ele>414.474</ele><time>2022-09-17T11:25:04Z</time></trkpt><trkpt lat="50.108413" lon="5.533930"><ele>413.531</ele><time>2022-09-17T11:25:05Z</time></trkpt><trkpt lat="50.108269" lon="5.534036"><ele>412.491</ele><time>2022-09-17T11:25:06Z</time></trkpt><trkpt lat="50.108159" lon="5.534191"><ele>411.681</ele><time>2022-09-17T11:25:07Z</time></trkpt><trkpt lat="50.108034" lon="5.534336"><ele>411.119</ele><time>2022-09-17T11:25:08Z</time></trkpt><trkpt lat="50.107891" lon="5.534437"><ele>410.909</ele><time>2022-09-17T11:25:09Z</time></trkpt><trkpt lat="50.107760" lon="5.534519"><ele>410.950</ele><time>2022-09-17T11:25:10Z</time></trkpt><trkpt lat="50.107611" lon="5.534605"><ele>410.740</ele><time>2022-09-17T11:25:11Z</time></trkpt><trkpt lat="50.107464" lon="5.534690"><ele>410.442</ele><time>2022-09-17T11:25:12Z</time></trkpt><trkpt lat="50.107329" lon="5.534808"><ele>410.168</ele><time>2022-09-17T11:25:13Z</time></trkpt><trkpt lat="50.107194" lon="5.534906"><ele>409.683</ele><time>2022-09-17T11:25:14Z</time></trkpt><trkpt lat="50.107060" lon="5.534975"><ele>409.078</ele><time>2022-09-17T11:25:15Z</time></trkpt><trkpt lat="50.106896" lon="5.535054"><ele>408.653</ele><time>2022-09-17T11:25:16Z</time></trkpt><trkpt lat="50.106742" lon="5.535114"><ele>408.267</ele><time>2022-09-17T11:25:17Z</time></trkpt><trkpt lat="50.106591" lon="5.535154"><ele>407.434</ele><time>2022-09-17T11:25:18Z</time></trkpt><trkpt lat="50.106443" lon="5.535212"><ele>406.357</ele><time>2022-09-17T11:25:19Z</time></trkpt><trkpt lat="50.106299" lon="5.535272"><ele>405.300</ele><time>2022-09-17T11:25:20Z</time></trkpt><trkpt lat="50.106161" lon="5.535346"><ele>404.920</ele><time>2022-09-17T11:25:21Z</time></trkpt><trkpt lat="50.106019" lon="5.535427"><ele>405.009</ele><time>2022-09-17T11:25:22Z</time></trkpt><trkpt lat="50.105874" lon="5.535522"><ele>405.386</ele><time>2022-09-17T11:25:23Z</time></trkpt><trkpt lat="50.105733" lon="5.535606"><ele>406.026</ele><time>2022-09-17T11:25:24Z</time></trkpt><trkpt lat="50.105594" lon="5.535699"><ele>406.798</ele><time>2022-09-17T11:25:25Z</time></trkpt><trkpt lat="50.105457" lon="5.535803"><ele>406.844</ele><time>2022-09-17T11:25:26Z</time></trkpt><trkpt lat="50.105323" lon="5.535903"><ele>406.619</ele><time>2022-09-17T11:25:27Z</time></trkpt><trkpt lat="50.105189" lon="5.536032"><ele>406.344</ele><time>2022-09-17T11:25:28Z</time></trkpt><trkpt lat="50.105053" lon="5.536199"><ele>405.849</ele><time>2022-09-17T11:25:29Z</time></trkpt><trkpt lat="50.104929" lon="5.536379"><ele>405.473</ele><time>2022-09-17T11:25:30Z</time></trkpt><trkpt lat="50.104800" lon="5.536540"><ele>405.540</ele><time>2022-09-17T11:25:31Z</time></trkpt><trkpt lat="50.104677" lon="5.536682"><ele>405.816</ele><time>2022-09-17T11:25:32Z</time></trkpt><trkpt lat="50.104577" lon="5.536809"><ele>406.276</ele><time>2022-09-17T11:25:33Z</time></trkpt><trkpt lat="50.104477" lon="5.536949"><ele>406.313</ele><time>2022-09-17T11:25:34Z</time></trkpt><trkpt lat="50.104368" lon="5.537080"><ele>408.209</ele><time>2022-09-17T11:25:35Z</time></trkpt><trkpt lat="50.104243" lon="5.537180"><ele>409.962</ele><time>2022-09-17T11:25:36Z</time></trkpt><trkpt lat="50.104105" lon="5.537268"><ele>411.472</ele><time>2022-09-17T11:25:37Z</time></trkpt><trkpt lat="50.103975" lon="5.537375"><ele>413.014</ele><time>2022-09-17T11:25:38Z</time></trkpt><trkpt lat="50.103843" lon="5.537504"><ele>414.440</ele><time>2022-09-17T11:25:39Z</time></trkpt><trkpt lat="50.103720" lon="5.537664"><ele>415.475</ele><time>2022-09-17T11:25:40Z</time></trkpt><trkpt lat="50.103610" lon="5.537826"><ele>416.180</ele><time>2022-09-17T11:25:41Z</time></trkpt><trkpt lat="50.103489" lon="5.537991"><ele>416.595</ele><time>2022-09-17T11:25:42Z</time></trkpt><trkpt lat="50.103372" lon="5.538127"><ele>416.839</ele><time>2022-09-17T11:25:43Z</time></trkpt><trkpt lat="50.103280" lon="5.538248"><ele>416.896</ele><time>2022-09-17T11:25:44Z</time></trkpt><trkpt lat="50.103199" lon="5.538345"><ele>416.493</ele><time>2022-09-17T11:25:45Z</time></trkpt><trkpt lat="50.103114" lon="5.538428"><ele>416.065</ele><time>2022-09-17T11:25:46Z</time></trkpt><trkpt lat="50.103047" lon="5.538484"><ele>415.621</ele><time>2022-09-17T11:25:47Z</time></trkpt><trkpt lat="50.103004" lon="5.538527"><ele>415.509</ele><time>2022-09-17T11:25:48Z</time></trkpt><trkpt lat="50.102959" lon="5.538586"><ele>415.570</ele><time>2022-09-17T11:25:50Z</time></trkpt><trkpt lat="50.102867" lon="5.538640"><ele>415.930</ele><time>2022-09-17T11:26:02Z</time></trkpt><trkpt lat="50.102769" lon="5.538730"><ele>417.122</ele><time>2022-09-17T11:26:03Z</time></trkpt><trkpt lat="50.102635" lon="5.538886"><ele>416.658</ele><time>2022-09-17T11:26:04Z</time></trkpt><trkpt lat="50.102496" lon="5.539039"><ele>415.543</ele><time>2022-09-17T11:26:05Z</time></trkpt><trkpt lat="50.102366" lon="5.539163"><ele>414.098</ele><time>2022-09-17T11:26:06Z</time></trkpt><trkpt lat="50.102252" lon="5.539279"><ele>412.253</ele><time>2022-09-17T11:26:07Z</time></trkpt><trkpt lat="50.102159" lon="5.539383"><ele>411.337</ele><time>2022-09-17T11:26:08Z</time></trkpt><trkpt lat="50.102079" lon="5.539481"><ele>409.634</ele><time>2022-09-17T11:26:09Z</time></trkpt><trkpt lat="50.102007" lon="5.539585"><ele>408.722</ele><time>2022-09-17T11:26:10Z</time></trkpt><trkpt lat="50.101909" lon="5.539592"><ele>408.562</ele><time>2022-09-17T11:26:11Z</time></trkpt><trkpt lat="50.101871" lon="5.539734"><ele>408.508</ele><time>2022-09-17T11:26:12Z</time></trkpt><trkpt lat="50.101792" lon="5.539796"><ele>408.409</ele><time>2022-09-17T11:26:13Z</time></trkpt><trkpt lat="50.101709" lon="5.539850"><ele>408.433</ele><time>2022-09-17T11:26:14Z</time></trkpt><trkpt lat="50.101633" lon="5.539898"><ele>408.493</ele><time>2022-09-17T11:26:15Z</time></trkpt><trkpt lat="50.101561" lon="5.539939"><ele>408.285</ele><time>2022-09-17T11:26:16Z</time></trkpt><trkpt lat="50.101497" lon="5.539970"><ele>407.931</ele><time>2022-09-17T11:26:17Z</time></trkpt><trkpt lat="50.101444" lon="5.539997"><ele>407.636</ele><time>2022-09-17T11:26:18Z</time></trkpt><trkpt lat="50.101395" lon="5.540031"><ele>407.521</ele><time>2022-09-17T11:26:19Z</time></trkpt><trkpt lat="50.101345" lon="5.540067"><ele>407.526</ele><time>2022-09-17T11:26:20Z</time></trkpt><trkpt lat="50.101294" lon="5.540092"><ele>407.510</ele><time>2022-09-17T11:26:21Z</time></trkpt><trkpt lat="50.101243" lon="5.540119"><ele>407.647</ele><time>2022-09-17T11:26:22Z</time></trkpt><trkpt lat="50.101192" lon="5.540152"><ele>407.858</ele><time>2022-09-17T11:26:23Z</time></trkpt><trkpt lat="50.101142" lon="5.540185"><ele>407.852</ele><time>2022-09-17T11:26:24Z</time></trkpt><trkpt lat="50.101085" lon="5.540225"><ele>407.817</ele><time>2022-09-17T11:26:25Z</time></trkpt><trkpt lat="50.101033" lon="5.540282"><ele>407.809</ele><time>2022-09-17T11:26:26Z</time></trkpt><trkpt lat="50.100970" lon="5.540351"><ele>407.816</ele><time>2022-09-17T11:26:27Z</time></trkpt><trkpt lat="50.100869" lon="5.540365"><ele>407.796</ele><time>2022-09-17T11:26:28Z</time></trkpt><trkpt lat="50.100771" lon="5.540463"><ele>407.648</ele><time>2022-09-17T11:26:29Z</time></trkpt><trkpt lat="50.100690" lon="5.540613"><ele>407.424</ele><time>2022-09-17T11:26:30Z</time></trkpt><trkpt lat="50.100589" lon="5.540720"><ele>407.259</ele><time>2022-09-17T11:26:31Z</time></trkpt><trkpt lat="50.100486" lon="5.540811"><ele>406.884</ele><time>2022-09-17T11:26:32Z</time></trkpt><trkpt lat="50.100342" lon="5.540834"><ele>406.149</ele><time>2022-09-17T11:26:33Z</time></trkpt><trkpt lat="50.100216" lon="5.540930"><ele>405.213</ele><time>2022-09-17T11:26:34Z</time></trkpt><trkpt lat="50.100086" lon="5.541030"><ele>404.460</ele><time>2022-09-17T11:26:35Z</time></trkpt><trkpt lat="50.099946" lon="5.541137"><ele>403.621</ele><time>2022-09-17T11:26:36Z</time></trkpt><trkpt lat="50.099820" lon="5.541232"><ele>402.841</ele><time>2022-09-17T11:26:37Z</time></trkpt><trkpt lat="50.099714" lon="5.541303"><ele>402.405</ele><time>2022-09-17T11:26:38Z</time></trkpt><trkpt lat="50.099617" lon="5.541363"><ele>402.009</ele><time>2022-09-17T11:26:39Z</time></trkpt><trkpt lat="50.099542" lon="5.541409"><ele>402.093</ele><time>2022-09-17T11:26:40Z</time></trkpt><trkpt lat="50.099475" lon="5.541450"><ele>402.233</ele><time>2022-09-17T11:26:41Z</time></trkpt><trkpt lat="50.099420" lon="5.541484"><ele>402.775</ele><time>2022-09-17T11:26:42Z</time></trkpt><trkpt lat="50.099357" lon="5.541523"><ele>403.651</ele><time>2022-09-17T11:26:43Z</time></trkpt><trkpt lat="50.099298" lon="5.541639"><ele>404.646</ele><time>2022-09-17T11:26:44Z</time></trkpt><trkpt lat="50.099194" lon="5.541694"><ele>405.611</ele><time>2022-09-17T11:26:45Z</time></trkpt><trkpt lat="50.099039" lon="5.541775"><ele>406.216</ele><time>2022-09-17T11:26:46Z</time></trkpt><trkpt lat="50.098858" lon="5.541863"><ele>406.010</ele><time>2022-09-17T11:26:47Z</time></trkpt><trkpt lat="50.098684" lon="5.541949"><ele>405.397</ele><time>2022-09-17T11:26:48Z</time></trkpt><trkpt lat="50.098535" lon="5.542029"><ele>404.217</ele><time>2022-09-17T11:26:49Z</time></trkpt><trkpt lat="50.098402" lon="5.542091"><ele>403.187</ele><time>2022-09-17T11:26:50Z</time></trkpt><trkpt lat="50.098269" lon="5.542146"><ele>402.415</ele><time>2022-09-17T11:26:51Z</time></trkpt><trkpt lat="50.098125" lon="5.542207"><ele>402.109</ele><time>2022-09-17T11:26:52Z</time></trkpt><trkpt lat="50.097984" lon="5.542270"><ele>402.552</ele><time>2022-09-17T11:26:53Z</time></trkpt><trkpt lat="50.097836" lon="5.542332"><ele>403.582</ele><time>2022-09-17T11:26:54Z</time></trkpt><trkpt lat="50.097690" lon="5.542398"><ele>404.514</ele><time>2022-09-17T11:26:55Z</time></trkpt><trkpt lat="50.097544" lon="5.542471"><ele>405.180</ele><time>2022-09-17T11:26:56Z</time></trkpt><trkpt lat="50.097407" lon="5.542538"><ele>405.265</ele><time>2022-09-17T11:26:57Z</time></trkpt><trkpt lat="50.097273" lon="5.542610"><ele>405.310</ele><time>2022-09-17T11:26:58Z</time></trkpt><trkpt lat="50.097127" lon="5.542701"><ele>405.495</ele><time>2022-09-17T11:26:59Z</time></trkpt><trkpt lat="50.096986" lon="5.542783"><ele>405.799</ele><time>2022-09-17T11:27:00Z</time></trkpt><trkpt lat="50.096862" lon="5.542875"><ele>406.526</ele><time>2022-09-17T11:27:01Z</time></trkpt><trkpt lat="50.096730" lon="5.542991"><ele>407.686</ele><time>2022-09-17T11:27:02Z</time></trkpt><trkpt lat="50.096585" lon="5.543097"><ele>408.860</ele><time>2022-09-17T11:27:03Z</time></trkpt><trkpt lat="50.096435" lon="5.543187"><ele>409.826</ele><time>2022-09-17T11:27:04Z</time></trkpt><trkpt lat="50.096285" lon="5.543276"><ele>410.509</ele><time>2022-09-17T11:27:05Z</time></trkpt><trkpt lat="50.096138" lon="5.543361"><ele>410.929</ele><time>2022-09-17T11:27:06Z</time></trkpt><trkpt lat="50.095991" lon="5.543449"><ele>410.959</ele><time>2022-09-17T11:27:07Z</time></trkpt><trkpt lat="50.095850" lon="5.543544"><ele>410.841</ele><time>2022-09-17T11:27:08Z</time></trkpt><trkpt lat="50.095721" lon="5.543649"><ele>410.587</ele><time>2022-09-17T11:27:09Z</time></trkpt><trkpt lat="50.095595" lon="5.543754"><ele>409.872</ele><time>2022-09-17T11:27:10Z</time></trkpt><trkpt lat="50.095476" lon="5.543846"><ele>408.857</ele><time>2022-09-17T11:27:11Z</time></trkpt><trkpt lat="50.095354" lon="5.543936"><ele>408.362</ele><time>2022-09-17T11:27:12Z</time></trkpt><trkpt lat="50.095231" lon="5.544029"><ele>407.626</ele><time>2022-09-17T11:27:13Z</time></trkpt><trkpt lat="50.095107" lon="5.544124"><ele>406.923</ele><time>2022-09-17T11:27:14Z</time></trkpt><trkpt lat="50.094974" lon="5.544168"><ele>406.315</ele><time>2022-09-17T11:27:15Z</time></trkpt><trkpt lat="50.094846" lon="5.544230"><ele>405.865</ele><time>2022-09-17T11:27:16Z</time></trkpt><trkpt lat="50.094704" lon="5.544283"><ele>405.111</ele><time>2022-09-17T11:27:17Z</time></trkpt><trkpt lat="50.094568" lon="5.544334"><ele>404.309</ele><time>2022-09-17T11:27:18Z</time></trkpt><trkpt lat="50.094435" lon="5.544406"><ele>403.472</ele><time>2022-09-17T11:27:19Z</time></trkpt><trkpt lat="50.094298" lon="5.544491"><ele>402.622</ele><time>2022-09-17T11:27:20Z</time></trkpt><trkpt lat="50.094162" lon="5.544580"><ele>402.184</ele><time>2022-09-17T11:27:21Z</time></trkpt><trkpt lat="50.094031" lon="5.544680"><ele>401.790</ele><time>2022-09-17T11:27:22Z</time></trkpt><trkpt lat="50.093901" lon="5.544780"><ele>401.485</ele><time>2022-09-17T11:27:23Z</time></trkpt><trkpt lat="50.093768" lon="5.544883"><ele>401.340</ele><time>2022-09-17T11:27:24Z</time></trkpt><trkpt lat="50.093631" lon="5.544989"><ele>401.365</ele><time>2022-09-17T11:27:25Z</time></trkpt><trkpt lat="50.093500" lon="5.545093"><ele>401.029</ele><time>2022-09-17T11:27:26Z</time></trkpt><trkpt lat="50.093365" lon="5.545203"><ele>400.576</ele><time>2022-09-17T11:27:27Z</time></trkpt><trkpt lat="50.093229" lon="5.545314"><ele>400.182</ele><time>2022-09-17T11:27:28Z</time></trkpt><trkpt lat="50.093108" lon="5.545413"><ele>399.543</ele><time>2022-09-17T11:27:29Z</time></trkpt><trkpt lat="50.092993" lon="5.545519"><ele>398.617</ele><time>2022-09-17T11:27:30Z</time></trkpt><trkpt lat="50.092884" lon="5.545622"><ele>398.109</ele><time>2022-09-17T11:27:31Z</time></trkpt><trkpt lat="50.092791" lon="5.545738"><ele>397.629</ele><time>2022-09-17T11:27:32Z</time></trkpt><trkpt lat="50.092687" lon="5.545829"><ele>397.389</ele><time>2022-09-17T11:27:33Z</time></trkpt><trkpt lat="50.092586" lon="5.545919"><ele>396.771</ele><time>2022-09-17T11:27:34Z</time></trkpt><trkpt lat="50.092472" lon="5.546028"><ele>396.477</ele><time>2022-09-17T11:27:35Z</time></trkpt><trkpt lat="50.092359" lon="5.546149"><ele>395.972</ele><time>2022-09-17T11:27:36Z</time></trkpt><trkpt lat="50.092245" lon="5.546268"><ele>395.277</ele><time>2022-09-17T11:27:37Z</time></trkpt><trkpt lat="50.092139" lon="5.546374"><ele>394.892</ele><time>2022-09-17T11:27:38Z</time></trkpt><trkpt lat="50.092034" lon="5.546483"><ele>394.036</ele><time>2022-09-17T11:27:39Z</time></trkpt><trkpt lat="50.091934" lon="5.546591"><ele>392.973</ele><time>2022-09-17T11:27:40Z</time></trkpt><trkpt lat="50.091836" lon="5.546694"><ele>392.185</ele><time>2022-09-17T11:27:41Z</time></trkpt><trkpt lat="50.091744" lon="5.546788"><ele>391.489</ele><time>2022-09-17T11:27:42Z</time></trkpt><trkpt lat="50.091665" lon="5.546871"><ele>390.717</ele><time>2022-09-17T11:27:43Z</time></trkpt><trkpt lat="50.091593" lon="5.546953"><ele>390.309</ele><time>2022-09-17T11:27:44Z</time></trkpt><trkpt lat="50.091516" lon="5.547010"><ele>390.289</ele><time>2022-09-17T11:27:45Z</time></trkpt><trkpt lat="50.091454" lon="5.547074"><ele>390.129</ele><time>2022-09-17T11:27:46Z</time></trkpt><trkpt lat="50.091393" lon="5.547137"><ele>390.171</ele><time>2022-09-17T11:27:47Z</time></trkpt><trkpt lat="50.091329" lon="5.547203"><ele>390.147</ele><time>2022-09-17T11:27:48Z</time></trkpt><trkpt lat="50.091253" lon="5.547309"><ele>390.132</ele><time>2022-09-17T11:27:49Z</time></trkpt><trkpt lat="50.091160" lon="5.547411"><ele>390.037</ele><time>2022-09-17T11:27:50Z</time></trkpt><trkpt lat="50.091043" lon="5.547513"><ele>389.542</ele><time>2022-09-17T11:27:51Z</time></trkpt><trkpt lat="50.090925" lon="5.547639"><ele>388.576</ele><time>2022-09-17T11:27:52Z</time></trkpt><trkpt lat="50.090803" lon="5.547769"><ele>387.963</ele><time>2022-09-17T11:27:53Z</time></trkpt><trkpt lat="50.090675" lon="5.547906"><ele>387.483</ele><time>2022-09-17T11:27:54Z</time></trkpt><trkpt lat="50.090556" lon="5.548090"><ele>386.825</ele><time>2022-09-17T11:27:55Z</time></trkpt><trkpt lat="50.090412" lon="5.548224"><ele>386.317</ele><time>2022-09-17T11:27:56Z</time></trkpt><trkpt lat="50.090266" lon="5.548356"><ele>386.309</ele><time>2022-09-17T11:27:57Z</time></trkpt><trkpt lat="50.090124" lon="5.548473"><ele>386.359</ele><time>2022-09-17T11:27:58Z</time></trkpt><trkpt lat="50.090000" lon="5.548569"><ele>386.389</ele><time>2022-09-17T11:27:59Z</time></trkpt><trkpt lat="50.089904" lon="5.548628"><ele>386.361</ele><time>2022-09-17T11:28:00Z</time></trkpt><trkpt lat="50.089835" lon="5.548669"><ele>386.337</ele><time>2022-09-17T11:28:01Z</time></trkpt><trkpt lat="50.089786" lon="5.548711"><ele>386.412</ele><time>2022-09-17T11:28:03Z</time></trkpt><trkpt lat="50.089703" lon="5.548652"><ele>386.527</ele><time>2022-09-17T11:28:16Z</time></trkpt><trkpt lat="50.089641" lon="5.548606"><ele>386.782</ele><time>2022-09-17T11:28:17Z</time></trkpt><trkpt lat="50.089560" lon="5.548556"><ele>386.886</ele><time>2022-09-17T11:28:18Z</time></trkpt><trkpt lat="50.089431" lon="5.548472"><ele>386.883</ele><time>2022-09-17T11:28:19Z</time></trkpt><trkpt lat="50.089303" lon="5.548401"><ele>386.282</ele><time>2022-09-17T11:28:20Z</time></trkpt><trkpt lat="50.089152" lon="5.548300"><ele>385.443</ele><time>2022-09-17T11:28:21Z</time></trkpt><trkpt lat="50.088972" lon="5.548172"><ele>384.217</ele><time>2022-09-17T11:28:22Z</time></trkpt><trkpt lat="50.088794" lon="5.548062"><ele>383.109</ele><time>2022-09-17T11:28:23Z</time></trkpt><trkpt lat="50.088627" lon="5.547952"><ele>382.049</ele><time>2022-09-17T11:28:24Z</time></trkpt><trkpt lat="50.088476" lon="5.547843"><ele>381.219</ele><time>2022-09-17T11:28:25Z</time></trkpt><trkpt lat="50.088312" lon="5.547730"><ele>381.031</ele><time>2022-09-17T11:28:26Z</time></trkpt><trkpt lat="50.088156" lon="5.547613"><ele>381.417</ele><time>2022-09-17T11:28:27Z</time></trkpt><trkpt lat="50.087996" lon="5.547478"><ele>382.212</ele><time>2022-09-17T11:28:28Z</time></trkpt><trkpt lat="50.087838" lon="5.547357"><ele>383.547</ele><time>2022-09-17T11:28:29Z</time></trkpt><trkpt lat="50.087677" lon="5.547241"><ele>384.942</ele><time>2022-09-17T11:28:30Z</time></trkpt><trkpt lat="50.087515" lon="5.547119"><ele>385.666</ele><time>2022-09-17T11:28:31Z</time></trkpt><trkpt lat="50.087360" lon="5.547017"><ele>386.043</ele><time>2022-09-17T11:28:32Z</time></trkpt><trkpt lat="50.087192" lon="5.546892"><ele>386.651</ele><time>2022-09-17T11:28:33Z</time></trkpt><trkpt lat="50.087030" lon="5.546777"><ele>387.201</ele><time>2022-09-17T11:28:34Z</time></trkpt><trkpt lat="50.086872" lon="5.546664"><ele>387.611</ele><time>2022-09-17T11:28:35Z</time></trkpt><trkpt lat="50.086715" lon="5.546546"><ele>387.809</ele><time>2022-09-17T11:28:36Z</time></trkpt><trkpt lat="50.086552" lon="5.546422"><ele>388.256</ele><time>2022-09-17T11:28:37Z</time></trkpt><trkpt lat="50.086393" lon="5.546293"><ele>389.136</ele><time>2022-09-17T11:28:38Z</time></trkpt><trkpt lat="50.086234" lon="5.546172"><ele>389.878</ele><time>2022-09-17T11:28:39Z</time></trkpt><trkpt lat="50.086081" lon="5.546040"><ele>390.294</ele><time>2022-09-17T11:28:40Z</time></trkpt><trkpt lat="50.085936" lon="5.545894"><ele>390.939</ele><time>2022-09-17T11:28:41Z</time></trkpt><trkpt lat="50.085792" lon="5.545735"><ele>391.754</ele><time>2022-09-17T11:28:42Z</time></trkpt><trkpt lat="50.085653" lon="5.545581"><ele>392.329</ele><time>2022-09-17T11:28:43Z</time></trkpt><trkpt lat="50.085507" lon="5.545414"><ele>392.943</ele><time>2022-09-17T11:28:44Z</time></trkpt><trkpt lat="50.085382" lon="5.545262"><ele>393.220</ele><time>2022-09-17T11:28:45Z</time></trkpt><trkpt lat="50.085265" lon="5.545106"><ele>392.774</ele><time>2022-09-17T11:28:46Z</time></trkpt><trkpt lat="50.085142" lon="5.544952"><ele>392.156</ele><time>2022-09-17T11:28:47Z</time></trkpt><trkpt lat="50.085015" lon="5.544813"><ele>391.921</ele><time>2022-09-17T11:28:48Z</time></trkpt><trkpt lat="50.084881" lon="5.544674"><ele>391.809</ele><time>2022-09-17T11:28:49Z</time></trkpt><trkpt lat="50.084744" lon="5.544531"><ele>392.278</ele><time>2022-09-17T11:28:50Z</time></trkpt><trkpt lat="50.084605" lon="5.544402"><ele>393.358</ele><time>2022-09-17T11:28:51Z</time></trkpt><trkpt lat="50.084464" lon="5.544306"><ele>394.480</ele><time>2022-09-17T11:28:52Z</time></trkpt><trkpt lat="50.084326" lon="5.544184"><ele>395.396</ele><time>2022-09-17T11:28:53Z</time></trkpt><trkpt lat="50.084195" lon="5.544083"><ele>395.711</ele><time>2022-09-17T11:28:54Z</time></trkpt><trkpt lat="50.084067" lon="5.544016"><ele>395.786</ele><time>2022-09-17T11:28:55Z</time></trkpt><trkpt lat="50.083937" lon="5.543946"><ele>395.781</ele><time>2022-09-17T11:28:56Z</time></trkpt><trkpt lat="50.083797" lon="5.543881"><ele>395.715</ele><time>2022-09-17T11:28:57Z</time></trkpt><trkpt lat="50.083646" lon="5.543821"><ele>395.922</ele><time>2022-09-17T11:28:58Z</time></trkpt><trkpt lat="50.083490" lon="5.543759"><ele>396.464</ele><time>2022-09-17T11:28:59Z</time></trkpt><trkpt lat="50.083331" lon="5.543700"><ele>396.706</ele><time>2022-09-17T11:29:00Z</time></trkpt><trkpt lat="50.083178" lon="5.543648"><ele>396.716</ele><time>2022-09-17T11:29:01Z</time></trkpt><trkpt lat="50.083030" lon="5.543598"><ele>396.009</ele><time>2022-09-17T11:29:02Z</time></trkpt><trkpt lat="50.082887" lon="5.543550"><ele>394.427</ele><time>2022-09-17T11:29:03Z</time></trkpt><trkpt lat="50.082751" lon="5.543504"><ele>392.287</ele><time>2022-09-17T11:29:04Z</time></trkpt><trkpt lat="50.082619" lon="5.543460"><ele>390.169</ele><time>2022-09-17T11:29:05Z</time></trkpt><trkpt lat="50.082490" lon="5.543412"><ele>389.215</ele><time>2022-09-17T11:29:06Z</time></trkpt><trkpt lat="50.082359" lon="5.543351"><ele>387.840</ele><time>2022-09-17T11:29:07Z</time></trkpt><trkpt lat="50.082238" lon="5.543281"><ele>387.265</ele><time>2022-09-17T11:29:08Z</time></trkpt><trkpt lat="50.082128" lon="5.543189"><ele>387.210</ele><time>2022-09-17T11:29:09Z</time></trkpt><trkpt lat="50.082022" lon="5.543099"><ele>387.264</ele><time>2022-09-17T11:29:10Z</time></trkpt><trkpt lat="50.081923" lon="5.543015"><ele>386.731</ele><time>2022-09-17T11:29:11Z</time></trkpt><trkpt lat="50.081823" lon="5.542930"><ele>385.876</ele><time>2022-09-17T11:29:12Z</time></trkpt><trkpt lat="50.081718" lon="5.542845"><ele>385.290</ele><time>2022-09-17T11:29:13Z</time></trkpt><trkpt lat="50.081600" lon="5.542779"><ele>384.119</ele><time>2022-09-17T11:29:14Z</time></trkpt><trkpt lat="50.081500" lon="5.542741"><ele>383.109</ele><time>2022-09-17T11:29:15Z</time></trkpt><trkpt lat="50.081388" lon="5.542699"><ele>383.128</ele><time>2022-09-17T11:29:16Z</time></trkpt><trkpt lat="50.081261" lon="5.542691"><ele>383.468</ele><time>2022-09-17T11:29:17Z</time></trkpt><trkpt lat="50.081137" lon="5.542638"><ele>383.490</ele><time>2022-09-17T11:29:18Z</time></trkpt><trkpt lat="50.081010" lon="5.542637"><ele>383.266</ele><time>2022-09-17T11:29:19Z</time></trkpt><trkpt lat="50.080886" lon="5.542606"><ele>382.731</ele><time>2022-09-17T11:29:20Z</time></trkpt><trkpt lat="50.080772" lon="5.542579"><ele>382.286</ele><time>2022-09-17T11:29:21Z</time></trkpt><trkpt lat="50.080658" lon="5.542553"><ele>381.091</ele><time>2022-09-17T11:29:22Z</time></trkpt><trkpt lat="50.080552" lon="5.542527"><ele>379.885</ele><time>2022-09-17T11:29:23Z</time></trkpt><trkpt lat="50.080439" lon="5.542495"><ele>378.812</ele><time>2022-09-17T11:29:24Z</time></trkpt><trkpt lat="50.080333" lon="5.542430"><ele>377.418</ele><time>2022-09-17T11:29:25Z</time></trkpt><trkpt lat="50.080223" lon="5.542327"><ele>375.898</ele><time>2022-09-17T11:29:26Z</time></trkpt><trkpt lat="50.080110" lon="5.542207"><ele>374.617</ele><time>2022-09-17T11:29:27Z</time></trkpt><trkpt lat="50.080009" lon="5.542077"><ele>373.509</ele><time>2022-09-17T11:29:28Z</time></trkpt><trkpt lat="50.079905" lon="5.541943"><ele>372.422</ele><time>2022-09-17T11:29:29Z</time></trkpt><trkpt lat="50.079808" lon="5.541811"><ele>371.252</ele><time>2022-09-17T11:29:30Z</time></trkpt><trkpt lat="50.079723" lon="5.541698"><ele>370.174</ele><time>2022-09-17T11:29:31Z</time></trkpt><trkpt lat="50.079646" lon="5.541581"><ele>368.710</ele><time>2022-09-17T11:29:32Z</time></trkpt><trkpt lat="50.079572" lon="5.541474"><ele>366.955</ele><time>2022-09-17T11:29:33Z</time></trkpt><trkpt lat="50.079558" lon="5.541294"><ele>365.070</ele><time>2022-09-17T11:29:34Z</time></trkpt><trkpt lat="50.079500" lon="5.541197"><ele>363.595</ele><time>2022-09-17T11:29:35Z</time></trkpt><trkpt lat="50.079462" lon="5.541106"><ele>362.199</ele><time>2022-09-17T11:29:36Z</time></trkpt><trkpt lat="50.079415" lon="5.541005"><ele>361.516</ele><time>2022-09-17T11:29:37Z</time></trkpt><trkpt lat="50.079361" lon="5.540886"><ele>360.659</ele><time>2022-09-17T11:29:38Z</time></trkpt><trkpt lat="50.079303" lon="5.540783"><ele>360.003</ele><time>2022-09-17T11:29:39Z</time></trkpt><trkpt lat="50.079273" lon="5.540683"><ele>359.423</ele><time>2022-09-17T11:29:40Z</time></trkpt><trkpt lat="50.079246" lon="5.540594"><ele>358.709</ele><time>2022-09-17T11:29:41Z</time></trkpt><trkpt lat="50.079219" lon="5.540518"><ele>357.836</ele><time>2022-09-17T11:29:42Z</time></trkpt><trkpt lat="50.079175" lon="5.540433"><ele>357.386</ele><time>2022-09-17T11:29:43Z</time></trkpt><trkpt lat="50.079137" lon="5.540360"><ele>356.318</ele><time>2022-09-17T11:29:44Z</time></trkpt><trkpt lat="50.079175" lon="5.540189"><ele>354.644</ele><time>2022-09-17T11:29:45Z</time></trkpt><trkpt lat="50.079165" lon="5.540049"><ele>353.819</ele><time>2022-09-17T11:29:46Z</time></trkpt><trkpt lat="50.079133" lon="5.539875"><ele>353.364</ele><time>2022-09-17T11:29:47Z</time></trkpt><trkpt lat="50.079088" lon="5.539701"><ele>353.289</ele><time>2022-09-17T11:29:48Z</time></trkpt><trkpt lat="50.079039" lon="5.539532"><ele>353.273</ele><time>2022-09-17T11:29:49Z</time></trkpt><trkpt lat="50.078984" lon="5.539351"><ele>353.310</ele><time>2022-09-17T11:29:50Z</time></trkpt><trkpt lat="50.078918" lon="5.539178"><ele>353.629</ele><time>2022-09-17T11:29:51Z</time></trkpt><trkpt lat="50.078855" lon="5.539013"><ele>354.000</ele><time>2022-09-17T11:29:52Z</time></trkpt><trkpt lat="50.078797" lon="5.538849"><ele>354.320</ele><time>2022-09-17T11:29:53Z</time></trkpt><trkpt lat="50.078744" lon="5.538699"><ele>354.309</ele><time>2022-09-17T11:29:54Z</time></trkpt><trkpt lat="50.078687" lon="5.538533"><ele>354.343</ele><time>2022-09-17T11:29:55Z</time></trkpt><trkpt lat="50.078629" lon="5.538366"><ele>353.923</ele><time>2022-09-17T11:29:56Z</time></trkpt><trkpt lat="50.078579" lon="5.538197"><ele>353.345</ele><time>2022-09-17T11:29:57Z</time></trkpt><trkpt lat="50.078541" lon="5.538014"><ele>352.891</ele><time>2022-09-17T11:29:58Z</time></trkpt><trkpt lat="50.078519" lon="5.537823"><ele>352.366</ele><time>2022-09-17T11:29:59Z</time></trkpt><trkpt lat="50.078505" lon="5.537635"><ele>351.781</ele><time>2022-09-17T11:30:00Z</time></trkpt><trkpt lat="50.078500" lon="5.537450"><ele>351.036</ele><time>2022-09-17T11:30:01Z</time></trkpt><trkpt lat="50.078505" lon="5.537274"><ele>349.910</ele><time>2022-09-17T11:30:02Z</time></trkpt><trkpt lat="50.078518" lon="5.537099"><ele>348.977</ele><time>2022-09-17T11:30:03Z</time></trkpt><trkpt lat="50.078537" lon="5.536896"><ele>347.923</ele><time>2022-09-17T11:30:04Z</time></trkpt><trkpt lat="50.078556" lon="5.536736"><ele>346.483</ele><time>2022-09-17T11:30:05Z</time></trkpt><trkpt lat="50.078593" lon="5.536577"><ele>345.711</ele><time>2022-09-17T11:30:06Z</time></trkpt><trkpt lat="50.078625" lon="5.536419"><ele>345.409</ele><time>2022-09-17T11:30:07Z</time></trkpt><trkpt lat="50.078657" lon="5.536263"><ele>345.083</ele><time>2022-09-17T11:30:08Z</time></trkpt><trkpt lat="50.078686" lon="5.536116"><ele>345.093</ele><time>2022-09-17T11:30:09Z</time></trkpt><trkpt lat="50.078717" lon="5.535950"><ele>344.755</ele><time>2022-09-17T11:30:10Z</time></trkpt><trkpt lat="50.078751" lon="5.535782"><ele>344.721</ele><time>2022-09-17T11:30:11Z</time></trkpt><trkpt lat="50.078783" lon="5.535609"><ele>344.396</ele><time>2022-09-17T11:30:12Z</time></trkpt><trkpt lat="50.078811" lon="5.535440"><ele>344.091</ele><time>2022-09-17T11:30:13Z</time></trkpt><trkpt lat="50.078868" lon="5.535304"><ele>343.756</ele><time>2022-09-17T11:30:14Z</time></trkpt><trkpt lat="50.078896" lon="5.535151"><ele>343.260</ele><time>2022-09-17T11:30:15Z</time></trkpt><trkpt lat="50.078921" lon="5.534999"><ele>343.187</ele><time>2022-09-17T11:30:16Z</time></trkpt><trkpt lat="50.078949" lon="5.534852"><ele>342.963</ele><time>2022-09-17T11:30:17Z</time></trkpt><trkpt lat="50.078982" lon="5.534704"><ele>342.744</ele><time>2022-09-17T11:30:18Z</time></trkpt><trkpt lat="50.079014" lon="5.534556"><ele>342.318</ele><time>2022-09-17T11:30:19Z</time></trkpt><trkpt lat="50.079047" lon="5.534410"><ele>342.109</ele><time>2022-09-17T11:30:20Z</time></trkpt><trkpt lat="50.079091" lon="5.534279"><ele>341.667</ele><time>2022-09-17T11:30:21Z</time></trkpt><trkpt lat="50.079140" lon="5.534156"><ele>341.187</ele><time>2022-09-17T11:30:22Z</time></trkpt><trkpt lat="50.079208" lon="5.534018"><ele>340.469</ele><time>2022-09-17T11:30:23Z</time></trkpt><trkpt lat="50.079281" lon="5.533889"><ele>339.815</ele><time>2022-09-17T11:30:24Z</time></trkpt><trkpt lat="50.079361" lon="5.533768"><ele>339.330</ele><time>2022-09-17T11:30:25Z</time></trkpt><trkpt lat="50.079453" lon="5.533643"><ele>338.825</ele><time>2022-09-17T11:30:26Z</time></trkpt><trkpt lat="50.079548" lon="5.533536"><ele>338.380</ele><time>2022-09-17T11:30:27Z</time></trkpt><trkpt lat="50.079649" lon="5.533445"><ele>337.884</ele><time>2022-09-17T11:30:28Z</time></trkpt><trkpt lat="50.079749" lon="5.533364"><ele>337.691</ele><time>2022-09-17T11:30:29Z</time></trkpt><trkpt lat="50.079846" lon="5.533280"><ele>337.035</ele><time>2022-09-17T11:30:30Z</time></trkpt><trkpt lat="50.079929" lon="5.533184"><ele>336.486</ele><time>2022-09-17T11:30:31Z</time></trkpt><trkpt lat="50.080017" lon="5.533125"><ele>336.214</ele><time>2022-09-17T11:30:32Z</time></trkpt><trkpt lat="50.080088" lon="5.533077"><ele>335.909</ele><time>2022-09-17T11:30:33Z</time></trkpt><trkpt lat="50.080135" lon="5.533046"><ele>335.744</ele><time>2022-09-17T11:30:34Z</time></trkpt><trkpt lat="50.080183" lon="5.533014"><ele>335.574</ele><time>2022-09-17T11:30:35Z</time></trkpt><trkpt lat="50.080223" lon="5.532953"><ele>335.576</ele><time>2022-09-17T11:30:37Z</time></trkpt><trkpt lat="50.080259" lon="5.532758"><ele>335.722</ele><time>2022-09-17T11:30:39Z</time></trkpt><trkpt lat="50.080248" lon="5.532675"><ele>336.377</ele><time>2022-09-17T11:30:40Z</time></trkpt><trkpt lat="50.080219" lon="5.532553"><ele>336.792</ele><time>2022-09-17T11:30:41Z</time></trkpt><trkpt lat="50.080210" lon="5.532424"><ele>336.777</ele><time>2022-09-17T11:30:42Z</time></trkpt><trkpt lat="50.080211" lon="5.532291"><ele>336.681</ele><time>2022-09-17T11:30:43Z</time></trkpt><trkpt lat="50.080203" lon="5.532143"><ele>336.278</ele><time>2022-09-17T11:30:44Z</time></trkpt><trkpt lat="50.080198" lon="5.532026"><ele>335.755</ele><time>2022-09-17T11:30:45Z</time></trkpt><trkpt lat="50.080194" lon="5.531928"><ele>335.107</ele><time>2022-09-17T11:30:46Z</time></trkpt><trkpt lat="50.080187" lon="5.531792"><ele>334.517</ele><time>2022-09-17T11:30:47Z</time></trkpt><trkpt lat="50.080179" lon="5.531619"><ele>334.209</ele><time>2022-09-17T11:30:48Z</time></trkpt><trkpt lat="50.080171" lon="5.531446"><ele>334.286</ele><time>2022-09-17T11:30:49Z</time></trkpt><trkpt lat="50.080149" lon="5.531242"><ele>334.556</ele><time>2022-09-17T11:30:50Z</time></trkpt><trkpt lat="50.080153" lon="5.531043"><ele>335.048</ele><time>2022-09-17T11:30:51Z</time></trkpt><trkpt lat="50.080152" lon="5.530825"><ele>335.714</ele><time>2022-09-17T11:30:52Z</time></trkpt><trkpt lat="50.080162" lon="5.530601"><ele>336.339</ele><time>2022-09-17T11:30:53Z</time></trkpt><trkpt lat="50.080176" lon="5.530376"><ele>336.564</ele><time>2022-09-17T11:30:54Z</time></trkpt><trkpt lat="50.080192" lon="5.530164"><ele>336.669</ele><time>2022-09-17T11:30:55Z</time></trkpt><trkpt lat="50.080207" lon="5.529954"><ele>336.633</ele><time>2022-09-17T11:30:56Z</time></trkpt><trkpt lat="50.080222" lon="5.529754"><ele>336.610</ele><time>2022-09-17T11:30:57Z</time></trkpt><trkpt lat="50.080234" lon="5.529532"><ele>336.242</ele><time>2022-09-17T11:30:58Z</time></trkpt><trkpt lat="50.080242" lon="5.529314"><ele>336.022</ele><time>2022-09-17T11:30:59Z</time></trkpt><trkpt lat="50.080253" lon="5.529099"><ele>335.914</ele><time>2022-09-17T11:31:00Z</time></trkpt><trkpt lat="50.080265" lon="5.528875"><ele>335.909</ele><time>2022-09-17T11:31:01Z</time></trkpt><trkpt lat="50.080284" lon="5.528671"><ele>335.925</ele><time>2022-09-17T11:31:02Z</time></trkpt><trkpt lat="50.080264" lon="5.528454"><ele>335.965</ele><time>2022-09-17T11:31:03Z</time></trkpt><trkpt lat="50.080248" lon="5.528228"><ele>335.827</ele><time>2022-09-17T11:31:04Z</time></trkpt><trkpt lat="50.080228" lon="5.528000"><ele>335.643</ele><time>2022-09-17T11:31:05Z</time></trkpt><trkpt lat="50.080196" lon="5.527773"><ele>335.528</ele><time>2022-09-17T11:31:06Z</time></trkpt><trkpt lat="50.080147" lon="5.527564"><ele>335.593</ele><time>2022-09-17T11:31:07Z</time></trkpt><trkpt lat="50.080088" lon="5.527349"><ele>335.618</ele><time>2022-09-17T11:31:08Z</time></trkpt><trkpt lat="50.080025" lon="5.527152"><ele>335.812</ele><time>2022-09-17T11:31:09Z</time></trkpt><trkpt lat="50.079945" lon="5.526939"><ele>336.069</ele><time>2022-09-17T11:31:10Z</time></trkpt><trkpt lat="50.079862" lon="5.526746"><ele>336.155</ele><time>2022-09-17T11:31:11Z</time></trkpt><trkpt lat="50.079784" lon="5.526567"><ele>336.407</ele><time>2022-09-17T11:31:12Z</time></trkpt><trkpt lat="50.079707" lon="5.526397"><ele>336.817</ele><time>2022-09-17T11:31:13Z</time></trkpt><trkpt lat="50.079613" lon="5.526220"><ele>337.309</ele><time>2022-09-17T11:31:14Z</time></trkpt><trkpt lat="50.079517" lon="5.526078"><ele>337.836</ele><time>2022-09-17T11:31:15Z</time></trkpt><trkpt lat="50.079400" lon="5.525934"><ele>338.076</ele><time>2022-09-17T11:31:16Z</time></trkpt><trkpt lat="50.079255" lon="5.525816"><ele>338.078</ele><time>2022-09-17T11:31:17Z</time></trkpt><trkpt lat="50.079111" lon="5.525747"><ele>337.954</ele><time>2022-09-17T11:31:18Z</time></trkpt><trkpt lat="50.078963" lon="5.525708"><ele>337.759</ele><time>2022-09-17T11:31:19Z</time></trkpt><trkpt lat="50.078814" lon="5.525663"><ele>337.564</ele><time>2022-09-17T11:31:20Z</time></trkpt><trkpt lat="50.078668" lon="5.525614"><ele>337.479</ele><time>2022-09-17T11:31:21Z</time></trkpt><trkpt lat="50.078515" lon="5.525561"><ele>337.433</ele><time>2022-09-17T11:31:22Z</time></trkpt><trkpt lat="50.078358" lon="5.525506"><ele>337.460</ele><time>2022-09-17T11:31:23Z</time></trkpt><trkpt lat="50.078207" lon="5.525456"><ele>337.398</ele><time>2022-09-17T11:31:24Z</time></trkpt><trkpt lat="50.078055" lon="5.525410"><ele>337.215</ele><time>2022-09-17T11:31:25Z</time></trkpt><trkpt lat="50.077897" lon="5.525362"><ele>337.126</ele><time>2022-09-17T11:31:26Z</time></trkpt><trkpt lat="50.077751" lon="5.525317"><ele>337.009</ele><time>2022-09-17T11:31:27Z</time></trkpt><trkpt lat="50.077609" lon="5.525273"><ele>336.990</ele><time>2022-09-17T11:31:28Z</time></trkpt><trkpt lat="50.077476" lon="5.525232"><ele>336.920</ele><time>2022-09-17T11:31:29Z</time></trkpt><trkpt lat="50.077351" lon="5.525198"><ele>336.932</ele><time>2022-09-17T11:31:30Z</time></trkpt><trkpt lat="50.077226" lon="5.525160"><ele>336.828</ele><time>2022-09-17T11:31:31Z</time></trkpt><trkpt lat="50.077102" lon="5.525114"><ele>336.733</ele><time>2022-09-17T11:31:32Z</time></trkpt><trkpt lat="50.076975" lon="5.525062"><ele>336.578</ele><time>2022-09-17T11:31:33Z</time></trkpt><trkpt lat="50.076862" lon="5.524982"><ele>336.363</ele><time>2022-09-17T11:31:34Z</time></trkpt><trkpt lat="50.076766" lon="5.524862"><ele>335.937</ele><time>2022-09-17T11:31:35Z</time></trkpt><trkpt lat="50.076670" lon="5.524702"><ele>335.424</ele><time>2022-09-17T11:31:36Z</time></trkpt><trkpt lat="50.076571" lon="5.524530"><ele>335.435</ele><time>2022-09-17T11:31:37Z</time></trkpt><trkpt lat="50.076482" lon="5.524335"><ele>335.586</ele><time>2022-09-17T11:31:38Z</time></trkpt><trkpt lat="50.076390" lon="5.524129"><ele>335.914</ele><time>2022-09-17T11:31:39Z</time></trkpt><trkpt lat="50.076308" lon="5.523918"><ele>336.509</ele><time>2022-09-17T11:31:40Z</time></trkpt><trkpt lat="50.076215" lon="5.523715"><ele>336.894</ele><time>2022-09-17T11:31:41Z</time></trkpt><trkpt lat="50.076127" lon="5.523539"><ele>337.094</ele><time>2022-09-17T11:31:42Z</time></trkpt><trkpt lat="50.076051" lon="5.523372"><ele>337.266</ele><time>2022-09-17T11:31:43Z</time></trkpt><trkpt lat="50.075991" lon="5.523211"><ele>337.262</ele><time>2022-09-17T11:31:44Z</time></trkpt><trkpt lat="50.075936" lon="5.523042"><ele>337.257</ele><time>2022-09-17T11:31:45Z</time></trkpt><trkpt lat="50.075902" lon="5.522914"><ele>337.572</ele><time>2022-09-17T11:31:46Z</time></trkpt><trkpt lat="50.075874" lon="5.522810"><ele>337.687</ele><time>2022-09-17T11:31:47Z</time></trkpt><trkpt lat="50.075852" lon="5.522730"><ele>337.651</ele><time>2022-09-17T11:31:48Z</time></trkpt><trkpt lat="50.075741" lon="5.522793"><ele>337.628</ele><time>2022-09-17T11:31:51Z</time></trkpt><trkpt lat="50.075667" lon="5.522815"><ele>337.644</ele><time>2022-09-17T11:31:53Z</time></trkpt><trkpt lat="50.075549" lon="5.522822"><ele>337.605</ele><time>2022-09-17T11:34:54Z</time></trkpt><trkpt lat="50.075497" lon="5.522839"><ele>337.615</ele><time>2022-09-17T11:34:55Z</time></trkpt><trkpt lat="50.075434" lon="5.522876"><ele>337.609</ele><time>2022-09-17T11:34:56Z</time></trkpt><trkpt lat="50.075349" lon="5.522931"><ele>337.655</ele><time>2022-09-17T11:34:57Z</time></trkpt><trkpt lat="50.075264" lon="5.523053"><ele>337.415</ele><time>2022-09-17T11:34:58Z</time></trkpt><trkpt lat="50.075121" lon="5.523131"><ele>337.147</ele><time>2022-09-17T11:34:59Z</time></trkpt><trkpt lat="50.074973" lon="5.523211"><ele>337.053</ele><time>2022-09-17T11:35:00Z</time></trkpt><trkpt lat="50.074844" lon="5.523281"><ele>336.878</ele><time>2022-09-17T11:35:01Z</time></trkpt><trkpt lat="50.074733" lon="5.523341"><ele>336.683</ele><time>2022-09-17T11:35:02Z</time></trkpt><trkpt lat="50.074637" lon="5.523392"><ele>336.528</ele><time>2022-09-17T11:35:03Z</time></trkpt><trkpt lat="50.074546" lon="5.523442"><ele>336.092</ele><time>2022-09-17T11:35:04Z</time></trkpt><trkpt lat="50.074458" lon="5.523490"><ele>335.499</ele><time>2022-09-17T11:35:05Z</time></trkpt><trkpt lat="50.074373" lon="5.523536"><ele>335.423</ele><time>2022-09-17T11:35:06Z</time></trkpt><trkpt lat="50.074292" lon="5.523580"><ele>335.483</ele><time>2022-09-17T11:35:07Z</time></trkpt><trkpt lat="50.074214" lon="5.523619"><ele>335.411</ele><time>2022-09-17T11:35:08Z</time></trkpt><trkpt lat="50.074147" lon="5.523651"><ele>335.809</ele><time>2022-09-17T11:35:09Z</time></trkpt><trkpt lat="50.074086" lon="5.523680"><ele>336.383</ele><time>2022-09-17T11:35:10Z</time></trkpt><trkpt lat="50.074028" lon="5.523707"><ele>336.593</ele><time>2022-09-17T11:35:11Z</time></trkpt><trkpt lat="50.073973" lon="5.523733"><ele>336.645</ele><time>2022-09-17T11:35:12Z</time></trkpt><trkpt lat="50.073917" lon="5.523759"><ele>336.651</ele><time>2022-09-17T11:35:13Z</time></trkpt><trkpt lat="50.073868" lon="5.523782"><ele>337.216</ele><time>2022-09-17T11:35:14Z</time></trkpt><trkpt lat="50.073816" lon="5.523790"><ele>337.371</ele><time>2022-09-17T11:35:15Z</time></trkpt><trkpt lat="50.073768" lon="5.523818"><ele>337.676</ele><time>2022-09-17T11:35:16Z</time></trkpt><trkpt lat="50.073721" lon="5.523829"><ele>337.880</ele><time>2022-09-17T11:35:17Z</time></trkpt><trkpt lat="50.073666" lon="5.523866"><ele>338.127</ele><time>2022-09-17T11:35:18Z</time></trkpt><trkpt lat="50.073603" lon="5.523858"><ele>338.336</ele><time>2022-09-17T11:35:19Z</time></trkpt><trkpt lat="50.073536" lon="5.523870"><ele>338.317</ele><time>2022-09-17T11:35:20Z</time></trkpt><trkpt lat="50.073448" lon="5.523845"><ele>338.418</ele><time>2022-09-17T11:35:21Z</time></trkpt><trkpt lat="50.073352" lon="5.523828"><ele>338.509</ele><time>2022-09-17T11:35:22Z</time></trkpt><trkpt lat="50.073241" lon="5.523814"><ele>338.584</ele><time>2022-09-17T11:35:23Z</time></trkpt><trkpt lat="50.073130" lon="5.523769"><ele>338.584</ele><time>2022-09-17T11:35:24Z</time></trkpt><trkpt lat="50.073016" lon="5.523729"><ele>338.476</ele><time>2022-09-17T11:35:25Z</time></trkpt><trkpt lat="50.072900" lon="5.523697"><ele>338.462</ele><time>2022-09-17T11:35:26Z</time></trkpt><trkpt lat="50.072788" lon="5.523637"><ele>338.187</ele><time>2022-09-17T11:35:27Z</time></trkpt><trkpt lat="50.072690" lon="5.523559"><ele>338.172</ele><time>2022-09-17T11:35:28Z</time></trkpt><trkpt lat="50.072608" lon="5.523479"><ele>337.987</ele><time>2022-09-17T11:35:29Z</time></trkpt><trkpt lat="50.072535" lon="5.523423"><ele>337.951</ele><time>2022-09-17T11:35:30Z</time></trkpt><trkpt lat="50.072496" lon="5.523381"><ele>337.918</ele><time>2022-09-17T11:35:31Z</time></trkpt><trkpt lat="50.072454" lon="5.523309"><ele>338.245</ele><time>2022-09-17T11:35:48Z</time></trkpt><trkpt lat="50.072392" lon="5.523248"><ele>338.547</ele><time>2022-09-17T11:35:50Z</time></trkpt><trkpt lat="50.072347" lon="5.523204"><ele>339.511</ele><time>2022-09-17T11:35:51Z</time></trkpt><trkpt lat="50.072276" lon="5.523152"><ele>339.509</ele><time>2022-09-17T11:35:52Z</time></trkpt><trkpt lat="50.072228" lon="5.523084"><ele>339.135</ele><time>2022-09-17T11:35:53Z</time></trkpt><trkpt lat="50.072175" lon="5.523009"><ele>338.715</ele><time>2022-09-17T11:35:54Z</time></trkpt><trkpt lat="50.072116" lon="5.522925"><ele>337.447</ele><time>2022-09-17T11:35:55Z</time></trkpt><trkpt lat="50.072054" lon="5.522838"><ele>336.773</ele><time>2022-09-17T11:35:56Z</time></trkpt><trkpt lat="50.072015" lon="5.522800"><ele>336.378</ele><time>2022-09-17T11:35:57Z</time></trkpt><trkpt lat="50.071952" lon="5.522757"><ele>336.233</ele><time>2022-09-17T11:35:58Z</time></trkpt><trkpt lat="50.071892" lon="5.522717"><ele>336.298</ele><time>2022-09-17T11:35:59Z</time></trkpt><trkpt lat="50.071808" lon="5.522734"><ele>336.232</ele><time>2022-09-17T11:36:01Z</time></trkpt><trkpt lat="50.071708" lon="5.522722"><ele>336.689</ele><time>2022-09-17T11:36:03Z</time></trkpt><trkpt lat="50.071666" lon="5.522676"><ele>337.317</ele><time>2022-09-17T11:36:04Z</time></trkpt><trkpt lat="50.071610" lon="5.522621"><ele>338.087</ele><time>2022-09-17T11:36:06Z</time></trkpt><trkpt lat="50.071596" lon="5.522029"><ele>339.615</ele><time>2022-09-17T11:36:07Z</time></trkpt><trkpt lat="50.071557" lon="5.521947"><ele>339.709</ele><time>2022-09-17T11:36:08Z</time></trkpt><trkpt lat="50.071529" lon="5.521831"><ele>339.852</ele><time>2022-09-17T11:36:09Z</time></trkpt><trkpt lat="50.071477" lon="5.521668"><ele>339.722</ele><time>2022-09-17T11:36:10Z</time></trkpt><trkpt lat="50.071433" lon="5.521508"><ele>339.564</ele><time>2022-09-17T11:36:11Z</time></trkpt><trkpt lat="50.071403" lon="5.521385"><ele>338.770</ele><time>2022-09-17T11:36:12Z</time></trkpt><trkpt lat="50.071369" lon="5.521131"><ele>337.915</ele><time>2022-09-17T11:36:13Z</time></trkpt><trkpt lat="50.071341" lon="5.520974"><ele>337.010</ele><time>2022-09-17T11:36:14Z</time></trkpt><trkpt lat="50.071311" lon="5.520818"><ele>336.845</ele><time>2022-09-17T11:36:15Z</time></trkpt><trkpt lat="50.071277" lon="5.520694"><ele>336.329</ele><time>2022-09-17T11:36:16Z</time></trkpt><trkpt lat="50.071256" lon="5.520539"><ele>336.266</ele><time>2022-09-17T11:36:17Z</time></trkpt><trkpt lat="50.071238" lon="5.520387"><ele>336.297</ele><time>2022-09-17T11:36:18Z</time></trkpt><trkpt lat="50.071208" lon="5.520235"><ele>336.223</ele><time>2022-09-17T11:36:19Z</time></trkpt><trkpt lat="50.071179" lon="5.520080"><ele>336.225</ele><time>2022-09-17T11:36:20Z</time></trkpt><trkpt lat="50.071167" lon="5.519920"><ele>336.209</ele><time>2022-09-17T11:36:21Z</time></trkpt><trkpt lat="50.071130" lon="5.519803"><ele>336.530</ele><time>2022-09-17T11:36:22Z</time></trkpt><trkpt lat="50.071137" lon="5.519677"><ele>336.650</ele><time>2022-09-17T11:36:23Z</time></trkpt><trkpt lat="50.071147" lon="5.519568"><ele>336.832</ele><time>2022-09-17T11:36:24Z</time></trkpt><trkpt lat="50.071134" lon="5.519442"><ele>337.128</ele><time>2022-09-17T11:36:25Z</time></trkpt><trkpt lat="50.071117" lon="5.519301"><ele>337.523</ele><time>2022-09-17T11:36:26Z</time></trkpt><trkpt lat="50.071082" lon="5.519173"><ele>337.728</ele><time>2022-09-17T11:36:27Z</time></trkpt><trkpt lat="50.071066" lon="5.519024"><ele>338.013</ele><time>2022-09-17T11:36:28Z</time></trkpt><trkpt lat="50.071051" lon="5.518864"><ele>338.377</ele><time>2022-09-17T11:36:29Z</time></trkpt><trkpt lat="50.071051" lon="5.518672"><ele>338.424</ele><time>2022-09-17T11:36:30Z</time></trkpt><trkpt lat="50.071033" lon="5.518532"><ele>338.885</ele><time>2022-09-17T11:36:31Z</time></trkpt><trkpt lat="50.071046" lon="5.518356"><ele>339.189</ele><time>2022-09-17T11:36:32Z</time></trkpt><trkpt lat="50.071012" lon="5.518228"><ele>339.317</ele><time>2022-09-17T11:36:33Z</time></trkpt><trkpt lat="50.071007" lon="5.518085"><ele>339.409</ele><time>2022-09-17T11:36:34Z</time></trkpt><trkpt lat="50.071027" lon="5.517920"><ele>339.419</ele><time>2022-09-17T11:36:35Z</time></trkpt><trkpt lat="50.071058" lon="5.517753"><ele>339.139</ele><time>2022-09-17T11:36:36Z</time></trkpt><trkpt lat="50.071049" lon="5.517596"><ele>339.051</ele><time>2022-09-17T11:36:37Z</time></trkpt><trkpt lat="50.071057" lon="5.517453"><ele>338.967</ele><time>2022-09-17T11:36:38Z</time></trkpt><trkpt lat="50.071072" lon="5.517319"><ele>338.432</ele><time>2022-09-17T11:36:39Z</time></trkpt><trkpt lat="50.071088" lon="5.517197"><ele>338.347</ele><time>2022-09-17T11:36:40Z</time></trkpt><trkpt lat="50.071097" lon="5.517076"><ele>338.232</ele><time>2022-09-17T11:36:41Z</time></trkpt><trkpt lat="50.071078" lon="5.516972"><ele>338.276</ele><time>2022-09-17T11:36:42Z</time></trkpt><trkpt lat="50.071065" lon="5.516844"><ele>338.393</ele><time>2022-09-17T11:36:43Z</time></trkpt><trkpt lat="50.071052" lon="5.516702"><ele>338.459</ele><time>2022-09-17T11:36:44Z</time></trkpt><trkpt lat="50.071026" lon="5.516562"><ele>338.403</ele><time>2022-09-17T11:36:45Z</time></trkpt><trkpt lat="50.070987" lon="5.516441"><ele>338.423</ele><time>2022-09-17T11:36:46Z</time></trkpt><trkpt lat="50.070951" lon="5.516279"><ele>338.309</ele><time>2022-09-17T11:36:47Z</time></trkpt><trkpt lat="50.070905" lon="5.516128"><ele>338.266</ele><time>2022-09-17T11:36:48Z</time></trkpt><trkpt lat="50.070881" lon="5.515969"><ele>337.736</ele><time>2022-09-17T11:36:49Z</time></trkpt><trkpt lat="50.070857" lon="5.515801"><ele>337.458</ele><time>2022-09-17T11:36:50Z</time></trkpt><trkpt lat="50.070855" lon="5.515636"><ele>337.124</ele><time>2022-09-17T11:36:51Z</time></trkpt><trkpt lat="50.070829" lon="5.515484"><ele>336.869</ele><time>2022-09-17T11:36:52Z</time></trkpt><trkpt lat="50.070814" lon="5.515336"><ele>336.534</ele><time>2022-09-17T11:36:53Z</time></trkpt><trkpt lat="50.070804" lon="5.515168"><ele>336.599</ele><time>2022-09-17T11:36:54Z</time></trkpt><trkpt lat="50.070823" lon="5.514947"><ele>336.943</ele><time>2022-09-17T11:36:55Z</time></trkpt><trkpt lat="50.070830" lon="5.514759"><ele>337.320</ele><time>2022-09-17T11:36:56Z</time></trkpt><trkpt lat="50.070833" lon="5.514587"><ele>338.048</ele><time>2022-09-17T11:36:57Z</time></trkpt><trkpt lat="50.070843" lon="5.514406"><ele>338.461</ele><time>2022-09-17T11:36:58Z</time></trkpt><trkpt lat="50.070845" lon="5.514226"><ele>338.417</ele><time>2022-09-17T11:36:59Z</time></trkpt><trkpt lat="50.070818" lon="5.514036"><ele>338.209</ele><time>2022-09-17T11:37:00Z</time></trkpt><trkpt lat="50.070837" lon="5.513823"><ele>338.145</ele><time>2022-09-17T11:37:01Z</time></trkpt><trkpt lat="50.070849" lon="5.513638"><ele>337.635</ele><time>2022-09-17T11:37:02Z</time></trkpt><trkpt lat="50.070856" lon="5.513462"><ele>337.637</ele><time>2022-09-17T11:37:03Z</time></trkpt><trkpt lat="50.070909" lon="5.513309"><ele>337.643</ele><time>2022-09-17T11:37:04Z</time></trkpt><trkpt lat="50.070933" lon="5.513138"><ele>337.838</ele><time>2022-09-17T11:37:05Z</time></trkpt><trkpt lat="50.070969" lon="5.513036"><ele>337.893</ele><time>2022-09-17T11:37:06Z</time></trkpt><trkpt lat="50.070967" lon="5.512928"><ele>337.838</ele><time>2022-09-17T11:37:07Z</time></trkpt><trkpt lat="50.070917" lon="5.512803"><ele>338.322</ele><time>2022-09-17T11:37:08Z</time></trkpt><trkpt lat="50.070902" lon="5.512674"><ele>338.889</ele><time>2022-09-17T11:37:09Z</time></trkpt><trkpt lat="50.070911" lon="5.512510"><ele>339.418</ele><time>2022-09-17T11:37:10Z</time></trkpt><trkpt lat="50.070895" lon="5.512373"><ele>340.098</ele><time>2022-09-17T11:37:11Z</time></trkpt><trkpt lat="50.070891" lon="5.512246"><ele>340.017</ele><time>2022-09-17T11:37:12Z</time></trkpt><trkpt lat="50.070897" lon="5.512082"><ele>340.409</ele><time>2022-09-17T11:37:13Z</time></trkpt><trkpt lat="50.070913" lon="5.511936"><ele>340.742</ele><time>2022-09-17T11:37:14Z</time></trkpt><trkpt lat="50.070894" lon="5.511789"><ele>340.992</ele><time>2022-09-17T11:37:15Z</time></trkpt><trkpt lat="50.070880" lon="5.511653"><ele>341.534</ele><time>2022-09-17T11:37:16Z</time></trkpt><trkpt lat="50.070861" lon="5.511508"><ele>342.140</ele><time>2022-09-17T11:37:17Z</time></trkpt><trkpt lat="50.070832" lon="5.511383"><ele>342.785</ele><time>2022-09-17T11:37:18Z</time></trkpt><trkpt lat="50.070816" lon="5.511283"><ele>343.190</ele><time>2022-09-17T11:37:19Z</time></trkpt><trkpt lat="50.070829" lon="5.511153"><ele>343.885</ele><time>2022-09-17T11:37:20Z</time></trkpt><trkpt lat="50.070826" lon="5.510991"><ele>344.249</ele><time>2022-09-17T11:37:21Z</time></trkpt><trkpt lat="50.070808" lon="5.510794"><ele>344.516</ele><time>2022-09-17T11:37:22Z</time></trkpt><trkpt lat="50.070798" lon="5.510610"><ele>344.986</ele><time>2022-09-17T11:37:23Z</time></trkpt><trkpt lat="50.070794" lon="5.510436"><ele>345.260</ele><time>2022-09-17T11:37:24Z</time></trkpt><trkpt lat="50.070788" lon="5.510250"><ele>345.326</ele><time>2022-09-17T11:37:25Z</time></trkpt><trkpt lat="50.070806" lon="5.510053"><ele>345.509</ele><time>2022-09-17T11:37:26Z</time></trkpt><trkpt lat="50.070803" lon="5.509867"><ele>345.559</ele><time>2022-09-17T11:37:27Z</time></trkpt><trkpt lat="50.070800" lon="5.509696"><ele>345.559</ele><time>2022-09-17T11:37:28Z</time></trkpt><trkpt lat="50.070806" lon="5.509519"><ele>344.991</ele><time>2022-09-17T11:37:29Z</time></trkpt><trkpt lat="50.070805" lon="5.509341"><ele>344.667</ele><time>2022-09-17T11:37:30Z</time></trkpt><trkpt lat="50.070798" lon="5.509153"><ele>344.522</ele><time>2022-09-17T11:37:31Z</time></trkpt><trkpt lat="50.070786" lon="5.508973"><ele>344.597</ele><time>2022-09-17T11:37:32Z</time></trkpt><trkpt lat="50.070761" lon="5.508812"><ele>344.712</ele><time>2022-09-17T11:37:33Z</time></trkpt><trkpt lat="50.070746" lon="5.508653"><ele>345.026</ele><time>2022-09-17T11:37:34Z</time></trkpt><trkpt lat="50.070726" lon="5.508483"><ele>345.843</ele><time>2022-09-17T11:37:35Z</time></trkpt><trkpt lat="50.070699" lon="5.508291"><ele>346.444</ele><time>2022-09-17T11:37:36Z</time></trkpt><trkpt lat="50.070671" lon="5.508055"><ele>347.305</ele><time>2022-09-17T11:37:37Z</time></trkpt><trkpt lat="50.070640" lon="5.507869"><ele>347.815</ele><time>2022-09-17T11:37:38Z</time></trkpt><trkpt lat="50.070604" lon="5.507704"><ele>348.009</ele><time>2022-09-17T11:37:39Z</time></trkpt><trkpt lat="50.070557" lon="5.507533"><ele>348.245</ele><time>2022-09-17T11:37:40Z</time></trkpt><trkpt lat="50.070527" lon="5.507353"><ele>348.345</ele><time>2022-09-17T11:37:41Z</time></trkpt><trkpt lat="50.070487" lon="5.507202"><ele>348.467</ele><time>2022-09-17T11:37:42Z</time></trkpt><trkpt lat="50.070449" lon="5.507043"><ele>348.423</ele><time>2022-09-17T11:37:43Z</time></trkpt><trkpt lat="50.070413" lon="5.506910"><ele>348.498</ele><time>2022-09-17T11:37:44Z</time></trkpt><trkpt lat="50.070365" lon="5.506818"><ele>348.433</ele><time>2022-09-17T11:37:45Z</time></trkpt><trkpt lat="50.070309" lon="5.506707"><ele>348.488</ele><time>2022-09-17T11:37:46Z</time></trkpt><trkpt lat="50.070242" lon="5.506598"><ele>348.452</ele><time>2022-09-17T11:37:47Z</time></trkpt><trkpt lat="50.070155" lon="5.506476"><ele>348.419</ele><time>2022-09-17T11:37:48Z</time></trkpt><trkpt lat="50.070055" lon="5.506342"><ele>348.775</ele><time>2022-09-17T11:37:49Z</time></trkpt><trkpt lat="50.069955" lon="5.506229"><ele>348.728</ele><time>2022-09-17T11:37:50Z</time></trkpt><trkpt lat="50.069866" lon="5.506119"><ele>348.620</ele><time>2022-09-17T11:37:51Z</time></trkpt><trkpt lat="50.069779" lon="5.506014"><ele>348.109</ele><time>2022-09-17T11:37:52Z</time></trkpt><trkpt lat="50.069691" lon="5.505930"><ele>347.358</ele><time>2022-09-17T11:37:53Z</time></trkpt><trkpt lat="50.069605" lon="5.505853"><ele>346.538</ele><time>2022-09-17T11:37:54Z</time></trkpt><trkpt lat="50.069498" lon="5.505783"><ele>345.710</ele><time>2022-09-17T11:37:55Z</time></trkpt><trkpt lat="50.069415" lon="5.505726"><ele>345.116</ele><time>2022-09-17T11:37:56Z</time></trkpt><trkpt lat="50.069344" lon="5.505728"><ele>344.741</ele><time>2022-09-17T11:37:57Z</time></trkpt><trkpt lat="50.069247" lon="5.505750"><ele>344.586</ele><time>2022-09-17T11:37:58Z</time></trkpt><trkpt lat="50.069114" lon="5.505754"><ele>344.081</ele><time>2022-09-17T11:37:59Z</time></trkpt><trkpt lat="50.069013" lon="5.505730"><ele>343.985</ele><time>2022-09-17T11:38:00Z</time></trkpt><trkpt lat="50.068920" lon="5.505739"><ele>343.952</ele><time>2022-09-17T11:38:01Z</time></trkpt><trkpt lat="50.068844" lon="5.505793"><ele>343.926</ele><time>2022-09-17T11:38:02Z</time></trkpt><trkpt lat="50.068776" lon="5.505838"><ele>344.047</ele><time>2022-09-17T11:38:03Z</time></trkpt><trkpt lat="50.068729" lon="5.505865"><ele>344.111</ele><time>2022-09-17T11:38:05Z</time></trkpt><trkpt lat="50.068674" lon="5.505884"><ele>344.109</ele><time>2022-09-17T11:38:07Z</time></trkpt><trkpt lat="50.068630" lon="5.505904"><ele>344.393</ele><time>2022-09-17T11:38:09Z</time></trkpt><trkpt lat="50.068558" lon="5.505938"><ele>344.713</ele><time>2022-09-17T11:38:12Z</time></trkpt><trkpt lat="50.068522" lon="5.505982"><ele>344.915</ele><time>2022-09-17T11:38:13Z</time></trkpt><trkpt lat="50.068478" lon="5.506030"><ele>344.981</ele><time>2022-09-17T11:38:16Z</time></trkpt><trkpt lat="50.068401" lon="5.506041"><ele>344.936</ele><time>2022-09-17T11:38:19Z</time></trkpt><trkpt lat="50.068338" lon="5.506069"><ele>344.951</ele><time>2022-09-17T11:38:21Z</time></trkpt><trkpt lat="50.068279" lon="5.506115"><ele>344.816</ele><time>2022-09-17T11:38:22Z</time></trkpt><trkpt lat="50.068190" lon="5.506164"><ele>344.680</ele><time>2022-09-17T11:38:23Z</time></trkpt><trkpt lat="50.068097" lon="5.506235"><ele>344.557</ele><time>2022-09-17T11:38:24Z</time></trkpt><trkpt lat="50.067855" lon="5.506448"><ele>344.132</ele><time>2022-09-17T11:38:25Z</time></trkpt><trkpt lat="50.067715" lon="5.506526"><ele>343.992</ele><time>2022-09-17T11:38:26Z</time></trkpt><trkpt lat="50.067595" lon="5.506583"><ele>343.511</ele><time>2022-09-17T11:38:27Z</time></trkpt><trkpt lat="50.067477" lon="5.506641"><ele>343.309</ele><time>2022-09-17T11:38:28Z</time></trkpt><trkpt lat="50.067366" lon="5.506667"><ele>343.074</ele><time>2022-09-17T11:38:29Z</time></trkpt><trkpt lat="50.067298" lon="5.506670"><ele>342.794</ele><time>2022-09-17T11:38:30Z</time></trkpt><trkpt lat="50.067219" lon="5.506718"><ele>342.716</ele><time>2022-09-17T11:38:31Z</time></trkpt><trkpt lat="50.067142" lon="5.506768"><ele>342.752</ele><time>2022-09-17T11:38:32Z</time></trkpt><trkpt lat="50.067070" lon="5.506780"><ele>342.827</ele><time>2022-09-17T11:38:33Z</time></trkpt><trkpt lat="50.066980" lon="5.506814"><ele>343.062</ele><time>2022-09-17T11:38:34Z</time></trkpt><trkpt lat="50.066905" lon="5.506857"><ele>343.227</ele><time>2022-09-17T11:38:35Z</time></trkpt><trkpt lat="50.066832" lon="5.506902"><ele>343.321</ele><time>2022-09-17T11:38:36Z</time></trkpt><trkpt lat="50.066768" lon="5.506924"><ele>343.478</ele><time>2022-09-17T11:38:37Z</time></trkpt><trkpt lat="50.066689" lon="5.506944"><ele>343.597</ele><time>2022-09-17T11:38:38Z</time></trkpt><trkpt lat="50.066623" lon="5.506984"><ele>343.523</ele><time>2022-09-17T11:38:39Z</time></trkpt><trkpt lat="50.066533" lon="5.507015"><ele>343.725</ele><time>2022-09-17T11:38:40Z</time></trkpt><trkpt lat="50.066431" lon="5.507075"><ele>344.109</ele><time>2022-09-17T11:38:41Z</time></trkpt><trkpt lat="50.066321" lon="5.507188"><ele>344.160</ele><time>2022-09-17T11:38:42Z</time></trkpt><trkpt lat="50.066263" lon="5.507220"><ele>344.120</ele><time>2022-09-17T11:38:43Z</time></trkpt><trkpt lat="50.066215" lon="5.507259"><ele>344.152</ele><time>2022-09-17T11:38:44Z</time></trkpt><trkpt lat="50.066156" lon="5.507302"><ele>343.918</ele><time>2022-09-17T11:38:45Z</time></trkpt><trkpt lat="50.066097" lon="5.507345"><ele>343.753</ele><time>2022-09-17T11:38:46Z</time></trkpt><trkpt lat="50.066040" lon="5.507327"><ele>343.768</ele><time>2022-09-17T11:38:48Z</time></trkpt><trkpt lat="50.065995" lon="5.507359"><ele>343.793</ele><time>2022-09-17T11:38:49Z</time></trkpt><trkpt lat="50.065937" lon="5.507380"><ele>344.067</ele><time>2022-09-17T11:38:50Z</time></trkpt><trkpt lat="50.065831" lon="5.507419"><ele>344.144</ele><time>2022-09-17T11:38:51Z</time></trkpt><trkpt lat="50.065696" lon="5.507447"><ele>344.163</ele><time>2022-09-17T11:38:52Z</time></trkpt><trkpt lat="50.065562" lon="5.507455"><ele>343.944</ele><time>2022-09-17T11:38:53Z</time></trkpt><trkpt lat="50.065427" lon="5.507469"><ele>343.818</ele><time>2022-09-17T11:38:54Z</time></trkpt><trkpt lat="50.065331" lon="5.507451"><ele>343.609</ele><time>2022-09-17T11:38:55Z</time></trkpt><trkpt lat="50.065228" lon="5.507438"><ele>343.547</ele><time>2022-09-17T11:38:56Z</time></trkpt><trkpt lat="50.065114" lon="5.507418"><ele>343.287</ele><time>2022-09-17T11:38:57Z</time></trkpt><trkpt lat="50.065012" lon="5.507363"><ele>343.069</ele><time>2022-09-17T11:38:58Z</time></trkpt><trkpt lat="50.064930" lon="5.507339"><ele>343.015</ele><time>2022-09-17T11:38:59Z</time></trkpt><trkpt lat="50.064841" lon="5.507307"><ele>343.020</ele><time>2022-09-17T11:39:00Z</time></trkpt><trkpt lat="50.064756" lon="5.507258"><ele>343.065</ele><time>2022-09-17T11:39:01Z</time></trkpt><trkpt lat="50.064621" lon="5.507232"><ele>343.260</ele><time>2022-09-17T11:39:02Z</time></trkpt><trkpt lat="50.064501" lon="5.507201"><ele>343.274</ele><time>2022-09-17T11:39:03Z</time></trkpt><trkpt lat="50.064417" lon="5.507168"><ele>343.341</ele><time>2022-09-17T11:39:04Z</time></trkpt><trkpt lat="50.064315" lon="5.507126"><ele>343.486</ele><time>2022-09-17T11:39:05Z</time></trkpt><trkpt lat="50.064220" lon="5.507081"><ele>343.460</ele><time>2022-09-17T11:39:06Z</time></trkpt><trkpt lat="50.064135" lon="5.507073"><ele>343.426</ele><time>2022-09-17T11:39:07Z</time></trkpt><trkpt lat="50.064046" lon="5.507081"><ele>343.509</ele><time>2022-09-17T11:39:08Z</time></trkpt><trkpt lat="50.063958" lon="5.507087"><ele>343.639</ele><time>2022-09-17T11:39:09Z</time></trkpt><trkpt lat="50.063885" lon="5.507142"><ele>343.849</ele><time>2022-09-17T11:39:10Z</time></trkpt><trkpt lat="50.063792" lon="5.507209"><ele>344.161</ele><time>2022-09-17T11:39:11Z</time></trkpt><trkpt lat="50.063714" lon="5.507276"><ele>344.317</ele><time>2022-09-17T11:39:12Z</time></trkpt><trkpt lat="50.063623" lon="5.507362"><ele>344.562</ele><time>2022-09-17T11:39:13Z</time></trkpt><trkpt lat="50.063520" lon="5.507444"><ele>344.687</ele><time>2022-09-17T11:39:14Z</time></trkpt><trkpt lat="50.063434" lon="5.507511"><ele>344.742</ele><time>2022-09-17T11:39:15Z</time></trkpt><trkpt lat="50.063366" lon="5.507554"><ele>344.716</ele><time>2022-09-17T11:39:16Z</time></trkpt><trkpt lat="50.063312" lon="5.507579"><ele>344.773</ele><time>2022-09-17T11:39:17Z</time></trkpt><trkpt lat="50.063251" lon="5.507605"><ele>344.852</ele><time>2022-09-17T11:39:18Z</time></trkpt><trkpt lat="50.063186" lon="5.507656"><ele>344.853</ele><time>2022-09-17T11:39:19Z</time></trkpt><trkpt lat="50.063114" lon="5.507731"><ele>344.908</ele><time>2022-09-17T11:39:20Z</time></trkpt><trkpt lat="50.063044" lon="5.507870"><ele>345.209</ele><time>2022-09-17T11:39:21Z</time></trkpt><trkpt lat="50.062956" lon="5.507990"><ele>345.436</ele><time>2022-09-17T11:39:22Z</time></trkpt><trkpt lat="50.062891" lon="5.508132"><ele>345.526</ele><time>2022-09-17T11:39:23Z</time></trkpt><trkpt lat="50.062809" lon="5.508237"><ele>345.548</ele><time>2022-09-17T11:39:24Z</time></trkpt><trkpt lat="50.062741" lon="5.508369"><ele>345.214</ele><time>2022-09-17T11:39:25Z</time></trkpt><trkpt lat="50.062662" lon="5.508526"><ele>345.189</ele><time>2022-09-17T11:39:26Z</time></trkpt><trkpt lat="50.062587" lon="5.508662"><ele>344.814</ele><time>2022-09-17T11:39:27Z</time></trkpt><trkpt lat="50.062505" lon="5.508763"><ele>344.789</ele><time>2022-09-17T11:39:28Z</time></trkpt><trkpt lat="50.062437" lon="5.508857"><ele>344.743</ele><time>2022-09-17T11:39:29Z</time></trkpt><trkpt lat="50.062428" lon="5.508980"><ele>345.170</ele><time>2022-09-17T11:39:30Z</time></trkpt><trkpt lat="50.062421" lon="5.509118"><ele>345.388</ele><time>2022-09-17T11:39:31Z</time></trkpt><trkpt lat="50.062405" lon="5.509268"><ele>345.824</ele><time>2022-09-17T11:39:32Z</time></trkpt><trkpt lat="50.062415" lon="5.509430"><ele>346.726</ele><time>2022-09-17T11:39:33Z</time></trkpt><trkpt lat="50.062389" lon="5.509578"><ele>347.209</ele><time>2022-09-17T11:39:34Z</time></trkpt><trkpt lat="50.062341" lon="5.509704"><ele>347.759</ele><time>2022-09-17T11:39:35Z</time></trkpt><trkpt lat="50.062271" lon="5.509815"><ele>347.779</ele><time>2022-09-17T11:39:36Z</time></trkpt><trkpt lat="50.062214" lon="5.509900"><ele>347.511</ele><time>2022-09-17T11:39:37Z</time></trkpt><trkpt lat="50.062121" lon="5.510010"><ele>347.427</ele><time>2022-09-17T11:39:38Z</time></trkpt><trkpt lat="50.062059" lon="5.510044"><ele>347.242</ele><time>2022-09-17T11:39:39Z</time></trkpt><trkpt lat="50.061986" lon="5.510041"><ele>347.267</ele><time>2022-09-17T11:39:40Z</time></trkpt><trkpt lat="50.061960" lon="5.509971"><ele>347.292</ele><time>2022-09-17T11:39:42Z</time></trkpt><trkpt lat="50.061988" lon="5.509829"><ele>347.866</ele><time>2022-09-17T11:39:44Z</time></trkpt><trkpt lat="50.062026" lon="5.509700"><ele>349.093</ele><time>2022-09-17T11:39:45Z</time></trkpt><trkpt lat="50.062009" lon="5.509478"><ele>350.022</ele><time>2022-09-17T11:39:46Z</time></trkpt><trkpt lat="50.061972" lon="5.509310"><ele>350.062</ele><time>2022-09-17T11:39:47Z</time></trkpt><trkpt lat="50.061907" lon="5.509151"><ele>349.908</ele><time>2022-09-17T11:39:48Z</time></trkpt><trkpt lat="50.061857" lon="5.509021"><ele>349.509</ele><time>2022-09-17T11:39:49Z</time></trkpt><trkpt lat="50.061813" lon="5.508884"><ele>349.573</ele><time>2022-09-17T11:39:50Z</time></trkpt><trkpt lat="50.061770" lon="5.508753"><ele>349.543</ele><time>2022-09-17T11:39:51Z</time></trkpt><trkpt lat="50.061764" lon="5.508676"><ele>349.575</ele><time>2022-09-17T11:39:52Z</time></trkpt><trkpt lat="50.061748" lon="5.508597"><ele>349.651</ele><time>2022-09-17T11:39:53Z</time></trkpt><trkpt lat="50.061717" lon="5.508535"><ele>349.676</ele><time>2022-09-17T11:39:55Z</time></trkpt><trkpt lat="50.061666" lon="5.508498"><ele>349.921</ele><time>2022-09-17T11:39:57Z</time></trkpt><trkpt lat="50.061624" lon="5.508462"><ele>349.976</ele><time>2022-09-17T11:39:58Z</time></trkpt><trkpt lat="50.061574" lon="5.508475"><ele>349.920</ele><time>2022-09-17T11:39:59Z</time></trkpt><trkpt lat="50.061465" lon="5.508481"><ele>349.947</ele><time>2022-09-17T11:40:00Z</time></trkpt><trkpt lat="50.061343" lon="5.508548"><ele>349.725</ele><time>2022-09-17T11:40:01Z</time></trkpt><trkpt lat="50.061190" lon="5.508603"><ele>349.626</ele><time>2022-09-17T11:40:02Z</time></trkpt><trkpt lat="50.060986" lon="5.508648"><ele>349.708</ele><time>2022-09-17T11:40:03Z</time></trkpt><trkpt lat="50.060800" lon="5.508702"><ele>350.109</ele><time>2022-09-17T11:40:04Z</time></trkpt><trkpt lat="50.060639" lon="5.508739"><ele>350.663</ele><time>2022-09-17T11:40:05Z</time></trkpt><trkpt lat="50.060474" lon="5.508805"><ele>351.123</ele><time>2022-09-17T11:40:06Z</time></trkpt><trkpt lat="50.060311" lon="5.508855"><ele>351.695</ele><time>2022-09-17T11:40:07Z</time></trkpt><trkpt lat="50.060153" lon="5.508889"><ele>352.191</ele><time>2022-09-17T11:40:08Z</time></trkpt><trkpt lat="50.059997" lon="5.508938"><ele>352.586</ele><time>2022-09-17T11:40:09Z</time></trkpt><trkpt lat="50.059843" lon="5.508985"><ele>352.821</ele><time>2022-09-17T11:40:10Z</time></trkpt><trkpt lat="50.059689" lon="5.509044"><ele>353.136</ele><time>2022-09-17T11:40:11Z</time></trkpt><trkpt lat="50.059538" lon="5.509097"><ele>353.460</ele><time>2022-09-17T11:40:12Z</time></trkpt><trkpt lat="50.059383" lon="5.509142"><ele>353.637</ele><time>2022-09-17T11:40:13Z</time></trkpt><trkpt lat="50.059225" lon="5.509189"><ele>353.784</ele><time>2022-09-17T11:40:14Z</time></trkpt><trkpt lat="50.059072" lon="5.509235"><ele>353.807</ele><time>2022-09-17T11:40:15Z</time></trkpt><trkpt lat="50.058923" lon="5.509288"><ele>353.917</ele><time>2022-09-17T11:40:16Z</time></trkpt><trkpt lat="50.058776" lon="5.509348"><ele>353.909</ele><time>2022-09-17T11:40:17Z</time></trkpt><trkpt lat="50.058637" lon="5.509398"><ele>354.139</ele><time>2022-09-17T11:40:18Z</time></trkpt><trkpt lat="50.058511" lon="5.509432"><ele>354.519</ele><time>2022-09-17T11:40:19Z</time></trkpt><trkpt lat="50.058381" lon="5.509466"><ele>354.731</ele><time>2022-09-17T11:40:20Z</time></trkpt><trkpt lat="50.058248" lon="5.509458"><ele>355.167</ele><time>2022-09-17T11:40:21Z</time></trkpt><trkpt lat="50.058109" lon="5.509457"><ele>355.862</ele><time>2022-09-17T11:40:22Z</time></trkpt><trkpt lat="50.057976" lon="5.509425"><ele>356.277</ele><time>2022-09-17T11:40:23Z</time></trkpt><trkpt lat="50.057838" lon="5.509426"><ele>356.622</ele><time>2022-09-17T11:40:24Z</time></trkpt><trkpt lat="50.057687" lon="5.509420"><ele>357.056</ele><time>2022-09-17T11:40:25Z</time></trkpt><trkpt lat="50.057539" lon="5.509399"><ele>357.463</ele><time>2022-09-17T11:40:26Z</time></trkpt><trkpt lat="50.057389" lon="5.509360"><ele>357.953</ele><time>2022-09-17T11:40:27Z</time></trkpt><trkpt lat="50.057244" lon="5.509341"><ele>358.404</ele><time>2022-09-17T11:40:28Z</time></trkpt><trkpt lat="50.057105" lon="5.509322"><ele>358.814</ele><time>2022-09-17T11:40:29Z</time></trkpt><trkpt lat="50.056981" lon="5.509306"><ele>359.009</ele><time>2022-09-17T11:40:30Z</time></trkpt><trkpt lat="50.056858" lon="5.509301"><ele>359.486</ele><time>2022-09-17T11:40:31Z</time></trkpt><trkpt lat="50.056746" lon="5.509290"><ele>359.826</ele><time>2022-09-17T11:40:32Z</time></trkpt><trkpt lat="50.056636" lon="5.509240"><ele>360.098</ele><time>2022-09-17T11:40:33Z</time></trkpt><trkpt lat="50.056530" lon="5.509161"><ele>360.324</ele><time>2022-09-17T11:40:34Z</time></trkpt><trkpt lat="50.056436" lon="5.509053"><ele>360.579</ele><time>2022-09-17T11:40:35Z</time></trkpt><trkpt lat="50.056340" lon="5.508941"><ele>360.784</ele><time>2022-09-17T11:40:36Z</time></trkpt><trkpt lat="50.056267" lon="5.508812"><ele>361.259</ele><time>2022-09-17T11:40:37Z</time></trkpt><trkpt lat="50.056195" lon="5.508691"><ele>361.663</ele><time>2022-09-17T11:40:38Z</time></trkpt><trkpt lat="50.056145" lon="5.508536"><ele>361.950</ele><time>2022-09-17T11:40:39Z</time></trkpt><trkpt lat="50.056067" lon="5.508420"><ele>362.389</ele><time>2022-09-17T11:40:40Z</time></trkpt><trkpt lat="50.055972" lon="5.508341"><ele>362.806</ele><time>2022-09-17T11:40:41Z</time></trkpt><trkpt lat="50.055873" lon="5.508298"><ele>363.126</ele><time>2022-09-17T11:40:42Z</time></trkpt><trkpt lat="50.055777" lon="5.508312"><ele>363.209</ele><time>2022-09-17T11:40:43Z</time></trkpt><trkpt lat="50.055685" lon="5.508378"><ele>363.649</ele><time>2022-09-17T11:40:44Z</time></trkpt><trkpt lat="50.055600" lon="5.508493"><ele>363.929</ele><time>2022-09-17T11:40:45Z</time></trkpt><trkpt lat="50.055514" lon="5.508629"><ele>363.981</ele><time>2022-09-17T11:40:46Z</time></trkpt><trkpt lat="50.055468" lon="5.508826"><ele>363.837</ele><time>2022-09-17T11:40:47Z</time></trkpt><trkpt lat="50.055417" lon="5.509030"><ele>363.852</ele><time>2022-09-17T11:40:48Z</time></trkpt><trkpt lat="50.055389" lon="5.509236"><ele>363.817</ele><time>2022-09-17T11:40:49Z</time></trkpt><trkpt lat="50.055365" lon="5.509443"><ele>363.992</ele><time>2022-09-17T11:40:50Z</time></trkpt><trkpt lat="50.055330" lon="5.509656"><ele>364.196</ele><time>2022-09-17T11:40:51Z</time></trkpt><trkpt lat="50.055282" lon="5.509855"><ele>364.683</ele><time>2022-09-17T11:40:52Z</time></trkpt><trkpt lat="50.055217" lon="5.510043"><ele>365.329</ele><time>2022-09-17T11:40:53Z</time></trkpt><trkpt lat="50.055138" lon="5.510220"><ele>366.000</ele><time>2022-09-17T11:40:54Z</time></trkpt><trkpt lat="50.055044" lon="5.510392"><ele>366.620</ele><time>2022-09-17T11:40:55Z</time></trkpt><trkpt lat="50.054925" lon="5.510553"><ele>367.209</ele><time>2022-09-17T11:40:56Z</time></trkpt><trkpt lat="50.054791" lon="5.510697"><ele>367.913</ele><time>2022-09-17T11:40:57Z</time></trkpt><trkpt lat="50.054652" lon="5.510823"><ele>368.793</ele><time>2022-09-17T11:40:58Z</time></trkpt><trkpt lat="50.054518" lon="5.510926"><ele>369.465</ele><time>2022-09-17T11:40:59Z</time></trkpt><trkpt lat="50.054383" lon="5.511008"><ele>370.181</ele><time>2022-09-17T11:41:00Z</time></trkpt><trkpt lat="50.054248" lon="5.511098"><ele>370.956</ele><time>2022-09-17T11:41:01Z</time></trkpt><trkpt lat="50.054116" lon="5.511172"><ele>371.631</ele><time>2022-09-17T11:41:02Z</time></trkpt><trkpt lat="50.053985" lon="5.511230"><ele>372.146</ele><time>2022-09-17T11:41:03Z</time></trkpt><trkpt lat="50.053865" lon="5.511272"><ele>372.310</ele><time>2022-09-17T11:41:04Z</time></trkpt><trkpt lat="50.053756" lon="5.511292"><ele>372.837</ele><time>2022-09-17T11:41:05Z</time></trkpt><trkpt lat="50.053655" lon="5.511276"><ele>373.211</ele><time>2022-09-17T11:41:06Z</time></trkpt><trkpt lat="50.053574" lon="5.511205"><ele>373.721</ele><time>2022-09-17T11:41:07Z</time></trkpt><trkpt lat="50.053494" lon="5.511172"><ele>374.003</ele><time>2022-09-17T11:41:08Z</time></trkpt><trkpt lat="50.053419" lon="5.511144"><ele>374.109</ele><time>2022-09-17T11:41:09Z</time></trkpt><trkpt lat="50.053342" lon="5.511115"><ele>374.222</ele><time>2022-09-17T11:41:10Z</time></trkpt><trkpt lat="50.053264" lon="5.511086"><ele>374.312</ele><time>2022-09-17T11:41:11Z</time></trkpt><trkpt lat="50.053193" lon="5.511063"><ele>374.364</ele><time>2022-09-17T11:41:12Z</time></trkpt><trkpt lat="50.053120" lon="5.511102"><ele>374.360</ele><time>2022-09-17T11:41:13Z</time></trkpt><trkpt lat="50.053067" lon="5.511111"><ele>374.485</ele><time>2022-09-17T11:41:14Z</time></trkpt><trkpt lat="50.053007" lon="5.511127"><ele>374.450</ele><time>2022-09-17T11:41:15Z</time></trkpt><trkpt lat="50.052977" lon="5.511206"><ele>374.495</ele><time>2022-09-17T11:41:16Z</time></trkpt><trkpt lat="50.052975" lon="5.511308"><ele>374.379</ele><time>2022-09-17T11:41:17Z</time></trkpt><trkpt lat="50.053001" lon="5.511425"><ele>374.266</ele><time>2022-09-17T11:41:18Z</time></trkpt><trkpt lat="50.053039" lon="5.511547"><ele>373.731</ele><time>2022-09-17T11:41:19Z</time></trkpt><trkpt lat="50.053066" lon="5.511690"><ele>373.361</ele><time>2022-09-17T11:41:20Z</time></trkpt><trkpt lat="50.053085" lon="5.511844"><ele>372.807</ele><time>2022-09-17T11:41:21Z</time></trkpt><trkpt lat="50.053104" lon="5.511973"><ele>372.409</ele><time>2022-09-17T11:41:22Z</time></trkpt><trkpt lat="50.053121" lon="5.512100"><ele>372.144</ele><time>2022-09-17T11:41:23Z</time></trkpt><trkpt lat="50.053133" lon="5.512184"><ele>371.994</ele><time>2022-09-17T11:41:24Z</time></trkpt><trkpt lat="50.053121" lon="5.512270"><ele>371.516</ele><time>2022-09-17T11:41:25Z</time></trkpt><trkpt lat="50.053103" lon="5.512365"><ele>371.352</ele><time>2022-09-17T11:41:26Z</time></trkpt><trkpt lat="50.053109" lon="5.512482"><ele>370.867</ele><time>2022-09-17T11:41:27Z</time></trkpt><trkpt lat="50.053126" lon="5.512626"><ele>370.262</ele><time>2022-09-17T11:41:28Z</time></trkpt><trkpt lat="50.053147" lon="5.512782"><ele>369.877</ele><time>2022-09-17T11:41:29Z</time></trkpt><trkpt lat="50.053171" lon="5.512955"><ele>369.791</ele><time>2022-09-17T11:41:30Z</time></trkpt><trkpt lat="50.053197" lon="5.513127"><ele>369.748</ele><time>2022-09-17T11:41:31Z</time></trkpt><trkpt lat="50.053230" lon="5.513306"><ele>369.769</ele><time>2022-09-17T11:41:32Z</time></trkpt><trkpt lat="50.053261" lon="5.513459"><ele>369.504</ele><time>2022-09-17T11:41:33Z</time></trkpt><trkpt lat="50.053286" lon="5.513587"><ele>369.324</ele><time>2022-09-17T11:41:34Z</time></trkpt><trkpt lat="50.053309" lon="5.513706"><ele>369.009</ele><time>2022-09-17T11:41:35Z</time></trkpt><trkpt lat="50.053323" lon="5.513790"><ele>368.897</ele><time>2022-09-17T11:41:36Z</time></trkpt><trkpt lat="50.053315" lon="5.513864"><ele>368.427</ele><time>2022-09-17T11:41:38Z</time></trkpt><trkpt lat="50.053201" lon="5.513950"><ele>368.189</ele><time>2022-09-17T11:41:39Z</time></trkpt><trkpt lat="50.053093" lon="5.514048"><ele>368.075</ele><time>2022-09-17T11:41:40Z</time></trkpt><trkpt lat="50.052975" lon="5.514144"><ele>368.220</ele><time>2022-09-17T11:41:41Z</time></trkpt><trkpt lat="50.052849" lon="5.514261"><ele>368.065</ele><time>2022-09-17T11:41:42Z</time></trkpt><trkpt lat="50.052716" lon="5.514385"><ele>367.660</ele><time>2022-09-17T11:41:43Z</time></trkpt><trkpt lat="50.052588" lon="5.514504"><ele>366.884</ele><time>2022-09-17T11:41:44Z</time></trkpt><trkpt lat="50.052467" lon="5.514617"><ele>365.571</ele><time>2022-09-17T11:41:45Z</time></trkpt><trkpt lat="50.052346" lon="5.514730"><ele>364.014</ele><time>2022-09-17T11:41:46Z</time></trkpt><trkpt lat="50.052237" lon="5.514831"><ele>363.254</ele><time>2022-09-17T11:41:47Z</time></trkpt><trkpt lat="50.052130" lon="5.514930"><ele>362.609</ele><time>2022-09-17T11:41:48Z</time></trkpt><trkpt lat="50.052014" lon="5.515038"><ele>362.309</ele><time>2022-09-17T11:41:49Z</time></trkpt><trkpt lat="50.051910" lon="5.515134"><ele>362.022</ele><time>2022-09-17T11:41:50Z</time></trkpt><trkpt lat="50.051820" lon="5.515218"><ele>362.012</ele><time>2022-09-17T11:41:51Z</time></trkpt><trkpt lat="50.051714" lon="5.515318"><ele>362.174</ele><time>2022-09-17T11:41:52Z</time></trkpt><trkpt lat="50.051619" lon="5.515447"><ele>362.190</ele><time>2022-09-17T11:41:53Z</time></trkpt><trkpt lat="50.051514" lon="5.515548"><ele>361.835</ele><time>2022-09-17T11:41:54Z</time></trkpt><trkpt lat="50.051385" lon="5.515671"><ele>361.890</ele><time>2022-09-17T11:41:55Z</time></trkpt><trkpt lat="50.051257" lon="5.515797"><ele>361.735</ele><time>2022-09-17T11:41:56Z</time></trkpt><trkpt lat="50.051126" lon="5.515943"><ele>361.319</ele><time>2022-09-17T11:41:57Z</time></trkpt><trkpt lat="50.051007" lon="5.516065"><ele>360.746</ele><time>2022-09-17T11:41:58Z</time></trkpt><trkpt lat="50.050885" lon="5.516168"><ele>360.185</ele><time>2022-09-17T11:41:59Z</time></trkpt><trkpt lat="50.050769" lon="5.516266"><ele>359.789</ele><time>2022-09-17T11:42:00Z</time></trkpt><trkpt lat="50.050657" lon="5.516364"><ele>359.617</ele><time>2022-09-17T11:42:01Z</time></trkpt><trkpt lat="50.050546" lon="5.516452"><ele>359.609</ele><time>2022-09-17T11:42:02Z</time></trkpt><trkpt lat="50.050441" lon="5.516549"><ele>359.859</ele><time>2022-09-17T11:42:03Z</time></trkpt><trkpt lat="50.050332" lon="5.516661"><ele>360.629</ele><time>2022-09-17T11:42:04Z</time></trkpt><trkpt lat="50.050217" lon="5.516781"><ele>361.371</ele><time>2022-09-17T11:42:05Z</time></trkpt><trkpt lat="50.050100" lon="5.516908"><ele>362.757</ele><time>2022-09-17T11:42:06Z</time></trkpt><trkpt lat="50.049978" lon="5.517035"><ele>363.362</ele><time>2022-09-17T11:42:07Z</time></trkpt><trkpt lat="50.049862" lon="5.517135"><ele>363.437</ele><time>2022-09-17T11:42:08Z</time></trkpt><trkpt lat="50.049741" lon="5.517247"><ele>363.582</ele><time>2022-09-17T11:42:09Z</time></trkpt><trkpt lat="50.049597" lon="5.517321"><ele>363.666</ele><time>2022-09-17T11:42:10Z</time></trkpt><trkpt lat="50.049475" lon="5.517436"><ele>363.843</ele><time>2022-09-17T11:42:11Z</time></trkpt><trkpt lat="50.049356" lon="5.517548"><ele>364.013</ele><time>2022-09-17T11:42:12Z</time></trkpt><trkpt lat="50.049229" lon="5.517668"><ele>364.543</ele><time>2022-09-17T11:42:13Z</time></trkpt><trkpt lat="50.049105" lon="5.517784"><ele>365.207</ele><time>2022-09-17T11:42:14Z</time></trkpt><trkpt lat="50.048975" lon="5.517905"><ele>365.509</ele><time>2022-09-17T11:42:15Z</time></trkpt><trkpt lat="50.048840" lon="5.518032"><ele>365.822</ele><time>2022-09-17T11:42:16Z</time></trkpt><trkpt lat="50.048699" lon="5.518164"><ele>366.242</ele><time>2022-09-17T11:42:17Z</time></trkpt><trkpt lat="50.048577" lon="5.518301"><ele>366.344</ele><time>2022-09-17T11:42:18Z</time></trkpt><trkpt lat="50.048455" lon="5.518427"><ele>366.250</ele><time>2022-09-17T11:42:19Z</time></trkpt><trkpt lat="50.048336" lon="5.518551"><ele>365.865</ele><time>2022-09-17T11:42:20Z</time></trkpt><trkpt lat="50.048212" lon="5.518653"><ele>365.280</ele><time>2022-09-17T11:42:21Z</time></trkpt><trkpt lat="50.048099" lon="5.518757"><ele>364.715</ele><time>2022-09-17T11:42:22Z</time></trkpt><trkpt lat="50.047975" lon="5.518872"><ele>364.399</ele><time>2022-09-17T11:42:23Z</time></trkpt><trkpt lat="50.047857" lon="5.518991"><ele>363.816</ele><time>2022-09-17T11:42:24Z</time></trkpt><trkpt lat="50.047736" lon="5.519106"><ele>363.571</ele><time>2022-09-17T11:42:25Z</time></trkpt><trkpt lat="50.047616" lon="5.519221"><ele>363.441</ele><time>2022-09-17T11:42:26Z</time></trkpt><trkpt lat="50.047492" lon="5.519332"><ele>363.215</ele><time>2022-09-17T11:42:27Z</time></trkpt><trkpt lat="50.047371" lon="5.519451"><ele>362.909</ele><time>2022-09-17T11:42:28Z</time></trkpt><trkpt lat="50.047258" lon="5.519564"><ele>362.828</ele><time>2022-09-17T11:42:29Z</time></trkpt><trkpt lat="50.047143" lon="5.519670"><ele>362.778</ele><time>2022-09-17T11:42:30Z</time></trkpt><trkpt lat="50.047029" lon="5.519778"><ele>362.790</ele><time>2022-09-17T11:42:31Z</time></trkpt><trkpt lat="50.046905" lon="5.519889"><ele>362.786</ele><time>2022-09-17T11:42:32Z</time></trkpt><trkpt lat="50.046783" lon="5.520008"><ele>362.681</ele><time>2022-09-17T11:42:33Z</time></trkpt><trkpt lat="50.046662" lon="5.520125"><ele>362.596</ele><time>2022-09-17T11:42:34Z</time></trkpt><trkpt lat="50.046540" lon="5.520231"><ele>362.491</ele><time>2022-09-17T11:42:35Z</time></trkpt><trkpt lat="50.046413" lon="5.520340"><ele>362.045</ele><time>2022-09-17T11:42:36Z</time></trkpt><trkpt lat="50.046293" lon="5.520464"><ele>361.292</ele><time>2022-09-17T11:42:37Z</time></trkpt><trkpt lat="50.046172" lon="5.520583"><ele>360.688</ele><time>2022-09-17T11:42:38Z</time></trkpt><trkpt lat="50.046049" lon="5.520714"><ele>360.324</ele><time>2022-09-17T11:42:39Z</time></trkpt><trkpt lat="50.045919" lon="5.520839"><ele>359.726</ele><time>2022-09-17T11:42:40Z</time></trkpt><trkpt lat="50.045800" lon="5.520961"><ele>358.709</ele><time>2022-09-17T11:42:41Z</time></trkpt><trkpt lat="50.045710" lon="5.521054"><ele>358.279</ele><time>2022-09-17T11:42:42Z</time></trkpt><trkpt lat="50.045619" lon="5.521142"><ele>358.259</ele><time>2022-09-17T11:42:43Z</time></trkpt><trkpt lat="50.045533" lon="5.521211"><ele>357.791</ele><time>2022-09-17T11:42:44Z</time></trkpt><trkpt lat="50.045452" lon="5.521276"><ele>357.747</ele><time>2022-09-17T11:42:45Z</time></trkpt><trkpt lat="50.045366" lon="5.521350"><ele>358.042</ele><time>2022-09-17T11:42:46Z</time></trkpt><trkpt lat="50.045253" lon="5.521463"><ele>358.867</ele><time>2022-09-17T11:42:47Z</time></trkpt><trkpt lat="50.045116" lon="5.521612"><ele>358.742</ele><time>2022-09-17T11:42:48Z</time></trkpt><trkpt lat="50.044979" lon="5.521762"><ele>358.386</ele><time>2022-09-17T11:42:49Z</time></trkpt><trkpt lat="50.044849" lon="5.521879"><ele>357.953</ele><time>2022-09-17T11:42:50Z</time></trkpt><trkpt lat="50.044726" lon="5.521983"><ele>357.449</ele><time>2022-09-17T11:42:51Z</time></trkpt><trkpt lat="50.044603" lon="5.522110"><ele>357.102</ele><time>2022-09-17T11:42:52Z</time></trkpt><trkpt lat="50.044481" lon="5.522224"><ele>357.422</ele><time>2022-09-17T11:42:53Z</time></trkpt><trkpt lat="50.044360" lon="5.522336"><ele>357.709</ele><time>2022-09-17T11:42:54Z</time></trkpt><trkpt lat="50.044244" lon="5.522453"><ele>357.935</ele><time>2022-09-17T11:42:55Z</time></trkpt><trkpt lat="50.044121" lon="5.522565"><ele>358.185</ele><time>2022-09-17T11:42:56Z</time></trkpt><trkpt lat="50.044000" lon="5.522690"><ele>358.287</ele><time>2022-09-17T11:42:57Z</time></trkpt><trkpt lat="50.043878" lon="5.522815"><ele>358.363</ele><time>2022-09-17T11:42:58Z</time></trkpt><trkpt lat="50.043751" lon="5.522929"><ele>358.438</ele><time>2022-09-17T11:42:59Z</time></trkpt><trkpt lat="50.043646" lon="5.523021"><ele>358.483</ele><time>2022-09-17T11:43:00Z</time></trkpt><trkpt lat="50.043540" lon="5.523109"><ele>358.568</ele><time>2022-09-17T11:43:01Z</time></trkpt><trkpt lat="50.043434" lon="5.523194"><ele>359.462</ele><time>2022-09-17T11:43:02Z</time></trkpt><trkpt lat="50.043334" lon="5.523316"><ele>359.559</ele><time>2022-09-17T11:43:03Z</time></trkpt><trkpt lat="50.043225" lon="5.523425"><ele>359.913</ele><time>2022-09-17T11:43:04Z</time></trkpt><trkpt lat="50.043126" lon="5.523524"><ele>360.443</ele><time>2022-09-17T11:43:05Z</time></trkpt><trkpt lat="50.043040" lon="5.523626"><ele>361.507</ele><time>2022-09-17T11:43:06Z</time></trkpt><trkpt lat="50.042955" lon="5.523716"><ele>362.809</ele><time>2022-09-17T11:43:07Z</time></trkpt><trkpt lat="50.042868" lon="5.523803"><ele>364.392</ele><time>2022-09-17T11:43:08Z</time></trkpt><trkpt lat="50.042771" lon="5.523878"><ele>366.112</ele><time>2022-09-17T11:43:09Z</time></trkpt><trkpt lat="50.042674" lon="5.523956"><ele>367.644</ele><time>2022-09-17T11:43:10Z</time></trkpt><trkpt lat="50.042554" lon="5.524055"><ele>368.520</ele><time>2022-09-17T11:43:11Z</time></trkpt><trkpt lat="50.042434" lon="5.524163"><ele>368.415</ele><time>2022-09-17T11:43:12Z</time></trkpt><trkpt lat="50.042320" lon="5.524266"><ele>367.820</ele><time>2022-09-17T11:43:13Z</time></trkpt><trkpt lat="50.042213" lon="5.524364"><ele>367.445</ele><time>2022-09-17T11:43:14Z</time></trkpt><trkpt lat="50.042111" lon="5.524459"><ele>366.629</ele><time>2022-09-17T11:43:15Z</time></trkpt><trkpt lat="50.042013" lon="5.524557"><ele>365.546</ele><time>2022-09-17T11:43:16Z</time></trkpt><trkpt lat="50.041915" lon="5.524656"><ele>364.795</ele><time>2022-09-17T11:43:17Z</time></trkpt><trkpt lat="50.041801" lon="5.524749"><ele>363.849</ele><time>2022-09-17T11:43:18Z</time></trkpt><trkpt lat="50.041686" lon="5.524849"><ele>363.323</ele><time>2022-09-17T11:43:19Z</time></trkpt><trkpt lat="50.041573" lon="5.524970"><ele>362.109</ele><time>2022-09-17T11:43:20Z</time></trkpt><trkpt lat="50.041477" lon="5.525088"><ele>361.270</ele><time>2022-09-17T11:43:21Z</time></trkpt><trkpt lat="50.041374" lon="5.525179"><ele>360.540</ele><time>2022-09-17T11:43:22Z</time></trkpt><trkpt lat="50.041274" lon="5.525282"><ele>360.182</ele><time>2022-09-17T11:43:23Z</time></trkpt><trkpt lat="50.041177" lon="5.525377"><ele>359.988</ele><time>2022-09-17T11:43:24Z</time></trkpt><trkpt lat="50.041078" lon="5.525470"><ele>359.943</ele><time>2022-09-17T11:43:25Z</time></trkpt><trkpt lat="50.040959" lon="5.525558"><ele>360.088</ele><time>2022-09-17T11:43:26Z</time></trkpt><trkpt lat="50.040817" lon="5.525669"><ele>360.753</ele><time>2022-09-17T11:43:27Z</time></trkpt><trkpt lat="50.040691" lon="5.525784"><ele>361.047</ele><time>2022-09-17T11:43:28Z</time></trkpt><trkpt lat="50.040562" lon="5.525910"><ele>361.124</ele><time>2022-09-17T11:43:29Z</time></trkpt><trkpt lat="50.040446" lon="5.526022"><ele>361.117</ele><time>2022-09-17T11:43:30Z</time></trkpt><trkpt lat="50.040333" lon="5.526129"><ele>361.087</ele><time>2022-09-17T11:43:31Z</time></trkpt><trkpt lat="50.040239" lon="5.526204"><ele>360.815</ele><time>2022-09-17T11:43:32Z</time></trkpt><trkpt lat="50.040145" lon="5.526287"><ele>360.409</ele><time>2022-09-17T11:43:33Z</time></trkpt><trkpt lat="50.040059" lon="5.526357"><ele>360.482</ele><time>2022-09-17T11:43:34Z</time></trkpt><trkpt lat="50.039963" lon="5.526453"><ele>360.752</ele><time>2022-09-17T11:43:35Z</time></trkpt><trkpt lat="50.039863" lon="5.526546"><ele>360.834</ele><time>2022-09-17T11:43:36Z</time></trkpt><trkpt lat="50.039760" lon="5.526648"><ele>360.890</ele><time>2022-09-17T11:43:37Z</time></trkpt><trkpt lat="50.039664" lon="5.526761"><ele>360.855</ele><time>2022-09-17T11:43:38Z</time></trkpt><trkpt lat="50.039581" lon="5.526869"><ele>360.640</ele><time>2022-09-17T11:43:39Z</time></trkpt><trkpt lat="50.039484" lon="5.526983"><ele>360.635</ele><time>2022-09-17T11:43:40Z</time></trkpt><trkpt lat="50.039384" lon="5.527078"><ele>360.679</ele><time>2022-09-17T11:43:41Z</time></trkpt><trkpt lat="50.039283" lon="5.527174"><ele>360.916</ele><time>2022-09-17T11:43:42Z</time></trkpt><trkpt lat="50.039181" lon="5.527279"><ele>361.275</ele><time>2022-09-17T11:43:43Z</time></trkpt><trkpt lat="50.039066" lon="5.527374"><ele>361.328</ele><time>2022-09-17T11:43:44Z</time></trkpt><trkpt lat="50.038961" lon="5.527487"><ele>361.320</ele><time>2022-09-17T11:43:45Z</time></trkpt><trkpt lat="50.038855" lon="5.527596"><ele>361.309</ele><time>2022-09-17T11:43:46Z</time></trkpt><trkpt lat="50.038758" lon="5.527687"><ele>361.278</ele><time>2022-09-17T11:43:47Z</time></trkpt><trkpt lat="50.038663" lon="5.527813"><ele>361.178</ele><time>2022-09-17T11:43:48Z</time></trkpt><trkpt lat="50.038554" lon="5.527924"><ele>360.950</ele><time>2022-09-17T11:43:49Z</time></trkpt><trkpt lat="50.038455" lon="5.528031"><ele>360.966</ele><time>2022-09-17T11:43:50Z</time></trkpt><trkpt lat="50.038356" lon="5.528130"><ele>361.161</ele><time>2022-09-17T11:43:51Z</time></trkpt><trkpt lat="50.038248" lon="5.528231"><ele>361.376</ele><time>2022-09-17T11:43:52Z</time></trkpt><trkpt lat="50.038123" lon="5.528337"><ele>361.551</ele><time>2022-09-17T11:43:53Z</time></trkpt><trkpt lat="50.038008" lon="5.528423"><ele>362.265</ele><time>2022-09-17T11:43:54Z</time></trkpt><trkpt lat="50.037889" lon="5.528518"><ele>362.432</ele><time>2022-09-17T11:43:55Z</time></trkpt><trkpt lat="50.037765" lon="5.528576"><ele>362.554</ele><time>2022-09-17T11:43:56Z</time></trkpt><trkpt lat="50.037639" lon="5.528605"><ele>362.556</ele><time>2022-09-17T11:43:57Z</time></trkpt><trkpt lat="50.037509" lon="5.528643"><ele>362.511</ele><time>2022-09-17T11:43:58Z</time></trkpt><trkpt lat="50.037388" lon="5.528653"><ele>362.609</ele><time>2022-09-17T11:43:59Z</time></trkpt><trkpt lat="50.037253" lon="5.528661"><ele>362.636</ele><time>2022-09-17T11:44:00Z</time></trkpt><trkpt lat="50.037141" lon="5.528706"><ele>362.766</ele><time>2022-09-17T11:44:01Z</time></trkpt><trkpt lat="50.037025" lon="5.528750"><ele>363.368</ele><time>2022-09-17T11:44:02Z</time></trkpt><trkpt lat="50.036903" lon="5.528771"><ele>364.114</ele><time>2022-09-17T11:44:03Z</time></trkpt><trkpt lat="50.036765" lon="5.528801"><ele>364.499</ele><time>2022-09-17T11:44:04Z</time></trkpt><trkpt lat="50.036643" lon="5.528849"><ele>365.134</ele><time>2022-09-17T11:44:05Z</time></trkpt><trkpt lat="50.036524" lon="5.528877"><ele>366.059</ele><time>2022-09-17T11:44:06Z</time></trkpt><trkpt lat="50.036419" lon="5.528916"><ele>366.043</ele><time>2022-09-17T11:44:07Z</time></trkpt><trkpt lat="50.036292" lon="5.528979"><ele>366.310</ele><time>2022-09-17T11:44:08Z</time></trkpt><trkpt lat="50.036127" lon="5.529022"><ele>366.923</ele><time>2022-09-17T11:44:09Z</time></trkpt><trkpt lat="50.035985" lon="5.529055"><ele>366.883</ele><time>2022-09-17T11:44:10Z</time></trkpt><trkpt lat="50.035848" lon="5.529078"><ele>366.711</ele><time>2022-09-17T11:44:11Z</time></trkpt><trkpt lat="50.035718" lon="5.529073"><ele>366.709</ele><time>2022-09-17T11:44:12Z</time></trkpt><trkpt lat="50.035604" lon="5.529111"><ele>366.853</ele><time>2022-09-17T11:44:13Z</time></trkpt><trkpt lat="50.035500" lon="5.529158"><ele>366.943</ele><time>2022-09-17T11:44:14Z</time></trkpt><trkpt lat="50.035395" lon="5.529181"><ele>367.395</ele><time>2022-09-17T11:44:15Z</time></trkpt><trkpt lat="50.035283" lon="5.529200"><ele>368.671</ele><time>2022-09-17T11:44:16Z</time></trkpt><trkpt lat="50.035160" lon="5.529206"><ele>369.936</ele><time>2022-09-17T11:44:17Z</time></trkpt><trkpt lat="50.035046" lon="5.529217"><ele>370.631</ele><time>2022-09-17T11:44:18Z</time></trkpt><trkpt lat="50.034939" lon="5.529229"><ele>371.596</ele><time>2022-09-17T11:44:19Z</time></trkpt><trkpt lat="50.034859" lon="5.529258"><ele>372.490</ele><time>2022-09-17T11:44:20Z</time></trkpt><trkpt lat="50.034785" lon="5.529293"><ele>372.777</ele><time>2022-09-17T11:44:21Z</time></trkpt><trkpt lat="50.034719" lon="5.529306"><ele>373.358</ele><time>2022-09-17T11:44:22Z</time></trkpt><trkpt lat="50.034668" lon="5.529296"><ele>374.052</ele><time>2022-09-17T11:44:23Z</time></trkpt><trkpt lat="50.034619" lon="5.529279"><ele>374.417</ele><time>2022-09-17T11:44:24Z</time></trkpt><trkpt lat="50.034572" lon="5.529255"><ele>375.009</ele><time>2022-09-17T11:44:26Z</time></trkpt><trkpt lat="50.034564" lon="5.529123"><ele>375.036</ele><time>2022-09-17T11:44:59Z</time></trkpt><trkpt lat="50.034595" lon="5.529024"><ele>375.046</ele><time>2022-09-17T11:45:00Z</time></trkpt><trkpt lat="50.034662" lon="5.528882"><ele>374.648</ele><time>2022-09-17T11:45:01Z</time></trkpt><trkpt lat="50.034770" lon="5.528665"><ele>374.184</ele><time>2022-09-17T11:45:02Z</time></trkpt><trkpt lat="50.034871" lon="5.528463"><ele>373.519</ele><time>2022-09-17T11:45:03Z</time></trkpt><trkpt lat="50.034987" lon="5.528233"><ele>372.894</ele><time>2022-09-17T11:45:04Z</time></trkpt><trkpt lat="50.035095" lon="5.527964"><ele>372.129</ele><time>2022-09-17T11:45:05Z</time></trkpt><trkpt lat="50.035197" lon="5.527686"><ele>371.423</ele><time>2022-09-17T11:45:06Z</time></trkpt><trkpt lat="50.035271" lon="5.527403"><ele>370.860</ele><time>2022-09-17T11:45:07Z</time></trkpt><trkpt lat="50.035353" lon="5.527150"><ele>370.293</ele><time>2022-09-17T11:45:08Z</time></trkpt><trkpt lat="50.035440" lon="5.526930"><ele>369.665</ele><time>2022-09-17T11:45:09Z</time></trkpt><trkpt lat="50.035505" lon="5.526726"><ele>369.021</ele><time>2022-09-17T11:45:10Z</time></trkpt><trkpt lat="50.035569" lon="5.526527"><ele>368.409</ele><time>2022-09-17T11:45:11Z</time></trkpt><trkpt lat="50.035624" lon="5.526354"><ele>368.210</ele><time>2022-09-17T11:45:12Z</time></trkpt><trkpt lat="50.035675" lon="5.526190"><ele>367.570</ele><time>2022-09-17T11:45:13Z</time></trkpt><trkpt lat="50.035721" lon="5.526041"><ele>367.272</ele><time>2022-09-17T11:45:14Z</time></trkpt><trkpt lat="50.035762" lon="5.525906"><ele>366.998</ele><time>2022-09-17T11:45:15Z</time></trkpt><trkpt lat="50.035801" lon="5.525781"><ele>366.323</ele><time>2022-09-17T11:45:16Z</time></trkpt><trkpt lat="50.035839" lon="5.525652"><ele>365.928</ele><time>2022-09-17T11:45:17Z</time></trkpt><trkpt lat="50.035875" lon="5.525522"><ele>365.583</ele><time>2022-09-17T11:45:18Z</time></trkpt><trkpt lat="50.035905" lon="5.525413"><ele>365.297</ele><time>2022-09-17T11:45:19Z</time></trkpt><trkpt lat="50.035934" lon="5.525318"><ele>364.744</ele><time>2022-09-17T11:45:20Z</time></trkpt><trkpt lat="50.035945" lon="5.525227"><ele>364.465</ele><time>2022-09-17T11:45:21Z</time></trkpt><trkpt lat="50.035974" lon="5.525161"><ele>364.368</ele><time>2022-09-17T11:45:22Z</time></trkpt><trkpt lat="50.035991" lon="5.525093"><ele>364.014</ele><time>2022-09-17T11:45:23Z</time></trkpt><trkpt lat="50.035996" lon="5.525011"><ele>363.809</ele><time>2022-09-17T11:45:24Z</time></trkpt><trkpt lat="50.035963" lon="5.524950"><ele>363.877</ele><time>2022-09-17T11:45:25Z</time></trkpt><trkpt lat="50.035885" lon="5.524877"><ele>363.787</ele><time>2022-09-17T11:45:27Z</time></trkpt><trkpt lat="50.035859" lon="5.524698"><ele>363.789</ele><time>2022-09-17T11:45:28Z</time></trkpt><trkpt lat="50.035805" lon="5.524688"><ele>363.715</ele><time>2022-09-17T11:45:30Z</time></trkpt><trkpt lat="50.035948" lon="5.524889"><ele>363.790</ele><time>2022-09-17T11:45:31Z</time></trkpt><trkpt lat="50.035775" lon="5.525161"><ele>363.735</ele><time>2022-09-17T11:50:58Z</time></trkpt><trkpt lat="50.035778" lon="5.525295"><ele>363.940</ele><time>2022-09-17T11:51:03Z</time></trkpt><trkpt lat="50.014890" lon="5.533299"><ele>393.464</ele><time>2022-09-17T13:25:15Z</time></trkpt><trkpt lat="50.014958" lon="5.533361"><ele>393.441</ele><time>2022-09-17T13:42:14Z</time></trkpt><trkpt lat="50.015028" lon="5.533484"><ele>393.419</ele><time>2022-09-17T13:42:16Z</time></trkpt><trkpt lat="50.015067" lon="5.533605"><ele>393.509</ele><time>2022-09-17T13:42:17Z</time></trkpt><trkpt lat="50.015144" lon="5.533755"><ele>393.519</ele><time>2022-09-17T13:42:18Z</time></trkpt><trkpt lat="50.015198" lon="5.533916"><ele>393.509</ele><time>2022-09-17T13:42:19Z</time></trkpt><trkpt lat="50.015286" lon="5.534077"><ele>393.262</ele><time>2022-09-17T13:42:20Z</time></trkpt><trkpt lat="50.015369" lon="5.534220"><ele>392.742</ele><time>2022-09-17T13:42:21Z</time></trkpt><trkpt lat="50.015471" lon="5.534369"><ele>392.474</ele><time>2022-09-17T13:42:22Z</time></trkpt><trkpt lat="50.015536" lon="5.534507"><ele>392.410</ele><time>2022-09-17T13:42:23Z</time></trkpt><trkpt lat="50.015611" lon="5.534641"><ele>392.655</ele><time>2022-09-17T13:42:24Z</time></trkpt><trkpt lat="50.015673" lon="5.534768"><ele>393.610</ele><time>2022-09-17T13:42:25Z</time></trkpt><trkpt lat="50.015736" lon="5.534923"><ele>394.875</ele><time>2022-09-17T13:42:26Z</time></trkpt><trkpt lat="50.015794" lon="5.535089"><ele>396.399</ele><time>2022-09-17T13:42:27Z</time></trkpt><trkpt lat="50.015862" lon="5.535255"><ele>397.466</ele><time>2022-09-17T13:42:28Z</time></trkpt><trkpt lat="50.015918" lon="5.535415"><ele>398.575</ele><time>2022-09-17T13:42:29Z</time></trkpt><trkpt lat="50.015978" lon="5.535607"><ele>399.628</ele><time>2022-09-17T13:42:30Z</time></trkpt><trkpt lat="50.016042" lon="5.535799"><ele>401.020</ele><time>2022-09-17T13:42:31Z</time></trkpt><trkpt lat="50.016118" lon="5.535972"><ele>401.809</ele><time>2022-09-17T13:42:32Z</time></trkpt><trkpt lat="50.016200" lon="5.536136"><ele>402.288</ele><time>2022-09-17T13:42:33Z</time></trkpt><trkpt lat="50.016292" lon="5.536300"><ele>404.088</ele><time>2022-09-17T13:42:34Z</time></trkpt><trkpt lat="50.016371" lon="5.536462"><ele>405.340</ele><time>2022-09-17T13:42:35Z</time></trkpt><trkpt lat="50.016458" lon="5.536613"><ele>405.996</ele><time>2022-09-17T13:42:36Z</time></trkpt><trkpt lat="50.016540" lon="5.536771"><ele>407.591</ele><time>2022-09-17T13:42:37Z</time></trkpt><trkpt lat="50.016622" lon="5.536930"><ele>408.916</ele><time>2022-09-17T13:42:38Z</time></trkpt><trkpt lat="50.016696" lon="5.537075"><ele>410.171</ele><time>2022-09-17T13:42:39Z</time></trkpt><trkpt lat="50.016769" lon="5.537209"><ele>410.115</ele><time>2022-09-17T13:42:40Z</time></trkpt><trkpt lat="50.016849" lon="5.537356"><ele>411.262</ele><time>2022-09-17T13:42:41Z</time></trkpt><trkpt lat="50.016931" lon="5.537491"><ele>414.377</ele><time>2022-09-17T13:42:42Z</time></trkpt><trkpt lat="50.017016" lon="5.537638"><ele>414.361</ele><time>2022-09-17T13:42:43Z</time></trkpt><trkpt lat="50.017116" lon="5.537798"><ele>416.727</ele><time>2022-09-17T13:42:44Z</time></trkpt><trkpt lat="50.017217" lon="5.537967"><ele>418.209</ele><time>2022-09-17T13:42:45Z</time></trkpt><trkpt lat="50.017311" lon="5.538158"><ele>419.778</ele><time>2022-09-17T13:42:46Z</time></trkpt><trkpt lat="50.017419" lon="5.538357"><ele>421.298</ele><time>2022-09-17T13:42:47Z</time></trkpt><trkpt lat="50.017512" lon="5.538557"><ele>422.730</ele><time>2022-09-17T13:42:48Z</time></trkpt><trkpt lat="50.017621" lon="5.538742"><ele>424.086</ele><time>2022-09-17T13:42:49Z</time></trkpt><trkpt lat="50.017723" lon="5.538913"><ele>425.451</ele><time>2022-09-17T13:42:50Z</time></trkpt><trkpt lat="50.017821" lon="5.539098"><ele>426.696</ele><time>2022-09-17T13:42:51Z</time></trkpt><trkpt lat="50.017915" lon="5.539255"><ele>427.691</ele><time>2022-09-17T13:42:52Z</time></trkpt><trkpt lat="50.018012" lon="5.539408"><ele>428.915</ele><time>2022-09-17T13:42:53Z</time></trkpt><trkpt lat="50.018121" lon="5.539551"><ele>430.682</ele><time>2022-09-17T13:42:54Z</time></trkpt><trkpt lat="50.018228" lon="5.539713"><ele>432.369</ele><time>2022-09-17T13:42:55Z</time></trkpt><trkpt lat="50.018346" lon="5.539871"><ele>434.004</ele><time>2022-09-17T13:42:56Z</time></trkpt><trkpt lat="50.018451" lon="5.540036"><ele>435.624</ele><time>2022-09-17T13:42:57Z</time></trkpt><trkpt lat="50.018543" lon="5.540212"><ele>436.809</ele><time>2022-09-17T13:42:58Z</time></trkpt><trkpt lat="50.018640" lon="5.540402"><ele>437.797</ele><time>2022-09-17T13:42:59Z</time></trkpt><trkpt lat="50.018741" lon="5.540595"><ele>438.597</ele><time>2022-09-17T13:43:00Z</time></trkpt><trkpt lat="50.018835" lon="5.540773"><ele>439.159</ele><time>2022-09-17T13:43:01Z</time></trkpt><trkpt lat="50.018921" lon="5.540931"><ele>439.715</ele><time>2022-09-17T13:43:02Z</time></trkpt><trkpt lat="50.018997" lon="5.541071"><ele>440.210</ele><time>2022-09-17T13:43:03Z</time></trkpt><trkpt lat="50.019066" lon="5.541204"><ele>440.545</ele><time>2022-09-17T13:43:04Z</time></trkpt><trkpt lat="50.019134" lon="5.541352"><ele>440.720</ele><time>2022-09-17T13:43:05Z</time></trkpt><trkpt lat="50.019213" lon="5.541538"><ele>441.024</ele><time>2022-09-17T13:43:06Z</time></trkpt><trkpt lat="50.019305" lon="5.541726"><ele>441.721</ele><time>2022-09-17T13:43:07Z</time></trkpt><trkpt lat="50.019409" lon="5.541920"><ele>441.723</ele><time>2022-09-17T13:43:08Z</time></trkpt><trkpt lat="50.019532" lon="5.542128"><ele>441.483</ele><time>2022-09-17T13:43:09Z</time></trkpt><trkpt lat="50.019644" lon="5.542319"><ele>440.211</ele><time>2022-09-17T13:43:10Z</time></trkpt><trkpt lat="50.019757" lon="5.542504"><ele>438.409</ele><time>2022-09-17T13:43:11Z</time></trkpt><trkpt lat="50.019872" lon="5.542691"><ele>436.473</ele><time>2022-09-17T13:43:12Z</time></trkpt><trkpt lat="50.019982" lon="5.542891"><ele>434.333</ele><time>2022-09-17T13:43:13Z</time></trkpt><trkpt lat="50.020094" lon="5.543089"><ele>432.325</ele><time>2022-09-17T13:43:14Z</time></trkpt><trkpt lat="50.020204" lon="5.543274"><ele>430.951</ele><time>2022-09-17T13:43:15Z</time></trkpt><trkpt lat="50.020313" lon="5.543470"><ele>429.826</ele><time>2022-09-17T13:43:16Z</time></trkpt><trkpt lat="50.020418" lon="5.543645"><ele>428.961</ele><time>2022-09-17T13:43:17Z</time></trkpt><trkpt lat="50.020521" lon="5.543821"><ele>428.166</ele><time>2022-09-17T13:43:18Z</time></trkpt><trkpt lat="50.020611" lon="5.543972"><ele>427.330</ele><time>2022-09-17T13:43:19Z</time></trkpt><trkpt lat="50.020699" lon="5.544132"><ele>426.927</ele><time>2022-09-17T13:43:20Z</time></trkpt><trkpt lat="50.020768" lon="5.544285"><ele>426.463</ele><time>2022-09-17T13:43:21Z</time></trkpt><trkpt lat="50.020845" lon="5.544449"><ele>425.944</ele><time>2022-09-17T13:43:22Z</time></trkpt><trkpt lat="50.020913" lon="5.544618"><ele>425.518</ele><time>2022-09-17T13:43:23Z</time></trkpt><trkpt lat="50.020967" lon="5.544819"><ele>425.509</ele><time>2022-09-17T13:43:24Z</time></trkpt><trkpt lat="50.021016" lon="5.545038"><ele>425.877</ele><time>2022-09-17T13:43:25Z</time></trkpt><trkpt lat="50.021069" lon="5.545267"><ele>426.047</ele><time>2022-09-17T13:43:26Z</time></trkpt><trkpt lat="50.021116" lon="5.545491"><ele>426.119</ele><time>2022-09-17T13:43:27Z</time></trkpt><trkpt lat="50.021170" lon="5.545722"><ele>426.145</ele><time>2022-09-17T13:43:28Z</time></trkpt><trkpt lat="50.021230" lon="5.545952"><ele>425.970</ele><time>2022-09-17T13:43:29Z</time></trkpt><trkpt lat="50.021302" lon="5.546167"><ele>425.225</ele><time>2022-09-17T13:43:30Z</time></trkpt><trkpt lat="50.021377" lon="5.546373"><ele>424.470</ele><time>2022-09-17T13:43:31Z</time></trkpt><trkpt lat="50.021462" lon="5.546564"><ele>423.684</ele><time>2022-09-17T13:43:32Z</time></trkpt><trkpt lat="50.021553" lon="5.546751"><ele>422.971</ele><time>2022-09-17T13:43:33Z</time></trkpt><trkpt lat="50.021643" lon="5.546952"><ele>422.436</ele><time>2022-09-17T13:43:34Z</time></trkpt><trkpt lat="50.021734" lon="5.547132"><ele>422.017</ele><time>2022-09-17T13:43:35Z</time></trkpt><trkpt lat="50.021814" lon="5.547292"><ele>421.618</ele><time>2022-09-17T13:43:36Z</time></trkpt><trkpt lat="50.021894" lon="5.547445"><ele>421.409</ele><time>2022-09-17T13:43:37Z</time></trkpt><trkpt lat="50.021969" lon="5.547593"><ele>421.094</ele><time>2022-09-17T13:43:38Z</time></trkpt><trkpt lat="50.022041" lon="5.547724"><ele>421.014</ele><time>2022-09-17T13:43:39Z</time></trkpt><trkpt lat="50.022105" lon="5.547843"><ele>420.866</ele><time>2022-09-17T13:43:40Z</time></trkpt><trkpt lat="50.022180" lon="5.547970"><ele>420.882</ele><time>2022-09-17T13:43:41Z</time></trkpt><trkpt lat="50.022249" lon="5.548082"><ele>420.867</ele><time>2022-09-17T13:43:42Z</time></trkpt><trkpt lat="50.022314" lon="5.548197"><ele>420.912</ele><time>2022-09-17T13:43:43Z</time></trkpt><trkpt lat="50.022387" lon="5.548321"><ele>420.987</ele><time>2022-09-17T13:43:44Z</time></trkpt><trkpt lat="50.022461" lon="5.548457"><ele>420.991</ele><time>2022-09-17T13:43:45Z</time></trkpt><trkpt lat="50.022554" lon="5.548629"><ele>420.878</ele><time>2022-09-17T13:43:46Z</time></trkpt><trkpt lat="50.022656" lon="5.548809"><ele>420.446</ele><time>2022-09-17T13:43:47Z</time></trkpt><trkpt lat="50.022754" lon="5.548975"><ele>419.488</ele><time>2022-09-17T13:43:48Z</time></trkpt><trkpt lat="50.022846" lon="5.549096"><ele>418.816</ele><time>2022-09-17T13:43:49Z</time></trkpt><trkpt lat="50.022932" lon="5.549201"><ele>417.009</ele><time>2022-09-17T13:43:50Z</time></trkpt><trkpt lat="50.023020" lon="5.549326"><ele>415.815</ele><time>2022-09-17T13:43:51Z</time></trkpt><trkpt lat="50.023086" lon="5.549436"><ele>414.395</ele><time>2022-09-17T13:43:52Z</time></trkpt><trkpt lat="50.023145" lon="5.549530"><ele>413.017</ele><time>2022-09-17T13:43:53Z</time></trkpt><trkpt lat="50.023192" lon="5.549593"><ele>413.063</ele><time>2022-09-17T13:43:54Z</time></trkpt><trkpt lat="50.023240" lon="5.549650"><ele>413.048</ele><time>2022-09-17T13:43:55Z</time></trkpt><trkpt lat="50.023294" lon="5.549714"><ele>413.123</ele><time>2022-09-17T13:43:56Z</time></trkpt><trkpt lat="50.023341" lon="5.549791"><ele>413.248</ele><time>2022-09-17T13:43:57Z</time></trkpt><trkpt lat="50.023382" lon="5.549846"><ele>413.422</ele><time>2022-09-17T13:43:58Z</time></trkpt><trkpt lat="50.023443" lon="5.549944"><ele>413.939</ele><time>2022-09-17T13:44:00Z</time></trkpt><trkpt lat="50.023469" lon="5.550013"><ele>414.099</ele><time>2022-09-17T13:44:02Z</time></trkpt><trkpt lat="50.023514" lon="5.550080"><ele>414.007</ele><time>2022-09-17T13:44:05Z</time></trkpt><trkpt lat="50.023573" lon="5.550165"><ele>414.027</ele><time>2022-09-17T13:44:07Z</time></trkpt><trkpt lat="50.023607" lon="5.550223"><ele>414.009</ele><time>2022-09-17T13:44:08Z</time></trkpt><trkpt lat="50.023643" lon="5.550272"><ele>414.050</ele><time>2022-09-17T13:44:09Z</time></trkpt><trkpt lat="50.023682" lon="5.550332"><ele>414.050</ele><time>2022-09-17T13:44:10Z</time></trkpt><trkpt lat="50.023733" lon="5.550436"><ele>414.042</ele><time>2022-09-17T13:44:11Z</time></trkpt><trkpt lat="50.023762" lon="5.550510"><ele>414.228</ele><time>2022-09-17T13:44:12Z</time></trkpt><trkpt lat="50.023799" lon="5.550584"><ele>414.333</ele><time>2022-09-17T13:44:13Z</time></trkpt><trkpt lat="50.023834" lon="5.550649"><ele>414.438</ele><time>2022-09-17T13:44:14Z</time></trkpt><trkpt lat="50.023879" lon="5.550707"><ele>414.623</ele><time>2022-09-17T13:44:15Z</time></trkpt><trkpt lat="50.023930" lon="5.550755"><ele>414.797</ele><time>2022-09-17T13:44:16Z</time></trkpt><trkpt lat="50.023963" lon="5.550805"><ele>414.784</ele><time>2022-09-17T13:44:17Z</time></trkpt><trkpt lat="50.024020" lon="5.550876"><ele>414.757</ele><time>2022-09-17T13:44:19Z</time></trkpt><trkpt lat="50.024085" lon="5.550973"><ele>414.600</ele><time>2022-09-17T13:44:21Z</time></trkpt><trkpt lat="50.024135" lon="5.551038"><ele>414.620</ele><time>2022-09-17T13:44:22Z</time></trkpt><trkpt lat="50.024195" lon="5.551141"><ele>414.509</ele><time>2022-09-17T13:44:23Z</time></trkpt><trkpt lat="50.024256" lon="5.551222"><ele>414.296</ele><time>2022-09-17T13:44:24Z</time></trkpt><trkpt lat="50.024312" lon="5.551295"><ele>413.856</ele><time>2022-09-17T13:44:25Z</time></trkpt><trkpt lat="50.024345" lon="5.551359"><ele>413.538</ele><time>2022-09-17T13:44:26Z</time></trkpt><trkpt lat="50.024412" lon="5.551503"><ele>412.934</ele><time>2022-09-17T13:44:27Z</time></trkpt><trkpt lat="50.024474" lon="5.551617"><ele>412.399</ele><time>2022-09-17T13:44:28Z</time></trkpt><trkpt lat="50.024556" lon="5.551709"><ele>411.834</ele><time>2022-09-17T13:44:29Z</time></trkpt><trkpt lat="50.024634" lon="5.551800"><ele>411.479</ele><time>2022-09-17T13:44:30Z</time></trkpt><trkpt lat="50.024665" lon="5.551883"><ele>411.263</ele><time>2022-09-17T13:44:31Z</time></trkpt><trkpt lat="50.024746" lon="5.552040"><ele>410.720</ele><time>2022-09-17T13:44:32Z</time></trkpt><trkpt lat="50.024811" lon="5.552148"><ele>410.069</ele><time>2022-09-17T13:44:33Z</time></trkpt><trkpt lat="50.024847" lon="5.552230"><ele>409.404</ele><time>2022-09-17T13:44:34Z</time></trkpt><trkpt lat="50.024856" lon="5.552303"><ele>409.324</ele><time>2022-09-17T13:44:37Z</time></trkpt><trkpt lat="50.024887" lon="5.552409"><ele>409.309</ele><time>2022-09-17T13:44:42Z</time></trkpt><trkpt lat="50.024923" lon="5.552517"><ele>409.447</ele><time>2022-09-17T13:44:44Z</time></trkpt><trkpt lat="50.024943" lon="5.552619"><ele>409.837</ele><time>2022-09-17T13:44:46Z</time></trkpt><trkpt lat="50.024967" lon="5.552694"><ele>409.819</ele><time>2022-09-17T13:44:47Z</time></trkpt><trkpt lat="50.024994" lon="5.552752"><ele>409.895</ele><time>2022-09-17T13:44:48Z</time></trkpt><trkpt lat="50.025011" lon="5.552843"><ele>409.830</ele><time>2022-09-17T13:44:49Z</time></trkpt><trkpt lat="50.025026" lon="5.552931"><ele>409.995</ele><time>2022-09-17T13:44:50Z</time></trkpt><trkpt lat="50.025052" lon="5.553027"><ele>409.980</ele><time>2022-09-17T13:44:51Z</time></trkpt><trkpt lat="50.025089" lon="5.553134"><ele>409.944</ele><time>2022-09-17T13:44:52Z</time></trkpt><trkpt lat="50.025112" lon="5.553236"><ele>409.971</ele><time>2022-09-17T13:44:53Z</time></trkpt><trkpt lat="50.025137" lon="5.553326"><ele>409.859</ele><time>2022-09-17T13:44:54Z</time></trkpt><trkpt lat="50.025164" lon="5.553400"><ele>409.803</ele><time>2022-09-17T13:44:55Z</time></trkpt><trkpt lat="50.025192" lon="5.553489"><ele>409.623</ele><time>2022-09-17T13:44:56Z</time></trkpt><trkpt lat="50.025226" lon="5.553571"><ele>409.309</ele><time>2022-09-17T13:44:57Z</time></trkpt><trkpt lat="50.025238" lon="5.553653"><ele>409.176</ele><time>2022-09-17T13:44:58Z</time></trkpt><trkpt lat="50.025255" lon="5.553740"><ele>408.656</ele><time>2022-09-17T13:44:59Z</time></trkpt><trkpt lat="50.025300" lon="5.553862"><ele>408.528</ele><time>2022-09-17T13:45:00Z</time></trkpt><trkpt lat="50.025341" lon="5.553974"><ele>408.054</ele><time>2022-09-17T13:45:01Z</time></trkpt><trkpt lat="50.025382" lon="5.554059"><ele>407.619</ele><time>2022-09-17T13:45:02Z</time></trkpt><trkpt lat="50.025422" lon="5.554151"><ele>407.244</ele><time>2022-09-17T13:45:03Z</time></trkpt><trkpt lat="50.025466" lon="5.554236"><ele>406.779</ele><time>2022-09-17T13:45:04Z</time></trkpt><trkpt lat="50.025502" lon="5.554375"><ele>406.273</ele><time>2022-09-17T13:45:05Z</time></trkpt><trkpt lat="50.025541" lon="5.554516"><ele>405.820</ele><time>2022-09-17T13:45:06Z</time></trkpt><trkpt lat="50.025586" lon="5.554642"><ele>405.297</ele><time>2022-09-17T13:45:07Z</time></trkpt><trkpt lat="50.025606" lon="5.554743"><ele>405.023</ele><time>2022-09-17T13:45:08Z</time></trkpt><trkpt lat="50.025647" lon="5.554834"><ele>404.625</ele><time>2022-09-17T13:45:09Z</time></trkpt><trkpt lat="50.025702" lon="5.554938"><ele>404.209</ele><time>2022-09-17T13:45:10Z</time></trkpt><trkpt lat="50.025753" lon="5.555025"><ele>403.770</ele><time>2022-09-17T13:45:11Z</time></trkpt><trkpt lat="50.025799" lon="5.555105"><ele>403.330</ele><time>2022-09-17T13:45:12Z</time></trkpt><trkpt lat="50.025843" lon="5.555191"><ele>402.992</ele><time>2022-09-17T13:45:13Z</time></trkpt><trkpt lat="50.025882" lon="5.555268"><ele>402.518</ele><time>2022-09-17T13:45:14Z</time></trkpt><trkpt lat="50.025967" lon="5.555360"><ele>402.233</ele><time>2022-09-17T13:45:16Z</time></trkpt><trkpt lat="50.026032" lon="5.555458"><ele>401.788</ele><time>2022-09-17T13:45:17Z</time></trkpt><trkpt lat="50.026109" lon="5.555517"><ele>400.833</ele><time>2022-09-17T13:45:18Z</time></trkpt><trkpt lat="50.026178" lon="5.555577"><ele>400.577</ele><time>2022-09-17T13:45:19Z</time></trkpt><trkpt lat="50.026262" lon="5.555644"><ele>399.954</ele><time>2022-09-17T13:45:20Z</time></trkpt><trkpt lat="50.026346" lon="5.555696"><ele>399.219</ele><time>2022-09-17T13:45:21Z</time></trkpt><trkpt lat="50.026429" lon="5.555782"><ele>398.209</ele><time>2022-09-17T13:45:22Z</time></trkpt><trkpt lat="50.026510" lon="5.555850"><ele>397.719</ele><time>2022-09-17T13:45:23Z</time></trkpt><trkpt lat="50.026589" lon="5.555905"><ele>397.109</ele><time>2022-09-17T13:45:24Z</time></trkpt><trkpt lat="50.026673" lon="5.555948"><ele>396.892</ele><time>2022-09-17T13:45:25Z</time></trkpt><trkpt lat="50.026775" lon="5.556009"><ele>396.392</ele><time>2022-09-17T13:45:26Z</time></trkpt><trkpt lat="50.026831" lon="5.556063"><ele>396.224</ele><time>2022-09-17T13:45:27Z</time></trkpt><trkpt lat="50.026934" lon="5.556099"><ele>396.060</ele><time>2022-09-17T13:45:29Z</time></trkpt><trkpt lat="50.027025" lon="5.556131"><ele>395.965</ele><time>2022-09-17T13:45:30Z</time></trkpt><trkpt lat="50.027116" lon="5.556147"><ele>395.680</ele><time>2022-09-17T13:45:31Z</time></trkpt><trkpt lat="50.027208" lon="5.556160"><ele>395.325</ele><time>2022-09-17T13:45:32Z</time></trkpt><trkpt lat="50.027326" lon="5.556216"><ele>395.049</ele><time>2022-09-17T13:45:33Z</time></trkpt><trkpt lat="50.027412" lon="5.556264"><ele>394.736</ele><time>2022-09-17T13:45:34Z</time></trkpt><trkpt lat="50.027494" lon="5.556335"><ele>394.411</ele><time>2022-09-17T13:45:35Z</time></trkpt><trkpt lat="50.027571" lon="5.556426"><ele>394.121</ele><time>2022-09-17T13:45:36Z</time></trkpt><trkpt lat="50.027629" lon="5.556556"><ele>393.703</ele><time>2022-09-17T13:45:37Z</time></trkpt><trkpt lat="50.027721" lon="5.556703"><ele>393.009</ele><time>2022-09-17T13:45:38Z</time></trkpt><trkpt lat="50.027784" lon="5.556827"><ele>392.312</ele><time>2022-09-17T13:45:39Z</time></trkpt><trkpt lat="50.027855" lon="5.556934"><ele>391.812</ele><time>2022-09-17T13:45:40Z</time></trkpt><trkpt lat="50.027918" lon="5.557046"><ele>391.244</ele><time>2022-09-17T13:45:41Z</time></trkpt><trkpt lat="50.027964" lon="5.557138"><ele>391.030</ele><time>2022-09-17T13:45:42Z</time></trkpt><trkpt lat="50.027982" lon="5.557215"><ele>390.715</ele><time>2022-09-17T13:45:43Z</time></trkpt><trkpt lat="50.028014" lon="5.557291"><ele>390.650</ele><time>2022-09-17T13:45:44Z</time></trkpt><trkpt lat="50.028044" lon="5.557371"><ele>390.685</ele><time>2022-09-17T13:45:45Z</time></trkpt><trkpt lat="50.028103" lon="5.557398"><ele>390.559</ele><time>2022-09-17T13:45:46Z</time></trkpt><trkpt lat="50.028184" lon="5.557409"><ele>390.296</ele><time>2022-09-17T13:45:47Z</time></trkpt><trkpt lat="50.028261" lon="5.557456"><ele>390.024</ele><time>2022-09-17T13:45:48Z</time></trkpt><trkpt lat="50.028335" lon="5.557524"><ele>389.804</ele><time>2022-09-17T13:45:49Z</time></trkpt><trkpt lat="50.028407" lon="5.557572"><ele>389.514</ele><time>2022-09-17T13:45:50Z</time></trkpt><trkpt lat="50.028469" lon="5.557639"><ele>389.109</ele><time>2022-09-17T13:45:51Z</time></trkpt><trkpt lat="50.028557" lon="5.557706"><ele>388.833</ele><time>2022-09-17T13:45:52Z</time></trkpt><trkpt lat="50.028643" lon="5.557779"><ele>388.223</ele><time>2022-09-17T13:45:53Z</time></trkpt><trkpt lat="50.028716" lon="5.557886"><ele>387.485</ele><time>2022-09-17T13:45:54Z</time></trkpt><trkpt lat="50.028773" lon="5.558028"><ele>386.771</ele><time>2022-09-17T13:45:55Z</time></trkpt><trkpt lat="50.028852" lon="5.558113"><ele>386.086</ele><time>2022-09-17T13:45:56Z</time></trkpt><trkpt lat="50.028913" lon="5.558252"><ele>385.291</ele><time>2022-09-17T13:45:57Z</time></trkpt><trkpt lat="50.028953" lon="5.558371"><ele>384.656</ele><time>2022-09-17T13:45:58Z</time></trkpt><trkpt lat="50.028997" lon="5.558500"><ele>384.240</ele><time>2022-09-17T13:45:59Z</time></trkpt><trkpt lat="50.029041" lon="5.558629"><ele>383.867</ele><time>2022-09-17T13:46:00Z</time></trkpt><trkpt lat="50.029054" lon="5.558747"><ele>383.835</ele><time>2022-09-17T13:46:01Z</time></trkpt><trkpt lat="50.029066" lon="5.558839"><ele>383.786</ele><time>2022-09-17T13:46:02Z</time></trkpt><trkpt lat="50.029084" lon="5.558930"><ele>383.614</ele><time>2022-09-17T13:46:03Z</time></trkpt><trkpt lat="50.029122" lon="5.559017"><ele>383.609</ele><time>2022-09-17T13:46:05Z</time></trkpt><trkpt lat="50.029192" lon="5.559086"><ele>383.884</ele><time>2022-09-17T13:46:09Z</time></trkpt><trkpt lat="50.029223" lon="5.559138"><ele>384.184</ele><time>2022-09-17T13:46:11Z</time></trkpt><trkpt lat="50.029231" lon="5.559215"><ele>385.456</ele><time>2022-09-17T13:46:15Z</time></trkpt><trkpt lat="50.029176" lon="5.559286"><ele>385.672</ele><time>2022-09-17T13:48:02Z</time></trkpt><trkpt lat="50.029189" lon="5.559381"><ele>385.757</ele><time>2022-09-17T13:48:04Z</time></trkpt><trkpt lat="50.029195" lon="5.559473"><ele>385.952</ele><time>2022-09-17T13:48:06Z</time></trkpt><trkpt lat="50.029168" lon="5.559581"><ele>385.917</ele><time>2022-09-17T13:48:08Z</time></trkpt><trkpt lat="50.029166" lon="5.559663"><ele>386.021</ele><time>2022-09-17T13:48:09Z</time></trkpt><trkpt lat="50.029169" lon="5.559760"><ele>386.178</ele><time>2022-09-17T13:48:10Z</time></trkpt><trkpt lat="50.029159" lon="5.559847"><ele>386.171</ele><time>2022-09-17T13:48:11Z</time></trkpt><trkpt lat="50.029162" lon="5.559951"><ele>386.241</ele><time>2022-09-17T13:48:12Z</time></trkpt><trkpt lat="50.029176" lon="5.560050"><ele>386.415</ele><time>2022-09-17T13:48:13Z</time></trkpt><trkpt lat="50.029171" lon="5.560194"><ele>386.609</ele><time>2022-09-17T13:48:15Z</time></trkpt><trkpt lat="50.029162" lon="5.560291"><ele>386.978</ele><time>2022-09-17T13:48:16Z</time></trkpt><trkpt lat="50.029149" lon="5.560384"><ele>387.338</ele><time>2022-09-17T13:48:17Z</time></trkpt><trkpt lat="50.029129" lon="5.560472"><ele>387.610</ele><time>2022-09-17T13:48:18Z</time></trkpt><trkpt lat="50.029113" lon="5.560553"><ele>387.846</ele><time>2022-09-17T13:48:19Z</time></trkpt><trkpt lat="50.029110" lon="5.560632"><ele>388.591</ele><time>2022-09-17T13:48:20Z</time></trkpt><trkpt lat="50.029102" lon="5.560769"><ele>389.266</ele><time>2022-09-17T13:48:22Z</time></trkpt><trkpt lat="50.029083" lon="5.560856"><ele>390.181</ele><time>2022-09-17T13:48:23Z</time></trkpt><trkpt lat="50.029061" lon="5.560957"><ele>392.265</ele><time>2022-09-17T13:48:24Z</time></trkpt><trkpt lat="50.029046" lon="5.561060"><ele>393.722</ele><time>2022-09-17T13:48:25Z</time></trkpt><trkpt lat="50.029024" lon="5.561148"><ele>394.293</ele><time>2022-09-17T13:48:26Z</time></trkpt><trkpt lat="50.029010" lon="5.561224"><ele>395.265</ele><time>2022-09-17T13:48:27Z</time></trkpt><trkpt lat="50.028993" lon="5.561300"><ele>396.221</ele><time>2022-09-17T13:48:28Z</time></trkpt><trkpt lat="50.028971" lon="5.561376"><ele>397.109</ele><time>2022-09-17T13:48:29Z</time></trkpt><trkpt lat="50.028933" lon="5.561451"><ele>398.170</ele><time>2022-09-17T13:48:30Z</time></trkpt><trkpt lat="50.028897" lon="5.561549"><ele>399.240</ele><time>2022-09-17T13:48:31Z</time></trkpt><trkpt lat="50.028869" lon="5.561628"><ele>400.262</ele><time>2022-09-17T13:48:32Z</time></trkpt><trkpt lat="50.028877" lon="5.561713"><ele>401.198</ele><time>2022-09-17T13:48:33Z</time></trkpt><trkpt lat="50.028895" lon="5.561806"><ele>402.053</ele><time>2022-09-17T13:48:34Z</time></trkpt><trkpt lat="50.028909" lon="5.561901"><ele>402.918</ele><time>2022-09-17T13:48:35Z</time></trkpt><trkpt lat="50.028937" lon="5.561989"><ele>403.653</ele><time>2022-09-17T13:48:36Z</time></trkpt><trkpt lat="50.028932" lon="5.562099"><ele>404.367</ele><time>2022-09-17T13:48:37Z</time></trkpt><trkpt lat="50.028897" lon="5.562188"><ele>404.824</ele><time>2022-09-17T13:48:38Z</time></trkpt><trkpt lat="50.028868" lon="5.562282"><ele>405.537</ele><time>2022-09-17T13:48:39Z</time></trkpt><trkpt lat="50.028837" lon="5.562352"><ele>406.049</ele><time>2022-09-17T13:48:40Z</time></trkpt><trkpt lat="50.028814" lon="5.562440"><ele>406.613</ele><time>2022-09-17T13:48:41Z</time></trkpt><trkpt lat="50.028768" lon="5.562521"><ele>407.309</ele><time>2022-09-17T13:48:42Z</time></trkpt><trkpt lat="50.028719" lon="5.562589"><ele>408.024</ele><time>2022-09-17T13:48:43Z</time></trkpt><trkpt lat="50.028648" lon="5.562639"><ele>408.974</ele><time>2022-09-17T13:48:44Z</time></trkpt><trkpt lat="50.028532" lon="5.562676"><ele>409.496</ele><time>2022-09-17T13:48:45Z</time></trkpt><trkpt lat="50.028432" lon="5.562685"><ele>410.152</ele><time>2022-09-17T13:48:46Z</time></trkpt><trkpt lat="50.028341" lon="5.562700"><ele>410.567</ele><time>2022-09-17T13:48:47Z</time></trkpt><trkpt lat="50.028227" lon="5.562725"><ele>411.062</ele><time>2022-09-17T13:48:48Z</time></trkpt><trkpt lat="50.028123" lon="5.562765"><ele>411.497</ele><time>2022-09-17T13:48:49Z</time></trkpt><trkpt lat="50.028013" lon="5.562828"><ele>411.921</ele><time>2022-09-17T13:48:50Z</time></trkpt><trkpt lat="50.027917" lon="5.562893"><ele>412.398</ele><time>2022-09-17T13:48:51Z</time></trkpt><trkpt lat="50.027826" lon="5.562976"><ele>412.835</ele><time>2022-09-17T13:48:52Z</time></trkpt><trkpt lat="50.027742" lon="5.563045"><ele>413.286</ele><time>2022-09-17T13:48:53Z</time></trkpt><trkpt lat="50.027686" lon="5.563128"><ele>413.714</ele><time>2022-09-17T13:48:54Z</time></trkpt><trkpt lat="50.027638" lon="5.563219"><ele>414.109</ele><time>2022-09-17T13:48:55Z</time></trkpt><trkpt lat="50.027573" lon="5.563291"><ele>414.944</ele><time>2022-09-17T13:48:56Z</time></trkpt><trkpt lat="50.027506" lon="5.563363"><ele>415.814</ele><time>2022-09-17T13:48:57Z</time></trkpt><trkpt lat="50.027445" lon="5.563446"><ele>416.646</ele><time>2022-09-17T13:48:58Z</time></trkpt><trkpt lat="50.027371" lon="5.563536"><ele>417.392</ele><time>2022-09-17T13:48:59Z</time></trkpt><trkpt lat="50.027301" lon="5.563606"><ele>417.977</ele><time>2022-09-17T13:49:00Z</time></trkpt><trkpt lat="50.027228" lon="5.563683"><ele>418.332</ele><time>2022-09-17T13:49:01Z</time></trkpt><trkpt lat="50.027161" lon="5.563756"><ele>418.777</ele><time>2022-09-17T13:49:02Z</time></trkpt><trkpt lat="50.027091" lon="5.563856"><ele>419.251</ele><time>2022-09-17T13:49:03Z</time></trkpt><trkpt lat="50.027039" lon="5.563957"><ele>419.978</ele><time>2022-09-17T13:49:04Z</time></trkpt><trkpt lat="50.026981" lon="5.564064"><ele>420.749</ele><time>2022-09-17T13:49:05Z</time></trkpt><trkpt lat="50.026925" lon="5.564187"><ele>421.802</ele><time>2022-09-17T13:49:06Z</time></trkpt><trkpt lat="50.026886" lon="5.564323"><ele>422.622</ele><time>2022-09-17T13:49:07Z</time></trkpt><trkpt lat="50.026852" lon="5.564420"><ele>422.909</ele><time>2022-09-17T13:49:08Z</time></trkpt><trkpt lat="50.026807" lon="5.564546"><ele>423.585</ele><time>2022-09-17T13:49:09Z</time></trkpt><trkpt lat="50.026758" lon="5.564677"><ele>424.085</ele><time>2022-09-17T13:49:10Z</time></trkpt><trkpt lat="50.026713" lon="5.564779"><ele>424.587</ele><time>2022-09-17T13:49:11Z</time></trkpt><trkpt lat="50.026671" lon="5.564905"><ele>425.123</ele><time>2022-09-17T13:49:12Z</time></trkpt><trkpt lat="50.026633" lon="5.565024"><ele>425.848</ele><time>2022-09-17T13:49:13Z</time></trkpt><trkpt lat="50.026596" lon="5.565159"><ele>426.743</ele><time>2022-09-17T13:49:14Z</time></trkpt><trkpt lat="50.026572" lon="5.565303"><ele>427.368</ele><time>2022-09-17T13:49:15Z</time></trkpt><trkpt lat="50.026552" lon="5.565428"><ele>427.942</ele><time>2022-09-17T13:49:16Z</time></trkpt><trkpt lat="50.026544" lon="5.565547"><ele>428.249</ele><time>2022-09-17T13:49:17Z</time></trkpt><trkpt lat="50.026556" lon="5.565678"><ele>428.794</ele><time>2022-09-17T13:49:18Z</time></trkpt><trkpt lat="50.026564" lon="5.565803"><ele>429.357</ele><time>2022-09-17T13:49:19Z</time></trkpt><trkpt lat="50.026574" lon="5.565942"><ele>429.922</ele><time>2022-09-17T13:49:20Z</time></trkpt><trkpt lat="50.026579" lon="5.566061"><ele>430.509</ele><time>2022-09-17T13:49:21Z</time></trkpt><trkpt lat="50.026576" lon="5.566158"><ele>431.270</ele><time>2022-09-17T13:49:22Z</time></trkpt><trkpt lat="50.026567" lon="5.566259"><ele>431.910</ele><time>2022-09-17T13:49:23Z</time></trkpt><trkpt lat="50.026534" lon="5.566345"><ele>432.512</ele><time>2022-09-17T13:49:24Z</time></trkpt><trkpt lat="50.026485" lon="5.566400"><ele>432.898</ele><time>2022-09-17T13:49:25Z</time></trkpt><trkpt lat="50.026442" lon="5.566483"><ele>433.593</ele><time>2022-09-17T13:49:26Z</time></trkpt><trkpt lat="50.026405" lon="5.566590"><ele>434.328</ele><time>2022-09-17T13:49:27Z</time></trkpt><trkpt lat="50.026381" lon="5.566664"><ele>434.623</ele><time>2022-09-17T13:49:28Z</time></trkpt><trkpt lat="50.026360" lon="5.566767"><ele>435.467</ele><time>2022-09-17T13:49:29Z</time></trkpt><trkpt lat="50.026333" lon="5.566896"><ele>436.094</ele><time>2022-09-17T13:49:30Z</time></trkpt><trkpt lat="50.026295" lon="5.567037"><ele>436.645</ele><time>2022-09-17T13:49:31Z</time></trkpt><trkpt lat="50.026281" lon="5.567149"><ele>437.247</ele><time>2022-09-17T13:49:32Z</time></trkpt><trkpt lat="50.026279" lon="5.567264"><ele>437.711</ele><time>2022-09-17T13:49:33Z</time></trkpt><trkpt lat="50.026289" lon="5.567387"><ele>438.109</ele><time>2022-09-17T13:49:34Z</time></trkpt><trkpt lat="50.026302" lon="5.567512"><ele>438.585</ele><time>2022-09-17T13:49:35Z</time></trkpt><trkpt lat="50.026325" lon="5.567638"><ele>438.865</ele><time>2022-09-17T13:49:36Z</time></trkpt><trkpt lat="50.026314" lon="5.567793"><ele>439.057</ele><time>2022-09-17T13:49:37Z</time></trkpt><trkpt lat="50.026288" lon="5.567934"><ele>439.263</ele><time>2022-09-17T13:49:38Z</time></trkpt><trkpt lat="50.026254" lon="5.568065"><ele>439.268</ele><time>2022-09-17T13:49:39Z</time></trkpt><trkpt lat="50.026218" lon="5.568224"><ele>438.943</ele><time>2022-09-17T13:49:40Z</time></trkpt><trkpt lat="50.026181" lon="5.568353"><ele>438.758</ele><time>2022-09-17T13:49:41Z</time></trkpt><trkpt lat="50.026150" lon="5.568493"><ele>438.382</ele><time>2022-09-17T13:49:42Z</time></trkpt><trkpt lat="50.026114" lon="5.568616"><ele>438.159</ele><time>2022-09-17T13:49:43Z</time></trkpt><trkpt lat="50.026104" lon="5.568745"><ele>438.295</ele><time>2022-09-17T13:49:44Z</time></trkpt><trkpt lat="50.026105" lon="5.568835"><ele>438.249</ele><time>2022-09-17T13:49:45Z</time></trkpt><trkpt lat="50.026119" lon="5.568926"><ele>438.423</ele><time>2022-09-17T13:49:46Z</time></trkpt><trkpt lat="50.026126" lon="5.569004"><ele>438.509</ele><time>2022-09-17T13:49:47Z</time></trkpt><trkpt lat="50.026124" lon="5.569080"><ele>438.840</ele><time>2022-09-17T13:49:48Z</time></trkpt><trkpt lat="50.026118" lon="5.569163"><ele>439.040</ele><time>2022-09-17T13:49:49Z</time></trkpt><trkpt lat="50.026111" lon="5.569253"><ele>439.282</ele><time>2022-09-17T13:49:50Z</time></trkpt><trkpt lat="50.026107" lon="5.569359"><ele>439.268</ele><time>2022-09-17T13:49:51Z</time></trkpt><trkpt lat="50.026086" lon="5.569475"><ele>439.343</ele><time>2022-09-17T13:49:52Z</time></trkpt><trkpt lat="50.026053" lon="5.569600"><ele>439.468</ele><time>2022-09-17T13:49:53Z</time></trkpt><trkpt lat="50.026020" lon="5.569723"><ele>439.593</ele><time>2022-09-17T13:49:54Z</time></trkpt><trkpt lat="50.025956" lon="5.569866"><ele>439.747</ele><time>2022-09-17T13:49:55Z</time></trkpt><trkpt lat="50.025885" lon="5.570040"><ele>439.834</ele><time>2022-09-17T13:49:56Z</time></trkpt><trkpt lat="50.025819" lon="5.570219"><ele>440.052</ele><time>2022-09-17T13:49:57Z</time></trkpt><trkpt lat="50.025746" lon="5.570371"><ele>440.053</ele><time>2022-09-17T13:49:58Z</time></trkpt><trkpt lat="50.025679" lon="5.570529"><ele>440.008</ele><time>2022-09-17T13:49:59Z</time></trkpt><trkpt lat="50.025598" lon="5.570667"><ele>440.009</ele><time>2022-09-17T13:50:00Z</time></trkpt><trkpt lat="50.025524" lon="5.570750"><ele>440.596</ele><time>2022-09-17T13:50:01Z</time></trkpt><trkpt lat="50.025440" lon="5.570870"><ele>441.176</ele><time>2022-09-17T13:50:02Z</time></trkpt><trkpt lat="50.025353" lon="5.571013"><ele>442.258</ele><time>2022-09-17T13:50:03Z</time></trkpt><trkpt lat="50.025289" lon="5.571210"><ele>443.364</ele><time>2022-09-17T13:50:04Z</time></trkpt><trkpt lat="50.025231" lon="5.571410"><ele>444.769</ele><time>2022-09-17T13:50:05Z</time></trkpt><trkpt lat="50.025179" lon="5.571576"><ele>445.044</ele><time>2022-09-17T13:50:06Z</time></trkpt><trkpt lat="50.025136" lon="5.571731"><ele>445.749</ele><time>2022-09-17T13:50:07Z</time></trkpt><trkpt lat="50.025095" lon="5.571889"><ele>446.263</ele><time>2022-09-17T13:50:08Z</time></trkpt><trkpt lat="50.025056" lon="5.572041"><ele>447.040</ele><time>2022-09-17T13:50:09Z</time></trkpt><trkpt lat="50.025025" lon="5.572173"><ele>447.796</ele><time>2022-09-17T13:50:10Z</time></trkpt><trkpt lat="50.025001" lon="5.572314"><ele>448.731</ele><time>2022-09-17T13:50:11Z</time></trkpt><trkpt lat="50.024991" lon="5.572462"><ele>449.524</ele><time>2022-09-17T13:50:12Z</time></trkpt><trkpt lat="50.024989" lon="5.572608"><ele>450.309</ele><time>2022-09-17T13:50:13Z</time></trkpt><trkpt lat="50.024996" lon="5.572761"><ele>450.620</ele><time>2022-09-17T13:50:14Z</time></trkpt><trkpt lat="50.025014" lon="5.572908"><ele>451.190</ele><time>2022-09-17T13:50:15Z</time></trkpt><trkpt lat="50.025028" lon="5.573055"><ele>451.572</ele><time>2022-09-17T13:50:16Z</time></trkpt><trkpt lat="50.025035" lon="5.573197"><ele>451.868</ele><time>2022-09-17T13:50:17Z</time></trkpt><trkpt lat="50.025033" lon="5.573322"><ele>452.033</ele><time>2022-09-17T13:50:18Z</time></trkpt><trkpt lat="50.025028" lon="5.573408"><ele>452.418</ele><time>2022-09-17T13:50:19Z</time></trkpt><trkpt lat="50.024990" lon="5.573466"><ele>452.913</ele><time>2022-09-17T13:50:20Z</time></trkpt><trkpt lat="50.024941" lon="5.573476"><ele>453.117</ele><time>2022-09-17T13:50:21Z</time></trkpt><trkpt lat="50.024885" lon="5.573474"><ele>453.534</ele><time>2022-09-17T13:50:22Z</time></trkpt><trkpt lat="50.024830" lon="5.573471"><ele>453.785</ele><time>2022-09-17T13:50:23Z</time></trkpt><trkpt lat="50.024734" lon="5.573481"><ele>454.389</ele><time>2022-09-17T13:50:25Z</time></trkpt><trkpt lat="50.024642" lon="5.573496"><ele>454.417</ele><time>2022-09-17T13:50:27Z</time></trkpt><trkpt lat="50.024586" lon="5.573504"><ele>454.309</ele><time>2022-09-17T13:50:28Z</time></trkpt><trkpt lat="50.024530" lon="5.573503"><ele>453.919</ele><time>2022-09-17T13:50:29Z</time></trkpt><trkpt lat="50.024469" lon="5.573503"><ele>453.719</ele><time>2022-09-17T13:50:30Z</time></trkpt><trkpt lat="50.024402" lon="5.573510"><ele>453.361</ele><time>2022-09-17T13:50:31Z</time></trkpt><trkpt lat="50.024336" lon="5.573515"><ele>453.087</ele><time>2022-09-17T13:50:32Z</time></trkpt><trkpt lat="50.024262" lon="5.573514"><ele>452.612</ele><time>2022-09-17T13:50:33Z</time></trkpt><trkpt lat="50.024188" lon="5.573506"><ele>452.047</ele><time>2022-09-17T13:50:34Z</time></trkpt><trkpt lat="50.024108" lon="5.573510"><ele>451.562</ele><time>2022-09-17T13:50:35Z</time></trkpt><trkpt lat="50.024033" lon="5.573512"><ele>451.076</ele><time>2022-09-17T13:50:36Z</time></trkpt><trkpt lat="50.023956" lon="5.573526"><ele>450.523</ele><time>2022-09-17T13:50:37Z</time></trkpt><trkpt lat="50.023882" lon="5.573525"><ele>450.068</ele><time>2022-09-17T13:50:38Z</time></trkpt><trkpt lat="50.023801" lon="5.573532"><ele>449.542</ele><time>2022-09-17T13:50:39Z</time></trkpt><trkpt lat="50.023729" lon="5.573560"><ele>449.026</ele><time>2022-09-17T13:50:40Z</time></trkpt><trkpt lat="50.023651" lon="5.573584"><ele>448.509</ele><time>2022-09-17T13:50:41Z</time></trkpt><trkpt lat="50.023571" lon="5.573609"><ele>447.967</ele><time>2022-09-17T13:50:42Z</time></trkpt><trkpt lat="50.023501" lon="5.573650"><ele>447.297</ele><time>2022-09-17T13:50:43Z</time></trkpt><trkpt lat="50.023436" lon="5.573695"><ele>446.599</ele><time>2022-09-17T13:50:44Z</time></trkpt><trkpt lat="50.023362" lon="5.573730"><ele>445.715</ele><time>2022-09-17T13:50:45Z</time></trkpt><trkpt lat="50.023280" lon="5.573762"><ele>444.830</ele><time>2022-09-17T13:50:46Z</time></trkpt><trkpt lat="50.023186" lon="5.573795"><ele>443.855</ele><time>2022-09-17T13:50:47Z</time></trkpt><trkpt lat="50.023088" lon="5.573828"><ele>442.130</ele><time>2022-09-17T13:50:48Z</time></trkpt><trkpt lat="50.022997" lon="5.573868"><ele>440.964</ele><time>2022-09-17T13:50:49Z</time></trkpt><trkpt lat="50.022905" lon="5.573901"><ele>439.751</ele><time>2022-09-17T13:50:50Z</time></trkpt><trkpt lat="50.022816" lon="5.573938"><ele>438.463</ele><time>2022-09-17T13:50:51Z</time></trkpt><trkpt lat="50.022737" lon="5.573974"><ele>437.844</ele><time>2022-09-17T13:50:52Z</time></trkpt><trkpt lat="50.022676" lon="5.574025"><ele>436.618</ele><time>2022-09-17T13:50:53Z</time></trkpt><trkpt lat="50.022604" lon="5.574062"><ele>435.609</ele><time>2022-09-17T13:50:54Z</time></trkpt><trkpt lat="50.022518" lon="5.574083"><ele>434.747</ele><time>2022-09-17T13:50:55Z</time></trkpt><trkpt lat="50.022437" lon="5.574105"><ele>433.927</ele><time>2022-09-17T13:50:56Z</time></trkpt><trkpt lat="50.022352" lon="5.574138"><ele>433.279</ele><time>2022-09-17T13:50:57Z</time></trkpt><trkpt lat="50.022277" lon="5.574175"><ele>432.475</ele><time>2022-09-17T13:50:58Z</time></trkpt><trkpt lat="50.022201" lon="5.574210"><ele>431.590</ele><time>2022-09-17T13:50:59Z</time></trkpt><trkpt lat="50.022119" lon="5.574242"><ele>430.525</ele><time>2022-09-17T13:51:00Z</time></trkpt><trkpt lat="50.022041" lon="5.574288"><ele>429.530</ele><time>2022-09-17T13:51:01Z</time></trkpt><trkpt lat="50.021950" lon="5.574332"><ele>428.624</ele><time>2022-09-17T13:51:02Z</time></trkpt><trkpt lat="50.021864" lon="5.574381"><ele>427.341</ele><time>2022-09-17T13:51:03Z</time></trkpt><trkpt lat="50.021775" lon="5.574429"><ele>426.438</ele><time>2022-09-17T13:51:04Z</time></trkpt><trkpt lat="50.021677" lon="5.574469"><ele>425.570</ele><time>2022-09-17T13:51:05Z</time></trkpt><trkpt lat="50.021581" lon="5.574504"><ele>424.817</ele><time>2022-09-17T13:51:06Z</time></trkpt><trkpt lat="50.021484" lon="5.574546"><ele>424.209</ele><time>2022-09-17T13:51:07Z</time></trkpt><trkpt lat="50.021393" lon="5.574600"><ele>423.774</ele><time>2022-09-17T13:51:08Z</time></trkpt><trkpt lat="50.021298" lon="5.574661"><ele>423.474</ele><time>2022-09-17T13:51:09Z</time></trkpt><trkpt lat="50.021201" lon="5.574739"><ele>423.296</ele><time>2022-09-17T13:51:10Z</time></trkpt><trkpt lat="50.021101" lon="5.574849"><ele>423.192</ele><time>2022-09-17T13:51:11Z</time></trkpt><trkpt lat="50.020997" lon="5.574955"><ele>422.927</ele><time>2022-09-17T13:51:12Z</time></trkpt><trkpt lat="50.020887" lon="5.575079"><ele>422.682</ele><time>2022-09-17T13:51:13Z</time></trkpt><trkpt lat="50.020776" lon="5.575187"><ele>422.217</ele><time>2022-09-17T13:51:14Z</time></trkpt><trkpt lat="50.020670" lon="5.575263"><ele>422.291</ele><time>2022-09-17T13:51:15Z</time></trkpt><trkpt lat="50.020562" lon="5.575361"><ele>422.298</ele><time>2022-09-17T13:51:16Z</time></trkpt><trkpt lat="50.020440" lon="5.575420"><ele>422.236</ele><time>2022-09-17T13:51:17Z</time></trkpt><trkpt lat="50.020342" lon="5.575490"><ele>422.217</ele><time>2022-09-17T13:51:18Z</time></trkpt><trkpt lat="50.020239" lon="5.575516"><ele>422.718</ele><time>2022-09-17T13:51:19Z</time></trkpt><trkpt lat="50.020140" lon="5.575501"><ele>423.709</ele><time>2022-09-17T13:51:20Z</time></trkpt><trkpt lat="50.019995" lon="5.575458"><ele>424.624</ele><time>2022-09-17T13:51:21Z</time></trkpt><trkpt lat="50.019877" lon="5.575424"><ele>425.884</ele><time>2022-09-17T13:51:22Z</time></trkpt><trkpt lat="50.019748" lon="5.575402"><ele>426.956</ele><time>2022-09-17T13:51:23Z</time></trkpt><trkpt lat="50.019626" lon="5.575372"><ele>427.842</ele><time>2022-09-17T13:51:24Z</time></trkpt><trkpt lat="50.019514" lon="5.575394"><ele>428.767</ele><time>2022-09-17T13:51:25Z</time></trkpt><trkpt lat="50.019419" lon="5.575467"><ele>429.742</ele><time>2022-09-17T13:51:26Z</time></trkpt><trkpt lat="50.019331" lon="5.575561"><ele>430.957</ele><time>2022-09-17T13:51:27Z</time></trkpt><trkpt lat="50.019239" lon="5.575687"><ele>432.231</ele><time>2022-09-17T13:51:28Z</time></trkpt><trkpt lat="50.019145" lon="5.575813"><ele>433.548</ele><time>2022-09-17T13:51:29Z</time></trkpt><trkpt lat="50.019066" lon="5.575919"><ele>434.791</ele><time>2022-09-17T13:51:30Z</time></trkpt><trkpt lat="50.018987" lon="5.576031"><ele>435.781</ele><time>2022-09-17T13:51:31Z</time></trkpt><trkpt lat="50.018913" lon="5.576165"><ele>436.419</ele><time>2022-09-17T13:51:32Z</time></trkpt><trkpt lat="50.018841" lon="5.576313"><ele>437.209</ele><time>2022-09-17T13:51:33Z</time></trkpt><trkpt lat="50.018786" lon="5.576453"><ele>437.950</ele><time>2022-09-17T13:51:34Z</time></trkpt><trkpt lat="50.018732" lon="5.576594"><ele>438.760</ele><time>2022-09-17T13:51:35Z</time></trkpt><trkpt lat="50.018687" lon="5.576731"><ele>439.482</ele><time>2022-09-17T13:51:36Z</time></trkpt><trkpt lat="50.018650" lon="5.576885"><ele>440.378</ele><time>2022-09-17T13:51:37Z</time></trkpt><trkpt lat="50.018613" lon="5.577037"><ele>441.043</ele><time>2022-09-17T13:51:38Z</time></trkpt><trkpt lat="50.018565" lon="5.577188"><ele>441.858</ele><time>2022-09-17T13:51:39Z</time></trkpt><trkpt lat="50.018502" lon="5.577331"><ele>442.483</ele><time>2022-09-17T13:51:40Z</time></trkpt><trkpt lat="50.018422" lon="5.577467"><ele>443.227</ele><time>2022-09-17T13:51:41Z</time></trkpt><trkpt lat="50.018346" lon="5.577610"><ele>443.854</ele><time>2022-09-17T13:51:42Z</time></trkpt><trkpt lat="50.018275" lon="5.577745"><ele>444.478</ele><time>2022-09-17T13:51:43Z</time></trkpt><trkpt lat="50.018223" lon="5.577852"><ele>444.933</ele><time>2022-09-17T13:51:44Z</time></trkpt><trkpt lat="50.018183" lon="5.577957"><ele>445.326</ele><time>2022-09-17T13:51:45Z</time></trkpt><trkpt lat="50.018155" lon="5.578068"><ele>445.509</ele><time>2022-09-17T13:51:46Z</time></trkpt><trkpt lat="50.018137" lon="5.578174"><ele>445.928</ele><time>2022-09-17T13:51:47Z</time></trkpt><trkpt lat="50.018138" lon="5.578269"><ele>446.338</ele><time>2022-09-17T13:51:48Z</time></trkpt><trkpt lat="50.018168" lon="5.578360"><ele>446.720</ele><time>2022-09-17T13:51:49Z</time></trkpt><trkpt lat="50.018227" lon="5.578477"><ele>447.196</ele><time>2022-09-17T13:51:50Z</time></trkpt><trkpt lat="50.018312" lon="5.578637"><ele>447.531</ele><time>2022-09-17T13:51:51Z</time></trkpt><trkpt lat="50.018409" lon="5.578818"><ele>447.426</ele><time>2022-09-17T13:51:52Z</time></trkpt><trkpt lat="50.018480" lon="5.578993"><ele>447.211</ele><time>2022-09-17T13:51:53Z</time></trkpt><trkpt lat="50.018553" lon="5.579160"><ele>447.145</ele><time>2022-09-17T13:51:54Z</time></trkpt><trkpt lat="50.018634" lon="5.579320"><ele>446.762</ele><time>2022-09-17T13:51:55Z</time></trkpt><trkpt lat="50.018729" lon="5.579468"><ele>446.746</ele><time>2022-09-17T13:51:56Z</time></trkpt><trkpt lat="50.018814" lon="5.579597"><ele>446.788</ele><time>2022-09-17T13:51:57Z</time></trkpt><trkpt lat="50.018906" lon="5.579726"><ele>447.116</ele><time>2022-09-17T13:51:58Z</time></trkpt><trkpt lat="50.018988" lon="5.579850"><ele>447.509</ele><time>2022-09-17T13:51:59Z</time></trkpt><trkpt lat="50.019086" lon="5.579981"><ele>448.085</ele><time>2022-09-17T13:52:00Z</time></trkpt><trkpt lat="50.019173" lon="5.580109"><ele>448.215</ele><time>2022-09-17T13:52:01Z</time></trkpt><trkpt lat="50.019253" lon="5.580253"><ele>448.297</ele><time>2022-09-17T13:52:02Z</time></trkpt><trkpt lat="50.019318" lon="5.580401"><ele>448.253</ele><time>2022-09-17T13:52:03Z</time></trkpt><trkpt lat="50.019361" lon="5.580556"><ele>448.378</ele><time>2022-09-17T13:52:04Z</time></trkpt><trkpt lat="50.019401" lon="5.580716"><ele>448.383</ele><time>2022-09-17T13:52:05Z</time></trkpt><trkpt lat="50.019436" lon="5.580885"><ele>448.698</ele><time>2022-09-17T13:52:06Z</time></trkpt><trkpt lat="50.019464" lon="5.581057"><ele>449.252</ele><time>2022-09-17T13:52:07Z</time></trkpt><trkpt lat="50.019489" lon="5.581226"><ele>449.799</ele><time>2022-09-17T13:52:08Z</time></trkpt><trkpt lat="50.019506" lon="5.581400"><ele>450.413</ele><time>2022-09-17T13:52:09Z</time></trkpt><trkpt lat="50.019524" lon="5.581564"><ele>451.443</ele><time>2022-09-17T13:52:10Z</time></trkpt><trkpt lat="50.019538" lon="5.581719"><ele>452.107</ele><time>2022-09-17T13:52:11Z</time></trkpt><trkpt lat="50.019566" lon="5.581876"><ele>453.009</ele><time>2022-09-17T13:52:12Z</time></trkpt><trkpt lat="50.019613" lon="5.582034"><ele>453.952</ele><time>2022-09-17T13:52:13Z</time></trkpt><trkpt lat="50.019686" lon="5.582176"><ele>454.872</ele><time>2022-09-17T13:52:14Z</time></trkpt><trkpt lat="50.019770" lon="5.582299"><ele>455.794</ele><time>2022-09-17T13:52:15Z</time></trkpt><trkpt lat="50.019856" lon="5.582409"><ele>456.720</ele><time>2022-09-17T13:52:16Z</time></trkpt><trkpt lat="50.019953" lon="5.582511"><ele>457.675</ele><time>2022-09-17T13:52:17Z</time></trkpt><trkpt lat="50.020047" lon="5.582621"><ele>458.310</ele><time>2022-09-17T13:52:18Z</time></trkpt><trkpt lat="50.020136" lon="5.582731"><ele>459.185</ele><time>2022-09-17T13:52:19Z</time></trkpt><trkpt lat="50.020230" lon="5.582852"><ele>460.039</ele><time>2022-09-17T13:52:20Z</time></trkpt><trkpt lat="50.020307" lon="5.582977"><ele>460.976</ele><time>2022-09-17T13:52:21Z</time></trkpt><trkpt lat="50.020381" lon="5.583095"><ele>461.826</ele><time>2022-09-17T13:52:22Z</time></trkpt><trkpt lat="50.020449" lon="5.583192"><ele>462.447</ele><time>2022-09-17T13:52:23Z</time></trkpt><trkpt lat="50.020508" lon="5.583280"><ele>463.211</ele><time>2022-09-17T13:52:24Z</time></trkpt><trkpt lat="50.020554" lon="5.583348"><ele>463.509</ele><time>2022-09-17T13:52:25Z</time></trkpt><trkpt lat="50.020577" lon="5.583445"><ele>464.163</ele><time>2022-09-17T13:52:27Z</time></trkpt><trkpt lat="50.020561" lon="5.583511"><ele>464.413</ele><time>2022-09-17T13:52:28Z</time></trkpt><trkpt lat="50.020515" lon="5.583558"><ele>465.745</ele><time>2022-09-17T13:52:29Z</time></trkpt><trkpt lat="50.020408" lon="5.583613"><ele>466.681</ele><time>2022-09-17T13:52:30Z</time></trkpt><trkpt lat="50.020271" lon="5.583666"><ele>467.226</ele><time>2022-09-17T13:52:31Z</time></trkpt><trkpt lat="50.020161" lon="5.583763"><ele>467.771</ele><time>2022-09-17T13:52:32Z</time></trkpt><trkpt lat="50.020010" lon="5.583889"><ele>468.526</ele><time>2022-09-17T13:52:33Z</time></trkpt><trkpt lat="50.019868" lon="5.584015"><ele>469.180</ele><time>2022-09-17T13:52:34Z</time></trkpt><trkpt lat="50.019737" lon="5.584132"><ele>469.647</ele><time>2022-09-17T13:52:35Z</time></trkpt><trkpt lat="50.019610" lon="5.584230"><ele>469.747</ele><time>2022-09-17T13:52:36Z</time></trkpt><trkpt lat="50.019493" lon="5.584352"><ele>469.629</ele><time>2022-09-17T13:52:37Z</time></trkpt><trkpt lat="50.019377" lon="5.584469"><ele>469.421</ele><time>2022-09-17T13:52:38Z</time></trkpt><trkpt lat="50.019273" lon="5.584583"><ele>469.309</ele><time>2022-09-17T13:52:39Z</time></trkpt><trkpt lat="50.019176" lon="5.584713"><ele>468.825</ele><time>2022-09-17T13:52:40Z</time></trkpt><trkpt lat="50.019087" lon="5.584858"><ele>468.545</ele><time>2022-09-17T13:52:41Z</time></trkpt><trkpt lat="50.019011" lon="5.584994"><ele>468.467</ele><time>2022-09-17T13:52:42Z</time></trkpt><trkpt lat="50.018916" lon="5.585160"><ele>467.933</ele><time>2022-09-17T13:52:43Z</time></trkpt><trkpt lat="50.018851" lon="5.585305"><ele>467.338</ele><time>2022-09-17T13:52:44Z</time></trkpt><trkpt lat="50.018788" lon="5.585424"><ele>466.763</ele><time>2022-09-17T13:52:45Z</time></trkpt><trkpt lat="50.018742" lon="5.585528"><ele>465.878</ele><time>2022-09-17T13:52:46Z</time></trkpt><trkpt lat="50.018707" lon="5.585634"><ele>465.632</ele><time>2022-09-17T13:52:47Z</time></trkpt><trkpt lat="50.018654" lon="5.585723"><ele>465.219</ele><time>2022-09-17T13:52:48Z</time></trkpt><trkpt lat="50.018603" lon="5.585824"><ele>464.825</ele><time>2022-09-17T13:52:49Z</time></trkpt><trkpt lat="50.018517" lon="5.585917"><ele>464.326</ele><time>2022-09-17T13:52:50Z</time></trkpt><trkpt lat="50.018427" lon="5.586003"><ele>463.508</ele><time>2022-09-17T13:52:51Z</time></trkpt><trkpt lat="50.018328" lon="5.586090"><ele>462.709</ele><time>2022-09-17T13:52:52Z</time></trkpt><trkpt lat="50.018232" lon="5.586188"><ele>461.923</ele><time>2022-09-17T13:52:53Z</time></trkpt><trkpt lat="50.018147" lon="5.586273"><ele>461.083</ele><time>2022-09-17T13:52:54Z</time></trkpt><trkpt lat="50.018074" lon="5.586342"><ele>460.595</ele><time>2022-09-17T13:52:55Z</time></trkpt><trkpt lat="50.018016" lon="5.586416"><ele>460.221</ele><time>2022-09-17T13:52:56Z</time></trkpt><trkpt lat="50.017970" lon="5.586518"><ele>459.656</ele><time>2022-09-17T13:52:57Z</time></trkpt><trkpt lat="50.017950" lon="5.586643"><ele>458.961</ele><time>2022-09-17T13:52:58Z</time></trkpt><trkpt lat="50.017986" lon="5.586792"><ele>458.196</ele><time>2022-09-17T13:52:59Z</time></trkpt><trkpt lat="50.018039" lon="5.586945"><ele>457.020</ele><time>2022-09-17T13:53:00Z</time></trkpt><trkpt lat="50.018074" lon="5.587100"><ele>456.357</ele><time>2022-09-17T13:53:01Z</time></trkpt><trkpt lat="50.018118" lon="5.587294"><ele>456.154</ele><time>2022-09-17T13:53:02Z</time></trkpt><trkpt lat="50.018157" lon="5.587465"><ele>456.156</ele><time>2022-09-17T13:53:03Z</time></trkpt><trkpt lat="50.018206" lon="5.587681"><ele>456.211</ele><time>2022-09-17T13:53:04Z</time></trkpt><trkpt lat="50.018251" lon="5.587900"><ele>456.609</ele><time>2022-09-17T13:53:05Z</time></trkpt><trkpt lat="50.018287" lon="5.588076"><ele>456.896</ele><time>2022-09-17T13:53:06Z</time></trkpt><trkpt lat="50.018327" lon="5.588268"><ele>457.266</ele><time>2022-09-17T13:53:07Z</time></trkpt><trkpt lat="50.018371" lon="5.588474"><ele>457.428</ele><time>2022-09-17T13:53:08Z</time></trkpt><trkpt lat="50.018411" lon="5.588667"><ele>457.344</ele><time>2022-09-17T13:53:09Z</time></trkpt><trkpt lat="50.018451" lon="5.588858"><ele>457.239</ele><time>2022-09-17T13:53:10Z</time></trkpt><trkpt lat="50.018489" lon="5.589031"><ele>457.074</ele><time>2022-09-17T13:53:11Z</time></trkpt><trkpt lat="50.018525" lon="5.589186"><ele>456.679</ele><time>2022-09-17T13:53:12Z</time></trkpt><trkpt lat="50.018548" lon="5.589330"><ele>456.283</ele><time>2022-09-17T13:53:13Z</time></trkpt><trkpt lat="50.018565" lon="5.589450"><ele>455.710</ele><time>2022-09-17T13:53:14Z</time></trkpt><trkpt lat="50.018554" lon="5.589548"><ele>455.511</ele><time>2022-09-17T13:53:15Z</time></trkpt><trkpt lat="50.018527" lon="5.589628"><ele>455.021</ele><time>2022-09-17T13:53:16Z</time></trkpt><trkpt lat="50.018495" lon="5.589716"><ele>454.803</ele><time>2022-09-17T13:53:17Z</time></trkpt><trkpt lat="50.018412" lon="5.589746"><ele>454.009</ele><time>2022-09-17T13:53:18Z</time></trkpt><trkpt lat="50.018319" lon="5.589753"><ele>453.782</ele><time>2022-09-17T13:53:19Z</time></trkpt><trkpt lat="50.018217" lon="5.589724"><ele>453.442</ele><time>2022-09-17T13:53:20Z</time></trkpt><trkpt lat="50.018108" lon="5.589682"><ele>453.444</ele><time>2022-09-17T13:53:21Z</time></trkpt><trkpt lat="50.017993" lon="5.589648"><ele>453.450</ele><time>2022-09-17T13:53:22Z</time></trkpt><trkpt lat="50.017878" lon="5.589584"><ele>453.455</ele><time>2022-09-17T13:53:23Z</time></trkpt><trkpt lat="50.017746" lon="5.589522"><ele>453.580</ele><time>2022-09-17T13:53:24Z</time></trkpt><trkpt lat="50.017625" lon="5.589457"><ele>453.585</ele><time>2022-09-17T13:53:25Z</time></trkpt><trkpt lat="50.017516" lon="5.589401"><ele>453.169</ele><time>2022-09-17T13:53:26Z</time></trkpt><trkpt lat="50.017414" lon="5.589356"><ele>452.556</ele><time>2022-09-17T13:53:27Z</time></trkpt><trkpt lat="50.017324" lon="5.589317"><ele>451.698</ele><time>2022-09-17T13:53:28Z</time></trkpt><trkpt lat="50.017240" lon="5.589317"><ele>450.615</ele><time>2022-09-17T13:53:29Z</time></trkpt><trkpt lat="50.017131" lon="5.589325"><ele>449.626</ele><time>2022-09-17T13:53:30Z</time></trkpt><trkpt lat="50.017029" lon="5.589332"><ele>448.609</ele><time>2022-09-17T13:53:31Z</time></trkpt><trkpt lat="50.017048" lon="5.589476"><ele>448.180</ele><time>2022-09-17T13:53:32Z</time></trkpt><trkpt lat="50.016980" lon="5.589512"><ele>447.530</ele><time>2022-09-17T13:53:33Z</time></trkpt><trkpt lat="50.016908" lon="5.589546"><ele>446.282</ele><time>2022-09-17T13:53:34Z</time></trkpt><trkpt lat="50.016633" lon="5.588998"><ele>442.378</ele><time>2022-09-17T13:53:35Z</time></trkpt><trkpt lat="50.016534" lon="5.589009"><ele>441.593</ele><time>2022-09-17T13:53:36Z</time></trkpt><trkpt lat="50.016449" lon="5.589055"><ele>440.748</ele><time>2022-09-17T13:53:37Z</time></trkpt><trkpt lat="50.016374" lon="5.589102"><ele>439.453</ele><time>2022-09-17T13:53:38Z</time></trkpt><trkpt lat="50.016265" lon="5.589171"><ele>438.737</ele><time>2022-09-17T13:53:39Z</time></trkpt><trkpt lat="50.016149" lon="5.589222"><ele>437.784</ele><time>2022-09-17T13:53:40Z</time></trkpt><trkpt lat="50.016018" lon="5.589284"><ele>436.844</ele><time>2022-09-17T13:53:41Z</time></trkpt><trkpt lat="50.015886" lon="5.589359"><ele>435.005</ele><time>2022-09-17T13:53:42Z</time></trkpt><trkpt lat="50.015771" lon="5.589432"><ele>434.415</ele><time>2022-09-17T13:53:43Z</time></trkpt><trkpt lat="50.015654" lon="5.589489"><ele>433.109</ele><time>2022-09-17T13:53:44Z</time></trkpt><trkpt lat="50.015531" lon="5.589522"><ele>431.945</ele><time>2022-09-17T13:53:45Z</time></trkpt><trkpt lat="50.015411" lon="5.589559"><ele>430.935</ele><time>2022-09-17T13:53:46Z</time></trkpt><trkpt lat="50.015285" lon="5.589603"><ele>430.667</ele><time>2022-09-17T13:53:47Z</time></trkpt><trkpt lat="50.015173" lon="5.589667"><ele>430.653</ele><time>2022-09-17T13:53:48Z</time></trkpt><trkpt lat="50.015048" lon="5.589752"><ele>430.998</ele><time>2022-09-17T13:53:49Z</time></trkpt><trkpt lat="50.014935" lon="5.589832"><ele>431.533</ele><time>2022-09-17T13:53:50Z</time></trkpt><trkpt lat="50.014837" lon="5.589920"><ele>432.438</ele><time>2022-09-17T13:53:51Z</time></trkpt><trkpt lat="50.014738" lon="5.590009"><ele>432.982</ele><time>2022-09-17T13:53:52Z</time></trkpt><trkpt lat="50.014641" lon="5.590117"><ele>433.799</ele><time>2022-09-17T13:53:53Z</time></trkpt><trkpt lat="50.014550" lon="5.590235"><ele>434.622</ele><time>2022-09-17T13:53:54Z</time></trkpt><trkpt lat="50.014476" lon="5.590359"><ele>435.662</ele><time>2022-09-17T13:53:55Z</time></trkpt><trkpt lat="50.014416" lon="5.590435"><ele>436.608</ele><time>2022-09-17T13:53:56Z</time></trkpt><trkpt lat="50.014369" lon="5.590487"><ele>437.209</ele><time>2022-09-17T13:53:57Z</time></trkpt><trkpt lat="50.014329" lon="5.590564"><ele>438.413</ele><time>2022-09-17T13:53:58Z</time></trkpt><trkpt lat="50.014293" lon="5.590627"><ele>439.013</ele><time>2022-09-17T13:53:59Z</time></trkpt><trkpt lat="50.014249" lon="5.590706"><ele>440.055</ele><time>2022-09-17T13:54:01Z</time></trkpt><trkpt lat="50.014196" lon="5.590785"><ele>440.711</ele><time>2022-09-17T13:54:03Z</time></trkpt><trkpt lat="50.014150" lon="5.590845"><ele>442.326</ele><time>2022-09-17T13:54:04Z</time></trkpt><trkpt lat="50.014087" lon="5.590876"><ele>442.751</ele><time>2022-09-17T13:54:05Z</time></trkpt><trkpt lat="50.013970" lon="5.590893"><ele>443.046</ele><time>2022-09-17T13:54:06Z</time></trkpt><trkpt lat="50.013857" lon="5.590828"><ele>443.310</ele><time>2022-09-17T13:54:07Z</time></trkpt><trkpt lat="50.013754" lon="5.590849"><ele>443.567</ele><time>2022-09-17T13:54:08Z</time></trkpt><trkpt lat="50.013646" lon="5.590988"><ele>443.642</ele><time>2022-09-17T13:54:09Z</time></trkpt><trkpt lat="50.013543" lon="5.591089"><ele>443.722</ele><time>2022-09-17T13:54:10Z</time></trkpt><trkpt lat="50.013429" lon="5.591195"><ele>444.014</ele><time>2022-09-17T13:54:11Z</time></trkpt><trkpt lat="50.013318" lon="5.591313"><ele>444.509</ele><time>2022-09-17T13:54:12Z</time></trkpt><trkpt lat="50.013206" lon="5.591429"><ele>445.345</ele><time>2022-09-17T13:54:13Z</time></trkpt><trkpt lat="50.013087" lon="5.591547"><ele>446.795</ele><time>2022-09-17T13:54:14Z</time></trkpt><trkpt lat="50.012974" lon="5.591666"><ele>447.727</ele><time>2022-09-17T13:54:15Z</time></trkpt><trkpt lat="50.012864" lon="5.591772"><ele>448.113</ele><time>2022-09-17T13:54:16Z</time></trkpt><trkpt lat="50.012758" lon="5.591861"><ele>448.828</ele><time>2022-09-17T13:54:17Z</time></trkpt><trkpt lat="50.012641" lon="5.591946"><ele>449.063</ele><time>2022-09-17T13:54:18Z</time></trkpt><trkpt lat="50.012535" lon="5.592047"><ele>449.278</ele><time>2022-09-17T13:54:19Z</time></trkpt><trkpt lat="50.012416" lon="5.592144"><ele>449.362</ele><time>2022-09-17T13:54:20Z</time></trkpt><trkpt lat="50.012295" lon="5.592240"><ele>449.869</ele><time>2022-09-17T13:54:21Z</time></trkpt><trkpt lat="50.012157" lon="5.592296"><ele>450.648</ele><time>2022-09-17T13:54:22Z</time></trkpt><trkpt lat="50.012030" lon="5.592413"><ele>452.061</ele><time>2022-09-17T13:54:23Z</time></trkpt><trkpt lat="50.011902" lon="5.592531"><ele>453.617</ele><time>2022-09-17T13:54:24Z</time></trkpt><trkpt lat="50.011756" lon="5.592663"><ele>455.109</ele><time>2022-09-17T13:54:25Z</time></trkpt><trkpt lat="50.011592" lon="5.592810"><ele>456.745</ele><time>2022-09-17T13:54:26Z</time></trkpt><trkpt lat="50.011426" lon="5.592956"><ele>458.485</ele><time>2022-09-17T13:54:27Z</time></trkpt><trkpt lat="50.011266" lon="5.593098"><ele>460.257</ele><time>2022-09-17T13:54:28Z</time></trkpt><trkpt lat="50.011110" lon="5.593236"><ele>462.163</ele><time>2022-09-17T13:54:29Z</time></trkpt><trkpt lat="50.010976" lon="5.593355"><ele>464.188</ele><time>2022-09-17T13:54:30Z</time></trkpt><trkpt lat="50.010830" lon="5.593481"><ele>466.223</ele><time>2022-09-17T13:54:31Z</time></trkpt><trkpt lat="50.010690" lon="5.593601"><ele>467.928</ele><time>2022-09-17T13:54:32Z</time></trkpt><trkpt lat="50.010559" lon="5.593713"><ele>469.462</ele><time>2022-09-17T13:54:33Z</time></trkpt><trkpt lat="50.010433" lon="5.593821"><ele>471.049</ele><time>2022-09-17T13:54:34Z</time></trkpt><trkpt lat="50.010313" lon="5.593924"><ele>472.689</ele><time>2022-09-17T13:54:35Z</time></trkpt><trkpt lat="50.010204" lon="5.594018"><ele>473.406</ele><time>2022-09-17T13:54:36Z</time></trkpt><trkpt lat="50.010104" lon="5.594104"><ele>475.026</ele><time>2022-09-17T13:54:37Z</time></trkpt><trkpt lat="50.010019" lon="5.594187"><ele>476.609</ele><time>2022-09-17T13:54:38Z</time></trkpt><trkpt lat="50.009932" lon="5.594260"><ele>477.969</ele><time>2022-09-17T13:54:39Z</time></trkpt><trkpt lat="50.009856" lon="5.594331"><ele>478.839</ele><time>2022-09-17T13:54:40Z</time></trkpt><trkpt lat="50.009782" lon="5.594367"><ele>479.161</ele><time>2022-09-17T13:54:41Z</time></trkpt><trkpt lat="50.009735" lon="5.594405"><ele>479.667</ele><time>2022-09-17T13:54:42Z</time></trkpt><trkpt lat="50.009694" lon="5.594438"><ele>479.822</ele><time>2022-09-17T13:54:44Z</time></trkpt><trkpt lat="50.009653" lon="5.594497"><ele>480.097</ele><time>2022-09-17T13:54:53Z</time></trkpt><trkpt lat="50.009590" lon="5.594520"><ele>480.442</ele><time>2022-09-17T13:54:54Z</time></trkpt><trkpt lat="50.009493" lon="5.594586"><ele>480.646</ele><time>2022-09-17T13:54:55Z</time></trkpt><trkpt lat="50.009357" lon="5.594681"><ele>480.663</ele><time>2022-09-17T13:54:56Z</time></trkpt><trkpt lat="50.009228" lon="5.594767"><ele>480.391</ele><time>2022-09-17T13:54:57Z</time></trkpt><trkpt lat="50.009098" lon="5.594860"><ele>479.881</ele><time>2022-09-17T13:54:58Z</time></trkpt><trkpt lat="50.008981" lon="5.594936"><ele>478.919</ele><time>2022-09-17T13:54:59Z</time></trkpt><trkpt lat="50.008884" lon="5.594994"><ele>478.409</ele><time>2022-09-17T13:55:00Z</time></trkpt><trkpt lat="50.008795" lon="5.595047"><ele>477.740</ele><time>2022-09-17T13:55:01Z</time></trkpt><trkpt lat="50.008701" lon="5.595104"><ele>477.090</ele><time>2022-09-17T13:55:02Z</time></trkpt><trkpt lat="50.008597" lon="5.595155"><ele>476.222</ele><time>2022-09-17T13:55:03Z</time></trkpt><trkpt lat="50.008492" lon="5.595214"><ele>475.848</ele><time>2022-09-17T13:55:04Z</time></trkpt><trkpt lat="50.008380" lon="5.595280"><ele>475.613</ele><time>2022-09-17T13:55:05Z</time></trkpt><trkpt lat="50.008261" lon="5.595353"><ele>475.178</ele><time>2022-09-17T13:55:06Z</time></trkpt><trkpt lat="50.008141" lon="5.595422"><ele>474.543</ele><time>2022-09-17T13:55:07Z</time></trkpt><trkpt lat="50.008013" lon="5.595492"><ele>473.937</ele><time>2022-09-17T13:55:08Z</time></trkpt><trkpt lat="50.007875" lon="5.595553"><ele>473.734</ele><time>2022-09-17T13:55:09Z</time></trkpt><trkpt lat="50.007740" lon="5.595615"><ele>473.728</ele><time>2022-09-17T13:55:10Z</time></trkpt><trkpt lat="50.007617" lon="5.595715"><ele>473.789</ele><time>2022-09-17T13:55:11Z</time></trkpt><trkpt lat="50.007491" lon="5.595820"><ele>473.817</ele><time>2022-09-17T13:55:12Z</time></trkpt><trkpt lat="50.007361" lon="5.595931"><ele>473.909</ele><time>2022-09-17T13:55:13Z</time></trkpt><trkpt lat="50.007236" lon="5.596045"><ele>473.943</ele><time>2022-09-17T13:55:14Z</time></trkpt><trkpt lat="50.007109" lon="5.596151"><ele>474.013</ele><time>2022-09-17T13:55:15Z</time></trkpt><trkpt lat="50.006978" lon="5.596241"><ele>474.345</ele><time>2022-09-17T13:55:16Z</time></trkpt><trkpt lat="50.006848" lon="5.596310"><ele>474.931</ele><time>2022-09-17T13:55:17Z</time></trkpt><trkpt lat="50.006719" lon="5.596375"><ele>475.886</ele><time>2022-09-17T13:55:18Z</time></trkpt><trkpt lat="50.006585" lon="5.596424"><ele>476.891</ele><time>2022-09-17T13:55:19Z</time></trkpt><trkpt lat="50.006451" lon="5.596456"><ele>477.796</ele><time>2022-09-17T13:55:20Z</time></trkpt><trkpt lat="50.006322" lon="5.596470"><ele>478.250</ele><time>2022-09-17T13:55:21Z</time></trkpt><trkpt lat="50.006174" lon="5.596487"><ele>479.787</ele><time>2022-09-17T13:55:22Z</time></trkpt><trkpt lat="50.006026" lon="5.596491"><ele>480.537</ele><time>2022-09-17T13:55:23Z</time></trkpt><trkpt lat="50.005878" lon="5.596493"><ele>481.349</ele><time>2022-09-17T13:55:24Z</time></trkpt><trkpt lat="50.005720" lon="5.596486"><ele>482.113</ele><time>2022-09-17T13:55:25Z</time></trkpt><trkpt lat="50.005565" lon="5.596481"><ele>482.709</ele><time>2022-09-17T13:55:26Z</time></trkpt><trkpt lat="50.005421" lon="5.596474"><ele>483.234</ele><time>2022-09-17T13:55:27Z</time></trkpt><trkpt lat="50.005273" lon="5.596474"><ele>483.644</ele><time>2022-09-17T13:55:28Z</time></trkpt><trkpt lat="50.005120" lon="5.596483"><ele>483.846</ele><time>2022-09-17T13:55:29Z</time></trkpt><trkpt lat="50.004964" lon="5.596517"><ele>484.022</ele><time>2022-09-17T13:55:30Z</time></trkpt><trkpt lat="50.004820" lon="5.596567"><ele>484.117</ele><time>2022-09-17T13:55:31Z</time></trkpt><trkpt lat="50.004671" lon="5.596610"><ele>484.032</ele><time>2022-09-17T13:55:32Z</time></trkpt><trkpt lat="50.004532" lon="5.596660"><ele>483.797</ele><time>2022-09-17T13:55:33Z</time></trkpt><trkpt lat="50.004393" lon="5.596713"><ele>483.331</ele><time>2022-09-17T13:55:34Z</time></trkpt><trkpt lat="50.004242" lon="5.596749"><ele>482.848</ele><time>2022-09-17T13:55:35Z</time></trkpt><trkpt lat="50.004093" lon="5.596780"><ele>482.332</ele><time>2022-09-17T13:55:36Z</time></trkpt><trkpt lat="50.003940" lon="5.596795"><ele>481.992</ele><time>2022-09-17T13:55:37Z</time></trkpt><trkpt lat="50.003794" lon="5.596803"><ele>481.311</ele><time>2022-09-17T13:55:38Z</time></trkpt><trkpt lat="50.003648" lon="5.596812"><ele>480.509</ele><time>2022-09-17T13:55:39Z</time></trkpt><trkpt lat="50.003510" lon="5.596838"><ele>479.674</ele><time>2022-09-17T13:55:40Z</time></trkpt><trkpt lat="50.003392" lon="5.596876"><ele>479.124</ele><time>2022-09-17T13:55:41Z</time></trkpt><trkpt lat="50.003286" lon="5.596941"><ele>478.296</ele><time>2022-09-17T13:55:42Z</time></trkpt><trkpt lat="50.003182" lon="5.597028"><ele>477.562</ele><time>2022-09-17T13:55:43Z</time></trkpt><trkpt lat="50.003088" lon="5.597123"><ele>477.237</ele><time>2022-09-17T13:55:44Z</time></trkpt><trkpt lat="50.002990" lon="5.597223"><ele>477.122</ele><time>2022-09-17T13:55:45Z</time></trkpt><trkpt lat="50.002889" lon="5.597300"><ele>476.857</ele><time>2022-09-17T13:55:46Z</time></trkpt><trkpt lat="50.002772" lon="5.597347"><ele>476.311</ele><time>2022-09-17T13:55:47Z</time></trkpt><trkpt lat="50.002658" lon="5.597341"><ele>475.518</ele><time>2022-09-17T13:55:48Z</time></trkpt><trkpt lat="50.002530" lon="5.597302"><ele>474.977</ele><time>2022-09-17T13:55:49Z</time></trkpt><trkpt lat="50.002408" lon="5.597218"><ele>474.061</ele><time>2022-09-17T13:55:50Z</time></trkpt><trkpt lat="50.002282" lon="5.597129"><ele>473.227</ele><time>2022-09-17T13:55:51Z</time></trkpt><trkpt lat="50.002147" lon="5.597049"><ele>472.709</ele><time>2022-09-17T13:55:52Z</time></trkpt><trkpt lat="50.002001" lon="5.596996"><ele>472.698</ele><time>2022-09-17T13:55:53Z</time></trkpt><trkpt lat="50.001843" lon="5.596937"><ele>472.768</ele><time>2022-09-17T13:55:54Z</time></trkpt><trkpt lat="50.001693" lon="5.596888"><ele>473.250</ele><time>2022-09-17T13:55:55Z</time></trkpt><trkpt lat="50.001537" lon="5.596847"><ele>474.296</ele><time>2022-09-17T13:55:56Z</time></trkpt><trkpt lat="50.001377" lon="5.596805"><ele>475.431</ele><time>2022-09-17T13:55:57Z</time></trkpt><trkpt lat="50.001218" lon="5.596775"><ele>476.676</ele><time>2022-09-17T13:55:58Z</time></trkpt><trkpt lat="50.001057" lon="5.596743"><ele>477.511</ele><time>2022-09-17T13:55:59Z</time></trkpt><trkpt lat="50.000900" lon="5.596699"><ele>478.035</ele><time>2022-09-17T13:56:00Z</time></trkpt><trkpt lat="50.000743" lon="5.596650"><ele>478.242</ele><time>2022-09-17T13:56:01Z</time></trkpt><trkpt lat="50.000588" lon="5.596597"><ele>478.284</ele><time>2022-09-17T13:56:02Z</time></trkpt><trkpt lat="50.000427" lon="5.596562"><ele>477.807</ele><time>2022-09-17T13:56:03Z</time></trkpt><trkpt lat="50.000287" lon="5.596494"><ele>477.117</ele><time>2022-09-17T13:56:04Z</time></trkpt><trkpt lat="50.000152" lon="5.596428"><ele>476.409</ele><time>2022-09-17T13:56:05Z</time></trkpt><trkpt lat="50.000027" lon="5.596353"><ele>475.749</ele><time>2022-09-17T13:56:06Z</time></trkpt><trkpt lat="49.999902" lon="5.596313"><ele>475.459</ele><time>2022-09-17T13:56:07Z</time></trkpt><trkpt lat="49.999769" lon="5.596267"><ele>475.141</ele><time>2022-09-17T13:56:08Z</time></trkpt><trkpt lat="49.999635" lon="5.596215"><ele>475.087</ele><time>2022-09-17T13:56:09Z</time></trkpt><trkpt lat="49.999492" lon="5.596167"><ele>474.982</ele><time>2022-09-17T13:56:10Z</time></trkpt><trkpt lat="49.999351" lon="5.596109"><ele>474.867</ele><time>2022-09-17T13:56:11Z</time></trkpt><trkpt lat="49.999212" lon="5.596049"><ele>474.592</ele><time>2022-09-17T13:56:12Z</time></trkpt><trkpt lat="49.999079" lon="5.595983"><ele>474.086</ele><time>2022-09-17T13:56:13Z</time></trkpt><trkpt lat="49.998943" lon="5.595934"><ele>473.583</ele><time>2022-09-17T13:56:14Z</time></trkpt><trkpt lat="49.998806" lon="5.595885"><ele>473.119</ele><time>2022-09-17T13:56:15Z</time></trkpt><trkpt lat="49.998667" lon="5.595839"><ele>472.709</ele><time>2022-09-17T13:56:16Z</time></trkpt><trkpt lat="49.998535" lon="5.595785"><ele>472.319</ele><time>2022-09-17T13:56:17Z</time></trkpt><trkpt lat="49.998404" lon="5.595719"><ele>471.909</ele><time>2022-09-17T13:56:18Z</time></trkpt><trkpt lat="49.998279" lon="5.595656"><ele>471.782</ele><time>2022-09-17T13:56:19Z</time></trkpt><trkpt lat="49.998160" lon="5.595616"><ele>470.972</ele><time>2022-09-17T13:56:20Z</time></trkpt><trkpt lat="49.998041" lon="5.595579"><ele>470.184</ele><time>2022-09-17T13:56:21Z</time></trkpt><trkpt lat="49.997921" lon="5.595544"><ele>469.290</ele><time>2022-09-17T13:56:22Z</time></trkpt><trkpt lat="49.997804" lon="5.595496"><ele>468.295</ele><time>2022-09-17T13:56:23Z</time></trkpt><trkpt lat="49.997684" lon="5.595420"><ele>467.680</ele><time>2022-09-17T13:56:24Z</time></trkpt><trkpt lat="49.997570" lon="5.595320"><ele>467.555</ele><time>2022-09-17T13:56:25Z</time></trkpt><trkpt lat="49.997464" lon="5.595213"><ele>467.599</ele><time>2022-09-17T13:56:26Z</time></trkpt><trkpt lat="49.997367" lon="5.595083"><ele>467.676</ele><time>2022-09-17T13:56:27Z</time></trkpt><trkpt lat="49.997280" lon="5.594943"><ele>468.017</ele><time>2022-09-17T13:56:28Z</time></trkpt><trkpt lat="49.997202" lon="5.594779"><ele>468.187</ele><time>2022-09-17T13:56:29Z</time></trkpt><trkpt lat="49.997137" lon="5.594608"><ele>468.415</ele><time>2022-09-17T13:56:30Z</time></trkpt><trkpt lat="49.997068" lon="5.594426"><ele>468.409</ele><time>2022-09-17T13:56:31Z</time></trkpt><trkpt lat="49.996989" lon="5.594261"><ele>468.772</ele><time>2022-09-17T13:56:32Z</time></trkpt><trkpt lat="49.996918" lon="5.594108"><ele>469.382</ele><time>2022-09-17T13:56:33Z</time></trkpt><trkpt lat="49.996827" lon="5.593955"><ele>469.614</ele><time>2022-09-17T13:56:34Z</time></trkpt><trkpt lat="49.996742" lon="5.593767"><ele>470.480</ele><time>2022-09-17T13:56:35Z</time></trkpt><trkpt lat="49.996650" lon="5.593586"><ele>470.755</ele><time>2022-09-17T13:56:36Z</time></trkpt><trkpt lat="49.996556" lon="5.593402"><ele>471.160</ele><time>2022-09-17T13:56:37Z</time></trkpt><trkpt lat="49.996468" lon="5.593236"><ele>472.015</ele><time>2022-09-17T13:56:38Z</time></trkpt><trkpt lat="49.996386" lon="5.593063"><ele>473.059</ele><time>2022-09-17T13:56:39Z</time></trkpt><trkpt lat="49.996310" lon="5.592859"><ele>473.936</ele><time>2022-09-17T13:56:40Z</time></trkpt><trkpt lat="49.996232" lon="5.592668"><ele>475.172</ele><time>2022-09-17T13:56:41Z</time></trkpt><trkpt lat="49.996153" lon="5.592477"><ele>476.213</ele><time>2022-09-17T13:56:42Z</time></trkpt><trkpt lat="49.996066" lon="5.592278"><ele>476.814</ele><time>2022-09-17T13:56:43Z</time></trkpt><trkpt lat="49.995981" lon="5.592087"><ele>477.309</ele><time>2022-09-17T13:56:44Z</time></trkpt><trkpt lat="49.995904" lon="5.591850"><ele>477.978</ele><time>2022-09-17T13:56:45Z</time></trkpt><trkpt lat="49.995830" lon="5.591618"><ele>478.458</ele><time>2022-09-17T13:56:46Z</time></trkpt><trkpt lat="49.995767" lon="5.591411"><ele>478.630</ele><time>2022-09-17T13:56:47Z</time></trkpt><trkpt lat="49.995704" lon="5.591203"><ele>478.616</ele><time>2022-09-17T13:56:48Z</time></trkpt><trkpt lat="49.995658" lon="5.590973"><ele>478.641</ele><time>2022-09-17T13:56:49Z</time></trkpt><trkpt lat="49.995612" lon="5.590750"><ele>478.656</ele><time>2022-09-17T13:56:50Z</time></trkpt><trkpt lat="49.995565" lon="5.590549"><ele>478.641</ele><time>2022-09-17T13:56:51Z</time></trkpt><trkpt lat="49.995525" lon="5.590325"><ele>478.635</ele><time>2022-09-17T13:56:52Z</time></trkpt><trkpt lat="49.995477" lon="5.590117"><ele>478.632</ele><time>2022-09-17T13:56:53Z</time></trkpt><trkpt lat="49.995433" lon="5.589878"><ele>478.257</ele><time>2022-09-17T13:56:54Z</time></trkpt><trkpt lat="49.995390" lon="5.589636"><ele>477.300</ele><time>2022-09-17T13:56:55Z</time></trkpt><trkpt lat="49.995347" lon="5.589408"><ele>476.020</ele><time>2022-09-17T13:56:56Z</time></trkpt><trkpt lat="49.995299" lon="5.589195"><ele>474.209</ele><time>2022-09-17T13:56:57Z</time></trkpt><trkpt lat="49.995243" lon="5.589005"><ele>472.366</ele><time>2022-09-17T13:56:58Z</time></trkpt><trkpt lat="49.995184" lon="5.588825"><ele>471.386</ele><time>2022-09-17T13:56:59Z</time></trkpt><trkpt lat="49.995125" lon="5.588675"><ele>470.248</ele><time>2022-09-17T13:57:00Z</time></trkpt><trkpt lat="49.995066" lon="5.588523"><ele>468.694</ele><time>2022-09-17T13:57:01Z</time></trkpt><trkpt lat="49.995010" lon="5.588353"><ele>467.999</ele><time>2022-09-17T13:57:02Z</time></trkpt><trkpt lat="49.994964" lon="5.588229"><ele>467.964</ele><time>2022-09-17T13:57:03Z</time></trkpt><trkpt lat="49.994939" lon="5.588136"><ele>468.019</ele><time>2022-09-17T13:57:04Z</time></trkpt><trkpt lat="49.994951" lon="5.588043"><ele>468.223</ele><time>2022-09-17T13:57:05Z</time></trkpt><trkpt lat="49.994982" lon="5.587921"><ele>468.740</ele><time>2022-09-17T13:57:06Z</time></trkpt><trkpt lat="49.995064" lon="5.587786"><ele>469.275</ele><time>2022-09-17T13:57:07Z</time></trkpt><trkpt lat="49.995134" lon="5.587638"><ele>469.428</ele><time>2022-09-17T13:57:08Z</time></trkpt><trkpt lat="49.995201" lon="5.587506"><ele>469.220</ele><time>2022-09-17T13:57:09Z</time></trkpt><trkpt lat="49.995268" lon="5.587344"><ele>468.909</ele><time>2022-09-17T13:57:10Z</time></trkpt><trkpt lat="49.995342" lon="5.587221"><ele>468.718</ele><time>2022-09-17T13:57:11Z</time></trkpt><trkpt lat="49.995420" lon="5.587088"><ele>468.478</ele><time>2022-09-17T13:57:12Z</time></trkpt><trkpt lat="49.995496" lon="5.586965"><ele>468.080</ele><time>2022-09-17T13:57:13Z</time></trkpt><trkpt lat="49.995593" lon="5.586859"><ele>467.736</ele><time>2022-09-17T13:57:14Z</time></trkpt><trkpt lat="49.995681" lon="5.586727"><ele>467.441</ele><time>2022-09-17T13:57:15Z</time></trkpt><trkpt lat="49.995776" lon="5.586587"><ele>466.976</ele><time>2022-09-17T13:57:16Z</time></trkpt><trkpt lat="49.995880" lon="5.586433"><ele>466.621</ele><time>2022-09-17T13:57:17Z</time></trkpt><trkpt lat="49.995944" lon="5.586207"><ele>466.495</ele><time>2022-09-17T13:57:18Z</time></trkpt><trkpt lat="49.995985" lon="5.585973"><ele>466.372</ele><time>2022-09-17T13:57:19Z</time></trkpt><trkpt lat="49.996033" lon="5.585786"><ele>466.315</ele><time>2022-09-17T13:57:20Z</time></trkpt><trkpt lat="49.996092" lon="5.585607"><ele>466.365</ele><time>2022-09-17T13:57:21Z</time></trkpt><trkpt lat="49.996142" lon="5.585447"><ele>466.211</ele><time>2022-09-17T13:57:22Z</time></trkpt><trkpt lat="49.996230" lon="5.585326"><ele>466.209</ele><time>2022-09-17T13:57:23Z</time></trkpt><trkpt lat="49.996248" lon="5.585197"><ele>465.992</ele><time>2022-09-17T13:57:24Z</time></trkpt><trkpt lat="49.996261" lon="5.585103"><ele>465.592</ele><time>2022-09-17T13:57:25Z</time></trkpt><trkpt lat="49.996168" lon="5.584937"><ele>464.364</ele><time>2022-09-17T13:57:26Z</time></trkpt><trkpt lat="49.996132" lon="5.584862"><ele>464.080</ele><time>2022-09-17T13:57:28Z</time></trkpt><trkpt lat="49.996092" lon="5.584895"><ele>463.285</ele><time>2022-09-17T13:59:45Z</time></trkpt><trkpt lat="49.996039" lon="5.584830"><ele>462.730</ele><time>2022-09-17T13:59:51Z</time></trkpt><trkpt lat="49.995978" lon="5.584726"><ele>462.745</ele><time>2022-09-17T13:59:53Z</time></trkpt><trkpt lat="49.995954" lon="5.584634"><ele>462.779</ele><time>2022-09-17T13:59:54Z</time></trkpt><trkpt lat="49.995913" lon="5.584535"><ele>462.726</ele><time>2022-09-17T13:59:55Z</time></trkpt><trkpt lat="49.995862" lon="5.584433"><ele>462.726</ele><time>2022-09-17T13:59:56Z</time></trkpt><trkpt lat="49.995868" lon="5.584304"><ele>462.747</ele><time>2022-09-17T13:59:57Z</time></trkpt><trkpt lat="49.995831" lon="5.584205"><ele>462.711</ele><time>2022-09-17T13:59:58Z</time></trkpt><trkpt lat="49.995783" lon="5.584076"><ele>462.609</ele><time>2022-09-17T13:59:59Z</time></trkpt><trkpt lat="49.995743" lon="5.583969"><ele>462.523</ele><time>2022-09-17T14:00:00Z</time></trkpt><trkpt lat="49.995694" lon="5.583839"><ele>462.383</ele><time>2022-09-17T14:00:01Z</time></trkpt><trkpt lat="49.995664" lon="5.583732"><ele>462.275</ele><time>2022-09-17T14:00:02Z</time></trkpt><trkpt lat="49.995631" lon="5.583609"><ele>461.721</ele><time>2022-09-17T14:00:03Z</time></trkpt><trkpt lat="49.995603" lon="5.583503"><ele>461.096</ele><time>2022-09-17T14:00:04Z</time></trkpt><trkpt lat="49.995581" lon="5.583402"><ele>460.251</ele><time>2022-09-17T14:00:05Z</time></trkpt><trkpt lat="49.995557" lon="5.583280"><ele>459.336</ele><time>2022-09-17T14:00:06Z</time></trkpt><trkpt lat="49.995538" lon="5.583181"><ele>458.460</ele><time>2022-09-17T14:00:07Z</time></trkpt><trkpt lat="49.995500" lon="5.583059"><ele>457.917</ele><time>2022-09-17T14:00:08Z</time></trkpt><trkpt lat="49.995488" lon="5.582906"><ele>457.747</ele><time>2022-09-17T14:00:09Z</time></trkpt><trkpt lat="49.995463" lon="5.582720"><ele>457.429</ele><time>2022-09-17T14:00:10Z</time></trkpt><trkpt lat="49.995442" lon="5.582548"><ele>456.621</ele><time>2022-09-17T14:00:11Z</time></trkpt><trkpt lat="49.995418" lon="5.582366"><ele>455.709</ele><time>2022-09-17T14:00:12Z</time></trkpt><trkpt lat="49.995394" lon="5.582190"><ele>455.745</ele><time>2022-09-17T14:00:13Z</time></trkpt><trkpt lat="49.995354" lon="5.582017"><ele>454.655</ele><time>2022-09-17T14:00:14Z</time></trkpt><trkpt lat="49.995312" lon="5.581863"><ele>453.887</ele><time>2022-09-17T14:00:15Z</time></trkpt><trkpt lat="49.995273" lon="5.581700"><ele>453.323</ele><time>2022-09-17T14:00:16Z</time></trkpt><trkpt lat="49.995228" lon="5.581507"><ele>452.318</ele><time>2022-09-17T14:00:17Z</time></trkpt><trkpt lat="49.995191" lon="5.581320"><ele>450.933</ele><time>2022-09-17T14:00:18Z</time></trkpt><trkpt lat="49.995155" lon="5.581151"><ele>448.888</ele><time>2022-09-17T14:00:19Z</time></trkpt><trkpt lat="49.995127" lon="5.580970"><ele>447.692</ele><time>2022-09-17T14:00:20Z</time></trkpt><trkpt lat="49.995109" lon="5.580772"><ele>446.549</ele><time>2022-09-17T14:00:21Z</time></trkpt><trkpt lat="49.995096" lon="5.580549"><ele>445.695</ele><time>2022-09-17T14:00:22Z</time></trkpt><trkpt lat="49.995073" lon="5.580351"><ele>444.949</ele><time>2022-09-17T14:00:23Z</time></trkpt><trkpt lat="49.995048" lon="5.580159"><ele>444.723</ele><time>2022-09-17T14:00:24Z</time></trkpt><trkpt lat="49.994997" lon="5.579984"><ele>443.809</ele><time>2022-09-17T14:00:25Z</time></trkpt><trkpt lat="49.994920" lon="5.579822"><ele>442.540</ele><time>2022-09-17T14:00:26Z</time></trkpt><trkpt lat="49.994835" lon="5.579700"><ele>441.260</ele><time>2022-09-17T14:00:27Z</time></trkpt><trkpt lat="49.994746" lon="5.579574"><ele>439.922</ele><time>2022-09-17T14:00:28Z</time></trkpt><trkpt lat="49.994668" lon="5.579482"><ele>438.678</ele><time>2022-09-17T14:00:29Z</time></trkpt><trkpt lat="49.994592" lon="5.579397"><ele>437.583</ele><time>2022-09-17T14:00:30Z</time></trkpt><trkpt lat="49.994545" lon="5.579325"><ele>436.858</ele><time>2022-09-17T14:00:31Z</time></trkpt><trkpt lat="49.994510" lon="5.579245"><ele>435.553</ele><time>2022-09-17T14:00:32Z</time></trkpt><trkpt lat="49.994500" lon="5.579153"><ele>434.267</ele><time>2022-09-17T14:00:33Z</time></trkpt><trkpt lat="49.994494" lon="5.579075"><ele>433.584</ele><time>2022-09-17T14:00:34Z</time></trkpt><trkpt lat="49.994531" lon="5.579004"><ele>432.257</ele><time>2022-09-17T14:00:36Z</time></trkpt><trkpt lat="49.994368" lon="5.579034"><ele>428.600</ele><time>2022-09-17T14:00:44Z</time></trkpt><trkpt lat="49.994366" lon="5.579117"><ele>426.120</ele><time>2022-09-17T14:00:45Z</time></trkpt><trkpt lat="49.994303" lon="5.579154"><ele>426.109</ele><time>2022-09-17T14:00:47Z</time></trkpt><trkpt lat="49.994222" lon="5.579170"><ele>426.116</ele><time>2022-09-17T14:00:49Z</time></trkpt><trkpt lat="49.994180" lon="5.579202"><ele>426.186</ele><time>2022-09-17T14:00:50Z</time></trkpt><trkpt lat="49.994133" lon="5.579276"><ele>426.118</ele><time>2022-09-17T14:00:51Z</time></trkpt><trkpt lat="49.994068" lon="5.579374"><ele>425.294</ele><time>2022-09-17T14:00:52Z</time></trkpt><trkpt lat="49.993980" lon="5.579479"><ele>424.559</ele><time>2022-09-17T14:00:53Z</time></trkpt><trkpt lat="49.993871" lon="5.579497"><ele>423.354</ele><time>2022-09-17T14:00:54Z</time></trkpt><trkpt lat="49.993818" lon="5.579608"><ele>422.779</ele><time>2022-09-17T14:00:55Z</time></trkpt><trkpt lat="49.993742" lon="5.579635"><ele>422.483</ele><time>2022-09-17T14:00:56Z</time></trkpt><trkpt lat="49.993667" lon="5.579625"><ele>422.390</ele><time>2022-09-17T14:00:57Z</time></trkpt><trkpt lat="49.993587" lon="5.579593"><ele>422.129</ele><time>2022-09-17T14:00:58Z</time></trkpt><trkpt lat="49.993491" lon="5.579519"><ele>421.900</ele><time>2022-09-17T14:00:59Z</time></trkpt><trkpt lat="49.993431" lon="5.579406"><ele>421.520</ele><time>2022-09-17T14:01:00Z</time></trkpt><trkpt lat="49.993357" lon="5.579273"><ele>421.409</ele><time>2022-09-17T14:01:01Z</time></trkpt><trkpt lat="49.993289" lon="5.579156"><ele>421.333</ele><time>2022-09-17T14:01:02Z</time></trkpt><trkpt lat="49.993214" lon="5.579014"><ele>421.243</ele><time>2022-09-17T14:01:03Z</time></trkpt><trkpt lat="49.993149" lon="5.578891"><ele>421.285</ele><time>2022-09-17T14:01:04Z</time></trkpt><trkpt lat="49.993076" lon="5.578763"><ele>421.161</ele><time>2022-09-17T14:01:05Z</time></trkpt><trkpt lat="49.993015" lon="5.578681"><ele>421.186</ele><time>2022-09-17T14:01:06Z</time></trkpt><trkpt lat="49.992945" lon="5.578592"><ele>421.351</ele><time>2022-09-17T14:01:07Z</time></trkpt><trkpt lat="49.992888" lon="5.578460"><ele>421.676</ele><time>2022-09-17T14:01:08Z</time></trkpt><trkpt lat="49.992789" lon="5.578353"><ele>422.120</ele><time>2022-09-17T14:01:09Z</time></trkpt><trkpt lat="49.992683" lon="5.578301"><ele>422.737</ele><time>2022-09-17T14:01:10Z</time></trkpt><trkpt lat="49.992581" lon="5.578278"><ele>423.516</ele><time>2022-09-17T14:01:11Z</time></trkpt><trkpt lat="49.992477" lon="5.578263"><ele>423.976</ele><time>2022-09-17T14:01:12Z</time></trkpt><trkpt lat="49.992362" lon="5.578247"><ele>424.213</ele><time>2022-09-17T14:01:13Z</time></trkpt><trkpt lat="49.992227" lon="5.578227"><ele>424.309</ele><time>2022-09-17T14:01:14Z</time></trkpt><trkpt lat="49.992084" lon="5.578206"><ele>424.752</ele><time>2022-09-17T14:01:15Z</time></trkpt><trkpt lat="49.991930" lon="5.578184"><ele>424.852</ele><time>2022-09-17T14:01:16Z</time></trkpt><trkpt lat="49.991797" lon="5.578165"><ele>425.064</ele><time>2022-09-17T14:01:17Z</time></trkpt><trkpt lat="49.991658" lon="5.578145"><ele>425.280</ele><time>2022-09-17T14:01:18Z</time></trkpt><trkpt lat="49.991527" lon="5.578126"><ele>425.375</ele><time>2022-09-17T14:01:19Z</time></trkpt><trkpt lat="49.991389" lon="5.578106"><ele>425.480</ele><time>2022-09-17T14:01:20Z</time></trkpt><trkpt lat="49.991256" lon="5.578087"><ele>425.485</ele><time>2022-09-17T14:01:21Z</time></trkpt><trkpt lat="49.991132" lon="5.578069"><ele>425.419</ele><time>2022-09-17T14:01:22Z</time></trkpt><trkpt lat="49.990992" lon="5.578049"><ele>425.446</ele><time>2022-09-17T14:01:23Z</time></trkpt><trkpt lat="49.990864" lon="5.578030"><ele>425.471</ele><time>2022-09-17T14:01:24Z</time></trkpt><trkpt lat="49.990720" lon="5.578009"><ele>425.541</ele><time>2022-09-17T14:01:25Z</time></trkpt><trkpt lat="49.990580" lon="5.577989"><ele>425.715</ele><time>2022-09-17T14:01:26Z</time></trkpt><trkpt lat="49.990441" lon="5.577969"><ele>425.809</ele><time>2022-09-17T14:01:27Z</time></trkpt><trkpt lat="49.990303" lon="5.577949"><ele>426.068</ele><time>2022-09-17T14:01:28Z</time></trkpt><trkpt lat="49.990163" lon="5.577929"><ele>426.218</ele><time>2022-09-17T14:01:29Z</time></trkpt><trkpt lat="49.990027" lon="5.577909"><ele>426.210</ele><time>2022-09-17T14:01:30Z</time></trkpt><trkpt lat="49.989882" lon="5.577942"><ele>426.246</ele><time>2022-09-17T14:01:31Z</time></trkpt><trkpt lat="49.989737" lon="5.577958"><ele>426.171</ele><time>2022-09-17T14:01:32Z</time></trkpt><trkpt lat="49.989587" lon="5.577992"><ele>425.926</ele><time>2022-09-17T14:01:33Z</time></trkpt><trkpt lat="49.989447" lon="5.578039"><ele>425.871</ele><time>2022-09-17T14:01:34Z</time></trkpt><trkpt lat="49.989291" lon="5.578082"><ele>425.895</ele><time>2022-09-17T14:01:35Z</time></trkpt><trkpt lat="49.989151" lon="5.578110"><ele>425.852</ele><time>2022-09-17T14:01:36Z</time></trkpt><trkpt lat="49.988997" lon="5.578148"><ele>425.948</ele><time>2022-09-17T14:01:37Z</time></trkpt><trkpt lat="49.988840" lon="5.578192"><ele>426.161</ele><time>2022-09-17T14:01:38Z</time></trkpt><trkpt lat="49.988700" lon="5.578232"><ele>426.317</ele><time>2022-09-17T14:01:39Z</time></trkpt><trkpt lat="49.988575" lon="5.578283"><ele>426.409</ele><time>2022-09-17T14:01:40Z</time></trkpt><trkpt lat="49.988457" lon="5.578347"><ele>426.475</ele><time>2022-09-17T14:01:41Z</time></trkpt><trkpt lat="49.988352" lon="5.578427"><ele>426.325</ele><time>2022-09-17T14:01:42Z</time></trkpt><trkpt lat="49.988253" lon="5.578504"><ele>426.057</ele><time>2022-09-17T14:01:43Z</time></trkpt><trkpt lat="49.988163" lon="5.578579"><ele>425.613</ele><time>2022-09-17T14:01:44Z</time></trkpt><trkpt lat="49.988086" lon="5.578654"><ele>425.068</ele><time>2022-09-17T14:01:45Z</time></trkpt><trkpt lat="49.988017" lon="5.578709"><ele>424.763</ele><time>2022-09-17T14:01:46Z</time></trkpt><trkpt lat="49.987946" lon="5.578722"><ele>424.298</ele><time>2022-09-17T14:01:47Z</time></trkpt><trkpt lat="49.987885" lon="5.578684"><ele>423.892</ele><time>2022-09-17T14:01:48Z</time></trkpt><trkpt lat="49.987843" lon="5.578606"><ele>423.429</ele><time>2022-09-17T14:01:49Z</time></trkpt><trkpt lat="49.987798" lon="5.578500"><ele>423.166</ele><time>2022-09-17T14:01:50Z</time></trkpt><trkpt lat="49.987751" lon="5.578372"><ele>422.929</ele><time>2022-09-17T14:01:51Z</time></trkpt><trkpt lat="49.987669" lon="5.578198"><ele>422.821</ele><time>2022-09-17T14:01:52Z</time></trkpt><trkpt lat="49.987625" lon="5.578006"><ele>422.809</ele><time>2022-09-17T14:01:53Z</time></trkpt><trkpt lat="49.987534" lon="5.577838"><ele>422.727</ele><time>2022-09-17T14:01:54Z</time></trkpt><trkpt lat="49.987432" lon="5.577680"><ele>422.617</ele><time>2022-09-17T14:01:55Z</time></trkpt><trkpt lat="49.987356" lon="5.577497"><ele>422.659</ele><time>2022-09-17T14:01:56Z</time></trkpt><trkpt lat="49.987293" lon="5.577334"><ele>422.625</ele><time>2022-09-17T14:01:57Z</time></trkpt><trkpt lat="49.987226" lon="5.577129"><ele>421.920</ele><time>2022-09-17T14:01:58Z</time></trkpt><trkpt lat="49.987213" lon="5.576948"><ele>421.275</ele><time>2022-09-17T14:01:59Z</time></trkpt><trkpt lat="49.987185" lon="5.576789"><ele>420.530</ele><time>2022-09-17T14:02:00Z</time></trkpt><trkpt lat="49.987163" lon="5.576634"><ele>419.654</ele><time>2022-09-17T14:02:01Z</time></trkpt><trkpt lat="49.987179" lon="5.576503"><ele>418.841</ele><time>2022-09-17T14:02:02Z</time></trkpt><trkpt lat="49.987188" lon="5.576363"><ele>418.856</ele><time>2022-09-17T14:02:03Z</time></trkpt><trkpt lat="49.987253" lon="5.576205"><ele>419.759</ele><time>2022-09-17T14:02:04Z</time></trkpt><trkpt lat="49.987336" lon="5.576124"><ele>420.614</ele><time>2022-09-17T14:02:05Z</time></trkpt><trkpt lat="49.987414" lon="5.576031"><ele>421.309</ele><time>2022-09-17T14:02:06Z</time></trkpt><trkpt lat="49.987505" lon="5.575928"><ele>421.796</ele><time>2022-09-17T14:02:07Z</time></trkpt><trkpt lat="49.987590" lon="5.575837"><ele>422.176</ele><time>2022-09-17T14:02:08Z</time></trkpt><trkpt lat="49.987684" lon="5.575742"><ele>422.568</ele><time>2022-09-17T14:02:09Z</time></trkpt><trkpt lat="49.987788" lon="5.575645"><ele>422.614</ele><time>2022-09-17T14:02:10Z</time></trkpt><trkpt lat="49.987882" lon="5.575537"><ele>422.789</ele><time>2022-09-17T14:02:11Z</time></trkpt><trkpt lat="49.987950" lon="5.575449"><ele>422.914</ele><time>2022-09-17T14:02:12Z</time></trkpt><trkpt lat="49.988014" lon="5.575354"><ele>422.999</ele><time>2022-09-17T14:02:13Z</time></trkpt><trkpt lat="49.988040" lon="5.575241"><ele>422.983</ele><time>2022-09-17T14:02:14Z</time></trkpt><trkpt lat="49.988027" lon="5.575090"><ele>423.230</ele><time>2022-09-17T14:02:15Z</time></trkpt><trkpt lat="49.988002" lon="5.574906"><ele>424.296</ele><time>2022-09-17T14:02:16Z</time></trkpt><trkpt lat="49.987991" lon="5.574687"><ele>425.031</ele><time>2022-09-17T14:02:17Z</time></trkpt><trkpt lat="49.987971" lon="5.574490"><ele>426.224</ele><time>2022-09-17T14:02:18Z</time></trkpt><trkpt lat="49.987952" lon="5.574298"><ele>426.609</ele><time>2022-09-17T14:02:19Z</time></trkpt><trkpt lat="49.987936" lon="5.574136"><ele>426.620</ele><time>2022-09-17T14:02:20Z</time></trkpt><trkpt lat="49.987923" lon="5.574008"><ele>425.870</ele><time>2022-09-17T14:02:21Z</time></trkpt><trkpt lat="49.987894" lon="5.573888"><ele>424.822</ele><time>2022-09-17T14:02:22Z</time></trkpt><trkpt lat="49.987882" lon="5.573767"><ele>424.298</ele><time>2022-09-17T14:02:23Z</time></trkpt><trkpt lat="49.987879" lon="5.573660"><ele>423.123</ele><time>2022-09-17T14:02:24Z</time></trkpt><trkpt lat="49.987887" lon="5.573572"><ele>422.888</ele><time>2022-09-17T14:02:25Z</time></trkpt><trkpt lat="49.987864" lon="5.573501"><ele>423.053</ele><time>2022-09-17T14:02:27Z</time></trkpt><trkpt lat="49.987807" lon="5.573533"><ele>423.017</ele><time>2022-09-17T14:02:36Z</time></trkpt><trkpt lat="49.987737" lon="5.573523"><ele>424.444</ele><time>2022-09-17T14:02:38Z</time></trkpt><trkpt lat="49.987688" lon="5.573527"><ele>425.739</ele><time>2022-09-17T14:02:39Z</time></trkpt><trkpt lat="49.987621" lon="5.573539"><ele>425.801</ele><time>2022-09-17T14:02:40Z</time></trkpt><trkpt lat="49.987543" lon="5.573558"><ele>425.821</ele><time>2022-09-17T14:02:41Z</time></trkpt><trkpt lat="49.987440" lon="5.573590"><ele>425.809</ele><time>2022-09-17T14:02:42Z</time></trkpt><trkpt lat="49.987336" lon="5.573628"><ele>425.914</ele><time>2022-09-17T14:02:43Z</time></trkpt><trkpt lat="49.987230" lon="5.573666"><ele>426.174</ele><time>2022-09-17T14:02:44Z</time></trkpt><trkpt lat="49.987108" lon="5.573713"><ele>426.386</ele><time>2022-09-17T14:02:45Z</time></trkpt><trkpt lat="49.986968" lon="5.573794"><ele>426.492</ele><time>2022-09-17T14:02:46Z</time></trkpt><trkpt lat="49.986826" lon="5.573851"><ele>426.617</ele><time>2022-09-17T14:02:47Z</time></trkpt><trkpt lat="49.986682" lon="5.573929"><ele>426.832</ele><time>2022-09-17T14:02:48Z</time></trkpt><trkpt lat="49.986533" lon="5.573981"><ele>427.017</ele><time>2022-09-17T14:02:49Z</time></trkpt><trkpt lat="49.986402" lon="5.573999"><ele>427.491</ele><time>2022-09-17T14:02:50Z</time></trkpt><trkpt lat="49.986269" lon="5.574001"><ele>427.788</ele><time>2022-09-17T14:02:51Z</time></trkpt><trkpt lat="49.986144" lon="5.574017"><ele>428.271</ele><time>2022-09-17T14:02:52Z</time></trkpt><trkpt lat="49.986024" lon="5.574039"><ele>429.041</ele><time>2022-09-17T14:02:53Z</time></trkpt><trkpt lat="49.985906" lon="5.574051"><ele>429.915</ele><time>2022-09-17T14:02:54Z</time></trkpt><trkpt lat="49.985800" lon="5.574066"><ele>430.809</ele><time>2022-09-17T14:02:55Z</time></trkpt><trkpt lat="49.985701" lon="5.574080"><ele>431.868</ele><time>2022-09-17T14:02:56Z</time></trkpt><trkpt lat="49.985578" lon="5.574075"><ele>432.868</ele><time>2022-09-17T14:02:57Z</time></trkpt><trkpt lat="49.985472" lon="5.574054"><ele>433.510</ele><time>2022-09-17T14:02:58Z</time></trkpt><trkpt lat="49.985363" lon="5.574048"><ele>434.386</ele><time>2022-09-17T14:02:59Z</time></trkpt><trkpt lat="49.985228" lon="5.574036"><ele>435.131</ele><time>2022-09-17T14:03:00Z</time></trkpt><trkpt lat="49.985094" lon="5.574017"><ele>436.036</ele><time>2022-09-17T14:03:01Z</time></trkpt><trkpt lat="49.984969" lon="5.574021"><ele>436.371</ele><time>2022-09-17T14:03:02Z</time></trkpt><trkpt lat="49.984853" lon="5.574016"><ele>436.645</ele><time>2022-09-17T14:03:03Z</time></trkpt><trkpt lat="49.984750" lon="5.574008"><ele>436.882</ele><time>2022-09-17T14:03:04Z</time></trkpt><trkpt lat="49.984641" lon="5.573999"><ele>437.057</ele><time>2022-09-17T14:03:05Z</time></trkpt><trkpt lat="49.984530" lon="5.573997"><ele>437.400</ele><time>2022-09-17T14:03:06Z</time></trkpt><trkpt lat="49.984437" lon="5.574009"><ele>437.720</ele><time>2022-09-17T14:03:07Z</time></trkpt><trkpt lat="49.984358" lon="5.574015"><ele>438.409</ele><time>2022-09-17T14:03:08Z</time></trkpt><trkpt lat="49.984291" lon="5.574017"><ele>438.716</ele><time>2022-09-17T14:03:09Z</time></trkpt><trkpt lat="49.984221" lon="5.574003"><ele>439.496</ele><time>2022-09-17T14:03:10Z</time></trkpt><trkpt lat="49.984153" lon="5.573996"><ele>440.028</ele><time>2022-09-17T14:03:11Z</time></trkpt><trkpt lat="49.984072" lon="5.573996"><ele>440.464</ele><time>2022-09-17T14:03:12Z</time></trkpt><trkpt lat="49.983981" lon="5.573977"><ele>440.489</ele><time>2022-09-17T14:03:13Z</time></trkpt><trkpt lat="49.983910" lon="5.573942"><ele>440.444</ele><time>2022-09-17T14:03:14Z</time></trkpt><trkpt lat="49.983829" lon="5.573918"><ele>440.119</ele><time>2022-09-17T14:03:15Z</time></trkpt><trkpt lat="49.983738" lon="5.573885"><ele>439.783</ele><time>2022-09-17T14:03:16Z</time></trkpt><trkpt lat="49.983643" lon="5.573835"><ele>439.090</ele><time>2022-09-17T14:03:17Z</time></trkpt><trkpt lat="49.983558" lon="5.573792"><ele>438.466</ele><time>2022-09-17T14:03:18Z</time></trkpt><trkpt lat="49.983472" lon="5.573739"><ele>438.129</ele><time>2022-09-17T14:03:19Z</time></trkpt><trkpt lat="49.983380" lon="5.573674"><ele>437.621</ele><time>2022-09-17T14:03:20Z</time></trkpt><trkpt lat="49.983280" lon="5.573598"><ele>437.309</ele><time>2022-09-17T14:03:21Z</time></trkpt><trkpt lat="49.983193" lon="5.573524"><ele>437.297</ele><time>2022-09-17T14:03:22Z</time></trkpt><trkpt lat="49.983105" lon="5.573440"><ele>437.287</ele><time>2022-09-17T14:03:23Z</time></trkpt><trkpt lat="49.983015" lon="5.573360"><ele>437.069</ele><time>2022-09-17T14:03:24Z</time></trkpt><trkpt lat="49.982924" lon="5.573277"><ele>436.945</ele><time>2022-09-17T14:03:25Z</time></trkpt><trkpt lat="49.982836" lon="5.573212"><ele>436.830</ele><time>2022-09-17T14:03:26Z</time></trkpt><trkpt lat="49.982752" lon="5.573159"><ele>436.575</ele><time>2022-09-17T14:03:27Z</time></trkpt><trkpt lat="49.982669" lon="5.573118"><ele>436.530</ele><time>2022-09-17T14:03:28Z</time></trkpt><trkpt lat="49.982592" lon="5.573080"><ele>436.524</ele><time>2022-09-17T14:03:29Z</time></trkpt><trkpt lat="49.982505" lon="5.573044"><ele>436.711</ele><time>2022-09-17T14:03:30Z</time></trkpt><trkpt lat="49.982435" lon="5.572990"><ele>437.028</ele><time>2022-09-17T14:03:31Z</time></trkpt><trkpt lat="49.982346" lon="5.572919"><ele>437.389</ele><time>2022-09-17T14:03:32Z</time></trkpt><trkpt lat="49.982238" lon="5.572826"><ele>438.017</ele><time>2022-09-17T14:03:33Z</time></trkpt><trkpt lat="49.982135" lon="5.572711"><ele>438.209</ele><time>2022-09-17T14:03:34Z</time></trkpt><trkpt lat="49.982015" lon="5.572617"><ele>438.323</ele><time>2022-09-17T14:03:35Z</time></trkpt><trkpt lat="49.981893" lon="5.572519"><ele>438.263</ele><time>2022-09-17T14:03:36Z</time></trkpt><trkpt lat="49.981772" lon="5.572419"><ele>437.815</ele><time>2022-09-17T14:03:37Z</time></trkpt><trkpt lat="49.981668" lon="5.572334"><ele>437.511</ele><time>2022-09-17T14:03:38Z</time></trkpt><trkpt lat="49.981579" lon="5.572247"><ele>437.256</ele><time>2022-09-17T14:03:39Z</time></trkpt><trkpt lat="49.981494" lon="5.572203"><ele>436.861</ele><time>2022-09-17T14:03:40Z</time></trkpt><trkpt lat="49.981408" lon="5.572177"><ele>436.846</ele><time>2022-09-17T14:03:41Z</time></trkpt><trkpt lat="49.981321" lon="5.572217"><ele>437.040</ele><time>2022-09-17T14:03:42Z</time></trkpt><trkpt lat="49.981217" lon="5.572266"><ele>437.817</ele><time>2022-09-17T14:03:43Z</time></trkpt><trkpt lat="49.981120" lon="5.572268"><ele>438.485</ele><time>2022-09-17T14:03:44Z</time></trkpt><trkpt lat="49.981024" lon="5.572187"><ele>439.189</ele><time>2022-09-17T14:03:45Z</time></trkpt><trkpt lat="49.980904" lon="5.572108"><ele>439.217</ele><time>2022-09-17T14:03:46Z</time></trkpt><trkpt lat="49.980779" lon="5.572072"><ele>439.409</ele><time>2022-09-17T14:03:47Z</time></trkpt><trkpt lat="49.980637" lon="5.572080"><ele>439.689</ele><time>2022-09-17T14:03:48Z</time></trkpt><trkpt lat="49.980483" lon="5.572071"><ele>440.239</ele><time>2022-09-17T14:03:49Z</time></trkpt><trkpt lat="49.980336" lon="5.572053"><ele>440.811</ele><time>2022-09-17T14:03:50Z</time></trkpt><trkpt lat="49.980183" lon="5.572031"><ele>441.847</ele><time>2022-09-17T14:03:51Z</time></trkpt><trkpt lat="49.980036" lon="5.572010"><ele>442.592</ele><time>2022-09-17T14:03:52Z</time></trkpt><trkpt lat="49.979897" lon="5.571970"><ele>443.137</ele><time>2022-09-17T14:03:53Z</time></trkpt><trkpt lat="49.979767" lon="5.571915"><ele>444.032</ele><time>2022-09-17T14:03:54Z</time></trkpt><trkpt lat="49.979630" lon="5.571853"><ele>445.036</ele><time>2022-09-17T14:03:55Z</time></trkpt><trkpt lat="49.979504" lon="5.571817"><ele>446.143</ele><time>2022-09-17T14:03:56Z</time></trkpt><trkpt lat="49.979401" lon="5.571795"><ele>446.782</ele><time>2022-09-17T14:03:57Z</time></trkpt><trkpt lat="49.979308" lon="5.571778"><ele>447.943</ele><time>2022-09-17T14:03:58Z</time></trkpt><trkpt lat="49.979231" lon="5.571781"><ele>449.217</ele><time>2022-09-17T14:03:59Z</time></trkpt><trkpt lat="49.979169" lon="5.571785"><ele>449.809</ele><time>2022-09-17T14:04:00Z</time></trkpt><trkpt lat="49.979109" lon="5.571871"><ele>451.099</ele><time>2022-09-17T14:04:02Z</time></trkpt><trkpt lat="49.979107" lon="5.571949"><ele>452.519</ele><time>2022-09-17T14:04:03Z</time></trkpt><trkpt lat="49.979088" lon="5.572038"><ele>453.471</ele><time>2022-09-17T14:04:04Z</time></trkpt><trkpt lat="49.979057" lon="5.572128"><ele>453.847</ele><time>2022-09-17T14:04:05Z</time></trkpt><trkpt lat="49.979027" lon="5.572205"><ele>453.852</ele><time>2022-09-17T14:04:06Z</time></trkpt><trkpt lat="49.979017" lon="5.572291"><ele>453.867</ele><time>2022-09-17T14:04:07Z</time></trkpt><trkpt lat="49.978990" lon="5.572371"><ele>453.682</ele><time>2022-09-17T14:04:08Z</time></trkpt><trkpt lat="49.978959" lon="5.572441"><ele>453.316</ele><time>2022-09-17T14:04:09Z</time></trkpt><trkpt lat="49.978933" lon="5.572532"><ele>453.073</ele><time>2022-09-17T14:04:10Z</time></trkpt><trkpt lat="49.978911" lon="5.572613"><ele>452.579</ele><time>2022-09-17T14:04:11Z</time></trkpt><trkpt lat="49.978886" lon="5.572696"><ele>452.005</ele><time>2022-09-17T14:04:12Z</time></trkpt><trkpt lat="49.978853" lon="5.572785"><ele>451.425</ele><time>2022-09-17T14:04:13Z</time></trkpt><trkpt lat="49.978817" lon="5.572875"><ele>450.609</ele><time>2022-09-17T14:04:14Z</time></trkpt><trkpt lat="49.978799" lon="5.572952"><ele>449.728</ele><time>2022-09-17T14:04:15Z</time></trkpt><trkpt lat="49.978772" lon="5.573032"><ele>448.878</ele><time>2022-09-17T14:04:16Z</time></trkpt><trkpt lat="49.978749" lon="5.573116"><ele>448.120</ele><time>2022-09-17T14:04:17Z</time></trkpt><trkpt lat="49.978712" lon="5.573201"><ele>447.576</ele><time>2022-09-17T14:04:18Z</time></trkpt><trkpt lat="49.978687" lon="5.573282"><ele>446.931</ele><time>2022-09-17T14:04:19Z</time></trkpt><trkpt lat="49.978644" lon="5.573362"><ele>446.586</ele><time>2022-09-17T14:04:20Z</time></trkpt><trkpt lat="49.978605" lon="5.573461"><ele>446.141</ele><time>2022-09-17T14:04:21Z</time></trkpt><trkpt lat="49.978572" lon="5.573559"><ele>445.375</ele><time>2022-09-17T14:04:22Z</time></trkpt><trkpt lat="49.978530" lon="5.573656"><ele>444.762</ele><time>2022-09-17T14:04:23Z</time></trkpt><trkpt lat="49.978463" lon="5.573724"><ele>444.071</ele><time>2022-09-17T14:04:24Z</time></trkpt><trkpt lat="49.978410" lon="5.573773"><ele>443.341</ele><time>2022-09-17T14:04:25Z</time></trkpt><trkpt lat="49.978312" lon="5.573852"><ele>442.615</ele><time>2022-09-17T14:04:26Z</time></trkpt><trkpt lat="49.978252" lon="5.573916"><ele>442.009</ele><time>2022-09-17T14:04:27Z</time></trkpt><trkpt lat="49.978200" lon="5.574000"><ele>441.418</ele><time>2022-09-17T14:04:28Z</time></trkpt><trkpt lat="49.978118" lon="5.574076"><ele>440.818</ele><time>2022-09-17T14:04:29Z</time></trkpt><trkpt lat="49.978033" lon="5.574132"><ele>440.220</ele><time>2022-09-17T14:04:30Z</time></trkpt><trkpt lat="49.977964" lon="5.574173"><ele>439.636</ele><time>2022-09-17T14:04:31Z</time></trkpt><trkpt lat="49.977864" lon="5.574265"><ele>438.721</ele><time>2022-09-17T14:04:32Z</time></trkpt><trkpt lat="49.977771" lon="5.574358"><ele>438.196</ele><time>2022-09-17T14:04:33Z</time></trkpt><trkpt lat="49.977687" lon="5.574453"><ele>437.671</ele><time>2022-09-17T14:04:34Z</time></trkpt><trkpt lat="49.977605" lon="5.574554"><ele>437.185</ele><time>2022-09-17T14:04:35Z</time></trkpt><trkpt lat="49.977508" lon="5.574660"><ele>436.562</ele><time>2022-09-17T14:04:36Z</time></trkpt><trkpt lat="49.977420" lon="5.574783"><ele>436.137</ele><time>2022-09-17T14:04:37Z</time></trkpt><trkpt lat="49.977336" lon="5.574913"><ele>435.749</ele><time>2022-09-17T14:04:38Z</time></trkpt><trkpt lat="49.977261" lon="5.575057"><ele>435.413</ele><time>2022-09-17T14:04:39Z</time></trkpt><trkpt lat="49.977172" lon="5.575181"><ele>435.409</ele><time>2022-09-17T14:04:40Z</time></trkpt><trkpt lat="49.977084" lon="5.575288"><ele>435.664</ele><time>2022-09-17T14:04:41Z</time></trkpt><trkpt lat="49.976996" lon="5.575401"><ele>436.194</ele><time>2022-09-17T14:04:42Z</time></trkpt><trkpt lat="49.976919" lon="5.575517"><ele>436.486</ele><time>2022-09-17T14:04:43Z</time></trkpt><trkpt lat="49.976851" lon="5.575638"><ele>437.062</ele><time>2022-09-17T14:04:44Z</time></trkpt><trkpt lat="49.976795" lon="5.575750"><ele>437.497</ele><time>2022-09-17T14:04:45Z</time></trkpt><trkpt lat="49.976755" lon="5.575836"><ele>437.772</ele><time>2022-09-17T14:04:46Z</time></trkpt><trkpt lat="49.976702" lon="5.575884"><ele>438.117</ele><time>2022-09-17T14:04:47Z</time></trkpt><trkpt lat="49.976670" lon="5.575934"><ele>438.251</ele><time>2022-09-17T14:04:48Z</time></trkpt><trkpt lat="49.976705" lon="5.576009"><ele>438.828</ele><time>2022-09-17T14:04:50Z</time></trkpt><trkpt lat="49.976803" lon="5.576073"><ele>439.833</ele><time>2022-09-17T14:04:52Z</time></trkpt><trkpt lat="49.976884" lon="5.576146"><ele>440.623</ele><time>2022-09-17T14:04:53Z</time></trkpt><trkpt lat="49.976950" lon="5.576219"><ele>440.915</ele><time>2022-09-17T14:04:54Z</time></trkpt><trkpt lat="49.976978" lon="5.576335"><ele>440.809</ele><time>2022-09-17T14:04:55Z</time></trkpt><trkpt lat="49.976961" lon="5.576472"><ele>440.544</ele><time>2022-09-17T14:04:56Z</time></trkpt><trkpt lat="49.976931" lon="5.576613"><ele>440.264</ele><time>2022-09-17T14:04:57Z</time></trkpt><trkpt lat="49.976883" lon="5.576770"><ele>439.986</ele><time>2022-09-17T14:04:58Z</time></trkpt><trkpt lat="49.976873" lon="5.576926"><ele>439.622</ele><time>2022-09-17T14:04:59Z</time></trkpt><trkpt lat="49.976883" lon="5.577079"><ele>439.227</ele><time>2022-09-17T14:05:00Z</time></trkpt><trkpt lat="49.976917" lon="5.577234"><ele>439.022</ele><time>2022-09-17T14:05:01Z</time></trkpt><trkpt lat="49.976975" lon="5.577375"><ele>438.527</ele><time>2022-09-17T14:05:02Z</time></trkpt><trkpt lat="49.977067" lon="5.577509"><ele>438.231</ele><time>2022-09-17T14:05:03Z</time></trkpt><trkpt lat="49.977174" lon="5.577634"><ele>437.968</ele><time>2022-09-17T14:05:04Z</time></trkpt><trkpt lat="49.977280" lon="5.577758"><ele>437.979</ele><time>2022-09-17T14:05:05Z</time></trkpt><trkpt lat="49.977400" lon="5.577894"><ele>437.905</ele><time>2022-09-17T14:05:06Z</time></trkpt><trkpt lat="49.977505" lon="5.578048"><ele>437.925</ele><time>2022-09-17T14:05:07Z</time></trkpt><trkpt lat="49.977617" lon="5.578183"><ele>437.909</ele><time>2022-09-17T14:05:08Z</time></trkpt><trkpt lat="49.977723" lon="5.578278"><ele>437.988</ele><time>2022-09-17T14:05:09Z</time></trkpt><trkpt lat="49.977848" lon="5.578434"><ele>437.338</ele><time>2022-09-17T14:05:10Z</time></trkpt><trkpt lat="49.977955" lon="5.578575"><ele>436.880</ele><time>2022-09-17T14:05:11Z</time></trkpt><trkpt lat="49.978031" lon="5.578687"><ele>436.646</ele><time>2022-09-17T14:05:12Z</time></trkpt><trkpt lat="49.978124" lon="5.578822"><ele>435.921</ele><time>2022-09-17T14:05:13Z</time></trkpt><trkpt lat="49.978169" lon="5.578985"><ele>435.086</ele><time>2022-09-17T14:05:14Z</time></trkpt><trkpt lat="49.978228" lon="5.579145"><ele>434.261</ele><time>2022-09-17T14:05:15Z</time></trkpt><trkpt lat="49.978274" lon="5.579305"><ele>433.645</ele><time>2022-09-17T14:05:16Z</time></trkpt><trkpt lat="49.978313" lon="5.579491"><ele>433.032</ele><time>2022-09-17T14:05:17Z</time></trkpt><trkpt lat="49.978358" lon="5.579684"><ele>432.519</ele><time>2022-09-17T14:05:18Z</time></trkpt><trkpt lat="49.978410" lon="5.579865"><ele>432.309</ele><time>2022-09-17T14:05:19Z</time></trkpt><trkpt lat="49.978452" lon="5.580040"><ele>432.219</ele><time>2022-09-17T14:05:20Z</time></trkpt><trkpt lat="49.978497" lon="5.580191"><ele>432.209</ele><time>2022-09-17T14:05:21Z</time></trkpt><trkpt lat="49.978543" lon="5.580309"><ele>432.212</ele><time>2022-09-17T14:05:22Z</time></trkpt><trkpt lat="49.978620" lon="5.580379"><ele>432.022</ele><time>2022-09-17T14:05:23Z</time></trkpt><trkpt lat="49.978697" lon="5.580400"><ele>431.884</ele><time>2022-09-17T14:05:24Z</time></trkpt><trkpt lat="49.978779" lon="5.580419"><ele>431.410</ele><time>2022-09-17T14:05:25Z</time></trkpt><trkpt lat="49.978847" lon="5.580449"><ele>431.215</ele><time>2022-09-17T14:05:26Z</time></trkpt><trkpt lat="49.978917" lon="5.580482"><ele>431.070</ele><time>2022-09-17T14:05:27Z</time></trkpt><trkpt lat="49.978995" lon="5.580507"><ele>430.965</ele><time>2022-09-17T14:05:28Z</time></trkpt><trkpt lat="49.979092" lon="5.580538"><ele>430.989</ele><time>2022-09-17T14:05:29Z</time></trkpt><trkpt lat="49.979194" lon="5.580567"><ele>431.526</ele><time>2022-09-17T14:05:30Z</time></trkpt><trkpt lat="49.979286" lon="5.580605"><ele>431.793</ele><time>2022-09-17T14:05:31Z</time></trkpt><trkpt lat="49.979361" lon="5.580650"><ele>432.265</ele><time>2022-09-17T14:05:32Z</time></trkpt><trkpt lat="49.979443" lon="5.580702"><ele>432.621</ele><time>2022-09-17T14:05:33Z</time></trkpt><trkpt lat="49.979520" lon="5.580757"><ele>433.609</ele><time>2022-09-17T14:05:34Z</time></trkpt><trkpt lat="49.979591" lon="5.580814"><ele>434.730</ele><time>2022-09-17T14:05:35Z</time></trkpt><trkpt lat="49.979537" lon="5.581619"><ele>437.450</ele><time>2022-09-17T14:05:36Z</time></trkpt><trkpt lat="49.979608" lon="5.581751"><ele>437.832</ele><time>2022-09-17T14:05:37Z</time></trkpt><trkpt lat="49.979675" lon="5.581871"><ele>438.248</ele><time>2022-09-17T14:05:38Z</time></trkpt><trkpt lat="49.979737" lon="5.582006"><ele>438.833</ele><time>2022-09-17T14:05:39Z</time></trkpt><trkpt lat="49.979798" lon="5.582148"><ele>439.578</ele><time>2022-09-17T14:05:40Z</time></trkpt><trkpt lat="49.979863" lon="5.582285"><ele>440.373</ele><time>2022-09-17T14:05:41Z</time></trkpt><trkpt lat="49.979926" lon="5.582431"><ele>440.877</ele><time>2022-09-17T14:05:42Z</time></trkpt><trkpt lat="49.979989" lon="5.582584"><ele>441.814</ele><time>2022-09-17T14:05:43Z</time></trkpt><trkpt lat="49.980052" lon="5.582750"><ele>442.663</ele><time>2022-09-17T14:05:44Z</time></trkpt><trkpt lat="49.980111" lon="5.582928"><ele>443.444</ele><time>2022-09-17T14:05:45Z</time></trkpt><trkpt lat="49.980165" lon="5.583110"><ele>444.018</ele><time>2022-09-17T14:05:46Z</time></trkpt><trkpt lat="49.980211" lon="5.583286"><ele>444.809</ele><time>2022-09-17T14:05:47Z</time></trkpt><trkpt lat="49.980252" lon="5.583460"><ele>445.337</ele><time>2022-09-17T14:05:48Z</time></trkpt><trkpt lat="49.980297" lon="5.583637"><ele>446.137</ele><time>2022-09-17T14:05:49Z</time></trkpt><trkpt lat="49.980344" lon="5.583814"><ele>446.829</ele><time>2022-09-17T14:05:50Z</time></trkpt><trkpt lat="49.980403" lon="5.583985"><ele>447.835</ele><time>2022-09-17T14:05:51Z</time></trkpt><trkpt lat="49.980473" lon="5.584152"><ele>448.720</ele><time>2022-09-17T14:05:52Z</time></trkpt><trkpt lat="49.980540" lon="5.584307"><ele>449.625</ele><time>2022-09-17T14:05:53Z</time></trkpt><trkpt lat="49.980601" lon="5.584450"><ele>450.350</ele><time>2022-09-17T14:05:54Z</time></trkpt><trkpt lat="49.980654" lon="5.584598"><ele>451.264</ele><time>2022-09-17T14:05:55Z</time></trkpt><trkpt lat="49.980708" lon="5.584759"><ele>452.221</ele><time>2022-09-17T14:05:56Z</time></trkpt><trkpt lat="49.980753" lon="5.584919"><ele>453.188</ele><time>2022-09-17T14:05:57Z</time></trkpt><trkpt lat="49.980795" lon="5.585075"><ele>454.524</ele><time>2022-09-17T14:05:58Z</time></trkpt><trkpt lat="49.980842" lon="5.585246"><ele>455.926</ele><time>2022-09-17T14:05:59Z</time></trkpt><trkpt lat="49.980884" lon="5.585397"><ele>457.109</ele><time>2022-09-17T14:06:00Z</time></trkpt><trkpt lat="49.980933" lon="5.585540"><ele>458.249</ele><time>2022-09-17T14:06:01Z</time></trkpt><trkpt lat="49.980989" lon="5.585683"><ele>459.439</ele><time>2022-09-17T14:06:02Z</time></trkpt><trkpt lat="49.981033" lon="5.585848"><ele>460.361</ele><time>2022-09-17T14:06:03Z</time></trkpt><trkpt lat="49.981062" lon="5.586037"><ele>461.547</ele><time>2022-09-17T14:06:04Z</time></trkpt><trkpt lat="49.981106" lon="5.586213"><ele>462.752</ele><time>2022-09-17T14:06:05Z</time></trkpt><trkpt lat="49.981150" lon="5.586390"><ele>463.597</ele><time>2022-09-17T14:06:06Z</time></trkpt><trkpt lat="49.981191" lon="5.586544"><ele>464.332</ele><time>2022-09-17T14:06:07Z</time></trkpt><trkpt lat="49.981231" lon="5.586683"><ele>465.226</ele><time>2022-09-17T14:06:08Z</time></trkpt><trkpt lat="49.981268" lon="5.586813"><ele>465.773</ele><time>2022-09-17T14:06:09Z</time></trkpt><trkpt lat="49.981294" lon="5.586966"><ele>466.114</ele><time>2022-09-17T14:06:10Z</time></trkpt><trkpt lat="49.981301" lon="5.587109"><ele>466.554</ele><time>2022-09-17T14:06:11Z</time></trkpt><trkpt lat="49.981316" lon="5.587266"><ele>467.009</ele><time>2022-09-17T14:06:12Z</time></trkpt><trkpt lat="49.981333" lon="5.587434"><ele>467.009</ele><time>2022-09-17T14:06:13Z</time></trkpt><trkpt lat="49.981361" lon="5.587593"><ele>466.852</ele><time>2022-09-17T14:06:14Z</time></trkpt><trkpt lat="49.981393" lon="5.587756"><ele>466.612</ele><time>2022-09-17T14:06:15Z</time></trkpt><trkpt lat="49.981433" lon="5.587904"><ele>466.234</ele><time>2022-09-17T14:06:16Z</time></trkpt><trkpt lat="49.981493" lon="5.588040"><ele>465.570</ele><time>2022-09-17T14:06:17Z</time></trkpt><trkpt lat="49.981555" lon="5.588162"><ele>464.665</ele><time>2022-09-17T14:06:18Z</time></trkpt><trkpt lat="49.981620" lon="5.588278"><ele>463.910</ele><time>2022-09-17T14:06:19Z</time></trkpt><trkpt lat="49.981696" lon="5.588410"><ele>462.935</ele><time>2022-09-17T14:06:20Z</time></trkpt><trkpt lat="49.981760" lon="5.588520"><ele>462.259</ele><time>2022-09-17T14:06:21Z</time></trkpt><trkpt lat="49.981834" lon="5.588628"><ele>461.926</ele><time>2022-09-17T14:06:22Z</time></trkpt><trkpt lat="49.981918" lon="5.588746"><ele>461.647</ele><time>2022-09-17T14:06:23Z</time></trkpt><trkpt lat="49.982003" lon="5.588864"><ele>461.229</ele><time>2022-09-17T14:06:24Z</time></trkpt><trkpt lat="49.982087" lon="5.588957"><ele>460.721</ele><time>2022-09-17T14:06:25Z</time></trkpt><trkpt lat="49.982173" lon="5.589060"><ele>460.309</ele><time>2022-09-17T14:06:26Z</time></trkpt><trkpt lat="49.982255" lon="5.589157"><ele>459.565</ele><time>2022-09-17T14:06:27Z</time></trkpt><trkpt lat="49.982335" lon="5.589256"><ele>458.845</ele><time>2022-09-17T14:06:28Z</time></trkpt><trkpt lat="49.982410" lon="5.589350"><ele>458.117</ele><time>2022-09-17T14:06:29Z</time></trkpt><trkpt lat="49.982484" lon="5.589431"><ele>457.343</ele><time>2022-09-17T14:06:30Z</time></trkpt><trkpt lat="49.982561" lon="5.589517"><ele>456.348</ele><time>2022-09-17T14:06:31Z</time></trkpt><trkpt lat="49.982658" lon="5.589608"><ele>455.633</ele><time>2022-09-17T14:06:32Z</time></trkpt><trkpt lat="49.982751" lon="5.589702"><ele>454.998</ele><time>2022-09-17T14:06:33Z</time></trkpt><trkpt lat="49.982845" lon="5.589784"><ele>454.242</ele><time>2022-09-17T14:06:34Z</time></trkpt><trkpt lat="49.982945" lon="5.589855"><ele>453.659</ele><time>2022-09-17T14:06:35Z</time></trkpt><trkpt lat="49.983036" lon="5.589941"><ele>453.236</ele><time>2022-09-17T14:06:36Z</time></trkpt><trkpt lat="49.983131" lon="5.590010"><ele>452.717</ele><time>2022-09-17T14:06:37Z</time></trkpt><trkpt lat="49.983219" lon="5.590088"><ele>452.218</ele><time>2022-09-17T14:06:38Z</time></trkpt><trkpt lat="49.983297" lon="5.590171"><ele>451.909</ele><time>2022-09-17T14:06:39Z</time></trkpt><trkpt lat="49.983353" lon="5.590249"><ele>451.814</ele><time>2022-09-17T14:06:40Z</time></trkpt><trkpt lat="49.983392" lon="5.590304"><ele>451.794</ele><time>2022-09-17T14:06:41Z</time></trkpt><trkpt lat="49.983411" lon="5.590392"><ele>451.786</ele><time>2022-09-17T14:06:43Z</time></trkpt><trkpt lat="49.983364" lon="5.590477"><ele>451.842</ele><time>2022-09-17T14:06:45Z</time></trkpt><trkpt lat="49.983309" lon="5.590514"><ele>451.857</ele><time>2022-09-17T14:06:46Z</time></trkpt><trkpt lat="49.983246" lon="5.590540"><ele>452.312</ele><time>2022-09-17T14:06:47Z</time></trkpt><trkpt lat="49.983189" lon="5.590540"><ele>452.747</ele><time>2022-09-17T14:06:48Z</time></trkpt><trkpt lat="49.983142" lon="5.590539"><ele>453.081</ele><time>2022-09-17T14:06:50Z</time></trkpt><trkpt lat="49.983100" lon="5.590565"><ele>453.388</ele><time>2022-09-17T14:06:53Z</time></trkpt><trkpt lat="49.983054" lon="5.590641"><ele>453.882</ele><time>2022-09-17T14:06:55Z</time></trkpt><trkpt lat="49.983035" lon="5.590711"><ele>454.143</ele><time>2022-09-17T14:06:56Z</time></trkpt><trkpt lat="49.983015" lon="5.590793"><ele>454.617</ele><time>2022-09-17T14:06:57Z</time></trkpt><trkpt lat="49.982992" lon="5.590870"><ele>455.009</ele><time>2022-09-17T14:06:58Z</time></trkpt><trkpt lat="49.982965" lon="5.590950"><ele>455.169</ele><time>2022-09-17T14:06:59Z</time></trkpt><trkpt lat="49.982946" lon="5.591019"><ele>455.129</ele><time>2022-09-17T14:07:00Z</time></trkpt><trkpt lat="49.982908" lon="5.591098"><ele>455.331</ele><time>2022-09-17T14:07:01Z</time></trkpt><trkpt lat="49.982867" lon="5.591176"><ele>455.517</ele><time>2022-09-17T14:07:02Z</time></trkpt><trkpt lat="49.982829" lon="5.591236"><ele>455.692</ele><time>2022-09-17T14:07:03Z</time></trkpt><trkpt lat="49.982795" lon="5.591301"><ele>455.917</ele><time>2022-09-17T14:07:04Z</time></trkpt><trkpt lat="49.982754" lon="5.591372"><ele>456.392</ele><time>2022-09-17T14:07:05Z</time></trkpt><trkpt lat="49.982704" lon="5.591456"><ele>456.736</ele><time>2022-09-17T14:07:06Z</time></trkpt><trkpt lat="49.982663" lon="5.591535"><ele>457.073</ele><time>2022-09-17T14:07:07Z</time></trkpt><trkpt lat="49.982617" lon="5.591630"><ele>457.613</ele><time>2022-09-17T14:07:08Z</time></trkpt><trkpt lat="49.982561" lon="5.591727"><ele>457.943</ele><time>2022-09-17T14:07:09Z</time></trkpt><trkpt lat="49.982496" lon="5.591819"><ele>458.207</ele><time>2022-09-17T14:07:10Z</time></trkpt><trkpt lat="49.982435" lon="5.591922"><ele>458.409</ele><time>2022-09-17T14:07:11Z</time></trkpt><trkpt lat="49.982376" lon="5.592027"><ele>458.662</ele><time>2022-09-17T14:07:12Z</time></trkpt><trkpt lat="49.982304" lon="5.592121"><ele>458.782</ele><time>2022-09-17T14:07:13Z</time></trkpt><trkpt lat="49.982240" lon="5.592225"><ele>458.754</ele><time>2022-09-17T14:07:14Z</time></trkpt><trkpt lat="49.982171" lon="5.592337"><ele>458.670</ele><time>2022-09-17T14:07:15Z</time></trkpt><trkpt lat="49.982107" lon="5.592446"><ele>458.665</ele><time>2022-09-17T14:07:16Z</time></trkpt><trkpt lat="49.982044" lon="5.592555"><ele>458.650</ele><time>2022-09-17T14:07:17Z</time></trkpt><trkpt lat="49.981988" lon="5.592676"><ele>458.655</ele><time>2022-09-17T14:07:18Z</time></trkpt><trkpt lat="49.981940" lon="5.592799"><ele>458.699</ele><time>2022-09-17T14:07:19Z</time></trkpt><trkpt lat="49.981875" lon="5.592918"><ele>458.716</ele><time>2022-09-17T14:07:20Z</time></trkpt><trkpt lat="49.981814" lon="5.593055"><ele>458.794</ele><time>2022-09-17T14:07:21Z</time></trkpt><trkpt lat="49.981745" lon="5.593214"><ele>458.657</ele><time>2022-09-17T14:07:22Z</time></trkpt><trkpt lat="49.981681" lon="5.593365"><ele>458.422</ele><time>2022-09-17T14:07:23Z</time></trkpt><trkpt lat="49.981619" lon="5.593509"><ele>458.109</ele><time>2022-09-17T14:07:24Z</time></trkpt><trkpt lat="49.981565" lon="5.593650"><ele>457.980</ele><time>2022-09-17T14:07:25Z</time></trkpt><trkpt lat="49.981520" lon="5.593767"><ele>457.910</ele><time>2022-09-17T14:07:26Z</time></trkpt><trkpt lat="49.981465" lon="5.593892"><ele>458.112</ele><time>2022-09-17T14:07:27Z</time></trkpt><trkpt lat="49.981405" lon="5.594045"><ele>458.548</ele><time>2022-09-17T14:07:28Z</time></trkpt><trkpt lat="49.981349" lon="5.594210"><ele>459.063</ele><time>2022-09-17T14:07:29Z</time></trkpt><trkpt lat="49.981286" lon="5.594369"><ele>459.568</ele><time>2022-09-17T14:07:30Z</time></trkpt><trkpt lat="49.981222" lon="5.594500"><ele>459.913</ele><time>2022-09-17T14:07:31Z</time></trkpt><trkpt lat="49.981177" lon="5.594621"><ele>460.077</ele><time>2022-09-17T14:07:32Z</time></trkpt><trkpt lat="49.981127" lon="5.594737"><ele>460.094</ele><time>2022-09-17T14:07:33Z</time></trkpt><trkpt lat="49.981079" lon="5.594847"><ele>459.961</ele><time>2022-09-17T14:07:34Z</time></trkpt><trkpt lat="49.981039" lon="5.594969"><ele>459.821</ele><time>2022-09-17T14:07:35Z</time></trkpt><trkpt lat="49.981008" lon="5.595135"><ele>459.513</ele><time>2022-09-17T14:07:36Z</time></trkpt><trkpt lat="49.980994" lon="5.595298"><ele>459.309</ele><time>2022-09-17T14:07:37Z</time></trkpt><trkpt lat="49.980983" lon="5.595470"><ele>458.837</ele><time>2022-09-17T14:07:38Z</time></trkpt><trkpt lat="49.980958" lon="5.595639"><ele>458.387</ele><time>2022-09-17T14:07:39Z</time></trkpt><trkpt lat="49.980925" lon="5.595828"><ele>457.659</ele><time>2022-09-17T14:07:40Z</time></trkpt><trkpt lat="49.980899" lon="5.596006"><ele>456.895</ele><time>2022-09-17T14:07:41Z</time></trkpt><trkpt lat="49.980866" lon="5.596189"><ele>456.020</ele><time>2022-09-17T14:07:42Z</time></trkpt><trkpt lat="49.980830" lon="5.596367"><ele>455.115</ele><time>2022-09-17T14:07:43Z</time></trkpt><trkpt lat="49.980797" lon="5.596528"><ele>454.210</ele><time>2022-09-17T14:07:44Z</time></trkpt><trkpt lat="49.980767" lon="5.596677"><ele>453.634</ele><time>2022-09-17T14:07:45Z</time></trkpt><trkpt lat="49.980733" lon="5.596815"><ele>453.331</ele><time>2022-09-17T14:07:46Z</time></trkpt><trkpt lat="49.980700" lon="5.596947"><ele>452.923</ele><time>2022-09-17T14:07:47Z</time></trkpt><trkpt lat="49.980670" lon="5.597102"><ele>452.883</ele><time>2022-09-17T14:07:48Z</time></trkpt><trkpt lat="49.980658" lon="5.597251"><ele>452.511</ele><time>2022-09-17T14:07:49Z</time></trkpt><trkpt lat="49.980673" lon="5.597424"><ele>452.209</ele><time>2022-09-17T14:07:50Z</time></trkpt><trkpt lat="49.980711" lon="5.597607"><ele>451.613</ele><time>2022-09-17T14:07:51Z</time></trkpt><trkpt lat="49.980772" lon="5.597778"><ele>451.333</ele><time>2022-09-17T14:07:52Z</time></trkpt><trkpt lat="49.980833" lon="5.597962"><ele>450.745</ele><time>2022-09-17T14:07:53Z</time></trkpt><trkpt lat="49.980876" lon="5.598133"><ele>450.361</ele><time>2022-09-17T14:07:54Z</time></trkpt><trkpt lat="49.980916" lon="5.598307"><ele>449.996</ele><time>2022-09-17T14:07:55Z</time></trkpt><trkpt lat="49.980946" lon="5.598458"><ele>449.861</ele><time>2022-09-17T14:07:56Z</time></trkpt><trkpt lat="49.980983" lon="5.598591"><ele>449.496</ele><time>2022-09-17T14:07:57Z</time></trkpt><trkpt lat="49.981026" lon="5.598704"><ele>449.430</ele><time>2022-09-17T14:07:58Z</time></trkpt><trkpt lat="49.981061" lon="5.598784"><ele>449.437</ele><time>2022-09-17T14:07:59Z</time></trkpt><trkpt lat="49.981096" lon="5.598840"><ele>449.738</ele><time>2022-09-17T14:08:00Z</time></trkpt><trkpt lat="49.981130" lon="5.598894"><ele>449.970</ele><time>2022-09-17T14:08:01Z</time></trkpt><trkpt lat="49.981135" lon="5.598984"><ele>450.117</ele><time>2022-09-17T14:08:03Z</time></trkpt><trkpt lat="49.981080" lon="5.599040"><ele>450.509</ele><time>2022-09-17T14:08:04Z</time></trkpt><trkpt lat="49.981032" lon="5.599123"><ele>451.064</ele><time>2022-09-17T14:08:05Z</time></trkpt><trkpt lat="49.980954" lon="5.599231"><ele>451.164</ele><time>2022-09-17T14:08:06Z</time></trkpt><trkpt lat="49.980871" lon="5.599332"><ele>451.236</ele><time>2022-09-17T14:08:07Z</time></trkpt><trkpt lat="49.980769" lon="5.599443"><ele>451.592</ele><time>2022-09-17T14:08:08Z</time></trkpt><trkpt lat="49.980677" lon="5.599585"><ele>451.997</ele><time>2022-09-17T14:08:09Z</time></trkpt><trkpt lat="49.980597" lon="5.599735"><ele>452.452</ele><time>2022-09-17T14:08:10Z</time></trkpt><trkpt lat="49.980524" lon="5.599891"><ele>453.287</ele><time>2022-09-17T14:08:11Z</time></trkpt><trkpt lat="49.980452" lon="5.600053"><ele>453.971</ele><time>2022-09-17T14:08:12Z</time></trkpt><trkpt lat="49.980386" lon="5.600199"><ele>454.638</ele><time>2022-09-17T14:08:13Z</time></trkpt><trkpt lat="49.980306" lon="5.600348"><ele>455.577</ele><time>2022-09-17T14:08:14Z</time></trkpt><trkpt lat="49.980217" lon="5.600501"><ele>456.161</ele><time>2022-09-17T14:08:15Z</time></trkpt><trkpt lat="49.980130" lon="5.600638"><ele>456.727</ele><time>2022-09-17T14:08:16Z</time></trkpt><trkpt lat="49.980035" lon="5.600775"><ele>457.209</ele><time>2022-09-17T14:08:17Z</time></trkpt><trkpt lat="49.979936" lon="5.600904"><ele>457.728</ele><time>2022-09-17T14:08:18Z</time></trkpt><trkpt lat="49.979836" lon="5.601039"><ele>458.098</ele><time>2022-09-17T14:08:19Z</time></trkpt><trkpt lat="49.979729" lon="5.601168"><ele>458.540</ele><time>2022-09-17T14:08:20Z</time></trkpt><trkpt lat="49.979621" lon="5.601297"><ele>459.526</ele><time>2022-09-17T14:08:21Z</time></trkpt><trkpt lat="49.979507" lon="5.601422"><ele>460.311</ele><time>2022-09-17T14:08:22Z</time></trkpt><trkpt lat="49.979378" lon="5.601540"><ele>461.196</ele><time>2022-09-17T14:08:23Z</time></trkpt><trkpt lat="49.979192" lon="5.601524"><ele>461.991</ele><time>2022-09-17T14:08:24Z</time></trkpt><trkpt lat="49.979075" lon="5.601648"><ele>462.695</ele><time>2022-09-17T14:08:25Z</time></trkpt><trkpt lat="49.978952" lon="5.601787"><ele>463.172</ele><time>2022-09-17T14:08:26Z</time></trkpt><trkpt lat="49.978839" lon="5.601951"><ele>463.336</ele><time>2022-09-17T14:08:27Z</time></trkpt><trkpt lat="49.978736" lon="5.602156"><ele>463.317</ele><time>2022-09-17T14:08:28Z</time></trkpt><trkpt lat="49.978654" lon="5.602347"><ele>463.018</ele><time>2022-09-17T14:08:29Z</time></trkpt><trkpt lat="49.978578" lon="5.602538"><ele>462.509</ele><time>2022-09-17T14:08:30Z</time></trkpt><trkpt lat="49.978509" lon="5.602721"><ele>462.374</ele><time>2022-09-17T14:08:31Z</time></trkpt><trkpt lat="49.978454" lon="5.602868"><ele>462.314</ele><time>2022-09-17T14:08:32Z</time></trkpt><trkpt lat="49.978398" lon="5.603020"><ele>461.996</ele><time>2022-09-17T14:08:33Z</time></trkpt><trkpt lat="49.978367" lon="5.603104"><ele>461.492</ele><time>2022-09-17T14:08:34Z</time></trkpt><trkpt lat="49.978326" lon="5.603139"><ele>461.277</ele><time>2022-09-17T14:08:36Z</time></trkpt><trkpt lat="49.978251" lon="5.603092"><ele>460.862</ele><time>2022-09-17T14:08:37Z</time></trkpt><trkpt lat="49.978147" lon="5.603026"><ele>460.617</ele><time>2022-09-17T14:08:38Z</time></trkpt><trkpt lat="49.978026" lon="5.602927"><ele>460.671</ele><time>2022-09-17T14:08:39Z</time></trkpt><trkpt lat="49.977902" lon="5.602823"><ele>461.188</ele><time>2022-09-17T14:08:40Z</time></trkpt><trkpt lat="49.977793" lon="5.602727"><ele>461.262</ele><time>2022-09-17T14:08:41Z</time></trkpt><trkpt lat="49.977689" lon="5.602644"><ele>461.483</ele><time>2022-09-17T14:08:42Z</time></trkpt><trkpt lat="49.977605" lon="5.602555"><ele>461.411</ele><time>2022-09-17T14:08:43Z</time></trkpt><trkpt lat="49.977534" lon="5.602476"><ele>461.209</ele><time>2022-09-17T14:08:44Z</time></trkpt><trkpt lat="49.977463" lon="5.602391"><ele>461.027</ele><time>2022-09-17T14:08:45Z</time></trkpt><trkpt lat="49.977400" lon="5.602300"><ele>461.177</ele><time>2022-09-17T14:08:46Z</time></trkpt><trkpt lat="49.977341" lon="5.602214"><ele>461.149</ele><time>2022-09-17T14:08:47Z</time></trkpt><trkpt lat="49.977284" lon="5.602126"><ele>461.595</ele><time>2022-09-17T14:08:48Z</time></trkpt><trkpt lat="49.977228" lon="5.602035"><ele>462.220</ele><time>2022-09-17T14:08:49Z</time></trkpt><trkpt lat="49.977179" lon="5.601960"><ele>462.955</ele><time>2022-09-17T14:08:50Z</time></trkpt><trkpt lat="49.977133" lon="5.601883"><ele>463.420</ele><time>2022-09-17T14:08:51Z</time></trkpt><trkpt lat="49.977089" lon="5.601820"><ele>463.784</ele><time>2022-09-17T14:08:52Z</time></trkpt><trkpt lat="49.977040" lon="5.601755"><ele>463.831</ele><time>2022-09-17T14:08:53Z</time></trkpt><trkpt lat="49.976994" lon="5.601699"><ele>464.168</ele><time>2022-09-17T14:08:54Z</time></trkpt><trkpt lat="49.976950" lon="5.601652"><ele>464.442</ele><time>2022-09-17T14:08:55Z</time></trkpt><trkpt lat="49.976906" lon="5.601612"><ele>464.926</ele><time>2022-09-17T14:08:56Z</time></trkpt><trkpt lat="49.976859" lon="5.601550"><ele>465.409</ele><time>2022-09-17T14:08:57Z</time></trkpt><trkpt lat="49.976804" lon="5.601480"><ele>466.077</ele><time>2022-09-17T14:08:58Z</time></trkpt><trkpt lat="49.976733" lon="5.601394"><ele>466.837</ele><time>2022-09-17T14:08:59Z</time></trkpt><trkpt lat="49.976654" lon="5.601302"><ele>467.369</ele><time>2022-09-17T14:09:00Z</time></trkpt><trkpt lat="49.976571" lon="5.601209"><ele>467.655</ele><time>2022-09-17T14:09:01Z</time></trkpt><trkpt lat="49.976485" lon="5.601101"><ele>467.720</ele><time>2022-09-17T14:09:02Z</time></trkpt><trkpt lat="49.976402" lon="5.600986"><ele>467.795</ele><time>2022-09-17T14:09:03Z</time></trkpt><trkpt lat="49.976325" lon="5.600873"><ele>467.720</ele><time>2022-09-17T14:09:04Z</time></trkpt><trkpt lat="49.976245" lon="5.600748"><ele>467.884</ele><time>2022-09-17T14:09:05Z</time></trkpt><trkpt lat="49.976164" lon="5.600616"><ele>468.241</ele><time>2022-09-17T14:09:06Z</time></trkpt><trkpt lat="49.976075" lon="5.600473"><ele>468.724</ele><time>2022-09-17T14:09:07Z</time></trkpt><trkpt lat="49.975988" lon="5.600334"><ele>469.204</ele><time>2022-09-17T14:09:08Z</time></trkpt><trkpt lat="49.975895" lon="5.600179"><ele>469.714</ele><time>2022-09-17T14:09:09Z</time></trkpt><trkpt lat="49.975789" lon="5.600026"><ele>470.009</ele><time>2022-09-17T14:09:10Z</time></trkpt><trkpt lat="49.975687" lon="5.599859"><ele>470.313</ele><time>2022-09-17T14:09:11Z</time></trkpt><trkpt lat="49.975586" lon="5.599701"><ele>470.693</ele><time>2022-09-17T14:09:12Z</time></trkpt><trkpt lat="49.975495" lon="5.599561"><ele>470.755</ele><time>2022-09-17T14:09:13Z</time></trkpt><trkpt lat="49.975410" lon="5.599416"><ele>470.781</ele><time>2022-09-17T14:09:14Z</time></trkpt><trkpt lat="49.975316" lon="5.599274"><ele>470.776</ele><time>2022-09-17T14:09:15Z</time></trkpt><trkpt lat="49.975220" lon="5.599114"><ele>471.051</ele><time>2022-09-17T14:09:16Z</time></trkpt><trkpt lat="49.975120" lon="5.598953"><ele>471.156</ele><time>2022-09-17T14:09:17Z</time></trkpt><trkpt lat="49.975024" lon="5.598799"><ele>471.360</ele><time>2022-09-17T14:09:18Z</time></trkpt><trkpt lat="49.974934" lon="5.598643"><ele>471.977</ele><time>2022-09-17T14:09:19Z</time></trkpt><trkpt lat="49.974847" lon="5.598493"><ele>472.438</ele><time>2022-09-17T14:09:20Z</time></trkpt><trkpt lat="49.974759" lon="5.598348"><ele>472.970</ele><time>2022-09-17T14:09:21Z</time></trkpt><trkpt lat="49.974670" lon="5.598194"><ele>473.617</ele><time>2022-09-17T14:09:22Z</time></trkpt><trkpt lat="49.974585" lon="5.598043"><ele>474.009</ele><time>2022-09-17T14:09:23Z</time></trkpt><trkpt lat="49.974500" lon="5.597876"><ele>475.064</ele><time>2022-09-17T14:09:24Z</time></trkpt><trkpt lat="49.974416" lon="5.597699"><ele>475.114</ele><time>2022-09-17T14:09:25Z</time></trkpt><trkpt lat="49.974325" lon="5.597521"><ele>475.296</ele><time>2022-09-17T14:09:26Z</time></trkpt><trkpt lat="49.974237" lon="5.597343"><ele>475.532</ele><time>2022-09-17T14:09:27Z</time></trkpt><trkpt lat="49.974147" lon="5.597168"><ele>475.967</ele><time>2022-09-17T14:09:28Z</time></trkpt><trkpt lat="49.974052" lon="5.596990"><ele>476.412</ele><time>2022-09-17T14:09:29Z</time></trkpt><trkpt lat="49.973959" lon="5.596820"><ele>477.327</ele><time>2022-09-17T14:09:30Z</time></trkpt><trkpt lat="49.973863" lon="5.596661"><ele>478.231</ele><time>2022-09-17T14:09:31Z</time></trkpt><trkpt lat="49.973771" lon="5.596503"><ele>478.818</ele><time>2022-09-17T14:09:32Z</time></trkpt><trkpt lat="49.973682" lon="5.596358"><ele>479.123</ele><time>2022-09-17T14:09:33Z</time></trkpt><trkpt lat="49.973591" lon="5.596220"><ele>479.383</ele><time>2022-09-17T14:09:34Z</time></trkpt><trkpt lat="49.973494" lon="5.596083"><ele>479.311</ele><time>2022-09-17T14:09:35Z</time></trkpt><trkpt lat="49.973396" lon="5.595957"><ele>479.109</ele><time>2022-09-17T14:09:36Z</time></trkpt><trkpt lat="49.973302" lon="5.595825"><ele>479.133</ele><time>2022-09-17T14:09:37Z</time></trkpt><trkpt lat="49.973204" lon="5.595696"><ele>479.823</ele><time>2022-09-17T14:09:38Z</time></trkpt><trkpt lat="49.973109" lon="5.595554"><ele>479.965</ele><time>2022-09-17T14:09:39Z</time></trkpt><trkpt lat="49.973010" lon="5.595424"><ele>481.061</ele><time>2022-09-17T14:09:40Z</time></trkpt><trkpt lat="49.972910" lon="5.595288"><ele>481.996</ele><time>2022-09-17T14:09:41Z</time></trkpt><trkpt lat="49.972808" lon="5.595148"><ele>482.911</ele><time>2022-09-17T14:09:42Z</time></trkpt><trkpt lat="49.972718" lon="5.595017"><ele>483.076</ele><time>2022-09-17T14:09:43Z</time></trkpt><trkpt lat="49.972637" lon="5.594880"><ele>483.230</ele><time>2022-09-17T14:09:44Z</time></trkpt><trkpt lat="49.972557" lon="5.594725"><ele>483.697</ele><time>2022-09-17T14:09:45Z</time></trkpt><trkpt lat="49.972484" lon="5.594568"><ele>484.542</ele><time>2022-09-17T14:09:46Z</time></trkpt><trkpt lat="49.972416" lon="5.594414"><ele>484.922</ele><time>2022-09-17T14:09:47Z</time></trkpt><trkpt lat="49.972352" lon="5.594243"><ele>485.914</ele><time>2022-09-17T14:09:48Z</time></trkpt><trkpt lat="49.972297" lon="5.594093"><ele>486.509</ele><time>2022-09-17T14:09:49Z</time></trkpt><trkpt lat="49.972238" lon="5.593937"><ele>486.745</ele><time>2022-09-17T14:09:50Z</time></trkpt><trkpt lat="49.972186" lon="5.593802"><ele>486.765</ele><time>2022-09-17T14:09:51Z</time></trkpt><trkpt lat="49.972122" lon="5.593637"><ele>486.737</ele><time>2022-09-17T14:09:52Z</time></trkpt><trkpt lat="49.972083" lon="5.593471"><ele>487.073</ele><time>2022-09-17T14:09:53Z</time></trkpt><trkpt lat="49.972059" lon="5.593273"><ele>487.598</ele><time>2022-09-17T14:09:54Z</time></trkpt><trkpt lat="49.972031" lon="5.593072"><ele>488.053</ele><time>2022-09-17T14:09:55Z</time></trkpt><trkpt lat="49.971997" lon="5.592870"><ele>489.418</ele><time>2022-09-17T14:09:56Z</time></trkpt><trkpt lat="49.971966" lon="5.592674"><ele>490.482</ele><time>2022-09-17T14:09:57Z</time></trkpt><trkpt lat="49.971934" lon="5.592463"><ele>490.839</ele><time>2022-09-17T14:09:58Z</time></trkpt><trkpt lat="49.971903" lon="5.592250"><ele>490.934</ele><time>2022-09-17T14:09:59Z</time></trkpt><trkpt lat="49.971871" lon="5.592040"><ele>490.955</ele><time>2022-09-17T14:10:00Z</time></trkpt><trkpt lat="49.971841" lon="5.591829"><ele>490.910</ele><time>2022-09-17T14:10:01Z</time></trkpt><trkpt lat="49.971811" lon="5.591642"><ele>490.909</ele><time>2022-09-17T14:10:02Z</time></trkpt><trkpt lat="49.971783" lon="5.591447"><ele>490.884</ele><time>2022-09-17T14:10:03Z</time></trkpt><trkpt lat="49.971763" lon="5.591259"><ele>490.584</ele><time>2022-09-17T14:10:04Z</time></trkpt><trkpt lat="49.971736" lon="5.591103"><ele>490.356</ele><time>2022-09-17T14:10:05Z</time></trkpt><trkpt lat="49.971718" lon="5.590961"><ele>490.022</ele><time>2022-09-17T14:10:06Z</time></trkpt><trkpt lat="49.971704" lon="5.590851"><ele>490.147</ele><time>2022-09-17T14:10:07Z</time></trkpt><trkpt lat="49.971693" lon="5.590736"><ele>490.212</ele><time>2022-09-17T14:10:09Z</time></trkpt><trkpt lat="49.971644" lon="5.590740"><ele>491.587</ele><time>2022-09-17T14:10:11Z</time></trkpt><trkpt lat="49.971643" lon="5.590842"><ele>492.611</ele><time>2022-09-17T14:10:29Z</time></trkpt><trkpt lat="49.971622" lon="5.590940"><ele>494.828</ele><time>2022-09-17T14:10:30Z</time></trkpt><trkpt lat="49.971599" lon="5.591067"><ele>496.653</ele><time>2022-09-17T14:10:31Z</time></trkpt><trkpt lat="49.971562" lon="5.591214"><ele>496.704</ele><time>2022-09-17T14:10:32Z</time></trkpt><trkpt lat="49.971511" lon="5.591399"><ele>496.714</ele><time>2022-09-17T14:10:33Z</time></trkpt><trkpt lat="49.971460" lon="5.591611"><ele>496.609</ele><time>2022-09-17T14:10:34Z</time></trkpt><trkpt lat="49.971402" lon="5.591871"><ele>496.536</ele><time>2022-09-17T14:10:35Z</time></trkpt><trkpt lat="49.971341" lon="5.592128"><ele>496.456</ele><time>2022-09-17T14:10:36Z</time></trkpt><trkpt lat="49.971282" lon="5.592333"><ele>496.258</ele><time>2022-09-17T14:10:37Z</time></trkpt><trkpt lat="49.971222" lon="5.592530"><ele>496.114</ele><time>2022-09-17T14:10:38Z</time></trkpt><trkpt lat="49.971158" lon="5.592745"><ele>496.399</ele><time>2022-09-17T14:10:39Z</time></trkpt><trkpt lat="49.971101" lon="5.592937"><ele>496.714</ele><time>2022-09-17T14:10:40Z</time></trkpt><trkpt lat="49.971054" lon="5.593120"><ele>497.059</ele><time>2022-09-17T14:10:41Z</time></trkpt><trkpt lat="49.971008" lon="5.593284"><ele>497.343</ele><time>2022-09-17T14:10:42Z</time></trkpt><trkpt lat="49.970969" lon="5.593434"><ele>498.390</ele><time>2022-09-17T14:10:43Z</time></trkpt><trkpt lat="49.970927" lon="5.593600"><ele>498.983</ele><time>2022-09-17T14:10:44Z</time></trkpt><trkpt lat="49.970894" lon="5.593746"><ele>499.425</ele><time>2022-09-17T14:10:45Z</time></trkpt><trkpt lat="49.970860" lon="5.593898"><ele>499.517</ele><time>2022-09-17T14:10:46Z</time></trkpt><trkpt lat="49.970828" lon="5.594043"><ele>499.809</ele><time>2022-09-17T14:10:47Z</time></trkpt><trkpt lat="49.970810" lon="5.594186"><ele>499.859</ele><time>2022-09-17T14:10:48Z</time></trkpt><trkpt lat="49.970790" lon="5.594320"><ele>499.619</ele><time>2022-09-17T14:10:49Z</time></trkpt><trkpt lat="49.970765" lon="5.594466"><ele>499.271</ele><time>2022-09-17T14:10:50Z</time></trkpt><trkpt lat="49.970731" lon="5.594626"><ele>499.047</ele><time>2022-09-17T14:10:51Z</time></trkpt><trkpt lat="49.970695" lon="5.594778"><ele>498.662</ele><time>2022-09-17T14:10:52Z</time></trkpt><trkpt lat="49.970656" lon="5.594921"><ele>498.597</ele><time>2022-09-17T14:10:53Z</time></trkpt><trkpt lat="49.970617" lon="5.595056"><ele>498.442</ele><time>2022-09-17T14:10:54Z</time></trkpt><trkpt lat="49.970574" lon="5.595195"><ele>498.456</ele><time>2022-09-17T14:10:55Z</time></trkpt><trkpt lat="49.970531" lon="5.595337"><ele>498.423</ele><time>2022-09-17T14:10:56Z</time></trkpt><trkpt lat="49.970488" lon="5.595463"><ele>498.591</ele><time>2022-09-17T14:10:57Z</time></trkpt><trkpt lat="49.970446" lon="5.595570"><ele>498.681</ele><time>2022-09-17T14:10:58Z</time></trkpt><trkpt lat="49.970401" lon="5.595658"><ele>498.619</ele><time>2022-09-17T14:10:59Z</time></trkpt><trkpt lat="49.970357" lon="5.595730"><ele>498.609</ele><time>2022-09-17T14:11:00Z</time></trkpt><trkpt lat="49.970302" lon="5.595809"><ele>498.750</ele><time>2022-09-17T14:11:01Z</time></trkpt><trkpt lat="49.970249" lon="5.595887"><ele>498.890</ele><time>2022-09-17T14:11:02Z</time></trkpt><trkpt lat="49.970191" lon="5.595964"><ele>498.972</ele><time>2022-09-17T14:11:03Z</time></trkpt><trkpt lat="49.970128" lon="5.596053"><ele>499.118</ele><time>2022-09-17T14:11:04Z</time></trkpt><trkpt lat="49.970064" lon="5.596138"><ele>499.223</ele><time>2022-09-17T14:11:05Z</time></trkpt><trkpt lat="49.969997" lon="5.596228"><ele>499.298</ele><time>2022-09-17T14:11:06Z</time></trkpt><trkpt lat="49.969927" lon="5.596322"><ele>499.223</ele><time>2022-09-17T14:11:07Z</time></trkpt><trkpt lat="49.969856" lon="5.596425"><ele>499.227</ele><time>2022-09-17T14:11:08Z</time></trkpt><trkpt lat="49.969786" lon="5.596535"><ele>499.254</ele><time>2022-09-17T14:11:09Z</time></trkpt><trkpt lat="49.969710" lon="5.596647"><ele>499.324</ele><time>2022-09-17T14:11:10Z</time></trkpt><trkpt lat="49.969622" lon="5.596767"><ele>499.304</ele><time>2022-09-17T14:11:11Z</time></trkpt><trkpt lat="49.969529" lon="5.596899"><ele>499.414</ele><time>2022-09-17T14:11:12Z</time></trkpt><trkpt lat="49.969429" lon="5.597035"><ele>499.409</ele><time>2022-09-17T14:11:13Z</time></trkpt><trkpt lat="49.969322" lon="5.597181"><ele>499.273</ele><time>2022-09-17T14:11:14Z</time></trkpt><trkpt lat="49.969210" lon="5.597328"><ele>499.043</ele><time>2022-09-17T14:11:15Z</time></trkpt><trkpt lat="49.969095" lon="5.597463"><ele>498.815</ele><time>2022-09-17T14:11:16Z</time></trkpt><trkpt lat="49.968980" lon="5.597590"><ele>498.571</ele><time>2022-09-17T14:11:17Z</time></trkpt><trkpt lat="49.968865" lon="5.597705"><ele>498.336</ele><time>2022-09-17T14:11:18Z</time></trkpt><trkpt lat="49.968751" lon="5.597813"><ele>498.271</ele><time>2022-09-17T14:11:19Z</time></trkpt><trkpt lat="49.968643" lon="5.597906"><ele>498.186</ele><time>2022-09-17T14:11:20Z</time></trkpt><trkpt lat="49.968541" lon="5.597986"><ele>498.160</ele><time>2022-09-17T14:11:21Z</time></trkpt><trkpt lat="49.968434" lon="5.598074"><ele>498.487</ele><time>2022-09-17T14:11:22Z</time></trkpt><trkpt lat="49.968302" lon="5.598165"><ele>498.821</ele><time>2022-09-17T14:11:23Z</time></trkpt><trkpt lat="49.968164" lon="5.598258"><ele>499.341</ele><time>2022-09-17T14:11:24Z</time></trkpt><trkpt lat="49.968024" lon="5.598343"><ele>499.705</ele><time>2022-09-17T14:11:25Z</time></trkpt><trkpt lat="49.967874" lon="5.598430"><ele>500.009</ele><time>2022-09-17T14:11:26Z</time></trkpt><trkpt lat="49.967728" lon="5.598505"><ele>500.243</ele><time>2022-09-17T14:11:27Z</time></trkpt><trkpt lat="49.967581" lon="5.598599"><ele>500.463</ele><time>2022-09-17T14:11:28Z</time></trkpt><trkpt lat="49.967437" lon="5.598684"><ele>500.615</ele><time>2022-09-17T14:11:29Z</time></trkpt><trkpt lat="49.967302" lon="5.598757"><ele>500.741</ele><time>2022-09-17T14:11:30Z</time></trkpt><trkpt lat="49.967162" lon="5.598830"><ele>501.026</ele><time>2022-09-17T14:11:31Z</time></trkpt><trkpt lat="49.967033" lon="5.598890"><ele>501.361</ele><time>2022-09-17T14:11:32Z</time></trkpt><trkpt lat="49.966915" lon="5.598947"><ele>501.436</ele><time>2022-09-17T14:11:33Z</time></trkpt><trkpt lat="49.966810" lon="5.599005"><ele>501.530</ele><time>2022-09-17T14:11:34Z</time></trkpt><trkpt lat="49.966717" lon="5.599054"><ele>502.077</ele><time>2022-09-17T14:11:35Z</time></trkpt><trkpt lat="49.966636" lon="5.599099"><ele>502.515</ele><time>2022-09-17T14:11:36Z</time></trkpt><trkpt lat="49.966564" lon="5.599130"><ele>502.665</ele><time>2022-09-17T14:11:37Z</time></trkpt><trkpt lat="49.966499" lon="5.599159"><ele>503.011</ele><time>2022-09-17T14:11:38Z</time></trkpt><trkpt lat="49.966421" lon="5.599194"><ele>503.509</ele><time>2022-09-17T14:11:39Z</time></trkpt><trkpt lat="49.966315" lon="5.599230"><ele>504.052</ele><time>2022-09-17T14:11:40Z</time></trkpt><trkpt lat="49.966182" lon="5.599291"><ele>504.312</ele><time>2022-09-17T14:11:41Z</time></trkpt><trkpt lat="49.966034" lon="5.599400"><ele>504.414</ele><time>2022-09-17T14:11:42Z</time></trkpt><trkpt lat="49.965881" lon="5.599535"><ele>504.330</ele><time>2022-09-17T14:11:43Z</time></trkpt><trkpt lat="49.965725" lon="5.599679"><ele>504.175</ele><time>2022-09-17T14:11:44Z</time></trkpt><trkpt lat="49.965568" lon="5.599823"><ele>503.850</ele><time>2022-09-17T14:11:45Z</time></trkpt><trkpt lat="49.965411" lon="5.599958"><ele>503.595</ele><time>2022-09-17T14:11:46Z</time></trkpt><trkpt lat="49.965240" lon="5.600061"><ele>503.259</ele><time>2022-09-17T14:11:47Z</time></trkpt><trkpt lat="49.965081" lon="5.600167"><ele>502.866</ele><time>2022-09-17T14:11:48Z</time></trkpt><trkpt lat="49.964934" lon="5.600273"><ele>502.571</ele><time>2022-09-17T14:11:49Z</time></trkpt><trkpt lat="49.964794" lon="5.600372"><ele>502.641</ele><time>2022-09-17T14:11:50Z</time></trkpt><trkpt lat="49.964647" lon="5.600467"><ele>502.915</ele><time>2022-09-17T14:11:51Z</time></trkpt><trkpt lat="49.964482" lon="5.600554"><ele>503.609</ele><time>2022-09-17T14:11:52Z</time></trkpt><trkpt lat="49.964322" lon="5.600630"><ele>504.578</ele><time>2022-09-17T14:11:53Z</time></trkpt><trkpt lat="49.964167" lon="5.600709"><ele>505.128</ele><time>2022-09-17T14:11:54Z</time></trkpt><trkpt lat="49.964019" lon="5.600800"><ele>505.260</ele><time>2022-09-17T14:11:55Z</time></trkpt><trkpt lat="49.963884" lon="5.600900"><ele>505.176</ele><time>2022-09-17T14:11:56Z</time></trkpt><trkpt lat="49.963746" lon="5.601012"><ele>505.011</ele><time>2022-09-17T14:11:57Z</time></trkpt><trkpt lat="49.963614" lon="5.601139"><ele>505.026</ele><time>2022-09-17T14:11:58Z</time></trkpt><trkpt lat="49.963482" lon="5.601275"><ele>505.111</ele><time>2022-09-17T14:11:59Z</time></trkpt><trkpt lat="49.963354" lon="5.601419"><ele>505.155</ele><time>2022-09-17T14:12:00Z</time></trkpt><trkpt lat="49.963223" lon="5.601544"><ele>505.252</ele><time>2022-09-17T14:12:01Z</time></trkpt><trkpt lat="49.963089" lon="5.601652"><ele>505.354</ele><time>2022-09-17T14:12:02Z</time></trkpt><trkpt lat="49.962971" lon="5.601750"><ele>505.256</ele><time>2022-09-17T14:12:03Z</time></trkpt><trkpt lat="49.962856" lon="5.601851"><ele>505.111</ele><time>2022-09-17T14:12:04Z</time></trkpt><trkpt lat="49.962753" lon="5.601945"><ele>505.109</ele><time>2022-09-17T14:12:05Z</time></trkpt><trkpt lat="49.962648" lon="5.601998"><ele>505.286</ele><time>2022-09-17T14:12:06Z</time></trkpt><trkpt lat="49.962552" lon="5.602078"><ele>505.926</ele><time>2022-09-17T14:12:07Z</time></trkpt><trkpt lat="49.962464" lon="5.602149"><ele>506.698</ele><time>2022-09-17T14:12:08Z</time></trkpt><trkpt lat="49.962391" lon="5.602191"><ele>507.284</ele><time>2022-09-17T14:12:09Z</time></trkpt><trkpt lat="49.962328" lon="5.602228"><ele>507.579</ele><time>2022-09-17T14:12:10Z</time></trkpt><trkpt lat="49.962238" lon="5.602274"><ele>508.044</ele><time>2022-09-17T14:12:12Z</time></trkpt><trkpt lat="49.962185" lon="5.602313"><ele>508.239</ele><time>2022-09-17T14:12:14Z</time></trkpt><trkpt lat="49.962118" lon="5.602323"><ele>508.443</ele><time>2022-09-17T14:12:21Z</time></trkpt><trkpt lat="49.962068" lon="5.602407"><ele>509.050</ele><time>2022-09-17T14:13:46Z</time></trkpt><trkpt lat="49.962029" lon="5.602453"><ele>509.494</ele><time>2022-09-17T14:13:47Z</time></trkpt><trkpt lat="49.961991" lon="5.602492"><ele>509.857</ele><time>2022-09-17T14:13:48Z</time></trkpt><trkpt lat="49.961929" lon="5.602520"><ele>509.922</ele><time>2022-09-17T14:13:49Z</time></trkpt><trkpt lat="49.961881" lon="5.602536"><ele>509.909</ele><time>2022-09-17T14:13:50Z</time></trkpt><trkpt lat="49.961823" lon="5.602565"><ele>509.920</ele><time>2022-09-17T14:13:51Z</time></trkpt><trkpt lat="49.961762" lon="5.602601"><ele>509.940</ele><time>2022-09-17T14:13:52Z</time></trkpt><trkpt lat="49.961701" lon="5.602640"><ele>509.952</ele><time>2022-09-17T14:13:53Z</time></trkpt><trkpt lat="49.961647" lon="5.602663"><ele>509.968</ele><time>2022-09-17T14:13:54Z</time></trkpt><trkpt lat="49.961591" lon="5.602679"><ele>510.093</ele><time>2022-09-17T14:13:55Z</time></trkpt><trkpt lat="49.961534" lon="5.602710"><ele>510.148</ele><time>2022-09-17T14:13:56Z</time></trkpt><trkpt lat="49.961476" lon="5.602753"><ele>510.113</ele><time>2022-09-17T14:13:57Z</time></trkpt><trkpt lat="49.961422" lon="5.602781"><ele>510.187</ele><time>2022-09-17T14:13:58Z</time></trkpt><trkpt lat="49.961359" lon="5.602813"><ele>510.144</ele><time>2022-09-17T14:13:59Z</time></trkpt><trkpt lat="49.961297" lon="5.602854"><ele>509.955</ele><time>2022-09-17T14:14:00Z</time></trkpt><trkpt lat="49.961236" lon="5.602889"><ele>509.807</ele><time>2022-09-17T14:14:01Z</time></trkpt><trkpt lat="49.961176" lon="5.602920"><ele>509.817</ele><time>2022-09-17T14:14:02Z</time></trkpt><trkpt lat="49.961115" lon="5.602952"><ele>509.809</ele><time>2022-09-17T14:14:03Z</time></trkpt><trkpt lat="49.961056" lon="5.602976"><ele>509.966</ele><time>2022-09-17T14:14:04Z</time></trkpt><trkpt lat="49.960996" lon="5.602996"><ele>510.156</ele><time>2022-09-17T14:14:05Z</time></trkpt><trkpt lat="49.960940" lon="5.603019"><ele>510.438</ele><time>2022-09-17T14:14:06Z</time></trkpt><trkpt lat="49.960880" lon="5.603043"><ele>510.714</ele><time>2022-09-17T14:14:07Z</time></trkpt><trkpt lat="49.960821" lon="5.603072"><ele>511.029</ele><time>2022-09-17T14:14:08Z</time></trkpt><trkpt lat="49.960759" lon="5.603096"><ele>511.134</ele><time>2022-09-17T14:14:09Z</time></trkpt><trkpt lat="49.960696" lon="5.603126"><ele>511.539</ele><time>2022-09-17T14:14:10Z</time></trkpt><trkpt lat="49.960626" lon="5.603159"><ele>511.863</ele><time>2022-09-17T14:14:11Z</time></trkpt><trkpt lat="49.960557" lon="5.603190"><ele>512.450</ele><time>2022-09-17T14:14:12Z</time></trkpt><trkpt lat="49.960492" lon="5.603225"><ele>512.865</ele><time>2022-09-17T14:14:13Z</time></trkpt><trkpt lat="49.960422" lon="5.603264"><ele>513.268</ele><time>2022-09-17T14:14:14Z</time></trkpt><trkpt lat="49.960358" lon="5.603294"><ele>513.614</ele><time>2022-09-17T14:14:15Z</time></trkpt><trkpt lat="49.960292" lon="5.603323"><ele>514.009</ele><time>2022-09-17T14:14:16Z</time></trkpt><trkpt lat="49.960230" lon="5.603358"><ele>514.417</ele><time>2022-09-17T14:14:17Z</time></trkpt><trkpt lat="49.960159" lon="5.603398"><ele>514.977</ele><time>2022-09-17T14:14:18Z</time></trkpt><trkpt lat="49.960086" lon="5.603432"><ele>515.459</ele><time>2022-09-17T14:14:19Z</time></trkpt><trkpt lat="49.960012" lon="5.603463"><ele>515.915</ele><time>2022-09-17T14:14:20Z</time></trkpt><trkpt lat="49.959942" lon="5.603490"><ele>516.460</ele><time>2022-09-17T14:14:21Z</time></trkpt><trkpt lat="49.959882" lon="5.603528"><ele>516.985</ele><time>2022-09-17T14:14:22Z</time></trkpt><trkpt lat="49.959816" lon="5.603562"><ele>517.310</ele><time>2022-09-17T14:14:23Z</time></trkpt><trkpt lat="49.959759" lon="5.603590"><ele>517.464</ele><time>2022-09-17T14:14:24Z</time></trkpt><trkpt lat="49.959696" lon="5.603624"><ele>517.861</ele><time>2022-09-17T14:14:25Z</time></trkpt><trkpt lat="49.959640" lon="5.603660"><ele>518.196</ele><time>2022-09-17T14:14:26Z</time></trkpt><trkpt lat="49.959585" lon="5.603697"><ele>518.431</ele><time>2022-09-17T14:14:27Z</time></trkpt><trkpt lat="49.959541" lon="5.603733"><ele>518.624</ele><time>2022-09-17T14:14:28Z</time></trkpt><trkpt lat="49.959488" lon="5.603764"><ele>518.909</ele><time>2022-09-17T14:14:29Z</time></trkpt><trkpt lat="49.959430" lon="5.603794"><ele>519.160</ele><time>2022-09-17T14:14:30Z</time></trkpt><trkpt lat="49.959377" lon="5.603833"><ele>519.180</ele><time>2022-09-17T14:14:31Z</time></trkpt><trkpt lat="49.959324" lon="5.603858"><ele>519.332</ele><time>2022-09-17T14:14:32Z</time></trkpt><trkpt lat="49.959274" lon="5.603877"><ele>519.388</ele><time>2022-09-17T14:14:33Z</time></trkpt><trkpt lat="49.959219" lon="5.603907"><ele>519.343</ele><time>2022-09-17T14:14:34Z</time></trkpt><trkpt lat="49.959164" lon="5.603936"><ele>519.318</ele><time>2022-09-17T14:14:35Z</time></trkpt><trkpt lat="49.959111" lon="5.603965"><ele>519.343</ele><time>2022-09-17T14:14:36Z</time></trkpt><trkpt lat="49.959059" lon="5.604012"><ele>519.197</ele><time>2022-09-17T14:14:37Z</time></trkpt><trkpt lat="49.959000" lon="5.604059"><ele>518.824</ele><time>2022-09-17T14:14:38Z</time></trkpt><trkpt lat="49.958939" lon="5.604120"><ele>518.525</ele><time>2022-09-17T14:14:39Z</time></trkpt><trkpt lat="49.958865" lon="5.604185"><ele>518.226</ele><time>2022-09-17T14:14:40Z</time></trkpt><trkpt lat="49.958761" lon="5.604254"><ele>518.108</ele><time>2022-09-17T14:14:41Z</time></trkpt><trkpt lat="49.958633" lon="5.604330"><ele>517.909</ele><time>2022-09-17T14:14:42Z</time></trkpt><trkpt lat="49.958497" lon="5.604414"><ele>517.743</ele><time>2022-09-17T14:14:43Z</time></trkpt><trkpt lat="49.958349" lon="5.604491"><ele>517.273</ele><time>2022-09-17T14:14:44Z</time></trkpt><trkpt lat="49.958231" lon="5.604540"><ele>516.285</ele><time>2022-09-17T14:14:45Z</time></trkpt><trkpt lat="49.958124" lon="5.604612"><ele>515.641</ele><time>2022-09-17T14:14:46Z</time></trkpt><trkpt lat="49.958036" lon="5.604671"><ele>514.986</ele><time>2022-09-17T14:14:47Z</time></trkpt><trkpt lat="49.957939" lon="5.604728"><ele>513.951</ele><time>2022-09-17T14:14:48Z</time></trkpt><trkpt lat="49.957841" lon="5.604772"><ele>512.956</ele><time>2022-09-17T14:14:49Z</time></trkpt><trkpt lat="49.957749" lon="5.604806"><ele>512.630</ele><time>2022-09-17T14:14:50Z</time></trkpt><trkpt lat="49.957655" lon="5.604826"><ele>512.687</ele><time>2022-09-17T14:14:51Z</time></trkpt><trkpt lat="49.957557" lon="5.604844"><ele>512.631</ele><time>2022-09-17T14:14:52Z</time></trkpt><trkpt lat="49.957448" lon="5.604856"><ele>512.861</ele><time>2022-09-17T14:14:53Z</time></trkpt><trkpt lat="49.957330" lon="5.604854"><ele>512.907</ele><time>2022-09-17T14:14:54Z</time></trkpt><trkpt lat="49.957185" lon="5.604862"><ele>513.109</ele><time>2022-09-17T14:14:55Z</time></trkpt><trkpt lat="49.957031" lon="5.604848"><ele>513.484</ele><time>2022-09-17T14:14:56Z</time></trkpt><trkpt lat="49.956853" lon="5.604831"><ele>513.824</ele><time>2022-09-17T14:14:57Z</time></trkpt><trkpt lat="49.956678" lon="5.604804"><ele>514.166</ele><time>2022-09-17T14:14:58Z</time></trkpt><trkpt lat="49.956518" lon="5.604757"><ele>514.192</ele><time>2022-09-17T14:14:59Z</time></trkpt><trkpt lat="49.956374" lon="5.604732"><ele>514.157</ele><time>2022-09-17T14:15:00Z</time></trkpt><trkpt lat="49.956267" lon="5.604740"><ele>514.112</ele><time>2022-09-17T14:15:01Z</time></trkpt><trkpt lat="49.956190" lon="5.604762"><ele>514.067</ele><time>2022-09-17T14:15:02Z</time></trkpt><trkpt lat="49.956145" lon="5.604762"><ele>514.091</ele><time>2022-09-17T14:15:03Z</time></trkpt><trkpt lat="49.956120" lon="5.604654"><ele>514.278</ele><time>2022-09-17T14:15:08Z</time></trkpt><trkpt lat="49.956026" lon="5.604617"><ele>515.661</ele><time>2022-09-17T14:15:10Z</time></trkpt><trkpt lat="49.955966" lon="5.604632"><ele>516.821</ele><time>2022-09-17T14:15:11Z</time></trkpt><trkpt lat="49.955907" lon="5.604651"><ele>516.913</ele><time>2022-09-17T14:15:12Z</time></trkpt><trkpt lat="49.955827" lon="5.604661"><ele>516.909</ele><time>2022-09-17T14:15:13Z</time></trkpt><trkpt lat="49.955741" lon="5.604672"><ele>516.887</ele><time>2022-09-17T14:15:14Z</time></trkpt><trkpt lat="49.955642" lon="5.604692"><ele>516.787</ele><time>2022-09-17T14:15:15Z</time></trkpt><trkpt lat="49.955536" lon="5.604687"><ele>516.519</ele><time>2022-09-17T14:15:16Z</time></trkpt><trkpt lat="49.955425" lon="5.604714"><ele>516.565</ele><time>2022-09-17T14:15:17Z</time></trkpt><trkpt lat="49.955315" lon="5.604730"><ele>516.560</ele><time>2022-09-17T14:15:18Z</time></trkpt><trkpt lat="49.955228" lon="5.604706"><ele>516.745</ele><time>2022-09-17T14:15:19Z</time></trkpt><trkpt lat="49.955114" lon="5.604729"><ele>516.890</ele><time>2022-09-17T14:15:20Z</time></trkpt><trkpt lat="49.955002" lon="5.604741"><ele>516.814</ele><time>2022-09-17T14:15:21Z</time></trkpt><trkpt lat="49.954898" lon="5.604718"><ele>516.871</ele><time>2022-09-17T14:15:22Z</time></trkpt><trkpt lat="49.954832" lon="5.604847"><ele>516.752</ele><time>2022-09-17T14:15:23Z</time></trkpt><trkpt lat="49.954769" lon="5.604944"><ele>516.553</ele><time>2022-09-17T14:15:24Z</time></trkpt><trkpt lat="49.954660" lon="5.604964"><ele>516.308</ele><time>2022-09-17T14:15:25Z</time></trkpt><trkpt lat="49.954556" lon="5.604958"><ele>516.109</ele><time>2022-09-17T14:15:26Z</time></trkpt><trkpt lat="49.954476" lon="5.604945"><ele>515.916</ele><time>2022-09-17T14:15:27Z</time></trkpt><trkpt lat="49.954373" lon="5.604914"><ele>515.766</ele><time>2022-09-17T14:15:28Z</time></trkpt><trkpt lat="49.954215" lon="5.604817"><ele>515.548</ele><time>2022-09-17T14:15:29Z</time></trkpt><trkpt lat="49.954082" lon="5.604774"><ele>515.554</ele><time>2022-09-17T14:15:30Z</time></trkpt><trkpt lat="49.953998" lon="5.604728"><ele>515.569</ele><time>2022-09-17T14:15:31Z</time></trkpt><trkpt lat="49.953896" lon="5.604681"><ele>515.434</ele><time>2022-09-17T14:15:32Z</time></trkpt><trkpt lat="49.953824" lon="5.604650"><ele>515.439</ele><time>2022-09-17T14:15:33Z</time></trkpt><trkpt lat="49.953760" lon="5.604643"><ele>515.393</ele><time>2022-09-17T14:15:34Z</time></trkpt><trkpt lat="49.953691" lon="5.604609"><ele>515.140</ele><time>2022-09-17T14:15:35Z</time></trkpt><trkpt lat="49.953625" lon="5.604567"><ele>514.827</ele><time>2022-09-17T14:15:36Z</time></trkpt><trkpt lat="49.953565" lon="5.604511"><ele>514.568</ele><time>2022-09-17T14:15:37Z</time></trkpt><trkpt lat="49.953495" lon="5.604454"><ele>514.414</ele><time>2022-09-17T14:15:38Z</time></trkpt><trkpt lat="49.953436" lon="5.604376"><ele>514.409</ele><time>2022-09-17T14:15:39Z</time></trkpt><trkpt lat="49.953367" lon="5.604326"><ele>514.473</ele><time>2022-09-17T14:15:40Z</time></trkpt><trkpt lat="49.953296" lon="5.604300"><ele>514.463</ele><time>2022-09-17T14:15:41Z</time></trkpt><trkpt lat="49.953226" lon="5.604270"><ele>514.485</ele><time>2022-09-17T14:15:42Z</time></trkpt><trkpt lat="49.953161" lon="5.604247"><ele>514.451</ele><time>2022-09-17T14:15:43Z</time></trkpt><trkpt lat="49.953100" lon="5.604232"><ele>514.486</ele><time>2022-09-17T14:15:44Z</time></trkpt><trkpt lat="49.953042" lon="5.604223"><ele>514.471</ele><time>2022-09-17T14:15:45Z</time></trkpt><trkpt lat="49.952983" lon="5.604212"><ele>514.426</ele><time>2022-09-17T14:15:46Z</time></trkpt><trkpt lat="49.952923" lon="5.604198"><ele>514.490</ele><time>2022-09-17T14:15:47Z</time></trkpt><trkpt lat="49.952854" lon="5.604184"><ele>514.487</ele><time>2022-09-17T14:15:49Z</time></trkpt><trkpt lat="49.952807" lon="5.604181"><ele>514.477</ele><time>2022-09-17T14:16:28Z</time></trkpt><trkpt lat="49.952762" lon="5.604197"><ele>514.461</ele><time>2022-09-17T14:16:30Z</time></trkpt><trkpt lat="49.952686" lon="5.604205"><ele>515.527</ele><time>2022-09-17T14:16:32Z</time></trkpt><trkpt lat="49.952611" lon="5.604171"><ele>515.509</ele><time>2022-09-17T14:16:34Z</time></trkpt><trkpt lat="49.952551" lon="5.604189"><ele>515.518</ele><time>2022-09-17T14:16:38Z</time></trkpt><trkpt lat="49.952603" lon="5.604288"><ele>515.838</ele><time>2022-09-17T14:16:40Z</time></trkpt><trkpt lat="49.952636" lon="5.604349"><ele>516.050</ele><time>2022-09-17T14:16:41Z</time></trkpt><trkpt lat="49.952658" lon="5.604422"><ele>516.136</ele><time>2022-09-17T14:16:42Z</time></trkpt><trkpt lat="49.952674" lon="5.604563"><ele>516.131</ele><time>2022-09-17T14:16:44Z</time></trkpt><trkpt lat="49.952726" lon="5.604686"><ele>515.856</ele><time>2022-09-17T14:16:45Z</time></trkpt><trkpt lat="49.952761" lon="5.604785"><ele>515.331</ele><time>2022-09-17T14:16:46Z</time></trkpt><trkpt lat="49.952829" lon="5.604888"><ele>515.015</ele><time>2022-09-17T14:16:47Z</time></trkpt><trkpt lat="49.952916" lon="5.605030"><ele>514.742</ele><time>2022-09-17T14:16:48Z</time></trkpt><trkpt lat="49.952975" lon="5.605213"><ele>514.762</ele><time>2022-09-17T14:16:49Z</time></trkpt><trkpt lat="49.953009" lon="5.605354"><ele>515.283</ele><time>2022-09-17T14:16:50Z</time></trkpt><trkpt lat="49.953067" lon="5.605478"><ele>515.611</ele><time>2022-09-17T14:16:51Z</time></trkpt><trkpt lat="49.953116" lon="5.605586"><ele>515.709</ele><time>2022-09-17T14:16:52Z</time></trkpt><trkpt lat="49.953180" lon="5.605709"><ele>516.027</ele><time>2022-09-17T14:16:53Z</time></trkpt><trkpt lat="49.953226" lon="5.605847"><ele>516.097</ele><time>2022-09-17T14:16:54Z</time></trkpt><trkpt lat="49.953282" lon="5.606001"><ele>516.089</ele><time>2022-09-17T14:16:55Z</time></trkpt><trkpt lat="49.953345" lon="5.606146"><ele>516.135</ele><time>2022-09-17T14:16:56Z</time></trkpt><trkpt lat="49.953413" lon="5.606265"><ele>516.270</ele><time>2022-09-17T14:16:57Z</time></trkpt><trkpt lat="49.953494" lon="5.606384"><ele>516.265</ele><time>2022-09-17T14:16:58Z</time></trkpt><trkpt lat="49.953563" lon="5.606489"><ele>516.450</ele><time>2022-09-17T14:16:59Z</time></trkpt><trkpt lat="49.953630" lon="5.606604"><ele>516.424</ele><time>2022-09-17T14:17:00Z</time></trkpt><trkpt lat="49.953691" lon="5.606707"><ele>516.731</ele><time>2022-09-17T14:17:01Z</time></trkpt><trkpt lat="49.953749" lon="5.606794"><ele>516.889</ele><time>2022-09-17T14:17:02Z</time></trkpt><trkpt lat="49.953820" lon="5.606880"><ele>516.906</ele><time>2022-09-17T14:17:03Z</time></trkpt><trkpt lat="49.953896" lon="5.606997"><ele>517.326</ele><time>2022-09-17T14:17:04Z</time></trkpt><trkpt lat="49.953971" lon="5.607117"><ele>517.809</ele><time>2022-09-17T14:17:05Z</time></trkpt><trkpt lat="49.954045" lon="5.607230"><ele>518.189</ele><time>2022-09-17T14:17:06Z</time></trkpt><trkpt lat="49.954114" lon="5.607331"><ele>518.459</ele><time>2022-09-17T14:17:07Z</time></trkpt><trkpt lat="49.954193" lon="5.607427"><ele>518.711</ele><time>2022-09-17T14:17:08Z</time></trkpt><trkpt lat="49.954274" lon="5.607525"><ele>519.157</ele><time>2022-09-17T14:17:09Z</time></trkpt><trkpt lat="49.954359" lon="5.607631"><ele>519.562</ele><time>2022-09-17T14:17:10Z</time></trkpt><trkpt lat="49.954451" lon="5.607735"><ele>519.547</ele><time>2022-09-17T14:17:11Z</time></trkpt><trkpt lat="49.954531" lon="5.607840"><ele>519.592</ele><time>2022-09-17T14:17:12Z</time></trkpt><trkpt lat="49.954614" lon="5.607958"><ele>519.876</ele><time>2022-09-17T14:17:13Z</time></trkpt><trkpt lat="49.954687" lon="5.608071"><ele>520.113</ele><time>2022-09-17T14:17:14Z</time></trkpt><trkpt lat="49.954766" lon="5.608194"><ele>520.119</ele><time>2022-09-17T14:17:15Z</time></trkpt><trkpt lat="49.954837" lon="5.608356"><ele>520.209</ele><time>2022-09-17T14:17:16Z</time></trkpt><trkpt lat="49.954922" lon="5.608517"><ele>520.419</ele><time>2022-09-17T14:17:17Z</time></trkpt><trkpt lat="49.954999" lon="5.608691"><ele>520.409</ele><time>2022-09-17T14:17:18Z</time></trkpt><trkpt lat="49.955058" lon="5.608858"><ele>520.452</ele><time>2022-09-17T14:17:19Z</time></trkpt><trkpt lat="49.955103" lon="5.609024"><ele>520.432</ele><time>2022-09-17T14:17:20Z</time></trkpt><trkpt lat="49.955159" lon="5.609185"><ele>520.424</ele><time>2022-09-17T14:17:21Z</time></trkpt><trkpt lat="49.955217" lon="5.609327"><ele>521.050</ele><time>2022-09-17T14:17:22Z</time></trkpt><trkpt lat="49.955280" lon="5.609488"><ele>521.215</ele><time>2022-09-17T14:17:23Z</time></trkpt><trkpt lat="49.955334" lon="5.609651"><ele>522.110</ele><time>2022-09-17T14:17:24Z</time></trkpt><trkpt lat="49.955375" lon="5.609805"><ele>522.955</ele><time>2022-09-17T14:17:25Z</time></trkpt><trkpt lat="49.955433" lon="5.609982"><ele>523.419</ele><time>2022-09-17T14:17:26Z</time></trkpt><trkpt lat="49.955494" lon="5.610138"><ele>523.586</ele><time>2022-09-17T14:17:27Z</time></trkpt><trkpt lat="49.955565" lon="5.610288"><ele>523.518</ele><time>2022-09-17T14:17:28Z</time></trkpt><trkpt lat="49.955635" lon="5.610441"><ele>523.598</ele><time>2022-09-17T14:17:29Z</time></trkpt><trkpt lat="49.955714" lon="5.610558"><ele>523.717</ele><time>2022-09-17T14:17:30Z</time></trkpt><trkpt lat="49.955784" lon="5.610683"><ele>523.709</ele><time>2022-09-17T14:17:31Z</time></trkpt><trkpt lat="49.955851" lon="5.610802"><ele>524.142</ele><time>2022-09-17T14:17:32Z</time></trkpt><trkpt lat="49.955914" lon="5.610921"><ele>524.712</ele><time>2022-09-17T14:17:33Z</time></trkpt><trkpt lat="49.955971" lon="5.611065"><ele>525.244</ele><time>2022-09-17T14:17:34Z</time></trkpt><trkpt lat="49.956031" lon="5.611239"><ele>525.520</ele><time>2022-09-17T14:17:35Z</time></trkpt><trkpt lat="49.956081" lon="5.611396"><ele>525.985</ele><time>2022-09-17T14:17:36Z</time></trkpt><trkpt lat="49.956138" lon="5.611550"><ele>526.170</ele><time>2022-09-17T14:17:37Z</time></trkpt><trkpt lat="49.956206" lon="5.611696"><ele>526.135</ele><time>2022-09-17T14:17:38Z</time></trkpt><trkpt lat="49.956266" lon="5.611834"><ele>526.189</ele><time>2022-09-17T14:17:39Z</time></trkpt><trkpt lat="49.956324" lon="5.611964"><ele>526.156</ele><time>2022-09-17T14:17:40Z</time></trkpt><trkpt lat="49.956380" lon="5.612109"><ele>526.149</ele><time>2022-09-17T14:17:41Z</time></trkpt><trkpt lat="49.956432" lon="5.612264"><ele>526.202</ele><time>2022-09-17T14:17:42Z</time></trkpt><trkpt lat="49.956496" lon="5.612447"><ele>526.822</ele><time>2022-09-17T14:17:43Z</time></trkpt><trkpt lat="49.956553" lon="5.612627"><ele>527.509</ele><time>2022-09-17T14:17:44Z</time></trkpt><trkpt lat="49.956613" lon="5.612800"><ele>528.185</ele><time>2022-09-17T14:17:45Z</time></trkpt><trkpt lat="49.956676" lon="5.612958"><ele>528.765</ele><time>2022-09-17T14:17:46Z</time></trkpt><trkpt lat="49.956745" lon="5.613098"><ele>529.127</ele><time>2022-09-17T14:17:47Z</time></trkpt><trkpt lat="49.956830" lon="5.613242"><ele>529.423</ele><time>2022-09-17T14:17:48Z</time></trkpt><trkpt lat="49.956916" lon="5.613388"><ele>529.478</ele><time>2022-09-17T14:17:49Z</time></trkpt><trkpt lat="49.956996" lon="5.613538"><ele>529.283</ele><time>2022-09-17T14:17:50Z</time></trkpt><trkpt lat="49.957071" lon="5.613689"><ele>528.898</ele><time>2022-09-17T14:17:51Z</time></trkpt><trkpt lat="49.957145" lon="5.613854"><ele>528.442</ele><time>2022-09-17T14:17:52Z</time></trkpt><trkpt lat="49.957195" lon="5.614020"><ele>527.719</ele><time>2022-09-17T14:17:53Z</time></trkpt><trkpt lat="49.957242" lon="5.614199"><ele>527.012</ele><time>2022-09-17T14:17:54Z</time></trkpt><trkpt lat="49.957280" lon="5.614405"><ele>526.532</ele><time>2022-09-17T14:17:55Z</time></trkpt><trkpt lat="49.957300" lon="5.614607"><ele>525.505</ele><time>2022-09-17T14:17:56Z</time></trkpt><trkpt lat="49.957312" lon="5.614808"><ele>525.309</ele><time>2022-09-17T14:17:57Z</time></trkpt><trkpt lat="49.957324" lon="5.615017"><ele>525.092</ele><time>2022-09-17T14:17:58Z</time></trkpt><trkpt lat="49.957335" lon="5.615229"><ele>524.562</ele><time>2022-09-17T14:17:59Z</time></trkpt><trkpt lat="49.957344" lon="5.615444"><ele>524.144</ele><time>2022-09-17T14:18:00Z</time></trkpt><trkpt lat="49.957353" lon="5.615653"><ele>523.710</ele><time>2022-09-17T14:18:01Z</time></trkpt><trkpt lat="49.957365" lon="5.615862"><ele>523.175</ele><time>2022-09-17T14:18:02Z</time></trkpt><trkpt lat="49.957394" lon="5.616046"><ele>522.740</ele><time>2022-09-17T14:18:03Z</time></trkpt><trkpt lat="49.957426" lon="5.616213"><ele>522.165</ele><time>2022-09-17T14:18:04Z</time></trkpt><trkpt lat="49.957453" lon="5.616383"><ele>521.649</ele><time>2022-09-17T14:18:05Z</time></trkpt><trkpt lat="49.957488" lon="5.616570"><ele>521.316</ele><time>2022-09-17T14:18:06Z</time></trkpt><trkpt lat="49.957536" lon="5.616780"><ele>521.295</ele><time>2022-09-17T14:18:07Z</time></trkpt><trkpt lat="49.957585" lon="5.617000"><ele>521.249</ele><time>2022-09-17T14:18:08Z</time></trkpt><trkpt lat="49.957629" lon="5.617214"><ele>521.523</ele><time>2022-09-17T14:18:09Z</time></trkpt><trkpt lat="49.957681" lon="5.617424"><ele>521.809</ele><time>2022-09-17T14:18:10Z</time></trkpt><trkpt lat="49.957737" lon="5.617622"><ele>521.980</ele><time>2022-09-17T14:18:11Z</time></trkpt><trkpt lat="49.957789" lon="5.617813"><ele>522.150</ele><time>2022-09-17T14:18:12Z</time></trkpt><trkpt lat="49.957839" lon="5.618018"><ele>522.382</ele><time>2022-09-17T14:18:13Z</time></trkpt><trkpt lat="49.957875" lon="5.618238"><ele>522.678</ele><time>2022-09-17T14:18:14Z</time></trkpt><trkpt lat="49.957900" lon="5.618467"><ele>523.063</ele><time>2022-09-17T14:18:15Z</time></trkpt><trkpt lat="49.957922" lon="5.618685"><ele>523.498</ele><time>2022-09-17T14:18:16Z</time></trkpt><trkpt lat="49.957939" lon="5.618909"><ele>523.543</ele><time>2022-09-17T14:18:17Z</time></trkpt><trkpt lat="49.957954" lon="5.619124"><ele>523.597</ele><time>2022-09-17T14:18:18Z</time></trkpt><trkpt lat="49.957980" lon="5.619347"><ele>523.294</ele><time>2022-09-17T14:18:19Z</time></trkpt><trkpt lat="49.958005" lon="5.619569"><ele>522.679</ele><time>2022-09-17T14:18:20Z</time></trkpt><trkpt lat="49.958032" lon="5.619801"><ele>522.005</ele><time>2022-09-17T14:18:21Z</time></trkpt><trkpt lat="49.958061" lon="5.620026"><ele>521.425</ele><time>2022-09-17T14:18:22Z</time></trkpt><trkpt lat="49.958086" lon="5.620235"><ele>520.909</ele><time>2022-09-17T14:18:23Z</time></trkpt><trkpt lat="49.958115" lon="5.620418"><ele>520.738</ele><time>2022-09-17T14:18:24Z</time></trkpt><trkpt lat="49.958137" lon="5.620598"><ele>520.338</ele><time>2022-09-17T14:18:25Z</time></trkpt><trkpt lat="49.958149" lon="5.620765"><ele>519.440</ele><time>2022-09-17T14:18:26Z</time></trkpt><trkpt lat="49.958162" lon="5.620930"><ele>518.386</ele><time>2022-09-17T14:18:27Z</time></trkpt><trkpt lat="49.958165" lon="5.621068"><ele>517.671</ele><time>2022-09-17T14:18:28Z</time></trkpt><trkpt lat="49.958174" lon="5.621211"><ele>516.856</ele><time>2022-09-17T14:18:29Z</time></trkpt><trkpt lat="49.958181" lon="5.621334"><ele>516.481</ele><time>2022-09-17T14:18:30Z</time></trkpt><trkpt lat="49.958180" lon="5.621437"><ele>515.855</ele><time>2022-09-17T14:18:31Z</time></trkpt><trkpt lat="49.958203" lon="5.621508"><ele>515.542</ele><time>2022-09-17T14:18:32Z</time></trkpt><trkpt lat="49.958107" lon="5.621535"><ele>515.385</ele><time>2022-09-17T14:18:33Z</time></trkpt><trkpt lat="49.958059" lon="5.621588"><ele>515.089</ele><time>2022-09-17T14:18:34Z</time></trkpt><trkpt lat="49.958009" lon="5.621643"><ele>514.917</ele><time>2022-09-17T14:18:35Z</time></trkpt><trkpt lat="49.957956" lon="5.621659"><ele>514.809</ele><time>2022-09-17T14:18:36Z</time></trkpt><trkpt lat="49.957905" lon="5.621687"><ele>514.849</ele><time>2022-09-17T14:18:37Z</time></trkpt><trkpt lat="49.957844" lon="5.621721"><ele>514.859</ele><time>2022-09-17T14:18:38Z</time></trkpt><trkpt lat="49.957756" lon="5.621768"><ele>515.051</ele><time>2022-09-17T14:18:39Z</time></trkpt><trkpt lat="49.957652" lon="5.621823"><ele>515.417</ele><time>2022-09-17T14:18:40Z</time></trkpt><trkpt lat="49.957545" lon="5.621880"><ele>515.782</ele><time>2022-09-17T14:18:41Z</time></trkpt><trkpt lat="49.957450" lon="5.621930"><ele>515.877</ele><time>2022-09-17T14:18:42Z</time></trkpt><trkpt lat="49.957364" lon="5.621976"><ele>515.882</ele><time>2022-09-17T14:18:43Z</time></trkpt><trkpt lat="49.957295" lon="5.622012"><ele>515.746</ele><time>2022-09-17T14:18:44Z</time></trkpt><trkpt lat="49.957225" lon="5.622049"><ele>515.563</ele><time>2022-09-17T14:18:45Z</time></trkpt><trkpt lat="49.957182" lon="5.622072"><ele>515.111</ele><time>2022-09-17T14:18:46Z</time></trkpt><trkpt lat="49.957111" lon="5.622107"><ele>514.821</ele><time>2022-09-17T14:18:48Z</time></trkpt><trkpt lat="49.957057" lon="5.622117"><ele>514.303</ele><time>2022-09-17T14:19:00Z</time></trkpt><trkpt lat="49.957007" lon="5.622065"><ele>513.709</ele><time>2022-09-17T14:19:01Z</time></trkpt><trkpt lat="49.956945" lon="5.622024"><ele>513.772</ele><time>2022-09-17T14:19:02Z</time></trkpt><trkpt lat="49.956858" lon="5.621914"><ele>513.712</ele><time>2022-09-17T14:19:03Z</time></trkpt><trkpt lat="49.956745" lon="5.621800"><ele>513.764</ele><time>2022-09-17T14:19:04Z</time></trkpt><trkpt lat="49.956605" lon="5.621682"><ele>513.890</ele><time>2022-09-17T14:19:05Z</time></trkpt><trkpt lat="49.956459" lon="5.621511"><ele>514.295</ele><time>2022-09-17T14:19:06Z</time></trkpt><trkpt lat="49.956258" lon="5.621281"><ele>514.970</ele><time>2022-09-17T14:19:07Z</time></trkpt><trkpt lat="49.956069" lon="5.621075"><ele>515.875</ele><time>2022-09-17T14:19:08Z</time></trkpt><trkpt lat="49.955892" lon="5.620891"><ele>516.519</ele><time>2022-09-17T14:19:09Z</time></trkpt><trkpt lat="49.955735" lon="5.620728"><ele>516.956</ele><time>2022-09-17T14:19:10Z</time></trkpt><trkpt lat="49.955547" lon="5.620568"><ele>517.141</ele><time>2022-09-17T14:19:11Z</time></trkpt><trkpt lat="49.955395" lon="5.620412"><ele>516.981</ele><time>2022-09-17T14:19:12Z</time></trkpt><trkpt lat="49.955246" lon="5.620250"><ele>516.509</ele><time>2022-09-17T14:19:13Z</time></trkpt><trkpt lat="49.955097" lon="5.620109"><ele>516.209</ele><time>2022-09-17T14:19:14Z</time></trkpt><trkpt lat="49.954931" lon="5.619973"><ele>515.875</ele><time>2022-09-17T14:19:15Z</time></trkpt><trkpt lat="49.954778" lon="5.619818"><ele>515.565</ele><time>2022-09-17T14:19:16Z</time></trkpt><trkpt lat="49.954632" lon="5.619648"><ele>515.377</ele><time>2022-09-17T14:19:17Z</time></trkpt><trkpt lat="49.954468" lon="5.619481"><ele>515.063</ele><time>2022-09-17T14:19:18Z</time></trkpt><trkpt lat="49.954292" lon="5.619327"><ele>514.728</ele><time>2022-09-17T14:19:19Z</time></trkpt><trkpt lat="49.954133" lon="5.619164"><ele>514.653</ele><time>2022-09-17T14:19:20Z</time></trkpt><trkpt lat="49.953969" lon="5.618987"><ele>514.458</ele><time>2022-09-17T14:19:21Z</time></trkpt><trkpt lat="49.953815" lon="5.618827"><ele>514.182</ele><time>2022-09-17T14:19:22Z</time></trkpt><trkpt lat="49.953657" lon="5.618662"><ele>513.959</ele><time>2022-09-17T14:19:23Z</time></trkpt><trkpt lat="49.953502" lon="5.618499"><ele>513.652</ele><time>2022-09-17T14:19:24Z</time></trkpt><trkpt lat="49.953343" lon="5.618333"><ele>513.453</ele><time>2022-09-17T14:19:25Z</time></trkpt><trkpt lat="49.953186" lon="5.618167"><ele>513.308</ele><time>2022-09-17T14:19:26Z</time></trkpt><trkpt lat="49.953026" lon="5.617996"><ele>513.009</ele><time>2022-09-17T14:19:27Z</time></trkpt><trkpt lat="49.952860" lon="5.617815"><ele>512.476</ele><time>2022-09-17T14:19:28Z</time></trkpt><trkpt lat="49.952695" lon="5.617638"><ele>511.616</ele><time>2022-09-17T14:19:29Z</time></trkpt><trkpt lat="49.952527" lon="5.617458"><ele>510.738</ele><time>2022-09-17T14:19:30Z</time></trkpt><trkpt lat="49.952358" lon="5.617283"><ele>509.574</ele><time>2022-09-17T14:19:31Z</time></trkpt><trkpt lat="49.952191" lon="5.617104"><ele>508.169</ele><time>2022-09-17T14:19:32Z</time></trkpt><trkpt lat="49.952025" lon="5.616931"><ele>506.754</ele><time>2022-09-17T14:19:33Z</time></trkpt><trkpt lat="49.951855" lon="5.616759"><ele>505.319</ele><time>2022-09-17T14:19:34Z</time></trkpt><trkpt lat="49.951679" lon="5.616572"><ele>504.093</ele><time>2022-09-17T14:19:35Z</time></trkpt><trkpt lat="49.951508" lon="5.616391"><ele>503.080</ele><time>2022-09-17T14:19:36Z</time></trkpt><trkpt lat="49.951336" lon="5.616214"><ele>502.425</ele><time>2022-09-17T14:19:37Z</time></trkpt><trkpt lat="49.951167" lon="5.616042"><ele>502.026</ele><time>2022-09-17T14:19:38Z</time></trkpt><trkpt lat="49.951002" lon="5.615864"><ele>501.508</ele><time>2022-09-17T14:19:39Z</time></trkpt><trkpt lat="49.950843" lon="5.615702"><ele>500.709</ele><time>2022-09-17T14:19:40Z</time></trkpt><trkpt lat="49.950690" lon="5.615543"><ele>499.513</ele><time>2022-09-17T14:19:41Z</time></trkpt><trkpt lat="49.950542" lon="5.615388"><ele>498.373</ele><time>2022-09-17T14:19:42Z</time></trkpt><trkpt lat="49.950397" lon="5.615242"><ele>497.175</ele><time>2022-09-17T14:19:43Z</time></trkpt><trkpt lat="49.950259" lon="5.615094"><ele>495.891</ele><time>2022-09-17T14:19:44Z</time></trkpt><trkpt lat="49.950122" lon="5.614954"><ele>494.576</ele><time>2022-09-17T14:19:45Z</time></trkpt><trkpt lat="49.949985" lon="5.614819"><ele>493.191</ele><time>2022-09-17T14:19:46Z</time></trkpt><trkpt lat="49.949850" lon="5.614692"><ele>491.696</ele><time>2022-09-17T14:19:47Z</time></trkpt><trkpt lat="49.949702" lon="5.614571"><ele>490.030</ele><time>2022-09-17T14:19:48Z</time></trkpt><trkpt lat="49.949566" lon="5.614485"><ele>488.637</ele><time>2022-09-17T14:19:49Z</time></trkpt><trkpt lat="49.949421" lon="5.614398"><ele>487.565</ele><time>2022-09-17T14:19:50Z</time></trkpt><trkpt lat="49.949260" lon="5.614307"><ele>486.668</ele><time>2022-09-17T14:19:51Z</time></trkpt><trkpt lat="49.949097" lon="5.614216"><ele>485.814</ele><time>2022-09-17T14:19:52Z</time></trkpt><trkpt lat="49.948939" lon="5.614128"><ele>485.209</ele><time>2022-09-17T14:19:53Z</time></trkpt><trkpt lat="49.948783" lon="5.614037"><ele>484.917</ele><time>2022-09-17T14:19:54Z</time></trkpt><trkpt lat="49.948624" lon="5.613945"><ele>484.717</ele><time>2022-09-17T14:19:55Z</time></trkpt><trkpt lat="49.948468" lon="5.613857"><ele>484.629</ele><time>2022-09-17T14:19:56Z</time></trkpt><trkpt lat="49.948320" lon="5.613774"><ele>484.715</ele><time>2022-09-17T14:19:57Z</time></trkpt><trkpt lat="49.948170" lon="5.613690"><ele>484.920</ele><time>2022-09-17T14:19:58Z</time></trkpt><trkpt lat="49.948022" lon="5.613613"><ele>485.175</ele><time>2022-09-17T14:19:59Z</time></trkpt><trkpt lat="49.947887" lon="5.613538"><ele>485.490</ele><time>2022-09-17T14:20:00Z</time></trkpt><trkpt lat="49.947749" lon="5.613463"><ele>485.784</ele><time>2022-09-17T14:20:01Z</time></trkpt><trkpt lat="49.947607" lon="5.613385"><ele>485.861</ele><time>2022-09-17T14:20:02Z</time></trkpt><trkpt lat="49.947467" lon="5.613306"><ele>485.999</ele><time>2022-09-17T14:20:03Z</time></trkpt><trkpt lat="49.947322" lon="5.613223"><ele>485.907</ele><time>2022-09-17T14:20:04Z</time></trkpt><trkpt lat="49.947178" lon="5.613139"><ele>485.727</ele><time>2022-09-17T14:20:05Z</time></trkpt><trkpt lat="49.947033" lon="5.613059"><ele>485.409</ele><time>2022-09-17T14:20:06Z</time></trkpt><trkpt lat="49.946882" lon="5.612975"><ele>485.150</ele><time>2022-09-17T14:20:07Z</time></trkpt><trkpt lat="49.946726" lon="5.612893"><ele>484.870</ele><time>2022-09-17T14:20:08Z</time></trkpt><trkpt lat="49.946562" lon="5.612807"><ele>484.552</ele><time>2022-09-17T14:20:09Z</time></trkpt><trkpt lat="49.946403" lon="5.612715"><ele>484.288</ele><time>2022-09-17T14:20:10Z</time></trkpt><trkpt lat="49.946248" lon="5.612609"><ele>483.993</ele><time>2022-09-17T14:20:11Z</time></trkpt><trkpt lat="49.946108" lon="5.612499"><ele>483.788</ele><time>2022-09-17T14:20:12Z</time></trkpt><trkpt lat="49.945973" lon="5.612368"><ele>483.443</ele><time>2022-09-17T14:20:13Z</time></trkpt><trkpt lat="49.945838" lon="5.612227"><ele>483.137</ele><time>2022-09-17T14:20:14Z</time></trkpt><trkpt lat="49.945711" lon="5.612084"><ele>483.044</ele><time>2022-09-17T14:20:15Z</time></trkpt><trkpt lat="49.945595" lon="5.611930"><ele>483.036</ele><time>2022-09-17T14:20:16Z</time></trkpt><trkpt lat="49.945489" lon="5.611764"><ele>483.117</ele><time>2022-09-17T14:20:17Z</time></trkpt><trkpt lat="49.945390" lon="5.611591"><ele>483.118</ele><time>2022-09-17T14:20:18Z</time></trkpt><trkpt lat="49.945300" lon="5.611419"><ele>483.009</ele><time>2022-09-17T14:20:19Z</time></trkpt><trkpt lat="49.945203" lon="5.611257"><ele>482.834</ele><time>2022-09-17T14:20:20Z</time></trkpt><trkpt lat="49.945103" lon="5.611097"><ele>482.424</ele><time>2022-09-17T14:20:21Z</time></trkpt><trkpt lat="49.945010" lon="5.610923"><ele>482.186</ele><time>2022-09-17T14:20:22Z</time></trkpt><trkpt lat="49.944912" lon="5.610752"><ele>482.062</ele><time>2022-09-17T14:20:23Z</time></trkpt><trkpt lat="49.944814" lon="5.610588"><ele>482.087</ele><time>2022-09-17T14:20:24Z</time></trkpt><trkpt lat="49.944721" lon="5.610425"><ele>482.192</ele><time>2022-09-17T14:20:25Z</time></trkpt><trkpt lat="49.944621" lon="5.610263"><ele>482.437</ele><time>2022-09-17T14:20:26Z</time></trkpt><trkpt lat="49.944524" lon="5.610101"><ele>482.861</ele><time>2022-09-17T14:20:27Z</time></trkpt><trkpt lat="49.944426" lon="5.609929"><ele>483.168</ele><time>2022-09-17T14:20:28Z</time></trkpt><trkpt lat="49.944325" lon="5.609766"><ele>483.414</ele><time>2022-09-17T14:20:29Z</time></trkpt><trkpt lat="49.944225" lon="5.609602"><ele>483.954</ele><time>2022-09-17T14:20:30Z</time></trkpt><trkpt lat="49.944122" lon="5.609430"><ele>484.609</ele><time>2022-09-17T14:20:31Z</time></trkpt><trkpt lat="49.944016" lon="5.609251"><ele>485.309</ele><time>2022-09-17T14:20:32Z</time></trkpt><trkpt lat="49.943910" lon="5.609068"><ele>486.142</ele><time>2022-09-17T14:20:33Z</time></trkpt><trkpt lat="49.943803" lon="5.608891"><ele>487.182</ele><time>2022-09-17T14:20:34Z</time></trkpt><trkpt lat="49.943697" lon="5.608724"><ele>488.014</ele><time>2022-09-17T14:20:35Z</time></trkpt><trkpt lat="49.943588" lon="5.608546"><ele>488.860</ele><time>2022-09-17T14:20:36Z</time></trkpt><trkpt lat="49.943475" lon="5.608362"><ele>489.655</ele><time>2022-09-17T14:20:37Z</time></trkpt><trkpt lat="49.943360" lon="5.608174"><ele>490.570</ele><time>2022-09-17T14:20:38Z</time></trkpt><trkpt lat="49.943247" lon="5.607988"><ele>491.345</ele><time>2022-09-17T14:20:39Z</time></trkpt><trkpt lat="49.943135" lon="5.607801"><ele>492.129</ele><time>2022-09-17T14:20:40Z</time></trkpt><trkpt lat="49.943026" lon="5.607625"><ele>492.996</ele><time>2022-09-17T14:20:41Z</time></trkpt><trkpt lat="49.942918" lon="5.607446"><ele>493.838</ele><time>2022-09-17T14:20:42Z</time></trkpt><trkpt lat="49.942816" lon="5.607268"><ele>494.670</ele><time>2022-09-17T14:20:43Z</time></trkpt><trkpt lat="49.942713" lon="5.607088"><ele>495.417</ele><time>2022-09-17T14:20:44Z</time></trkpt><trkpt lat="49.942603" lon="5.606908"><ele>496.109</ele><time>2022-09-17T14:20:45Z</time></trkpt><trkpt lat="49.942496" lon="5.606721"><ele>496.714</ele><time>2022-09-17T14:20:46Z</time></trkpt><trkpt lat="49.942395" lon="5.606543"><ele>497.334</ele><time>2022-09-17T14:20:47Z</time></trkpt><trkpt lat="49.942296" lon="5.606363"><ele>497.996</ele><time>2022-09-17T14:20:48Z</time></trkpt><trkpt lat="49.942197" lon="5.606185"><ele>498.612</ele><time>2022-09-17T14:20:49Z</time></trkpt><trkpt lat="49.942098" lon="5.606015"><ele>499.377</ele><time>2022-09-17T14:20:50Z</time></trkpt><trkpt lat="49.942002" lon="5.605847"><ele>499.932</ele><time>2022-09-17T14:20:51Z</time></trkpt><trkpt lat="49.941914" lon="5.605694"><ele>500.467</ele><time>2022-09-17T14:20:52Z</time></trkpt><trkpt lat="49.941837" lon="5.605551"><ele>500.671</ele><time>2022-09-17T14:20:53Z</time></trkpt><trkpt lat="49.941768" lon="5.605427"><ele>500.818</ele><time>2022-09-17T14:20:54Z</time></trkpt><trkpt lat="49.941710" lon="5.605310"><ele>500.815</ele><time>2022-09-17T14:20:55Z</time></trkpt><trkpt lat="49.941671" lon="5.605202"><ele>500.865</ele><time>2022-09-17T14:20:56Z</time></trkpt><trkpt lat="49.941645" lon="5.605107"><ele>500.711</ele><time>2022-09-17T14:20:57Z</time></trkpt><trkpt lat="49.941640" lon="5.605011"><ele>500.309</ele><time>2022-09-17T14:20:58Z</time></trkpt><trkpt lat="49.941647" lon="5.604913"><ele>499.832</ele><time>2022-09-17T14:20:59Z</time></trkpt><trkpt lat="49.941662" lon="5.604803"><ele>499.642</ele><time>2022-09-17T14:21:00Z</time></trkpt><trkpt lat="49.941671" lon="5.604694"><ele>499.124</ele><time>2022-09-17T14:21:01Z</time></trkpt><trkpt lat="49.941659" lon="5.604589"><ele>498.470</ele><time>2022-09-17T14:21:02Z</time></trkpt><trkpt lat="49.941584" lon="5.604541"><ele>498.175</ele><time>2022-09-17T14:21:03Z</time></trkpt><trkpt lat="49.941540" lon="5.604480"><ele>497.840</ele><time>2022-09-17T14:21:04Z</time></trkpt><trkpt lat="49.941492" lon="5.604456"><ele>497.675</ele><time>2022-09-17T14:21:05Z</time></trkpt><trkpt lat="49.941437" lon="5.604439"><ele>497.289</ele><time>2022-09-17T14:21:06Z</time></trkpt><trkpt lat="49.941371" lon="5.604442"><ele>496.946</ele><time>2022-09-17T14:21:07Z</time></trkpt><trkpt lat="49.941308" lon="5.604471"><ele>496.697</ele><time>2022-09-17T14:21:08Z</time></trkpt><trkpt lat="49.941235" lon="5.604493"><ele>496.323</ele><time>2022-09-17T14:21:09Z</time></trkpt><trkpt lat="49.941121" lon="5.604396"><ele>495.925</ele><time>2022-09-17T14:21:10Z</time></trkpt><trkpt lat="49.941072" lon="5.604284"><ele>495.709</ele><time>2022-09-17T14:21:11Z</time></trkpt><trkpt lat="49.941006" lon="5.604183"><ele>495.420</ele><time>2022-09-17T14:21:12Z</time></trkpt><trkpt lat="49.940931" lon="5.604062"><ele>495.210</ele><time>2022-09-17T14:21:13Z</time></trkpt><trkpt lat="49.940865" lon="5.603930"><ele>495.052</ele><time>2022-09-17T14:21:14Z</time></trkpt><trkpt lat="49.940782" lon="5.603784"><ele>494.538</ele><time>2022-09-17T14:21:15Z</time></trkpt><trkpt lat="49.940687" lon="5.603611"><ele>494.053</ele><time>2022-09-17T14:21:16Z</time></trkpt><trkpt lat="49.940589" lon="5.603431"><ele>493.818</ele><time>2022-09-17T14:21:17Z</time></trkpt><trkpt lat="49.940493" lon="5.603259"><ele>493.693</ele><time>2022-09-17T14:21:18Z</time></trkpt><trkpt lat="49.940392" lon="5.603084"><ele>493.427</ele><time>2022-09-17T14:21:19Z</time></trkpt><trkpt lat="49.940286" lon="5.602904"><ele>493.254</ele><time>2022-09-17T14:21:20Z</time></trkpt><trkpt lat="49.940174" lon="5.602725"><ele>492.972</ele><time>2022-09-17T14:21:21Z</time></trkpt><trkpt lat="49.940058" lon="5.602551"><ele>492.413</ele><time>2022-09-17T14:21:22Z</time></trkpt><trkpt lat="49.939939" lon="5.602390"><ele>491.714</ele><time>2022-09-17T14:21:23Z</time></trkpt><trkpt lat="49.939813" lon="5.602237"><ele>490.809</ele><time>2022-09-17T14:21:24Z</time></trkpt><trkpt lat="49.939681" lon="5.602099"><ele>489.848</ele><time>2022-09-17T14:21:25Z</time></trkpt><trkpt lat="49.939541" lon="5.601981"><ele>489.088</ele><time>2022-09-17T14:21:26Z</time></trkpt><trkpt lat="49.939395" lon="5.601872"><ele>488.440</ele><time>2022-09-17T14:21:27Z</time></trkpt><trkpt lat="49.939243" lon="5.601764"><ele>487.846</ele><time>2022-09-17T14:21:28Z</time></trkpt><trkpt lat="49.939086" lon="5.601652"><ele>487.241</ele><time>2022-09-17T14:21:29Z</time></trkpt><trkpt lat="49.938930" lon="5.601544"><ele>486.726</ele><time>2022-09-17T14:21:30Z</time></trkpt><trkpt lat="49.938774" lon="5.601428"><ele>485.941</ele><time>2022-09-17T14:21:31Z</time></trkpt><trkpt lat="49.938616" lon="5.601309"><ele>484.975</ele><time>2022-09-17T14:21:32Z</time></trkpt><trkpt lat="49.938453" lon="5.601190"><ele>484.162</ele><time>2022-09-17T14:21:33Z</time></trkpt><trkpt lat="49.938295" lon="5.601069"><ele>483.296</ele><time>2022-09-17T14:21:34Z</time></trkpt><trkpt lat="49.938134" lon="5.600955"><ele>482.231</ele><time>2022-09-17T14:21:35Z</time></trkpt><trkpt lat="49.937966" lon="5.600839"><ele>481.224</ele><time>2022-09-17T14:21:36Z</time></trkpt><trkpt lat="49.937795" lon="5.600722"><ele>480.209</ele><time>2022-09-17T14:21:37Z</time></trkpt><trkpt lat="49.937618" lon="5.600604"><ele>479.140</ele><time>2022-09-17T14:21:38Z</time></trkpt><trkpt lat="49.937440" lon="5.600478"><ele>478.220</ele><time>2022-09-17T14:21:39Z</time></trkpt><trkpt lat="49.937266" lon="5.600319"><ele>477.422</ele><time>2022-09-17T14:21:40Z</time></trkpt><trkpt lat="49.937087" lon="5.600170"><ele>476.748</ele><time>2022-09-17T14:21:41Z</time></trkpt><trkpt lat="49.936915" lon="5.600036"><ele>476.253</ele><time>2022-09-17T14:21:42Z</time></trkpt><trkpt lat="49.936741" lon="5.599902"><ele>475.588</ele><time>2022-09-17T14:21:43Z</time></trkpt><trkpt lat="49.936569" lon="5.599773"><ele>474.613</ele><time>2022-09-17T14:21:44Z</time></trkpt><trkpt lat="49.936393" lon="5.599648"><ele>473.687</ele><time>2022-09-17T14:21:45Z</time></trkpt><trkpt lat="49.936215" lon="5.599519"><ele>472.794</ele><time>2022-09-17T14:21:46Z</time></trkpt><trkpt lat="49.936049" lon="5.599398"><ele>471.897</ele><time>2022-09-17T14:21:47Z</time></trkpt><trkpt lat="49.935884" lon="5.599280"><ele>471.223</ele><time>2022-09-17T14:21:48Z</time></trkpt><trkpt lat="49.935716" lon="5.599170"><ele>470.925</ele><time>2022-09-17T14:21:49Z</time></trkpt><trkpt lat="49.935549" lon="5.599043"><ele>470.709</ele><time>2022-09-17T14:21:50Z</time></trkpt><trkpt lat="49.935384" lon="5.598927"><ele>470.690</ele><time>2022-09-17T14:21:51Z</time></trkpt><trkpt lat="49.935223" lon="5.598818"><ele>470.640</ele><time>2022-09-17T14:21:52Z</time></trkpt><trkpt lat="49.935055" lon="5.598696"><ele>470.922</ele><time>2022-09-17T14:21:53Z</time></trkpt><trkpt lat="49.934891" lon="5.598577"><ele>471.328</ele><time>2022-09-17T14:21:54Z</time></trkpt><trkpt lat="49.934728" lon="5.598456"><ele>471.713</ele><time>2022-09-17T14:21:55Z</time></trkpt><trkpt lat="49.934562" lon="5.598332"><ele>472.228</ele><time>2022-09-17T14:21:56Z</time></trkpt><trkpt lat="49.934389" lon="5.598204"><ele>472.733</ele><time>2022-09-17T14:21:57Z</time></trkpt><trkpt lat="49.934226" lon="5.598076"><ele>473.387</ele><time>2022-09-17T14:21:58Z</time></trkpt><trkpt lat="49.934058" lon="5.597947"><ele>474.074</ele><time>2022-09-17T14:21:59Z</time></trkpt><trkpt lat="49.933894" lon="5.597826"><ele>474.851</ele><time>2022-09-17T14:22:00Z</time></trkpt><trkpt lat="49.933726" lon="5.597703"><ele>475.701</ele><time>2022-09-17T14:22:01Z</time></trkpt><trkpt lat="49.933561" lon="5.597585"><ele>476.111</ele><time>2022-09-17T14:22:02Z</time></trkpt><trkpt lat="49.933401" lon="5.597468"><ele>475.709</ele><time>2022-09-17T14:22:03Z</time></trkpt><trkpt lat="49.933246" lon="5.597348"><ele>475.376</ele><time>2022-09-17T14:22:04Z</time></trkpt><trkpt lat="49.933095" lon="5.597230"><ele>474.636</ele><time>2022-09-17T14:22:05Z</time></trkpt><trkpt lat="49.932931" lon="5.597103"><ele>474.038</ele><time>2022-09-17T14:22:06Z</time></trkpt><trkpt lat="49.932768" lon="5.596985"><ele>474.354</ele><time>2022-09-17T14:22:07Z</time></trkpt><trkpt lat="49.932601" lon="5.596858"><ele>475.759</ele><time>2022-09-17T14:22:08Z</time></trkpt><trkpt lat="49.932429" lon="5.596731"><ele>477.664</ele><time>2022-09-17T14:22:09Z</time></trkpt><trkpt lat="49.932260" lon="5.596610"><ele>479.619</ele><time>2022-09-17T14:22:10Z</time></trkpt><trkpt lat="49.932089" lon="5.596488"><ele>481.743</ele><time>2022-09-17T14:22:11Z</time></trkpt><trkpt lat="49.931920" lon="5.596366"><ele>483.020</ele><time>2022-09-17T14:22:12Z</time></trkpt><trkpt lat="49.931757" lon="5.596255"><ele>483.937</ele><time>2022-09-17T14:22:13Z</time></trkpt><trkpt lat="49.931600" lon="5.596133"><ele>484.549</ele><time>2022-09-17T14:22:14Z</time></trkpt><trkpt lat="49.931442" lon="5.596010"><ele>484.913</ele><time>2022-09-17T14:22:15Z</time></trkpt><trkpt lat="49.931286" lon="5.595898"><ele>485.009</ele><time>2022-09-17T14:22:16Z</time></trkpt><trkpt lat="49.931139" lon="5.595788"><ele>484.794</ele><time>2022-09-17T14:22:17Z</time></trkpt><trkpt lat="49.931000" lon="5.595687"><ele>484.064</ele><time>2022-09-17T14:22:18Z</time></trkpt><trkpt lat="49.930863" lon="5.595596"><ele>483.176</ele><time>2022-09-17T14:22:19Z</time></trkpt><trkpt lat="49.930730" lon="5.595501"><ele>481.912</ele><time>2022-09-17T14:22:20Z</time></trkpt><trkpt lat="49.930604" lon="5.595401"><ele>480.597</ele><time>2022-09-17T14:22:21Z</time></trkpt><trkpt lat="49.930488" lon="5.595317"><ele>479.352</ele><time>2022-09-17T14:22:22Z</time></trkpt><trkpt lat="49.930366" lon="5.595233"><ele>478.837</ele><time>2022-09-17T14:22:23Z</time></trkpt><trkpt lat="49.930246" lon="5.595140"><ele>477.971</ele><time>2022-09-17T14:22:24Z</time></trkpt><trkpt lat="49.930127" lon="5.595055"><ele>477.358</ele><time>2022-09-17T14:22:25Z</time></trkpt><trkpt lat="49.930017" lon="5.594975"><ele>476.981</ele><time>2022-09-17T14:22:26Z</time></trkpt><trkpt lat="49.929920" lon="5.594861"><ele>476.461</ele><time>2022-09-17T14:22:27Z</time></trkpt><trkpt lat="49.929816" lon="5.594783"><ele>475.817</ele><time>2022-09-17T14:22:28Z</time></trkpt><trkpt lat="49.929725" lon="5.594716"><ele>474.909</ele><time>2022-09-17T14:22:29Z</time></trkpt><trkpt lat="49.929650" lon="5.594656"><ele>474.169</ele><time>2022-09-17T14:22:30Z</time></trkpt><trkpt lat="49.929577" lon="5.594601"><ele>473.789</ele><time>2022-09-17T14:22:31Z</time></trkpt><trkpt lat="49.929516" lon="5.594559"><ele>473.121</ele><time>2022-09-17T14:22:32Z</time></trkpt><trkpt lat="49.929458" lon="5.594541"><ele>472.737</ele><time>2022-09-17T14:22:33Z</time></trkpt><trkpt lat="49.929393" lon="5.594507"><ele>472.552</ele><time>2022-09-17T14:22:35Z</time></trkpt><trkpt lat="49.929325" lon="5.594674"><ele>472.447</ele><time>2022-09-17T14:22:36Z</time></trkpt><trkpt lat="49.929286" lon="5.594765"><ele>472.342</ele><time>2022-09-17T14:22:37Z</time></trkpt><trkpt lat="49.929235" lon="5.594871"><ele>472.256</ele><time>2022-09-17T14:22:38Z</time></trkpt><trkpt lat="49.929181" lon="5.594991"><ele>472.173</ele><time>2022-09-17T14:22:39Z</time></trkpt><trkpt lat="49.929101" lon="5.595104"><ele>471.994</ele><time>2022-09-17T14:22:40Z</time></trkpt><trkpt lat="49.929042" lon="5.595241"><ele>471.757</ele><time>2022-09-17T14:22:41Z</time></trkpt><trkpt lat="49.928979" lon="5.595393"><ele>471.522</ele><time>2022-09-17T14:22:42Z</time></trkpt><trkpt lat="49.928903" lon="5.595563"><ele>471.309</ele><time>2022-09-17T14:22:43Z</time></trkpt><trkpt lat="49.928826" lon="5.595739"><ele>470.850</ele><time>2022-09-17T14:22:44Z</time></trkpt><trkpt lat="49.928728" lon="5.595921"><ele>470.530</ele><time>2022-09-17T14:22:45Z</time></trkpt><trkpt lat="49.928639" lon="5.596123"><ele>470.272</ele><time>2022-09-17T14:22:46Z</time></trkpt><trkpt lat="49.928550" lon="5.596329"><ele>470.098</ele><time>2022-09-17T14:22:47Z</time></trkpt><trkpt lat="49.928438" lon="5.596538"><ele>469.983</ele><time>2022-09-17T14:22:48Z</time></trkpt><trkpt lat="49.928340" lon="5.596757"><ele>469.858</ele><time>2022-09-17T14:22:49Z</time></trkpt><trkpt lat="49.928238" lon="5.596986"><ele>469.613</ele><time>2022-09-17T14:22:50Z</time></trkpt><trkpt lat="49.928137" lon="5.597214"><ele>469.457</ele><time>2022-09-17T14:22:51Z</time></trkpt><trkpt lat="49.928035" lon="5.597447"><ele>469.284</ele><time>2022-09-17T14:22:52Z</time></trkpt><trkpt lat="49.927940" lon="5.597678"><ele>469.098</ele><time>2022-09-17T14:22:53Z</time></trkpt><trkpt lat="49.927837" lon="5.597911"><ele>468.715</ele><time>2022-09-17T14:22:54Z</time></trkpt><trkpt lat="49.927727" lon="5.598116"><ele>468.526</ele><time>2022-09-17T14:22:55Z</time></trkpt><trkpt lat="49.927625" lon="5.598341"><ele>468.409</ele><time>2022-09-17T14:22:56Z</time></trkpt><trkpt lat="49.927527" lon="5.598592"><ele>468.280</ele><time>2022-09-17T14:22:57Z</time></trkpt><trkpt lat="49.927421" lon="5.598823"><ele>468.070</ele><time>2022-09-17T14:22:58Z</time></trkpt><trkpt lat="49.927316" lon="5.599064"><ele>467.942</ele><time>2022-09-17T14:22:59Z</time></trkpt><trkpt lat="49.927194" lon="5.599291"><ele>467.838</ele><time>2022-09-17T14:23:00Z</time></trkpt><trkpt lat="49.927086" lon="5.599529"><ele>467.713</ele><time>2022-09-17T14:23:01Z</time></trkpt><trkpt lat="49.926980" lon="5.599762"><ele>467.898</ele><time>2022-09-17T14:23:02Z</time></trkpt><trkpt lat="49.926872" lon="5.600000"><ele>467.963</ele><time>2022-09-17T14:23:03Z</time></trkpt><trkpt lat="49.926758" lon="5.600250"><ele>467.937</ele><time>2022-09-17T14:23:04Z</time></trkpt><trkpt lat="49.926658" lon="5.600469"><ele>467.944</ele><time>2022-09-17T14:23:05Z</time></trkpt><trkpt lat="49.926553" lon="5.600699"><ele>467.954</ele><time>2022-09-17T14:23:06Z</time></trkpt><trkpt lat="49.926451" lon="5.600923"><ele>467.856</ele><time>2022-09-17T14:23:07Z</time></trkpt><trkpt lat="49.926351" lon="5.601144"><ele>467.711</ele><time>2022-09-17T14:23:08Z</time></trkpt><trkpt lat="49.926248" lon="5.601371"><ele>467.509</ele><time>2022-09-17T14:23:09Z</time></trkpt><trkpt lat="49.926147" lon="5.601593"><ele>467.336</ele><time>2022-09-17T14:23:10Z</time></trkpt><trkpt lat="49.926045" lon="5.601819"><ele>467.256</ele><time>2022-09-17T14:23:11Z</time></trkpt><trkpt lat="49.925942" lon="5.602046"><ele>467.058</ele><time>2022-09-17T14:23:12Z</time></trkpt><trkpt lat="49.925838" lon="5.602275"><ele>466.764</ele><time>2022-09-17T14:23:13Z</time></trkpt><trkpt lat="49.925734" lon="5.602503"><ele>466.629</ele><time>2022-09-17T14:23:14Z</time></trkpt><trkpt lat="49.925632" lon="5.602727"><ele>466.544</ele><time>2022-09-17T14:23:15Z</time></trkpt><trkpt lat="49.925531" lon="5.602948"><ele>466.439</ele><time>2022-09-17T14:23:16Z</time></trkpt><trkpt lat="49.925429" lon="5.603174"><ele>466.353</ele><time>2022-09-17T14:23:17Z</time></trkpt><trkpt lat="49.925326" lon="5.603380"><ele>466.310</ele><time>2022-09-17T14:23:18Z</time></trkpt><trkpt lat="49.925216" lon="5.603580"><ele>466.261</ele><time>2022-09-17T14:23:19Z</time></trkpt><trkpt lat="49.925106" lon="5.603770"><ele>466.021</ele><time>2022-09-17T14:23:20Z</time></trkpt><trkpt lat="49.924998" lon="5.603960"><ele>465.813</ele><time>2022-09-17T14:23:21Z</time></trkpt><trkpt lat="49.924862" lon="5.604095"><ele>465.609</ele><time>2022-09-17T14:23:22Z</time></trkpt><trkpt lat="49.924726" lon="5.604241"><ele>465.447</ele><time>2022-09-17T14:23:23Z</time></trkpt><trkpt lat="49.924586" lon="5.604392"><ele>465.277</ele><time>2022-09-17T14:23:24Z</time></trkpt><trkpt lat="49.924449" lon="5.604523"><ele>465.119</ele><time>2022-09-17T14:23:25Z</time></trkpt><trkpt lat="49.924315" lon="5.604639"><ele>465.095</ele><time>2022-09-17T14:23:26Z</time></trkpt><trkpt lat="49.924191" lon="5.604772"><ele>464.980</ele><time>2022-09-17T14:23:27Z</time></trkpt><trkpt lat="49.924054" lon="5.604849"><ele>464.865</ele><time>2022-09-17T14:23:28Z</time></trkpt><trkpt lat="49.923914" lon="5.604943"><ele>464.730</ele><time>2022-09-17T14:23:29Z</time></trkpt><trkpt lat="49.923769" lon="5.605028"><ele>464.644</ele><time>2022-09-17T14:23:30Z</time></trkpt><trkpt lat="49.923629" lon="5.605110"><ele>464.411</ele><time>2022-09-17T14:23:31Z</time></trkpt><trkpt lat="49.923488" lon="5.605190"><ele>464.237</ele><time>2022-09-17T14:23:32Z</time></trkpt><trkpt lat="49.923349" lon="5.605271"><ele>464.149</ele><time>2022-09-17T14:23:33Z</time></trkpt><trkpt lat="49.923212" lon="5.605347"><ele>464.013</ele><time>2022-09-17T14:23:34Z</time></trkpt><trkpt lat="49.923075" lon="5.605425"><ele>463.909</ele><time>2022-09-17T14:23:35Z</time></trkpt><trkpt lat="49.922937" lon="5.605509"><ele>463.834</ele><time>2022-09-17T14:23:36Z</time></trkpt><trkpt lat="49.922797" lon="5.605590"><ele>463.444</ele><time>2022-09-17T14:23:37Z</time></trkpt><trkpt lat="49.922651" lon="5.605671"><ele>462.826</ele><time>2022-09-17T14:23:38Z</time></trkpt><trkpt lat="49.922499" lon="5.605757"><ele>462.422</ele><time>2022-09-17T14:23:39Z</time></trkpt><trkpt lat="49.922339" lon="5.605849"><ele>462.277</ele><time>2022-09-17T14:23:40Z</time></trkpt><trkpt lat="49.922178" lon="5.605945"><ele>462.222</ele><time>2022-09-17T14:23:41Z</time></trkpt><trkpt lat="49.922011" lon="5.606042"><ele>462.517</ele><time>2022-09-17T14:23:42Z</time></trkpt><trkpt lat="49.921843" lon="5.606137"><ele>463.091</ele><time>2022-09-17T14:23:43Z</time></trkpt><trkpt lat="49.921679" lon="5.606232"><ele>463.428</ele><time>2022-09-17T14:23:44Z</time></trkpt><trkpt lat="49.921513" lon="5.606330"><ele>463.564</ele><time>2022-09-17T14:23:45Z</time></trkpt><trkpt lat="49.921347" lon="5.606432"><ele>463.506</ele><time>2022-09-17T14:23:46Z</time></trkpt><trkpt lat="49.921184" lon="5.606533"><ele>463.516</ele><time>2022-09-17T14:23:47Z</time></trkpt><trkpt lat="49.921016" lon="5.606634"><ele>463.309</ele><time>2022-09-17T14:23:48Z</time></trkpt><trkpt lat="49.920837" lon="5.606701"><ele>463.047</ele><time>2022-09-17T14:23:49Z</time></trkpt><trkpt lat="49.920663" lon="5.606798"><ele>462.777</ele><time>2022-09-17T14:23:50Z</time></trkpt><trkpt lat="49.920495" lon="5.606893"><ele>462.349</ele><time>2022-09-17T14:23:51Z</time></trkpt><trkpt lat="49.920329" lon="5.606986"><ele>461.895</ele><time>2022-09-17T14:23:52Z</time></trkpt><trkpt lat="49.920163" lon="5.607079"><ele>461.440</ele><time>2022-09-17T14:23:53Z</time></trkpt><trkpt lat="49.919997" lon="5.607172"><ele>460.945</ele><time>2022-09-17T14:23:54Z</time></trkpt><trkpt lat="49.919831" lon="5.607265"><ele>460.320</ele><time>2022-09-17T14:23:55Z</time></trkpt><trkpt lat="49.919664" lon="5.607358"><ele>459.884</ele><time>2022-09-17T14:23:56Z</time></trkpt><trkpt lat="49.919493" lon="5.607454"><ele>459.261</ele><time>2022-09-17T14:23:57Z</time></trkpt><trkpt lat="49.919318" lon="5.607553"><ele>458.654</ele><time>2022-09-17T14:23:58Z</time></trkpt><trkpt lat="49.919140" lon="5.607652"><ele>458.056</ele><time>2022-09-17T14:23:59Z</time></trkpt><trkpt lat="49.918960" lon="5.607753"><ele>457.411</ele><time>2022-09-17T14:24:00Z</time></trkpt><trkpt lat="49.918780" lon="5.607854"><ele>456.709</ele><time>2022-09-17T14:24:01Z</time></trkpt><trkpt lat="49.918601" lon="5.607954"><ele>455.896</ele><time>2022-09-17T14:24:02Z</time></trkpt><trkpt lat="49.918426" lon="5.608052"><ele>454.886</ele><time>2022-09-17T14:24:03Z</time></trkpt><trkpt lat="49.918253" lon="5.608145"><ele>453.968</ele><time>2022-09-17T14:24:04Z</time></trkpt><trkpt lat="49.918072" lon="5.608222"><ele>452.944</ele><time>2022-09-17T14:24:05Z</time></trkpt><trkpt lat="49.917899" lon="5.608309"><ele>451.859</ele><time>2022-09-17T14:24:06Z</time></trkpt><trkpt lat="49.917728" lon="5.608401"><ele>450.944</ele><time>2022-09-17T14:24:07Z</time></trkpt><trkpt lat="49.917563" lon="5.608500"><ele>450.299</ele><time>2022-09-17T14:24:08Z</time></trkpt><trkpt lat="49.917407" lon="5.608594"><ele>449.723</ele><time>2022-09-17T14:24:09Z</time></trkpt><trkpt lat="49.917266" lon="5.608675"><ele>449.380</ele><time>2022-09-17T14:24:10Z</time></trkpt><trkpt lat="49.917126" lon="5.608749"><ele>449.135</ele><time>2022-09-17T14:24:11Z</time></trkpt><trkpt lat="49.917001" lon="5.608821"><ele>449.186</ele><time>2022-09-17T14:24:12Z</time></trkpt><trkpt lat="49.916875" lon="5.608893"><ele>449.114</ele><time>2022-09-17T14:24:13Z</time></trkpt><trkpt lat="49.916749" lon="5.608971"><ele>449.109</ele><time>2022-09-17T14:24:14Z</time></trkpt><trkpt lat="49.916633" lon="5.609037"><ele>449.114</ele><time>2022-09-17T14:24:15Z</time></trkpt><trkpt lat="49.916528" lon="5.609109"><ele>449.214</ele><time>2022-09-17T14:24:16Z</time></trkpt><trkpt lat="49.916416" lon="5.609129"><ele>449.236</ele><time>2022-09-17T14:24:17Z</time></trkpt><trkpt lat="49.916303" lon="5.609171"><ele>449.212</ele><time>2022-09-17T14:24:18Z</time></trkpt><trkpt lat="49.916184" lon="5.609237"><ele>449.087</ele><time>2022-09-17T14:24:19Z</time></trkpt><trkpt lat="49.916062" lon="5.609241"><ele>448.632</ele><time>2022-09-17T14:24:20Z</time></trkpt><trkpt lat="49.915945" lon="5.609274"><ele>448.067</ele><time>2022-09-17T14:24:21Z</time></trkpt><trkpt lat="49.915833" lon="5.609302"><ele>447.581</ele><time>2022-09-17T14:24:22Z</time></trkpt><trkpt lat="49.915723" lon="5.609339"><ele>447.068</ele><time>2022-09-17T14:24:23Z</time></trkpt><trkpt lat="49.915614" lon="5.609376"><ele>446.434</ele><time>2022-09-17T14:24:24Z</time></trkpt><trkpt lat="49.915506" lon="5.609408"><ele>445.955</ele><time>2022-09-17T14:24:25Z</time></trkpt><trkpt lat="49.915406" lon="5.609459"><ele>445.310</ele><time>2022-09-17T14:24:26Z</time></trkpt><trkpt lat="49.915303" lon="5.609519"><ele>444.809</ele><time>2022-09-17T14:24:27Z</time></trkpt><trkpt lat="49.915198" lon="5.609580"><ele>443.944</ele><time>2022-09-17T14:24:28Z</time></trkpt><trkpt lat="49.915101" lon="5.609658"><ele>443.154</ele><time>2022-09-17T14:24:29Z</time></trkpt><trkpt lat="49.915000" lon="5.609744"><ele>442.316</ele><time>2022-09-17T14:24:30Z</time></trkpt><trkpt lat="49.914883" lon="5.609807"><ele>441.442</ele><time>2022-09-17T14:24:31Z</time></trkpt><trkpt lat="49.914770" lon="5.609907"><ele>440.667</ele><time>2022-09-17T14:24:32Z</time></trkpt><trkpt lat="49.914656" lon="5.610007"><ele>439.992</ele><time>2022-09-17T14:24:33Z</time></trkpt><trkpt lat="49.914539" lon="5.610112"><ele>439.157</ele><time>2022-09-17T14:24:34Z</time></trkpt><trkpt lat="49.914421" lon="5.610218"><ele>437.891</ele><time>2022-09-17T14:24:35Z</time></trkpt><trkpt lat="49.914299" lon="5.610327"><ele>436.928</ele><time>2022-09-17T14:24:36Z</time></trkpt><trkpt lat="49.914174" lon="5.610438"><ele>435.927</ele><time>2022-09-17T14:24:37Z</time></trkpt><trkpt lat="49.914046" lon="5.610552"><ele>435.068</ele><time>2022-09-17T14:24:38Z</time></trkpt><trkpt lat="49.913925" lon="5.610684"><ele>434.114</ele><time>2022-09-17T14:24:39Z</time></trkpt><trkpt lat="49.913799" lon="5.610791"><ele>433.209</ele><time>2022-09-17T14:24:40Z</time></trkpt><trkpt lat="49.913679" lon="5.610920"><ele>432.443</ele><time>2022-09-17T14:24:41Z</time></trkpt><trkpt lat="49.913568" lon="5.611066"><ele>431.833</ele><time>2022-09-17T14:24:42Z</time></trkpt><trkpt lat="49.913472" lon="5.611227"><ele>431.575</ele><time>2022-09-17T14:24:43Z</time></trkpt><trkpt lat="49.913396" lon="5.611415"><ele>431.441</ele><time>2022-09-17T14:24:44Z</time></trkpt><trkpt lat="49.913331" lon="5.611614"><ele>431.446</ele><time>2022-09-17T14:24:45Z</time></trkpt><trkpt lat="49.913285" lon="5.611834"><ele>431.491</ele><time>2022-09-17T14:24:46Z</time></trkpt><trkpt lat="49.913251" lon="5.612053"><ele>431.636</ele><time>2022-09-17T14:24:47Z</time></trkpt><trkpt lat="49.913230" lon="5.612276"><ele>431.850</ele><time>2022-09-17T14:24:48Z</time></trkpt><trkpt lat="49.913214" lon="5.612484"><ele>432.287</ele><time>2022-09-17T14:24:49Z</time></trkpt><trkpt lat="49.913196" lon="5.612696"><ele>433.099</ele><time>2022-09-17T14:24:50Z</time></trkpt><trkpt lat="49.913183" lon="5.612911"><ele>434.107</ele><time>2022-09-17T14:24:51Z</time></trkpt><trkpt lat="49.913169" lon="5.613130"><ele>435.127</ele><time>2022-09-17T14:24:52Z</time></trkpt><trkpt lat="49.913153" lon="5.613348"><ele>436.209</ele><time>2022-09-17T14:24:53Z</time></trkpt><trkpt lat="49.913134" lon="5.613559"><ele>437.230</ele><time>2022-09-17T14:24:54Z</time></trkpt><trkpt lat="49.913125" lon="5.613739"><ele>437.780</ele><time>2022-09-17T14:24:55Z</time></trkpt><trkpt lat="49.913109" lon="5.613926"><ele>438.512</ele><time>2022-09-17T14:24:56Z</time></trkpt><trkpt lat="49.913090" lon="5.614118"><ele>439.278</ele><time>2022-09-17T14:24:57Z</time></trkpt><trkpt lat="49.913074" lon="5.614321"><ele>439.953</ele><time>2022-09-17T14:24:58Z</time></trkpt><trkpt lat="49.913054" lon="5.614510"><ele>440.768</ele><time>2022-09-17T14:24:59Z</time></trkpt><trkpt lat="49.913012" lon="5.614683"><ele>441.363</ele><time>2022-09-17T14:25:00Z</time></trkpt><trkpt lat="49.912958" lon="5.614849"><ele>441.987</ele><time>2022-09-17T14:25:01Z</time></trkpt><trkpt lat="49.912892" lon="5.615000"><ele>442.814</ele><time>2022-09-17T14:25:02Z</time></trkpt><trkpt lat="49.912814" lon="5.615136"><ele>443.681</ele><time>2022-09-17T14:25:03Z</time></trkpt><trkpt lat="49.912722" lon="5.615258"><ele>444.461</ele><time>2022-09-17T14:25:04Z</time></trkpt><trkpt lat="49.912610" lon="5.615371"><ele>445.417</ele><time>2022-09-17T14:25:05Z</time></trkpt><trkpt lat="49.912485" lon="5.615455"><ele>446.909</ele><time>2022-09-17T14:25:06Z</time></trkpt><trkpt lat="49.912361" lon="5.615509"><ele>447.499</ele><time>2022-09-17T14:25:07Z</time></trkpt><trkpt lat="49.912239" lon="5.615531"><ele>448.639</ele><time>2022-09-17T14:25:08Z</time></trkpt><trkpt lat="49.912128" lon="5.615529"><ele>449.741</ele><time>2022-09-17T14:25:09Z</time></trkpt><trkpt lat="49.912037" lon="5.615509"><ele>450.827</ele><time>2022-09-17T14:25:10Z</time></trkpt><trkpt lat="49.911962" lon="5.615475"><ele>451.712</ele><time>2022-09-17T14:25:11Z</time></trkpt><trkpt lat="49.911895" lon="5.615438"><ele>452.187</ele><time>2022-09-17T14:25:12Z</time></trkpt><trkpt lat="49.911834" lon="5.615413"><ele>452.812</ele><time>2022-09-17T14:25:13Z</time></trkpt><trkpt lat="49.911793" lon="5.615356"><ele>453.186</ele><time>2022-09-17T14:25:14Z</time></trkpt><trkpt lat="49.911739" lon="5.615589"><ele>454.183</ele><time>2022-09-17T14:25:17Z</time></trkpt><trkpt lat="49.911777" lon="5.615667"><ele>455.473</ele><time>2022-09-17T14:25:18Z</time></trkpt><trkpt lat="49.911831" lon="5.615773"><ele>455.685</ele><time>2022-09-17T14:25:19Z</time></trkpt><trkpt lat="49.911892" lon="5.615905"><ele>455.713</ele><time>2022-09-17T14:25:20Z</time></trkpt><trkpt lat="49.911949" lon="5.616064"><ele>456.109</ele><time>2022-09-17T14:25:21Z</time></trkpt><trkpt lat="49.912005" lon="5.616221"><ele>456.358</ele><time>2022-09-17T14:25:22Z</time></trkpt><trkpt lat="49.912055" lon="5.616361"><ele>456.478</ele><time>2022-09-17T14:25:23Z</time></trkpt><trkpt lat="49.912101" lon="5.616485"><ele>456.650</ele><time>2022-09-17T14:25:24Z</time></trkpt><trkpt lat="49.912123" lon="5.616611"><ele>456.636</ele><time>2022-09-17T14:25:25Z</time></trkpt><trkpt lat="49.912150" lon="5.616711"><ele>456.541</ele><time>2022-09-17T14:25:26Z</time></trkpt><trkpt lat="49.912183" lon="5.616792"><ele>456.476</ele><time>2022-09-17T14:25:27Z</time></trkpt><trkpt lat="49.912194" lon="5.616870"><ele>456.471</ele><time>2022-09-17T14:25:28Z</time></trkpt><trkpt lat="49.912255" lon="5.616897"><ele>456.455</ele><time>2022-09-17T14:25:29Z</time></trkpt><trkpt lat="49.912301" lon="5.616966"><ele>456.462</ele><time>2022-09-17T14:25:31Z</time></trkpt><trkpt lat="49.912350" lon="5.617027"><ele>456.461</ele><time>2022-09-17T14:25:33Z</time></trkpt><trkpt lat="49.912406" lon="5.617117"><ele>457.021</ele><time>2022-09-17T14:25:35Z</time></trkpt><trkpt lat="49.912459" lon="5.617157"><ele>457.213</ele><time>2022-09-17T14:25:36Z</time></trkpt><trkpt lat="49.912494" lon="5.617227"><ele>457.509</ele><time>2022-09-17T14:25:37Z</time></trkpt><trkpt lat="49.912553" lon="5.617282"><ele>457.657</ele><time>2022-09-17T14:25:38Z</time></trkpt><trkpt lat="49.912625" lon="5.617323"><ele>457.737</ele><time>2022-09-17T14:25:39Z</time></trkpt><trkpt lat="49.912706" lon="5.617390"><ele>457.949</ele><time>2022-09-17T14:25:40Z</time></trkpt><trkpt lat="49.912791" lon="5.617479"><ele>458.225</ele><time>2022-09-17T14:25:41Z</time></trkpt><trkpt lat="49.912873" lon="5.617559"><ele>458.210</ele><time>2022-09-17T14:25:42Z</time></trkpt><trkpt lat="49.912962" lon="5.617640"><ele>458.525</ele><time>2022-09-17T14:25:43Z</time></trkpt><trkpt lat="49.913038" lon="5.617735"><ele>459.230</ele><time>2022-09-17T14:25:44Z</time></trkpt><trkpt lat="49.913122" lon="5.617806"><ele>459.264</ele><time>2022-09-17T14:25:45Z</time></trkpt><trkpt lat="49.913198" lon="5.617873"><ele>459.591</ele><time>2022-09-17T14:25:46Z</time></trkpt><trkpt lat="49.913277" lon="5.617927"><ele>459.662</ele><time>2022-09-17T14:25:47Z</time></trkpt><trkpt lat="49.913364" lon="5.617960"><ele>459.983</ele><time>2022-09-17T14:25:48Z</time></trkpt><trkpt lat="49.913451" lon="5.617992"><ele>460.211</ele><time>2022-09-17T14:25:49Z</time></trkpt><trkpt lat="49.913547" lon="5.618034"><ele>460.809</ele><time>2022-09-17T14:25:50Z</time></trkpt><trkpt lat="49.913650" lon="5.618090"><ele>461.427</ele><time>2022-09-17T14:25:51Z</time></trkpt><trkpt lat="49.913757" lon="5.618174"><ele>462.227</ele><time>2022-09-17T14:25:52Z</time></trkpt><trkpt lat="49.913875" lon="5.618248"><ele>463.159</ele><time>2022-09-17T14:25:53Z</time></trkpt><trkpt lat="49.914007" lon="5.618335"><ele>464.865</ele><time>2022-09-17T14:25:54Z</time></trkpt><trkpt lat="49.914168" lon="5.618480"><ele>466.180</ele><time>2022-09-17T14:25:55Z</time></trkpt><trkpt lat="49.914310" lon="5.618678"><ele>467.395</ele><time>2022-09-17T14:25:56Z</time></trkpt><trkpt lat="49.914435" lon="5.618872"><ele>468.570</ele><time>2022-09-17T14:25:57Z</time></trkpt><trkpt lat="49.914554" lon="5.619028"><ele>469.664</ele><time>2022-09-17T14:25:58Z</time></trkpt><trkpt lat="49.914684" lon="5.619175"><ele>470.241</ele><time>2022-09-17T14:25:59Z</time></trkpt><trkpt lat="49.914809" lon="5.619311"><ele>470.217</ele><time>2022-09-17T14:26:00Z</time></trkpt><trkpt lat="49.914942" lon="5.619455"><ele>470.087</ele><time>2022-09-17T14:26:01Z</time></trkpt><trkpt lat="49.915086" lon="5.619614"><ele>469.515</ele><time>2022-09-17T14:26:02Z</time></trkpt><trkpt lat="49.915232" lon="5.619747"><ele>469.009</ele><time>2022-09-17T14:26:03Z</time></trkpt><trkpt lat="49.915376" lon="5.619874"><ele>468.722</ele><time>2022-09-17T14:26:04Z</time></trkpt><trkpt lat="49.915515" lon="5.619983"><ele>468.992</ele><time>2022-09-17T14:26:05Z</time></trkpt><trkpt lat="49.915653" lon="5.620078"><ele>469.294</ele><time>2022-09-17T14:26:06Z</time></trkpt><trkpt lat="49.915782" lon="5.620177"><ele>469.320</ele><time>2022-09-17T14:26:07Z</time></trkpt><trkpt lat="49.915910" lon="5.620206"><ele>469.565</ele><time>2022-09-17T14:26:08Z</time></trkpt><trkpt lat="49.916032" lon="5.620240"><ele>469.770</ele><time>2022-09-17T14:26:09Z</time></trkpt><trkpt lat="49.916154" lon="5.620269"><ele>469.725</ele><time>2022-09-17T14:26:10Z</time></trkpt><trkpt lat="49.916266" lon="5.620302"><ele>469.519</ele><time>2022-09-17T14:26:11Z</time></trkpt><trkpt lat="49.916377" lon="5.620341"><ele>469.496</ele><time>2022-09-17T14:26:12Z</time></trkpt><trkpt lat="49.916478" lon="5.620405"><ele>469.313</ele><time>2022-09-17T14:26:13Z</time></trkpt><trkpt lat="49.916581" lon="5.620487"><ele>468.743</ele><time>2022-09-17T14:26:14Z</time></trkpt><trkpt lat="49.916690" lon="5.620578"><ele>468.207</ele><time>2022-09-17T14:26:15Z</time></trkpt><trkpt lat="49.916808" lon="5.620671"><ele>468.009</ele><time>2022-09-17T14:26:16Z</time></trkpt><trkpt lat="49.916929" lon="5.620758"><ele>467.782</ele><time>2022-09-17T14:26:17Z</time></trkpt><trkpt lat="49.917063" lon="5.620835"><ele>467.442</ele><time>2022-09-17T14:26:18Z</time></trkpt><trkpt lat="49.917204" lon="5.620905"><ele>467.034</ele><time>2022-09-17T14:26:19Z</time></trkpt><trkpt lat="49.917337" lon="5.620970"><ele>466.770</ele><time>2022-09-17T14:26:20Z</time></trkpt><trkpt lat="49.917473" lon="5.621026"><ele>466.335</ele><time>2022-09-17T14:26:21Z</time></trkpt><trkpt lat="49.917611" lon="5.621078"><ele>465.810</ele><time>2022-09-17T14:26:22Z</time></trkpt><trkpt lat="49.917752" lon="5.621129"><ele>465.485</ele><time>2022-09-17T14:26:23Z</time></trkpt><trkpt lat="49.917890" lon="5.621177"><ele>465.019</ele><time>2022-09-17T14:26:24Z</time></trkpt><trkpt lat="49.918031" lon="5.621221"><ele>464.376</ele><time>2022-09-17T14:26:25Z</time></trkpt><trkpt lat="49.918165" lon="5.621254"><ele>463.523</ele><time>2022-09-17T14:26:26Z</time></trkpt><trkpt lat="49.918300" lon="5.621279"><ele>462.883</ele><time>2022-09-17T14:26:27Z</time></trkpt><trkpt lat="49.918428" lon="5.621293"><ele>462.411</ele><time>2022-09-17T14:26:28Z</time></trkpt><trkpt lat="49.918557" lon="5.621303"><ele>461.609</ele><time>2022-09-17T14:26:29Z</time></trkpt><trkpt lat="49.918693" lon="5.621314"><ele>461.233</ele><time>2022-09-17T14:26:30Z</time></trkpt><trkpt lat="49.918834" lon="5.621334"><ele>461.213</ele><time>2022-09-17T14:26:31Z</time></trkpt><trkpt lat="49.918983" lon="5.621357"><ele>461.245</ele><time>2022-09-17T14:26:32Z</time></trkpt><trkpt lat="49.919129" lon="5.621375"><ele>461.251</ele><time>2022-09-17T14:26:33Z</time></trkpt><trkpt lat="49.919278" lon="5.621392"><ele>461.246</ele><time>2022-09-17T14:26:34Z</time></trkpt><trkpt lat="49.919426" lon="5.621378"><ele>461.111</ele><time>2022-09-17T14:26:35Z</time></trkpt><trkpt lat="49.919576" lon="5.621360"><ele>461.036</ele><time>2022-09-17T14:26:36Z</time></trkpt><trkpt lat="49.919727" lon="5.621345"><ele>460.970</ele><time>2022-09-17T14:26:37Z</time></trkpt><trkpt lat="49.919879" lon="5.621335"><ele>460.837</ele><time>2022-09-17T14:26:38Z</time></trkpt><trkpt lat="49.920030" lon="5.621331"><ele>460.842</ele><time>2022-09-17T14:26:39Z</time></trkpt><trkpt lat="49.920181" lon="5.621335"><ele>460.722</ele><time>2022-09-17T14:26:40Z</time></trkpt><trkpt lat="49.920332" lon="5.621339"><ele>460.514</ele><time>2022-09-17T14:26:41Z</time></trkpt><trkpt lat="49.920487" lon="5.621348"><ele>460.209</ele><time>2022-09-17T14:26:42Z</time></trkpt><trkpt lat="49.920641" lon="5.621363"><ele>459.975</ele><time>2022-09-17T14:26:43Z</time></trkpt><trkpt lat="49.920804" lon="5.621383"><ele>459.485</ele><time>2022-09-17T14:26:44Z</time></trkpt><trkpt lat="49.920968" lon="5.621403"><ele>459.157</ele><time>2022-09-17T14:26:45Z</time></trkpt><trkpt lat="49.921130" lon="5.621451"><ele>459.013</ele><time>2022-09-17T14:26:46Z</time></trkpt><trkpt lat="49.921292" lon="5.621452"><ele>458.988</ele><time>2022-09-17T14:26:47Z</time></trkpt><trkpt lat="49.921450" lon="5.621475"><ele>458.683</ele><time>2022-09-17T14:26:48Z</time></trkpt><trkpt lat="49.921597" lon="5.621519"><ele>458.138</ele><time>2022-09-17T14:26:49Z</time></trkpt><trkpt lat="49.921756" lon="5.621539"><ele>457.512</ele><time>2022-09-17T14:26:50Z</time></trkpt><trkpt lat="49.921920" lon="5.621560"><ele>456.729</ele><time>2022-09-17T14:26:51Z</time></trkpt><trkpt lat="49.922083" lon="5.621560"><ele>456.179</ele><time>2022-09-17T14:26:52Z</time></trkpt><trkpt lat="49.922246" lon="5.621593"><ele>455.405</ele><time>2022-09-17T14:26:53Z</time></trkpt><trkpt lat="49.922403" lon="5.621624"><ele>454.825</ele><time>2022-09-17T14:26:54Z</time></trkpt><trkpt lat="49.922555" lon="5.621658"><ele>454.509</ele><time>2022-09-17T14:26:55Z</time></trkpt><trkpt lat="49.922696" lon="5.621727"><ele>454.148</ele><time>2022-09-17T14:26:56Z</time></trkpt><trkpt lat="49.922835" lon="5.621775"><ele>453.738</ele><time>2022-09-17T14:26:57Z</time></trkpt><trkpt lat="49.922960" lon="5.621841"><ele>453.420</ele><time>2022-09-17T14:26:58Z</time></trkpt><trkpt lat="49.923090" lon="5.621910"><ele>453.356</ele><time>2022-09-17T14:26:59Z</time></trkpt><trkpt lat="49.923223" lon="5.621983"><ele>453.261</ele><time>2022-09-17T14:27:00Z</time></trkpt><trkpt lat="49.923355" lon="5.622057"><ele>453.246</ele><time>2022-09-17T14:27:01Z</time></trkpt><trkpt lat="49.923483" lon="5.622130"><ele>453.371</ele><time>2022-09-17T14:27:02Z</time></trkpt><trkpt lat="49.923616" lon="5.622205"><ele>453.515</ele><time>2022-09-17T14:27:03Z</time></trkpt><trkpt lat="49.923746" lon="5.622286"><ele>453.722</ele><time>2022-09-17T14:27:04Z</time></trkpt><trkpt lat="49.923877" lon="5.622370"><ele>453.718</ele><time>2022-09-17T14:27:05Z</time></trkpt><trkpt lat="49.924004" lon="5.622455"><ele>453.798</ele><time>2022-09-17T14:27:06Z</time></trkpt><trkpt lat="49.924130" lon="5.622549"><ele>453.617</ele><time>2022-09-17T14:27:07Z</time></trkpt><trkpt lat="49.924257" lon="5.622643"><ele>453.409</ele><time>2022-09-17T14:27:08Z</time></trkpt><trkpt lat="49.924384" lon="5.622740"><ele>453.162</ele><time>2022-09-17T14:27:09Z</time></trkpt><trkpt lat="49.924512" lon="5.622842"><ele>452.822</ele><time>2022-09-17T14:27:10Z</time></trkpt><trkpt lat="49.924623" lon="5.622973"><ele>452.434</ele><time>2022-09-17T14:27:11Z</time></trkpt><trkpt lat="49.924728" lon="5.623112"><ele>451.940</ele><time>2022-09-17T14:27:12Z</time></trkpt><trkpt lat="49.924835" lon="5.623269"><ele>451.565</ele><time>2022-09-17T14:27:13Z</time></trkpt><trkpt lat="49.924938" lon="5.623459"><ele>451.320</ele><time>2022-09-17T14:27:14Z</time></trkpt><trkpt lat="49.925041" lon="5.623644"><ele>451.115</ele><time>2022-09-17T14:27:15Z</time></trkpt><trkpt lat="49.925139" lon="5.623820"><ele>451.089</ele><time>2022-09-17T14:27:16Z</time></trkpt><trkpt lat="49.925232" lon="5.623987"><ele>451.076</ele><time>2022-09-17T14:27:17Z</time></trkpt><trkpt lat="49.925317" lon="5.624139"><ele>451.085</ele><time>2022-09-17T14:27:18Z</time></trkpt><trkpt lat="49.925403" lon="5.624277"><ele>451.089</ele><time>2022-09-17T14:27:19Z</time></trkpt><trkpt lat="49.925476" lon="5.624396"><ele>451.117</ele><time>2022-09-17T14:27:20Z</time></trkpt><trkpt lat="49.925553" lon="5.624487"><ele>451.409</ele><time>2022-09-17T14:27:21Z</time></trkpt><trkpt lat="49.925620" lon="5.624555"><ele>451.829</ele><time>2022-09-17T14:27:22Z</time></trkpt><trkpt lat="49.925701" lon="5.624532"><ele>452.119</ele><time>2022-09-17T14:27:23Z</time></trkpt><trkpt lat="49.925770" lon="5.624463"><ele>452.891</ele><time>2022-09-17T14:27:24Z</time></trkpt><trkpt lat="49.925815" lon="5.624371"><ele>453.447</ele><time>2022-09-17T14:27:25Z</time></trkpt><trkpt lat="49.925908" lon="5.624213"><ele>453.922</ele><time>2022-09-17T14:27:26Z</time></trkpt><trkpt lat="49.926010" lon="5.624040"><ele>454.227</ele><time>2022-09-17T14:27:27Z</time></trkpt><trkpt lat="49.926112" lon="5.623867"><ele>454.862</ele><time>2022-09-17T14:27:28Z</time></trkpt><trkpt lat="49.926211" lon="5.623698"><ele>455.466</ele><time>2022-09-17T14:27:29Z</time></trkpt><trkpt lat="49.926306" lon="5.623538"><ele>455.723</ele><time>2022-09-17T14:27:30Z</time></trkpt><trkpt lat="49.926399" lon="5.623380"><ele>456.127</ele><time>2022-09-17T14:27:31Z</time></trkpt><trkpt lat="49.926486" lon="5.623234"><ele>456.468</ele><time>2022-09-17T14:27:32Z</time></trkpt><trkpt lat="49.926565" lon="5.623102"><ele>456.414</ele><time>2022-09-17T14:27:33Z</time></trkpt><trkpt lat="49.926648" lon="5.622998"><ele>456.209</ele><time>2022-09-17T14:27:34Z</time></trkpt><trkpt lat="49.926689" lon="5.622903"><ele>456.243</ele><time>2022-09-17T14:27:35Z</time></trkpt><trkpt lat="49.926729" lon="5.622833"><ele>456.513</ele><time>2022-09-17T14:27:36Z</time></trkpt><trkpt lat="49.926765" lon="5.622785"><ele>457.065</ele><time>2022-09-17T14:27:37Z</time></trkpt><trkpt lat="49.926834" lon="5.622907"><ele>457.551</ele><time>2022-09-17T14:27:40Z</time></trkpt><trkpt lat="49.926885" lon="5.623019"><ele>458.926</ele><time>2022-09-17T14:27:41Z</time></trkpt><trkpt lat="49.926948" lon="5.623157"><ele>460.321</ele><time>2022-09-17T14:27:42Z</time></trkpt><trkpt lat="49.927024" lon="5.623324"><ele>460.696</ele><time>2022-09-17T14:27:43Z</time></trkpt><trkpt lat="49.927116" lon="5.623527"><ele>461.180</ele><time>2022-09-17T14:27:44Z</time></trkpt><trkpt lat="49.927222" lon="5.623716"><ele>461.597</ele><time>2022-09-17T14:27:45Z</time></trkpt><trkpt lat="49.927327" lon="5.623947"><ele>462.055</ele><time>2022-09-17T14:27:46Z</time></trkpt><trkpt lat="49.927427" lon="5.624165"><ele>462.607</ele><time>2022-09-17T14:27:47Z</time></trkpt><trkpt lat="49.927530" lon="5.624393"><ele>463.117</ele><time>2022-09-17T14:27:48Z</time></trkpt><trkpt lat="49.927629" lon="5.624610"><ele>463.509</ele><time>2022-09-17T14:27:49Z</time></trkpt><trkpt lat="49.927729" lon="5.624826"><ele>464.056</ele><time>2022-09-17T14:27:50Z</time></trkpt><trkpt lat="49.927829" lon="5.625042"><ele>464.556</ele><time>2022-09-17T14:27:51Z</time></trkpt><trkpt lat="49.927917" lon="5.625279"><ele>465.038</ele><time>2022-09-17T14:27:52Z</time></trkpt><trkpt lat="49.928020" lon="5.625504"><ele>465.764</ele><time>2022-09-17T14:27:53Z</time></trkpt><trkpt lat="49.928125" lon="5.625733"><ele>466.549</ele><time>2022-09-17T14:27:54Z</time></trkpt><trkpt lat="49.928231" lon="5.625964"><ele>467.384</ele><time>2022-09-17T14:27:55Z</time></trkpt><trkpt lat="49.928336" lon="5.626193"><ele>468.089</ele><time>2022-09-17T14:27:56Z</time></trkpt><trkpt lat="49.928438" lon="5.626416"><ele>468.793</ele><time>2022-09-17T14:27:57Z</time></trkpt><trkpt lat="49.928537" lon="5.626632"><ele>469.240</ele><time>2022-09-17T14:27:58Z</time></trkpt><trkpt lat="49.928636" lon="5.626848"><ele>469.894</ele><time>2022-09-17T14:27:59Z</time></trkpt><trkpt lat="49.928731" lon="5.627054"><ele>470.457</ele><time>2022-09-17T14:28:00Z</time></trkpt><trkpt lat="49.928823" lon="5.627255"><ele>470.922</ele><time>2022-09-17T14:28:01Z</time></trkpt><trkpt lat="49.928912" lon="5.627449"><ele>471.409</ele><time>2022-09-17T14:28:02Z</time></trkpt><trkpt lat="49.928996" lon="5.627632"><ele>471.940</ele><time>2022-09-17T14:28:03Z</time></trkpt><trkpt lat="49.929077" lon="5.627809"><ele>472.280</ele><time>2022-09-17T14:28:04Z</time></trkpt><trkpt lat="49.929157" lon="5.627982"><ele>472.422</ele><time>2022-09-17T14:28:05Z</time></trkpt><trkpt lat="49.929237" lon="5.628154"><ele>472.538</ele><time>2022-09-17T14:28:06Z</time></trkpt><trkpt lat="49.929324" lon="5.628341"><ele>472.643</ele><time>2022-09-17T14:28:07Z</time></trkpt><trkpt lat="49.929414" lon="5.628537"><ele>472.778</ele><time>2022-09-17T14:28:08Z</time></trkpt><trkpt lat="49.929508" lon="5.628741"><ele>472.643</ele><time>2022-09-17T14:28:09Z</time></trkpt><trkpt lat="49.929603" lon="5.628947"><ele>472.367</ele><time>2022-09-17T14:28:10Z</time></trkpt><trkpt lat="49.929700" lon="5.629157"><ele>471.994</ele><time>2022-09-17T14:28:11Z</time></trkpt><trkpt lat="49.929802" lon="5.629377"><ele>471.352</ele><time>2022-09-17T14:28:12Z</time></trkpt><trkpt lat="49.929901" lon="5.629591"><ele>470.453</ele><time>2022-09-17T14:28:13Z</time></trkpt><trkpt lat="49.930001" lon="5.629808"><ele>469.508</ele><time>2022-09-17T14:28:14Z</time></trkpt><trkpt lat="49.930101" lon="5.630024"><ele>468.609</ele><time>2022-09-17T14:28:15Z</time></trkpt><trkpt lat="49.930201" lon="5.630240"><ele>467.726</ele><time>2022-09-17T14:28:16Z</time></trkpt><trkpt lat="49.930299" lon="5.630454"><ele>467.056</ele><time>2022-09-17T14:28:17Z</time></trkpt><trkpt lat="49.930399" lon="5.630669"><ele>466.348</ele><time>2022-09-17T14:28:18Z</time></trkpt><trkpt lat="49.930493" lon="5.630881"><ele>465.574</ele><time>2022-09-17T14:28:19Z</time></trkpt><trkpt lat="49.930584" lon="5.631092"><ele>464.719</ele><time>2022-09-17T14:28:20Z</time></trkpt><trkpt lat="49.930664" lon="5.631289"><ele>463.924</ele><time>2022-09-17T14:28:21Z</time></trkpt><trkpt lat="49.930721" lon="5.631441"><ele>463.529</ele><time>2022-09-17T14:28:22Z</time></trkpt><trkpt lat="49.930772" lon="5.631599"><ele>462.573</ele><time>2022-09-17T14:28:23Z</time></trkpt><trkpt lat="49.930800" lon="5.631739"><ele>461.540</ele><time>2022-09-17T14:28:24Z</time></trkpt><trkpt lat="49.930824" lon="5.631847"><ele>460.376</ele><time>2022-09-17T14:28:25Z</time></trkpt><trkpt lat="49.930840" lon="5.631915"><ele>459.890</ele><time>2022-09-17T14:28:26Z</time></trkpt><trkpt lat="49.930942" lon="5.631909"><ele>458.819</ele><time>2022-09-17T14:28:27Z</time></trkpt><trkpt lat="49.930993" lon="5.631915"><ele>457.809</ele><time>2022-09-17T14:28:29Z</time></trkpt><trkpt lat="49.931034" lon="5.631944"><ele>457.358</ele><time>2022-09-17T14:28:31Z</time></trkpt><trkpt lat="49.931070" lon="5.632004"><ele>456.528</ele><time>2022-09-17T14:28:33Z</time></trkpt><trkpt lat="49.931117" lon="5.632083"><ele>456.070</ele><time>2022-09-17T14:28:35Z</time></trkpt><trkpt lat="49.931142" lon="5.632186"><ele>455.716</ele><time>2022-09-17T14:28:37Z</time></trkpt><trkpt lat="49.931182" lon="5.632278"><ele>455.621</ele><time>2022-09-17T14:28:39Z</time></trkpt><trkpt lat="49.931227" lon="5.632374"><ele>455.416</ele><time>2022-09-17T14:28:41Z</time></trkpt><trkpt lat="49.931284" lon="5.632496"><ele>455.281</ele><time>2022-09-17T14:28:43Z</time></trkpt><trkpt lat="49.931326" lon="5.632586"><ele>454.965</ele><time>2022-09-17T14:28:44Z</time></trkpt><trkpt lat="49.931376" lon="5.632691"><ele>454.672</ele><time>2022-09-17T14:28:45Z</time></trkpt><trkpt lat="49.931435" lon="5.632816"><ele>454.477</ele><time>2022-09-17T14:28:46Z</time></trkpt><trkpt lat="49.931506" lon="5.632953"><ele>454.061</ele><time>2022-09-17T14:28:47Z</time></trkpt><trkpt lat="49.931582" lon="5.633095"><ele>453.627</ele><time>2022-09-17T14:28:48Z</time></trkpt><trkpt lat="49.931654" lon="5.633230"><ele>453.209</ele><time>2022-09-17T14:28:49Z</time></trkpt><trkpt lat="49.931724" lon="5.633359"><ele>452.848</ele><time>2022-09-17T14:28:50Z</time></trkpt><trkpt lat="49.931795" lon="5.633478"><ele>452.218</ele><time>2022-09-17T14:28:51Z</time></trkpt><trkpt lat="49.931862" lon="5.633611"><ele>451.250</ele><time>2022-09-17T14:28:52Z</time></trkpt><trkpt lat="49.931929" lon="5.633739"><ele>450.446</ele><time>2022-09-17T14:28:53Z</time></trkpt><trkpt lat="49.932006" lon="5.633867"><ele>449.481</ele><time>2022-09-17T14:28:54Z</time></trkpt><trkpt lat="49.932082" lon="5.634003"><ele>448.386</ele><time>2022-09-17T14:28:55Z</time></trkpt><trkpt lat="49.932158" lon="5.634144"><ele>447.311</ele><time>2022-09-17T14:28:56Z</time></trkpt><trkpt lat="49.932243" lon="5.634284"><ele>446.885</ele><time>2022-09-17T14:28:57Z</time></trkpt><trkpt lat="49.932329" lon="5.634426"><ele>446.072</ele><time>2022-09-17T14:28:58Z</time></trkpt><trkpt lat="49.932414" lon="5.634561"><ele>445.326</ele><time>2022-09-17T14:28:59Z</time></trkpt><trkpt lat="49.932481" lon="5.634724"><ele>444.547</ele><time>2022-09-17T14:29:00Z</time></trkpt><trkpt lat="49.932560" lon="5.634880"><ele>443.611</ele><time>2022-09-17T14:29:01Z</time></trkpt><trkpt lat="49.932630" lon="5.635036"><ele>442.609</ele><time>2022-09-17T14:29:02Z</time></trkpt><trkpt lat="49.932701" lon="5.635192"><ele>441.643</ele><time>2022-09-17T14:29:03Z</time></trkpt><trkpt lat="49.932758" lon="5.635378"><ele>440.683</ele><time>2022-09-17T14:29:04Z</time></trkpt><trkpt lat="49.932808" lon="5.635538"><ele>439.685</ele><time>2022-09-17T14:29:05Z</time></trkpt><trkpt lat="49.932897" lon="5.635727"><ele>438.741</ele><time>2022-09-17T14:29:06Z</time></trkpt><trkpt lat="49.932960" lon="5.635935"><ele>437.786</ele><time>2022-09-17T14:29:07Z</time></trkpt><trkpt lat="49.933025" lon="5.636147"><ele>437.291</ele><time>2022-09-17T14:29:08Z</time></trkpt><trkpt lat="49.933084" lon="5.636344"><ele>436.956</ele><time>2022-09-17T14:29:09Z</time></trkpt><trkpt lat="49.933138" lon="5.636520"><ele>436.850</ele><time>2022-09-17T14:29:10Z</time></trkpt><trkpt lat="49.933191" lon="5.636686"><ele>436.437</ele><time>2022-09-17T14:29:11Z</time></trkpt><trkpt lat="49.933246" lon="5.636847"><ele>436.265</ele><time>2022-09-17T14:29:12Z</time></trkpt><trkpt lat="49.933302" lon="5.637009"><ele>436.268</ele><time>2022-09-17T14:29:13Z</time></trkpt><trkpt lat="49.933357" lon="5.637203"><ele>436.314</ele><time>2022-09-17T14:29:14Z</time></trkpt><trkpt lat="49.933427" lon="5.637392"><ele>436.309</ele><time>2022-09-17T14:29:15Z</time></trkpt><trkpt lat="49.933493" lon="5.637581"><ele>436.727</ele><time>2022-09-17T14:29:16Z</time></trkpt><trkpt lat="49.933552" lon="5.637775"><ele>437.137</ele><time>2022-09-17T14:29:17Z</time></trkpt><trkpt lat="49.933612" lon="5.637965"><ele>437.319</ele><time>2022-09-17T14:29:18Z</time></trkpt><trkpt lat="49.933668" lon="5.638140"><ele>437.415</ele><time>2022-09-17T14:29:19Z</time></trkpt><trkpt lat="49.933656" lon="5.638343"><ele>437.770</ele><time>2022-09-17T14:29:20Z</time></trkpt><trkpt lat="49.933706" lon="5.638513"><ele>438.045</ele><time>2022-09-17T14:29:21Z</time></trkpt><trkpt lat="49.933767" lon="5.638689"><ele>438.240</ele><time>2022-09-17T14:29:22Z</time></trkpt><trkpt lat="49.933834" lon="5.638863"><ele>438.324</ele><time>2022-09-17T14:29:23Z</time></trkpt><trkpt lat="49.933896" lon="5.639030"><ele>438.531</ele><time>2022-09-17T14:29:24Z</time></trkpt><trkpt lat="49.933954" lon="5.639190"><ele>438.721</ele><time>2022-09-17T14:29:25Z</time></trkpt><trkpt lat="49.934013" lon="5.639353"><ele>438.941</ele><time>2022-09-17T14:29:26Z</time></trkpt><trkpt lat="49.934037" lon="5.639517"><ele>439.305</ele><time>2022-09-17T14:29:27Z</time></trkpt><trkpt lat="49.934083" lon="5.639690"><ele>439.609</ele><time>2022-09-17T14:29:28Z</time></trkpt><trkpt lat="49.934122" lon="5.639843"><ele>440.073</ele><time>2022-09-17T14:29:29Z</time></trkpt><trkpt lat="49.934168" lon="5.639982"><ele>440.563</ele><time>2022-09-17T14:29:30Z</time></trkpt><trkpt lat="49.934216" lon="5.640119"><ele>440.995</ele><time>2022-09-17T14:29:31Z</time></trkpt><trkpt lat="49.934264" lon="5.640245"><ele>441.151</ele><time>2022-09-17T14:29:32Z</time></trkpt><trkpt lat="49.934327" lon="5.640371"><ele>441.396</ele><time>2022-09-17T14:29:33Z</time></trkpt><trkpt lat="49.934387" lon="5.640472"><ele>441.581</ele><time>2022-09-17T14:29:34Z</time></trkpt><trkpt lat="49.934451" lon="5.640562"><ele>441.546</ele><time>2022-09-17T14:29:35Z</time></trkpt><trkpt lat="49.934513" lon="5.640652"><ele>441.530</ele><time>2022-09-17T14:29:36Z</time></trkpt><trkpt lat="49.934564" lon="5.640715"><ele>441.597</ele><time>2022-09-17T14:29:37Z</time></trkpt><trkpt lat="49.934608" lon="5.640762"><ele>441.482</ele><time>2022-09-17T14:29:38Z</time></trkpt><trkpt lat="49.934593" lon="5.640927"><ele>441.143</ele><time>2022-09-17T14:29:39Z</time></trkpt><trkpt lat="49.934591" lon="5.641018"><ele>440.617</ele><time>2022-09-17T14:29:40Z</time></trkpt><trkpt lat="49.934603" lon="5.641137"><ele>440.009</ele><time>2022-09-17T14:29:42Z</time></trkpt><trkpt lat="49.934625" lon="5.641285"><ele>439.089</ele><time>2022-09-17T14:29:44Z</time></trkpt><trkpt lat="49.934614" lon="5.641380"><ele>437.949</ele><time>2022-09-17T14:29:45Z</time></trkpt><trkpt lat="49.934547" lon="5.641545"><ele>437.161</ele><time>2022-09-17T14:29:46Z</time></trkpt><trkpt lat="49.934568" lon="5.641670"><ele>436.857</ele><time>2022-09-17T14:29:47Z</time></trkpt><trkpt lat="49.934621" lon="5.641826"><ele>436.622</ele><time>2022-09-17T14:29:48Z</time></trkpt><trkpt lat="49.934700" lon="5.641953"><ele>436.337</ele><time>2022-09-17T14:29:49Z</time></trkpt><trkpt lat="49.934766" lon="5.642052"><ele>436.012</ele><time>2022-09-17T14:29:50Z</time></trkpt><trkpt lat="49.934826" lon="5.642142"><ele>435.766</ele><time>2022-09-17T14:29:51Z</time></trkpt><trkpt lat="49.934876" lon="5.642220"><ele>435.653</ele><time>2022-09-17T14:29:52Z</time></trkpt><trkpt lat="49.934913" lon="5.642277"><ele>435.376</ele><time>2022-09-17T14:29:53Z</time></trkpt><trkpt lat="49.934947" lon="5.642330"><ele>435.290</ele><time>2022-09-17T14:29:54Z</time></trkpt><trkpt lat="49.934957" lon="5.642433"><ele>435.019</ele><time>2022-09-17T14:29:57Z</time></trkpt><trkpt lat="49.934938" lon="5.642510"><ele>435.009</ele><time>2022-09-17T14:30:00Z</time></trkpt><trkpt lat="49.934945" lon="5.642603"><ele>434.868</ele><time>2022-09-17T14:30:02Z</time></trkpt><trkpt lat="49.934882" lon="5.642663"><ele>434.578</ele><time>2022-09-17T14:30:04Z</time></trkpt><trkpt lat="49.934852" lon="5.642735"><ele>434.410</ele><time>2022-09-17T14:30:05Z</time></trkpt><trkpt lat="49.934816" lon="5.642828"><ele>434.186</ele><time>2022-09-17T14:30:06Z</time></trkpt><trkpt lat="49.934781" lon="5.642918"><ele>434.071</ele><time>2022-09-17T14:30:07Z</time></trkpt><trkpt lat="49.934738" lon="5.643029"><ele>433.826</ele><time>2022-09-17T14:30:08Z</time></trkpt><trkpt lat="49.934692" lon="5.643163"><ele>433.631</ele><time>2022-09-17T14:30:09Z</time></trkpt><trkpt lat="49.934646" lon="5.643298"><ele>433.275</ele><time>2022-09-17T14:30:10Z</time></trkpt><trkpt lat="49.934601" lon="5.643451"><ele>432.922</ele><time>2022-09-17T14:30:11Z</time></trkpt><trkpt lat="49.934576" lon="5.643573"><ele>432.596</ele><time>2022-09-17T14:30:12Z</time></trkpt><trkpt lat="49.934551" lon="5.643712"><ele>432.131</ele><time>2022-09-17T14:30:13Z</time></trkpt><trkpt lat="49.934539" lon="5.643825"><ele>432.024</ele><time>2022-09-17T14:30:14Z</time></trkpt><trkpt lat="49.934529" lon="5.643923"><ele>431.809</ele><time>2022-09-17T14:30:15Z</time></trkpt><trkpt lat="49.934521" lon="5.644003"><ele>431.670</ele><time>2022-09-17T14:30:16Z</time></trkpt><trkpt lat="49.934493" lon="5.644127"><ele>431.660</ele><time>2022-09-17T14:30:18Z</time></trkpt><trkpt lat="49.934420" lon="5.644116"><ele>431.612</ele><time>2022-09-17T14:30:19Z</time></trkpt><trkpt lat="49.934349" lon="5.644134"><ele>431.638</ele><time>2022-09-17T14:30:20Z</time></trkpt><trkpt lat="49.934277" lon="5.644150"><ele>431.693</ele><time>2022-09-17T14:30:21Z</time></trkpt><trkpt lat="49.934207" lon="5.644168"><ele>431.628</ele><time>2022-09-17T14:30:22Z</time></trkpt><trkpt lat="49.934134" lon="5.644169"><ele>431.683</ele><time>2022-09-17T14:30:23Z</time></trkpt><trkpt lat="49.934061" lon="5.644145"><ele>431.667</ele><time>2022-09-17T14:30:24Z</time></trkpt><trkpt lat="49.933983" lon="5.644146"><ele>431.774</ele><time>2022-09-17T14:30:25Z</time></trkpt><trkpt lat="49.933885" lon="5.644162"><ele>431.918</ele><time>2022-09-17T14:30:26Z</time></trkpt><trkpt lat="49.933793" lon="5.644193"><ele>432.398</ele><time>2022-09-17T14:30:27Z</time></trkpt><trkpt lat="49.933690" lon="5.644270"><ele>432.717</ele><time>2022-09-17T14:30:28Z</time></trkpt><trkpt lat="49.933598" lon="5.644377"><ele>433.209</ele><time>2022-09-17T14:30:29Z</time></trkpt><trkpt lat="49.933518" lon="5.644518"><ele>433.782</ele><time>2022-09-17T14:30:30Z</time></trkpt><trkpt lat="49.933471" lon="5.644644"><ele>434.322</ele><time>2022-09-17T14:30:31Z</time></trkpt><trkpt lat="49.933435" lon="5.644799"><ele>434.934</ele><time>2022-09-17T14:30:32Z</time></trkpt><trkpt lat="49.933405" lon="5.644925"><ele>435.550</ele><time>2022-09-17T14:30:33Z</time></trkpt><trkpt lat="49.933376" lon="5.645045"><ele>436.355</ele><time>2022-09-17T14:30:34Z</time></trkpt><trkpt lat="49.933346" lon="5.645169"><ele>436.790</ele><time>2022-09-17T14:30:35Z</time></trkpt><trkpt lat="49.933316" lon="5.645292"><ele>437.695</ele><time>2022-09-17T14:30:36Z</time></trkpt><trkpt lat="49.933286" lon="5.645417"><ele>438.669</ele><time>2022-09-17T14:30:37Z</time></trkpt><trkpt lat="49.933466" lon="5.645670"><ele>440.496</ele><time>2022-09-17T14:30:38Z</time></trkpt><trkpt lat="49.933498" lon="5.645839"><ele>441.396</ele><time>2022-09-17T14:30:39Z</time></trkpt><trkpt lat="49.933514" lon="5.646011"><ele>441.731</ele><time>2022-09-17T14:30:40Z</time></trkpt><trkpt lat="49.933526" lon="5.646190"><ele>442.624</ele><time>2022-09-17T14:30:41Z</time></trkpt><trkpt lat="49.933529" lon="5.646381"><ele>443.609</ele><time>2022-09-17T14:30:42Z</time></trkpt><trkpt lat="49.933535" lon="5.646587"><ele>444.770</ele><time>2022-09-17T14:30:43Z</time></trkpt><trkpt lat="49.933537" lon="5.646801"><ele>446.450</ele><time>2022-09-17T14:30:44Z</time></trkpt><trkpt lat="49.933532" lon="5.647016"><ele>447.792</ele><time>2022-09-17T14:30:45Z</time></trkpt><trkpt lat="49.933529" lon="5.647254"><ele>448.918</ele><time>2022-09-17T14:30:46Z</time></trkpt><trkpt lat="49.933521" lon="5.647480"><ele>450.373</ele><time>2022-09-17T14:30:47Z</time></trkpt><trkpt lat="49.933510" lon="5.647699"><ele>451.958</ele><time>2022-09-17T14:30:48Z</time></trkpt><trkpt lat="49.933503" lon="5.647903"><ele>453.523</ele><time>2022-09-17T14:30:49Z</time></trkpt><trkpt lat="49.933502" lon="5.648102"><ele>454.247</ele><time>2022-09-17T14:30:50Z</time></trkpt><trkpt lat="49.933497" lon="5.648303"><ele>455.694</ele><time>2022-09-17T14:30:51Z</time></trkpt><trkpt lat="49.933492" lon="5.648514"><ele>457.099</ele><time>2022-09-17T14:30:52Z</time></trkpt><trkpt lat="49.933487" lon="5.648728"><ele>458.807</ele><time>2022-09-17T14:30:53Z</time></trkpt><trkpt lat="49.933482" lon="5.648947"><ele>460.127</ele><time>2022-09-17T14:30:54Z</time></trkpt><trkpt lat="49.933472" lon="5.649173"><ele>461.509</ele><time>2022-09-17T14:30:55Z</time></trkpt><trkpt lat="49.933464" lon="5.649387"><ele>462.990</ele><time>2022-09-17T14:30:56Z</time></trkpt><trkpt lat="49.933458" lon="5.649590"><ele>464.360</ele><time>2022-09-17T14:30:57Z</time></trkpt><trkpt lat="49.933455" lon="5.649782"><ele>464.922</ele><time>2022-09-17T14:30:58Z</time></trkpt><trkpt lat="49.933449" lon="5.649966"><ele>466.068</ele><time>2022-09-17T14:30:59Z</time></trkpt><trkpt lat="49.933432" lon="5.650143"><ele>467.363</ele><time>2022-09-17T14:31:00Z</time></trkpt><trkpt lat="49.933403" lon="5.650320"><ele>468.638</ele><time>2022-09-17T14:31:01Z</time></trkpt><trkpt lat="49.933358" lon="5.650494"><ele>469.823</ele><time>2022-09-17T14:31:02Z</time></trkpt><trkpt lat="49.933302" lon="5.650671"><ele>471.227</ele><time>2022-09-17T14:31:03Z</time></trkpt><trkpt lat="49.933240" lon="5.650851"><ele>472.764</ele><time>2022-09-17T14:31:04Z</time></trkpt><trkpt lat="49.933179" lon="5.651035"><ele>474.086</ele><time>2022-09-17T14:31:05Z</time></trkpt><trkpt lat="49.933120" lon="5.651219"><ele>475.460</ele><time>2022-09-17T14:31:06Z</time></trkpt><trkpt lat="49.933062" lon="5.651399"><ele>477.026</ele><time>2022-09-17T14:31:07Z</time></trkpt><trkpt lat="49.933004" lon="5.651582"><ele>478.509</ele><time>2022-09-17T14:31:08Z</time></trkpt><trkpt lat="49.932944" lon="5.651764"><ele>480.189</ele><time>2022-09-17T14:31:09Z</time></trkpt><trkpt lat="49.932885" lon="5.651951"><ele>481.799</ele><time>2022-09-17T14:31:10Z</time></trkpt><trkpt lat="49.932822" lon="5.652142"><ele>483.751</ele><time>2022-09-17T14:31:11Z</time></trkpt><trkpt lat="49.932756" lon="5.652349"><ele>485.047</ele><time>2022-09-17T14:31:12Z</time></trkpt><trkpt lat="49.932690" lon="5.652550"><ele>486.282</ele><time>2022-09-17T14:31:13Z</time></trkpt><trkpt lat="49.932629" lon="5.652752"><ele>487.497</ele><time>2022-09-17T14:31:14Z</time></trkpt><trkpt lat="49.932574" lon="5.652950"><ele>488.662</ele><time>2022-09-17T14:31:15Z</time></trkpt><trkpt lat="49.932519" lon="5.653153"><ele>489.766</ele><time>2022-09-17T14:31:16Z</time></trkpt><trkpt lat="49.932467" lon="5.653351"><ele>490.463</ele><time>2022-09-17T14:31:17Z</time></trkpt><trkpt lat="49.932410" lon="5.653554"><ele>490.855</ele><time>2022-09-17T14:31:18Z</time></trkpt><trkpt lat="49.932359" lon="5.653768"><ele>491.207</ele><time>2022-09-17T14:31:19Z</time></trkpt><trkpt lat="49.932303" lon="5.653990"><ele>491.517</ele><time>2022-09-17T14:31:20Z</time></trkpt><trkpt lat="49.932245" lon="5.654203"><ele>491.609</ele><time>2022-09-17T14:31:21Z</time></trkpt><trkpt lat="49.932186" lon="5.654416"><ele>491.846</ele><time>2022-09-17T14:31:22Z</time></trkpt><trkpt lat="49.932123" lon="5.654631"><ele>492.216</ele><time>2022-09-17T14:31:23Z</time></trkpt><trkpt lat="49.932064" lon="5.654844"><ele>492.568</ele><time>2022-09-17T14:31:24Z</time></trkpt><trkpt lat="49.932005" lon="5.655054"><ele>492.824</ele><time>2022-09-17T14:31:25Z</time></trkpt><trkpt lat="49.931946" lon="5.655268"><ele>493.239</ele><time>2022-09-17T14:31:26Z</time></trkpt><trkpt lat="49.931892" lon="5.655487"><ele>493.724</ele><time>2022-09-17T14:31:27Z</time></trkpt><trkpt lat="49.931840" lon="5.655715"><ele>494.219</ele><time>2022-09-17T14:31:28Z</time></trkpt><trkpt lat="49.931795" lon="5.655941"><ele>494.953</ele><time>2022-09-17T14:31:29Z</time></trkpt><trkpt lat="49.931758" lon="5.656169"><ele>495.650</ele><time>2022-09-17T14:31:30Z</time></trkpt><trkpt lat="49.931724" lon="5.656384"><ele>496.116</ele><time>2022-09-17T14:31:31Z</time></trkpt><trkpt lat="49.931689" lon="5.656580"><ele>496.676</ele><time>2022-09-17T14:31:32Z</time></trkpt><trkpt lat="49.931659" lon="5.656757"><ele>496.913</ele><time>2022-09-17T14:31:33Z</time></trkpt><trkpt lat="49.931632" lon="5.656933"><ele>497.609</ele><time>2022-09-17T14:31:34Z</time></trkpt><trkpt lat="49.931607" lon="5.657104"><ele>498.282</ele><time>2022-09-17T14:31:35Z</time></trkpt><trkpt lat="49.931587" lon="5.657273"><ele>498.892</ele><time>2022-09-17T14:31:36Z</time></trkpt><trkpt lat="49.931575" lon="5.657445"><ele>499.734</ele><time>2022-09-17T14:31:37Z</time></trkpt><trkpt lat="49.931571" lon="5.657623"><ele>500.580</ele><time>2022-09-17T14:31:38Z</time></trkpt><trkpt lat="49.931582" lon="5.657794"><ele>501.145</ele><time>2022-09-17T14:31:39Z</time></trkpt><trkpt lat="49.931593" lon="5.657945"><ele>501.480</ele><time>2022-09-17T14:31:40Z</time></trkpt><trkpt lat="49.931603" lon="5.658084"><ele>501.785</ele><time>2022-09-17T14:31:41Z</time></trkpt><trkpt lat="49.931606" lon="5.658244"><ele>501.969</ele><time>2022-09-17T14:31:42Z</time></trkpt><trkpt lat="49.931604" lon="5.658415"><ele>502.066</ele><time>2022-09-17T14:31:43Z</time></trkpt><trkpt lat="49.931602" lon="5.658583"><ele>502.074</ele><time>2022-09-17T14:31:44Z</time></trkpt><trkpt lat="49.931594" lon="5.658763"><ele>501.856</ele><time>2022-09-17T14:31:45Z</time></trkpt><trkpt lat="49.931584" lon="5.658943"><ele>501.421</ele><time>2022-09-17T14:31:46Z</time></trkpt><trkpt lat="49.931565" lon="5.659119"><ele>500.909</ele><time>2022-09-17T14:31:47Z</time></trkpt><trkpt lat="49.931544" lon="5.659296"><ele>500.188</ele><time>2022-09-17T14:31:48Z</time></trkpt><trkpt lat="49.931524" lon="5.659477"><ele>499.148</ele><time>2022-09-17T14:31:49Z</time></trkpt><trkpt lat="49.931515" lon="5.659656"><ele>498.010</ele><time>2022-09-17T14:31:50Z</time></trkpt><trkpt lat="49.931515" lon="5.659836"><ele>496.916</ele><time>2022-09-17T14:31:51Z</time></trkpt><trkpt lat="49.931518" lon="5.660022"><ele>495.541</ele><time>2022-09-17T14:31:52Z</time></trkpt><trkpt lat="49.931527" lon="5.660214"><ele>494.086</ele><time>2022-09-17T14:31:53Z</time></trkpt><trkpt lat="49.931545" lon="5.660420"><ele>492.561</ele><time>2022-09-17T14:31:54Z</time></trkpt><trkpt lat="49.931559" lon="5.660637"><ele>490.315</ele><time>2022-09-17T14:31:55Z</time></trkpt><trkpt lat="49.931565" lon="5.660868"><ele>488.962</ele><time>2022-09-17T14:31:56Z</time></trkpt><trkpt lat="49.931574" lon="5.661089"><ele>487.544</ele><time>2022-09-17T14:31:57Z</time></trkpt><trkpt lat="49.931591" lon="5.661280"><ele>486.705</ele><time>2022-09-17T14:31:58Z</time></trkpt><trkpt lat="49.931613" lon="5.661462"><ele>485.115</ele><time>2022-09-17T14:31:59Z</time></trkpt><trkpt lat="49.931642" lon="5.661637"><ele>483.409</ele><time>2022-09-17T14:32:00Z</time></trkpt><trkpt lat="49.931665" lon="5.661810"><ele>482.295</ele><time>2022-09-17T14:32:01Z</time></trkpt><trkpt lat="49.931665" lon="5.661987"><ele>481.295</ele><time>2022-09-17T14:32:02Z</time></trkpt><trkpt lat="49.931634" lon="5.662170"><ele>480.697</ele><time>2022-09-17T14:32:03Z</time></trkpt><trkpt lat="49.931591" lon="5.662362"><ele>480.183</ele><time>2022-09-17T14:32:04Z</time></trkpt><trkpt lat="49.931545" lon="5.662540"><ele>480.088</ele><time>2022-09-17T14:32:05Z</time></trkpt><trkpt lat="49.931490" lon="5.662707"><ele>479.723</ele><time>2022-09-17T14:32:06Z</time></trkpt><trkpt lat="49.931432" lon="5.662884"><ele>479.018</ele><time>2022-09-17T14:32:07Z</time></trkpt><trkpt lat="49.931394" lon="5.663053"><ele>478.382</ele><time>2022-09-17T14:32:08Z</time></trkpt><trkpt lat="49.931385" lon="5.663234"><ele>477.869</ele><time>2022-09-17T14:32:09Z</time></trkpt><trkpt lat="49.931387" lon="5.663429"><ele>477.384</ele><time>2022-09-17T14:32:10Z</time></trkpt><trkpt lat="49.931406" lon="5.663629"><ele>476.907</ele><time>2022-09-17T14:32:11Z</time></trkpt><trkpt lat="49.931417" lon="5.663861"><ele>476.317</ele><time>2022-09-17T14:32:12Z</time></trkpt><trkpt lat="49.931420" lon="5.664066"><ele>475.709</ele><time>2022-09-17T14:32:13Z</time></trkpt><trkpt lat="49.931423" lon="5.664269"><ele>475.429</ele><time>2022-09-17T14:32:14Z</time></trkpt><trkpt lat="49.931418" lon="5.664475"><ele>474.529</ele><time>2022-09-17T14:32:15Z</time></trkpt><trkpt lat="49.931410" lon="5.664670"><ele>473.831</ele><time>2022-09-17T14:32:16Z</time></trkpt><trkpt lat="49.931403" lon="5.664866"><ele>473.247</ele><time>2022-09-17T14:32:17Z</time></trkpt><trkpt lat="49.931388" lon="5.665064"><ele>473.182</ele><time>2022-09-17T14:32:18Z</time></trkpt><trkpt lat="49.931368" lon="5.665264"><ele>473.167</ele><time>2022-09-17T14:32:19Z</time></trkpt><trkpt lat="49.931345" lon="5.665462"><ele>473.062</ele><time>2022-09-17T14:32:20Z</time></trkpt><trkpt lat="49.931319" lon="5.665641"><ele>473.046</ele><time>2022-09-17T14:32:21Z</time></trkpt><trkpt lat="49.931286" lon="5.665800"><ele>473.013</ele><time>2022-09-17T14:32:22Z</time></trkpt><trkpt lat="49.931256" lon="5.665977"><ele>473.422</ele><time>2022-09-17T14:32:23Z</time></trkpt><trkpt lat="49.931210" lon="5.666159"><ele>473.762</ele><time>2022-09-17T14:32:24Z</time></trkpt><trkpt lat="49.931155" lon="5.666339"><ele>473.808</ele><time>2022-09-17T14:32:25Z</time></trkpt><trkpt lat="49.931103" lon="5.666494"><ele>474.509</ele><time>2022-09-17T14:32:26Z</time></trkpt><trkpt lat="49.931050" lon="5.666649"><ele>474.523</ele><time>2022-09-17T14:32:27Z</time></trkpt><trkpt lat="49.930993" lon="5.666802"><ele>473.823</ele><time>2022-09-17T14:32:28Z</time></trkpt><trkpt lat="49.930872" lon="5.666956"><ele>473.125</ele><time>2022-09-17T14:32:29Z</time></trkpt><trkpt lat="49.930797" lon="5.667098"><ele>472.761</ele><time>2022-09-17T14:32:30Z</time></trkpt><trkpt lat="49.930720" lon="5.667220"><ele>472.456</ele><time>2022-09-17T14:32:31Z</time></trkpt><trkpt lat="49.930649" lon="5.667322"><ele>472.221</ele><time>2022-09-17T14:32:32Z</time></trkpt><trkpt lat="49.930571" lon="5.667421"><ele>472.286</ele><time>2022-09-17T14:32:33Z</time></trkpt><trkpt lat="49.930488" lon="5.667507"><ele>472.220</ele><time>2022-09-17T14:32:34Z</time></trkpt><trkpt lat="49.930389" lon="5.667573"><ele>471.827</ele><time>2022-09-17T14:32:35Z</time></trkpt><trkpt lat="49.930292" lon="5.667641"><ele>471.277</ele><time>2022-09-17T14:32:36Z</time></trkpt><trkpt lat="49.930234" lon="5.667700"><ele>470.761</ele><time>2022-09-17T14:32:37Z</time></trkpt><trkpt lat="49.930138" lon="5.667745"><ele>469.827</ele><time>2022-09-17T14:32:38Z</time></trkpt><trkpt lat="49.930058" lon="5.667846"><ele>468.909</ele><time>2022-09-17T14:32:39Z</time></trkpt><trkpt lat="49.929980" lon="5.667942"><ele>468.288</ele><time>2022-09-17T14:32:40Z</time></trkpt><trkpt lat="49.929900" lon="5.668037"><ele>467.498</ele><time>2022-09-17T14:32:41Z</time></trkpt><trkpt lat="49.929830" lon="5.668174"><ele>466.690</ele><time>2022-09-17T14:32:42Z</time></trkpt><trkpt lat="49.929745" lon="5.668266"><ele>466.246</ele><time>2022-09-17T14:32:43Z</time></trkpt><trkpt lat="49.929659" lon="5.668331"><ele>465.811</ele><time>2022-09-17T14:32:44Z</time></trkpt><trkpt lat="49.929566" lon="5.668396"><ele>465.496</ele><time>2022-09-17T14:32:45Z</time></trkpt><trkpt lat="49.929473" lon="5.668417"><ele>465.031</ele><time>2022-09-17T14:32:46Z</time></trkpt><trkpt lat="49.929414" lon="5.668385"><ele>464.845</ele><time>2022-09-17T14:32:47Z</time></trkpt><trkpt lat="49.929324" lon="5.668370"><ele>464.342</ele><time>2022-09-17T14:32:48Z</time></trkpt><trkpt lat="49.929223" lon="5.668354"><ele>463.735</ele><time>2022-09-17T14:32:49Z</time></trkpt><trkpt lat="49.929111" lon="5.668336"><ele>462.886</ele><time>2022-09-17T14:32:50Z</time></trkpt><trkpt lat="49.929012" lon="5.668320"><ele>462.314</ele><time>2022-09-17T14:32:51Z</time></trkpt><trkpt lat="49.928906" lon="5.668319"><ele>461.609</ele><time>2022-09-17T14:32:52Z</time></trkpt><trkpt lat="49.928808" lon="5.668373"><ele>461.094</ele><time>2022-09-17T14:32:53Z</time></trkpt><trkpt lat="49.928728" lon="5.668420"><ele>460.524</ele><time>2022-09-17T14:32:54Z</time></trkpt><trkpt lat="49.928668" lon="5.668489"><ele>460.116</ele><time>2022-09-17T14:32:55Z</time></trkpt><trkpt lat="49.928623" lon="5.668574"><ele>459.332</ele><time>2022-09-17T14:32:56Z</time></trkpt><trkpt lat="49.928573" lon="5.668674"><ele>458.697</ele><time>2022-09-17T14:32:57Z</time></trkpt><trkpt lat="49.928556" lon="5.668778"><ele>458.052</ele><time>2022-09-17T14:32:58Z</time></trkpt><trkpt lat="49.928551" lon="5.668921"><ele>457.477</ele><time>2022-09-17T14:32:59Z</time></trkpt><trkpt lat="49.928553" lon="5.669026"><ele>456.811</ele><time>2022-09-17T14:33:00Z</time></trkpt><trkpt lat="49.928579" lon="5.669102"><ele>456.128</ele><time>2022-09-17T14:33:01Z</time></trkpt><trkpt lat="49.928596" lon="5.669188"><ele>455.489</ele><time>2022-09-17T14:33:03Z</time></trkpt><trkpt lat="49.928641" lon="5.669341"><ele>454.506</ele><time>2022-09-17T14:33:05Z</time></trkpt><trkpt lat="49.928677" lon="5.669458"><ele>453.826</ele><time>2022-09-17T14:33:06Z</time></trkpt><trkpt lat="49.928700" lon="5.669593"><ele>453.509</ele><time>2022-09-17T14:33:07Z</time></trkpt><trkpt lat="49.928723" lon="5.669740"><ele>453.399</ele><time>2022-09-17T14:33:08Z</time></trkpt><trkpt lat="49.928722" lon="5.669881"><ele>452.759</ele><time>2022-09-17T14:33:09Z</time></trkpt><trkpt lat="49.928700" lon="5.670012"><ele>452.051</ele><time>2022-09-17T14:33:10Z</time></trkpt><trkpt lat="49.928651" lon="5.670140"><ele>451.317</ele><time>2022-09-17T14:33:11Z</time></trkpt><trkpt lat="49.928580" lon="5.670238"><ele>450.622</ele><time>2022-09-17T14:33:12Z</time></trkpt><trkpt lat="49.928509" lon="5.670332"><ele>450.047</ele><time>2022-09-17T14:33:13Z</time></trkpt><trkpt lat="49.928455" lon="5.670415"><ele>449.892</ele><time>2022-09-17T14:33:14Z</time></trkpt><trkpt lat="49.928416" lon="5.670498"><ele>449.446</ele><time>2022-09-17T14:33:15Z</time></trkpt><trkpt lat="49.928390" lon="5.670557"><ele>449.043</ele><time>2022-09-17T14:33:16Z</time></trkpt><trkpt lat="49.928395" lon="5.670686"><ele>448.756</ele><time>2022-09-17T14:33:24Z</time></trkpt><trkpt lat="49.928361" lon="5.670857"><ele>448.659</ele><time>2022-09-17T14:33:26Z</time></trkpt><trkpt lat="49.928361" lon="5.670984"><ele>448.614</ele><time>2022-09-17T14:33:27Z</time></trkpt><trkpt lat="49.928360" lon="5.671092"><ele>448.709</ele><time>2022-09-17T14:33:28Z</time></trkpt><trkpt lat="49.928336" lon="5.671187"><ele>448.876</ele><time>2022-09-17T14:33:29Z</time></trkpt><trkpt lat="49.928323" lon="5.671274"><ele>448.886</ele><time>2022-09-17T14:33:30Z</time></trkpt><trkpt lat="49.928307" lon="5.671347"><ele>448.828</ele><time>2022-09-17T14:33:31Z</time></trkpt><trkpt lat="49.928289" lon="5.671418"><ele>448.844</ele><time>2022-09-17T14:33:32Z</time></trkpt><trkpt lat="49.928260" lon="5.671530"><ele>448.899</ele><time>2022-09-17T14:33:34Z</time></trkpt><trkpt lat="49.928294" lon="5.671687"><ele>449.144</ele><time>2022-09-17T14:33:35Z</time></trkpt><trkpt lat="49.928334" lon="5.671792"><ele>449.589</ele><time>2022-09-17T14:33:36Z</time></trkpt><trkpt lat="49.928371" lon="5.671897"><ele>449.823</ele><time>2022-09-17T14:33:37Z</time></trkpt><trkpt lat="49.928412" lon="5.672013"><ele>450.360</ele><time>2022-09-17T14:33:38Z</time></trkpt><trkpt lat="49.928450" lon="5.672120"><ele>450.969</ele><time>2022-09-17T14:33:39Z</time></trkpt><trkpt lat="49.928491" lon="5.672235"><ele>451.504</ele><time>2022-09-17T14:33:40Z</time></trkpt><trkpt lat="49.928528" lon="5.672338"><ele>452.224</ele><time>2022-09-17T14:33:41Z</time></trkpt><trkpt lat="49.928563" lon="5.672437"><ele>453.109</ele><time>2022-09-17T14:33:42Z</time></trkpt><trkpt lat="49.928606" lon="5.672537"><ele>454.087</ele><time>2022-09-17T14:33:43Z</time></trkpt><trkpt lat="49.928654" lon="5.672652"><ele>454.957</ele><time>2022-09-17T14:33:44Z</time></trkpt><trkpt lat="49.928698" lon="5.672756"><ele>455.999</ele><time>2022-09-17T14:33:45Z</time></trkpt><trkpt lat="49.928738" lon="5.672851"><ele>457.195</ele><time>2022-09-17T14:33:46Z</time></trkpt><trkpt lat="49.928778" lon="5.672945"><ele>458.340</ele><time>2022-09-17T14:33:47Z</time></trkpt><trkpt lat="49.928837" lon="5.673026"><ele>459.665</ele><time>2022-09-17T14:33:48Z</time></trkpt><trkpt lat="49.928885" lon="5.673145"><ele>460.930</ele><time>2022-09-17T14:33:49Z</time></trkpt><trkpt lat="49.928923" lon="5.673231"><ele>462.264</ele><time>2022-09-17T14:33:50Z</time></trkpt><trkpt lat="49.928971" lon="5.673343"><ele>463.441</ele><time>2022-09-17T14:33:51Z</time></trkpt><trkpt lat="49.928997" lon="5.673438"><ele>464.576</ele><time>2022-09-17T14:33:52Z</time></trkpt><trkpt lat="49.929019" lon="5.673548"><ele>465.590</ele><time>2022-09-17T14:33:53Z</time></trkpt><trkpt lat="49.929061" lon="5.673672"><ele>466.419</ele><time>2022-09-17T14:33:54Z</time></trkpt><trkpt lat="49.929070" lon="5.673814"><ele>467.409</ele><time>2022-09-17T14:33:55Z</time></trkpt><trkpt lat="49.929112" lon="5.673973"><ele>468.818</ele><time>2022-09-17T14:33:56Z</time></trkpt><trkpt lat="49.929148" lon="5.674121"><ele>469.788</ele><time>2022-09-17T14:33:57Z</time></trkpt><trkpt lat="49.929181" lon="5.674252"><ele>470.710</ele><time>2022-09-17T14:33:58Z</time></trkpt><trkpt lat="49.929195" lon="5.674382"><ele>471.576</ele><time>2022-09-17T14:33:59Z</time></trkpt><trkpt lat="49.929236" lon="5.674462"><ele>471.831</ele><time>2022-09-17T14:34:00Z</time></trkpt><trkpt lat="49.929267" lon="5.674563"><ele>472.456</ele><time>2022-09-17T14:34:01Z</time></trkpt><trkpt lat="49.929293" lon="5.674648"><ele>473.131</ele><time>2022-09-17T14:34:02Z</time></trkpt><trkpt lat="49.929315" lon="5.674718"><ele>473.485</ele><time>2022-09-17T14:34:03Z</time></trkpt><trkpt lat="49.929335" lon="5.674784"><ele>474.052</ele><time>2022-09-17T14:34:05Z</time></trkpt><trkpt lat="49.929448" lon="5.674633"><ele>475.496</ele><time>2022-09-17T14:34:07Z</time></trkpt><trkpt lat="49.929521" lon="5.674561"><ele>477.131</ele><time>2022-09-17T14:34:08Z</time></trkpt><trkpt lat="49.929605" lon="5.674495"><ele>477.324</ele><time>2022-09-17T14:34:09Z</time></trkpt><trkpt lat="49.929677" lon="5.674450"><ele>477.309</ele><time>2022-09-17T14:34:10Z</time></trkpt><trkpt lat="49.929763" lon="5.674417"><ele>477.330</ele><time>2022-09-17T14:34:11Z</time></trkpt><trkpt lat="49.929855" lon="5.674389"><ele>477.330</ele><time>2022-09-17T14:34:12Z</time></trkpt><trkpt lat="49.929945" lon="5.674361"><ele>477.612</ele><time>2022-09-17T14:34:13Z</time></trkpt><trkpt lat="49.930034" lon="5.674336"><ele>477.698</ele><time>2022-09-17T14:34:14Z</time></trkpt><trkpt lat="49.930142" lon="5.674329"><ele>478.193</ele><time>2022-09-17T14:34:15Z</time></trkpt><trkpt lat="49.930261" lon="5.674296"><ele>480.418</ele><time>2022-09-17T14:34:16Z</time></trkpt><trkpt lat="49.930387" lon="5.674271"><ele>480.443</ele><time>2022-09-17T14:34:17Z</time></trkpt><trkpt lat="49.930516" lon="5.674244"><ele>481.117</ele><time>2022-09-17T14:34:18Z</time></trkpt><trkpt lat="49.930638" lon="5.674220"><ele>481.974</ele><time>2022-09-17T14:34:19Z</time></trkpt><trkpt lat="49.930740" lon="5.674200"><ele>482.345</ele><time>2022-09-17T14:34:20Z</time></trkpt><trkpt lat="49.930845" lon="5.674182"><ele>483.047</ele><time>2022-09-17T14:34:21Z</time></trkpt><trkpt lat="49.930946" lon="5.674167"><ele>483.611</ele><time>2022-09-17T14:34:22Z</time></trkpt><trkpt lat="49.931056" lon="5.674147"><ele>484.409</ele><time>2022-09-17T14:34:23Z</time></trkpt><trkpt lat="49.931167" lon="5.674130"><ele>485.465</ele><time>2022-09-17T14:34:24Z</time></trkpt><trkpt lat="49.931286" lon="5.674128"><ele>486.665</ele><time>2022-09-17T14:34:25Z</time></trkpt><trkpt lat="49.931416" lon="5.674133"><ele>487.867</ele><time>2022-09-17T14:34:26Z</time></trkpt><trkpt lat="49.931546" lon="5.674119"><ele>489.073</ele><time>2022-09-17T14:34:27Z</time></trkpt><trkpt lat="49.931669" lon="5.674110"><ele>490.328</ele><time>2022-09-17T14:34:28Z</time></trkpt><trkpt lat="49.931788" lon="5.674101"><ele>491.413</ele><time>2022-09-17T14:34:29Z</time></trkpt><trkpt lat="49.931907" lon="5.674083"><ele>492.758</ele><time>2022-09-17T14:34:30Z</time></trkpt><trkpt lat="49.932029" lon="5.674064"><ele>493.732</ele><time>2022-09-17T14:34:31Z</time></trkpt><trkpt lat="49.932150" lon="5.674048"><ele>494.959</ele><time>2022-09-17T14:34:32Z</time></trkpt><trkpt lat="49.932267" lon="5.674033"><ele>496.182</ele><time>2022-09-17T14:34:33Z</time></trkpt><trkpt lat="49.932388" lon="5.674020"><ele>497.243</ele><time>2022-09-17T14:34:34Z</time></trkpt><trkpt lat="49.932503" lon="5.674010"><ele>497.717</ele><time>2022-09-17T14:34:35Z</time></trkpt><trkpt lat="49.932621" lon="5.673999"><ele>498.309</ele><time>2022-09-17T14:34:36Z</time></trkpt><trkpt lat="49.932721" lon="5.673991"><ele>498.649</ele><time>2022-09-17T14:34:37Z</time></trkpt><trkpt lat="49.932817" lon="5.673984"><ele>499.019</ele><time>2022-09-17T14:34:38Z</time></trkpt><trkpt lat="49.932915" lon="5.673987"><ele>499.741</ele><time>2022-09-17T14:34:39Z</time></trkpt><trkpt lat="49.933011" lon="5.674005"><ele>500.697</ele><time>2022-09-17T14:34:40Z</time></trkpt><trkpt lat="49.933113" lon="5.674029"><ele>501.542</ele><time>2022-09-17T14:34:41Z</time></trkpt><trkpt lat="49.933214" lon="5.674047"><ele>502.717</ele><time>2022-09-17T14:34:42Z</time></trkpt><trkpt lat="49.933306" lon="5.674074"><ele>503.132</ele><time>2022-09-17T14:34:43Z</time></trkpt><trkpt lat="49.933400" lon="5.674091"><ele>503.296</ele><time>2022-09-17T14:34:44Z</time></trkpt><trkpt lat="49.933494" lon="5.674111"><ele>503.283</ele><time>2022-09-17T14:34:45Z</time></trkpt><trkpt lat="49.933577" lon="5.674136"><ele>503.181</ele><time>2022-09-17T14:34:46Z</time></trkpt><trkpt lat="49.933658" lon="5.674163"><ele>502.861</ele><time>2022-09-17T14:34:47Z</time></trkpt><trkpt lat="49.933740" lon="5.674190"><ele>502.517</ele><time>2022-09-17T14:34:48Z</time></trkpt><trkpt lat="49.933827" lon="5.674213"><ele>502.409</ele><time>2022-09-17T14:34:49Z</time></trkpt><trkpt lat="49.933915" lon="5.674245"><ele>502.249</ele><time>2022-09-17T14:34:50Z</time></trkpt><trkpt lat="49.934004" lon="5.674275"><ele>502.149</ele><time>2022-09-17T14:34:51Z</time></trkpt><trkpt lat="49.934089" lon="5.674317"><ele>501.971</ele><time>2022-09-17T14:34:52Z</time></trkpt><trkpt lat="49.934181" lon="5.674360"><ele>501.667</ele><time>2022-09-17T14:34:53Z</time></trkpt><trkpt lat="49.934281" lon="5.674393"><ele>501.152</ele><time>2022-09-17T14:34:54Z</time></trkpt><trkpt lat="49.934393" lon="5.674435"><ele>500.697</ele><time>2022-09-17T14:34:55Z</time></trkpt><trkpt lat="49.934485" lon="5.674497"><ele>500.092</ele><time>2022-09-17T14:34:56Z</time></trkpt><trkpt lat="49.934585" lon="5.674528"><ele>499.436</ele><time>2022-09-17T14:34:57Z</time></trkpt><trkpt lat="49.934681" lon="5.674574"><ele>498.823</ele><time>2022-09-17T14:34:58Z</time></trkpt><trkpt lat="49.934780" lon="5.674600"><ele>498.437</ele><time>2022-09-17T14:34:59Z</time></trkpt><trkpt lat="49.934877" lon="5.674628"><ele>497.949</ele><time>2022-09-17T14:35:00Z</time></trkpt><trkpt lat="49.934974" lon="5.674653"><ele>497.513</ele><time>2022-09-17T14:35:01Z</time></trkpt><trkpt lat="49.935069" lon="5.674649"><ele>497.109</ele><time>2022-09-17T14:35:02Z</time></trkpt><trkpt lat="49.935177" lon="5.674642"><ele>496.794</ele><time>2022-09-17T14:35:03Z</time></trkpt><trkpt lat="49.935279" lon="5.674643"><ele>496.594</ele><time>2022-09-17T14:35:04Z</time></trkpt><trkpt lat="49.935390" lon="5.674655"><ele>496.246</ele><time>2022-09-17T14:35:05Z</time></trkpt><trkpt lat="49.935495" lon="5.674660"><ele>496.242</ele><time>2022-09-17T14:35:06Z</time></trkpt><trkpt lat="49.935610" lon="5.674660"><ele>496.647</ele><time>2022-09-17T14:35:07Z</time></trkpt><trkpt lat="49.935733" lon="5.674650"><ele>496.972</ele><time>2022-09-17T14:35:08Z</time></trkpt><trkpt lat="49.935860" lon="5.674627"><ele>497.057</ele><time>2022-09-17T14:35:09Z</time></trkpt><trkpt lat="49.935981" lon="5.674578"><ele>497.351</ele><time>2022-09-17T14:35:10Z</time></trkpt><trkpt lat="49.936108" lon="5.674491"><ele>497.398</ele><time>2022-09-17T14:35:11Z</time></trkpt><trkpt lat="49.936232" lon="5.674376"><ele>496.914</ele><time>2022-09-17T14:35:12Z</time></trkpt><trkpt lat="49.936352" lon="5.674274"><ele>496.454</ele><time>2022-09-17T14:35:13Z</time></trkpt><trkpt lat="49.936466" lon="5.674177"><ele>495.909</ele><time>2022-09-17T14:35:14Z</time></trkpt><trkpt lat="49.936591" lon="5.674074"><ele>495.409</ele><time>2022-09-17T14:35:15Z</time></trkpt><trkpt lat="49.936722" lon="5.673991"><ele>494.972</ele><time>2022-09-17T14:35:16Z</time></trkpt><trkpt lat="49.936833" lon="5.673921"><ele>494.652</ele><time>2022-09-17T14:35:17Z</time></trkpt><trkpt lat="49.936938" lon="5.673861"><ele>493.424</ele><time>2022-09-17T14:35:18Z</time></trkpt><trkpt lat="49.937020" lon="5.673819"><ele>492.940</ele><time>2022-09-17T14:35:19Z</time></trkpt><trkpt lat="49.937107" lon="5.673779"><ele>492.635</ele><time>2022-09-17T14:35:20Z</time></trkpt><trkpt lat="49.937188" lon="5.673748"><ele>492.150</ele><time>2022-09-17T14:35:21Z</time></trkpt><trkpt lat="49.937245" lon="5.673715"><ele>491.825</ele><time>2022-09-17T14:35:22Z</time></trkpt><trkpt lat="49.937300" lon="5.673684"><ele>491.889</ele><time>2022-09-17T14:35:23Z</time></trkpt><trkpt lat="49.937384" lon="5.673687"><ele>492.496</ele><time>2022-09-17T14:35:25Z</time></trkpt><trkpt lat="49.937418" lon="5.673740"><ele>492.845</ele><time>2022-09-17T14:35:26Z</time></trkpt><trkpt lat="49.937439" lon="5.673831"><ele>493.847</ele><time>2022-09-17T14:35:27Z</time></trkpt><trkpt lat="49.937430" lon="5.673951"><ele>494.511</ele><time>2022-09-17T14:35:28Z</time></trkpt><trkpt lat="49.937453" lon="5.674053"><ele>494.609</ele><time>2022-09-17T14:35:29Z</time></trkpt><trkpt lat="49.937464" lon="5.674360"><ele>494.925</ele><time>2022-09-17T14:35:30Z</time></trkpt><trkpt lat="49.937474" lon="5.674587"><ele>495.395</ele><time>2022-09-17T14:35:31Z</time></trkpt><trkpt lat="49.937467" lon="5.674813"><ele>495.877</ele><time>2022-09-17T14:35:32Z</time></trkpt><trkpt lat="49.937384" lon="5.675045"><ele>496.213</ele><time>2022-09-17T14:35:33Z</time></trkpt><trkpt lat="49.937495" lon="5.675208"><ele>496.578</ele><time>2022-09-17T14:35:34Z</time></trkpt><trkpt lat="49.937507" lon="5.675387"><ele>496.873</ele><time>2022-09-17T14:35:35Z</time></trkpt><trkpt lat="49.937526" lon="5.675585"><ele>497.358</ele><time>2022-09-17T14:35:36Z</time></trkpt><trkpt lat="49.937559" lon="5.675776"><ele>498.382</ele><time>2022-09-17T14:35:37Z</time></trkpt><trkpt lat="49.937593" lon="5.675978"><ele>498.759</ele><time>2022-09-17T14:35:38Z</time></trkpt><trkpt lat="49.937641" lon="5.676179"><ele>499.791</ele><time>2022-09-17T14:35:39Z</time></trkpt><trkpt lat="49.937678" lon="5.676388"><ele>500.481</ele><time>2022-09-17T14:35:40Z</time></trkpt><trkpt lat="49.937733" lon="5.676582"><ele>500.919</ele><time>2022-09-17T14:35:41Z</time></trkpt><trkpt lat="49.937776" lon="5.676784"><ele>501.209</ele><time>2022-09-17T14:35:42Z</time></trkpt><trkpt lat="49.937822" lon="5.676979"><ele>501.530</ele><time>2022-09-17T14:35:43Z</time></trkpt><trkpt lat="49.937869" lon="5.677172"><ele>501.690</ele><time>2022-09-17T14:35:44Z</time></trkpt><trkpt lat="49.937938" lon="5.677327"><ele>501.682</ele><time>2022-09-17T14:35:45Z</time></trkpt><trkpt lat="49.938029" lon="5.677472"><ele>501.518</ele><time>2022-09-17T14:35:46Z</time></trkpt><trkpt lat="49.938119" lon="5.677618"><ele>501.593</ele><time>2022-09-17T14:35:47Z</time></trkpt><trkpt lat="49.938200" lon="5.677784"><ele>501.748</ele><time>2022-09-17T14:35:48Z</time></trkpt><trkpt lat="49.938262" lon="5.677959"><ele>501.743</ele><time>2022-09-17T14:35:49Z</time></trkpt><trkpt lat="49.938327" lon="5.678127"><ele>502.027</ele><time>2022-09-17T14:35:50Z</time></trkpt><trkpt lat="49.938398" lon="5.678290"><ele>502.084</ele><time>2022-09-17T14:35:51Z</time></trkpt><trkpt lat="49.938453" lon="5.678423"><ele>502.071</ele><time>2022-09-17T14:35:52Z</time></trkpt><trkpt lat="49.938535" lon="5.678554"><ele>501.941</ele><time>2022-09-17T14:35:53Z</time></trkpt><trkpt lat="49.938605" lon="5.678682"><ele>501.715</ele><time>2022-09-17T14:35:54Z</time></trkpt><trkpt lat="49.938668" lon="5.678801"><ele>501.709</ele><time>2022-09-17T14:35:55Z</time></trkpt><trkpt lat="49.938731" lon="5.678916"><ele>501.838</ele><time>2022-09-17T14:35:56Z</time></trkpt><trkpt lat="49.938793" lon="5.679021"><ele>501.858</ele><time>2022-09-17T14:35:57Z</time></trkpt><trkpt lat="49.938860" lon="5.679113"><ele>502.230</ele><time>2022-09-17T14:35:58Z</time></trkpt><trkpt lat="49.938926" lon="5.679189"><ele>502.146</ele><time>2022-09-17T14:35:59Z</time></trkpt><trkpt lat="49.939020" lon="5.679272"><ele>502.041</ele><time>2022-09-17T14:36:00Z</time></trkpt><trkpt lat="49.939115" lon="5.679370"><ele>501.216</ele><time>2022-09-17T14:36:01Z</time></trkpt><trkpt lat="49.939214" lon="5.679472"><ele>500.341</ele><time>2022-09-17T14:36:02Z</time></trkpt><trkpt lat="49.939316" lon="5.679570"><ele>499.445</ele><time>2022-09-17T14:36:03Z</time></trkpt><trkpt lat="49.939417" lon="5.679671"><ele>498.722</ele><time>2022-09-17T14:36:04Z</time></trkpt><trkpt lat="49.939521" lon="5.679769"><ele>498.174</ele><time>2022-09-17T14:36:05Z</time></trkpt><trkpt lat="49.939617" lon="5.679878"><ele>497.356</ele><time>2022-09-17T14:36:06Z</time></trkpt><trkpt lat="49.939715" lon="5.679979"><ele>496.421</ele><time>2022-09-17T14:36:07Z</time></trkpt><trkpt lat="49.939809" lon="5.680066"><ele>495.609</ele><time>2022-09-17T14:36:08Z</time></trkpt><trkpt lat="49.939862" lon="5.680229"><ele>494.758</ele><time>2022-09-17T14:36:09Z</time></trkpt><trkpt lat="49.939948" lon="5.680311"><ele>494.258</ele><time>2022-09-17T14:36:10Z</time></trkpt><trkpt lat="49.940027" lon="5.680386"><ele>493.970</ele><time>2022-09-17T14:36:11Z</time></trkpt><trkpt lat="49.940108" lon="5.680462"><ele>493.646</ele><time>2022-09-17T14:36:12Z</time></trkpt><trkpt lat="49.940182" lon="5.680531"><ele>493.181</ele><time>2022-09-17T14:36:13Z</time></trkpt><trkpt lat="49.940256" lon="5.680601"><ele>492.966</ele><time>2022-09-17T14:36:14Z</time></trkpt><trkpt lat="49.940316" lon="5.680659"><ele>492.671</ele><time>2022-09-17T14:36:15Z</time></trkpt><trkpt lat="49.940371" lon="5.680712"><ele>492.445</ele><time>2022-09-17T14:36:16Z</time></trkpt><trkpt lat="49.940415" lon="5.680768"><ele>492.342</ele><time>2022-09-17T14:36:17Z</time></trkpt><trkpt lat="49.940451" lon="5.680812"><ele>492.212</ele><time>2022-09-17T14:36:18Z</time></trkpt><trkpt lat="49.940473" lon="5.680887"><ele>492.132</ele><time>2022-09-17T14:36:20Z</time></trkpt><trkpt lat="49.940341" lon="5.680882"><ele>491.605</ele><time>2022-09-17T14:36:22Z</time></trkpt><trkpt lat="49.940275" lon="5.680961"><ele>490.709</ele><time>2022-09-17T14:36:23Z</time></trkpt><trkpt lat="49.940190" lon="5.681072"><ele>489.922</ele><time>2022-09-17T14:36:24Z</time></trkpt><trkpt lat="49.940087" lon="5.681221"><ele>489.832</ele><time>2022-09-17T14:36:25Z</time></trkpt><trkpt lat="49.939971" lon="5.681388"><ele>489.994</ele><time>2022-09-17T14:36:26Z</time></trkpt><trkpt lat="49.939846" lon="5.681562"><ele>490.290</ele><time>2022-09-17T14:36:27Z</time></trkpt><trkpt lat="49.939703" lon="5.681759"><ele>490.795</ele><time>2022-09-17T14:36:28Z</time></trkpt><trkpt lat="49.939578" lon="5.681967"><ele>491.330</ele><time>2022-09-17T14:36:29Z</time></trkpt><trkpt lat="49.939448" lon="5.682146"><ele>491.975</ele><time>2022-09-17T14:36:30Z</time></trkpt><trkpt lat="49.939322" lon="5.682299"><ele>492.529</ele><time>2022-09-17T14:36:31Z</time></trkpt><trkpt lat="49.939203" lon="5.682438"><ele>492.916</ele><time>2022-09-17T14:36:32Z</time></trkpt><trkpt lat="49.939080" lon="5.682534"><ele>493.197</ele><time>2022-09-17T14:36:33Z</time></trkpt><trkpt lat="49.938973" lon="5.682642"><ele>493.123</ele><time>2022-09-17T14:36:34Z</time></trkpt><trkpt lat="49.938874" lon="5.682733"><ele>492.925</ele><time>2022-09-17T14:36:35Z</time></trkpt><trkpt lat="49.938750" lon="5.682738"><ele>492.609</ele><time>2022-09-17T14:36:36Z</time></trkpt><trkpt lat="49.938635" lon="5.682704"><ele>492.170</ele><time>2022-09-17T14:36:37Z</time></trkpt><trkpt lat="49.938497" lon="5.682688"><ele>491.610</ele><time>2022-09-17T14:36:38Z</time></trkpt><trkpt lat="49.938361" lon="5.682681"><ele>491.162</ele><time>2022-09-17T14:36:39Z</time></trkpt><trkpt lat="49.938227" lon="5.682704"><ele>491.038</ele><time>2022-09-17T14:36:40Z</time></trkpt><trkpt lat="49.938111" lon="5.682737"><ele>491.013</ele><time>2022-09-17T14:36:41Z</time></trkpt><trkpt lat="49.937992" lon="5.682779"><ele>491.078</ele><time>2022-09-17T14:36:42Z</time></trkpt><trkpt lat="49.937896" lon="5.682814"><ele>490.973</ele><time>2022-09-17T14:36:43Z</time></trkpt><trkpt lat="49.937817" lon="5.682843"><ele>490.517</ele><time>2022-09-17T14:36:44Z</time></trkpt><trkpt lat="49.937754" lon="5.682865"><ele>490.284</ele><time>2022-09-17T14:36:45Z</time></trkpt><trkpt lat="49.937688" lon="5.682890"><ele>489.764</ele><time>2022-09-17T14:36:46Z</time></trkpt><trkpt lat="49.937650" lon="5.682930"><ele>489.506</ele><time>2022-09-17T14:36:47Z</time></trkpt><trkpt lat="49.937717" lon="5.683465"><ele>488.316</ele><time>2022-09-17T14:36:49Z</time></trkpt><trkpt lat="49.937771" lon="5.683654"><ele>488.209</ele><time>2022-09-17T14:36:50Z</time></trkpt><trkpt lat="49.937827" lon="5.683813"><ele>488.177</ele><time>2022-09-17T14:36:51Z</time></trkpt><trkpt lat="49.937922" lon="5.683964"><ele>488.037</ele><time>2022-09-17T14:36:52Z</time></trkpt><trkpt lat="49.938010" lon="5.684118"><ele>487.749</ele><time>2022-09-17T14:36:53Z</time></trkpt><trkpt lat="49.938088" lon="5.684299"><ele>486.875</ele><time>2022-09-17T14:36:54Z</time></trkpt><trkpt lat="49.938155" lon="5.684451"><ele>486.420</ele><time>2022-09-17T14:36:55Z</time></trkpt><trkpt lat="49.938207" lon="5.684599"><ele>485.795</ele><time>2022-09-17T14:36:56Z</time></trkpt><trkpt lat="49.938247" lon="5.684739"><ele>484.980</ele><time>2022-09-17T14:36:57Z</time></trkpt><trkpt lat="49.938267" lon="5.684881"><ele>484.534</ele><time>2022-09-17T14:36:58Z</time></trkpt><trkpt lat="49.938274" lon="5.685023"><ele>484.331</ele><time>2022-09-17T14:36:59Z</time></trkpt><trkpt lat="49.938273" lon="5.685159"><ele>484.343</ele><time>2022-09-17T14:37:00Z</time></trkpt><trkpt lat="49.938261" lon="5.685281"><ele>484.564</ele><time>2022-09-17T14:37:01Z</time></trkpt><trkpt lat="49.938230" lon="5.685390"><ele>484.710</ele><time>2022-09-17T14:37:02Z</time></trkpt><trkpt lat="49.938187" lon="5.685488"><ele>484.709</ele><time>2022-09-17T14:37:03Z</time></trkpt><trkpt lat="49.938143" lon="5.685601"><ele>484.615</ele><time>2022-09-17T14:37:04Z</time></trkpt><trkpt lat="49.938088" lon="5.685706"><ele>484.485</ele><time>2022-09-17T14:37:05Z</time></trkpt><trkpt lat="49.938036" lon="5.685814"><ele>484.157</ele><time>2022-09-17T14:37:06Z</time></trkpt><trkpt lat="49.938011" lon="5.685928"><ele>483.873</ele><time>2022-09-17T14:37:07Z</time></trkpt><trkpt lat="49.938002" lon="5.686026"><ele>483.648</ele><time>2022-09-17T14:37:08Z</time></trkpt><trkpt lat="49.938003" lon="5.686150"><ele>483.563</ele><time>2022-09-17T14:37:09Z</time></trkpt><trkpt lat="49.938025" lon="5.686312"><ele>483.588</ele><time>2022-09-17T14:37:10Z</time></trkpt><trkpt lat="49.938063" lon="5.686505"><ele>483.522</ele><time>2022-09-17T14:37:11Z</time></trkpt><trkpt lat="49.938109" lon="5.686690"><ele>483.589</ele><time>2022-09-17T14:37:12Z</time></trkpt><trkpt lat="49.938149" lon="5.686857"><ele>483.133</ele><time>2022-09-17T14:37:13Z</time></trkpt><trkpt lat="49.938179" lon="5.687000"><ele>482.223</ele><time>2022-09-17T14:37:14Z</time></trkpt><trkpt lat="49.938202" lon="5.687154"><ele>481.115</ele><time>2022-09-17T14:37:15Z</time></trkpt><trkpt lat="49.938219" lon="5.687317"><ele>480.109</ele><time>2022-09-17T14:37:16Z</time></trkpt><trkpt lat="49.938231" lon="5.687477"><ele>479.034</ele><time>2022-09-17T14:37:17Z</time></trkpt><trkpt lat="49.938227" lon="5.687622"><ele>478.044</ele><time>2022-09-17T14:37:18Z</time></trkpt><trkpt lat="49.938223" lon="5.687768"><ele>477.416</ele><time>2022-09-17T14:37:19Z</time></trkpt><trkpt lat="49.938209" lon="5.687908"><ele>477.062</ele><time>2022-09-17T14:37:20Z</time></trkpt><trkpt lat="49.938199" lon="5.688039"><ele>476.827</ele><time>2022-09-17T14:37:21Z</time></trkpt><trkpt lat="49.938187" lon="5.688167"><ele>476.932</ele><time>2022-09-17T14:37:22Z</time></trkpt><trkpt lat="49.938160" lon="5.688282"><ele>476.987</ele><time>2022-09-17T14:37:23Z</time></trkpt><trkpt lat="49.938116" lon="5.688373"><ele>477.181</ele><time>2022-09-17T14:37:24Z</time></trkpt><trkpt lat="49.938081" lon="5.688464"><ele>477.478</ele><time>2022-09-17T14:37:25Z</time></trkpt><trkpt lat="49.938056" lon="5.688526"><ele>477.614</ele><time>2022-09-17T14:37:26Z</time></trkpt><trkpt lat="49.938028" lon="5.688617"><ele>477.854</ele><time>2022-09-17T14:37:27Z</time></trkpt><trkpt lat="49.938026" lon="5.688708"><ele>478.109</ele><time>2022-09-17T14:37:28Z</time></trkpt><trkpt lat="49.938041" lon="5.688794"><ele>478.109</ele><time>2022-09-17T14:37:29Z</time></trkpt><trkpt lat="49.938085" lon="5.688896"><ele>478.192</ele><time>2022-09-17T14:37:30Z</time></trkpt><trkpt lat="49.938142" lon="5.688975"><ele>477.832</ele><time>2022-09-17T14:37:31Z</time></trkpt><trkpt lat="49.938197" lon="5.689041"><ele>477.494</ele><time>2022-09-17T14:37:32Z</time></trkpt><trkpt lat="49.938259" lon="5.689119"><ele>476.890</ele><time>2022-09-17T14:37:33Z</time></trkpt><trkpt lat="49.938325" lon="5.689202"><ele>476.195</ele><time>2022-09-17T14:37:34Z</time></trkpt><trkpt lat="49.938384" lon="5.689295"><ele>475.650</ele><time>2022-09-17T14:37:35Z</time></trkpt><trkpt lat="49.938462" lon="5.689410"><ele>474.945</ele><time>2022-09-17T14:37:36Z</time></trkpt><trkpt lat="49.938536" lon="5.689513"><ele>474.329</ele><time>2022-09-17T14:37:37Z</time></trkpt><trkpt lat="49.938609" lon="5.689627"><ele>473.516</ele><time>2022-09-17T14:37:38Z</time></trkpt><trkpt lat="49.938686" lon="5.689736"><ele>472.544</ele><time>2022-09-17T14:37:39Z</time></trkpt><trkpt lat="49.938755" lon="5.689840"><ele>471.405</ele><time>2022-09-17T14:37:40Z</time></trkpt><trkpt lat="49.938823" lon="5.689938"><ele>470.415</ele><time>2022-09-17T14:37:41Z</time></trkpt><trkpt lat="49.938891" lon="5.690038"><ele>469.509</ele><time>2022-09-17T14:37:42Z</time></trkpt><trkpt lat="49.938970" lon="5.690139"><ele>468.725</ele><time>2022-09-17T14:37:43Z</time></trkpt><trkpt lat="49.939047" lon="5.690218"><ele>468.075</ele><time>2022-09-17T14:37:44Z</time></trkpt><trkpt lat="49.939138" lon="5.690309"><ele>467.567</ele><time>2022-09-17T14:37:45Z</time></trkpt><trkpt lat="49.939210" lon="5.690389"><ele>466.783</ele><time>2022-09-17T14:37:46Z</time></trkpt><trkpt lat="49.939285" lon="5.690467"><ele>465.848</ele><time>2022-09-17T14:37:47Z</time></trkpt><trkpt lat="49.939350" lon="5.690570"><ele>465.023</ele><time>2022-09-17T14:37:48Z</time></trkpt><trkpt lat="49.939409" lon="5.690674"><ele>464.438</ele><time>2022-09-17T14:37:49Z</time></trkpt><trkpt lat="49.939477" lon="5.690760"><ele>463.762</ele><time>2022-09-17T14:37:50Z</time></trkpt><trkpt lat="49.939547" lon="5.690848"><ele>463.549</ele><time>2022-09-17T14:37:51Z</time></trkpt><trkpt lat="49.939617" lon="5.690959"><ele>462.912</ele><time>2022-09-17T14:37:52Z</time></trkpt><trkpt lat="49.939674" lon="5.691075"><ele>462.832</ele><time>2022-09-17T14:37:53Z</time></trkpt><trkpt lat="49.939723" lon="5.691200"><ele>462.505</ele><time>2022-09-17T14:37:54Z</time></trkpt><trkpt lat="49.939771" lon="5.691337"><ele>462.109</ele><time>2022-09-17T14:37:55Z</time></trkpt><trkpt lat="49.939814" lon="5.691477"><ele>461.742</ele><time>2022-09-17T14:37:56Z</time></trkpt><trkpt lat="49.939856" lon="5.691612"><ele>461.082</ele><time>2022-09-17T14:37:57Z</time></trkpt><trkpt lat="49.939900" lon="5.691768"><ele>460.324</ele><time>2022-09-17T14:37:58Z</time></trkpt><trkpt lat="49.939942" lon="5.691915"><ele>459.570</ele><time>2022-09-17T14:37:59Z</time></trkpt><trkpt lat="49.939989" lon="5.692062"><ele>458.915</ele><time>2022-09-17T14:38:00Z</time></trkpt><trkpt lat="49.940032" lon="5.692207"><ele>458.080</ele><time>2022-09-17T14:38:01Z</time></trkpt><trkpt lat="49.940072" lon="5.692341"><ele>457.485</ele><time>2022-09-17T14:38:02Z</time></trkpt><trkpt lat="49.940114" lon="5.692482"><ele>456.969</ele><time>2022-09-17T14:38:03Z</time></trkpt><trkpt lat="49.940150" lon="5.692616"><ele>456.656</ele><time>2022-09-17T14:38:04Z</time></trkpt><trkpt lat="49.940184" lon="5.692755"><ele>456.528</ele><time>2022-09-17T14:38:05Z</time></trkpt><trkpt lat="49.940224" lon="5.692891"><ele>456.589</ele><time>2022-09-17T14:38:06Z</time></trkpt><trkpt lat="49.940255" lon="5.693027"><ele>456.517</ele><time>2022-09-17T14:38:07Z</time></trkpt><trkpt lat="49.940293" lon="5.693162"><ele>456.509</ele><time>2022-09-17T14:38:08Z</time></trkpt><trkpt lat="49.940331" lon="5.693300"><ele>456.283</ele><time>2022-09-17T14:38:09Z</time></trkpt><trkpt lat="49.940374" lon="5.693436"><ele>455.713</ele><time>2022-09-17T14:38:10Z</time></trkpt><trkpt lat="49.940418" lon="5.693571"><ele>455.145</ele><time>2022-09-17T14:38:11Z</time></trkpt><trkpt lat="49.940461" lon="5.693700"><ele>454.411</ele><time>2022-09-17T14:38:12Z</time></trkpt><trkpt lat="49.940503" lon="5.693826"><ele>453.756</ele><time>2022-09-17T14:38:13Z</time></trkpt><trkpt lat="49.940539" lon="5.693946"><ele>453.021</ele><time>2022-09-17T14:38:14Z</time></trkpt><trkpt lat="49.940573" lon="5.694063"><ele>452.626</ele><time>2022-09-17T14:38:15Z</time></trkpt><trkpt lat="49.940614" lon="5.694188"><ele>452.090</ele><time>2022-09-17T14:38:16Z</time></trkpt><trkpt lat="49.940657" lon="5.694314"><ele>451.677</ele><time>2022-09-17T14:38:17Z</time></trkpt><trkpt lat="49.940698" lon="5.694432"><ele>451.254</ele><time>2022-09-17T14:38:18Z</time></trkpt><trkpt lat="49.940735" lon="5.694522"><ele>450.556</ele><time>2022-09-17T14:38:19Z</time></trkpt><trkpt lat="49.940765" lon="5.694604"><ele>449.511</ele><time>2022-09-17T14:38:20Z</time></trkpt><trkpt lat="49.940784" lon="5.694699"><ele>448.309</ele><time>2022-09-17T14:38:21Z</time></trkpt><trkpt lat="49.940786" lon="5.694787"><ele>447.646</ele><time>2022-09-17T14:38:22Z</time></trkpt><trkpt lat="49.940756" lon="5.694851"><ele>445.976</ele><time>2022-09-17T14:38:23Z</time></trkpt><trkpt lat="49.940725" lon="5.694904"><ele>444.418</ele><time>2022-09-17T14:38:24Z</time></trkpt><trkpt lat="49.940638" lon="5.694928"><ele>443.434</ele><time>2022-09-17T14:38:26Z</time></trkpt><trkpt lat="49.940570" lon="5.694938"><ele>442.539</ele><time>2022-09-17T14:38:27Z</time></trkpt><trkpt lat="49.940515" lon="5.694961"><ele>441.354</ele><time>2022-09-17T14:38:28Z</time></trkpt><trkpt lat="49.940497" lon="5.695078"><ele>440.419</ele><time>2022-09-17T14:38:30Z</time></trkpt><trkpt lat="49.940528" lon="5.695146"><ele>440.113</ele><time>2022-09-17T14:38:31Z</time></trkpt><trkpt lat="49.940569" lon="5.695212"><ele>438.770</ele><time>2022-09-17T14:38:32Z</time></trkpt><trkpt lat="49.940625" lon="5.695253"><ele>438.298</ele><time>2022-09-17T14:38:33Z</time></trkpt><trkpt lat="49.940694" lon="5.695266"><ele>437.515</ele><time>2022-09-17T14:38:34Z</time></trkpt><trkpt lat="49.940778" lon="5.695267"><ele>436.726</ele><time>2022-09-17T14:38:35Z</time></trkpt><trkpt lat="49.940858" lon="5.695272"><ele>436.309</ele><time>2022-09-17T14:38:36Z</time></trkpt><trkpt lat="49.940940" lon="5.695275"><ele>436.160</ele><time>2022-09-17T14:38:37Z</time></trkpt><trkpt lat="49.941036" lon="5.695270"><ele>436.080</ele><time>2022-09-17T14:38:38Z</time></trkpt><trkpt lat="49.941150" lon="5.695265"><ele>435.982</ele><time>2022-09-17T14:38:39Z</time></trkpt><trkpt lat="49.941263" lon="5.695240"><ele>435.998</ele><time>2022-09-17T14:38:40Z</time></trkpt><trkpt lat="49.941386" lon="5.695204"><ele>435.783</ele><time>2022-09-17T14:38:41Z</time></trkpt><trkpt lat="49.941493" lon="5.695153"><ele>435.578</ele><time>2022-09-17T14:38:42Z</time></trkpt><trkpt lat="49.941585" lon="5.695069"><ele>435.043</ele><time>2022-09-17T14:38:43Z</time></trkpt><trkpt lat="49.941661" lon="5.694990"><ele>434.837</ele><time>2022-09-17T14:38:44Z</time></trkpt><trkpt lat="49.941747" lon="5.694924"><ele>434.874</ele><time>2022-09-17T14:38:45Z</time></trkpt><trkpt lat="49.941832" lon="5.694863"><ele>434.934</ele><time>2022-09-17T14:38:46Z</time></trkpt><trkpt lat="49.941934" lon="5.694838"><ele>435.055</ele><time>2022-09-17T14:38:47Z</time></trkpt><trkpt lat="49.941769" lon="5.694994"><ele>435.410</ele><time>2022-09-17T14:38:54Z</time></trkpt><trkpt lat="49.942088" lon="5.694776"><ele>436.109</ele><time>2022-09-17T14:39:07Z</time></trkpt><trkpt lat="49.942176" lon="5.694745"><ele>436.224</ele><time>2022-09-17T14:39:08Z</time></trkpt><trkpt lat="49.942238" lon="5.694725"><ele>436.324</ele><time>2022-09-17T14:39:09Z</time></trkpt><trkpt lat="49.942387" lon="5.694702"><ele>436.656</ele><time>2022-09-17T14:39:10Z</time></trkpt><trkpt lat="49.942530" lon="5.694620"><ele>437.382</ele><time>2022-09-17T14:39:11Z</time></trkpt><trkpt lat="49.942651" lon="5.694560"><ele>437.687</ele><time>2022-09-17T14:39:12Z</time></trkpt><trkpt lat="49.942802" lon="5.694541"><ele>438.072</ele><time>2022-09-17T14:39:13Z</time></trkpt><trkpt lat="49.942957" lon="5.694504"><ele>438.597</ele><time>2022-09-17T14:39:14Z</time></trkpt><trkpt lat="49.943060" lon="5.694477"><ele>438.851</ele><time>2022-09-17T14:39:15Z</time></trkpt><trkpt lat="49.943149" lon="5.694451"><ele>439.028</ele><time>2022-09-17T14:39:16Z</time></trkpt><trkpt lat="49.943230" lon="5.694428"><ele>439.118</ele><time>2022-09-17T14:39:17Z</time></trkpt><trkpt lat="49.943298" lon="5.694405"><ele>439.598</ele><time>2022-09-17T14:39:18Z</time></trkpt><trkpt lat="49.943367" lon="5.694375"><ele>439.917</ele><time>2022-09-17T14:39:19Z</time></trkpt><trkpt lat="49.943409" lon="5.694332"><ele>439.909</ele><time>2022-09-17T14:39:20Z</time></trkpt><trkpt lat="49.943440" lon="5.694143"><ele>439.972</ele><time>2022-09-17T14:39:22Z</time></trkpt><trkpt lat="49.943427" lon="5.694003"><ele>439.832</ele><time>2022-09-17T14:39:23Z</time></trkpt><trkpt lat="49.943402" lon="5.693837"><ele>439.664</ele><time>2022-09-17T14:39:24Z</time></trkpt><trkpt lat="49.943378" lon="5.693632"><ele>439.670</ele><time>2022-09-17T14:39:25Z</time></trkpt><trkpt lat="49.943349" lon="5.693407"><ele>439.965</ele><time>2022-09-17T14:39:26Z</time></trkpt><trkpt lat="49.943316" lon="5.693174"><ele>440.350</ele><time>2022-09-17T14:39:27Z</time></trkpt><trkpt lat="49.943280" lon="5.692932"><ele>440.965</ele><time>2022-09-17T14:39:28Z</time></trkpt><trkpt lat="49.943244" lon="5.692678"><ele>441.659</ele><time>2022-09-17T14:39:29Z</time></trkpt><trkpt lat="49.943222" lon="5.692423"><ele>442.656</ele><time>2022-09-17T14:39:30Z</time></trkpt><trkpt lat="49.943229" lon="5.692212"><ele>443.618</ele><time>2022-09-17T14:39:31Z</time></trkpt><trkpt lat="49.943223" lon="5.691995"><ele>444.598</ele><time>2022-09-17T14:39:32Z</time></trkpt><trkpt lat="49.943247" lon="5.691773"><ele>445.217</ele><time>2022-09-17T14:39:33Z</time></trkpt><trkpt lat="49.943273" lon="5.691557"><ele>445.909</ele><time>2022-09-17T14:39:34Z</time></trkpt><trkpt lat="49.943312" lon="5.691362"><ele>446.582</ele><time>2022-09-17T14:39:35Z</time></trkpt><trkpt lat="49.943355" lon="5.691143"><ele>447.022</ele><time>2022-09-17T14:39:36Z</time></trkpt><trkpt lat="49.943401" lon="5.690932"><ele>447.444</ele><time>2022-09-17T14:39:37Z</time></trkpt><trkpt lat="49.943452" lon="5.690716"><ele>448.040</ele><time>2022-09-17T14:39:38Z</time></trkpt><trkpt lat="49.943504" lon="5.690498"><ele>448.445</ele><time>2022-09-17T14:39:39Z</time></trkpt><trkpt lat="49.943553" lon="5.690291"><ele>448.570</ele><time>2022-09-17T14:39:40Z</time></trkpt><trkpt lat="49.943602" lon="5.690086"><ele>448.845</ele><time>2022-09-17T14:39:41Z</time></trkpt><trkpt lat="49.943650" lon="5.689882"><ele>449.189</ele><time>2022-09-17T14:39:42Z</time></trkpt><trkpt lat="49.943697" lon="5.689684"><ele>449.376</ele><time>2022-09-17T14:39:43Z</time></trkpt><trkpt lat="49.943745" lon="5.689479"><ele>449.662</ele><time>2022-09-17T14:39:44Z</time></trkpt><trkpt lat="49.943795" lon="5.689270"><ele>449.983</ele><time>2022-09-17T14:39:45Z</time></trkpt><trkpt lat="49.943842" lon="5.689072"><ele>450.011</ele><time>2022-09-17T14:39:46Z</time></trkpt><trkpt lat="49.943884" lon="5.688876"><ele>450.009</ele><time>2022-09-17T14:39:47Z</time></trkpt><trkpt lat="49.943909" lon="5.688626"><ele>450.267</ele><time>2022-09-17T14:39:48Z</time></trkpt><trkpt lat="49.943911" lon="5.688426"><ele>450.477</ele><time>2022-09-17T14:39:49Z</time></trkpt><trkpt lat="49.943935" lon="5.688243"><ele>450.519</ele><time>2022-09-17T14:39:50Z</time></trkpt><trkpt lat="49.943969" lon="5.688058"><ele>450.785</ele><time>2022-09-17T14:39:51Z</time></trkpt><trkpt lat="49.944023" lon="5.687931"><ele>451.140</ele><time>2022-09-17T14:39:52Z</time></trkpt><trkpt lat="49.944085" lon="5.687786"><ele>451.695</ele><time>2022-09-17T14:39:53Z</time></trkpt><trkpt lat="49.944156" lon="5.687632"><ele>452.450</ele><time>2022-09-17T14:39:54Z</time></trkpt><trkpt lat="49.944221" lon="5.687490"><ele>452.834</ele><time>2022-09-17T14:39:55Z</time></trkpt><trkpt lat="49.944283" lon="5.687355"><ele>453.421</ele><time>2022-09-17T14:39:56Z</time></trkpt><trkpt lat="49.944330" lon="5.687194"><ele>453.826</ele><time>2022-09-17T14:39:57Z</time></trkpt><trkpt lat="49.944342" lon="5.687065"><ele>453.947</ele><time>2022-09-17T14:39:58Z</time></trkpt><trkpt lat="49.944372" lon="5.686958"><ele>453.911</ele><time>2022-09-17T14:39:59Z</time></trkpt><trkpt lat="49.944383" lon="5.686868"><ele>453.809</ele><time>2022-09-17T14:40:01Z</time></trkpt><trkpt lat="49.944509" lon="5.687001"><ele>453.483</ele><time>2022-09-17T14:40:02Z</time></trkpt><trkpt lat="49.944591" lon="5.687006"><ele>453.473</ele><time>2022-09-17T14:40:03Z</time></trkpt><trkpt lat="49.944690" lon="5.687012"><ele>453.585</ele><time>2022-09-17T14:40:04Z</time></trkpt><trkpt lat="49.944807" lon="5.687020"><ele>453.921</ele><time>2022-09-17T14:40:05Z</time></trkpt><trkpt lat="49.944938" lon="5.687040"><ele>454.266</ele><time>2022-09-17T14:40:06Z</time></trkpt><trkpt lat="49.945066" lon="5.687071"><ele>454.781</ele><time>2022-09-17T14:40:07Z</time></trkpt><trkpt lat="49.945192" lon="5.687095"><ele>455.076</ele><time>2022-09-17T14:40:08Z</time></trkpt><trkpt lat="49.945316" lon="5.687176"><ele>455.530</ele><time>2022-09-17T14:40:09Z</time></trkpt><trkpt lat="49.945451" lon="5.687262"><ele>456.167</ele><time>2022-09-17T14:40:10Z</time></trkpt><trkpt lat="49.945581" lon="5.687345"><ele>456.747</ele><time>2022-09-17T14:40:11Z</time></trkpt><trkpt lat="49.945729" lon="5.687441"><ele>457.429</ele><time>2022-09-17T14:40:12Z</time></trkpt><trkpt lat="49.945876" lon="5.687507"><ele>458.321</ele><time>2022-09-17T14:40:13Z</time></trkpt><trkpt lat="49.946002" lon="5.687607"><ele>459.409</ele><time>2022-09-17T14:40:14Z</time></trkpt><trkpt lat="49.946135" lon="5.687721"><ele>460.825</ele><time>2022-09-17T14:40:15Z</time></trkpt><trkpt lat="49.946237" lon="5.687877"><ele>462.375</ele><time>2022-09-17T14:40:16Z</time></trkpt><trkpt lat="49.946350" lon="5.688042"><ele>463.897</ele><time>2022-09-17T14:40:17Z</time></trkpt><trkpt lat="49.946456" lon="5.688221"><ele>465.213</ele><time>2022-09-17T14:40:18Z</time></trkpt><trkpt lat="49.946573" lon="5.688396"><ele>466.458</ele><time>2022-09-17T14:40:19Z</time></trkpt><trkpt lat="49.946693" lon="5.688562"><ele>467.623</ele><time>2022-09-17T14:40:20Z</time></trkpt><trkpt lat="49.946821" lon="5.688734"><ele>468.828</ele><time>2022-09-17T14:40:21Z</time></trkpt><trkpt lat="49.946947" lon="5.688878"><ele>470.082</ele><time>2022-09-17T14:40:22Z</time></trkpt><trkpt lat="49.947076" lon="5.689020"><ele>471.199</ele><time>2022-09-17T14:40:23Z</time></trkpt><trkpt lat="49.947206" lon="5.689137"><ele>472.145</ele><time>2022-09-17T14:40:24Z</time></trkpt><trkpt lat="49.947335" lon="5.689240"><ele>472.947</ele><time>2022-09-17T14:40:25Z</time></trkpt><trkpt lat="49.947474" lon="5.689323"><ele>473.411</ele><time>2022-09-17T14:40:26Z</time></trkpt><trkpt lat="49.947602" lon="5.689434"><ele>473.809</ele><time>2022-09-17T14:40:27Z</time></trkpt><trkpt lat="49.947723" lon="5.689536"><ele>474.285</ele><time>2022-09-17T14:40:28Z</time></trkpt><trkpt lat="49.947845" lon="5.689624"><ele>474.465</ele><time>2022-09-17T14:40:29Z</time></trkpt><trkpt lat="49.947969" lon="5.689715"><ele>474.427</ele><time>2022-09-17T14:40:30Z</time></trkpt><trkpt lat="49.948089" lon="5.689799"><ele>474.443</ele><time>2022-09-17T14:40:31Z</time></trkpt><trkpt lat="49.948204" lon="5.689882"><ele>474.368</ele><time>2022-09-17T14:40:32Z</time></trkpt><trkpt lat="49.948318" lon="5.689971"><ele>474.193</ele><time>2022-09-17T14:40:33Z</time></trkpt><trkpt lat="49.948434" lon="5.690058"><ele>473.828</ele><time>2022-09-17T14:40:34Z</time></trkpt><trkpt lat="49.948558" lon="5.690167"><ele>473.832</ele><time>2022-09-17T14:40:35Z</time></trkpt><trkpt lat="49.948675" lon="5.690283"><ele>473.839</ele><time>2022-09-17T14:40:36Z</time></trkpt><trkpt lat="49.948781" lon="5.690400"><ele>473.857</ele><time>2022-09-17T14:40:37Z</time></trkpt><trkpt lat="49.948886" lon="5.690538"><ele>474.000</ele><time>2022-09-17T14:40:38Z</time></trkpt><trkpt lat="49.948994" lon="5.690694"><ele>474.320</ele><time>2022-09-17T14:40:39Z</time></trkpt><trkpt lat="49.949101" lon="5.690857"><ele>474.609</ele><time>2022-09-17T14:40:40Z</time></trkpt><trkpt lat="49.949210" lon="5.691025"><ele>474.986</ele><time>2022-09-17T14:40:41Z</time></trkpt><trkpt lat="49.949319" lon="5.691196"><ele>475.156</ele><time>2022-09-17T14:40:42Z</time></trkpt><trkpt lat="49.949406" lon="5.691347"><ele>475.268</ele><time>2022-09-17T14:40:43Z</time></trkpt><trkpt lat="49.949490" lon="5.691484"><ele>475.274</ele><time>2022-09-17T14:40:44Z</time></trkpt><trkpt lat="49.949613" lon="5.691616"><ele>475.299</ele><time>2022-09-17T14:40:45Z</time></trkpt><trkpt lat="49.949700" lon="5.691722"><ele>475.284</ele><time>2022-09-17T14:40:46Z</time></trkpt><trkpt lat="49.949797" lon="5.691846"><ele>475.269</ele><time>2022-09-17T14:40:47Z</time></trkpt><trkpt lat="49.949879" lon="5.691958"><ele>475.193</ele><time>2022-09-17T14:40:48Z</time></trkpt><trkpt lat="49.949956" lon="5.692049"><ele>475.110</ele><time>2022-09-17T14:40:49Z</time></trkpt><trkpt lat="49.950049" lon="5.692120"><ele>475.216</ele><time>2022-09-17T14:40:50Z</time></trkpt><trkpt lat="49.950142" lon="5.692170"><ele>475.276</ele><time>2022-09-17T14:40:51Z</time></trkpt><trkpt lat="49.950235" lon="5.692194"><ele>475.013</ele><time>2022-09-17T14:40:52Z</time></trkpt><trkpt lat="49.950338" lon="5.692206"><ele>474.909</ele><time>2022-09-17T14:40:53Z</time></trkpt><trkpt lat="49.950448" lon="5.692200"><ele>474.552</ele><time>2022-09-17T14:40:54Z</time></trkpt><trkpt lat="49.950558" lon="5.692186"><ele>474.072</ele><time>2022-09-17T14:40:55Z</time></trkpt><trkpt lat="49.950684" lon="5.692148"><ele>473.454</ele><time>2022-09-17T14:40:56Z</time></trkpt><trkpt lat="49.950807" lon="5.692117"><ele>473.070</ele><time>2022-09-17T14:40:57Z</time></trkpt><trkpt lat="49.950943" lon="5.692081"><ele>472.425</ele><time>2022-09-17T14:40:58Z</time></trkpt><trkpt lat="49.951092" lon="5.692043"><ele>471.930</ele><time>2022-09-17T14:40:59Z</time></trkpt><trkpt lat="49.951242" lon="5.692002"><ele>471.875</ele><time>2022-09-17T14:41:00Z</time></trkpt><trkpt lat="49.951394" lon="5.691958"><ele>471.699</ele><time>2022-09-17T14:41:01Z</time></trkpt><trkpt lat="49.951543" lon="5.691914"><ele>471.416</ele><time>2022-09-17T14:41:02Z</time></trkpt><trkpt lat="49.951691" lon="5.691871"><ele>471.168</ele><time>2022-09-17T14:41:03Z</time></trkpt><trkpt lat="49.951828" lon="5.691830"><ele>470.542</ele><time>2022-09-17T14:41:04Z</time></trkpt><trkpt lat="49.951961" lon="5.691790"><ele>469.726</ele><time>2022-09-17T14:41:05Z</time></trkpt><trkpt lat="49.952092" lon="5.691748"><ele>468.709</ele><time>2022-09-17T14:41:06Z</time></trkpt><trkpt lat="49.952218" lon="5.691706"><ele>468.287</ele><time>2022-09-17T14:41:07Z</time></trkpt><trkpt lat="49.952344" lon="5.691667"><ele>467.247</ele><time>2022-09-17T14:41:08Z</time></trkpt><trkpt lat="49.952457" lon="5.691633"><ele>466.619</ele><time>2022-09-17T14:41:09Z</time></trkpt><trkpt lat="49.952570" lon="5.691602"><ele>466.095</ele><time>2022-09-17T14:41:10Z</time></trkpt><trkpt lat="49.952664" lon="5.691575"><ele>465.410</ele><time>2022-09-17T14:41:11Z</time></trkpt><trkpt lat="49.952744" lon="5.691568"><ele>465.025</ele><time>2022-09-17T14:41:12Z</time></trkpt><trkpt lat="49.952808" lon="5.691575"><ele>464.760</ele><time>2022-09-17T14:41:13Z</time></trkpt><trkpt lat="49.952863" lon="5.691594"><ele>464.034</ele><time>2022-09-17T14:41:14Z</time></trkpt><trkpt lat="49.952928" lon="5.691638"><ele>463.361</ele><time>2022-09-17T14:41:15Z</time></trkpt><trkpt lat="49.952986" lon="5.691668"><ele>463.046</ele><time>2022-09-17T14:41:16Z</time></trkpt><trkpt lat="49.953012" lon="5.691817"><ele>462.488</ele><time>2022-09-17T14:41:17Z</time></trkpt><trkpt lat="49.953026" lon="5.691945"><ele>462.216</ele><time>2022-09-17T14:41:18Z</time></trkpt><trkpt lat="49.953042" lon="5.692093"><ele>462.009</ele><time>2022-09-17T14:41:19Z</time></trkpt><trkpt lat="49.953060" lon="5.692233"><ele>461.865</ele><time>2022-09-17T14:41:20Z</time></trkpt><trkpt lat="49.953076" lon="5.692379"><ele>461.645</ele><time>2022-09-17T14:41:21Z</time></trkpt><trkpt lat="49.953105" lon="5.692525"><ele>461.387</ele><time>2022-09-17T14:41:22Z</time></trkpt><trkpt lat="49.953117" lon="5.692671"><ele>460.843</ele><time>2022-09-17T14:41:23Z</time></trkpt><trkpt lat="49.953132" lon="5.692825"><ele>460.368</ele><time>2022-09-17T14:41:24Z</time></trkpt><trkpt lat="49.953214" lon="5.692972"><ele>459.793</ele><time>2022-09-17T14:41:25Z</time></trkpt><trkpt lat="49.953296" lon="5.693116"><ele>459.018</ele><time>2022-09-17T14:41:26Z</time></trkpt><trkpt lat="49.953373" lon="5.693264"><ele>458.332</ele><time>2022-09-17T14:41:27Z</time></trkpt><trkpt lat="49.953480" lon="5.693346"><ele>457.719</ele><time>2022-09-17T14:41:28Z</time></trkpt><trkpt lat="49.953570" lon="5.693419"><ele>456.972</ele><time>2022-09-17T14:41:29Z</time></trkpt><trkpt lat="49.953645" lon="5.693480"><ele>456.213</ele><time>2022-09-17T14:41:30Z</time></trkpt><trkpt lat="49.953716" lon="5.693558"><ele>455.614</ele><time>2022-09-17T14:41:31Z</time></trkpt><trkpt lat="49.953770" lon="5.693625"><ele>455.409</ele><time>2022-09-17T14:41:32Z</time></trkpt><trkpt lat="49.953826" lon="5.693693"><ele>455.098</ele><time>2022-09-17T14:41:33Z</time></trkpt><trkpt lat="49.953881" lon="5.693781"><ele>454.728</ele><time>2022-09-17T14:41:34Z</time></trkpt><trkpt lat="49.953925" lon="5.693877"><ele>454.550</ele><time>2022-09-17T14:41:35Z</time></trkpt><trkpt lat="49.953963" lon="5.693967"><ele>454.596</ele><time>2022-09-17T14:41:36Z</time></trkpt><trkpt lat="49.953963" lon="5.694086"><ele>454.411</ele><time>2022-09-17T14:41:37Z</time></trkpt><trkpt lat="49.954020" lon="5.694104"><ele>454.236</ele><time>2022-09-17T14:41:38Z</time></trkpt><trkpt lat="49.954093" lon="5.694126"><ele>454.011</ele><time>2022-09-17T14:41:39Z</time></trkpt><trkpt lat="49.954173" lon="5.694150"><ele>453.845</ele><time>2022-09-17T14:41:40Z</time></trkpt><trkpt lat="49.954266" lon="5.694178"><ele>453.732</ele><time>2022-09-17T14:41:41Z</time></trkpt><trkpt lat="49.954369" lon="5.694209"><ele>453.643</ele><time>2022-09-17T14:41:42Z</time></trkpt><trkpt lat="49.954486" lon="5.694244"><ele>453.864</ele><time>2022-09-17T14:41:43Z</time></trkpt><trkpt lat="49.954595" lon="5.694277"><ele>454.310</ele><time>2022-09-17T14:41:44Z</time></trkpt><trkpt lat="49.954704" lon="5.694310"><ele>454.809</ele><time>2022-09-17T14:41:45Z</time></trkpt><trkpt lat="49.954809" lon="5.694388"><ele>455.345</ele><time>2022-09-17T14:41:46Z</time></trkpt><trkpt lat="49.954910" lon="5.694442"><ele>455.895</ele><time>2022-09-17T14:41:47Z</time></trkpt><trkpt lat="49.955007" lon="5.694510"><ele>456.367</ele><time>2022-09-17T14:41:48Z</time></trkpt><trkpt lat="49.955097" lon="5.694588"><ele>456.663</ele><time>2022-09-17T14:41:49Z</time></trkpt><trkpt lat="49.955192" lon="5.694677"><ele>456.978</ele><time>2022-09-17T14:41:50Z</time></trkpt><trkpt lat="49.955296" lon="5.694787"><ele>457.423</ele><time>2022-09-17T14:41:51Z</time></trkpt><trkpt lat="49.955402" lon="5.694904"><ele>457.868</ele><time>2022-09-17T14:41:52Z</time></trkpt><trkpt lat="49.955508" lon="5.695007"><ele>458.342</ele><time>2022-09-17T14:41:53Z</time></trkpt><trkpt lat="49.955614" lon="5.695084"><ele>458.889</ele><time>2022-09-17T14:41:54Z</time></trkpt><trkpt lat="49.955735" lon="5.695107"><ele>459.312</ele><time>2022-09-17T14:41:55Z</time></trkpt><trkpt lat="49.955852" lon="5.695169"><ele>460.032</ele><time>2022-09-17T14:41:56Z</time></trkpt><trkpt lat="49.955980" lon="5.695208"><ele>460.905</ele><time>2022-09-17T14:41:57Z</time></trkpt><trkpt lat="49.956098" lon="5.695267"><ele>462.009</ele><time>2022-09-17T14:41:58Z</time></trkpt><trkpt lat="49.956215" lon="5.695342"><ele>463.272</ele><time>2022-09-17T14:41:59Z</time></trkpt><trkpt lat="49.956325" lon="5.695465"><ele>464.382</ele><time>2022-09-17T14:42:00Z</time></trkpt><trkpt lat="49.956452" lon="5.695549"><ele>465.944</ele><time>2022-09-17T14:42:01Z</time></trkpt><trkpt lat="49.956561" lon="5.695662"><ele>466.580</ele><time>2022-09-17T14:42:02Z</time></trkpt><trkpt lat="49.956670" lon="5.695754"><ele>467.635</ele><time>2022-09-17T14:42:03Z</time></trkpt><trkpt lat="49.956777" lon="5.695841"><ele>468.860</ele><time>2022-09-17T14:42:04Z</time></trkpt><trkpt lat="49.956884" lon="5.695924"><ele>470.155</ele><time>2022-09-17T14:42:05Z</time></trkpt><trkpt lat="49.956992" lon="5.696007"><ele>471.529</ele><time>2022-09-17T14:42:06Z</time></trkpt><trkpt lat="49.957105" lon="5.696091"><ele>472.666</ele><time>2022-09-17T14:42:07Z</time></trkpt><trkpt lat="49.957219" lon="5.696178"><ele>473.664</ele><time>2022-09-17T14:42:08Z</time></trkpt><trkpt lat="49.957337" lon="5.696267"><ele>474.606</ele><time>2022-09-17T14:42:09Z</time></trkpt><trkpt lat="49.957454" lon="5.696356"><ele>475.616</ele><time>2022-09-17T14:42:10Z</time></trkpt><trkpt lat="49.957578" lon="5.696449"><ele>476.609</ele><time>2022-09-17T14:42:11Z</time></trkpt><trkpt lat="49.957694" lon="5.696554"><ele>478.187</ele><time>2022-09-17T14:42:12Z</time></trkpt><trkpt lat="49.957817" lon="5.696639"><ele>479.137</ele><time>2022-09-17T14:42:13Z</time></trkpt><trkpt lat="49.957940" lon="5.696724"><ele>479.689</ele><time>2022-09-17T14:42:14Z</time></trkpt><trkpt lat="49.958048" lon="5.696800"><ele>480.785</ele><time>2022-09-17T14:42:15Z</time></trkpt><trkpt lat="49.958153" lon="5.696875"><ele>481.930</ele><time>2022-09-17T14:42:16Z</time></trkpt><trkpt lat="49.958251" lon="5.696940"><ele>483.255</ele><time>2022-09-17T14:42:17Z</time></trkpt><trkpt lat="49.958360" lon="5.697014"><ele>484.250</ele><time>2022-09-17T14:42:18Z</time></trkpt><trkpt lat="49.958470" lon="5.697092"><ele>485.194</ele><time>2022-09-17T14:42:19Z</time></trkpt><trkpt lat="49.958578" lon="5.697160"><ele>485.871</ele><time>2022-09-17T14:42:20Z</time></trkpt><trkpt lat="49.958683" lon="5.697212"><ele>486.337</ele><time>2022-09-17T14:42:21Z</time></trkpt><trkpt lat="49.958782" lon="5.697246"><ele>486.649</ele><time>2022-09-17T14:42:22Z</time></trkpt><trkpt lat="49.958876" lon="5.697290"><ele>486.613</ele><time>2022-09-17T14:42:23Z</time></trkpt><trkpt lat="49.958988" lon="5.697340"><ele>486.309</ele><time>2022-09-17T14:42:24Z</time></trkpt><trkpt lat="49.959097" lon="5.697387"><ele>485.584</ele><time>2022-09-17T14:42:25Z</time></trkpt><trkpt lat="49.959197" lon="5.697432"><ele>484.944</ele><time>2022-09-17T14:42:26Z</time></trkpt><trkpt lat="49.959312" lon="5.697482"><ele>483.846</ele><time>2022-09-17T14:42:27Z</time></trkpt><trkpt lat="49.959430" lon="5.697537"><ele>483.032</ele><time>2022-09-17T14:42:28Z</time></trkpt><trkpt lat="49.959555" lon="5.697611"><ele>483.077</ele><time>2022-09-17T14:42:29Z</time></trkpt><trkpt lat="49.959671" lon="5.697718"><ele>483.372</ele><time>2022-09-17T14:42:30Z</time></trkpt><trkpt lat="49.959788" lon="5.697839"><ele>483.897</ele><time>2022-09-17T14:42:31Z</time></trkpt><trkpt lat="49.959906" lon="5.697959"><ele>484.031</ele><time>2022-09-17T14:42:32Z</time></trkpt><trkpt lat="49.960025" lon="5.698080"><ele>483.728</ele><time>2022-09-17T14:42:33Z</time></trkpt><trkpt lat="49.960149" lon="5.698213"><ele>483.055</ele><time>2022-09-17T14:42:34Z</time></trkpt><trkpt lat="49.960262" lon="5.698334"><ele>482.107</ele><time>2022-09-17T14:42:35Z</time></trkpt><trkpt lat="49.960369" lon="5.698453"><ele>481.617</ele><time>2022-09-17T14:42:36Z</time></trkpt><trkpt lat="49.960475" lon="5.698571"><ele>480.609</ele><time>2022-09-17T14:42:37Z</time></trkpt><trkpt lat="49.960580" lon="5.698686"><ele>479.556</ele><time>2022-09-17T14:42:38Z</time></trkpt><trkpt lat="49.960687" lon="5.698792"><ele>478.826</ele><time>2022-09-17T14:42:39Z</time></trkpt><trkpt lat="49.960786" lon="5.698893"><ele>478.238</ele><time>2022-09-17T14:42:40Z</time></trkpt><trkpt lat="49.960885" lon="5.698998"><ele>477.624</ele><time>2022-09-17T14:42:41Z</time></trkpt><trkpt lat="49.960985" lon="5.699100"><ele>477.269</ele><time>2022-09-17T14:42:42Z</time></trkpt><trkpt lat="49.961088" lon="5.699202"><ele>477.014</ele><time>2022-09-17T14:42:43Z</time></trkpt><trkpt lat="49.961192" lon="5.699305"><ele>476.879</ele><time>2022-09-17T14:42:44Z</time></trkpt><trkpt lat="49.961294" lon="5.699410"><ele>476.483</ele><time>2022-09-17T14:42:45Z</time></trkpt><trkpt lat="49.961396" lon="5.699503"><ele>476.110</ele><time>2022-09-17T14:42:46Z</time></trkpt><trkpt lat="49.961503" lon="5.699581"><ele>475.817</ele><time>2022-09-17T14:42:47Z</time></trkpt><trkpt lat="49.961615" lon="5.699650"><ele>475.687</ele><time>2022-09-17T14:42:48Z</time></trkpt><trkpt lat="49.961721" lon="5.699718"><ele>475.615</ele><time>2022-09-17T14:42:49Z</time></trkpt><trkpt lat="49.961831" lon="5.699775"><ele>475.609</ele><time>2022-09-17T14:42:50Z</time></trkpt><trkpt lat="49.961937" lon="5.699827"><ele>475.682</ele><time>2022-09-17T14:42:51Z</time></trkpt><trkpt lat="49.962042" lon="5.699878"><ele>475.472</ele><time>2022-09-17T14:42:52Z</time></trkpt><trkpt lat="49.962149" lon="5.699919"><ele>475.124</ele><time>2022-09-17T14:42:53Z</time></trkpt><trkpt lat="49.962252" lon="5.699971"><ele>474.640</ele><time>2022-09-17T14:42:54Z</time></trkpt><trkpt lat="49.962357" lon="5.700009"><ele>474.185</ele><time>2022-09-17T14:42:55Z</time></trkpt><trkpt lat="49.962463" lon="5.700045"><ele>473.860</ele><time>2022-09-17T14:42:56Z</time></trkpt><trkpt lat="49.962571" lon="5.700082"><ele>473.855</ele><time>2022-09-17T14:42:57Z</time></trkpt><trkpt lat="49.962689" lon="5.700119"><ele>473.939</ele><time>2022-09-17T14:42:58Z</time></trkpt><trkpt lat="49.962814" lon="5.700138"><ele>474.296</ele><time>2022-09-17T14:42:59Z</time></trkpt><trkpt lat="49.962939" lon="5.700157"><ele>474.393</ele><time>2022-09-17T14:43:00Z</time></trkpt><trkpt lat="49.963058" lon="5.700175"><ele>474.465</ele><time>2022-09-17T14:43:01Z</time></trkpt><trkpt lat="49.963170" lon="5.700191"><ele>474.621</ele><time>2022-09-17T14:43:02Z</time></trkpt><trkpt lat="49.963283" lon="5.700212"><ele>474.709</ele><time>2022-09-17T14:43:03Z</time></trkpt><trkpt lat="49.963389" lon="5.700230"><ele>474.910</ele><time>2022-09-17T14:43:04Z</time></trkpt><trkpt lat="49.963511" lon="5.700253"><ele>475.610</ele><time>2022-09-17T14:43:05Z</time></trkpt><trkpt lat="49.963629" lon="5.700278"><ele>476.412</ele><time>2022-09-17T14:43:06Z</time></trkpt><trkpt lat="49.963737" lon="5.700305"><ele>477.468</ele><time>2022-09-17T14:43:07Z</time></trkpt><trkpt lat="49.963839" lon="5.700332"><ele>478.243</ele><time>2022-09-17T14:43:08Z</time></trkpt><trkpt lat="49.963939" lon="5.700348"><ele>479.328</ele><time>2022-09-17T14:43:09Z</time></trkpt><trkpt lat="49.964049" lon="5.700367"><ele>479.793</ele><time>2022-09-17T14:43:10Z</time></trkpt><trkpt lat="49.964158" lon="5.700396"><ele>480.527</ele><time>2022-09-17T14:43:11Z</time></trkpt><trkpt lat="49.964264" lon="5.700424"><ele>480.834</ele><time>2022-09-17T14:43:12Z</time></trkpt><trkpt lat="49.964372" lon="5.700444"><ele>481.175</ele><time>2022-09-17T14:43:13Z</time></trkpt><trkpt lat="49.964487" lon="5.700460"><ele>481.128</ele><time>2022-09-17T14:43:14Z</time></trkpt><trkpt lat="49.964592" lon="5.700474"><ele>481.320</ele><time>2022-09-17T14:43:15Z</time></trkpt><trkpt lat="49.964698" lon="5.700475"><ele>481.309</ele><time>2022-09-17T14:43:16Z</time></trkpt><trkpt lat="49.964816" lon="5.700464"><ele>481.328</ele><time>2022-09-17T14:43:17Z</time></trkpt><trkpt lat="49.964926" lon="5.700475"><ele>481.788</ele><time>2022-09-17T14:43:18Z</time></trkpt><trkpt lat="49.965028" lon="5.700470"><ele>482.080</ele><time>2022-09-17T14:43:19Z</time></trkpt><trkpt lat="49.965133" lon="5.700455"><ele>482.216</ele><time>2022-09-17T14:43:20Z</time></trkpt><trkpt lat="49.965234" lon="5.700435"><ele>482.411</ele><time>2022-09-17T14:43:21Z</time></trkpt><trkpt lat="49.965328" lon="5.700412"><ele>482.456</ele><time>2022-09-17T14:43:22Z</time></trkpt><trkpt lat="49.965424" lon="5.700397"><ele>482.451</ele><time>2022-09-17T14:43:23Z</time></trkpt><trkpt lat="49.965512" lon="5.700407"><ele>482.495</ele><time>2022-09-17T14:43:24Z</time></trkpt><trkpt lat="49.965607" lon="5.700444"><ele>482.442</ele><time>2022-09-17T14:43:25Z</time></trkpt><trkpt lat="49.965701" lon="5.700513"><ele>482.433</ele><time>2022-09-17T14:43:26Z</time></trkpt><trkpt lat="49.965791" lon="5.700590"><ele>482.523</ele><time>2022-09-17T14:43:27Z</time></trkpt><trkpt lat="49.965878" lon="5.700683"><ele>482.815</ele><time>2022-09-17T14:43:28Z</time></trkpt><trkpt lat="49.965958" lon="5.700788"><ele>483.109</ele><time>2022-09-17T14:43:29Z</time></trkpt><trkpt lat="49.966031" lon="5.700883"><ele>483.384</ele><time>2022-09-17T14:43:30Z</time></trkpt><trkpt lat="49.966110" lon="5.700974"><ele>483.884</ele><time>2022-09-17T14:43:31Z</time></trkpt><trkpt lat="49.966173" lon="5.701056"><ele>484.286</ele><time>2022-09-17T14:43:32Z</time></trkpt><trkpt lat="49.966227" lon="5.701143"><ele>484.322</ele><time>2022-09-17T14:43:33Z</time></trkpt><trkpt lat="49.966267" lon="5.701257"><ele>484.517</ele><time>2022-09-17T14:43:34Z</time></trkpt><trkpt lat="49.966322" lon="5.701372"><ele>484.762</ele><time>2022-09-17T14:43:35Z</time></trkpt><trkpt lat="49.966405" lon="5.701474"><ele>485.027</ele><time>2022-09-17T14:43:36Z</time></trkpt><trkpt lat="49.966490" lon="5.701565"><ele>485.271</ele><time>2022-09-17T14:43:37Z</time></trkpt><trkpt lat="49.966571" lon="5.701649"><ele>485.268</ele><time>2022-09-17T14:43:38Z</time></trkpt><trkpt lat="49.966641" lon="5.701735"><ele>485.298</ele><time>2022-09-17T14:43:39Z</time></trkpt><trkpt lat="49.966693" lon="5.701825"><ele>485.215</ele><time>2022-09-17T14:43:40Z</time></trkpt><trkpt lat="49.966729" lon="5.701898"><ele>485.126</ele><time>2022-09-17T14:43:41Z</time></trkpt><trkpt lat="49.966744" lon="5.702027"><ele>485.109</ele><time>2022-09-17T14:43:43Z</time></trkpt><trkpt lat="49.966696" lon="5.702100"><ele>485.260</ele><time>2022-09-17T14:43:57Z</time></trkpt><trkpt lat="49.966651" lon="5.702144"><ele>485.460</ele><time>2022-09-17T14:43:58Z</time></trkpt><trkpt lat="49.966573" lon="5.702227"><ele>486.812</ele><time>2022-09-17T14:43:59Z</time></trkpt><trkpt lat="49.966508" lon="5.702361"><ele>486.938</ele><time>2022-09-17T14:44:00Z</time></trkpt><trkpt lat="49.966455" lon="5.702492"><ele>487.163</ele><time>2022-09-17T14:44:01Z</time></trkpt><trkpt lat="49.966429" lon="5.702595"><ele>487.268</ele><time>2022-09-17T14:44:02Z</time></trkpt><trkpt lat="49.966438" lon="5.702679"><ele>487.373</ele><time>2022-09-17T14:44:03Z</time></trkpt><trkpt lat="49.966498" lon="5.702789"><ele>487.497</ele><time>2022-09-17T14:44:04Z</time></trkpt><trkpt lat="49.966550" lon="5.702896"><ele>487.554</ele><time>2022-09-17T14:44:05Z</time></trkpt><trkpt lat="49.966614" lon="5.702982"><ele>487.797</ele><time>2022-09-17T14:44:06Z</time></trkpt><trkpt lat="49.966677" lon="5.703054"><ele>488.023</ele><time>2022-09-17T14:44:07Z</time></trkpt><trkpt lat="49.966727" lon="5.703145"><ele>488.425</ele><time>2022-09-17T14:44:08Z</time></trkpt><trkpt lat="49.966775" lon="5.703235"><ele>489.109</ele><time>2022-09-17T14:44:09Z</time></trkpt><trkpt lat="49.966828" lon="5.703362"><ele>489.930</ele><time>2022-09-17T14:44:10Z</time></trkpt><trkpt lat="49.966886" lon="5.703495"><ele>491.020</ele><time>2022-09-17T14:44:11Z</time></trkpt><trkpt lat="49.966959" lon="5.703612"><ele>491.692</ele><time>2022-09-17T14:44:12Z</time></trkpt><trkpt lat="49.967015" lon="5.703726"><ele>492.168</ele><time>2022-09-17T14:44:13Z</time></trkpt><trkpt lat="49.967073" lon="5.703839"><ele>492.563</ele><time>2022-09-17T14:44:14Z</time></trkpt><trkpt lat="49.967122" lon="5.703951"><ele>493.218</ele><time>2022-09-17T14:44:15Z</time></trkpt><trkpt lat="49.967165" lon="5.704074"><ele>493.933</ele><time>2022-09-17T14:44:16Z</time></trkpt><trkpt lat="49.967212" lon="5.704175"><ele>494.357</ele><time>2022-09-17T14:44:17Z</time></trkpt><trkpt lat="49.967269" lon="5.704270"><ele>495.184</ele><time>2022-09-17T14:44:18Z</time></trkpt><trkpt lat="49.967338" lon="5.704357"><ele>495.987</ele><time>2022-09-17T14:44:19Z</time></trkpt><trkpt lat="49.967425" lon="5.704447"><ele>497.142</ele><time>2022-09-17T14:44:20Z</time></trkpt><trkpt lat="49.967502" lon="5.704575"><ele>497.826</ele><time>2022-09-17T14:44:21Z</time></trkpt><trkpt lat="49.967585" lon="5.704682"><ele>498.509</ele><time>2022-09-17T14:44:22Z</time></trkpt><trkpt lat="49.967662" lon="5.704786"><ele>499.049</ele><time>2022-09-17T14:44:23Z</time></trkpt><trkpt lat="49.967731" lon="5.704902"><ele>499.519</ele><time>2022-09-17T14:44:24Z</time></trkpt><trkpt lat="49.967798" lon="5.704964"><ele>499.911</ele><time>2022-09-17T14:44:25Z</time></trkpt><trkpt lat="49.967870" lon="5.705033"><ele>500.197</ele><time>2022-09-17T14:44:26Z</time></trkpt><trkpt lat="49.967929" lon="5.705112"><ele>500.782</ele><time>2022-09-17T14:44:27Z</time></trkpt><trkpt lat="49.967985" lon="5.705163"><ele>501.637</ele><time>2022-09-17T14:44:28Z</time></trkpt><trkpt lat="49.968056" lon="5.705244"><ele>502.882</ele><time>2022-09-17T14:44:29Z</time></trkpt><trkpt lat="49.968080" lon="5.705357"><ele>504.286</ele><time>2022-09-17T14:44:30Z</time></trkpt><trkpt lat="49.968111" lon="5.705472"><ele>505.723</ele><time>2022-09-17T14:44:31Z</time></trkpt><trkpt lat="49.968158" lon="5.705563"><ele>507.224</ele><time>2022-09-17T14:44:32Z</time></trkpt><trkpt lat="49.968242" lon="5.705671"><ele>508.604</ele><time>2022-09-17T14:44:33Z</time></trkpt><trkpt lat="49.968316" lon="5.705798"><ele>510.714</ele><time>2022-09-17T14:44:34Z</time></trkpt><trkpt lat="49.968389" lon="5.705959"><ele>512.009</ele><time>2022-09-17T14:44:35Z</time></trkpt><trkpt lat="49.968429" lon="5.706141"><ele>513.023</ele><time>2022-09-17T14:44:36Z</time></trkpt><trkpt lat="49.968474" lon="5.706295"><ele>514.033</ele><time>2022-09-17T14:44:37Z</time></trkpt><trkpt lat="49.968521" lon="5.706468"><ele>514.865</ele><time>2022-09-17T14:44:38Z</time></trkpt><trkpt lat="49.968599" lon="5.706576"><ele>515.541</ele><time>2022-09-17T14:44:39Z</time></trkpt><trkpt lat="49.968643" lon="5.706676"><ele>516.086</ele><time>2022-09-17T14:44:40Z</time></trkpt><trkpt lat="49.968643" lon="5.706805"><ele>516.471</ele><time>2022-09-17T14:44:41Z</time></trkpt><trkpt lat="49.968634" lon="5.706939"><ele>517.096</ele><time>2022-09-17T14:44:42Z</time></trkpt><trkpt lat="49.968624" lon="5.707093"><ele>517.570</ele><time>2022-09-17T14:44:43Z</time></trkpt><trkpt lat="49.968578" lon="5.707273"><ele>518.277</ele><time>2022-09-17T14:44:44Z</time></trkpt><trkpt lat="49.968528" lon="5.707483"><ele>518.965</ele><time>2022-09-17T14:44:45Z</time></trkpt><trkpt lat="49.968480" lon="5.707627"><ele>519.268</ele><time>2022-09-17T14:44:46Z</time></trkpt><trkpt lat="49.968454" lon="5.707790"><ele>519.814</ele><time>2022-09-17T14:44:47Z</time></trkpt><trkpt lat="49.968430" lon="5.707917"><ele>520.109</ele><time>2022-09-17T14:44:48Z</time></trkpt><trkpt lat="49.968416" lon="5.708047"><ele>520.417</ele><time>2022-09-17T14:44:49Z</time></trkpt><trkpt lat="49.968389" lon="5.708193"><ele>520.577</ele><time>2022-09-17T14:44:50Z</time></trkpt><trkpt lat="49.968338" lon="5.708331"><ele>520.899</ele><time>2022-09-17T14:44:51Z</time></trkpt><trkpt lat="49.968262" lon="5.708465"><ele>520.865</ele><time>2022-09-17T14:44:52Z</time></trkpt><trkpt lat="49.968169" lon="5.708593"><ele>520.950</ele><time>2022-09-17T14:44:53Z</time></trkpt><trkpt lat="49.968075" lon="5.708706"><ele>520.925</ele><time>2022-09-17T14:44:54Z</time></trkpt><trkpt lat="49.967976" lon="5.708849"><ele>520.920</ele><time>2022-09-17T14:44:55Z</time></trkpt><trkpt lat="49.967875" lon="5.709010"><ele>520.454</ele><time>2022-09-17T14:44:56Z</time></trkpt><trkpt lat="49.967777" lon="5.709175"><ele>520.081</ele><time>2022-09-17T14:44:57Z</time></trkpt><trkpt lat="49.967674" lon="5.709341"><ele>519.498</ele><time>2022-09-17T14:44:58Z</time></trkpt><trkpt lat="49.967570" lon="5.709498"><ele>518.615</ele><time>2022-09-17T14:44:59Z</time></trkpt><trkpt lat="49.967435" lon="5.709616"><ele>517.926</ele><time>2022-09-17T14:45:00Z</time></trkpt><trkpt lat="49.967327" lon="5.709774"><ele>517.209</ele><time>2022-09-17T14:45:01Z</time></trkpt><trkpt lat="49.967222" lon="5.709929"><ele>516.440</ele><time>2022-09-17T14:45:02Z</time></trkpt><trkpt lat="49.967108" lon="5.710116"><ele>515.720</ele><time>2022-09-17T14:45:03Z</time></trkpt><trkpt lat="49.967018" lon="5.710311"><ele>514.952</ele><time>2022-09-17T14:45:04Z</time></trkpt><trkpt lat="49.966937" lon="5.710518"><ele>513.928</ele><time>2022-09-17T14:45:05Z</time></trkpt><trkpt lat="49.966870" lon="5.710741"><ele>512.983</ele><time>2022-09-17T14:45:06Z</time></trkpt><trkpt lat="49.966816" lon="5.710963"><ele>512.028</ele><time>2022-09-17T14:45:07Z</time></trkpt><trkpt lat="49.966774" lon="5.711183"><ele>511.233</ele><time>2022-09-17T14:45:08Z</time></trkpt><trkpt lat="49.966738" lon="5.711376"><ele>510.787</ele><time>2022-09-17T14:45:09Z</time></trkpt><trkpt lat="49.966698" lon="5.711575"><ele>510.584</ele><time>2022-09-17T14:45:10Z</time></trkpt><trkpt lat="49.966658" lon="5.711775"><ele>510.516</ele><time>2022-09-17T14:45:11Z</time></trkpt><trkpt lat="49.966622" lon="5.711961"><ele>510.576</ele><time>2022-09-17T14:45:12Z</time></trkpt><trkpt lat="49.966592" lon="5.712196"><ele>510.613</ele><time>2022-09-17T14:45:13Z</time></trkpt><trkpt lat="49.966536" lon="5.712374"><ele>510.609</ele><time>2022-09-17T14:45:14Z</time></trkpt><trkpt lat="49.966491" lon="5.712571"><ele>510.662</ele><time>2022-09-17T14:45:15Z</time></trkpt><trkpt lat="49.966460" lon="5.712787"><ele>510.662</ele><time>2022-09-17T14:45:16Z</time></trkpt><trkpt lat="49.966403" lon="5.712980"><ele>510.884</ele><time>2022-09-17T14:45:17Z</time></trkpt><trkpt lat="49.966356" lon="5.713174"><ele>511.320</ele><time>2022-09-17T14:45:18Z</time></trkpt><trkpt lat="49.966310" lon="5.713369"><ele>511.625</ele><time>2022-09-17T14:45:19Z</time></trkpt><trkpt lat="49.966279" lon="5.713586"><ele>512.810</ele><time>2022-09-17T14:45:20Z</time></trkpt><trkpt lat="49.966240" lon="5.713789"><ele>513.745</ele><time>2022-09-17T14:45:21Z</time></trkpt><trkpt lat="49.966217" lon="5.713993"><ele>514.419</ele><time>2022-09-17T14:45:22Z</time></trkpt><trkpt lat="49.966197" lon="5.714188"><ele>514.776</ele><time>2022-09-17T14:45:23Z</time></trkpt><trkpt lat="49.966180" lon="5.714368"><ele>515.214</ele><time>2022-09-17T14:45:24Z</time></trkpt><trkpt lat="49.966184" lon="5.714533"><ele>515.454</ele><time>2022-09-17T14:45:25Z</time></trkpt><trkpt lat="49.966185" lon="5.714700"><ele>515.709</ele><time>2022-09-17T14:45:26Z</time></trkpt><trkpt lat="49.966190" lon="5.714858"><ele>516.109</ele><time>2022-09-17T14:45:27Z</time></trkpt><trkpt lat="49.966193" lon="5.715012"><ele>516.432</ele><time>2022-09-17T14:45:28Z</time></trkpt><trkpt lat="49.966200" lon="5.715159"><ele>516.642</ele><time>2022-09-17T14:45:29Z</time></trkpt><trkpt lat="49.966202" lon="5.715303"><ele>516.714</ele><time>2022-09-17T14:45:30Z</time></trkpt><trkpt lat="49.966205" lon="5.715416"><ele>516.770</ele><time>2022-09-17T14:45:31Z</time></trkpt><trkpt lat="49.966209" lon="5.715522"><ele>516.635</ele><time>2022-09-17T14:45:32Z</time></trkpt><trkpt lat="49.966212" lon="5.715598"><ele>516.320</ele><time>2022-09-17T14:45:33Z</time></trkpt><trkpt lat="49.966211" lon="5.715687"><ele>516.245</ele><time>2022-09-17T14:45:35Z</time></trkpt><trkpt lat="49.966211" lon="5.715775"><ele>516.269</ele><time>2022-09-17T14:45:40Z</time></trkpt><trkpt lat="49.966164" lon="5.715910"><ele>516.296</ele><time>2022-09-17T14:45:42Z</time></trkpt><trkpt lat="49.966123" lon="5.715995"><ele>516.279</ele><time>2022-09-17T14:45:43Z</time></trkpt><trkpt lat="49.966070" lon="5.716101"><ele>516.205</ele><time>2022-09-17T14:45:44Z</time></trkpt><trkpt lat="49.965995" lon="5.716172"><ele>516.225</ele><time>2022-09-17T14:45:45Z</time></trkpt><trkpt lat="49.965931" lon="5.716264"><ele>516.209</ele><time>2022-09-17T14:45:46Z</time></trkpt><trkpt lat="49.965869" lon="5.716353"><ele>516.298</ele><time>2022-09-17T14:45:47Z</time></trkpt><trkpt lat="49.965801" lon="5.716450"><ele>516.128</ele><time>2022-09-17T14:45:48Z</time></trkpt><trkpt lat="49.965735" lon="5.716544"><ele>516.040</ele><time>2022-09-17T14:45:49Z</time></trkpt><trkpt lat="49.965668" lon="5.716640"><ele>515.656</ele><time>2022-09-17T14:45:50Z</time></trkpt><trkpt lat="49.965594" lon="5.716749"><ele>515.531</ele><time>2022-09-17T14:45:51Z</time></trkpt><trkpt lat="49.965518" lon="5.716862"><ele>515.396</ele><time>2022-09-17T14:45:52Z</time></trkpt><trkpt lat="49.965444" lon="5.716987"><ele>515.331</ele><time>2022-09-17T14:45:53Z</time></trkpt><trkpt lat="49.965366" lon="5.717098"><ele>515.315</ele><time>2022-09-17T14:45:54Z</time></trkpt><trkpt lat="49.965288" lon="5.717211"><ele>515.352</ele><time>2022-09-17T14:45:55Z</time></trkpt><trkpt lat="49.965207" lon="5.717332"><ele>515.372</ele><time>2022-09-17T14:45:56Z</time></trkpt><trkpt lat="49.965125" lon="5.717457"><ele>515.513</ele><time>2022-09-17T14:45:57Z</time></trkpt><trkpt lat="49.965042" lon="5.717588"><ele>515.714</ele><time>2022-09-17T14:45:58Z</time></trkpt><trkpt lat="49.964948" lon="5.717710"><ele>515.909</ele><time>2022-09-17T14:45:59Z</time></trkpt><trkpt lat="49.964878" lon="5.717852"><ele>516.238</ele><time>2022-09-17T14:46:00Z</time></trkpt><trkpt lat="49.964824" lon="5.718003"><ele>516.658</ele><time>2022-09-17T14:46:01Z</time></trkpt><trkpt lat="49.964776" lon="5.718178"><ele>516.970</ele><time>2022-09-17T14:46:02Z</time></trkpt><trkpt lat="49.964741" lon="5.718369"><ele>517.366</ele><time>2022-09-17T14:46:03Z</time></trkpt><trkpt lat="49.964707" lon="5.718580"><ele>517.761</ele><time>2022-09-17T14:46:04Z</time></trkpt><trkpt lat="49.964657" lon="5.718797"><ele>518.776</ele><time>2022-09-17T14:46:05Z</time></trkpt><trkpt lat="49.964616" lon="5.719019"><ele>519.471</ele><time>2022-09-17T14:46:06Z</time></trkpt><trkpt lat="49.964579" lon="5.719239"><ele>520.185</ele><time>2022-09-17T14:46:07Z</time></trkpt><trkpt lat="49.964547" lon="5.719456"><ele>520.942</ele><time>2022-09-17T14:46:08Z</time></trkpt><trkpt lat="49.964520" lon="5.719666"><ele>521.987</ele><time>2022-09-17T14:46:09Z</time></trkpt><trkpt lat="49.964493" lon="5.719877"><ele>522.942</ele><time>2022-09-17T14:46:10Z</time></trkpt><trkpt lat="49.964460" lon="5.720095"><ele>524.026</ele><time>2022-09-17T14:46:11Z</time></trkpt><trkpt lat="49.964428" lon="5.720305"><ele>525.209</ele><time>2022-09-17T14:46:12Z</time></trkpt><trkpt lat="49.964398" lon="5.720506"><ele>526.259</ele><time>2022-09-17T14:46:13Z</time></trkpt><trkpt lat="49.964370" lon="5.720693"><ele>526.649</ele><time>2022-09-17T14:46:14Z</time></trkpt><trkpt lat="49.964334" lon="5.720846"><ele>527.171</ele><time>2022-09-17T14:46:15Z</time></trkpt><trkpt lat="49.964294" lon="5.720998"><ele>527.517</ele><time>2022-09-17T14:46:16Z</time></trkpt><trkpt lat="49.964252" lon="5.721146"><ele>527.812</ele><time>2022-09-17T14:46:17Z</time></trkpt><trkpt lat="49.964217" lon="5.721261"><ele>527.987</ele><time>2022-09-17T14:46:18Z</time></trkpt><trkpt lat="49.964180" lon="5.721357"><ele>527.982</ele><time>2022-09-17T14:46:19Z</time></trkpt><trkpt lat="49.964147" lon="5.721442"><ele>528.046</ele><time>2022-09-17T14:46:20Z</time></trkpt><trkpt lat="49.964120" lon="5.721511"><ele>528.173</ele><time>2022-09-17T14:46:21Z</time></trkpt><trkpt lat="49.964259" lon="5.721679"><ele>528.158</ele><time>2022-09-17T14:46:23Z</time></trkpt><trkpt lat="49.964328" lon="5.721738"><ele>527.952</ele><time>2022-09-17T14:46:24Z</time></trkpt><trkpt lat="49.964420" lon="5.721779"><ele>527.617</ele><time>2022-09-17T14:46:25Z</time></trkpt><trkpt lat="49.964514" lon="5.721833"><ele>527.609</ele><time>2022-09-17T14:46:26Z</time></trkpt><trkpt lat="49.964625" lon="5.721896"><ele>527.556</ele><time>2022-09-17T14:46:27Z</time></trkpt><trkpt lat="49.964738" lon="5.721960"><ele>527.586</ele><time>2022-09-17T14:46:28Z</time></trkpt><trkpt lat="49.964850" lon="5.722028"><ele>527.618</ele><time>2022-09-17T14:46:29Z</time></trkpt><trkpt lat="49.964956" lon="5.722128"><ele>528.024</ele><time>2022-09-17T14:46:30Z</time></trkpt><trkpt lat="49.965086" lon="5.722204"><ele>528.289</ele><time>2022-09-17T14:46:31Z</time></trkpt><trkpt lat="49.965221" lon="5.722280"><ele>529.364</ele><time>2022-09-17T14:46:32Z</time></trkpt><trkpt lat="49.965353" lon="5.722354"><ele>529.899</ele><time>2022-09-17T14:46:33Z</time></trkpt><trkpt lat="49.965487" lon="5.722427"><ele>530.213</ele><time>2022-09-17T14:46:34Z</time></trkpt><trkpt lat="49.965615" lon="5.722499"><ele>530.510</ele><time>2022-09-17T14:46:35Z</time></trkpt><trkpt lat="49.965731" lon="5.722568"><ele>530.588</ele><time>2022-09-17T14:46:36Z</time></trkpt><trkpt lat="49.965842" lon="5.722635"><ele>530.424</ele><time>2022-09-17T14:46:37Z</time></trkpt><trkpt lat="49.965953" lon="5.722696"><ele>530.126</ele><time>2022-09-17T14:46:38Z</time></trkpt><trkpt lat="49.966061" lon="5.722761"><ele>529.709</ele><time>2022-09-17T14:46:39Z</time></trkpt><trkpt lat="49.966152" lon="5.722864"><ele>528.869</ele><time>2022-09-17T14:46:40Z</time></trkpt><trkpt lat="49.966247" lon="5.722970"><ele>528.129</ele><time>2022-09-17T14:46:41Z</time></trkpt><trkpt lat="49.966330" lon="5.723101"><ele>527.431</ele><time>2022-09-17T14:46:42Z</time></trkpt><trkpt lat="49.966411" lon="5.723257"><ele>526.897</ele><time>2022-09-17T14:46:43Z</time></trkpt><trkpt lat="49.966485" lon="5.723427"><ele>526.212</ele><time>2022-09-17T14:46:44Z</time></trkpt><trkpt lat="49.966558" lon="5.723611"><ele>525.247</ele><time>2022-09-17T14:46:45Z</time></trkpt><trkpt lat="49.966630" lon="5.723788"><ele>524.572</ele><time>2022-09-17T14:46:46Z</time></trkpt><trkpt lat="49.966694" lon="5.724001"><ele>523.866</ele><time>2022-09-17T14:46:47Z</time></trkpt><trkpt lat="49.966753" lon="5.724224"><ele>523.283</ele><time>2022-09-17T14:46:48Z</time></trkpt><trkpt lat="49.966809" lon="5.724452"><ele>522.845</ele><time>2022-09-17T14:46:49Z</time></trkpt><trkpt lat="49.966867" lon="5.724671"><ele>522.647</ele><time>2022-09-17T14:46:50Z</time></trkpt><trkpt lat="49.966933" lon="5.724884"><ele>522.211</ele><time>2022-09-17T14:46:51Z</time></trkpt><trkpt lat="49.967011" lon="5.725089"><ele>521.709</ele><time>2022-09-17T14:46:52Z</time></trkpt><trkpt lat="49.967100" lon="5.725293"><ele>521.045</ele><time>2022-09-17T14:46:53Z</time></trkpt><trkpt lat="49.967194" lon="5.725498"><ele>520.315</ele><time>2022-09-17T14:46:54Z</time></trkpt><trkpt lat="49.967288" lon="5.725704"><ele>519.967</ele><time>2022-09-17T14:46:55Z</time></trkpt><trkpt lat="49.967386" lon="5.725913"><ele>519.863</ele><time>2022-09-17T14:46:56Z</time></trkpt><trkpt lat="49.967488" lon="5.726120"><ele>519.938</ele><time>2022-09-17T14:46:57Z</time></trkpt><trkpt lat="49.967592" lon="5.726325"><ele>520.323</ele><time>2022-09-17T14:46:58Z</time></trkpt><trkpt lat="49.967696" lon="5.726526"><ele>520.798</ele><time>2022-09-17T14:46:59Z</time></trkpt><trkpt lat="49.967783" lon="5.726744"><ele>520.972</ele><time>2022-09-17T14:47:00Z</time></trkpt><trkpt lat="49.967882" lon="5.726944"><ele>520.969</ele><time>2022-09-17T14:47:01Z</time></trkpt><trkpt lat="49.967979" lon="5.727137"><ele>520.736</ele><time>2022-09-17T14:47:02Z</time></trkpt><trkpt lat="49.968076" lon="5.727330"><ele>520.417</ele><time>2022-09-17T14:47:03Z</time></trkpt><trkpt lat="49.968174" lon="5.727525"><ele>520.218</ele><time>2022-09-17T14:47:04Z</time></trkpt><trkpt lat="49.968280" lon="5.727686"><ele>519.909</ele><time>2022-09-17T14:47:05Z</time></trkpt><trkpt lat="49.968365" lon="5.727833"><ele>519.474</ele><time>2022-09-17T14:47:06Z</time></trkpt><trkpt lat="49.968448" lon="5.727968"><ele>519.174</ele><time>2022-09-17T14:47:07Z</time></trkpt><trkpt lat="49.968548" lon="5.728074"><ele>519.056</ele><time>2022-09-17T14:47:08Z</time></trkpt><trkpt lat="49.968669" lon="5.728122"><ele>518.862</ele><time>2022-09-17T14:47:09Z</time></trkpt><trkpt lat="49.968817" lon="5.728157"><ele>518.927</ele><time>2022-09-17T14:47:10Z</time></trkpt><trkpt lat="49.968982" lon="5.728198"><ele>519.352</ele><time>2022-09-17T14:47:11Z</time></trkpt><trkpt lat="49.969110" lon="5.728238"><ele>519.867</ele><time>2022-09-17T14:47:12Z</time></trkpt><trkpt lat="49.969230" lon="5.728279"><ele>520.011</ele><time>2022-09-17T14:47:13Z</time></trkpt><trkpt lat="49.969343" lon="5.728331"><ele>520.618</ele><time>2022-09-17T14:47:14Z</time></trkpt><trkpt lat="49.969447" lon="5.728406"><ele>521.148</ele><time>2022-09-17T14:47:15Z</time></trkpt><trkpt lat="49.969552" lon="5.728502"><ele>521.561</ele><time>2022-09-17T14:47:16Z</time></trkpt><trkpt lat="49.969647" lon="5.728610"><ele>521.617</ele><time>2022-09-17T14:47:17Z</time></trkpt><trkpt lat="49.969753" lon="5.728728"><ele>521.609</ele><time>2022-09-17T14:47:18Z</time></trkpt><trkpt lat="49.969865" lon="5.728845"><ele>521.655</ele><time>2022-09-17T14:47:19Z</time></trkpt><trkpt lat="49.969984" lon="5.728970"><ele>521.295</ele><time>2022-09-17T14:47:20Z</time></trkpt><trkpt lat="49.970103" lon="5.729099"><ele>521.017</ele><time>2022-09-17T14:47:21Z</time></trkpt><trkpt lat="49.970224" lon="5.729226"><ele>520.723</ele><time>2022-09-17T14:47:22Z</time></trkpt><trkpt lat="49.970334" lon="5.729365"><ele>520.588</ele><time>2022-09-17T14:47:23Z</time></trkpt><trkpt lat="49.970437" lon="5.729513"><ele>520.513</ele><time>2022-09-17T14:47:24Z</time></trkpt><trkpt lat="49.970536" lon="5.729672"><ele>520.298</ele><time>2022-09-17T14:47:25Z</time></trkpt><trkpt lat="49.970621" lon="5.729846"><ele>519.822</ele><time>2022-09-17T14:47:26Z</time></trkpt><trkpt lat="49.970702" lon="5.730023"><ele>519.529</ele><time>2022-09-17T14:47:27Z</time></trkpt><trkpt lat="49.970736" lon="5.730194"><ele>519.382</ele><time>2022-09-17T14:47:28Z</time></trkpt><trkpt lat="49.970815" lon="5.730350"><ele>518.443</ele><time>2022-09-17T14:47:29Z</time></trkpt><trkpt lat="49.970879" lon="5.730476"><ele>517.117</ele><time>2022-09-17T14:47:30Z</time></trkpt><trkpt lat="49.970937" lon="5.730593"><ele>516.109</ele><time>2022-09-17T14:47:31Z</time></trkpt><trkpt lat="49.970984" lon="5.730696"><ele>514.319</ele><time>2022-09-17T14:47:32Z</time></trkpt><trkpt lat="49.971024" lon="5.730790"><ele>513.419</ele><time>2022-09-17T14:47:33Z</time></trkpt><trkpt lat="49.971056" lon="5.730869"><ele>511.991</ele><time>2022-09-17T14:47:34Z</time></trkpt><trkpt lat="49.971080" lon="5.730946"><ele>511.337</ele><time>2022-09-17T14:47:35Z</time></trkpt><trkpt lat="49.971099" lon="5.731045"><ele>510.682</ele><time>2022-09-17T14:47:36Z</time></trkpt><trkpt lat="49.971109" lon="5.731173"><ele>509.867</ele><time>2022-09-17T14:47:37Z</time></trkpt><trkpt lat="49.971122" lon="5.731319"><ele>509.422</ele><time>2022-09-17T14:47:38Z</time></trkpt><trkpt lat="49.971138" lon="5.731513"><ele>509.036</ele><time>2022-09-17T14:47:39Z</time></trkpt><trkpt lat="49.971170" lon="5.731707"><ele>508.723</ele><time>2022-09-17T14:47:40Z</time></trkpt><trkpt lat="49.971190" lon="5.731931"><ele>508.779</ele><time>2022-09-17T14:47:41Z</time></trkpt><trkpt lat="49.971203" lon="5.732159"><ele>508.705</ele><time>2022-09-17T14:47:42Z</time></trkpt><trkpt lat="49.971226" lon="5.732378"><ele>508.725</ele><time>2022-09-17T14:47:43Z</time></trkpt><trkpt lat="49.971248" lon="5.732597"><ele>508.609</ele><time>2022-09-17T14:47:44Z</time></trkpt><trkpt lat="49.971278" lon="5.732810"><ele>508.348</ele><time>2022-09-17T14:47:45Z</time></trkpt><trkpt lat="49.971320" lon="5.733019"><ele>507.938</ele><time>2022-09-17T14:47:46Z</time></trkpt><trkpt lat="49.971370" lon="5.733237"><ele>507.340</ele><time>2022-09-17T14:47:47Z</time></trkpt><trkpt lat="49.971428" lon="5.733453"><ele>506.666</ele><time>2022-09-17T14:47:48Z</time></trkpt><trkpt lat="49.971491" lon="5.733668"><ele>506.171</ele><time>2022-09-17T14:47:49Z</time></trkpt><trkpt lat="49.971556" lon="5.733887"><ele>505.776</ele><time>2022-09-17T14:47:50Z</time></trkpt><trkpt lat="49.971626" lon="5.734104"><ele>505.221</ele><time>2022-09-17T14:47:51Z</time></trkpt><trkpt lat="49.971696" lon="5.734325"><ele>504.885</ele><time>2022-09-17T14:47:52Z</time></trkpt><trkpt lat="49.971761" lon="5.734524"><ele>504.412</ele><time>2022-09-17T14:47:53Z</time></trkpt><trkpt lat="49.971825" lon="5.734712"><ele>503.857</ele><time>2022-09-17T14:47:54Z</time></trkpt><trkpt lat="49.971887" lon="5.734882"><ele>503.400</ele><time>2022-09-17T14:47:55Z</time></trkpt><trkpt lat="49.971945" lon="5.735041"><ele>502.720</ele><time>2022-09-17T14:47:56Z</time></trkpt><trkpt lat="49.971997" lon="5.735179"><ele>501.809</ele><time>2022-09-17T14:47:57Z</time></trkpt><trkpt lat="49.972041" lon="5.735297"><ele>500.936</ele><time>2022-09-17T14:47:58Z</time></trkpt><trkpt lat="49.972082" lon="5.735386"><ele>500.556</ele><time>2022-09-17T14:47:59Z</time></trkpt><trkpt lat="49.972116" lon="5.735456"><ele>499.748</ele><time>2022-09-17T14:48:00Z</time></trkpt><trkpt lat="49.972162" lon="5.735554"><ele>499.034</ele><time>2022-09-17T14:48:01Z</time></trkpt><trkpt lat="49.972213" lon="5.735652"><ele>498.389</ele><time>2022-09-17T14:48:02Z</time></trkpt><trkpt lat="49.972262" lon="5.735742"><ele>497.754</ele><time>2022-09-17T14:48:03Z</time></trkpt><trkpt lat="49.972327" lon="5.735861"><ele>497.279</ele><time>2022-09-17T14:48:04Z</time></trkpt><trkpt lat="49.972401" lon="5.735987"><ele>496.423</ele><time>2022-09-17T14:48:05Z</time></trkpt><trkpt lat="49.972488" lon="5.736139"><ele>496.150</ele><time>2022-09-17T14:48:06Z</time></trkpt><trkpt lat="49.972562" lon="5.736288"><ele>495.677</ele><time>2022-09-17T14:48:07Z</time></trkpt><trkpt lat="49.972653" lon="5.736469"><ele>494.661</ele><time>2022-09-17T14:48:08Z</time></trkpt><trkpt lat="49.972737" lon="5.736637"><ele>493.327</ele><time>2022-09-17T14:48:09Z</time></trkpt><trkpt lat="49.972813" lon="5.736800"><ele>492.809</ele><time>2022-09-17T14:48:10Z</time></trkpt><trkpt lat="49.972893" lon="5.736984"><ele>491.218</ele><time>2022-09-17T14:48:11Z</time></trkpt><trkpt lat="49.972952" lon="5.737121"><ele>490.978</ele><time>2022-09-17T14:48:12Z</time></trkpt><trkpt lat="49.973014" lon="5.737266"><ele>490.910</ele><time>2022-09-17T14:48:13Z</time></trkpt><trkpt lat="49.973059" lon="5.737372"><ele>490.876</ele><time>2022-09-17T14:48:14Z</time></trkpt><trkpt lat="49.973096" lon="5.737461"><ele>490.881</ele><time>2022-09-17T14:48:15Z</time></trkpt><trkpt lat="49.973124" lon="5.737527"><ele>490.726</ele><time>2022-09-17T14:48:16Z</time></trkpt><trkpt lat="49.973196" lon="5.737698"><ele>490.221</ele><time>2022-09-17T14:48:18Z</time></trkpt><trkpt lat="49.973238" lon="5.737795"><ele>489.225</ele><time>2022-09-17T14:48:19Z</time></trkpt><trkpt lat="49.973300" lon="5.737939"><ele>488.092</ele><time>2022-09-17T14:48:20Z</time></trkpt><trkpt lat="49.973344" lon="5.738052"><ele>487.589</ele><time>2022-09-17T14:48:21Z</time></trkpt><trkpt lat="49.973436" lon="5.738184"><ele>487.206</ele><time>2022-09-17T14:48:22Z</time></trkpt><trkpt lat="49.973514" lon="5.738304"><ele>486.726</ele><time>2022-09-17T14:48:23Z</time></trkpt><trkpt lat="49.974361" lon="5.737620"><ele>485.609</ele><time>2022-09-17T14:48:24Z</time></trkpt><trkpt lat="49.974497" lon="5.737627"><ele>485.449</ele><time>2022-09-17T14:48:25Z</time></trkpt><trkpt lat="49.974633" lon="5.737629"><ele>484.919</ele><time>2022-09-17T14:48:26Z</time></trkpt><trkpt lat="49.974775" lon="5.737600"><ele>484.531</ele><time>2022-09-17T14:48:27Z</time></trkpt><trkpt lat="49.974922" lon="5.737585"><ele>484.177</ele><time>2022-09-17T14:48:28Z</time></trkpt><trkpt lat="49.975061" lon="5.737561"><ele>483.962</ele><time>2022-09-17T14:48:29Z</time></trkpt><trkpt lat="49.975191" lon="5.737522"><ele>483.867</ele><time>2022-09-17T14:48:30Z</time></trkpt><trkpt lat="49.975310" lon="5.737513"><ele>483.842</ele><time>2022-09-17T14:48:31Z</time></trkpt><trkpt lat="49.975412" lon="5.737498"><ele>483.886</ele><time>2022-09-17T14:48:32Z</time></trkpt><trkpt lat="49.975519" lon="5.737471"><ele>484.043</ele><time>2022-09-17T14:48:33Z</time></trkpt><trkpt lat="49.975621" lon="5.737457"><ele>484.385</ele><time>2022-09-17T14:48:34Z</time></trkpt><trkpt lat="49.975730" lon="5.737458"><ele>484.589</ele><time>2022-09-17T14:48:35Z</time></trkpt><trkpt lat="49.975832" lon="5.737484"><ele>484.617</ele><time>2022-09-17T14:48:36Z</time></trkpt><trkpt lat="49.975924" lon="5.737521"><ele>485.109</ele><time>2022-09-17T14:48:37Z</time></trkpt><trkpt lat="49.975988" lon="5.737591"><ele>485.269</ele><time>2022-09-17T14:48:38Z</time></trkpt><trkpt lat="49.976072" lon="5.737694"><ele>485.479</ele><time>2022-09-17T14:48:39Z</time></trkpt><trkpt lat="49.976159" lon="5.737808"><ele>485.651</ele><time>2022-09-17T14:48:40Z</time></trkpt><trkpt lat="49.976265" lon="5.737965"><ele>485.967</ele><time>2022-09-17T14:48:41Z</time></trkpt><trkpt lat="49.976359" lon="5.738124"><ele>486.342</ele><time>2022-09-17T14:48:42Z</time></trkpt><trkpt lat="49.976465" lon="5.738260"><ele>486.627</ele><time>2022-09-17T14:48:43Z</time></trkpt><trkpt lat="49.976563" lon="5.738394"><ele>486.882</ele><time>2022-09-17T14:48:44Z</time></trkpt><trkpt lat="49.976652" lon="5.738530"><ele>487.356</ele><time>2022-09-17T14:48:45Z</time></trkpt><trkpt lat="49.976743" lon="5.738675"><ele>487.673</ele><time>2022-09-17T14:48:46Z</time></trkpt><trkpt lat="49.976835" lon="5.738857"><ele>488.314</ele><time>2022-09-17T14:48:47Z</time></trkpt><trkpt lat="49.976916" lon="5.738991"><ele>488.454</ele><time>2022-09-17T14:48:48Z</time></trkpt><trkpt lat="49.976999" lon="5.739131"><ele>489.009</ele><time>2022-09-17T14:48:49Z</time></trkpt><trkpt lat="49.977086" lon="5.739261"><ele>489.509</ele><time>2022-09-17T14:48:50Z</time></trkpt><trkpt lat="49.977172" lon="5.739380"><ele>490.182</ele><time>2022-09-17T14:48:51Z</time></trkpt><trkpt lat="49.977257" lon="5.739464"><ele>490.552</ele><time>2022-09-17T14:48:52Z</time></trkpt><trkpt lat="49.977329" lon="5.739548"><ele>491.144</ele><time>2022-09-17T14:48:53Z</time></trkpt><trkpt lat="49.977399" lon="5.739650"><ele>491.650</ele><time>2022-09-17T14:48:54Z</time></trkpt><trkpt lat="49.977473" lon="5.739757"><ele>492.085</ele><time>2022-09-17T14:48:55Z</time></trkpt><trkpt lat="49.977542" lon="5.739857"><ele>492.030</ele><time>2022-09-17T14:48:56Z</time></trkpt><trkpt lat="49.977608" lon="5.739934"><ele>491.825</ele><time>2022-09-17T14:48:57Z</time></trkpt><trkpt lat="49.977673" lon="5.740022"><ele>491.849</ele><time>2022-09-17T14:48:58Z</time></trkpt><trkpt lat="49.977735" lon="5.740106"><ele>491.876</ele><time>2022-09-17T14:48:59Z</time></trkpt><trkpt lat="49.977800" lon="5.740204"><ele>491.892</ele><time>2022-09-17T14:49:00Z</time></trkpt><trkpt lat="49.977876" lon="5.740316"><ele>492.073</ele><time>2022-09-17T14:49:01Z</time></trkpt><trkpt lat="49.977950" lon="5.740397"><ele>492.020</ele><time>2022-09-17T14:49:02Z</time></trkpt><trkpt lat="49.978021" lon="5.740528"><ele>491.809</ele><time>2022-09-17T14:49:03Z</time></trkpt><trkpt lat="49.978094" lon="5.740655"><ele>491.540</ele><time>2022-09-17T14:49:04Z</time></trkpt><trkpt lat="49.978176" lon="5.740778"><ele>490.890</ele><time>2022-09-17T14:49:05Z</time></trkpt><trkpt lat="49.978258" lon="5.740897"><ele>490.272</ele><time>2022-09-17T14:49:06Z</time></trkpt><trkpt lat="49.978341" lon="5.741016"><ele>490.218</ele><time>2022-09-17T14:49:07Z</time></trkpt><trkpt lat="49.978422" lon="5.741149"><ele>490.563</ele><time>2022-09-17T14:49:08Z</time></trkpt><trkpt lat="49.978515" lon="5.741272"><ele>490.878</ele><time>2022-09-17T14:49:09Z</time></trkpt><trkpt lat="49.978605" lon="5.741389"><ele>491.133</ele><time>2022-09-17T14:49:10Z</time></trkpt><trkpt lat="49.978691" lon="5.741509"><ele>491.167</ele><time>2022-09-17T14:49:11Z</time></trkpt><trkpt lat="49.978773" lon="5.741631"><ele>491.034</ele><time>2022-09-17T14:49:12Z</time></trkpt><trkpt lat="49.978850" lon="5.741761"><ele>490.741</ele><time>2022-09-17T14:49:13Z</time></trkpt><trkpt lat="49.978923" lon="5.741892"><ele>490.581</ele><time>2022-09-17T14:49:14Z</time></trkpt><trkpt lat="49.978989" lon="5.742016"><ele>490.209</ele><time>2022-09-17T14:49:15Z</time></trkpt><trkpt lat="49.979041" lon="5.742148"><ele>490.209</ele><time>2022-09-17T14:49:16Z</time></trkpt><trkpt lat="49.979093" lon="5.742269"><ele>490.215</ele><time>2022-09-17T14:49:17Z</time></trkpt><trkpt lat="49.979152" lon="5.742393"><ele>490.185</ele><time>2022-09-17T14:49:18Z</time></trkpt><trkpt lat="49.979235" lon="5.742523"><ele>489.927</ele><time>2022-09-17T14:49:19Z</time></trkpt><trkpt lat="49.979290" lon="5.742664"><ele>489.963</ele><time>2022-09-17T14:49:20Z</time></trkpt><trkpt lat="49.979317" lon="5.742803"><ele>489.838</ele><time>2022-09-17T14:49:21Z</time></trkpt><trkpt lat="49.979356" lon="5.742936"><ele>489.683</ele><time>2022-09-17T14:49:22Z</time></trkpt><trkpt lat="49.979396" lon="5.743060"><ele>489.678</ele><time>2022-09-17T14:49:23Z</time></trkpt><trkpt lat="49.979449" lon="5.743208"><ele>489.452</ele><time>2022-09-17T14:49:24Z</time></trkpt><trkpt lat="49.979481" lon="5.743351"><ele>489.419</ele><time>2022-09-17T14:49:25Z</time></trkpt><trkpt lat="49.979521" lon="5.743487"><ele>489.685</ele><time>2022-09-17T14:49:26Z</time></trkpt><trkpt lat="49.979552" lon="5.743618"><ele>490.289</ele><time>2022-09-17T14:49:27Z</time></trkpt><trkpt lat="49.979598" lon="5.743756"><ele>490.417</ele><time>2022-09-17T14:49:28Z</time></trkpt><trkpt lat="49.979644" lon="5.743900"><ele>490.609</ele><time>2022-09-17T14:49:29Z</time></trkpt><trkpt lat="49.979688" lon="5.744022"><ele>490.739</ele><time>2022-09-17T14:49:30Z</time></trkpt><trkpt lat="49.979729" lon="5.744167"><ele>490.779</ele><time>2022-09-17T14:49:31Z</time></trkpt><trkpt lat="49.979769" lon="5.744303"><ele>490.691</ele><time>2022-09-17T14:49:32Z</time></trkpt><trkpt lat="49.979815" lon="5.744447"><ele>490.667</ele><time>2022-09-17T14:49:33Z</time></trkpt><trkpt lat="49.979857" lon="5.744582"><ele>490.632</ele><time>2022-09-17T14:49:34Z</time></trkpt><trkpt lat="49.979906" lon="5.744731"><ele>490.487</ele><time>2022-09-17T14:49:35Z</time></trkpt><trkpt lat="49.979945" lon="5.744882"><ele>490.112</ele><time>2022-09-17T14:49:36Z</time></trkpt><trkpt lat="49.979988" lon="5.745030"><ele>489.836</ele><time>2022-09-17T14:49:37Z</time></trkpt><trkpt lat="49.980025" lon="5.745185"><ele>489.683</ele><time>2022-09-17T14:49:38Z</time></trkpt><trkpt lat="49.980069" lon="5.745335"><ele>489.628</ele><time>2022-09-17T14:49:39Z</time></trkpt><trkpt lat="49.980101" lon="5.745490"><ele>490.289</ele><time>2022-09-17T14:49:40Z</time></trkpt><trkpt lat="49.980145" lon="5.745657"><ele>490.617</ele><time>2022-09-17T14:49:41Z</time></trkpt><trkpt lat="49.980182" lon="5.745822"><ele>490.809</ele><time>2022-09-17T14:49:42Z</time></trkpt><trkpt lat="49.980218" lon="5.745968"><ele>490.863</ele><time>2022-09-17T14:49:43Z</time></trkpt><trkpt lat="49.980250" lon="5.746090"><ele>490.883</ele><time>2022-09-17T14:49:44Z</time></trkpt><trkpt lat="49.980291" lon="5.746207"><ele>490.175</ele><time>2022-09-17T14:49:45Z</time></trkpt><trkpt lat="49.980330" lon="5.746299"><ele>489.971</ele><time>2022-09-17T14:49:46Z</time></trkpt><trkpt lat="49.980367" lon="5.746342"><ele>489.776</ele><time>2022-09-17T14:49:47Z</time></trkpt><trkpt lat="49.980396" lon="5.746406"><ele>489.671</ele><time>2022-09-17T14:49:49Z</time></trkpt><trkpt lat="49.980400" lon="5.746501"><ele>489.596</ele><time>2022-09-17T14:49:51Z</time></trkpt><trkpt lat="49.980383" lon="5.746579"><ele>489.480</ele><time>2022-09-17T14:49:52Z</time></trkpt><trkpt lat="49.980297" lon="5.746640"><ele>489.247</ele><time>2022-09-17T14:49:53Z</time></trkpt><trkpt lat="49.980169" lon="5.746650"><ele>489.271</ele><time>2022-09-17T14:49:54Z</time></trkpt><trkpt lat="49.980066" lon="5.746759"><ele>489.541</ele><time>2022-09-17T14:49:55Z</time></trkpt><trkpt lat="49.979969" lon="5.746862"><ele>489.815</ele><time>2022-09-17T14:49:56Z</time></trkpt><trkpt lat="49.979864" lon="5.746973"><ele>490.209</ele><time>2022-09-17T14:49:57Z</time></trkpt><trkpt lat="49.979757" lon="5.747086"><ele>490.648</ele><time>2022-09-17T14:49:58Z</time></trkpt><trkpt lat="49.979648" lon="5.747162"><ele>490.778</ele><time>2022-09-17T14:49:59Z</time></trkpt><trkpt lat="49.979542" lon="5.747214"><ele>490.780</ele><time>2022-09-17T14:50:00Z</time></trkpt><trkpt lat="49.979436" lon="5.747260"><ele>490.796</ele><time>2022-09-17T14:50:01Z</time></trkpt><trkpt lat="49.979348" lon="5.747293"><ele>490.481</ele><time>2022-09-17T14:50:02Z</time></trkpt><trkpt lat="49.979242" lon="5.747325"><ele>489.946</ele><time>2022-09-17T14:50:03Z</time></trkpt><trkpt lat="49.979137" lon="5.747352"><ele>489.431</ele><time>2022-09-17T14:50:04Z</time></trkpt><trkpt lat="49.979031" lon="5.747379"><ele>489.015</ele><time>2022-09-17T14:50:05Z</time></trkpt><trkpt lat="49.978924" lon="5.747406"><ele>488.512</ele><time>2022-09-17T14:50:06Z</time></trkpt><trkpt lat="49.978819" lon="5.747433"><ele>488.091</ele><time>2022-09-17T14:50:07Z</time></trkpt><trkpt lat="49.978714" lon="5.747484"><ele>487.581</ele><time>2022-09-17T14:50:08Z</time></trkpt><trkpt lat="49.978601" lon="5.747493"><ele>487.119</ele><time>2022-09-17T14:50:09Z</time></trkpt><trkpt lat="49.978495" lon="5.747513"><ele>486.609</ele><time>2022-09-17T14:50:10Z</time></trkpt><trkpt lat="49.978389" lon="5.747542"><ele>486.090</ele><time>2022-09-17T14:50:11Z</time></trkpt><trkpt lat="49.978280" lon="5.747582"><ele>485.490</ele><time>2022-09-17T14:50:12Z</time></trkpt><trkpt lat="49.978160" lon="5.747622"><ele>484.882</ele><time>2022-09-17T14:50:13Z</time></trkpt><trkpt lat="49.978035" lon="5.747654"><ele>484.098</ele><time>2022-09-17T14:50:14Z</time></trkpt><trkpt lat="49.977912" lon="5.747687"><ele>483.333</ele><time>2022-09-17T14:50:15Z</time></trkpt><trkpt lat="49.977779" lon="5.747697"><ele>482.618</ele><time>2022-09-17T14:50:16Z</time></trkpt><trkpt lat="49.977651" lon="5.747733"><ele>481.913</ele><time>2022-09-17T14:50:17Z</time></trkpt><trkpt lat="49.977523" lon="5.747773"><ele>481.247</ele><time>2022-09-17T14:50:18Z</time></trkpt><trkpt lat="49.977405" lon="5.747818"><ele>480.464</ele><time>2022-09-17T14:50:19Z</time></trkpt><trkpt lat="49.977297" lon="5.747862"><ele>479.523</ele><time>2022-09-17T14:50:20Z</time></trkpt><trkpt lat="49.977190" lon="5.747905"><ele>478.783</ele><time>2022-09-17T14:50:21Z</time></trkpt><trkpt lat="49.977089" lon="5.747956"><ele>478.111</ele><time>2022-09-17T14:50:22Z</time></trkpt><trkpt lat="49.976996" lon="5.747976"><ele>477.509</ele><time>2022-09-17T14:50:23Z</time></trkpt><trkpt lat="49.976922" lon="5.748011"><ele>476.913</ele><time>2022-09-17T14:50:24Z</time></trkpt><trkpt lat="49.976867" lon="5.748037"><ele>476.713</ele><time>2022-09-17T14:50:25Z</time></trkpt><trkpt lat="49.976815" lon="5.748062"><ele>476.335</ele><time>2022-09-17T14:50:26Z</time></trkpt><trkpt lat="49.976865" lon="5.748317"><ele>475.861</ele><time>2022-09-17T14:50:27Z</time></trkpt><trkpt lat="49.976890" lon="5.748433"><ele>475.676</ele><time>2022-09-17T14:50:28Z</time></trkpt><trkpt lat="49.976922" lon="5.748578"><ele>475.511</ele><time>2022-09-17T14:50:29Z</time></trkpt><trkpt lat="49.976970" lon="5.748771"><ele>475.536</ele><time>2022-09-17T14:50:30Z</time></trkpt><trkpt lat="49.977025" lon="5.749013"><ele>475.470</ele><time>2022-09-17T14:50:31Z</time></trkpt><trkpt lat="49.977068" lon="5.749247"><ele>475.117</ele><time>2022-09-17T14:50:32Z</time></trkpt><trkpt lat="49.977106" lon="5.749456"><ele>474.438</ele><time>2022-09-17T14:50:33Z</time></trkpt><trkpt lat="49.977138" lon="5.749637"><ele>473.970</ele><time>2022-09-17T14:50:34Z</time></trkpt><trkpt lat="49.977183" lon="5.749808"><ele>473.217</ele><time>2022-09-17T14:50:35Z</time></trkpt><trkpt lat="49.977223" lon="5.749973"><ele>472.509</ele><time>2022-09-17T14:50:36Z</time></trkpt><trkpt lat="49.977250" lon="5.750135"><ele>472.054</ele><time>2022-09-17T14:50:37Z</time></trkpt><trkpt lat="49.977296" lon="5.750287"><ele>472.054</ele><time>2022-09-17T14:50:38Z</time></trkpt><trkpt lat="49.977344" lon="5.750455"><ele>472.126</ele><time>2022-09-17T14:50:39Z</time></trkpt><trkpt lat="49.977388" lon="5.750627"><ele>472.522</ele><time>2022-09-17T14:50:40Z</time></trkpt><trkpt lat="49.977432" lon="5.750805"><ele>472.837</ele><time>2022-09-17T14:50:41Z</time></trkpt><trkpt lat="49.977480" lon="5.750983"><ele>472.832</ele><time>2022-09-17T14:50:42Z</time></trkpt><trkpt lat="49.977529" lon="5.751160"><ele>472.647</ele><time>2022-09-17T14:50:43Z</time></trkpt><trkpt lat="49.977576" lon="5.751337"><ele>472.411</ele><time>2022-09-17T14:50:44Z</time></trkpt><trkpt lat="49.977635" lon="5.751511"><ele>472.078</ele><time>2022-09-17T14:50:45Z</time></trkpt><trkpt lat="49.977682" lon="5.751682"><ele>471.435</ele><time>2022-09-17T14:50:46Z</time></trkpt><trkpt lat="49.977734" lon="5.751872"><ele>471.186</ele><time>2022-09-17T14:50:47Z</time></trkpt><trkpt lat="49.977788" lon="5.752067"><ele>470.714</ele><time>2022-09-17T14:50:48Z</time></trkpt><trkpt lat="49.977815" lon="5.752270"><ele>470.509</ele><time>2022-09-17T14:50:49Z</time></trkpt><trkpt lat="49.977864" lon="5.752458"><ele>470.414</ele><time>2022-09-17T14:50:50Z</time></trkpt><trkpt lat="49.977916" lon="5.752632"><ele>470.364</ele><time>2022-09-17T14:50:51Z</time></trkpt><trkpt lat="49.977967" lon="5.752799"><ele>470.226</ele><time>2022-09-17T14:50:52Z</time></trkpt><trkpt lat="49.978014" lon="5.752940"><ele>470.142</ele><time>2022-09-17T14:50:53Z</time></trkpt><trkpt lat="49.978068" lon="5.753103"><ele>470.037</ele><time>2022-09-17T14:50:54Z</time></trkpt><trkpt lat="49.978123" lon="5.753274"><ele>469.962</ele><time>2022-09-17T14:50:55Z</time></trkpt><trkpt lat="49.978177" lon="5.753439"><ele>469.877</ele><time>2022-09-17T14:50:56Z</time></trkpt><trkpt lat="49.978227" lon="5.753599"><ele>469.841</ele><time>2022-09-17T14:50:57Z</time></trkpt><trkpt lat="49.978277" lon="5.753769"><ele>469.998</ele><time>2022-09-17T14:50:58Z</time></trkpt><trkpt lat="49.978329" lon="5.753940"><ele>469.988</ele><time>2022-09-17T14:50:59Z</time></trkpt><trkpt lat="49.978378" lon="5.754129"><ele>470.224</ele><time>2022-09-17T14:51:00Z</time></trkpt><trkpt lat="49.978419" lon="5.754328"><ele>470.526</ele><time>2022-09-17T14:51:01Z</time></trkpt><trkpt lat="49.978466" lon="5.754531"><ele>470.509</ele><time>2022-09-17T14:51:02Z</time></trkpt><trkpt lat="49.978512" lon="5.754719"><ele>470.549</ele><time>2022-09-17T14:51:03Z</time></trkpt><trkpt lat="49.978551" lon="5.754891"><ele>470.579</ele><time>2022-09-17T14:51:04Z</time></trkpt><trkpt lat="49.978590" lon="5.755034"><ele>470.331</ele><time>2022-09-17T14:51:05Z</time></trkpt><trkpt lat="49.978621" lon="5.755172"><ele>470.317</ele><time>2022-09-17T14:51:06Z</time></trkpt><trkpt lat="49.978645" lon="5.755300"><ele>470.812</ele><time>2022-09-17T14:51:07Z</time></trkpt><trkpt lat="49.978679" lon="5.755403"><ele>471.067</ele><time>2022-09-17T14:51:08Z</time></trkpt><trkpt lat="49.978709" lon="5.755491"><ele>471.522</ele><time>2022-09-17T14:51:09Z</time></trkpt><trkpt lat="49.978738" lon="5.755551"><ele>472.016</ele><time>2022-09-17T14:51:10Z</time></trkpt><trkpt lat="49.978795" lon="5.755619"><ele>472.083</ele><time>2022-09-17T14:51:12Z</time></trkpt><trkpt lat="49.978840" lon="5.755724"><ele>472.281</ele><time>2022-09-17T14:52:44Z</time></trkpt><trkpt lat="49.978828" lon="5.755803"><ele>472.261</ele><time>2022-09-17T14:53:04Z</time></trkpt><trkpt lat="49.978787" lon="5.755667"><ele>472.417</ele><time>2022-09-17T14:56:07Z</time></trkpt><trkpt lat="49.978616" lon="5.755789"><ele>471.809</ele><time>2022-09-17T14:56:53Z</time></trkpt><trkpt lat="49.978724" lon="5.755854"><ele>472.139</ele><time>2022-09-17T14:57:28Z</time></trkpt><trkpt lat="49.978750" lon="5.755797"><ele>472.239</ele><time>2022-09-17T14:58:13Z</time></trkpt><trkpt lat="49.978799" lon="5.755785"><ele>472.421</ele><time>2022-09-17T14:58:16Z</time></trkpt><trkpt lat="49.978851" lon="5.755830"><ele>472.687</ele><time>2022-09-17T14:58:22Z</time></trkpt><trkpt lat="49.978779" lon="5.755850"><ele>472.652</ele><time>2022-09-17T14:58:26Z</time></trkpt><trkpt lat="49.978722" lon="5.755785"><ele>472.637</ele><time>2022-09-17T14:58:39Z</time></trkpt><trkpt lat="49.978728" lon="5.755698"><ele>472.612</ele><time>2022-09-17T14:59:06Z</time></trkpt><trkpt lat="49.978733" lon="5.755805"><ele>472.746</ele><time>2022-09-17T14:59:44Z</time></trkpt><trkpt lat="49.978682" lon="5.755702"><ele>472.813</ele><time>2022-09-17T15:00:51Z</time></trkpt><trkpt lat="49.978728" lon="5.755795"><ele>472.998</ele><time>2022-09-17T15:05:09Z</time></trkpt><trkpt lat="49.978737" lon="5.755685"><ele>472.915</ele><time>2022-09-17T15:05:38Z</time></trkpt><trkpt lat="49.978738" lon="5.755841"><ele>473.026</ele><time>2022-09-17T15:09:11Z</time></trkpt><trkpt lat="49.978778" lon="5.755965"><ele>473.309</ele><time>2022-09-17T15:09:13Z</time></trkpt><trkpt lat="49.978815" lon="5.756092"><ele>473.820</ele><time>2022-09-17T15:09:14Z</time></trkpt><trkpt lat="49.978847" lon="5.756227"><ele>473.860</ele><time>2022-09-17T15:09:15Z</time></trkpt><trkpt lat="49.978864" lon="5.756416"><ele>474.182</ele><time>2022-09-17T15:09:16Z</time></trkpt><trkpt lat="49.978851" lon="5.756638"><ele>474.528</ele><time>2022-09-17T15:09:17Z</time></trkpt><trkpt lat="49.978921" lon="5.756888"><ele>474.443</ele><time>2022-09-17T15:09:18Z</time></trkpt><trkpt lat="49.978989" lon="5.757091"><ele>474.068</ele><time>2022-09-17T15:09:19Z</time></trkpt><trkpt lat="49.979022" lon="5.757295"><ele>473.563</ele><time>2022-09-17T15:09:20Z</time></trkpt><trkpt lat="49.979053" lon="5.757505"><ele>472.977</ele><time>2022-09-17T15:09:21Z</time></trkpt><trkpt lat="49.979095" lon="5.757705"><ele>472.334</ele><time>2022-09-17T15:09:22Z</time></trkpt><trkpt lat="49.979110" lon="5.757895"><ele>472.034</ele><time>2022-09-17T15:09:23Z</time></trkpt><trkpt lat="49.979131" lon="5.758077"><ele>472.055</ele><time>2022-09-17T15:09:24Z</time></trkpt><trkpt lat="49.979134" lon="5.758263"><ele>472.010</ele><time>2022-09-17T15:09:25Z</time></trkpt><trkpt lat="49.979130" lon="5.758441"><ele>471.809</ele><time>2022-09-17T15:09:26Z</time></trkpt><trkpt lat="49.979107" lon="5.758620"><ele>471.894</ele><time>2022-09-17T15:09:27Z</time></trkpt><trkpt lat="49.979090" lon="5.758799"><ele>471.694</ele><time>2022-09-17T15:09:28Z</time></trkpt><trkpt lat="49.979037" lon="5.759008"><ele>471.626</ele><time>2022-09-17T15:09:29Z</time></trkpt><trkpt lat="49.979011" lon="5.759215"><ele>472.362</ele><time>2022-09-17T15:09:30Z</time></trkpt><trkpt lat="49.978995" lon="5.759410"><ele>472.747</ele><time>2022-09-17T15:09:31Z</time></trkpt><trkpt lat="49.978969" lon="5.759605"><ele>473.262</ele><time>2022-09-17T15:09:32Z</time></trkpt><trkpt lat="49.978946" lon="5.759835"><ele>473.177</ele><time>2022-09-17T15:09:33Z</time></trkpt><trkpt lat="49.978920" lon="5.760040"><ele>472.821</ele><time>2022-09-17T15:09:34Z</time></trkpt><trkpt lat="49.978864" lon="5.760249"><ele>472.188</ele><time>2022-09-17T15:09:35Z</time></trkpt><trkpt lat="49.978821" lon="5.760443"><ele>471.394</ele><time>2022-09-17T15:09:36Z</time></trkpt><trkpt lat="49.978785" lon="5.760658"><ele>470.757</ele><time>2022-09-17T15:09:37Z</time></trkpt><trkpt lat="49.978745" lon="5.760879"><ele>470.422</ele><time>2022-09-17T15:09:38Z</time></trkpt><trkpt lat="49.978711" lon="5.761083"><ele>470.109</ele><time>2022-09-17T15:09:39Z</time></trkpt><trkpt lat="49.978672" lon="5.761276"><ele>470.010</ele><time>2022-09-17T15:09:40Z</time></trkpt><trkpt lat="49.978629" lon="5.761462"><ele>469.960</ele><time>2022-09-17T15:09:41Z</time></trkpt><trkpt lat="49.978597" lon="5.761650"><ele>469.992</ele><time>2022-09-17T15:09:42Z</time></trkpt><trkpt lat="49.978566" lon="5.761833"><ele>469.958</ele><time>2022-09-17T15:09:43Z</time></trkpt><trkpt lat="49.978522" lon="5.762018"><ele>469.823</ele><time>2022-09-17T15:09:44Z</time></trkpt><trkpt lat="49.978480" lon="5.762171"><ele>469.478</ele><time>2022-09-17T15:09:45Z</time></trkpt><trkpt lat="49.978444" lon="5.762344"><ele>469.073</ele><time>2022-09-17T15:09:46Z</time></trkpt><trkpt lat="49.978403" lon="5.762526"><ele>468.637</ele><time>2022-09-17T15:09:47Z</time></trkpt><trkpt lat="49.978374" lon="5.762709"><ele>468.354</ele><time>2022-09-17T15:09:48Z</time></trkpt><trkpt lat="49.978359" lon="5.762872"><ele>468.326</ele><time>2022-09-17T15:09:49Z</time></trkpt><trkpt lat="49.978339" lon="5.763008"><ele>468.347</ele><time>2022-09-17T15:09:50Z</time></trkpt><trkpt lat="49.978330" lon="5.763121"><ele>468.311</ele><time>2022-09-17T15:09:51Z</time></trkpt><trkpt lat="49.978342" lon="5.763226"><ele>468.309</ele><time>2022-09-17T15:09:52Z</time></trkpt><trkpt lat="49.978372" lon="5.763338"><ele>468.573</ele><time>2022-09-17T15:09:53Z</time></trkpt><trkpt lat="49.978426" lon="5.763457"><ele>468.753</ele><time>2022-09-17T15:09:54Z</time></trkpt><trkpt lat="49.978433" lon="5.763616"><ele>468.875</ele><time>2022-09-17T15:09:55Z</time></trkpt><trkpt lat="49.978513" lon="5.763706"><ele>469.081</ele><time>2022-09-17T15:09:56Z</time></trkpt><trkpt lat="49.978597" lon="5.763773"><ele>469.086</ele><time>2022-09-17T15:09:57Z</time></trkpt><trkpt lat="49.978689" lon="5.763829"><ele>468.281</ele><time>2022-09-17T15:09:58Z</time></trkpt><trkpt lat="49.978804" lon="5.763875"><ele>467.126</ele><time>2022-09-17T15:09:59Z</time></trkpt><trkpt lat="49.978912" lon="5.763933"><ele>466.210</ele><time>2022-09-17T15:10:00Z</time></trkpt><trkpt lat="49.979015" lon="5.763970"><ele>465.037</ele><time>2022-09-17T15:10:01Z</time></trkpt><trkpt lat="49.979114" lon="5.763993"><ele>464.071</ele><time>2022-09-17T15:10:02Z</time></trkpt><trkpt lat="49.979209" lon="5.764026"><ele>463.441</ele><time>2022-09-17T15:10:03Z</time></trkpt><trkpt lat="49.979280" lon="5.764053"><ele>463.115</ele><time>2022-09-17T15:10:04Z</time></trkpt><trkpt lat="49.979338" lon="5.764084"><ele>463.109</ele><time>2022-09-17T15:10:05Z</time></trkpt><trkpt lat="49.979389" lon="5.764152"><ele>463.118</ele><time>2022-09-17T15:10:06Z</time></trkpt><trkpt lat="49.979456" lon="5.764190"><ele>463.298</ele><time>2022-09-17T15:10:07Z</time></trkpt><trkpt lat="49.979506" lon="5.764270"><ele>463.570</ele><time>2022-09-17T15:10:08Z</time></trkpt><trkpt lat="49.979544" lon="5.764371"><ele>463.816</ele><time>2022-09-17T15:10:09Z</time></trkpt><trkpt lat="49.979568" lon="5.764491"><ele>464.191</ele><time>2022-09-17T15:10:10Z</time></trkpt><trkpt lat="49.979603" lon="5.764634"><ele>464.476</ele><time>2022-09-17T15:10:11Z</time></trkpt><trkpt lat="49.979611" lon="5.764779"><ele>464.781</ele><time>2022-09-17T15:10:12Z</time></trkpt><trkpt lat="49.979613" lon="5.764916"><ele>464.845</ele><time>2022-09-17T15:10:13Z</time></trkpt><trkpt lat="49.979611" lon="5.765078"><ele>465.182</ele><time>2022-09-17T15:10:14Z</time></trkpt><trkpt lat="49.979603" lon="5.765223"><ele>465.137</ele><time>2022-09-17T15:10:15Z</time></trkpt><trkpt lat="49.979589" lon="5.765345"><ele>465.049</ele><time>2022-09-17T15:10:16Z</time></trkpt><trkpt lat="49.979585" lon="5.765469"><ele>465.013</ele><time>2022-09-17T15:10:17Z</time></trkpt><trkpt lat="49.979583" lon="5.765587"><ele>464.909</ele><time>2022-09-17T15:10:18Z</time></trkpt><trkpt lat="49.979596" lon="5.765681"><ele>464.794</ele><time>2022-09-17T15:10:19Z</time></trkpt><trkpt lat="49.979592" lon="5.765766"><ele>464.674</ele><time>2022-09-17T15:10:20Z</time></trkpt><trkpt lat="49.979576" lon="5.765841"><ele>464.636</ele><time>2022-09-17T15:10:21Z</time></trkpt><trkpt lat="49.979553" lon="5.765937"><ele>464.652</ele><time>2022-09-17T15:10:22Z</time></trkpt><trkpt lat="49.979517" lon="5.766037"><ele>464.657</ele><time>2022-09-17T15:10:23Z</time></trkpt><trkpt lat="49.979458" lon="5.766165"><ele>464.562</ele><time>2022-09-17T15:10:24Z</time></trkpt><trkpt lat="49.979403" lon="5.766328"><ele>464.557</ele><time>2022-09-17T15:10:25Z</time></trkpt><trkpt lat="49.979361" lon="5.766510"><ele>464.731</ele><time>2022-09-17T15:10:26Z</time></trkpt><trkpt lat="49.979298" lon="5.766676"><ele>464.888</ele><time>2022-09-17T15:10:27Z</time></trkpt><trkpt lat="49.979260" lon="5.766863"><ele>465.391</ele><time>2022-09-17T15:10:28Z</time></trkpt><trkpt lat="49.979229" lon="5.767058"><ele>465.381</ele><time>2022-09-17T15:10:29Z</time></trkpt><trkpt lat="49.979205" lon="5.767269"><ele>465.519</ele><time>2022-09-17T15:10:30Z</time></trkpt><trkpt lat="49.979191" lon="5.767477"><ele>465.609</ele><time>2022-09-17T15:10:31Z</time></trkpt><trkpt lat="49.979186" lon="5.767703"><ele>465.740</ele><time>2022-09-17T15:10:32Z</time></trkpt><trkpt lat="49.979187" lon="5.767961"><ele>465.770</ele><time>2022-09-17T15:10:33Z</time></trkpt><trkpt lat="49.979187" lon="5.768252"><ele>465.832</ele><time>2022-09-17T15:10:34Z</time></trkpt><trkpt lat="49.979189" lon="5.768536"><ele>466.018</ele><time>2022-09-17T15:10:35Z</time></trkpt><trkpt lat="49.979190" lon="5.768818"><ele>466.593</ele><time>2022-09-17T15:10:36Z</time></trkpt><trkpt lat="49.979190" lon="5.769095"><ele>467.268</ele><time>2022-09-17T15:10:37Z</time></trkpt><trkpt lat="49.979190" lon="5.769365"><ele>467.983</ele><time>2022-09-17T15:10:38Z</time></trkpt><trkpt lat="49.979190" lon="5.769626"><ele>468.477</ele><time>2022-09-17T15:10:39Z</time></trkpt><trkpt lat="49.979190" lon="5.769891"><ele>468.544</ele><time>2022-09-17T15:10:40Z</time></trkpt><trkpt lat="49.979191" lon="5.770151"><ele>468.431</ele><time>2022-09-17T15:10:41Z</time></trkpt><trkpt lat="49.979191" lon="5.770402"><ele>468.361</ele><time>2022-09-17T15:10:42Z</time></trkpt><trkpt lat="49.979191" lon="5.770659"><ele>468.407</ele><time>2022-09-17T15:10:43Z</time></trkpt><trkpt lat="49.979191" lon="5.770917"><ele>468.709</ele><time>2022-09-17T15:10:44Z</time></trkpt><trkpt lat="49.979193" lon="5.771170"><ele>469.184</ele><time>2022-09-17T15:10:45Z</time></trkpt><trkpt lat="49.979195" lon="5.771422"><ele>469.574</ele><time>2022-09-17T15:10:46Z</time></trkpt><trkpt lat="49.979197" lon="5.771674"><ele>469.726</ele><time>2022-09-17T15:10:47Z</time></trkpt><trkpt lat="49.979199" lon="5.771920"><ele>469.922</ele><time>2022-09-17T15:10:48Z</time></trkpt><trkpt lat="49.979201" lon="5.772168"><ele>470.057</ele><time>2022-09-17T15:10:49Z</time></trkpt><trkpt lat="49.979202" lon="5.772403"><ele>470.082</ele><time>2022-09-17T15:10:50Z</time></trkpt><trkpt lat="49.979203" lon="5.772645"><ele>469.727</ele><time>2022-09-17T15:10:51Z</time></trkpt><trkpt lat="49.979204" lon="5.772897"><ele>469.411</ele><time>2022-09-17T15:10:52Z</time></trkpt><trkpt lat="49.979205" lon="5.773170"><ele>469.448</ele><time>2022-09-17T15:10:53Z</time></trkpt><trkpt lat="49.979207" lon="5.773439"><ele>469.585</ele><time>2022-09-17T15:10:54Z</time></trkpt><trkpt lat="49.979208" lon="5.773705"><ele>470.189</ele><time>2022-09-17T15:10:55Z</time></trkpt><trkpt lat="49.979209" lon="5.773965"><ele>471.317</ele><time>2022-09-17T15:10:56Z</time></trkpt><trkpt lat="49.979211" lon="5.774217"><ele>472.409</ele><time>2022-09-17T15:10:57Z</time></trkpt><trkpt lat="49.979212" lon="5.774474"><ele>472.939</ele><time>2022-09-17T15:10:58Z</time></trkpt><trkpt lat="49.979214" lon="5.774729"><ele>473.169</ele><time>2022-09-17T15:10:59Z</time></trkpt><trkpt lat="49.979216" lon="5.774980"><ele>473.331</ele><time>2022-09-17T15:11:00Z</time></trkpt><trkpt lat="49.979217" lon="5.775232"><ele>473.587</ele><time>2022-09-17T15:11:01Z</time></trkpt><trkpt lat="49.979219" lon="5.775472"><ele>473.982</ele><time>2022-09-17T15:11:02Z</time></trkpt><trkpt lat="49.979221" lon="5.775700"><ele>474.777</ele><time>2022-09-17T15:11:03Z</time></trkpt><trkpt lat="49.979223" lon="5.775941"><ele>475.622</ele><time>2022-09-17T15:11:04Z</time></trkpt><trkpt lat="49.979224" lon="5.776182"><ele>476.216</ele><time>2022-09-17T15:11:05Z</time></trkpt><trkpt lat="49.979241" lon="5.776425"><ele>476.563</ele><time>2022-09-17T15:11:06Z</time></trkpt><trkpt lat="49.979239" lon="5.776663"><ele>476.865</ele><time>2022-09-17T15:11:07Z</time></trkpt><trkpt lat="49.979237" lon="5.776899"><ele>477.068</ele><time>2022-09-17T15:11:08Z</time></trkpt><trkpt lat="49.979238" lon="5.777144"><ele>477.214</ele><time>2022-09-17T15:11:09Z</time></trkpt><trkpt lat="49.979239" lon="5.777386"><ele>477.509</ele><time>2022-09-17T15:11:10Z</time></trkpt><trkpt lat="49.979240" lon="5.777631"><ele>477.917</ele><time>2022-09-17T15:11:11Z</time></trkpt><trkpt lat="49.979238" lon="5.777872"><ele>478.317</ele><time>2022-09-17T15:11:12Z</time></trkpt><trkpt lat="49.979241" lon="5.778115"><ele>478.619</ele><time>2022-09-17T15:11:13Z</time></trkpt><trkpt lat="49.979200" lon="5.778365"><ele>478.885</ele><time>2022-09-17T15:11:14Z</time></trkpt><trkpt lat="49.979202" lon="5.778616"><ele>479.020</ele><time>2022-09-17T15:11:15Z</time></trkpt><trkpt lat="49.979203" lon="5.778868"><ele>479.245</ele><time>2022-09-17T15:11:16Z</time></trkpt><trkpt lat="49.979212" lon="5.779122"><ele>479.520</ele><time>2022-09-17T15:11:17Z</time></trkpt><trkpt lat="49.979231" lon="5.779376"><ele>480.034</ele><time>2022-09-17T15:11:18Z</time></trkpt><trkpt lat="49.979258" lon="5.779626"><ele>480.551</ele><time>2022-09-17T15:11:19Z</time></trkpt><trkpt lat="49.979302" lon="5.779865"><ele>481.217</ele><time>2022-09-17T15:11:20Z</time></trkpt><trkpt lat="49.979356" lon="5.780103"><ele>482.087</ele><time>2022-09-17T15:11:21Z</time></trkpt><trkpt lat="49.979417" lon="5.780337"><ele>482.815</ele><time>2022-09-17T15:11:22Z</time></trkpt><trkpt lat="49.979486" lon="5.780570"><ele>483.609</ele><time>2022-09-17T15:11:23Z</time></trkpt><trkpt lat="49.979558" lon="5.780806"><ele>484.572</ele><time>2022-09-17T15:11:24Z</time></trkpt><trkpt lat="49.979635" lon="5.781044"><ele>485.392</ele><time>2022-09-17T15:11:25Z</time></trkpt><trkpt lat="49.979715" lon="5.781281"><ele>486.144</ele><time>2022-09-17T15:11:26Z</time></trkpt><trkpt lat="49.979793" lon="5.781514"><ele>487.020</ele><time>2022-09-17T15:11:27Z</time></trkpt><trkpt lat="49.979872" lon="5.781750"><ele>487.475</ele><time>2022-09-17T15:11:28Z</time></trkpt><trkpt lat="49.979945" lon="5.781980"><ele>487.480</ele><time>2022-09-17T15:11:29Z</time></trkpt><trkpt lat="49.980024" lon="5.782210"><ele>487.745</ele><time>2022-09-17T15:11:30Z</time></trkpt><trkpt lat="49.980100" lon="5.782439"><ele>488.199</ele><time>2022-09-17T15:11:31Z</time></trkpt><trkpt lat="49.980178" lon="5.782670"><ele>488.496</ele><time>2022-09-17T15:11:32Z</time></trkpt><trkpt lat="49.980249" lon="5.782909"><ele>489.098</ele><time>2022-09-17T15:11:33Z</time></trkpt><trkpt lat="49.980323" lon="5.783138"><ele>490.315</ele><time>2022-09-17T15:11:34Z</time></trkpt><trkpt lat="49.980401" lon="5.783369"><ele>491.526</ele><time>2022-09-17T15:11:35Z</time></trkpt><trkpt lat="49.980473" lon="5.783606"><ele>492.409</ele><time>2022-09-17T15:11:36Z</time></trkpt><trkpt lat="49.980546" lon="5.783837"><ele>493.690</ele><time>2022-09-17T15:11:37Z</time></trkpt><trkpt lat="49.980620" lon="5.784065"><ele>494.890</ele><time>2022-09-17T15:11:38Z</time></trkpt><trkpt lat="49.980694" lon="5.784299"><ele>495.892</ele><time>2022-09-17T15:11:39Z</time></trkpt><trkpt lat="49.980768" lon="5.784531"><ele>496.548</ele><time>2022-09-17T15:11:40Z</time></trkpt><trkpt lat="49.980843" lon="5.784753"><ele>496.833</ele><time>2022-09-17T15:11:41Z</time></trkpt><trkpt lat="49.980921" lon="5.784979"><ele>497.148</ele><time>2022-09-17T15:11:42Z</time></trkpt><trkpt lat="49.980998" lon="5.785206"><ele>497.793</ele><time>2022-09-17T15:11:43Z</time></trkpt><trkpt lat="49.981080" lon="5.785433"><ele>498.567</ele><time>2022-09-17T15:11:44Z</time></trkpt><trkpt lat="49.981152" lon="5.785657"><ele>499.814</ele><time>2022-09-17T15:11:45Z</time></trkpt><trkpt lat="49.981214" lon="5.785893"><ele>501.512</ele><time>2022-09-17T15:11:46Z</time></trkpt><trkpt lat="49.981288" lon="5.786121"><ele>502.932</ele><time>2022-09-17T15:11:47Z</time></trkpt><trkpt lat="49.981358" lon="5.786343"><ele>504.005</ele><time>2022-09-17T15:11:48Z</time></trkpt><trkpt lat="49.981430" lon="5.786572"><ele>505.109</ele><time>2022-09-17T15:11:49Z</time></trkpt><trkpt lat="49.981502" lon="5.786799"><ele>505.912</ele><time>2022-09-17T15:11:50Z</time></trkpt><trkpt lat="49.981575" lon="5.787023"><ele>506.712</ele><time>2022-09-17T15:11:51Z</time></trkpt><trkpt lat="49.981640" lon="5.787221"><ele>507.724</ele><time>2022-09-17T15:11:52Z</time></trkpt><trkpt lat="49.981698" lon="5.787398"><ele>508.680</ele><time>2022-09-17T15:11:53Z</time></trkpt><trkpt lat="49.981750" lon="5.787559"><ele>509.025</ele><time>2022-09-17T15:11:54Z</time></trkpt><trkpt lat="49.981801" lon="5.787720"><ele>509.550</ele><time>2022-09-17T15:11:55Z</time></trkpt><trkpt lat="49.981845" lon="5.787858"><ele>510.185</ele><time>2022-09-17T15:11:56Z</time></trkpt><trkpt lat="49.981877" lon="5.787959"><ele>510.519</ele><time>2022-09-17T15:11:57Z</time></trkpt><trkpt lat="49.982000" lon="5.787897"><ele>510.586</ele><time>2022-09-17T15:12:03Z</time></trkpt><trkpt lat="49.982075" lon="5.787840"><ele>510.767</ele><time>2022-09-17T15:12:05Z</time></trkpt><trkpt lat="49.982140" lon="5.787804"><ele>510.781</ele><time>2022-09-17T15:12:06Z</time></trkpt><trkpt lat="49.982212" lon="5.787764"><ele>510.619</ele><time>2022-09-17T15:12:07Z</time></trkpt><trkpt lat="49.982293" lon="5.787711"><ele>510.409</ele><time>2022-09-17T15:12:08Z</time></trkpt><trkpt lat="49.982400" lon="5.787645"><ele>510.367</ele><time>2022-09-17T15:12:09Z</time></trkpt><trkpt lat="49.982513" lon="5.787562"><ele>510.287</ele><time>2022-09-17T15:12:10Z</time></trkpt><trkpt lat="49.982610" lon="5.787489"><ele>510.219</ele><time>2022-09-17T15:12:11Z</time></trkpt><trkpt lat="49.982706" lon="5.787418"><ele>510.115</ele><time>2022-09-17T15:12:12Z</time></trkpt><trkpt lat="49.982792" lon="5.787348"><ele>509.210</ele><time>2022-09-17T15:12:13Z</time></trkpt><trkpt lat="49.982883" lon="5.787279"><ele>508.625</ele><time>2022-09-17T15:12:14Z</time></trkpt><trkpt lat="49.982989" lon="5.787206"><ele>507.850</ele><time>2022-09-17T15:12:15Z</time></trkpt><trkpt lat="49.983089" lon="5.787132"><ele>506.944</ele><time>2022-09-17T15:12:16Z</time></trkpt><trkpt lat="49.983190" lon="5.787056"><ele>506.251</ele><time>2022-09-17T15:12:17Z</time></trkpt><trkpt lat="49.983286" lon="5.786982"><ele>506.054</ele><time>2022-09-17T15:12:18Z</time></trkpt><trkpt lat="49.983379" lon="5.786906"><ele>505.556</ele><time>2022-09-17T15:12:19Z</time></trkpt><trkpt lat="49.983476" lon="5.786832"><ele>505.411</ele><time>2022-09-17T15:12:20Z</time></trkpt><trkpt lat="49.983569" lon="5.786762"><ele>505.409</ele><time>2022-09-17T15:12:21Z</time></trkpt><trkpt lat="49.983663" lon="5.786692"><ele>505.436</ele><time>2022-09-17T15:12:22Z</time></trkpt><trkpt lat="49.983753" lon="5.786634"><ele>505.586</ele><time>2022-09-17T15:12:23Z</time></trkpt><trkpt lat="49.983847" lon="5.786572"><ele>506.068</ele><time>2022-09-17T15:12:24Z</time></trkpt><trkpt lat="49.983927" lon="5.786504"><ele>506.344</ele><time>2022-09-17T15:12:25Z</time></trkpt><trkpt lat="49.984008" lon="5.786431"><ele>506.589</ele><time>2022-09-17T15:12:26Z</time></trkpt><trkpt lat="49.984085" lon="5.786346"><ele>506.714</ele><time>2022-09-17T15:12:27Z</time></trkpt><trkpt lat="49.984152" lon="5.786272"><ele>506.939</ele><time>2022-09-17T15:12:28Z</time></trkpt><trkpt lat="49.984226" lon="5.786184"><ele>506.943</ele><time>2022-09-17T15:12:29Z</time></trkpt><trkpt lat="49.984300" lon="5.786097"><ele>506.980</ele><time>2022-09-17T15:12:30Z</time></trkpt><trkpt lat="49.984365" lon="5.786015"><ele>506.531</ele><time>2022-09-17T15:12:31Z</time></trkpt><trkpt lat="49.984442" lon="5.785929"><ele>506.061</ele><time>2022-09-17T15:12:32Z</time></trkpt><trkpt lat="49.984522" lon="5.785861"><ele>505.407</ele><time>2022-09-17T15:12:33Z</time></trkpt><trkpt lat="49.984604" lon="5.785784"><ele>504.709</ele><time>2022-09-17T15:12:34Z</time></trkpt><trkpt lat="49.984689" lon="5.785718"><ele>504.364</ele><time>2022-09-17T15:12:35Z</time></trkpt><trkpt lat="49.984775" lon="5.785663"><ele>504.124</ele><time>2022-09-17T15:12:36Z</time></trkpt><trkpt lat="49.984861" lon="5.785622"><ele>503.916</ele><time>2022-09-17T15:12:37Z</time></trkpt><trkpt lat="49.984937" lon="5.785588"><ele>503.722</ele><time>2022-09-17T15:12:38Z</time></trkpt><trkpt lat="49.985009" lon="5.785563"><ele>503.287</ele><time>2022-09-17T15:12:39Z</time></trkpt><trkpt lat="49.985075" lon="5.785552"><ele>502.682</ele><time>2022-09-17T15:12:40Z</time></trkpt><trkpt lat="49.985141" lon="5.785565"><ele>501.857</ele><time>2022-09-17T15:12:41Z</time></trkpt><trkpt lat="49.985203" lon="5.785598"><ele>501.091</ele><time>2022-09-17T15:12:42Z</time></trkpt><trkpt lat="49.985256" lon="5.785659"><ele>500.618</ele><time>2022-09-17T15:12:43Z</time></trkpt><trkpt lat="49.985296" lon="5.785741"><ele>500.018</ele><time>2022-09-17T15:12:44Z</time></trkpt><trkpt lat="49.985340" lon="5.785844"><ele>499.198</ele><time>2022-09-17T15:12:45Z</time></trkpt><trkpt lat="49.985375" lon="5.785949"><ele>498.717</ele><time>2022-09-17T15:12:46Z</time></trkpt><trkpt lat="49.985418" lon="5.786071"><ele>498.409</ele><time>2022-09-17T15:12:47Z</time></trkpt><trkpt lat="49.985464" lon="5.786190"><ele>498.242</ele><time>2022-09-17T15:12:48Z</time></trkpt><trkpt lat="49.985516" lon="5.786311"><ele>498.112</ele><time>2022-09-17T15:12:49Z</time></trkpt><trkpt lat="49.985581" lon="5.786431"><ele>498.324</ele><time>2022-09-17T15:12:50Z</time></trkpt><trkpt lat="49.985629" lon="5.786555"><ele>498.360</ele><time>2022-09-17T15:12:51Z</time></trkpt><trkpt lat="49.985697" lon="5.786693"><ele>498.275</ele><time>2022-09-17T15:12:52Z</time></trkpt><trkpt lat="49.985773" lon="5.786815"><ele>497.950</ele><time>2022-09-17T15:12:53Z</time></trkpt><trkpt lat="49.985852" lon="5.786921"><ele>497.685</ele><time>2022-09-17T15:12:54Z</time></trkpt><trkpt lat="49.985919" lon="5.787026"><ele>496.889</ele><time>2022-09-17T15:12:55Z</time></trkpt><trkpt lat="49.985984" lon="5.787136"><ele>495.816</ele><time>2022-09-17T15:12:56Z</time></trkpt><trkpt lat="49.986031" lon="5.787274"><ele>494.962</ele><time>2022-09-17T15:12:57Z</time></trkpt><trkpt lat="49.986078" lon="5.787428"><ele>494.283</ele><time>2022-09-17T15:12:58Z</time></trkpt><trkpt lat="49.986127" lon="5.787576"><ele>493.211</ele><time>2022-09-17T15:12:59Z</time></trkpt><trkpt lat="49.986183" lon="5.787720"><ele>492.209</ele><time>2022-09-17T15:13:00Z</time></trkpt><trkpt lat="49.986242" lon="5.787858"><ele>491.347</ele><time>2022-09-17T15:13:01Z</time></trkpt><trkpt lat="49.986297" lon="5.788009"><ele>490.317</ele><time>2022-09-17T15:13:02Z</time></trkpt><trkpt lat="49.986353" lon="5.788170"><ele>489.339</ele><time>2022-09-17T15:13:03Z</time></trkpt><trkpt lat="49.986404" lon="5.788349"><ele>488.475</ele><time>2022-09-17T15:13:04Z</time></trkpt><trkpt lat="49.986457" lon="5.788504"><ele>487.570</ele><time>2022-09-17T15:13:05Z</time></trkpt><trkpt lat="49.986510" lon="5.788652"><ele>486.975</ele><time>2022-09-17T15:13:06Z</time></trkpt><trkpt lat="49.986549" lon="5.788793"><ele>486.380</ele><time>2022-09-17T15:13:07Z</time></trkpt><trkpt lat="49.986590" lon="5.788931"><ele>485.654</ele><time>2022-09-17T15:13:08Z</time></trkpt><trkpt lat="49.986629" lon="5.789056"><ele>484.781</ele><time>2022-09-17T15:13:09Z</time></trkpt><trkpt lat="49.986667" lon="5.789162"><ele>484.326</ele><time>2022-09-17T15:13:10Z</time></trkpt><trkpt lat="49.986692" lon="5.789238"><ele>483.547</ele><time>2022-09-17T15:13:11Z</time></trkpt><trkpt lat="49.986737" lon="5.789335"><ele>482.711</ele><time>2022-09-17T15:13:13Z</time></trkpt><trkpt lat="49.986788" lon="5.789326"><ele>482.309</ele><time>2022-09-17T15:13:15Z</time></trkpt><trkpt lat="49.986823" lon="5.789274"><ele>481.553</ele><time>2022-09-17T15:13:16Z</time></trkpt><trkpt lat="49.986862" lon="5.789203"><ele>480.823</ele><time>2022-09-17T15:13:17Z</time></trkpt><trkpt lat="49.986932" lon="5.789105"><ele>480.415</ele><time>2022-09-17T15:13:18Z</time></trkpt><trkpt lat="49.987081" lon="5.788872"><ele>480.361</ele><time>2022-09-17T15:13:19Z</time></trkpt><trkpt lat="49.987176" lon="5.788769"><ele>480.426</ele><time>2022-09-17T15:13:20Z</time></trkpt><trkpt lat="49.987275" lon="5.788700"><ele>480.441</ele><time>2022-09-17T15:13:21Z</time></trkpt><trkpt lat="49.987356" lon="5.788595"><ele>480.436</ele><time>2022-09-17T15:13:22Z</time></trkpt><trkpt lat="49.987429" lon="5.788496"><ele>480.490</ele><time>2022-09-17T15:13:23Z</time></trkpt><trkpt lat="49.987509" lon="5.788411"><ele>479.787</ele><time>2022-09-17T15:13:24Z</time></trkpt><trkpt lat="49.987564" lon="5.788318"><ele>478.672</ele><time>2022-09-17T15:13:25Z</time></trkpt><trkpt lat="49.987641" lon="5.788272"><ele>478.113</ele><time>2022-09-17T15:13:26Z</time></trkpt><trkpt lat="49.987733" lon="5.788237"><ele>477.114</ele><time>2022-09-17T15:13:27Z</time></trkpt><trkpt lat="49.987823" lon="5.788201"><ele>475.309</ele><time>2022-09-17T15:13:28Z</time></trkpt><trkpt lat="49.987902" lon="5.788163"><ele>474.068</ele><time>2022-09-17T15:13:29Z</time></trkpt><trkpt lat="49.987985" lon="5.788097"><ele>473.618</ele><time>2022-09-17T15:13:30Z</time></trkpt><trkpt lat="49.988082" lon="5.788046"><ele>472.280</ele><time>2022-09-17T15:13:31Z</time></trkpt><trkpt lat="49.988177" lon="5.787997"><ele>471.086</ele><time>2022-09-17T15:13:32Z</time></trkpt><trkpt lat="49.988270" lon="5.787948"><ele>470.151</ele><time>2022-09-17T15:13:33Z</time></trkpt><trkpt lat="49.988361" lon="5.787892"><ele>469.266</ele><time>2022-09-17T15:13:34Z</time></trkpt><trkpt lat="49.988442" lon="5.787836"><ele>468.171</ele><time>2022-09-17T15:13:35Z</time></trkpt><trkpt lat="49.988506" lon="5.787784"><ele>467.695</ele><time>2022-09-17T15:13:36Z</time></trkpt><trkpt lat="49.988556" lon="5.787710"><ele>466.822</ele><time>2022-09-17T15:13:38Z</time></trkpt><trkpt lat="49.988589" lon="5.787660"><ele>466.247</ele><time>2022-09-17T15:13:39Z</time></trkpt><trkpt lat="49.988647" lon="5.787630"><ele>465.929</ele><time>2022-09-17T15:13:40Z</time></trkpt><trkpt lat="49.988710" lon="5.787644"><ele>465.521</ele><time>2022-09-17T15:13:41Z</time></trkpt><trkpt lat="49.988791" lon="5.787652"><ele>465.309</ele><time>2022-09-17T15:13:42Z</time></trkpt><trkpt lat="49.988877" lon="5.787638"><ele>464.185</ele><time>2022-09-17T15:13:43Z</time></trkpt><trkpt lat="49.988978" lon="5.787616"><ele>463.385</ele><time>2022-09-17T15:13:44Z</time></trkpt><trkpt lat="49.989076" lon="5.787609"><ele>462.247</ele><time>2022-09-17T15:13:45Z</time></trkpt><trkpt lat="49.989180" lon="5.787586"><ele>461.143</ele><time>2022-09-17T15:13:46Z</time></trkpt><trkpt lat="49.989297" lon="5.787553"><ele>460.158</ele><time>2022-09-17T15:13:47Z</time></trkpt><trkpt lat="49.989415" lon="5.787562"><ele>458.953</ele><time>2022-09-17T15:13:48Z</time></trkpt><trkpt lat="49.989520" lon="5.787549"><ele>457.818</ele><time>2022-09-17T15:13:49Z</time></trkpt><trkpt lat="49.989619" lon="5.787537"><ele>456.752</ele><time>2022-09-17T15:13:50Z</time></trkpt><trkpt lat="49.989734" lon="5.787525"><ele>455.829</ele><time>2022-09-17T15:13:51Z</time></trkpt><trkpt lat="49.989850" lon="5.787517"><ele>454.863</ele><time>2022-09-17T15:13:52Z</time></trkpt><trkpt lat="49.989971" lon="5.787503"><ele>453.744</ele><time>2022-09-17T15:13:53Z</time></trkpt><trkpt lat="49.990076" lon="5.787489"><ele>452.618</ele><time>2022-09-17T15:13:54Z</time></trkpt><trkpt lat="49.990165" lon="5.787463"><ele>451.709</ele><time>2022-09-17T15:13:55Z</time></trkpt><trkpt lat="49.990257" lon="5.787451"><ele>451.057</ele><time>2022-09-17T15:13:56Z</time></trkpt><trkpt lat="49.990335" lon="5.787441"><ele>450.737</ele><time>2022-09-17T15:13:57Z</time></trkpt><trkpt lat="49.990401" lon="5.787431"><ele>450.379</ele><time>2022-09-17T15:13:58Z</time></trkpt><trkpt lat="49.990455" lon="5.787425"><ele>450.185</ele><time>2022-09-17T15:13:59Z</time></trkpt><trkpt lat="49.990500" lon="5.787432"><ele>450.070</ele><time>2022-09-17T15:14:00Z</time></trkpt><trkpt lat="49.990571" lon="5.787396"><ele>449.555</ele><time>2022-09-17T15:14:11Z</time></trkpt><trkpt lat="49.990659" lon="5.787354"><ele>449.050</ele><time>2022-09-17T15:14:13Z</time></trkpt><trkpt lat="49.990708" lon="5.787325"><ele>446.174</ele><time>2022-09-17T15:14:14Z</time></trkpt><trkpt lat="49.990757" lon="5.787304"><ele>446.021</ele><time>2022-09-17T15:14:15Z</time></trkpt><trkpt lat="49.990832" lon="5.787247"><ele>445.876</ele><time>2022-09-17T15:14:17Z</time></trkpt><trkpt lat="49.990899" lon="5.787214"><ele>445.790</ele><time>2022-09-17T15:14:19Z</time></trkpt><trkpt lat="49.990938" lon="5.787057"><ele>444.319</ele><time>2022-09-17T15:14:21Z</time></trkpt><trkpt lat="49.990946" lon="5.786954"><ele>443.209</ele><time>2022-09-17T15:14:22Z</time></trkpt><trkpt lat="49.990955" lon="5.786820"><ele>442.528</ele><time>2022-09-17T15:14:23Z</time></trkpt><trkpt lat="49.990962" lon="5.786669"><ele>442.288</ele><time>2022-09-17T15:14:24Z</time></trkpt><trkpt lat="49.990957" lon="5.786502"><ele>442.070</ele><time>2022-09-17T15:14:25Z</time></trkpt><trkpt lat="49.990954" lon="5.786325"><ele>442.056</ele><time>2022-09-17T15:14:26Z</time></trkpt><trkpt lat="49.990949" lon="5.786147"><ele>442.031</ele><time>2022-09-17T15:14:27Z</time></trkpt><trkpt lat="49.990937" lon="5.785982"><ele>441.836</ele><time>2022-09-17T15:14:28Z</time></trkpt><trkpt lat="49.990908" lon="5.785820"><ele>441.551</ele><time>2022-09-17T15:14:29Z</time></trkpt><trkpt lat="49.990864" lon="5.785659"><ele>441.165</ele><time>2022-09-17T15:14:30Z</time></trkpt><trkpt lat="49.990818" lon="5.785511"><ele>440.762</ele><time>2022-09-17T15:14:31Z</time></trkpt><trkpt lat="49.990764" lon="5.785367"><ele>440.483</ele><time>2022-09-17T15:14:32Z</time></trkpt><trkpt lat="49.990709" lon="5.785235"><ele>440.225</ele><time>2022-09-17T15:14:33Z</time></trkpt><trkpt lat="49.990660" lon="5.785110"><ele>440.217</ele><time>2022-09-17T15:14:34Z</time></trkpt><trkpt lat="49.990611" lon="5.784983"><ele>440.209</ele><time>2022-09-17T15:14:35Z</time></trkpt><trkpt lat="49.990573" lon="5.784834"><ele>440.389</ele><time>2022-09-17T15:14:36Z</time></trkpt><trkpt lat="49.990557" lon="5.784686"><ele>440.329</ele><time>2022-09-17T15:14:37Z</time></trkpt><trkpt lat="49.990540" lon="5.784531"><ele>440.441</ele><time>2022-09-17T15:14:38Z</time></trkpt><trkpt lat="49.990542" lon="5.784379"><ele>440.417</ele><time>2022-09-17T15:14:39Z</time></trkpt><trkpt lat="49.990565" lon="5.784216"><ele>440.322</ele><time>2022-09-17T15:14:40Z</time></trkpt><trkpt lat="49.990606" lon="5.784063"><ele>440.167</ele><time>2022-09-17T15:14:41Z</time></trkpt><trkpt lat="49.990669" lon="5.783908"><ele>439.792</ele><time>2022-09-17T15:14:42Z</time></trkpt><trkpt lat="49.990764" lon="5.783772"><ele>439.166</ele><time>2022-09-17T15:14:43Z</time></trkpt><trkpt lat="49.990877" lon="5.783607"><ele>438.223</ele><time>2022-09-17T15:14:44Z</time></trkpt><trkpt lat="49.990981" lon="5.783456"><ele>437.624</ele><time>2022-09-17T15:14:45Z</time></trkpt><trkpt lat="49.991073" lon="5.783299"><ele>437.004</ele><time>2022-09-17T15:14:46Z</time></trkpt><trkpt lat="49.991161" lon="5.783180"><ele>436.714</ele><time>2022-09-17T15:14:47Z</time></trkpt><trkpt lat="49.991230" lon="5.783077"><ele>435.909</ele><time>2022-09-17T15:14:48Z</time></trkpt><trkpt lat="49.991288" lon="5.782980"><ele>435.073</ele><time>2022-09-17T15:14:49Z</time></trkpt><trkpt lat="49.991335" lon="5.782900"><ele>434.683</ele><time>2022-09-17T15:14:50Z</time></trkpt><trkpt lat="49.991369" lon="5.782826"><ele>433.855</ele><time>2022-09-17T15:14:51Z</time></trkpt><trkpt lat="49.991398" lon="5.782766"><ele>433.571</ele><time>2022-09-17T15:14:52Z</time></trkpt><trkpt lat="49.991443" lon="5.782700"><ele>433.116</ele><time>2022-09-17T15:14:53Z</time></trkpt><trkpt lat="49.991471" lon="5.782643"><ele>433.121</ele><time>2022-09-17T15:14:54Z</time></trkpt><trkpt lat="49.991575" lon="5.782653"><ele>433.156</ele><time>2022-09-17T15:14:55Z</time></trkpt><trkpt lat="49.991653" lon="5.782698"><ele>433.370</ele><time>2022-09-17T15:14:56Z</time></trkpt><trkpt lat="49.991739" lon="5.782751"><ele>433.517</ele><time>2022-09-17T15:14:57Z</time></trkpt><trkpt lat="49.991832" lon="5.782812"><ele>433.722</ele><time>2022-09-17T15:14:58Z</time></trkpt><trkpt lat="49.991935" lon="5.782850"><ele>433.862</ele><time>2022-09-17T15:14:59Z</time></trkpt><trkpt lat="49.992026" lon="5.782895"><ele>434.108</ele><time>2022-09-17T15:15:00Z</time></trkpt><trkpt lat="49.992123" lon="5.782920"><ele>434.309</ele><time>2022-09-17T15:15:01Z</time></trkpt><trkpt lat="49.992226" lon="5.782928"><ele>434.593</ele><time>2022-09-17T15:15:02Z</time></trkpt><trkpt lat="49.992332" lon="5.782945"><ele>434.793</ele><time>2022-09-17T15:15:03Z</time></trkpt><trkpt lat="49.992437" lon="5.782890"><ele>435.195</ele><time>2022-09-17T15:15:04Z</time></trkpt><trkpt lat="49.992530" lon="5.782867"><ele>435.621</ele><time>2022-09-17T15:15:05Z</time></trkpt><trkpt lat="49.992626" lon="5.782833"><ele>436.226</ele><time>2022-09-17T15:15:06Z</time></trkpt><trkpt lat="49.992725" lon="5.782812"><ele>436.961</ele><time>2022-09-17T15:15:07Z</time></trkpt><trkpt lat="49.992815" lon="5.782760"><ele>437.676</ele><time>2022-09-17T15:15:08Z</time></trkpt><trkpt lat="49.992909" lon="5.782706"><ele>438.450</ele><time>2022-09-17T15:15:09Z</time></trkpt><trkpt lat="49.992993" lon="5.782594"><ele>439.137</ele><time>2022-09-17T15:15:10Z</time></trkpt><trkpt lat="49.993082" lon="5.782481"><ele>440.196</ele><time>2022-09-17T15:15:11Z</time></trkpt><trkpt lat="49.993181" lon="5.782393"><ele>441.531</ele><time>2022-09-17T15:15:12Z</time></trkpt><trkpt lat="49.993275" lon="5.782276"><ele>442.724</ele><time>2022-09-17T15:15:13Z</time></trkpt><trkpt lat="49.993381" lon="5.782156"><ele>443.909</ele><time>2022-09-17T15:15:14Z</time></trkpt><trkpt lat="49.993496" lon="5.782031"><ele>445.790</ele><time>2022-09-17T15:15:15Z</time></trkpt><trkpt lat="49.993602" lon="5.781893"><ele>447.170</ele><time>2022-09-17T15:15:16Z</time></trkpt><trkpt lat="49.993727" lon="5.781774"><ele>448.852</ele><time>2022-09-17T15:15:17Z</time></trkpt><trkpt lat="49.993840" lon="5.781643"><ele>450.788</ele><time>2022-09-17T15:15:18Z</time></trkpt><trkpt lat="49.993955" lon="5.781509"><ele>452.423</ele><time>2022-09-17T15:15:19Z</time></trkpt><trkpt lat="49.994062" lon="5.781355"><ele>453.848</ele><time>2022-09-17T15:15:20Z</time></trkpt><trkpt lat="49.994183" lon="5.781234"><ele>454.963</ele><time>2022-09-17T15:15:21Z</time></trkpt><trkpt lat="49.994311" lon="5.781110"><ele>455.687</ele><time>2022-09-17T15:15:22Z</time></trkpt><trkpt lat="49.994438" lon="5.780983"><ele>456.244</ele><time>2022-09-17T15:15:23Z</time></trkpt><trkpt lat="49.994565" lon="5.780867"><ele>457.038</ele><time>2022-09-17T15:15:24Z</time></trkpt><trkpt lat="49.994675" lon="5.780734"><ele>458.070</ele><time>2022-09-17T15:15:25Z</time></trkpt><trkpt lat="49.994777" lon="5.780613"><ele>458.517</ele><time>2022-09-17T15:15:26Z</time></trkpt><trkpt lat="49.994868" lon="5.780503"><ele>459.409</ele><time>2022-09-17T15:15:27Z</time></trkpt><trkpt lat="49.994948" lon="5.780406"><ele>460.594</ele><time>2022-09-17T15:15:28Z</time></trkpt><trkpt lat="49.995031" lon="5.780306"><ele>461.484</ele><time>2022-09-17T15:15:29Z</time></trkpt><trkpt lat="49.995109" lon="5.780217"><ele>462.316</ele><time>2022-09-17T15:15:30Z</time></trkpt><trkpt lat="49.995190" lon="5.780089"><ele>463.382</ele><time>2022-09-17T15:15:31Z</time></trkpt><trkpt lat="49.995275" lon="5.779968"><ele>464.287</ele><time>2022-09-17T15:15:32Z</time></trkpt><trkpt lat="49.995373" lon="5.779847"><ele>465.282</ele><time>2022-09-17T15:15:33Z</time></trkpt><trkpt lat="49.995476" lon="5.779728"><ele>466.127</ele><time>2022-09-17T15:15:34Z</time></trkpt><trkpt lat="49.995583" lon="5.779613"><ele>467.271</ele><time>2022-09-17T15:15:35Z</time></trkpt><trkpt lat="49.995706" lon="5.779482"><ele>469.028</ele><time>2022-09-17T15:15:36Z</time></trkpt><trkpt lat="49.995810" lon="5.779365"><ele>470.546</ele><time>2022-09-17T15:15:37Z</time></trkpt><trkpt lat="49.995920" lon="5.779266"><ele>471.388</ele><time>2022-09-17T15:15:38Z</time></trkpt><trkpt lat="49.996010" lon="5.779125"><ele>472.616</ele><time>2022-09-17T15:15:39Z</time></trkpt><trkpt lat="49.996096" lon="5.778983"><ele>474.009</ele><time>2022-09-17T15:15:40Z</time></trkpt><trkpt lat="49.996185" lon="5.778835"><ele>475.485</ele><time>2022-09-17T15:15:41Z</time></trkpt><trkpt lat="49.996273" lon="5.778688"><ele>476.785</ele><time>2022-09-17T15:15:42Z</time></trkpt><trkpt lat="49.996349" lon="5.778527"><ele>477.537</ele><time>2022-09-17T15:15:43Z</time></trkpt><trkpt lat="49.996447" lon="5.778392"><ele>478.533</ele><time>2022-09-17T15:15:44Z</time></trkpt><trkpt lat="49.996547" lon="5.778248"><ele>479.328</ele><time>2022-09-17T15:15:45Z</time></trkpt><trkpt lat="49.996655" lon="5.778099"><ele>480.293</ele><time>2022-09-17T15:15:46Z</time></trkpt><trkpt lat="49.996768" lon="5.777943"><ele>480.958</ele><time>2022-09-17T15:15:47Z</time></trkpt><trkpt lat="49.996886" lon="5.777784"><ele>481.752</ele><time>2022-09-17T15:15:48Z</time></trkpt><trkpt lat="49.997012" lon="5.777642"><ele>482.419</ele><time>2022-09-17T15:15:49Z</time></trkpt><trkpt lat="49.997149" lon="5.777492"><ele>483.118</ele><time>2022-09-17T15:15:50Z</time></trkpt><trkpt lat="49.997293" lon="5.777343"><ele>483.898</ele><time>2022-09-17T15:15:51Z</time></trkpt><trkpt lat="49.997433" lon="5.777198"><ele>484.317</ele><time>2022-09-17T15:15:52Z</time></trkpt><trkpt lat="49.997568" lon="5.777057"><ele>484.709</ele><time>2022-09-17T15:15:53Z</time></trkpt><trkpt lat="49.997698" lon="5.776920"><ele>484.882</ele><time>2022-09-17T15:15:54Z</time></trkpt><trkpt lat="49.997810" lon="5.776764"><ele>484.892</ele><time>2022-09-17T15:15:55Z</time></trkpt><trkpt lat="49.997926" lon="5.776631"><ele>484.714</ele><time>2022-09-17T15:15:56Z</time></trkpt><trkpt lat="49.998040" lon="5.776502"><ele>484.560</ele><time>2022-09-17T15:15:57Z</time></trkpt><trkpt lat="49.998151" lon="5.776374"><ele>484.295</ele><time>2022-09-17T15:15:58Z</time></trkpt><trkpt lat="49.998257" lon="5.776253"><ele>483.920</ele><time>2022-09-17T15:15:59Z</time></trkpt><trkpt lat="49.998372" lon="5.776148"><ele>483.815</ele><time>2022-09-17T15:16:00Z</time></trkpt><trkpt lat="49.998458" lon="5.776018"><ele>483.379</ele><time>2022-09-17T15:16:01Z</time></trkpt><trkpt lat="49.998558" lon="5.775900"><ele>481.726</ele><time>2022-09-17T15:16:02Z</time></trkpt><trkpt lat="49.998653" lon="5.775784"><ele>479.815</ele><time>2022-09-17T15:16:03Z</time></trkpt><trkpt lat="49.998745" lon="5.775647"><ele>478.265</ele><time>2022-09-17T15:16:04Z</time></trkpt><trkpt lat="49.998856" lon="5.775526"><ele>476.511</ele><time>2022-09-17T15:16:05Z</time></trkpt><trkpt lat="49.998950" lon="5.775377"><ele>475.209</ele><time>2022-09-17T15:16:06Z</time></trkpt><trkpt lat="49.999031" lon="5.775213"><ele>475.262</ele><time>2022-09-17T15:16:07Z</time></trkpt><trkpt lat="49.999120" lon="5.775076"><ele>476.072</ele><time>2022-09-17T15:16:08Z</time></trkpt><trkpt lat="49.999233" lon="5.774947"><ele>476.884</ele><time>2022-09-17T15:16:09Z</time></trkpt><trkpt lat="49.999314" lon="5.774826"><ele>477.660</ele><time>2022-09-17T15:16:10Z</time></trkpt><trkpt lat="49.999393" lon="5.774710"><ele>478.965</ele><time>2022-09-17T15:16:11Z</time></trkpt><trkpt lat="49.999470" lon="5.774586"><ele>480.250</ele><time>2022-09-17T15:16:12Z</time></trkpt><trkpt lat="49.999549" lon="5.774462"><ele>481.465</ele><time>2022-09-17T15:16:13Z</time></trkpt><trkpt lat="49.999628" lon="5.774337"><ele>482.769</ele><time>2022-09-17T15:16:14Z</time></trkpt><trkpt lat="49.999704" lon="5.774206"><ele>484.426</ele><time>2022-09-17T15:16:15Z</time></trkpt><trkpt lat="49.999778" lon="5.774075"><ele>486.187</ele><time>2022-09-17T15:16:16Z</time></trkpt><trkpt lat="49.999847" lon="5.773946"><ele>487.342</ele><time>2022-09-17T15:16:17Z</time></trkpt><trkpt lat="49.999913" lon="5.773820"><ele>488.026</ele><time>2022-09-17T15:16:18Z</time></trkpt><trkpt lat="49.999988" lon="5.773696"><ele>488.409</ele><time>2022-09-17T15:16:19Z</time></trkpt><trkpt lat="50.000070" lon="5.773554"><ele>488.779</ele><time>2022-09-17T15:16:20Z</time></trkpt><trkpt lat="50.000167" lon="5.773383"><ele>489.069</ele><time>2022-09-17T15:16:21Z</time></trkpt><trkpt lat="50.000269" lon="5.773220"><ele>489.311</ele><time>2022-09-17T15:16:22Z</time></trkpt><trkpt lat="50.000376" lon="5.773070"><ele>489.487</ele><time>2022-09-17T15:16:23Z</time></trkpt><trkpt lat="50.000475" lon="5.772943"><ele>489.442</ele><time>2022-09-17T15:16:24Z</time></trkpt><trkpt lat="50.000578" lon="5.772809"><ele>489.467</ele><time>2022-09-17T15:16:25Z</time></trkpt><trkpt lat="50.000674" lon="5.772686"><ele>489.472</ele><time>2022-09-17T15:16:26Z</time></trkpt><trkpt lat="50.000773" lon="5.772566"><ele>488.776</ele><time>2022-09-17T15:16:27Z</time></trkpt><trkpt lat="50.000881" lon="5.772430"><ele>488.133</ele><time>2022-09-17T15:16:28Z</time></trkpt><trkpt lat="50.000987" lon="5.772298"><ele>487.279</ele><time>2022-09-17T15:16:29Z</time></trkpt><trkpt lat="50.001098" lon="5.772163"><ele>485.905</ele><time>2022-09-17T15:16:30Z</time></trkpt><trkpt lat="50.001208" lon="5.772029"><ele>484.525</ele><time>2022-09-17T15:16:31Z</time></trkpt><trkpt lat="50.001311" lon="5.771889"><ele>483.009</ele><time>2022-09-17T15:16:32Z</time></trkpt><trkpt lat="50.001413" lon="5.771760"><ele>482.348</ele><time>2022-09-17T15:16:33Z</time></trkpt><trkpt lat="50.001504" lon="5.771636"><ele>480.938</ele><time>2022-09-17T15:16:34Z</time></trkpt><trkpt lat="50.001602" lon="5.771527"><ele>480.230</ele><time>2022-09-17T15:16:35Z</time></trkpt><trkpt lat="50.001690" lon="5.771431"><ele>479.476</ele><time>2022-09-17T15:16:36Z</time></trkpt><trkpt lat="50.001759" lon="5.771331"><ele>479.441</ele><time>2022-09-17T15:16:37Z</time></trkpt><trkpt lat="50.001842" lon="5.771220"><ele>479.496</ele><time>2022-09-17T15:16:38Z</time></trkpt><trkpt lat="50.001906" lon="5.771099"><ele>479.511</ele><time>2022-09-17T15:16:39Z</time></trkpt><trkpt lat="50.002001" lon="5.770984"><ele>479.555</ele><time>2022-09-17T15:16:40Z</time></trkpt><trkpt lat="50.002092" lon="5.770872"><ele>479.562</ele><time>2022-09-17T15:16:41Z</time></trkpt><trkpt lat="50.002197" lon="5.770769"><ele>479.464</ele><time>2022-09-17T15:16:42Z</time></trkpt><trkpt lat="50.002305" lon="5.770670"><ele>478.606</ele><time>2022-09-17T15:16:43Z</time></trkpt><trkpt lat="50.002393" lon="5.770581"><ele>478.116</ele><time>2022-09-17T15:16:44Z</time></trkpt><trkpt lat="50.002492" lon="5.770496"><ele>477.609</ele><time>2022-09-17T15:16:45Z</time></trkpt><trkpt lat="50.002595" lon="5.770415"><ele>477.197</ele><time>2022-09-17T15:16:46Z</time></trkpt><trkpt lat="50.002695" lon="5.770334"><ele>476.497</ele><time>2022-09-17T15:16:47Z</time></trkpt><trkpt lat="50.002787" lon="5.770249"><ele>475.879</ele><time>2022-09-17T15:16:48Z</time></trkpt><trkpt lat="50.002867" lon="5.770161"><ele>475.045</ele><time>2022-09-17T15:16:49Z</time></trkpt><trkpt lat="50.002944" lon="5.770076"><ele>474.490</ele><time>2022-09-17T15:16:50Z</time></trkpt><trkpt lat="50.003024" lon="5.769990"><ele>473.925</ele><time>2022-09-17T15:16:51Z</time></trkpt><trkpt lat="50.003103" lon="5.769902"><ele>473.090</ele><time>2022-09-17T15:16:52Z</time></trkpt><trkpt lat="50.003180" lon="5.769813"><ele>472.774</ele><time>2022-09-17T15:16:53Z</time></trkpt><trkpt lat="50.003242" lon="5.769744"><ele>472.021</ele><time>2022-09-17T15:16:54Z</time></trkpt><trkpt lat="50.003300" lon="5.769640"><ele>471.662</ele><time>2022-09-17T15:16:55Z</time></trkpt><trkpt lat="50.003299" lon="5.769513"><ele>470.883</ele><time>2022-09-17T15:16:56Z</time></trkpt><trkpt lat="50.003297" lon="5.769432"><ele>470.011</ele><time>2022-09-17T15:16:57Z</time></trkpt><trkpt lat="50.003310" lon="5.769343"><ele>469.309</ele><time>2022-09-17T15:16:58Z</time></trkpt><trkpt lat="50.003267" lon="5.769295"><ele>469.017</ele><time>2022-09-17T15:17:00Z</time></trkpt><trkpt lat="50.003195" lon="5.769195"><ele>468.557</ele><time>2022-09-17T15:17:03Z</time></trkpt><trkpt lat="50.003097" lon="5.769187"><ele>466.839</ele><time>2022-09-17T15:17:04Z</time></trkpt><trkpt lat="50.002966" lon="5.769173"><ele>465.745</ele><time>2022-09-17T15:17:05Z</time></trkpt><trkpt lat="50.002875" lon="5.769152"><ele>465.080</ele><time>2022-09-17T15:17:06Z</time></trkpt><trkpt lat="50.002812" lon="5.769110"><ele>464.485</ele><time>2022-09-17T15:17:07Z</time></trkpt><trkpt lat="50.002770" lon="5.769073"><ele>464.080</ele><time>2022-09-17T15:17:08Z</time></trkpt><trkpt lat="50.002727" lon="5.768919"><ele>463.374</ele><time>2022-09-17T15:17:10Z</time></trkpt><trkpt lat="50.002699" lon="5.768778"><ele>462.661</ele><time>2022-09-17T15:17:11Z</time></trkpt><trkpt lat="50.002684" lon="5.768644"><ele>461.776</ele><time>2022-09-17T15:17:12Z</time></trkpt><trkpt lat="50.002677" lon="5.768463"><ele>461.590</ele><time>2022-09-17T15:17:13Z</time></trkpt><trkpt lat="50.002674" lon="5.768301"><ele>461.119</ele><time>2022-09-17T15:17:14Z</time></trkpt><trkpt lat="50.002647" lon="5.768142"><ele>460.709</ele><time>2022-09-17T15:17:15Z</time></trkpt><trkpt lat="50.002618" lon="5.767949"><ele>460.368</ele><time>2022-09-17T15:17:16Z</time></trkpt><trkpt lat="50.002601" lon="5.767764"><ele>460.028</ele><time>2022-09-17T15:17:17Z</time></trkpt><trkpt lat="50.002604" lon="5.767589"><ele>459.470</ele><time>2022-09-17T15:17:18Z</time></trkpt><trkpt lat="50.002616" lon="5.767417"><ele>459.356</ele><time>2022-09-17T15:17:19Z</time></trkpt><trkpt lat="50.002650" lon="5.767247"><ele>459.341</ele><time>2022-09-17T15:17:20Z</time></trkpt><trkpt lat="50.002679" lon="5.767059"><ele>459.356</ele><time>2022-09-17T15:17:21Z</time></trkpt><trkpt lat="50.002752" lon="5.766843"><ele>460.381</ele><time>2022-09-17T15:17:22Z</time></trkpt><trkpt lat="50.002789" lon="5.766627"><ele>461.515</ele><time>2022-09-17T15:17:23Z</time></trkpt><trkpt lat="50.002832" lon="5.766419"><ele>462.892</ele><time>2022-09-17T15:17:24Z</time></trkpt><trkpt lat="50.002851" lon="5.766231"><ele>463.484</ele><time>2022-09-17T15:17:25Z</time></trkpt><trkpt lat="50.002867" lon="5.766054"><ele>464.207</ele><time>2022-09-17T15:17:26Z</time></trkpt><trkpt lat="50.002881" lon="5.765869"><ele>465.017</ele><time>2022-09-17T15:17:27Z</time></trkpt><trkpt lat="50.002891" lon="5.765674"><ele>465.709</ele><time>2022-09-17T15:17:28Z</time></trkpt><trkpt lat="50.002890" lon="5.765494"><ele>465.749</ele><time>2022-09-17T15:17:29Z</time></trkpt><trkpt lat="50.002889" lon="5.765322"><ele>465.749</ele><time>2022-09-17T15:17:30Z</time></trkpt><trkpt lat="50.002892" lon="5.765151"><ele>465.461</ele><time>2022-09-17T15:17:31Z</time></trkpt><trkpt lat="50.002887" lon="5.764989"><ele>465.497</ele><time>2022-09-17T15:17:32Z</time></trkpt><trkpt lat="50.002874" lon="5.764837"><ele>464.652</ele><time>2022-09-17T15:17:33Z</time></trkpt><trkpt lat="50.002890" lon="5.764674"><ele>463.747</ele><time>2022-09-17T15:17:34Z</time></trkpt><trkpt lat="50.002899" lon="5.764523"><ele>463.232</ele><time>2022-09-17T15:17:35Z</time></trkpt><trkpt lat="50.002918" lon="5.764374"><ele>462.746</ele><time>2022-09-17T15:17:36Z</time></trkpt><trkpt lat="50.002931" lon="5.764212"><ele>462.563</ele><time>2022-09-17T15:17:37Z</time></trkpt><trkpt lat="50.002946" lon="5.764053"><ele>462.469</ele><time>2022-09-17T15:17:38Z</time></trkpt><trkpt lat="50.002962" lon="5.763900"><ele>462.304</ele><time>2022-09-17T15:17:39Z</time></trkpt><trkpt lat="50.002963" lon="5.763778"><ele>462.124</ele><time>2022-09-17T15:17:40Z</time></trkpt><trkpt lat="50.002979" lon="5.763640"><ele>461.809</ele><time>2022-09-17T15:17:41Z</time></trkpt><trkpt lat="50.002999" lon="5.763509"><ele>461.317</ele><time>2022-09-17T15:17:42Z</time></trkpt><trkpt lat="50.003023" lon="5.763377"><ele>460.857</ele><time>2022-09-17T15:17:43Z</time></trkpt><trkpt lat="50.003033" lon="5.763242"><ele>460.189</ele><time>2022-09-17T15:17:44Z</time></trkpt><trkpt lat="50.003049" lon="5.763117"><ele>459.455</ele><time>2022-09-17T15:17:45Z</time></trkpt><trkpt lat="50.003072" lon="5.762978"><ele>459.130</ele><time>2022-09-17T15:17:46Z</time></trkpt><trkpt lat="50.003085" lon="5.762857"><ele>459.085</ele><time>2022-09-17T15:17:47Z</time></trkpt><trkpt lat="50.003092" lon="5.762764"><ele>459.040</ele><time>2022-09-17T15:17:48Z</time></trkpt><trkpt lat="50.003104" lon="5.762638"><ele>459.084</ele><time>2022-09-17T15:17:50Z</time></trkpt><trkpt lat="50.003139" lon="5.762521"><ele>458.881</ele><time>2022-09-17T15:17:52Z</time></trkpt><trkpt lat="50.003220" lon="5.762577"><ele>458.272</ele><time>2022-09-17T15:17:53Z</time></trkpt><trkpt lat="50.003361" lon="5.762591"><ele>457.513</ele><time>2022-09-17T15:17:54Z</time></trkpt><trkpt lat="50.003506" lon="5.762571"><ele>457.314</ele><time>2022-09-17T15:17:55Z</time></trkpt><trkpt lat="50.003660" lon="5.762575"><ele>457.109</ele><time>2022-09-17T15:17:56Z</time></trkpt><trkpt lat="50.003819" lon="5.762556"><ele>456.968</ele><time>2022-09-17T15:17:57Z</time></trkpt><trkpt lat="50.003985" lon="5.762486"><ele>456.598</ele><time>2022-09-17T15:17:58Z</time></trkpt><trkpt lat="50.004147" lon="5.762443"><ele>456.010</ele><time>2022-09-17T15:17:59Z</time></trkpt><trkpt lat="50.004292" lon="5.762389"><ele>455.856</ele><time>2022-09-17T15:18:00Z</time></trkpt><trkpt lat="50.004408" lon="5.762332"><ele>455.851</ele><time>2022-09-17T15:18:01Z</time></trkpt><trkpt lat="50.004541" lon="5.762286"><ele>455.856</ele><time>2022-09-17T15:18:02Z</time></trkpt><trkpt lat="50.004640" lon="5.762239"><ele>455.431</ele><time>2022-09-17T15:18:03Z</time></trkpt><trkpt lat="50.004739" lon="5.762193"><ele>455.365</ele><time>2022-09-17T15:18:04Z</time></trkpt><trkpt lat="50.004838" lon="5.762158"><ele>455.272</ele><time>2022-09-17T15:18:05Z</time></trkpt><trkpt lat="50.004924" lon="5.762127"><ele>454.236</ele><time>2022-09-17T15:18:06Z</time></trkpt><trkpt lat="50.005004" lon="5.762101"><ele>452.917</ele><time>2022-09-17T15:18:07Z</time></trkpt><trkpt lat="50.005080" lon="5.762096"><ele>452.618</ele><time>2022-09-17T15:18:08Z</time></trkpt><trkpt lat="50.005154" lon="5.762125"><ele>451.909</ele><time>2022-09-17T15:18:09Z</time></trkpt><trkpt lat="50.005185" lon="5.762250"><ele>451.134</ele><time>2022-09-17T15:18:10Z</time></trkpt><trkpt lat="50.005234" lon="5.762329"><ele>450.414</ele><time>2022-09-17T15:18:11Z</time></trkpt><trkpt lat="50.005279" lon="5.762434"><ele>450.156</ele><time>2022-09-17T15:18:12Z</time></trkpt><trkpt lat="50.005323" lon="5.762554"><ele>450.032</ele><time>2022-09-17T15:18:13Z</time></trkpt><trkpt lat="50.005371" lon="5.762689"><ele>450.017</ele><time>2022-09-17T15:18:14Z</time></trkpt><trkpt lat="50.005400" lon="5.762815"><ele>450.322</ele><time>2022-09-17T15:18:15Z</time></trkpt><trkpt lat="50.005418" lon="5.762918"><ele>450.517</ele><time>2022-09-17T15:18:16Z</time></trkpt><trkpt lat="50.005427" lon="5.763019"><ele>451.181</ele><time>2022-09-17T15:18:17Z</time></trkpt><trkpt lat="50.005422" lon="5.763135"><ele>451.758</ele><time>2022-09-17T15:18:18Z</time></trkpt><trkpt lat="50.005425" lon="5.763247"><ele>452.272</ele><time>2022-09-17T15:18:19Z</time></trkpt><trkpt lat="50.005376" lon="5.763346"><ele>452.613</ele><time>2022-09-17T15:18:20Z</time></trkpt><trkpt lat="50.005318" lon="5.763462"><ele>453.014</ele><time>2022-09-17T15:18:21Z</time></trkpt><trkpt lat="50.005320" lon="5.763630"><ele>453.609</ele><time>2022-09-17T15:18:22Z</time></trkpt><trkpt lat="50.005348" lon="5.763728"><ele>453.898</ele><time>2022-09-17T15:18:23Z</time></trkpt><trkpt lat="50.005418" lon="5.763803"><ele>453.918</ele><time>2022-09-17T15:18:24Z</time></trkpt><trkpt lat="50.005483" lon="5.763843"><ele>454.060</ele><time>2022-09-17T15:18:25Z</time></trkpt><trkpt lat="50.005552" lon="5.763861"><ele>454.136</ele><time>2022-09-17T15:18:26Z</time></trkpt><trkpt lat="50.005609" lon="5.763884"><ele>454.161</ele><time>2022-09-17T15:18:27Z</time></trkpt><trkpt lat="50.005661" lon="5.763905"><ele>454.136</ele><time>2022-09-17T15:18:28Z</time></trkpt><trkpt lat="50.005742" lon="5.763697"><ele>454.171</ele><time>2022-09-17T15:18:30Z</time></trkpt><trkpt lat="50.005753" lon="5.763598"><ele>454.315</ele><time>2022-09-17T15:18:31Z</time></trkpt><trkpt lat="50.005762" lon="5.763523"><ele>454.622</ele><time>2022-09-17T15:18:32Z</time></trkpt><trkpt lat="50.005772" lon="5.763430"><ele>454.817</ele><time>2022-09-17T15:18:33Z</time></trkpt><trkpt lat="50.005808" lon="5.763363"><ele>455.087</ele><time>2022-09-17T15:18:34Z</time></trkpt><trkpt lat="50.005806" lon="5.763218"><ele>455.315</ele><time>2022-09-17T15:18:35Z</time></trkpt><trkpt lat="50.005791" lon="5.763079"><ele>456.009</ele><time>2022-09-17T15:18:36Z</time></trkpt><trkpt lat="50.005795" lon="5.762915"><ele>456.742</ele><time>2022-09-17T15:18:37Z</time></trkpt><trkpt lat="50.005793" lon="5.762742"><ele>457.592</ele><time>2022-09-17T15:18:38Z</time></trkpt><trkpt lat="50.005797" lon="5.762569"><ele>458.394</ele><time>2022-09-17T15:18:39Z</time></trkpt><trkpt lat="50.005811" lon="5.762379"><ele>458.980</ele><time>2022-09-17T15:18:40Z</time></trkpt><trkpt lat="50.005836" lon="5.762168"><ele>459.855</ele><time>2022-09-17T15:18:41Z</time></trkpt><trkpt lat="50.005853" lon="5.761972"><ele>460.490</ele><time>2022-09-17T15:18:42Z</time></trkpt><trkpt lat="50.005879" lon="5.761759"><ele>460.855</ele><time>2022-09-17T15:18:43Z</time></trkpt><trkpt lat="50.005903" lon="5.761557"><ele>461.019</ele><time>2022-09-17T15:18:44Z</time></trkpt><trkpt lat="50.005927" lon="5.761348"><ele>461.116</ele><time>2022-09-17T15:18:45Z</time></trkpt><trkpt lat="50.005951" lon="5.761141"><ele>461.157</ele><time>2022-09-17T15:18:46Z</time></trkpt><trkpt lat="50.005972" lon="5.760924"><ele>461.200</ele><time>2022-09-17T15:18:47Z</time></trkpt><trkpt lat="50.005994" lon="5.760712"><ele>461.520</ele><time>2022-09-17T15:18:48Z</time></trkpt><trkpt lat="50.006010" lon="5.760494"><ele>461.809</ele><time>2022-09-17T15:18:49Z</time></trkpt><trkpt lat="50.006024" lon="5.760270"><ele>462.196</ele><time>2022-09-17T15:18:50Z</time></trkpt><trkpt lat="50.006037" lon="5.760040"><ele>462.446</ele><time>2022-09-17T15:18:51Z</time></trkpt><trkpt lat="50.006051" lon="5.759815"><ele>462.618</ele><time>2022-09-17T15:18:52Z</time></trkpt><trkpt lat="50.006066" lon="5.759585"><ele>462.954</ele><time>2022-09-17T15:18:53Z</time></trkpt><trkpt lat="50.006081" lon="5.759348"><ele>463.329</ele><time>2022-09-17T15:18:54Z</time></trkpt><trkpt lat="50.006099" lon="5.759117"><ele>463.874</ele><time>2022-09-17T15:18:55Z</time></trkpt><trkpt lat="50.006116" lon="5.758890"><ele>464.499</ele><time>2022-09-17T15:18:56Z</time></trkpt><trkpt lat="50.006135" lon="5.758670"><ele>465.073</ele><time>2022-09-17T15:18:57Z</time></trkpt><trkpt lat="50.006152" lon="5.758445"><ele>465.440</ele><time>2022-09-17T15:18:58Z</time></trkpt><trkpt lat="50.006170" lon="5.758219"><ele>465.798</ele><time>2022-09-17T15:18:59Z</time></trkpt><trkpt lat="50.006191" lon="5.757993"><ele>465.915</ele><time>2022-09-17T15:19:00Z</time></trkpt><trkpt lat="50.006215" lon="5.757758"><ele>466.026</ele><time>2022-09-17T15:19:01Z</time></trkpt><trkpt lat="50.006239" lon="5.757524"><ele>466.109</ele><time>2022-09-17T15:19:02Z</time></trkpt><trkpt lat="50.006266" lon="5.757271"><ele>466.370</ele><time>2022-09-17T15:19:03Z</time></trkpt><trkpt lat="50.006293" lon="5.756999"><ele>466.870</ele><time>2022-09-17T15:19:04Z</time></trkpt><trkpt lat="50.006320" lon="5.756727"><ele>467.762</ele><time>2022-09-17T15:19:05Z</time></trkpt><trkpt lat="50.006347" lon="5.756455"><ele>468.938</ele><time>2022-09-17T15:19:06Z</time></trkpt><trkpt lat="50.006371" lon="5.756191"><ele>470.223</ele><time>2022-09-17T15:19:07Z</time></trkpt><trkpt lat="50.006394" lon="5.755932"><ele>471.448</ele><time>2022-09-17T15:19:08Z</time></trkpt><trkpt lat="50.006416" lon="5.755680"><ele>472.583</ele><time>2022-09-17T15:19:09Z</time></trkpt><trkpt lat="50.006432" lon="5.755441"><ele>473.247</ele><time>2022-09-17T15:19:10Z</time></trkpt><trkpt lat="50.006452" lon="5.755199"><ele>473.954</ele><time>2022-09-17T15:19:11Z</time></trkpt><trkpt lat="50.006470" lon="5.754968"><ele>474.569</ele><time>2022-09-17T15:19:12Z</time></trkpt><trkpt lat="50.006485" lon="5.754758"><ele>474.904</ele><time>2022-09-17T15:19:13Z</time></trkpt><trkpt lat="50.006497" lon="5.754574"><ele>475.124</ele><time>2022-09-17T15:19:14Z</time></trkpt><trkpt lat="50.006513" lon="5.754406"><ele>475.209</ele><time>2022-09-17T15:19:15Z</time></trkpt><trkpt lat="50.006524" lon="5.754250"><ele>475.297</ele><time>2022-09-17T15:19:16Z</time></trkpt><trkpt lat="50.006532" lon="5.754109"><ele>475.067</ele><time>2022-09-17T15:19:17Z</time></trkpt><trkpt lat="50.006549" lon="5.753984"><ele>474.469</ele><time>2022-09-17T15:19:18Z</time></trkpt><trkpt lat="50.006573" lon="5.753872"><ele>474.065</ele><time>2022-09-17T15:19:19Z</time></trkpt><trkpt lat="50.006600" lon="5.753801"><ele>473.240</ele><time>2022-09-17T15:19:20Z</time></trkpt><trkpt lat="50.006632" lon="5.753717"><ele>472.565</ele><time>2022-09-17T15:19:22Z</time></trkpt><trkpt lat="50.006696" lon="5.753629"><ele>471.780</ele><time>2022-09-17T15:19:30Z</time></trkpt><trkpt lat="50.006750" lon="5.753524"><ele>471.394</ele><time>2022-09-17T15:19:31Z</time></trkpt><trkpt lat="50.006817" lon="5.753394"><ele>471.451</ele><time>2022-09-17T15:19:32Z</time></trkpt><trkpt lat="50.006890" lon="5.753252"><ele>472.042</ele><time>2022-09-17T15:19:33Z</time></trkpt><trkpt lat="50.006972" lon="5.753093"><ele>472.422</ele><time>2022-09-17T15:19:34Z</time></trkpt><trkpt lat="50.007057" lon="5.752928"><ele>473.014</ele><time>2022-09-17T15:19:35Z</time></trkpt><trkpt lat="50.007143" lon="5.752761"><ele>473.409</ele><time>2022-09-17T15:19:36Z</time></trkpt><trkpt lat="50.007215" lon="5.752621"><ele>473.485</ele><time>2022-09-17T15:19:37Z</time></trkpt><trkpt lat="50.007278" lon="5.752458"><ele>472.955</ele><time>2022-09-17T15:19:38Z</time></trkpt><trkpt lat="50.007359" lon="5.752324"><ele>472.597</ele><time>2022-09-17T15:19:39Z</time></trkpt><trkpt lat="50.007431" lon="5.752191"><ele>472.123</ele><time>2022-09-17T15:19:40Z</time></trkpt><trkpt lat="50.007504" lon="5.752056"><ele>472.188</ele><time>2022-09-17T15:19:41Z</time></trkpt><trkpt lat="50.007574" lon="5.751925"><ele>472.213</ele><time>2022-09-17T15:19:42Z</time></trkpt><trkpt lat="50.007638" lon="5.751799"><ele>472.828</ele><time>2022-09-17T15:19:43Z</time></trkpt><trkpt lat="50.007693" lon="5.751683"><ele>473.342</ele><time>2022-09-17T15:19:44Z</time></trkpt><trkpt lat="50.007750" lon="5.751565"><ele>473.619</ele><time>2022-09-17T15:19:45Z</time></trkpt><trkpt lat="50.007809" lon="5.751440"><ele>474.398</ele><time>2022-09-17T15:19:46Z</time></trkpt><trkpt lat="50.007875" lon="5.751314"><ele>475.315</ele><time>2022-09-17T15:19:47Z</time></trkpt><trkpt lat="50.007944" lon="5.751188"><ele>476.826</ele><time>2022-09-17T15:19:48Z</time></trkpt><trkpt lat="50.008013" lon="5.751050"><ele>478.209</ele><time>2022-09-17T15:19:49Z</time></trkpt><trkpt lat="50.008084" lon="5.750914"><ele>479.230</ele><time>2022-09-17T15:19:50Z</time></trkpt><trkpt lat="50.008161" lon="5.750780"><ele>479.790</ele><time>2022-09-17T15:19:51Z</time></trkpt><trkpt lat="50.008239" lon="5.750643"><ele>479.742</ele><time>2022-09-17T15:19:52Z</time></trkpt><trkpt lat="50.008320" lon="5.750516"><ele>479.678</ele><time>2022-09-17T15:19:53Z</time></trkpt><trkpt lat="50.008383" lon="5.750387"><ele>479.623</ele><time>2022-09-17T15:19:54Z</time></trkpt><trkpt lat="50.008449" lon="5.750259"><ele>479.958</ele><time>2022-09-17T15:19:55Z</time></trkpt><trkpt lat="50.008603" lon="5.750258"><ele>480.023</ele><time>2022-09-17T15:19:56Z</time></trkpt><trkpt lat="50.008695" lon="5.750195"><ele>480.987</ele><time>2022-09-17T15:19:57Z</time></trkpt><trkpt lat="50.008778" lon="5.750138"><ele>480.944</ele><time>2022-09-17T15:19:58Z</time></trkpt><trkpt lat="50.008860" lon="5.750085"><ele>481.052</ele><time>2022-09-17T15:19:59Z</time></trkpt><trkpt lat="50.008938" lon="5.750024"><ele>481.253</ele><time>2022-09-17T15:20:00Z</time></trkpt><trkpt lat="50.009009" lon="5.749950"><ele>481.908</ele><time>2022-09-17T15:20:01Z</time></trkpt><trkpt lat="50.009079" lon="5.749855"><ele>482.609</ele><time>2022-09-17T15:20:02Z</time></trkpt><trkpt lat="50.009153" lon="5.749744"><ele>483.866</ele><time>2022-09-17T15:20:03Z</time></trkpt><trkpt lat="50.009214" lon="5.749627"><ele>484.916</ele><time>2022-09-17T15:20:04Z</time></trkpt><trkpt lat="50.009264" lon="5.749529"><ele>485.898</ele><time>2022-09-17T15:20:05Z</time></trkpt><trkpt lat="50.009320" lon="5.749417"><ele>486.044</ele><time>2022-09-17T15:20:06Z</time></trkpt><trkpt lat="50.009362" lon="5.749306"><ele>486.219</ele><time>2022-09-17T15:20:07Z</time></trkpt><trkpt lat="50.009384" lon="5.749183"><ele>486.274</ele><time>2022-09-17T15:20:08Z</time></trkpt><trkpt lat="50.009401" lon="5.749054"><ele>486.229</ele><time>2022-09-17T15:20:09Z</time></trkpt><trkpt lat="50.009400" lon="5.748920"><ele>486.143</ele><time>2022-09-17T15:20:10Z</time></trkpt><trkpt lat="50.009401" lon="5.748786"><ele>485.930</ele><time>2022-09-17T15:20:11Z</time></trkpt><trkpt lat="50.009395" lon="5.748631"><ele>485.895</ele><time>2022-09-17T15:20:12Z</time></trkpt><trkpt lat="50.009375" lon="5.748484"><ele>486.249</ele><time>2022-09-17T15:20:13Z</time></trkpt><trkpt lat="50.009359" lon="5.748341"><ele>486.323</ele><time>2022-09-17T15:20:14Z</time></trkpt><trkpt lat="50.009338" lon="5.748194"><ele>486.509</ele><time>2022-09-17T15:20:15Z</time></trkpt><trkpt lat="50.009315" lon="5.748019"><ele>486.860</ele><time>2022-09-17T15:20:16Z</time></trkpt><trkpt lat="50.009290" lon="5.747844"><ele>486.810</ele><time>2022-09-17T15:20:17Z</time></trkpt><trkpt lat="50.009267" lon="5.747663"><ele>486.862</ele><time>2022-09-17T15:20:18Z</time></trkpt><trkpt lat="50.009243" lon="5.747486"><ele>486.888</ele><time>2022-09-17T15:20:19Z</time></trkpt><trkpt lat="50.009219" lon="5.747320"><ele>487.293</ele><time>2022-09-17T15:20:20Z</time></trkpt><trkpt lat="50.009203" lon="5.747150"><ele>488.128</ele><time>2022-09-17T15:20:21Z</time></trkpt><trkpt lat="50.009195" lon="5.746983"><ele>489.273</ele><time>2022-09-17T15:20:22Z</time></trkpt><trkpt lat="50.009193" lon="5.746819"><ele>490.587</ele><time>2022-09-17T15:20:23Z</time></trkpt><trkpt lat="50.009185" lon="5.746652"><ele>492.174</ele><time>2022-09-17T15:20:24Z</time></trkpt><trkpt lat="50.009173" lon="5.746487"><ele>493.734</ele><time>2022-09-17T15:20:25Z</time></trkpt><trkpt lat="50.009149" lon="5.746344"><ele>494.855</ele><time>2022-09-17T15:20:26Z</time></trkpt><trkpt lat="50.009129" lon="5.746206"><ele>495.710</ele><time>2022-09-17T15:20:27Z</time></trkpt><trkpt lat="50.009106" lon="5.746052"><ele>496.809</ele><time>2022-09-17T15:20:28Z</time></trkpt><trkpt lat="50.009088" lon="5.745888"><ele>497.884</ele><time>2022-09-17T15:20:29Z</time></trkpt><trkpt lat="50.009070" lon="5.745723"><ele>498.354</ele><time>2022-09-17T15:20:30Z</time></trkpt><trkpt lat="50.009055" lon="5.745568"><ele>499.356</ele><time>2022-09-17T15:20:31Z</time></trkpt><trkpt lat="50.009040" lon="5.745405"><ele>500.012</ele><time>2022-09-17T15:20:32Z</time></trkpt><trkpt lat="50.009037" lon="5.745238"><ele>500.357</ele><time>2022-09-17T15:20:33Z</time></trkpt><trkpt lat="50.009051" lon="5.745071"><ele>500.812</ele><time>2022-09-17T15:20:34Z</time></trkpt><trkpt lat="50.009068" lon="5.744890"><ele>501.077</ele><time>2022-09-17T15:20:35Z</time></trkpt><trkpt lat="50.009086" lon="5.744713"><ele>501.141</ele><time>2022-09-17T15:20:36Z</time></trkpt><trkpt lat="50.009118" lon="5.744546"><ele>501.628</ele><time>2022-09-17T15:20:37Z</time></trkpt><trkpt lat="50.009142" lon="5.744377"><ele>502.039</ele><time>2022-09-17T15:20:38Z</time></trkpt><trkpt lat="50.009171" lon="5.744213"><ele>502.401</ele><time>2022-09-17T15:20:39Z</time></trkpt><trkpt lat="50.009210" lon="5.744053"><ele>502.721</ele><time>2022-09-17T15:20:40Z</time></trkpt><trkpt lat="50.009240" lon="5.743891"><ele>503.309</ele><time>2022-09-17T15:20:41Z</time></trkpt><trkpt lat="50.009270" lon="5.743713"><ele>503.634</ele><time>2022-09-17T15:20:42Z</time></trkpt><trkpt lat="50.009296" lon="5.743559"><ele>504.484</ele><time>2022-09-17T15:20:43Z</time></trkpt><trkpt lat="50.009333" lon="5.743396"><ele>505.056</ele><time>2022-09-17T15:20:44Z</time></trkpt><trkpt lat="50.009377" lon="5.743229"><ele>505.722</ele><time>2022-09-17T15:20:45Z</time></trkpt><trkpt lat="50.009428" lon="5.743061"><ele>506.357</ele><time>2022-09-17T15:20:46Z</time></trkpt><trkpt lat="50.009476" lon="5.742892"><ele>506.892</ele><time>2022-09-17T15:20:47Z</time></trkpt><trkpt lat="50.009520" lon="5.742738"><ele>507.527</ele><time>2022-09-17T15:20:48Z</time></trkpt><trkpt lat="50.009578" lon="5.742586"><ele>508.051</ele><time>2022-09-17T15:20:49Z</time></trkpt><trkpt lat="50.009630" lon="5.742415"><ele>508.728</ele><time>2022-09-17T15:20:50Z</time></trkpt><trkpt lat="50.009685" lon="5.742229"><ele>509.433</ele><time>2022-09-17T15:20:51Z</time></trkpt><trkpt lat="50.009738" lon="5.742060"><ele>510.023</ele><time>2022-09-17T15:20:52Z</time></trkpt><trkpt lat="50.009785" lon="5.741879"><ele>510.415</ele><time>2022-09-17T15:20:53Z</time></trkpt><trkpt lat="50.009843" lon="5.741703"><ele>510.709</ele><time>2022-09-17T15:20:54Z</time></trkpt><trkpt lat="50.009886" lon="5.741584"><ele>510.844</ele><time>2022-09-17T15:20:55Z</time></trkpt><trkpt lat="50.009915" lon="5.741479"><ele>510.924</ele><time>2022-09-17T15:20:56Z</time></trkpt><trkpt lat="50.009955" lon="5.741385"><ele>511.076</ele><time>2022-09-17T15:20:57Z</time></trkpt><trkpt lat="50.010006" lon="5.741319"><ele>511.532</ele><time>2022-09-17T15:20:58Z</time></trkpt><trkpt lat="50.010093" lon="5.741287"><ele>512.337</ele><time>2022-09-17T15:20:59Z</time></trkpt><trkpt lat="50.010232" lon="5.741293"><ele>514.012</ele><time>2022-09-17T15:21:00Z</time></trkpt><trkpt lat="50.010401" lon="5.741300"><ele>515.927</ele><time>2022-09-17T15:21:01Z</time></trkpt><trkpt lat="50.010593" lon="5.741263"><ele>516.911</ele><time>2022-09-17T15:21:02Z</time></trkpt><trkpt lat="50.010754" lon="5.741218"><ele>517.348</ele><time>2022-09-17T15:21:03Z</time></trkpt><trkpt lat="50.010886" lon="5.741186"><ele>517.078</ele><time>2022-09-17T15:21:04Z</time></trkpt><trkpt lat="50.011017" lon="5.741167"><ele>516.733</ele><time>2022-09-17T15:21:05Z</time></trkpt><trkpt lat="50.011145" lon="5.741135"><ele>515.626</ele><time>2022-09-17T15:21:06Z</time></trkpt><trkpt lat="50.011286" lon="5.741110"><ele>513.709</ele><time>2022-09-17T15:21:07Z</time></trkpt><trkpt lat="50.011420" lon="5.741088"><ele>512.778</ele><time>2022-09-17T15:21:08Z</time></trkpt><trkpt lat="50.011539" lon="5.741072"><ele>512.728</ele><time>2022-09-17T15:21:09Z</time></trkpt><trkpt lat="50.011649" lon="5.741062"><ele>512.760</ele><time>2022-09-17T15:21:10Z</time></trkpt><trkpt lat="50.011756" lon="5.741043"><ele>512.796</ele><time>2022-09-17T15:21:11Z</time></trkpt><trkpt lat="50.011841" lon="5.741002"><ele>512.781</ele><time>2022-09-17T15:21:12Z</time></trkpt><trkpt lat="50.011934" lon="5.740967"><ele>513.046</ele><time>2022-09-17T15:21:13Z</time></trkpt><trkpt lat="50.012021" lon="5.740932"><ele>513.151</ele><time>2022-09-17T15:21:14Z</time></trkpt><trkpt lat="50.012078" lon="5.740898"><ele>513.195</ele><time>2022-09-17T15:21:15Z</time></trkpt><trkpt lat="50.012120" lon="5.740860"><ele>513.332</ele><time>2022-09-17T15:21:16Z</time></trkpt><trkpt lat="50.012184" lon="5.740802"><ele>513.741</ele><time>2022-09-17T15:21:18Z</time></trkpt><trkpt lat="50.012230" lon="5.740763"><ele>513.881</ele><time>2022-09-17T15:21:23Z</time></trkpt><trkpt lat="50.012292" lon="5.740728"><ele>514.309</ele><time>2022-09-17T15:21:26Z</time></trkpt><trkpt lat="50.012358" lon="5.740685"><ele>514.409</ele><time>2022-09-17T15:21:27Z</time></trkpt><trkpt lat="50.012436" lon="5.740658"><ele>514.865</ele><time>2022-09-17T15:21:28Z</time></trkpt><trkpt lat="50.012518" lon="5.740624"><ele>515.315</ele><time>2022-09-17T15:21:29Z</time></trkpt><trkpt lat="50.012606" lon="5.740591"><ele>515.747</ele><time>2022-09-17T15:21:30Z</time></trkpt><trkpt lat="50.012686" lon="5.740554"><ele>516.233</ele><time>2022-09-17T15:21:31Z</time></trkpt><trkpt lat="50.012760" lon="5.740515"><ele>516.758</ele><time>2022-09-17T15:21:32Z</time></trkpt><trkpt lat="50.012817" lon="5.740498"><ele>517.153</ele><time>2022-09-17T15:21:33Z</time></trkpt><trkpt lat="50.012903" lon="5.740461"><ele>517.668</ele><time>2022-09-17T15:21:35Z</time></trkpt><trkpt lat="50.012947" lon="5.740434"><ele>518.252</ele><time>2022-09-17T15:21:36Z</time></trkpt><trkpt lat="50.013037" lon="5.740471"><ele>518.889</ele><time>2022-09-17T15:21:38Z</time></trkpt><trkpt lat="50.013093" lon="5.740552"><ele>519.389</ele><time>2022-09-17T15:21:39Z</time></trkpt><trkpt lat="50.013151" lon="5.740666"><ele>519.706</ele><time>2022-09-17T15:21:40Z</time></trkpt><trkpt lat="50.013204" lon="5.740793"><ele>520.126</ele><time>2022-09-17T15:21:41Z</time></trkpt><trkpt lat="50.013269" lon="5.740965"><ele>520.609</ele><time>2022-09-17T15:21:42Z</time></trkpt><trkpt lat="50.013358" lon="5.741118"><ele>521.089</ele><time>2022-09-17T15:21:43Z</time></trkpt><trkpt lat="50.013434" lon="5.741260"><ele>521.029</ele><time>2022-09-17T15:21:44Z</time></trkpt><trkpt lat="50.013503" lon="5.741378"><ele>521.031</ele><time>2022-09-17T15:21:45Z</time></trkpt><trkpt lat="50.013594" lon="5.741520"><ele>521.027</ele><time>2022-09-17T15:21:46Z</time></trkpt><trkpt lat="50.013681" lon="5.741663"><ele>521.222</ele><time>2022-09-17T15:21:47Z</time></trkpt><trkpt lat="50.013751" lon="5.741790"><ele>521.357</ele><time>2022-09-17T15:21:48Z</time></trkpt><trkpt lat="50.013823" lon="5.741923"><ele>521.572</ele><time>2022-09-17T15:21:49Z</time></trkpt><trkpt lat="50.013882" lon="5.742061"><ele>522.216</ele><time>2022-09-17T15:21:50Z</time></trkpt><trkpt lat="50.013955" lon="5.742183"><ele>522.383</ele><time>2022-09-17T15:21:51Z</time></trkpt><trkpt lat="50.014027" lon="5.742291"><ele>522.651</ele><time>2022-09-17T15:21:52Z</time></trkpt><trkpt lat="50.014116" lon="5.742371"><ele>522.601</ele><time>2022-09-17T15:21:53Z</time></trkpt><trkpt lat="50.014202" lon="5.742499"><ele>522.611</ele><time>2022-09-17T15:21:54Z</time></trkpt><trkpt lat="50.014260" lon="5.742638"><ele>522.609</ele><time>2022-09-17T15:21:55Z</time></trkpt><trkpt lat="50.014332" lon="5.742774"><ele>522.886</ele><time>2022-09-17T15:21:56Z</time></trkpt><trkpt lat="50.014401" lon="5.742900"><ele>522.816</ele><time>2022-09-17T15:21:57Z</time></trkpt><trkpt lat="50.014464" lon="5.743007"><ele>523.168</ele><time>2022-09-17T15:21:58Z</time></trkpt><trkpt lat="50.014516" lon="5.743118"><ele>523.344</ele><time>2022-09-17T15:21:59Z</time></trkpt><trkpt lat="50.014568" lon="5.743211"><ele>523.569</ele><time>2022-09-17T15:22:00Z</time></trkpt><trkpt lat="50.014622" lon="5.743274"><ele>523.844</ele><time>2022-09-17T15:22:01Z</time></trkpt><trkpt lat="50.014685" lon="5.743309"><ele>524.019</ele><time>2022-09-17T15:22:02Z</time></trkpt><trkpt lat="50.014750" lon="5.743315"><ele>524.123</ele><time>2022-09-17T15:22:03Z</time></trkpt><trkpt lat="50.014842" lon="5.743275"><ele>524.360</ele><time>2022-09-17T15:22:04Z</time></trkpt><trkpt lat="50.014911" lon="5.743244"><ele>524.664</ele><time>2022-09-17T15:22:05Z</time></trkpt><trkpt lat="50.015007" lon="5.743209"><ele>525.006</ele><time>2022-09-17T15:22:06Z</time></trkpt><trkpt lat="50.015089" lon="5.743166"><ele>525.416</ele><time>2022-09-17T15:22:07Z</time></trkpt><trkpt lat="50.015175" lon="5.743124"><ele>525.809</ele><time>2022-09-17T15:22:08Z</time></trkpt><trkpt lat="50.015242" lon="5.743083"><ele>525.897</ele><time>2022-09-17T15:22:09Z</time></trkpt><trkpt lat="50.015311" lon="5.743047"><ele>525.847</ele><time>2022-09-17T15:22:10Z</time></trkpt><trkpt lat="50.015348" lon="5.742989"><ele>525.849</ele><time>2022-09-17T15:22:11Z</time></trkpt><trkpt lat="50.015408" lon="5.742908"><ele>525.885</ele><time>2022-09-17T15:22:12Z</time></trkpt><trkpt lat="50.015457" lon="5.742830"><ele>525.860</ele><time>2022-09-17T15:22:13Z</time></trkpt><trkpt lat="50.015516" lon="5.742745"><ele>525.895</ele><time>2022-09-17T15:22:14Z</time></trkpt><trkpt lat="50.015572" lon="5.742655"><ele>525.990</ele><time>2022-09-17T15:22:15Z</time></trkpt><trkpt lat="50.015632" lon="5.742559"><ele>526.024</ele><time>2022-09-17T15:22:16Z</time></trkpt><trkpt lat="50.015706" lon="5.742470"><ele>526.121</ele><time>2022-09-17T15:22:17Z</time></trkpt><trkpt lat="50.015783" lon="5.742381"><ele>526.179</ele><time>2022-09-17T15:22:18Z</time></trkpt><trkpt lat="50.015872" lon="5.742278"><ele>526.105</ele><time>2022-09-17T15:22:19Z</time></trkpt><trkpt lat="50.015966" lon="5.742156"><ele>526.125</ele><time>2022-09-17T15:22:20Z</time></trkpt><trkpt lat="50.016068" lon="5.742027"><ele>525.309</ele><time>2022-09-17T15:22:21Z</time></trkpt><trkpt lat="50.016166" lon="5.741909"><ele>524.158</ele><time>2022-09-17T15:22:22Z</time></trkpt><trkpt lat="50.016245" lon="5.741783"><ele>522.968</ele><time>2022-09-17T15:22:23Z</time></trkpt><trkpt lat="50.016333" lon="5.741654"><ele>521.150</ele><time>2022-09-17T15:22:24Z</time></trkpt><trkpt lat="50.016397" lon="5.741536"><ele>519.036</ele><time>2022-09-17T15:22:25Z</time></trkpt><trkpt lat="50.016464" lon="5.741397"><ele>517.941</ele><time>2022-09-17T15:22:26Z</time></trkpt><trkpt lat="50.016534" lon="5.741269"><ele>516.676</ele><time>2022-09-17T15:22:27Z</time></trkpt><trkpt lat="50.016596" lon="5.741141"><ele>515.761</ele><time>2022-09-17T15:22:28Z</time></trkpt><trkpt lat="50.016649" lon="5.741027"><ele>515.185</ele><time>2022-09-17T15:22:29Z</time></trkpt><trkpt lat="50.016712" lon="5.740906"><ele>514.892</ele><time>2022-09-17T15:22:30Z</time></trkpt><trkpt lat="50.016788" lon="5.740776"><ele>513.994</ele><time>2022-09-17T15:22:31Z</time></trkpt><trkpt lat="50.016855" lon="5.740676"><ele>513.457</ele><time>2022-09-17T15:22:32Z</time></trkpt><trkpt lat="50.016925" lon="5.740567"><ele>512.622</ele><time>2022-09-17T15:22:33Z</time></trkpt><trkpt lat="50.016990" lon="5.740464"><ele>511.809</ele><time>2022-09-17T15:22:34Z</time></trkpt><trkpt lat="50.017051" lon="5.740384"><ele>511.290</ele><time>2022-09-17T15:22:35Z</time></trkpt><trkpt lat="50.017100" lon="5.740337"><ele>510.990</ele><time>2022-09-17T15:22:36Z</time></trkpt><trkpt lat="50.017149" lon="5.740306"><ele>510.652</ele><time>2022-09-17T15:22:37Z</time></trkpt><trkpt lat="50.017196" lon="5.740327"><ele>510.698</ele><time>2022-09-17T15:22:38Z</time></trkpt><trkpt lat="50.017246" lon="5.740362"><ele>510.653</ele><time>2022-09-17T15:22:39Z</time></trkpt><trkpt lat="50.017332" lon="5.740414"><ele>510.658</ele><time>2022-09-17T15:22:40Z</time></trkpt><trkpt lat="50.017426" lon="5.740487"><ele>510.793</ele><time>2022-09-17T15:22:41Z</time></trkpt><trkpt lat="50.017531" lon="5.740599"><ele>511.157</ele><time>2022-09-17T15:22:42Z</time></trkpt><trkpt lat="50.017628" lon="5.740679"><ele>511.194</ele><time>2022-09-17T15:22:43Z</time></trkpt><trkpt lat="50.017714" lon="5.740771"><ele>511.146</ele><time>2022-09-17T15:22:44Z</time></trkpt><trkpt lat="50.017767" lon="5.740848"><ele>510.688</ele><time>2022-09-17T15:22:45Z</time></trkpt><trkpt lat="50.017821" lon="5.740908"><ele>510.416</ele><time>2022-09-17T15:22:46Z</time></trkpt><trkpt lat="50.017871" lon="5.740963"><ele>509.809</ele><time>2022-09-17T15:22:47Z</time></trkpt><trkpt lat="50.017915" lon="5.740994"><ele>509.485</ele><time>2022-09-17T15:22:48Z</time></trkpt><trkpt lat="50.017948" lon="5.741047"><ele>509.255</ele><time>2022-09-17T15:22:49Z</time></trkpt><trkpt lat="50.017997" lon="5.741158"><ele>508.837</ele><time>2022-09-17T15:22:51Z</time></trkpt><trkpt lat="50.017991" lon="5.741250"><ele>508.883</ele><time>2022-09-17T15:22:52Z</time></trkpt><trkpt lat="50.017929" lon="5.741389"><ele>508.858</ele><time>2022-09-17T15:22:53Z</time></trkpt><trkpt lat="50.017784" lon="5.741610"><ele>509.493</ele><time>2022-09-17T15:22:54Z</time></trkpt><trkpt lat="50.017722" lon="5.741808"><ele>509.978</ele><time>2022-09-17T15:22:55Z</time></trkpt><trkpt lat="50.017657" lon="5.741969"><ele>510.182</ele><time>2022-09-17T15:22:56Z</time></trkpt><trkpt lat="50.017659" lon="5.742172"><ele>510.769</ele><time>2022-09-17T15:22:57Z</time></trkpt><trkpt lat="50.017664" lon="5.742330"><ele>511.143</ele><time>2022-09-17T15:22:58Z</time></trkpt><trkpt lat="50.017665" lon="5.742469"><ele>511.564</ele><time>2022-09-17T15:22:59Z</time></trkpt><trkpt lat="50.017649" lon="5.742611"><ele>511.910</ele><time>2022-09-17T15:23:00Z</time></trkpt><trkpt lat="50.017641" lon="5.742740"><ele>512.309</ele><time>2022-09-17T15:23:01Z</time></trkpt><trkpt lat="50.017637" lon="5.742849"><ele>512.985</ele><time>2022-09-17T15:23:02Z</time></trkpt><trkpt lat="50.017645" lon="5.742958"><ele>513.545</ele><time>2022-09-17T15:23:03Z</time></trkpt><trkpt lat="50.017687" lon="5.743045"><ele>514.197</ele><time>2022-09-17T15:23:04Z</time></trkpt><trkpt lat="50.017744" lon="5.743131"><ele>514.513</ele><time>2022-09-17T15:23:05Z</time></trkpt><trkpt lat="50.017832" lon="5.743205"><ele>514.748</ele><time>2022-09-17T15:23:06Z</time></trkpt><trkpt lat="50.017924" lon="5.743289"><ele>515.033</ele><time>2022-09-17T15:23:07Z</time></trkpt><trkpt lat="50.018038" lon="5.743413"><ele>515.218</ele><time>2022-09-17T15:23:08Z</time></trkpt><trkpt lat="50.018155" lon="5.743532"><ele>515.922</ele><time>2022-09-17T15:23:09Z</time></trkpt><trkpt lat="50.018262" lon="5.743649"><ele>516.019</ele><time>2022-09-17T15:23:10Z</time></trkpt><trkpt lat="50.018384" lon="5.743755"><ele>515.916</ele><time>2022-09-17T15:23:11Z</time></trkpt><trkpt lat="50.018499" lon="5.743864"><ele>515.676</ele><time>2022-09-17T15:23:12Z</time></trkpt><trkpt lat="50.018616" lon="5.743964"><ele>515.413</ele><time>2022-09-17T15:23:13Z</time></trkpt><trkpt lat="50.018731" lon="5.744064"><ele>515.109</ele><time>2022-09-17T15:23:14Z</time></trkpt><trkpt lat="50.018852" lon="5.744159"><ele>515.152</ele><time>2022-09-17T15:23:15Z</time></trkpt><trkpt lat="50.018972" lon="5.744259"><ele>515.812</ele><time>2022-09-17T15:23:16Z</time></trkpt><trkpt lat="50.019084" lon="5.744348"><ele>516.194</ele><time>2022-09-17T15:23:17Z</time></trkpt><trkpt lat="50.019180" lon="5.744431"><ele>516.560</ele><time>2022-09-17T15:23:18Z</time></trkpt><trkpt lat="50.019281" lon="5.744514"><ele>516.745</ele><time>2022-09-17T15:23:19Z</time></trkpt><trkpt lat="50.019374" lon="5.744610"><ele>516.860</ele><time>2022-09-17T15:23:20Z</time></trkpt><trkpt lat="50.019462" lon="5.744706"><ele>517.485</ele><time>2022-09-17T15:23:21Z</time></trkpt><trkpt lat="50.019548" lon="5.744816"><ele>518.249</ele><time>2022-09-17T15:23:22Z</time></trkpt><trkpt lat="50.019631" lon="5.744925"><ele>519.386</ele><time>2022-09-17T15:23:23Z</time></trkpt><trkpt lat="50.019704" lon="5.745036"><ele>520.538</ele><time>2022-09-17T15:23:24Z</time></trkpt><trkpt lat="50.019773" lon="5.745159"><ele>521.770</ele><time>2022-09-17T15:23:25Z</time></trkpt><trkpt lat="50.019835" lon="5.745281"><ele>522.317</ele><time>2022-09-17T15:23:26Z</time></trkpt><trkpt lat="50.019900" lon="5.745403"><ele>522.509</ele><time>2022-09-17T15:23:27Z</time></trkpt><trkpt lat="50.019973" lon="5.745512"><ele>522.524</ele><time>2022-09-17T15:23:28Z</time></trkpt><trkpt lat="50.020047" lon="5.745619"><ele>522.224</ele><time>2022-09-17T15:23:29Z</time></trkpt><trkpt lat="50.020118" lon="5.745720"><ele>521.736</ele><time>2022-09-17T15:23:30Z</time></trkpt><trkpt lat="50.020203" lon="5.745813"><ele>521.332</ele><time>2022-09-17T15:23:31Z</time></trkpt><trkpt lat="50.020293" lon="5.745906"><ele>520.897</ele><time>2022-09-17T15:23:32Z</time></trkpt><trkpt lat="50.020389" lon="5.745991"><ele>520.432</ele><time>2022-09-17T15:23:33Z</time></trkpt><trkpt lat="50.020491" lon="5.746081"><ele>520.037</ele><time>2022-09-17T15:23:34Z</time></trkpt><trkpt lat="50.020590" lon="5.746178"><ele>519.591</ele><time>2022-09-17T15:23:35Z</time></trkpt><trkpt lat="50.020688" lon="5.746275"><ele>518.988</ele><time>2022-09-17T15:23:36Z</time></trkpt><trkpt lat="50.020778" lon="5.746377"><ele>518.029</ele><time>2022-09-17T15:23:37Z</time></trkpt><trkpt lat="50.020859" lon="5.746496"><ele>517.300</ele><time>2022-09-17T15:23:38Z</time></trkpt><trkpt lat="50.020944" lon="5.746609"><ele>516.620</ele><time>2022-09-17T15:23:39Z</time></trkpt><trkpt lat="50.021031" lon="5.746716"><ele>516.409</ele><time>2022-09-17T15:23:40Z</time></trkpt><trkpt lat="50.021124" lon="5.746833"><ele>516.133</ele><time>2022-09-17T15:23:41Z</time></trkpt><trkpt lat="50.021216" lon="5.746963"><ele>516.193</ele><time>2022-09-17T15:23:42Z</time></trkpt><trkpt lat="50.021304" lon="5.747118"><ele>516.255</ele><time>2022-09-17T15:23:43Z</time></trkpt><trkpt lat="50.021390" lon="5.747273"><ele>516.211</ele><time>2022-09-17T15:23:44Z</time></trkpt><trkpt lat="50.021475" lon="5.747427"><ele>516.236</ele><time>2022-09-17T15:23:45Z</time></trkpt><trkpt lat="50.021554" lon="5.747576"><ele>516.281</ele><time>2022-09-17T15:23:46Z</time></trkpt><trkpt lat="50.021625" lon="5.747715"><ele>516.256</ele><time>2022-09-17T15:23:47Z</time></trkpt><trkpt lat="50.021696" lon="5.747848"><ele>516.110</ele><time>2022-09-17T15:23:48Z</time></trkpt><trkpt lat="50.021771" lon="5.747980"><ele>515.597</ele><time>2022-09-17T15:23:49Z</time></trkpt><trkpt lat="50.021848" lon="5.748114"><ele>515.227</ele><time>2022-09-17T15:23:50Z</time></trkpt><trkpt lat="50.021933" lon="5.748244"><ele>515.168</ele><time>2022-09-17T15:23:51Z</time></trkpt><trkpt lat="50.022022" lon="5.748367"><ele>514.914</ele><time>2022-09-17T15:23:52Z</time></trkpt><trkpt lat="50.022117" lon="5.748482"><ele>514.909</ele><time>2022-09-17T15:23:53Z</time></trkpt><trkpt lat="50.022220" lon="5.748587"><ele>514.913</ele><time>2022-09-17T15:23:54Z</time></trkpt><trkpt lat="50.022320" lon="5.748673"><ele>514.883</ele><time>2022-09-17T15:23:55Z</time></trkpt><trkpt lat="50.022436" lon="5.748737"><ele>514.545</ele><time>2022-09-17T15:23:56Z</time></trkpt><trkpt lat="50.022553" lon="5.748780"><ele>513.941</ele><time>2022-09-17T15:23:57Z</time></trkpt><trkpt lat="50.022677" lon="5.748816"><ele>513.346</ele><time>2022-09-17T15:23:58Z</time></trkpt><trkpt lat="50.022793" lon="5.748860"><ele>513.131</ele><time>2022-09-17T15:23:59Z</time></trkpt><trkpt lat="50.022912" lon="5.748912"><ele>512.946</ele><time>2022-09-17T15:24:00Z</time></trkpt><trkpt lat="50.023030" lon="5.748964"><ele>512.970</ele><time>2022-09-17T15:24:01Z</time></trkpt><trkpt lat="50.023147" lon="5.749034"><ele>512.957</ele><time>2022-09-17T15:24:02Z</time></trkpt><trkpt lat="50.023257" lon="5.749121"><ele>512.953</ele><time>2022-09-17T15:24:03Z</time></trkpt><trkpt lat="50.023359" lon="5.749210"><ele>512.604</ele><time>2022-09-17T15:24:04Z</time></trkpt><trkpt lat="50.023460" lon="5.749315"><ele>512.114</ele><time>2022-09-17T15:24:05Z</time></trkpt><trkpt lat="50.023539" lon="5.749420"><ele>511.609</ele><time>2022-09-17T15:24:06Z</time></trkpt><trkpt lat="50.023607" lon="5.749554"><ele>511.076</ele><time>2022-09-17T15:24:07Z</time></trkpt><trkpt lat="50.023667" lon="5.749685"><ele>510.466</ele><time>2022-09-17T15:24:08Z</time></trkpt><trkpt lat="50.023728" lon="5.749821"><ele>510.198</ele><time>2022-09-17T15:24:09Z</time></trkpt><trkpt lat="50.023794" lon="5.749954"><ele>509.824</ele><time>2022-09-17T15:24:10Z</time></trkpt><trkpt lat="50.023858" lon="5.750079"><ele>509.589</ele><time>2022-09-17T15:24:11Z</time></trkpt><trkpt lat="50.023925" lon="5.750223"><ele>509.014</ele><time>2022-09-17T15:24:12Z</time></trkpt><trkpt lat="50.024003" lon="5.750381"><ele>508.619</ele><time>2022-09-17T15:24:13Z</time></trkpt><trkpt lat="50.024079" lon="5.750507"><ele>507.713</ele><time>2022-09-17T15:24:14Z</time></trkpt><trkpt lat="50.024173" lon="5.750623"><ele>507.010</ele><time>2022-09-17T15:24:15Z</time></trkpt><trkpt lat="50.024265" lon="5.750728"><ele>506.252</ele><time>2022-09-17T15:24:16Z</time></trkpt><trkpt lat="50.024365" lon="5.750813"><ele>506.253</ele><time>2022-09-17T15:24:17Z</time></trkpt><trkpt lat="50.024465" lon="5.750883"><ele>506.708</ele><time>2022-09-17T15:24:18Z</time></trkpt><trkpt lat="50.024554" lon="5.750973"><ele>507.909</ele><time>2022-09-17T15:24:19Z</time></trkpt><trkpt lat="50.024650" lon="5.751080"><ele>509.056</ele><time>2022-09-17T15:24:20Z</time></trkpt><trkpt lat="50.024744" lon="5.751183"><ele>510.596</ele><time>2022-09-17T15:24:21Z</time></trkpt><trkpt lat="50.024827" lon="5.751345"><ele>511.398</ele><time>2022-09-17T15:24:22Z</time></trkpt><trkpt lat="50.024909" lon="5.751481"><ele>511.364</ele><time>2022-09-17T15:24:23Z</time></trkpt><trkpt lat="50.024996" lon="5.751604"><ele>511.329</ele><time>2022-09-17T15:24:24Z</time></trkpt><trkpt lat="50.025092" lon="5.751719"><ele>511.364</ele><time>2022-09-17T15:24:25Z</time></trkpt><trkpt lat="50.025182" lon="5.751827"><ele>511.349</ele><time>2022-09-17T15:24:26Z</time></trkpt><trkpt lat="50.025273" lon="5.751936"><ele>511.363</ele><time>2022-09-17T15:24:27Z</time></trkpt><trkpt lat="50.025359" lon="5.752070"><ele>511.880</ele><time>2022-09-17T15:24:28Z</time></trkpt><trkpt lat="50.025445" lon="5.752203"><ele>512.292</ele><time>2022-09-17T15:24:29Z</time></trkpt><trkpt lat="50.025526" lon="5.752344"><ele>513.073</ele><time>2022-09-17T15:24:30Z</time></trkpt><trkpt lat="50.025604" lon="5.752502"><ele>513.520</ele><time>2022-09-17T15:24:31Z</time></trkpt><trkpt lat="50.025679" lon="5.752665"><ele>514.209</ele><time>2022-09-17T15:24:32Z</time></trkpt><trkpt lat="50.025757" lon="5.752823"><ele>514.590</ele><time>2022-09-17T15:24:33Z</time></trkpt><trkpt lat="50.025840" lon="5.752979"><ele>514.580</ele><time>2022-09-17T15:24:34Z</time></trkpt><trkpt lat="50.025922" lon="5.753125"><ele>514.342</ele><time>2022-09-17T15:24:35Z</time></trkpt><trkpt lat="50.025999" lon="5.753271"><ele>513.748</ele><time>2022-09-17T15:24:36Z</time></trkpt><trkpt lat="50.026071" lon="5.753403"><ele>513.233</ele><time>2022-09-17T15:24:37Z</time></trkpt><trkpt lat="50.026134" lon="5.753513"><ele>512.978</ele><time>2022-09-17T15:24:38Z</time></trkpt><trkpt lat="50.026197" lon="5.753619"><ele>512.883</ele><time>2022-09-17T15:24:39Z</time></trkpt><trkpt lat="50.026259" lon="5.753719"><ele>512.357</ele><time>2022-09-17T15:24:40Z</time></trkpt><trkpt lat="50.026342" lon="5.753821"><ele>512.324</ele><time>2022-09-17T15:24:41Z</time></trkpt><trkpt lat="50.026423" lon="5.753914"><ele>512.239</ele><time>2022-09-17T15:24:42Z</time></trkpt><trkpt lat="50.026497" lon="5.753986"><ele>512.201</ele><time>2022-09-17T15:24:43Z</time></trkpt><trkpt lat="50.026581" lon="5.754062"><ele>511.921</ele><time>2022-09-17T15:24:44Z</time></trkpt><trkpt lat="50.026655" lon="5.754159"><ele>511.909</ele><time>2022-09-17T15:24:45Z</time></trkpt><trkpt lat="50.026726" lon="5.754267"><ele>511.924</ele><time>2022-09-17T15:24:46Z</time></trkpt><trkpt lat="50.026801" lon="5.754391"><ele>511.944</ele><time>2022-09-17T15:24:47Z</time></trkpt><trkpt lat="50.026882" lon="5.754511"><ele>511.896</ele><time>2022-09-17T15:24:48Z</time></trkpt><trkpt lat="50.026970" lon="5.754627"><ele>511.832</ele><time>2022-09-17T15:24:49Z</time></trkpt><trkpt lat="50.027049" lon="5.754749"><ele>511.957</ele><time>2022-09-17T15:24:50Z</time></trkpt><trkpt lat="50.027118" lon="5.754887"><ele>512.132</ele><time>2022-09-17T15:24:51Z</time></trkpt><trkpt lat="50.027181" lon="5.755014"><ele>512.657</ele><time>2022-09-17T15:24:52Z</time></trkpt><trkpt lat="50.027219" lon="5.755165"><ele>513.241</ele><time>2022-09-17T15:24:53Z</time></trkpt><trkpt lat="50.027239" lon="5.755334"><ele>513.998</ele><time>2022-09-17T15:24:54Z</time></trkpt><trkpt lat="50.027257" lon="5.755539"><ele>514.886</ele><time>2022-09-17T15:24:55Z</time></trkpt><trkpt lat="50.027266" lon="5.755746"><ele>515.660</ele><time>2022-09-17T15:24:56Z</time></trkpt><trkpt lat="50.027296" lon="5.755930"><ele>516.526</ele><time>2022-09-17T15:24:57Z</time></trkpt><trkpt lat="50.027337" lon="5.756113"><ele>517.509</ele><time>2022-09-17T15:24:58Z</time></trkpt><trkpt lat="50.027392" lon="5.756292"><ele>518.299</ele><time>2022-09-17T15:24:59Z</time></trkpt><trkpt lat="50.027458" lon="5.756439"><ele>518.979</ele><time>2022-09-17T15:25:00Z</time></trkpt><trkpt lat="50.027522" lon="5.756559"><ele>519.071</ele><time>2022-09-17T15:25:01Z</time></trkpt><trkpt lat="50.027579" lon="5.756680"><ele>519.027</ele><time>2022-09-17T15:25:02Z</time></trkpt><trkpt lat="50.027626" lon="5.756788"><ele>518.512</ele><time>2022-09-17T15:25:03Z</time></trkpt><trkpt lat="50.027661" lon="5.756878"><ele>518.377</ele><time>2022-09-17T15:25:04Z</time></trkpt><trkpt lat="50.027691" lon="5.756949"><ele>517.822</ele><time>2022-09-17T15:25:05Z</time></trkpt><trkpt lat="50.027676" lon="5.757048"><ele>517.546</ele><time>2022-09-17T15:25:06Z</time></trkpt><trkpt lat="50.027720" lon="5.757136"><ele>517.443</ele><time>2022-09-17T15:25:08Z</time></trkpt><trkpt lat="50.027750" lon="5.757196"><ele>517.116</ele><time>2022-09-17T15:25:09Z</time></trkpt><trkpt lat="50.027804" lon="5.757304"><ele>516.876</ele><time>2022-09-17T15:25:10Z</time></trkpt><trkpt lat="50.027860" lon="5.757416"><ele>516.713</ele><time>2022-09-17T15:25:11Z</time></trkpt><trkpt lat="50.027929" lon="5.757553"><ele>516.709</ele><time>2022-09-17T15:25:12Z</time></trkpt><trkpt lat="50.028014" lon="5.757721"><ele>516.942</ele><time>2022-09-17T15:25:13Z</time></trkpt><trkpt lat="50.028081" lon="5.757856"><ele>516.952</ele><time>2022-09-17T15:25:14Z</time></trkpt><trkpt lat="50.028149" lon="5.757976"><ele>516.854</ele><time>2022-09-17T15:25:15Z</time></trkpt><trkpt lat="50.028224" lon="5.758107"><ele>516.250</ele><time>2022-09-17T15:25:16Z</time></trkpt><trkpt lat="50.028302" lon="5.758235"><ele>515.885</ele><time>2022-09-17T15:25:17Z</time></trkpt><trkpt lat="50.028380" lon="5.758368"><ele>515.340</ele><time>2022-09-17T15:25:18Z</time></trkpt><trkpt lat="50.028460" lon="5.758502"><ele>514.655</ele><time>2022-09-17T15:25:19Z</time></trkpt><trkpt lat="50.028542" lon="5.758634"><ele>514.679</ele><time>2022-09-17T15:25:20Z</time></trkpt><trkpt lat="50.028625" lon="5.758769"><ele>514.696</ele><time>2022-09-17T15:25:21Z</time></trkpt><trkpt lat="50.028709" lon="5.758917"><ele>514.295</ele><time>2022-09-17T15:25:22Z</time></trkpt><trkpt lat="50.028784" lon="5.759032"><ele>514.249</ele><time>2022-09-17T15:25:23Z</time></trkpt><trkpt lat="50.028839" lon="5.759167"><ele>514.223</ele><time>2022-09-17T15:25:24Z</time></trkpt><trkpt lat="50.028892" lon="5.759279"><ele>514.309</ele><time>2022-09-17T15:25:25Z</time></trkpt><trkpt lat="50.028932" lon="5.759370"><ele>514.560</ele><time>2022-09-17T15:25:26Z</time></trkpt><trkpt lat="50.028966" lon="5.759465"><ele>514.910</ele><time>2022-09-17T15:25:27Z</time></trkpt><trkpt lat="50.028999" lon="5.759558"><ele>515.372</ele><time>2022-09-17T15:25:28Z</time></trkpt><trkpt lat="50.029031" lon="5.759661"><ele>515.438</ele><time>2022-09-17T15:25:29Z</time></trkpt><trkpt lat="50.029064" lon="5.759783"><ele>515.483</ele><time>2022-09-17T15:25:30Z</time></trkpt><trkpt lat="50.029093" lon="5.759900"><ele>515.348</ele><time>2022-09-17T15:25:31Z</time></trkpt><trkpt lat="50.029112" lon="5.760010"><ele>515.263</ele><time>2022-09-17T15:25:32Z</time></trkpt><trkpt lat="50.029132" lon="5.760126"><ele>515.077</ele><time>2022-09-17T15:25:33Z</time></trkpt><trkpt lat="50.029144" lon="5.760229"><ele>514.734</ele><time>2022-09-17T15:25:34Z</time></trkpt><trkpt lat="50.029174" lon="5.760345"><ele>514.651</ele><time>2022-09-17T15:25:35Z</time></trkpt><trkpt lat="50.029184" lon="5.760470"><ele>514.601</ele><time>2022-09-17T15:25:36Z</time></trkpt><trkpt lat="50.029193" lon="5.760605"><ele>514.611</ele><time>2022-09-17T15:25:37Z</time></trkpt><trkpt lat="50.029211" lon="5.760748"><ele>514.509</ele><time>2022-09-17T15:25:38Z</time></trkpt><trkpt lat="50.029241" lon="5.760906"><ele>514.466</ele><time>2022-09-17T15:25:39Z</time></trkpt><trkpt lat="50.029282" lon="5.761069"><ele>514.836</ele><time>2022-09-17T15:25:40Z</time></trkpt><trkpt lat="50.029327" lon="5.761241"><ele>514.958</ele><time>2022-09-17T15:25:41Z</time></trkpt><trkpt lat="50.029385" lon="5.761403"><ele>515.164</ele><time>2022-09-17T15:25:42Z</time></trkpt><trkpt lat="50.029444" lon="5.761597"><ele>515.549</ele><time>2022-09-17T15:25:43Z</time></trkpt><trkpt lat="50.029534" lon="5.761806"><ele>516.274</ele><time>2022-09-17T15:25:44Z</time></trkpt><trkpt lat="50.029612" lon="5.761990"><ele>517.059</ele><time>2022-09-17T15:25:45Z</time></trkpt><trkpt lat="50.029688" lon="5.762177"><ele>518.093</ele><time>2022-09-17T15:25:46Z</time></trkpt><trkpt lat="50.029758" lon="5.762346"><ele>518.620</ele><time>2022-09-17T15:25:47Z</time></trkpt><trkpt lat="50.029832" lon="5.762511"><ele>518.769</ele><time>2022-09-17T15:25:48Z</time></trkpt><trkpt lat="50.029905" lon="5.762670"><ele>518.704</ele><time>2022-09-17T15:25:49Z</time></trkpt><trkpt lat="50.029977" lon="5.762824"><ele>518.724</ele><time>2022-09-17T15:25:50Z</time></trkpt><trkpt lat="50.030046" lon="5.762979"><ele>518.609</ele><time>2022-09-17T15:25:51Z</time></trkpt><trkpt lat="50.030112" lon="5.763135"><ele>518.677</ele><time>2022-09-17T15:25:52Z</time></trkpt><trkpt lat="50.030179" lon="5.763288"><ele>519.127</ele><time>2022-09-17T15:25:53Z</time></trkpt><trkpt lat="50.030247" lon="5.763450"><ele>519.569</ele><time>2022-09-17T15:25:54Z</time></trkpt><trkpt lat="50.030316" lon="5.763603"><ele>519.935</ele><time>2022-09-17T15:25:55Z</time></trkpt><trkpt lat="50.030383" lon="5.763762"><ele>520.730</ele><time>2022-09-17T15:25:56Z</time></trkpt><trkpt lat="50.030448" lon="5.763912"><ele>520.875</ele><time>2022-09-17T15:25:57Z</time></trkpt><trkpt lat="50.030518" lon="5.764067"><ele>520.860</ele><time>2022-09-17T15:25:58Z</time></trkpt><trkpt lat="50.030589" lon="5.764229"><ele>521.034</ele><time>2022-09-17T15:25:59Z</time></trkpt><trkpt lat="50.030658" lon="5.764387"><ele>521.091</ele><time>2022-09-17T15:26:00Z</time></trkpt><trkpt lat="50.030722" lon="5.764555"><ele>521.043</ele><time>2022-09-17T15:26:01Z</time></trkpt><trkpt lat="50.030785" lon="5.764719"><ele>521.064</ele><time>2022-09-17T15:26:02Z</time></trkpt><trkpt lat="50.030852" lon="5.764881"><ele>521.310</ele><time>2022-09-17T15:26:03Z</time></trkpt><trkpt lat="50.030921" lon="5.765055"><ele>521.509</ele><time>2022-09-17T15:26:04Z</time></trkpt><trkpt lat="50.030983" lon="5.765228"><ele>521.825</ele><time>2022-09-17T15:26:05Z</time></trkpt><trkpt lat="50.031054" lon="5.765412"><ele>522.015</ele><time>2022-09-17T15:26:06Z</time></trkpt><trkpt lat="50.031121" lon="5.765578"><ele>522.027</ele><time>2022-09-17T15:26:07Z</time></trkpt><trkpt lat="50.031192" lon="5.765763"><ele>522.443</ele><time>2022-09-17T15:26:08Z</time></trkpt><trkpt lat="50.031266" lon="5.765948"><ele>522.728</ele><time>2022-09-17T15:26:09Z</time></trkpt><trkpt lat="50.031339" lon="5.766132"><ele>522.813</ele><time>2022-09-17T15:26:10Z</time></trkpt><trkpt lat="50.031421" lon="5.766320"><ele>523.148</ele><time>2022-09-17T15:26:11Z</time></trkpt><trkpt lat="50.031495" lon="5.766488"><ele>523.512</ele><time>2022-09-17T15:26:12Z</time></trkpt><trkpt lat="50.031566" lon="5.766657"><ele>523.719</ele><time>2022-09-17T15:26:13Z</time></trkpt><trkpt lat="50.031628" lon="5.766807"><ele>523.959</ele><time>2022-09-17T15:26:14Z</time></trkpt><trkpt lat="50.031705" lon="5.766968"><ele>524.503</ele><time>2022-09-17T15:26:15Z</time></trkpt><trkpt lat="50.031792" lon="5.767145"><ele>525.223</ele><time>2022-09-17T15:26:16Z</time></trkpt><trkpt lat="50.031867" lon="5.767309"><ele>525.609</ele><time>2022-09-17T15:26:17Z</time></trkpt><trkpt lat="50.031939" lon="5.767474"><ele>525.886</ele><time>2022-09-17T15:26:18Z</time></trkpt><trkpt lat="50.032017" lon="5.767647"><ele>525.986</ele><time>2022-09-17T15:26:19Z</time></trkpt><trkpt lat="50.032096" lon="5.767825"><ele>526.888</ele><time>2022-09-17T15:26:20Z</time></trkpt><trkpt lat="50.032172" lon="5.768007"><ele>527.434</ele><time>2022-09-17T15:26:21Z</time></trkpt><trkpt lat="50.032245" lon="5.768178"><ele>527.979</ele><time>2022-09-17T15:26:22Z</time></trkpt><trkpt lat="50.032315" lon="5.768345"><ele>528.144</ele><time>2022-09-17T15:26:23Z</time></trkpt><trkpt lat="50.032388" lon="5.768517"><ele>528.869</ele><time>2022-09-17T15:26:24Z</time></trkpt><trkpt lat="50.032463" lon="5.768694"><ele>529.533</ele><time>2022-09-17T15:26:25Z</time></trkpt><trkpt lat="50.032528" lon="5.768864"><ele>529.750</ele><time>2022-09-17T15:26:26Z</time></trkpt><trkpt lat="50.032584" lon="5.769029"><ele>529.844</ele><time>2022-09-17T15:26:27Z</time></trkpt><trkpt lat="50.032633" lon="5.769185"><ele>530.305</ele><time>2022-09-17T15:26:28Z</time></trkpt><trkpt lat="50.032695" lon="5.769296"><ele>531.215</ele><time>2022-09-17T15:26:29Z</time></trkpt><trkpt lat="50.032745" lon="5.769397"><ele>531.509</ele><time>2022-09-17T15:26:30Z</time></trkpt><trkpt lat="50.032789" lon="5.769486"><ele>531.645</ele><time>2022-09-17T15:26:31Z</time></trkpt><trkpt lat="50.032821" lon="5.769549"><ele>532.395</ele><time>2022-09-17T15:26:32Z</time></trkpt><trkpt lat="50.032843" lon="5.769621"><ele>532.937</ele><time>2022-09-17T15:26:33Z</time></trkpt><trkpt lat="50.032721" lon="5.769787"><ele>533.263</ele><time>2022-09-17T15:26:34Z</time></trkpt><trkpt lat="50.032654" lon="5.769859"><ele>533.688</ele><time>2022-09-17T15:26:35Z</time></trkpt><trkpt lat="50.032558" lon="5.769973"><ele>534.383</ele><time>2022-09-17T15:26:36Z</time></trkpt><trkpt lat="50.032471" lon="5.770094"><ele>534.698</ele><time>2022-09-17T15:26:37Z</time></trkpt><trkpt lat="50.032384" lon="5.770206"><ele>535.052</ele><time>2022-09-17T15:26:38Z</time></trkpt><trkpt lat="50.032291" lon="5.770270"><ele>535.159</ele><time>2022-09-17T15:26:39Z</time></trkpt><trkpt lat="50.032219" lon="5.770325"><ele>535.136</ele><time>2022-09-17T15:26:40Z</time></trkpt><trkpt lat="50.032146" lon="5.770389"><ele>534.917</ele><time>2022-09-17T15:26:41Z</time></trkpt><trkpt lat="50.032061" lon="5.770465"><ele>534.618</ele><time>2022-09-17T15:26:42Z</time></trkpt><trkpt lat="50.031976" lon="5.770546"><ele>534.109</ele><time>2022-09-17T15:26:43Z</time></trkpt><trkpt lat="50.031890" lon="5.770592"><ele>534.064</ele><time>2022-09-17T15:26:44Z</time></trkpt><trkpt lat="50.031814" lon="5.770661"><ele>534.044</ele><time>2022-09-17T15:26:45Z</time></trkpt><trkpt lat="50.031724" lon="5.770748"><ele>534.386</ele><time>2022-09-17T15:26:46Z</time></trkpt><trkpt lat="50.031641" lon="5.770834"><ele>534.452</ele><time>2022-09-17T15:26:47Z</time></trkpt><trkpt lat="50.031549" lon="5.770881"><ele>534.847</ele><time>2022-09-17T15:26:48Z</time></trkpt><trkpt lat="50.031468" lon="5.770969"><ele>534.882</ele><time>2022-09-17T15:26:49Z</time></trkpt><trkpt lat="50.031377" lon="5.771021"><ele>535.057</ele><time>2022-09-17T15:26:50Z</time></trkpt><trkpt lat="50.031299" lon="5.771074"><ele>535.171</ele><time>2022-09-17T15:26:51Z</time></trkpt><trkpt lat="50.031229" lon="5.771137"><ele>535.298</ele><time>2022-09-17T15:26:52Z</time></trkpt><trkpt lat="50.031158" lon="5.771214"><ele>535.336</ele><time>2022-09-17T15:26:53Z</time></trkpt><trkpt lat="50.031082" lon="5.771294"><ele>535.417</ele><time>2022-09-17T15:26:54Z</time></trkpt><trkpt lat="50.031009" lon="5.771378"><ele>535.518</ele><time>2022-09-17T15:26:55Z</time></trkpt><trkpt lat="50.030939" lon="5.771466"><ele>535.609</ele><time>2022-09-17T15:26:56Z</time></trkpt><trkpt lat="50.030872" lon="5.771559"><ele>535.644</ele><time>2022-09-17T15:26:57Z</time></trkpt><trkpt lat="50.030815" lon="5.771642"><ele>535.464</ele><time>2022-09-17T15:26:58Z</time></trkpt><trkpt lat="50.030763" lon="5.771738"><ele>535.126</ele><time>2022-09-17T15:26:59Z</time></trkpt><trkpt lat="50.030687" lon="5.771871"><ele>534.862</ele><time>2022-09-17T15:27:00Z</time></trkpt><trkpt lat="50.030607" lon="5.771983"><ele>534.687</ele><time>2022-09-17T15:27:01Z</time></trkpt><trkpt lat="50.030519" lon="5.772102"><ele>534.472</ele><time>2022-09-17T15:27:02Z</time></trkpt><trkpt lat="50.030424" lon="5.772228"><ele>534.427</ele><time>2022-09-17T15:27:03Z</time></trkpt><trkpt lat="50.030344" lon="5.772367"><ele>533.951</ele><time>2022-09-17T15:27:04Z</time></trkpt><trkpt lat="50.030266" lon="5.772517"><ele>533.288</ele><time>2022-09-17T15:27:05Z</time></trkpt><trkpt lat="50.030171" lon="5.772672"><ele>532.054</ele><time>2022-09-17T15:27:06Z</time></trkpt><trkpt lat="50.030078" lon="5.772788"><ele>531.156</ele><time>2022-09-17T15:27:07Z</time></trkpt><trkpt lat="50.029996" lon="5.772925"><ele>529.611</ele><time>2022-09-17T15:27:08Z</time></trkpt><trkpt lat="50.029927" lon="5.773057"><ele>528.809</ele><time>2022-09-17T15:27:09Z</time></trkpt><trkpt lat="50.029849" lon="5.773202"><ele>528.016</ele><time>2022-09-17T15:27:10Z</time></trkpt><trkpt lat="50.029785" lon="5.773363"><ele>527.476</ele><time>2022-09-17T15:27:11Z</time></trkpt><trkpt lat="50.029718" lon="5.773529"><ele>526.848</ele><time>2022-09-17T15:27:12Z</time></trkpt><trkpt lat="50.029658" lon="5.773650"><ele>526.424</ele><time>2022-09-17T15:27:13Z</time></trkpt><trkpt lat="50.029591" lon="5.773765"><ele>525.959</ele><time>2022-09-17T15:27:14Z</time></trkpt><trkpt lat="50.029529" lon="5.773896"><ele>525.474</ele><time>2022-09-17T15:27:15Z</time></trkpt><trkpt lat="50.029499" lon="5.774002"><ele>525.249</ele><time>2022-09-17T15:27:16Z</time></trkpt><trkpt lat="50.029441" lon="5.774039"><ele>525.063</ele><time>2022-09-17T15:27:17Z</time></trkpt><trkpt lat="50.029372" lon="5.774034"><ele>524.770</ele><time>2022-09-17T15:27:18Z</time></trkpt><trkpt lat="50.029322" lon="5.774056"><ele>524.882</ele><time>2022-09-17T15:27:20Z</time></trkpt><trkpt lat="50.029347" lon="5.774125"><ele>524.843</ele><time>2022-09-17T15:27:32Z</time></trkpt><trkpt lat="50.029315" lon="5.774199"><ele>524.817</ele><time>2022-09-17T15:27:33Z</time></trkpt><trkpt lat="50.029241" lon="5.774327"><ele>525.309</ele><time>2022-09-17T15:27:34Z</time></trkpt><trkpt lat="50.029143" lon="5.774448"><ele>525.559</ele><time>2022-09-17T15:27:35Z</time></trkpt><trkpt lat="50.029003" lon="5.774633"><ele>525.759</ele><time>2022-09-17T15:27:36Z</time></trkpt><trkpt lat="50.028848" lon="5.774820"><ele>525.891</ele><time>2022-09-17T15:27:37Z</time></trkpt><trkpt lat="50.028707" lon="5.774964"><ele>525.877</ele><time>2022-09-17T15:27:38Z</time></trkpt><trkpt lat="50.028558" lon="5.775158"><ele>525.172</ele><time>2022-09-17T15:27:39Z</time></trkpt><trkpt lat="50.028433" lon="5.775307"><ele>523.727</ele><time>2022-09-17T15:27:40Z</time></trkpt><trkpt lat="50.028290" lon="5.775442"><ele>522.562</ele><time>2022-09-17T15:27:41Z</time></trkpt><trkpt lat="50.028143" lon="5.775571"><ele>521.356</ele><time>2022-09-17T15:27:42Z</time></trkpt><trkpt lat="50.028000" lon="5.775695"><ele>519.853</ele><time>2022-09-17T15:27:43Z</time></trkpt><trkpt lat="50.027851" lon="5.775796"><ele>519.023</ele><time>2022-09-17T15:27:44Z</time></trkpt><trkpt lat="50.027683" lon="5.775809"><ele>518.983</ele><time>2022-09-17T15:27:45Z</time></trkpt><trkpt lat="50.027540" lon="5.775882"><ele>518.611</ele><time>2022-09-17T15:27:46Z</time></trkpt><trkpt lat="50.027390" lon="5.775941"><ele>518.209</ele><time>2022-09-17T15:27:47Z</time></trkpt><trkpt lat="50.027239" lon="5.775992"><ele>517.953</ele><time>2022-09-17T15:27:48Z</time></trkpt><trkpt lat="50.027099" lon="5.776035"><ele>517.743</ele><time>2022-09-17T15:27:49Z</time></trkpt><trkpt lat="50.026950" lon="5.776081"><ele>517.455</ele><time>2022-09-17T15:27:50Z</time></trkpt><trkpt lat="50.026805" lon="5.776125"><ele>517.211</ele><time>2022-09-17T15:27:51Z</time></trkpt><trkpt lat="50.026655" lon="5.776172"><ele>517.176</ele><time>2022-09-17T15:27:52Z</time></trkpt><trkpt lat="50.026518" lon="5.776214"><ele>517.121</ele><time>2022-09-17T15:27:53Z</time></trkpt><trkpt lat="50.026388" lon="5.776255"><ele>517.396</ele><time>2022-09-17T15:27:54Z</time></trkpt><trkpt lat="50.026258" lon="5.776296"><ele>517.490</ele><time>2022-09-17T15:27:55Z</time></trkpt><trkpt lat="50.026131" lon="5.776362"><ele>517.697</ele><time>2022-09-17T15:27:56Z</time></trkpt><trkpt lat="50.026009" lon="5.776407"><ele>517.735</ele><time>2022-09-17T15:27:57Z</time></trkpt><trkpt lat="50.025878" lon="5.776468"><ele>517.986</ele><time>2022-09-17T15:27:58Z</time></trkpt><trkpt lat="50.025751" lon="5.776542"><ele>518.014</ele><time>2022-09-17T15:27:59Z</time></trkpt><trkpt lat="50.025623" lon="5.776625"><ele>518.009</ele><time>2022-09-17T15:28:00Z</time></trkpt><trkpt lat="50.025490" lon="5.776703"><ele>518.384</ele><time>2022-09-17T15:28:01Z</time></trkpt><trkpt lat="50.025355" lon="5.776754"><ele>518.684</ele><time>2022-09-17T15:28:02Z</time></trkpt><trkpt lat="50.025225" lon="5.776811"><ele>518.676</ele><time>2022-09-17T15:28:03Z</time></trkpt><trkpt lat="50.025099" lon="5.776857"><ele>518.662</ele><time>2022-09-17T15:28:04Z</time></trkpt><trkpt lat="50.024963" lon="5.776896"><ele>518.567</ele><time>2022-09-17T15:28:05Z</time></trkpt><trkpt lat="50.024818" lon="5.776938"><ele>518.032</ele><time>2022-09-17T15:28:06Z</time></trkpt><trkpt lat="50.024676" lon="5.777009"><ele>517.417</ele><time>2022-09-17T15:28:07Z</time></trkpt><trkpt lat="50.024547" lon="5.777046"><ele>516.751</ele><time>2022-09-17T15:28:08Z</time></trkpt><trkpt lat="50.024425" lon="5.777078"><ele>516.368</ele><time>2022-09-17T15:28:09Z</time></trkpt><trkpt lat="50.024309" lon="5.777111"><ele>515.687</ele><time>2022-09-17T15:28:10Z</time></trkpt><trkpt lat="50.024187" lon="5.777142"><ele>514.642</ele><time>2022-09-17T15:28:11Z</time></trkpt><trkpt lat="50.024063" lon="5.777175"><ele>514.226</ele><time>2022-09-17T15:28:12Z</time></trkpt><trkpt lat="50.023950" lon="5.777209"><ele>513.809</ele><time>2022-09-17T15:28:13Z</time></trkpt><trkpt lat="50.023847" lon="5.777242"><ele>513.749</ele><time>2022-09-17T15:28:14Z</time></trkpt><trkpt lat="50.023754" lon="5.777290"><ele>513.619</ele><time>2022-09-17T15:28:15Z</time></trkpt><trkpt lat="50.023662" lon="5.777329"><ele>513.551</ele><time>2022-09-17T15:28:16Z</time></trkpt><trkpt lat="50.023589" lon="5.777369"><ele>513.287</ele><time>2022-09-17T15:28:17Z</time></trkpt><trkpt lat="50.023530" lon="5.777401"><ele>513.142</ele><time>2022-09-17T15:28:18Z</time></trkpt><trkpt lat="50.023480" lon="5.777433"><ele>512.867</ele><time>2022-09-17T15:28:19Z</time></trkpt><trkpt lat="50.023435" lon="5.777430"><ele>512.562</ele><time>2022-09-17T15:28:20Z</time></trkpt><trkpt lat="50.023379" lon="5.777470"><ele>512.376</ele><time>2022-09-17T15:28:22Z</time></trkpt><trkpt lat="50.023414" lon="5.777693"><ele>511.763</ele><time>2022-09-17T15:28:23Z</time></trkpt><trkpt lat="50.023438" lon="5.777805"><ele>511.439</ele><time>2022-09-17T15:28:24Z</time></trkpt><trkpt lat="50.023468" lon="5.777920"><ele>511.401</ele><time>2022-09-17T15:28:25Z</time></trkpt><trkpt lat="50.023489" lon="5.778060"><ele>511.421</ele><time>2022-09-17T15:28:26Z</time></trkpt><trkpt lat="50.023524" lon="5.778208"><ele>511.509</ele><time>2022-09-17T15:28:27Z</time></trkpt><trkpt lat="50.023576" lon="5.778347"><ele>511.874</ele><time>2022-09-17T15:28:28Z</time></trkpt><trkpt lat="50.023628" lon="5.778552"><ele>512.234</ele><time>2022-09-17T15:28:29Z</time></trkpt><trkpt lat="50.023703" lon="5.778815"><ele>512.766</ele><time>2022-09-17T15:28:30Z</time></trkpt><trkpt lat="50.023802" lon="5.779085"><ele>513.192</ele><time>2022-09-17T15:28:31Z</time></trkpt><trkpt lat="50.023896" lon="5.779328"><ele>513.527</ele><time>2022-09-17T15:28:32Z</time></trkpt><trkpt lat="50.023990" lon="5.779551"><ele>513.152</ele><time>2022-09-17T15:28:33Z</time></trkpt><trkpt lat="50.024075" lon="5.779747"><ele>512.037</ele><time>2022-09-17T15:28:34Z</time></trkpt><trkpt lat="50.024157" lon="5.779925"><ele>510.881</ele><time>2022-09-17T15:28:35Z</time></trkpt><trkpt lat="50.024229" lon="5.780092"><ele>509.898</ele><time>2022-09-17T15:28:36Z</time></trkpt><trkpt lat="50.024305" lon="5.780263"><ele>509.398</ele><time>2022-09-17T15:28:37Z</time></trkpt><trkpt lat="50.024377" lon="5.780416"><ele>509.215</ele><time>2022-09-17T15:28:38Z</time></trkpt><trkpt lat="50.024449" lon="5.780598"><ele>509.226</ele><time>2022-09-17T15:28:39Z</time></trkpt><trkpt lat="50.024523" lon="5.780788"><ele>509.809</ele><time>2022-09-17T15:28:40Z</time></trkpt><trkpt lat="50.024598" lon="5.780982"><ele>509.750</ele><time>2022-09-17T15:28:41Z</time></trkpt><trkpt lat="50.024678" lon="5.781178"><ele>509.310</ele><time>2022-09-17T15:28:42Z</time></trkpt><trkpt lat="50.024750" lon="5.781360"><ele>508.422</ele><time>2022-09-17T15:28:43Z</time></trkpt><trkpt lat="50.024821" lon="5.781556"><ele>507.038</ele><time>2022-09-17T15:28:44Z</time></trkpt><trkpt lat="50.024887" lon="5.781736"><ele>505.383</ele><time>2022-09-17T15:28:45Z</time></trkpt><trkpt lat="50.024948" lon="5.781902"><ele>504.488</ele><time>2022-09-17T15:28:46Z</time></trkpt><trkpt lat="50.025028" lon="5.782049"><ele>502.953</ele><time>2022-09-17T15:28:47Z</time></trkpt><trkpt lat="50.025094" lon="5.782202"><ele>501.017</ele><time>2022-09-17T15:28:48Z</time></trkpt><trkpt lat="50.025157" lon="5.782361"><ele>499.894</ele><time>2022-09-17T15:28:49Z</time></trkpt><trkpt lat="50.025203" lon="5.782525"><ele>498.995</ele><time>2022-09-17T15:28:50Z</time></trkpt><trkpt lat="50.025227" lon="5.782695"><ele>498.549</ele><time>2022-09-17T15:28:51Z</time></trkpt><trkpt lat="50.025287" lon="5.782865"><ele>497.823</ele><time>2022-09-17T15:28:52Z</time></trkpt><trkpt lat="50.025325" lon="5.783052"><ele>497.409</ele><time>2022-09-17T15:28:53Z</time></trkpt><trkpt lat="50.025366" lon="5.783235"><ele>497.090</ele><time>2022-09-17T15:28:54Z</time></trkpt><trkpt lat="50.025404" lon="5.783421"><ele>496.840</ele><time>2022-09-17T15:28:55Z</time></trkpt><trkpt lat="50.025441" lon="5.783605"><ele>496.482</ele><time>2022-09-17T15:28:56Z</time></trkpt><trkpt lat="50.025478" lon="5.783778"><ele>495.618</ele><time>2022-09-17T15:28:57Z</time></trkpt><trkpt lat="50.025513" lon="5.783945"><ele>494.963</ele><time>2022-09-17T15:28:58Z</time></trkpt><trkpt lat="50.025547" lon="5.784105"><ele>494.028</ele><time>2022-09-17T15:28:59Z</time></trkpt><trkpt lat="50.025575" lon="5.784257"><ele>493.223</ele><time>2022-09-17T15:29:00Z</time></trkpt><trkpt lat="50.025603" lon="5.784402"><ele>492.637</ele><time>2022-09-17T15:29:01Z</time></trkpt><trkpt lat="50.025634" lon="5.784556"><ele>492.474</ele><time>2022-09-17T15:29:02Z</time></trkpt><trkpt lat="50.025676" lon="5.784711"><ele>492.252</ele><time>2022-09-17T15:29:03Z</time></trkpt><trkpt lat="50.025690" lon="5.784862"><ele>492.053</ele><time>2022-09-17T15:29:04Z</time></trkpt><trkpt lat="50.025711" lon="5.785009"><ele>491.908</ele><time>2022-09-17T15:29:05Z</time></trkpt><trkpt lat="50.025734" lon="5.785163"><ele>491.909</ele><time>2022-09-17T15:29:06Z</time></trkpt><trkpt lat="50.025757" lon="5.785324"><ele>492.016</ele><time>2022-09-17T15:29:07Z</time></trkpt><trkpt lat="50.025800" lon="5.785484"><ele>492.096</ele><time>2022-09-17T15:29:08Z</time></trkpt><trkpt lat="50.025816" lon="5.785640"><ele>491.948</ele><time>2022-09-17T15:29:09Z</time></trkpt><trkpt lat="50.025841" lon="5.785795"><ele>491.774</ele><time>2022-09-17T15:29:10Z</time></trkpt><trkpt lat="50.025867" lon="5.785947"><ele>491.539</ele><time>2022-09-17T15:29:11Z</time></trkpt><trkpt lat="50.025897" lon="5.786100"><ele>491.394</ele><time>2022-09-17T15:29:12Z</time></trkpt><trkpt lat="50.025926" lon="5.786238"><ele>491.399</ele><time>2022-09-17T15:29:13Z</time></trkpt><trkpt lat="50.025963" lon="5.786386"><ele>491.783</ele><time>2022-09-17T15:29:14Z</time></trkpt><trkpt lat="50.025994" lon="5.786512"><ele>492.550</ele><time>2022-09-17T15:29:15Z</time></trkpt><trkpt lat="50.026024" lon="5.786633"><ele>493.382</ele><time>2022-09-17T15:29:16Z</time></trkpt><trkpt lat="50.026052" lon="5.786747"><ele>493.843</ele><time>2022-09-17T15:29:17Z</time></trkpt><trkpt lat="50.026082" lon="5.786855"><ele>494.817</ele><time>2022-09-17T15:29:18Z</time></trkpt><trkpt lat="50.026114" lon="5.786957"><ele>495.809</ele><time>2022-09-17T15:29:19Z</time></trkpt><trkpt lat="50.026139" lon="5.787049"><ele>496.649</ele><time>2022-09-17T15:29:20Z</time></trkpt><trkpt lat="50.026144" lon="5.787155"><ele>497.279</ele><time>2022-09-17T15:29:21Z</time></trkpt><trkpt lat="50.026161" lon="5.787237"><ele>497.531</ele><time>2022-09-17T15:29:22Z</time></trkpt><trkpt lat="50.026174" lon="5.787311"><ele>497.947</ele><time>2022-09-17T15:29:23Z</time></trkpt><trkpt lat="50.026190" lon="5.787384"><ele>498.222</ele><time>2022-09-17T15:29:24Z</time></trkpt><trkpt lat="50.026211" lon="5.787450"><ele>498.357</ele><time>2022-09-17T15:29:25Z</time></trkpt><trkpt lat="50.026242" lon="5.787581"><ele>498.682</ele><time>2022-09-17T15:29:27Z</time></trkpt><trkpt lat="50.026266" lon="5.787683"><ele>499.026</ele><time>2022-09-17T15:29:29Z</time></trkpt><trkpt lat="50.026291" lon="5.787783"><ele>499.513</ele><time>2022-09-17T15:29:31Z</time></trkpt><trkpt lat="50.026322" lon="5.787916"><ele>499.861</ele><time>2022-09-17T15:29:33Z</time></trkpt><trkpt lat="50.026339" lon="5.787987"><ele>500.121</ele><time>2022-09-17T15:29:34Z</time></trkpt><trkpt lat="50.026358" lon="5.788063"><ele>500.313</ele><time>2022-09-17T15:29:35Z</time></trkpt><trkpt lat="50.026374" lon="5.788136"><ele>500.409</ele><time>2022-09-17T15:29:36Z</time></trkpt><trkpt lat="50.026394" lon="5.788224"><ele>500.417</ele><time>2022-09-17T15:29:37Z</time></trkpt><trkpt lat="50.026416" lon="5.788322"><ele>500.567</ele><time>2022-09-17T15:29:38Z</time></trkpt><trkpt lat="50.026440" lon="5.788439"><ele>500.559</ele><time>2022-09-17T15:29:39Z</time></trkpt><trkpt lat="50.026466" lon="5.788591"><ele>500.585</ele><time>2022-09-17T15:29:40Z</time></trkpt><trkpt lat="50.026492" lon="5.788753"><ele>500.660</ele><time>2022-09-17T15:29:41Z</time></trkpt><trkpt lat="50.026518" lon="5.788923"><ele>500.775</ele><time>2022-09-17T15:29:42Z</time></trkpt><trkpt lat="50.026545" lon="5.789083"><ele>500.930</ele><time>2022-09-17T15:29:43Z</time></trkpt><trkpt lat="50.026570" lon="5.789250"><ele>500.984</ele><time>2022-09-17T15:29:44Z</time></trkpt><trkpt lat="50.026593" lon="5.789398"><ele>500.671</ele><time>2022-09-17T15:29:45Z</time></trkpt><trkpt lat="50.026596" lon="5.789543"><ele>500.144</ele><time>2022-09-17T15:29:46Z</time></trkpt><trkpt lat="50.026611" lon="5.789672"><ele>499.705</ele><time>2022-09-17T15:29:47Z</time></trkpt><trkpt lat="50.026624" lon="5.789797"><ele>499.415</ele><time>2022-09-17T15:29:48Z</time></trkpt><trkpt lat="50.026634" lon="5.789918"><ele>498.909</ele><time>2022-09-17T15:29:49Z</time></trkpt><trkpt lat="50.026656" lon="5.790054"><ele>498.755</ele><time>2022-09-17T15:29:50Z</time></trkpt><trkpt lat="50.026654" lon="5.790200"><ele>498.675</ele><time>2022-09-17T15:29:51Z</time></trkpt><trkpt lat="50.026661" lon="5.790365"><ele>498.547</ele><time>2022-09-17T15:29:52Z</time></trkpt><trkpt lat="50.026671" lon="5.790527"><ele>498.523</ele><time>2022-09-17T15:29:53Z</time></trkpt><trkpt lat="50.026683" lon="5.790691"><ele>498.468</ele><time>2022-09-17T15:29:54Z</time></trkpt><trkpt lat="50.026704" lon="5.790840"><ele>498.163</ele><time>2022-09-17T15:29:55Z</time></trkpt><trkpt lat="50.026705" lon="5.790987"><ele>497.888</ele><time>2022-09-17T15:29:56Z</time></trkpt><trkpt lat="50.026723" lon="5.791140"><ele>497.322</ele><time>2022-09-17T15:29:57Z</time></trkpt><trkpt lat="50.026761" lon="5.791303"><ele>497.069</ele><time>2022-09-17T15:29:58Z</time></trkpt><trkpt lat="50.026777" lon="5.791470"><ele>496.694</ele><time>2022-09-17T15:29:59Z</time></trkpt><trkpt lat="50.026808" lon="5.791629"><ele>496.257</ele><time>2022-09-17T15:30:00Z</time></trkpt><trkpt lat="50.026839" lon="5.791794"><ele>495.822</ele><time>2022-09-17T15:30:01Z</time></trkpt><trkpt lat="50.026849" lon="5.791966"><ele>495.209</ele><time>2022-09-17T15:30:02Z</time></trkpt><trkpt lat="50.026863" lon="5.792123"><ele>494.410</ele><time>2022-09-17T15:30:03Z</time></trkpt><trkpt lat="50.026871" lon="5.792286"><ele>493.930</ele><time>2022-09-17T15:30:04Z</time></trkpt><trkpt lat="50.026872" lon="5.792465"><ele>493.332</ele><time>2022-09-17T15:30:05Z</time></trkpt><trkpt lat="50.026861" lon="5.792645"><ele>493.178</ele><time>2022-09-17T15:30:06Z</time></trkpt><trkpt lat="50.026849" lon="5.792848"><ele>493.123</ele><time>2022-09-17T15:30:07Z</time></trkpt><trkpt lat="50.026855" lon="5.793029"><ele>493.188</ele><time>2022-09-17T15:30:08Z</time></trkpt><trkpt lat="50.026850" lon="5.793202"><ele>493.163</ele><time>2022-09-17T15:30:09Z</time></trkpt><trkpt lat="50.026850" lon="5.793375"><ele>493.137</ele><time>2022-09-17T15:30:10Z</time></trkpt><trkpt lat="50.026835" lon="5.793537"><ele>493.064</ele><time>2022-09-17T15:30:11Z</time></trkpt><trkpt lat="50.026835" lon="5.793690"><ele>492.659</ele><time>2022-09-17T15:30:12Z</time></trkpt><trkpt lat="50.026837" lon="5.793834"><ele>492.403</ele><time>2022-09-17T15:30:13Z</time></trkpt><trkpt lat="50.026838" lon="5.793962"><ele>492.423</ele><time>2022-09-17T15:30:14Z</time></trkpt><trkpt lat="50.026829" lon="5.794086"><ele>492.409</ele><time>2022-09-17T15:30:15Z</time></trkpt><trkpt lat="50.026829" lon="5.794195"><ele>492.436</ele><time>2022-09-17T15:30:16Z</time></trkpt><trkpt lat="50.026834" lon="5.794287"><ele>492.536</ele><time>2022-09-17T15:30:17Z</time></trkpt><trkpt lat="50.026842" lon="5.794392"><ele>492.758</ele><time>2022-09-17T15:30:19Z</time></trkpt><trkpt lat="50.026992" lon="5.794398"><ele>492.844</ele><time>2022-09-17T15:30:20Z</time></trkpt><trkpt lat="50.027086" lon="5.794368"><ele>492.999</ele><time>2022-09-17T15:30:21Z</time></trkpt><trkpt lat="50.027191" lon="5.794350"><ele>493.174</ele><time>2022-09-17T15:30:22Z</time></trkpt><trkpt lat="50.027308" lon="5.794344"><ele>493.619</ele><time>2022-09-17T15:30:23Z</time></trkpt><trkpt lat="50.027434" lon="5.794334"><ele>494.163</ele><time>2022-09-17T15:30:24Z</time></trkpt><trkpt lat="50.027560" lon="5.794326"><ele>494.810</ele><time>2022-09-17T15:30:25Z</time></trkpt><trkpt lat="50.027693" lon="5.794320"><ele>494.987</ele><time>2022-09-17T15:30:26Z</time></trkpt><trkpt lat="50.027839" lon="5.794311"><ele>495.942</ele><time>2022-09-17T15:30:27Z</time></trkpt><trkpt lat="50.027989" lon="5.794300"><ele>496.626</ele><time>2022-09-17T15:30:28Z</time></trkpt><trkpt lat="50.028136" lon="5.794287"><ele>497.209</ele><time>2022-09-17T15:30:29Z</time></trkpt><trkpt lat="50.028287" lon="5.794277"><ele>497.979</ele><time>2022-09-17T15:30:30Z</time></trkpt><trkpt lat="50.028448" lon="5.794270"><ele>498.879</ele><time>2022-09-17T15:30:31Z</time></trkpt><trkpt lat="50.028618" lon="5.794255"><ele>499.591</ele><time>2022-09-17T15:30:32Z</time></trkpt><trkpt lat="50.028797" lon="5.794235"><ele>500.267</ele><time>2022-09-17T15:30:33Z</time></trkpt><trkpt lat="50.028964" lon="5.794224"><ele>500.762</ele><time>2022-09-17T15:30:34Z</time></trkpt><trkpt lat="50.029115" lon="5.794221"><ele>501.487</ele><time>2022-09-17T15:30:35Z</time></trkpt><trkpt lat="50.029267" lon="5.794214"><ele>502.162</ele><time>2022-09-17T15:30:36Z</time></trkpt><trkpt lat="50.029423" lon="5.794207"><ele>502.646</ele><time>2022-09-17T15:30:37Z</time></trkpt><trkpt lat="50.029574" lon="5.794198"><ele>503.173</ele><time>2022-09-17T15:30:38Z</time></trkpt><trkpt lat="50.029723" lon="5.794188"><ele>503.684</ele><time>2022-09-17T15:30:39Z</time></trkpt><trkpt lat="50.029869" lon="5.794185"><ele>503.907</ele><time>2022-09-17T15:30:40Z</time></trkpt><trkpt lat="50.030007" lon="5.794190"><ele>504.017</ele><time>2022-09-17T15:30:41Z</time></trkpt><trkpt lat="50.030146" lon="5.794191"><ele>504.009</ele><time>2022-09-17T15:30:42Z</time></trkpt><trkpt lat="50.030285" lon="5.794189"><ele>504.039</ele><time>2022-09-17T15:30:43Z</time></trkpt><trkpt lat="50.030424" lon="5.794200"><ele>504.479</ele><time>2022-09-17T15:30:44Z</time></trkpt><trkpt lat="50.030566" lon="5.794226"><ele>505.081</ele><time>2022-09-17T15:30:45Z</time></trkpt><trkpt lat="50.030699" lon="5.794248"><ele>505.437</ele><time>2022-09-17T15:30:46Z</time></trkpt><trkpt lat="50.030817" lon="5.794277"><ele>505.662</ele><time>2022-09-17T15:30:47Z</time></trkpt><trkpt lat="50.030927" lon="5.794303"><ele>506.027</ele><time>2022-09-17T15:30:48Z</time></trkpt><trkpt lat="50.031014" lon="5.794327"><ele>506.092</ele><time>2022-09-17T15:30:49Z</time></trkpt><trkpt lat="50.031088" lon="5.794342"><ele>506.146</ele><time>2022-09-17T15:30:50Z</time></trkpt><trkpt lat="50.031158" lon="5.794367"><ele>506.193</ele><time>2022-09-17T15:30:51Z</time></trkpt><trkpt lat="50.031239" lon="5.794418"><ele>506.223</ele><time>2022-09-17T15:30:52Z</time></trkpt><trkpt lat="50.031319" lon="5.794489"><ele>506.783</ele><time>2022-09-17T15:30:53Z</time></trkpt><trkpt lat="50.031402" lon="5.794586"><ele>507.911</ele><time>2022-09-17T15:30:54Z</time></trkpt><trkpt lat="50.031497" lon="5.794693"><ele>507.909</ele><time>2022-09-17T15:30:55Z</time></trkpt><trkpt lat="50.031593" lon="5.794796"><ele>507.963</ele><time>2022-09-17T15:30:56Z</time></trkpt><trkpt lat="50.031683" lon="5.794913"><ele>507.683</ele><time>2022-09-17T15:30:57Z</time></trkpt><trkpt lat="50.031773" lon="5.795030"><ele>507.665</ele><time>2022-09-17T15:30:58Z</time></trkpt><trkpt lat="50.031876" lon="5.795135"><ele>506.841</ele><time>2022-09-17T15:30:59Z</time></trkpt><trkpt lat="50.031961" lon="5.795243"><ele>506.126</ele><time>2022-09-17T15:31:00Z</time></trkpt><trkpt lat="50.032060" lon="5.795354"><ele>504.811</ele><time>2022-09-17T15:31:01Z</time></trkpt><trkpt lat="50.032139" lon="5.795450"><ele>503.736</ele><time>2022-09-17T15:31:02Z</time></trkpt><trkpt lat="50.032240" lon="5.795566"><ele>502.150</ele><time>2022-09-17T15:31:03Z</time></trkpt><trkpt lat="50.032327" lon="5.795673"><ele>501.047</ele><time>2022-09-17T15:31:04Z</time></trkpt><trkpt lat="50.032404" lon="5.795768"><ele>500.068</ele><time>2022-09-17T15:31:05Z</time></trkpt><trkpt lat="50.032489" lon="5.795851"><ele>499.742</ele><time>2022-09-17T15:31:06Z</time></trkpt><trkpt lat="50.032570" lon="5.795926"><ele>499.626</ele><time>2022-09-17T15:31:07Z</time></trkpt><trkpt lat="50.032666" lon="5.795982"><ele>499.609</ele><time>2022-09-17T15:31:08Z</time></trkpt><trkpt lat="50.032751" lon="5.796025"><ele>499.947</ele><time>2022-09-17T15:31:09Z</time></trkpt><trkpt lat="50.032852" lon="5.796057"><ele>500.557</ele><time>2022-09-17T15:31:10Z</time></trkpt><trkpt lat="50.032954" lon="5.796089"><ele>500.739</ele><time>2022-09-17T15:31:11Z</time></trkpt><trkpt lat="50.033053" lon="5.796131"><ele>501.025</ele><time>2022-09-17T15:31:12Z</time></trkpt><trkpt lat="50.033147" lon="5.796165"><ele>501.060</ele><time>2022-09-17T15:31:13Z</time></trkpt><trkpt lat="50.033248" lon="5.796198"><ele>500.975</ele><time>2022-09-17T15:31:14Z</time></trkpt><trkpt lat="50.033350" lon="5.796233"><ele>500.360</ele><time>2022-09-17T15:31:15Z</time></trkpt><trkpt lat="50.033454" lon="5.796274"><ele>499.724</ele><time>2022-09-17T15:31:16Z</time></trkpt><trkpt lat="50.033556" lon="5.796325"><ele>499.091</ele><time>2022-09-17T15:31:17Z</time></trkpt><trkpt lat="50.033663" lon="5.796363"><ele>498.652</ele><time>2022-09-17T15:31:18Z</time></trkpt><trkpt lat="50.033771" lon="5.796391"><ele>497.853</ele><time>2022-09-17T15:31:19Z</time></trkpt><trkpt lat="50.033876" lon="5.796401"><ele>497.308</ele><time>2022-09-17T15:31:20Z</time></trkpt><trkpt lat="50.033978" lon="5.796390"><ele>496.609</ele><time>2022-09-17T15:31:21Z</time></trkpt><trkpt lat="50.034080" lon="5.796374"><ele>496.066</ele><time>2022-09-17T15:31:22Z</time></trkpt><trkpt lat="50.034185" lon="5.796344"><ele>495.546</ele><time>2022-09-17T15:31:23Z</time></trkpt><trkpt lat="50.034288" lon="5.796293"><ele>495.128</ele><time>2022-09-17T15:31:24Z</time></trkpt><trkpt lat="50.034389" lon="5.796225"><ele>495.144</ele><time>2022-09-17T15:31:25Z</time></trkpt><trkpt lat="50.034493" lon="5.796159"><ele>495.449</ele><time>2022-09-17T15:31:26Z</time></trkpt><trkpt lat="50.034597" lon="5.796101"><ele>495.764</ele><time>2022-09-17T15:31:27Z</time></trkpt><trkpt lat="50.034696" lon="5.796053"><ele>496.139</ele><time>2022-09-17T15:31:28Z</time></trkpt><trkpt lat="50.034792" lon="5.796012"><ele>496.913</ele><time>2022-09-17T15:31:29Z</time></trkpt><trkpt lat="50.034884" lon="5.795985"><ele>497.310</ele><time>2022-09-17T15:31:30Z</time></trkpt><trkpt lat="50.034986" lon="5.795964"><ele>497.541</ele><time>2022-09-17T15:31:31Z</time></trkpt><trkpt lat="50.035092" lon="5.795953"><ele>497.881</ele><time>2022-09-17T15:31:32Z</time></trkpt><trkpt lat="50.035198" lon="5.795960"><ele>498.309</ele><time>2022-09-17T15:31:33Z</time></trkpt><trkpt lat="50.035300" lon="5.795983"><ele>498.709</ele><time>2022-09-17T15:31:34Z</time></trkpt><trkpt lat="50.035412" lon="5.796024"><ele>499.285</ele><time>2022-09-17T15:31:35Z</time></trkpt><trkpt lat="50.035512" lon="5.796079"><ele>499.565</ele><time>2022-09-17T15:31:36Z</time></trkpt><trkpt lat="50.035613" lon="5.796154"><ele>499.527</ele><time>2022-09-17T15:31:37Z</time></trkpt><trkpt lat="50.035688" lon="5.796298"><ele>499.493</ele><time>2022-09-17T15:31:38Z</time></trkpt><trkpt lat="50.035783" lon="5.796447"><ele>499.138</ele><time>2022-09-17T15:31:39Z</time></trkpt><trkpt lat="50.035892" lon="5.796594"><ele>498.373</ele><time>2022-09-17T15:31:40Z</time></trkpt><trkpt lat="50.036023" lon="5.796695"><ele>497.868</ele><time>2022-09-17T15:31:41Z</time></trkpt><trkpt lat="50.036150" lon="5.796769"><ele>497.562</ele><time>2022-09-17T15:31:42Z</time></trkpt><trkpt lat="50.036288" lon="5.796840"><ele>497.389</ele><time>2022-09-17T15:31:43Z</time></trkpt><trkpt lat="50.036412" lon="5.796904"><ele>496.962</ele><time>2022-09-17T15:31:44Z</time></trkpt><trkpt lat="50.036534" lon="5.796967"><ele>496.783</ele><time>2022-09-17T15:31:45Z</time></trkpt><trkpt lat="50.036656" lon="5.797030"><ele>496.411</ele><time>2022-09-17T15:31:46Z</time></trkpt><trkpt lat="50.036775" lon="5.797092"><ele>496.309</ele><time>2022-09-17T15:31:47Z</time></trkpt><trkpt lat="50.036895" lon="5.797154"><ele>495.887</ele><time>2022-09-17T15:31:48Z</time></trkpt><trkpt lat="50.037018" lon="5.797217"><ele>495.327</ele><time>2022-09-17T15:31:49Z</time></trkpt><trkpt lat="50.037130" lon="5.797275"><ele>494.999</ele><time>2022-09-17T15:31:50Z</time></trkpt><trkpt lat="50.037237" lon="5.797331"><ele>494.795</ele><time>2022-09-17T15:31:51Z</time></trkpt><trkpt lat="50.037361" lon="5.797391"><ele>494.760</ele><time>2022-09-17T15:31:52Z</time></trkpt><trkpt lat="50.037471" lon="5.797418"><ele>495.035</ele><time>2022-09-17T15:31:53Z</time></trkpt><trkpt lat="50.037593" lon="5.797423"><ele>495.630</ele><time>2022-09-17T15:31:54Z</time></trkpt><trkpt lat="50.037696" lon="5.797431"><ele>496.224</ele><time>2022-09-17T15:31:55Z</time></trkpt><trkpt lat="50.037796" lon="5.797316"><ele>497.011</ele><time>2022-09-17T15:31:56Z</time></trkpt><trkpt lat="50.037876" lon="5.797300"><ele>497.587</ele><time>2022-09-17T15:31:57Z</time></trkpt><trkpt lat="50.037939" lon="5.797273"><ele>498.142</ele><time>2022-09-17T15:31:58Z</time></trkpt><trkpt lat="50.038004" lon="5.797207"><ele>498.426</ele><time>2022-09-17T15:31:59Z</time></trkpt><trkpt lat="50.038082" lon="5.797152"><ele>499.109</ele><time>2022-09-17T15:32:00Z</time></trkpt><trkpt lat="50.038162" lon="5.797098"><ele>499.619</ele><time>2022-09-17T15:32:01Z</time></trkpt><trkpt lat="50.038232" lon="5.797050"><ele>500.379</ele><time>2022-09-17T15:32:02Z</time></trkpt><trkpt lat="50.038287" lon="5.797012"><ele>501.181</ele><time>2022-09-17T15:32:03Z</time></trkpt><trkpt lat="50.038338" lon="5.796977"><ele>501.897</ele><time>2022-09-17T15:32:04Z</time></trkpt><trkpt lat="50.038380" lon="5.796949"><ele>502.152</ele><time>2022-09-17T15:32:05Z</time></trkpt><trkpt lat="50.038428" lon="5.796916"><ele>502.747</ele><time>2022-09-17T15:32:06Z</time></trkpt><trkpt lat="50.038489" lon="5.796832"><ele>503.192</ele><time>2022-09-17T15:32:07Z</time></trkpt><trkpt lat="50.038558" lon="5.796752"><ele>503.246</ele><time>2022-09-17T15:32:08Z</time></trkpt><trkpt lat="50.038632" lon="5.796654"><ele>503.333</ele><time>2022-09-17T15:32:09Z</time></trkpt><trkpt lat="50.038735" lon="5.796565"><ele>503.678</ele><time>2022-09-17T15:32:10Z</time></trkpt><trkpt lat="50.038837" lon="5.796467"><ele>504.233</ele><time>2022-09-17T15:32:11Z</time></trkpt><trkpt lat="50.038939" lon="5.796366"><ele>505.026</ele><time>2022-09-17T15:32:12Z</time></trkpt><trkpt lat="50.039043" lon="5.796265"><ele>506.009</ele><time>2022-09-17T15:32:13Z</time></trkpt><trkpt lat="50.039147" lon="5.796166"><ele>506.848</ele><time>2022-09-17T15:32:14Z</time></trkpt><trkpt lat="50.039251" lon="5.796066"><ele>507.668</ele><time>2022-09-17T15:32:15Z</time></trkpt><trkpt lat="50.039346" lon="5.795945"><ele>508.080</ele><time>2022-09-17T15:32:16Z</time></trkpt><trkpt lat="50.039463" lon="5.795835"><ele>508.386</ele><time>2022-09-17T15:32:17Z</time></trkpt><trkpt lat="50.039592" lon="5.795754"><ele>508.961</ele><time>2022-09-17T15:32:18Z</time></trkpt><trkpt lat="50.039722" lon="5.795661"><ele>509.126</ele><time>2022-09-17T15:32:19Z</time></trkpt><trkpt lat="50.039849" lon="5.795592"><ele>509.391</ele><time>2022-09-17T15:32:20Z</time></trkpt><trkpt lat="50.039981" lon="5.795525"><ele>509.415</ele><time>2022-09-17T15:32:21Z</time></trkpt><trkpt lat="50.040116" lon="5.795456"><ele>509.532</ele><time>2022-09-17T15:32:22Z</time></trkpt><trkpt lat="50.040248" lon="5.795389"><ele>509.756</ele><time>2022-09-17T15:32:23Z</time></trkpt><trkpt lat="50.040387" lon="5.795318"><ele>510.059</ele><time>2022-09-17T15:32:24Z</time></trkpt><trkpt lat="50.040525" lon="5.795248"><ele>510.614</ele><time>2022-09-17T15:32:25Z</time></trkpt><trkpt lat="50.040649" lon="5.795185"><ele>511.409</ele><time>2022-09-17T15:32:26Z</time></trkpt><trkpt lat="50.040757" lon="5.795130"><ele>511.856</ele><time>2022-09-17T15:32:27Z</time></trkpt><trkpt lat="50.040852" lon="5.795082"><ele>512.646</ele><time>2022-09-17T15:32:28Z</time></trkpt><trkpt lat="50.040926" lon="5.795038"><ele>513.168</ele><time>2022-09-17T15:32:29Z</time></trkpt><trkpt lat="50.041005" lon="5.794953"><ele>513.734</ele><time>2022-09-17T15:32:30Z</time></trkpt><trkpt lat="50.041066" lon="5.794862"><ele>513.779</ele><time>2022-09-17T15:32:31Z</time></trkpt><trkpt lat="50.041120" lon="5.794779"><ele>513.734</ele><time>2022-09-17T15:32:32Z</time></trkpt><trkpt lat="50.041168" lon="5.794704"><ele>513.689</ele><time>2022-09-17T15:32:33Z</time></trkpt><trkpt lat="50.041198" lon="5.794623"><ele>513.523</ele><time>2022-09-17T15:32:34Z</time></trkpt><trkpt lat="50.041246" lon="5.794572"><ele>513.590</ele><time>2022-09-17T15:32:35Z</time></trkpt><trkpt lat="50.041089" lon="5.794176"><ele>513.013</ele><time>2022-09-17T15:32:36Z</time></trkpt><trkpt lat="50.041090" lon="5.794022"><ele>512.943</ele><time>2022-09-17T15:32:37Z</time></trkpt><trkpt lat="50.041101" lon="5.793864"><ele>512.807</ele><time>2022-09-17T15:32:38Z</time></trkpt><trkpt lat="50.041114" lon="5.793701"><ele>512.409</ele><time>2022-09-17T15:32:39Z</time></trkpt><trkpt lat="50.041131" lon="5.793532"><ele>512.472</ele><time>2022-09-17T15:32:40Z</time></trkpt><trkpt lat="50.041152" lon="5.793363"><ele>512.522</ele><time>2022-09-17T15:32:41Z</time></trkpt><trkpt lat="50.041173" lon="5.793190"><ele>513.544</ele><time>2022-09-17T15:32:42Z</time></trkpt><trkpt lat="50.041194" lon="5.793020"><ele>513.880</ele><time>2022-09-17T15:32:43Z</time></trkpt><trkpt lat="50.041218" lon="5.792847"><ele>514.635</ele><time>2022-09-17T15:32:44Z</time></trkpt><trkpt lat="50.041244" lon="5.792648"><ele>515.360</ele><time>2022-09-17T15:32:45Z</time></trkpt><trkpt lat="50.041269" lon="5.792474"><ele>515.425</ele><time>2022-09-17T15:32:46Z</time></trkpt><trkpt lat="50.041297" lon="5.792301"><ele>516.159</ele><time>2022-09-17T15:32:47Z</time></trkpt><trkpt lat="50.041322" lon="5.792144"><ele>516.996</ele><time>2022-09-17T15:32:48Z</time></trkpt><trkpt lat="50.041345" lon="5.791978"><ele>517.912</ele><time>2022-09-17T15:32:49Z</time></trkpt><trkpt lat="50.041373" lon="5.791811"><ele>519.132</ele><time>2022-09-17T15:32:50Z</time></trkpt><trkpt lat="50.041406" lon="5.791640"><ele>520.505</ele><time>2022-09-17T15:32:51Z</time></trkpt><trkpt lat="50.041440" lon="5.791469"><ele>521.509</ele><time>2022-09-17T15:32:52Z</time></trkpt><trkpt lat="50.041475" lon="5.791300"><ele>523.172</ele><time>2022-09-17T15:32:53Z</time></trkpt><trkpt lat="50.041507" lon="5.791119"><ele>524.372</ele><time>2022-09-17T15:32:54Z</time></trkpt><trkpt lat="50.041548" lon="5.790950"><ele>525.224</ele><time>2022-09-17T15:32:55Z</time></trkpt><trkpt lat="50.041601" lon="5.790801"><ele>526.050</ele><time>2022-09-17T15:32:56Z</time></trkpt><trkpt lat="50.041659" lon="5.790640"><ele>526.795</ele><time>2022-09-17T15:32:57Z</time></trkpt><trkpt lat="50.041710" lon="5.790486"><ele>527.560</ele><time>2022-09-17T15:32:58Z</time></trkpt><trkpt lat="50.041776" lon="5.790318"><ele>528.335</ele><time>2022-09-17T15:32:59Z</time></trkpt><trkpt lat="50.041835" lon="5.790158"><ele>528.429</ele><time>2022-09-17T15:33:00Z</time></trkpt><trkpt lat="50.041891" lon="5.789992"><ele>529.226</ele><time>2022-09-17T15:33:01Z</time></trkpt><trkpt lat="50.041953" lon="5.789800"><ele>529.536</ele><time>2022-09-17T15:33:02Z</time></trkpt><trkpt lat="50.042022" lon="5.789585"><ele>530.017</ele><time>2022-09-17T15:33:03Z</time></trkpt><trkpt lat="50.042092" lon="5.789377"><ele>530.118</ele><time>2022-09-17T15:33:04Z</time></trkpt><trkpt lat="50.042154" lon="5.789182"><ele>530.009</ele><time>2022-09-17T15:33:05Z</time></trkpt><trkpt lat="50.042223" lon="5.789006"><ele>529.954</ele><time>2022-09-17T15:33:06Z</time></trkpt><trkpt lat="50.042297" lon="5.788835"><ele>529.994</ele><time>2022-09-17T15:33:07Z</time></trkpt><trkpt lat="50.042383" lon="5.788663"><ele>530.896</ele><time>2022-09-17T15:33:08Z</time></trkpt><trkpt lat="50.042482" lon="5.788485"><ele>531.732</ele><time>2022-09-17T15:33:09Z</time></trkpt><trkpt lat="50.042571" lon="5.788316"><ele>532.937</ele><time>2022-09-17T15:33:10Z</time></trkpt><trkpt lat="50.042657" lon="5.788146"><ele>534.012</ele><time>2022-09-17T15:33:11Z</time></trkpt><trkpt lat="50.042732" lon="5.787995"><ele>534.577</ele><time>2022-09-17T15:33:12Z</time></trkpt><trkpt lat="50.042810" lon="5.787859"><ele>534.511</ele><time>2022-09-17T15:33:13Z</time></trkpt><trkpt lat="50.042891" lon="5.787719"><ele>533.518</ele><time>2022-09-17T15:33:14Z</time></trkpt><trkpt lat="50.042968" lon="5.787584"><ele>532.935</ele><time>2022-09-17T15:33:15Z</time></trkpt><trkpt lat="50.043040" lon="5.787438"><ele>532.286</ele><time>2022-09-17T15:33:16Z</time></trkpt><trkpt lat="50.043123" lon="5.787294"><ele>532.114</ele><time>2022-09-17T15:33:17Z</time></trkpt><trkpt lat="50.043201" lon="5.787147"><ele>532.109</ele><time>2022-09-17T15:33:18Z</time></trkpt><trkpt lat="50.043283" lon="5.786992"><ele>532.634</ele><time>2022-09-17T15:33:19Z</time></trkpt><trkpt lat="50.043365" lon="5.786843"><ele>533.674</ele><time>2022-09-17T15:33:20Z</time></trkpt><trkpt lat="50.043440" lon="5.786704"><ele>534.016</ele><time>2022-09-17T15:33:21Z</time></trkpt><trkpt lat="50.043524" lon="5.786566"><ele>534.662</ele><time>2022-09-17T15:33:22Z</time></trkpt><trkpt lat="50.043596" lon="5.786437"><ele>535.057</ele><time>2022-09-17T15:33:23Z</time></trkpt><trkpt lat="50.043674" lon="5.786300"><ele>535.232</ele><time>2022-09-17T15:33:24Z</time></trkpt><trkpt lat="50.043748" lon="5.786167"><ele>535.367</ele><time>2022-09-17T15:33:25Z</time></trkpt><trkpt lat="50.043822" lon="5.786052"><ele>535.421</ele><time>2022-09-17T15:33:26Z</time></trkpt><trkpt lat="50.043899" lon="5.785942"><ele>535.628</ele><time>2022-09-17T15:33:27Z</time></trkpt><trkpt lat="50.043960" lon="5.785857"><ele>536.133</ele><time>2022-09-17T15:33:28Z</time></trkpt><trkpt lat="50.044002" lon="5.785795"><ele>536.323</ele><time>2022-09-17T15:33:29Z</time></trkpt><trkpt lat="50.044046" lon="5.785755"><ele>536.715</ele><time>2022-09-17T15:33:30Z</time></trkpt><trkpt lat="50.044092" lon="5.785758"><ele>537.009</ele><time>2022-09-17T15:33:31Z</time></trkpt><trkpt lat="50.044134" lon="5.785787"><ele>537.414</ele><time>2022-09-17T15:33:32Z</time></trkpt><trkpt lat="50.044168" lon="5.785851"><ele>537.574</ele><time>2022-09-17T15:33:33Z</time></trkpt><trkpt lat="50.044223" lon="5.785975"><ele>537.746</ele><time>2022-09-17T15:33:34Z</time></trkpt><trkpt lat="50.044270" lon="5.786155"><ele>538.162</ele><time>2022-09-17T15:33:35Z</time></trkpt><trkpt lat="50.044357" lon="5.786297"><ele>538.287</ele><time>2022-09-17T15:33:36Z</time></trkpt><trkpt lat="50.044458" lon="5.786463"><ele>538.722</ele><time>2022-09-17T15:33:37Z</time></trkpt><trkpt lat="50.044550" lon="5.786623"><ele>539.187</ele><time>2022-09-17T15:33:38Z</time></trkpt><trkpt lat="50.044657" lon="5.786770"><ele>539.431</ele><time>2022-09-17T15:33:39Z</time></trkpt><trkpt lat="50.044751" lon="5.786923"><ele>539.728</ele><time>2022-09-17T15:33:40Z</time></trkpt><trkpt lat="50.044849" lon="5.787081"><ele>539.994</ele><time>2022-09-17T15:33:41Z</time></trkpt><trkpt lat="50.044949" lon="5.787240"><ele>540.057</ele><time>2022-09-17T15:33:42Z</time></trkpt><trkpt lat="50.045048" lon="5.787396"><ele>540.022</ele><time>2022-09-17T15:33:43Z</time></trkpt><trkpt lat="50.045146" lon="5.787551"><ele>539.909</ele><time>2022-09-17T15:33:44Z</time></trkpt><trkpt lat="50.045243" lon="5.787708"><ele>539.730</ele><time>2022-09-17T15:33:45Z</time></trkpt><trkpt lat="50.045337" lon="5.787861"><ele>539.570</ele><time>2022-09-17T15:33:46Z</time></trkpt><trkpt lat="50.045435" lon="5.788022"><ele>539.392</ele><time>2022-09-17T15:33:47Z</time></trkpt><trkpt lat="50.045523" lon="5.788173"><ele>539.128</ele><time>2022-09-17T15:33:48Z</time></trkpt><trkpt lat="50.045607" lon="5.788314"><ele>539.083</ele><time>2022-09-17T15:33:49Z</time></trkpt><trkpt lat="50.045677" lon="5.788439"><ele>538.948</ele><time>2022-09-17T15:33:50Z</time></trkpt><trkpt lat="50.045746" lon="5.788545"><ele>538.433</ele><time>2022-09-17T15:33:51Z</time></trkpt><trkpt lat="50.045802" lon="5.788638"><ele>538.017</ele><time>2022-09-17T15:33:52Z</time></trkpt><trkpt lat="50.045855" lon="5.788720"><ele>537.854</ele><time>2022-09-17T15:33:53Z</time></trkpt><trkpt lat="50.045895" lon="5.788793"><ele>537.387</ele><time>2022-09-17T15:33:54Z</time></trkpt><trkpt lat="50.045939" lon="5.788865"><ele>536.842</ele><time>2022-09-17T15:33:55Z</time></trkpt><trkpt lat="50.045972" lon="5.789009"><ele>536.426</ele><time>2022-09-17T15:33:56Z</time></trkpt><trkpt lat="50.046052" lon="5.789091"><ele>536.309</ele><time>2022-09-17T15:33:57Z</time></trkpt><trkpt lat="50.046140" lon="5.789198"><ele>536.369</ele><time>2022-09-17T15:33:58Z</time></trkpt><trkpt lat="50.046235" lon="5.789324"><ele>536.449</ele><time>2022-09-17T15:33:59Z</time></trkpt><trkpt lat="50.046347" lon="5.789456"><ele>537.031</ele><time>2022-09-17T15:34:00Z</time></trkpt><trkpt lat="50.046441" lon="5.789577"><ele>537.587</ele><time>2022-09-17T15:34:01Z</time></trkpt><trkpt lat="50.046536" lon="5.789696"><ele>537.782</ele><time>2022-09-17T15:34:02Z</time></trkpt><trkpt lat="50.046634" lon="5.789821"><ele>537.927</ele><time>2022-09-17T15:34:03Z</time></trkpt><trkpt lat="50.046718" lon="5.789961"><ele>537.992</ele><time>2022-09-17T15:34:04Z</time></trkpt><trkpt lat="50.046796" lon="5.790121"><ele>537.876</ele><time>2022-09-17T15:34:05Z</time></trkpt><trkpt lat="50.046864" lon="5.790293"><ele>537.693</ele><time>2022-09-17T15:34:06Z</time></trkpt><trkpt lat="50.046930" lon="5.790481"><ele>537.573</ele><time>2022-09-17T15:34:07Z</time></trkpt><trkpt lat="50.046967" lon="5.790687"><ele>536.785</ele><time>2022-09-17T15:34:08Z</time></trkpt><trkpt lat="50.047034" lon="5.790881"><ele>536.213</ele><time>2022-09-17T15:34:09Z</time></trkpt><trkpt lat="50.047087" lon="5.791077"><ele>536.009</ele><time>2022-09-17T15:34:10Z</time></trkpt><trkpt lat="50.047152" lon="5.791258"><ele>535.448</ele><time>2022-09-17T15:34:11Z</time></trkpt><trkpt lat="50.047225" lon="5.791443"><ele>534.788</ele><time>2022-09-17T15:34:12Z</time></trkpt><trkpt lat="50.047312" lon="5.791616"><ele>534.710</ele><time>2022-09-17T15:34:13Z</time></trkpt><trkpt lat="50.047408" lon="5.791788"><ele>534.756</ele><time>2022-09-17T15:34:14Z</time></trkpt><trkpt lat="50.047507" lon="5.791957"><ele>534.711</ele><time>2022-09-17T15:34:15Z</time></trkpt><trkpt lat="50.047608" lon="5.792124"><ele>534.776</ele><time>2022-09-17T15:34:16Z</time></trkpt><trkpt lat="50.047718" lon="5.792293"><ele>534.941</ele><time>2022-09-17T15:34:17Z</time></trkpt><trkpt lat="50.047831" lon="5.792446"><ele>535.225</ele><time>2022-09-17T15:34:18Z</time></trkpt><trkpt lat="50.047951" lon="5.792584"><ele>535.622</ele><time>2022-09-17T15:34:19Z</time></trkpt><trkpt lat="50.048069" lon="5.792715"><ele>535.839</ele><time>2022-09-17T15:34:20Z</time></trkpt><trkpt lat="50.048178" lon="5.792887"><ele>535.801</ele><time>2022-09-17T15:34:21Z</time></trkpt><trkpt lat="50.048298" lon="5.793040"><ele>535.821</ele><time>2022-09-17T15:34:22Z</time></trkpt><trkpt lat="50.048418" lon="5.793192"><ele>535.709</ele><time>2022-09-17T15:34:23Z</time></trkpt><trkpt lat="50.048534" lon="5.793347"><ele>535.574</ele><time>2022-09-17T15:34:24Z</time></trkpt><trkpt lat="50.048645" lon="5.793503"><ele>535.444</ele><time>2022-09-17T15:34:25Z</time></trkpt><trkpt lat="50.048756" lon="5.793664"><ele>535.456</ele><time>2022-09-17T15:34:26Z</time></trkpt><trkpt lat="50.048863" lon="5.793826"><ele>535.432</ele><time>2022-09-17T15:34:27Z</time></trkpt><trkpt lat="50.048970" lon="5.793988"><ele>535.327</ele><time>2022-09-17T15:34:28Z</time></trkpt><trkpt lat="50.049073" lon="5.794144"><ele>535.132</ele><time>2022-09-17T15:34:29Z</time></trkpt><trkpt lat="50.049173" lon="5.794295"><ele>534.897</ele><time>2022-09-17T15:34:30Z</time></trkpt><trkpt lat="50.049250" lon="5.794411"><ele>534.621</ele><time>2022-09-17T15:34:31Z</time></trkpt><trkpt lat="50.049330" lon="5.794520"><ele>534.398</ele><time>2022-09-17T15:34:32Z</time></trkpt><trkpt lat="50.049374" lon="5.794647"><ele>533.892</ele><time>2022-09-17T15:34:33Z</time></trkpt><trkpt lat="50.049416" lon="5.794754"><ele>533.273</ele><time>2022-09-17T15:34:34Z</time></trkpt><trkpt lat="50.049463" lon="5.794821"><ele>532.820</ele><time>2022-09-17T15:34:35Z</time></trkpt><trkpt lat="50.049478" lon="5.794895"><ele>532.109</ele><time>2022-09-17T15:34:36Z</time></trkpt><trkpt lat="50.049540" lon="5.794951"><ele>531.830</ele><time>2022-09-17T15:34:46Z</time></trkpt><trkpt lat="50.049586" lon="5.795015"><ele>531.190</ele><time>2022-09-17T15:34:47Z</time></trkpt><trkpt lat="50.049630" lon="5.795107"><ele>529.272</ele><time>2022-09-17T15:34:48Z</time></trkpt><trkpt lat="50.049691" lon="5.795219"><ele>529.118</ele><time>2022-09-17T15:34:49Z</time></trkpt><trkpt lat="50.049740" lon="5.795337"><ele>529.223</ele><time>2022-09-17T15:34:50Z</time></trkpt><trkpt lat="50.049807" lon="5.795485"><ele>529.658</ele><time>2022-09-17T15:34:51Z</time></trkpt><trkpt lat="50.049882" lon="5.795655"><ele>530.093</ele><time>2022-09-17T15:34:52Z</time></trkpt><trkpt lat="50.049972" lon="5.795846"><ele>530.797</ele><time>2022-09-17T15:34:53Z</time></trkpt><trkpt lat="50.050045" lon="5.796073"><ele>531.344</ele><time>2022-09-17T15:34:54Z</time></trkpt><trkpt lat="50.050168" lon="5.796251"><ele>532.274</ele><time>2022-09-17T15:34:55Z</time></trkpt><trkpt lat="50.050264" lon="5.796454"><ele>533.256</ele><time>2022-09-17T15:34:56Z</time></trkpt><trkpt lat="50.050355" lon="5.796674"><ele>534.121</ele><time>2022-09-17T15:34:57Z</time></trkpt><trkpt lat="50.050439" lon="5.796905"><ele>534.809</ele><time>2022-09-17T15:34:58Z</time></trkpt><trkpt lat="50.050528" lon="5.797148"><ele>535.488</ele><time>2022-09-17T15:34:59Z</time></trkpt><trkpt lat="50.050625" lon="5.797387"><ele>535.698</ele><time>2022-09-17T15:35:00Z</time></trkpt><trkpt lat="50.050719" lon="5.797617"><ele>535.650</ele><time>2022-09-17T15:35:01Z</time></trkpt><trkpt lat="50.050810" lon="5.797841"><ele>535.956</ele><time>2022-09-17T15:35:02Z</time></trkpt><trkpt lat="50.050902" lon="5.798063"><ele>536.361</ele><time>2022-09-17T15:35:03Z</time></trkpt><trkpt lat="50.050997" lon="5.798270"><ele>536.546</ele><time>2022-09-17T15:35:04Z</time></trkpt><trkpt lat="50.051089" lon="5.798470"><ele>536.771</ele><time>2022-09-17T15:35:05Z</time></trkpt><trkpt lat="50.051174" lon="5.798656"><ele>536.875</ele><time>2022-09-17T15:35:06Z</time></trkpt><trkpt lat="50.051253" lon="5.798827"><ele>536.782</ele><time>2022-09-17T15:35:07Z</time></trkpt><trkpt lat="50.051325" lon="5.798984"><ele>536.639</ele><time>2022-09-17T15:35:08Z</time></trkpt><trkpt lat="50.051380" lon="5.799141"><ele>536.601</ele><time>2022-09-17T15:35:09Z</time></trkpt><trkpt lat="50.051439" lon="5.799253"><ele>536.421</ele><time>2022-09-17T15:35:10Z</time></trkpt><trkpt lat="50.051482" lon="5.799345"><ele>536.209</ele><time>2022-09-17T15:35:11Z</time></trkpt><trkpt lat="50.051530" lon="5.799388"><ele>536.124</ele><time>2022-09-17T15:35:12Z</time></trkpt><trkpt lat="50.051694" lon="5.799303"><ele>535.524</ele><time>2022-09-17T15:35:14Z</time></trkpt><trkpt lat="50.051809" lon="5.799246"><ele>534.776</ele><time>2022-09-17T15:35:15Z</time></trkpt><trkpt lat="50.051936" lon="5.799186"><ele>534.712</ele><time>2022-09-17T15:35:16Z</time></trkpt><trkpt lat="50.052037" lon="5.799134"><ele>534.767</ele><time>2022-09-17T15:35:17Z</time></trkpt><trkpt lat="50.052137" lon="5.799082"><ele>534.732</ele><time>2022-09-17T15:35:18Z</time></trkpt><trkpt lat="50.052231" lon="5.799030"><ele>534.177</ele><time>2022-09-17T15:35:19Z</time></trkpt><trkpt lat="50.052321" lon="5.798974"><ele>533.341</ele><time>2022-09-17T15:35:20Z</time></trkpt><trkpt lat="50.052419" lon="5.798924"><ele>532.388</ele><time>2022-09-17T15:35:21Z</time></trkpt><trkpt lat="50.052515" lon="5.798866"><ele>531.042</ele><time>2022-09-17T15:35:22Z</time></trkpt><trkpt lat="50.052610" lon="5.798813"><ele>529.522</ele><time>2022-09-17T15:35:23Z</time></trkpt><trkpt lat="50.052708" lon="5.798762"><ele>529.414</ele><time>2022-09-17T15:35:24Z</time></trkpt><trkpt lat="50.052804" lon="5.798707"><ele>529.109</ele><time>2022-09-17T15:35:25Z</time></trkpt><trkpt lat="50.052909" lon="5.798652"><ele>528.755</ele><time>2022-09-17T15:35:26Z</time></trkpt><trkpt lat="50.053013" lon="5.798600"><ele>528.365</ele><time>2022-09-17T15:35:27Z</time></trkpt><trkpt lat="50.053115" lon="5.798550"><ele>527.837</ele><time>2022-09-17T15:35:28Z</time></trkpt><trkpt lat="50.053221" lon="5.798495"><ele>527.643</ele><time>2022-09-17T15:35:29Z</time></trkpt><trkpt lat="50.053326" lon="5.798437"><ele>527.588</ele><time>2022-09-17T15:35:30Z</time></trkpt><trkpt lat="50.053430" lon="5.798388"><ele>527.213</ele><time>2022-09-17T15:35:31Z</time></trkpt><trkpt lat="50.053528" lon="5.798343"><ele>526.988</ele><time>2022-09-17T15:35:32Z</time></trkpt><trkpt lat="50.053618" lon="5.798304"><ele>526.792</ele><time>2022-09-17T15:35:33Z</time></trkpt><trkpt lat="50.053701" lon="5.798264"><ele>526.179</ele><time>2022-09-17T15:35:34Z</time></trkpt><trkpt lat="50.053779" lon="5.798228"><ele>525.933</ele><time>2022-09-17T15:35:35Z</time></trkpt><trkpt lat="50.053853" lon="5.798187"><ele>525.723</ele><time>2022-09-17T15:35:36Z</time></trkpt><trkpt lat="50.053921" lon="5.798145"><ele>525.715</ele><time>2022-09-17T15:35:37Z</time></trkpt><trkpt lat="50.053979" lon="5.798120"><ele>525.809</ele><time>2022-09-17T15:35:38Z</time></trkpt><trkpt lat="50.054025" lon="5.798092"><ele>525.894</ele><time>2022-09-17T15:35:39Z</time></trkpt><trkpt lat="50.054081" lon="5.798064"><ele>525.844</ele><time>2022-09-17T15:35:41Z</time></trkpt><trkpt lat="50.054137" lon="5.798000"><ele>525.916</ele><time>2022-09-17T15:36:06Z</time></trkpt><trkpt lat="50.054172" lon="5.797941"><ele>526.252</ele><time>2022-09-17T15:36:08Z</time></trkpt><trkpt lat="50.054190" lon="5.797816"><ele>526.277</ele><time>2022-09-17T15:36:21Z</time></trkpt><trkpt lat="50.054204" lon="5.797747"><ele>526.232</ele><time>2022-09-17T15:36:23Z</time></trkpt><trkpt lat="50.054305" lon="5.797648"><ele>524.847</ele><time>2022-09-17T15:36:44Z</time></trkpt><trkpt lat="50.054369" lon="5.797674"><ele>522.211</ele><time>2022-09-17T15:36:46Z</time></trkpt><trkpt lat="50.054409" lon="5.797719"><ele>520.188</ele><time>2022-09-17T15:36:47Z</time></trkpt><trkpt lat="50.054450" lon="5.797772"><ele>520.115</ele><time>2022-09-17T15:36:48Z</time></trkpt><trkpt lat="50.054503" lon="5.797806"><ele>520.365</ele><time>2022-09-17T15:36:50Z</time></trkpt><trkpt lat="50.054555" lon="5.797814"><ele>521.111</ele><time>2022-09-17T15:36:51Z</time></trkpt><trkpt lat="50.054616" lon="5.797669"><ele>523.509</ele><time>2022-09-17T15:36:52Z</time></trkpt><trkpt lat="50.054692" lon="5.797627"><ele>524.462</ele><time>2022-09-17T15:36:53Z</time></trkpt><trkpt lat="50.054735" lon="5.797603"><ele>525.132</ele><time>2022-09-17T15:36:54Z</time></trkpt><trkpt lat="50.054734" lon="5.797811"><ele>525.454</ele><time>2022-09-17T15:36:56Z</time></trkpt><trkpt lat="50.054742" lon="5.797946"><ele>525.470</ele><time>2022-09-17T15:36:58Z</time></trkpt><trkpt lat="50.054752" lon="5.798017"><ele>525.195</ele><time>2022-09-17T15:36:59Z</time></trkpt><trkpt lat="50.054763" lon="5.798094"><ele>524.770</ele><time>2022-09-17T15:37:00Z</time></trkpt><trkpt lat="50.054778" lon="5.798207"><ele>524.675</ele><time>2022-09-17T15:37:02Z</time></trkpt><trkpt lat="50.054788" lon="5.798283"><ele>524.369</ele><time>2022-09-17T15:37:04Z</time></trkpt><trkpt lat="50.054803" lon="5.798391"><ele>524.386</ele><time>2022-09-17T15:37:30Z</time></trkpt><trkpt lat="50.054829" lon="5.798457"><ele>524.311</ele><time>2022-09-17T15:37:31Z</time></trkpt><trkpt lat="50.054843" lon="5.798550"><ele>524.521</ele><time>2022-09-17T15:37:32Z</time></trkpt><trkpt lat="50.054863" lon="5.798658"><ele>524.603</ele><time>2022-09-17T15:37:33Z</time></trkpt><trkpt lat="50.054882" lon="5.798768"><ele>524.609</ele><time>2022-09-17T15:37:34Z</time></trkpt><trkpt lat="50.054910" lon="5.798885"><ele>524.722</ele><time>2022-09-17T15:37:35Z</time></trkpt><trkpt lat="50.054936" lon="5.799005"><ele>524.872</ele><time>2022-09-17T15:37:36Z</time></trkpt><trkpt lat="50.054980" lon="5.799126"><ele>524.814</ele><time>2022-09-17T15:37:37Z</time></trkpt><trkpt lat="50.055026" lon="5.799259"><ele>524.890</ele><time>2022-09-17T15:37:38Z</time></trkpt><trkpt lat="50.055091" lon="5.799423"><ele>524.645</ele><time>2022-09-17T15:37:39Z</time></trkpt><trkpt lat="50.055150" lon="5.799565"><ele>524.470</ele><time>2022-09-17T15:37:40Z</time></trkpt><trkpt lat="50.055211" lon="5.799710"><ele>524.435</ele><time>2022-09-17T15:37:41Z</time></trkpt><trkpt lat="50.055279" lon="5.799860"><ele>524.089</ele><time>2022-09-17T15:37:42Z</time></trkpt><trkpt lat="50.055349" lon="5.800010"><ele>523.936</ele><time>2022-09-17T15:37:43Z</time></trkpt><trkpt lat="50.055422" lon="5.800148"><ele>523.561</ele><time>2022-09-17T15:37:44Z</time></trkpt><trkpt lat="50.055494" lon="5.800292"><ele>523.121</ele><time>2022-09-17T15:37:45Z</time></trkpt><trkpt lat="50.055566" lon="5.800439"><ele>522.213</ele><time>2022-09-17T15:37:46Z</time></trkpt><trkpt lat="50.055627" lon="5.800587"><ele>521.509</ele><time>2022-09-17T15:37:47Z</time></trkpt><trkpt lat="50.055656" lon="5.800745"><ele>520.487</ele><time>2022-09-17T15:37:48Z</time></trkpt><trkpt lat="50.055692" lon="5.800902"><ele>519.517</ele><time>2022-09-17T15:37:49Z</time></trkpt><trkpt lat="50.055719" lon="5.801068"><ele>518.599</ele><time>2022-09-17T15:37:50Z</time></trkpt><trkpt lat="50.055749" lon="5.801239"><ele>517.585</ele><time>2022-09-17T15:37:51Z</time></trkpt><trkpt lat="50.055768" lon="5.801406"><ele>516.990</ele><time>2022-09-17T15:37:52Z</time></trkpt><trkpt lat="50.055780" lon="5.801582"><ele>516.285</ele><time>2022-09-17T15:37:53Z</time></trkpt><trkpt lat="50.055789" lon="5.801758"><ele>515.780</ele><time>2022-09-17T15:37:54Z</time></trkpt><trkpt lat="50.055799" lon="5.801927"><ele>515.194</ele><time>2022-09-17T15:37:55Z</time></trkpt><trkpt lat="50.055809" lon="5.802086"><ele>514.561</ele><time>2022-09-17T15:37:56Z</time></trkpt><trkpt lat="50.055898" lon="5.802261"><ele>513.926</ele><time>2022-09-17T15:37:57Z</time></trkpt><trkpt lat="50.055985" lon="5.802353"><ele>513.247</ele><time>2022-09-17T15:37:58Z</time></trkpt><trkpt lat="50.056066" lon="5.802443"><ele>512.611</ele><time>2022-09-17T15:37:59Z</time></trkpt><trkpt lat="50.056149" lon="5.802555"><ele>511.909</ele><time>2022-09-17T15:38:00Z</time></trkpt><trkpt lat="50.056216" lon="5.802726"><ele>511.533</ele><time>2022-09-17T15:38:01Z</time></trkpt><trkpt lat="50.056286" lon="5.802866"><ele>510.843</ele><time>2022-09-17T15:38:02Z</time></trkpt><trkpt lat="50.056352" lon="5.803024"><ele>510.675</ele><time>2022-09-17T15:38:03Z</time></trkpt><trkpt lat="50.056415" lon="5.803191"><ele>509.941</ele><time>2022-09-17T15:38:04Z</time></trkpt><trkpt lat="50.056476" lon="5.803353"><ele>509.286</ele><time>2022-09-17T15:38:05Z</time></trkpt><trkpt lat="50.056542" lon="5.803523"><ele>508.511</ele><time>2022-09-17T15:38:06Z</time></trkpt><trkpt lat="50.056609" lon="5.803697"><ele>507.886</ele><time>2022-09-17T15:38:07Z</time></trkpt><trkpt lat="50.056658" lon="5.803881"><ele>507.060</ele><time>2022-09-17T15:38:08Z</time></trkpt><trkpt lat="50.056722" lon="5.804052"><ele>506.337</ele><time>2022-09-17T15:38:09Z</time></trkpt><trkpt lat="50.056784" lon="5.804214"><ele>505.797</ele><time>2022-09-17T15:38:10Z</time></trkpt><trkpt lat="50.056845" lon="5.804369"><ele>505.023</ele><time>2022-09-17T15:38:11Z</time></trkpt><trkpt lat="50.056916" lon="5.804509"><ele>504.325</ele><time>2022-09-17T15:38:12Z</time></trkpt><trkpt lat="50.056986" lon="5.804632"><ele>503.409</ele><time>2022-09-17T15:38:13Z</time></trkpt><trkpt lat="50.057059" lon="5.804730"><ele>502.720</ele><time>2022-09-17T15:38:14Z</time></trkpt><trkpt lat="50.057146" lon="5.804795"><ele>502.130</ele><time>2022-09-17T15:38:15Z</time></trkpt><trkpt lat="50.057231" lon="5.804848"><ele>501.322</ele><time>2022-09-17T15:38:16Z</time></trkpt><trkpt lat="50.057311" lon="5.804899"><ele>500.668</ele><time>2022-09-17T15:38:17Z</time></trkpt><trkpt lat="50.057386" lon="5.804882"><ele>500.253</ele><time>2022-09-17T15:38:18Z</time></trkpt><trkpt lat="50.057445" lon="5.804894"><ele>499.538</ele><time>2022-09-17T15:38:19Z</time></trkpt><trkpt lat="50.057386" lon="5.805118"><ele>498.493</ele><time>2022-09-17T15:38:21Z</time></trkpt><trkpt lat="50.057378" lon="5.805220"><ele>497.127</ele><time>2022-09-17T15:38:22Z</time></trkpt><trkpt lat="50.057368" lon="5.805335"><ele>496.744</ele><time>2022-09-17T15:38:23Z</time></trkpt><trkpt lat="50.057358" lon="5.805456"><ele>496.522</ele><time>2022-09-17T15:38:24Z</time></trkpt><trkpt lat="50.057349" lon="5.805562"><ele>496.362</ele><time>2022-09-17T15:38:25Z</time></trkpt><trkpt lat="50.057200" lon="5.805600"><ele>496.308</ele><time>2022-09-17T15:38:27Z</time></trkpt><trkpt lat="50.057127" lon="5.805704"><ele>496.909</ele><time>2022-09-17T15:38:28Z</time></trkpt><trkpt lat="50.057052" lon="5.805898"><ele>497.253</ele><time>2022-09-17T15:38:29Z</time></trkpt><trkpt lat="50.056992" lon="5.806052"><ele>497.413</ele><time>2022-09-17T15:38:30Z</time></trkpt><trkpt lat="50.056946" lon="5.806219"><ele>498.075</ele><time>2022-09-17T15:38:31Z</time></trkpt><trkpt lat="50.056881" lon="5.806349"><ele>498.691</ele><time>2022-09-17T15:38:32Z</time></trkpt><trkpt lat="50.056833" lon="5.806472"><ele>499.366</ele><time>2022-09-17T15:38:33Z</time></trkpt><trkpt lat="50.056791" lon="5.806581"><ele>500.131</ele><time>2022-09-17T15:38:34Z</time></trkpt><trkpt lat="50.056756" lon="5.806676"><ele>500.646</ele><time>2022-09-17T15:38:35Z</time></trkpt><trkpt lat="50.056728" lon="5.806746"><ele>501.420</ele><time>2022-09-17T15:38:36Z</time></trkpt><trkpt lat="50.056671" lon="5.806833"><ele>502.047</ele><time>2022-09-17T15:38:38Z</time></trkpt><trkpt lat="50.056567" lon="5.806744"><ele>502.693</ele><time>2022-09-17T15:38:40Z</time></trkpt><trkpt lat="50.056483" lon="5.806693"><ele>503.665</ele><time>2022-09-17T15:38:41Z</time></trkpt><trkpt lat="50.056378" lon="5.806629"><ele>504.021</ele><time>2022-09-17T15:38:42Z</time></trkpt><trkpt lat="50.056269" lon="5.806563"><ele>504.809</ele><time>2022-09-17T15:38:43Z</time></trkpt><trkpt lat="50.056157" lon="5.806499"><ele>505.520</ele><time>2022-09-17T15:38:44Z</time></trkpt><trkpt lat="50.056045" lon="5.806463"><ele>506.470</ele><time>2022-09-17T15:38:45Z</time></trkpt><trkpt lat="50.055937" lon="5.806399"><ele>507.122</ele><time>2022-09-17T15:38:46Z</time></trkpt><trkpt lat="50.055843" lon="5.806366"><ele>507.638</ele><time>2022-09-17T15:38:47Z</time></trkpt><trkpt lat="50.055758" lon="5.806366"><ele>507.993</ele><time>2022-09-17T15:38:48Z</time></trkpt><trkpt lat="50.055665" lon="5.806392"><ele>508.188</ele><time>2022-09-17T15:38:49Z</time></trkpt><trkpt lat="50.055567" lon="5.806393"><ele>508.123</ele><time>2022-09-17T15:38:50Z</time></trkpt><trkpt lat="50.055475" lon="5.806420"><ele>508.187</ele><time>2022-09-17T15:38:51Z</time></trkpt><trkpt lat="50.055375" lon="5.806429"><ele>508.254</ele><time>2022-09-17T15:38:52Z</time></trkpt><trkpt lat="50.055264" lon="5.806433"><ele>508.222</ele><time>2022-09-17T15:38:53Z</time></trkpt><trkpt lat="50.055133" lon="5.806414"><ele>508.562</ele><time>2022-09-17T15:38:54Z</time></trkpt><trkpt lat="50.055003" lon="5.806395"><ele>508.908</ele><time>2022-09-17T15:38:55Z</time></trkpt><trkpt lat="50.054863" lon="5.806397"><ele>510.109</ele><time>2022-09-17T15:38:56Z</time></trkpt><trkpt lat="50.054717" lon="5.806340"><ele>511.113</ele><time>2022-09-17T15:38:57Z</time></trkpt><trkpt lat="50.054575" lon="5.806321"><ele>512.283</ele><time>2022-09-17T15:38:58Z</time></trkpt><trkpt lat="50.054441" lon="5.806302"><ele>513.395</ele><time>2022-09-17T15:38:59Z</time></trkpt><trkpt lat="50.054307" lon="5.806280"><ele>514.481</ele><time>2022-09-17T15:39:00Z</time></trkpt><trkpt lat="50.054178" lon="5.806260"><ele>514.996</ele><time>2022-09-17T15:39:01Z</time></trkpt><trkpt lat="50.054046" lon="5.806237"><ele>515.861</ele><time>2022-09-17T15:39:02Z</time></trkpt><trkpt lat="50.053910" lon="5.806215"><ele>516.496</ele><time>2022-09-17T15:39:03Z</time></trkpt><trkpt lat="50.053770" lon="5.806196"><ele>517.590</ele><time>2022-09-17T15:39:04Z</time></trkpt><trkpt lat="50.053644" lon="5.806175"><ele>517.987</ele><time>2022-09-17T15:39:05Z</time></trkpt><trkpt lat="50.053524" lon="5.806153"><ele>518.592</ele><time>2022-09-17T15:39:06Z</time></trkpt><trkpt lat="50.053393" lon="5.806129"><ele>519.273</ele><time>2022-09-17T15:39:07Z</time></trkpt><trkpt lat="50.053260" lon="5.806106"><ele>520.020</ele><time>2022-09-17T15:39:08Z</time></trkpt><trkpt lat="50.053122" lon="5.806079"><ele>521.209</ele><time>2022-09-17T15:39:09Z</time></trkpt><trkpt lat="50.052994" lon="5.806054"><ele>521.580</ele><time>2022-09-17T15:39:10Z</time></trkpt><trkpt lat="50.052879" lon="5.806031"><ele>522.230</ele><time>2022-09-17T15:39:11Z</time></trkpt><trkpt lat="50.052780" lon="5.806013"><ele>522.932</ele><time>2022-09-17T15:39:12Z</time></trkpt><trkpt lat="50.052703" lon="5.806001"><ele>523.588</ele><time>2022-09-17T15:39:13Z</time></trkpt><trkpt lat="50.052642" lon="5.805992"><ele>523.563</ele><time>2022-09-17T15:39:14Z</time></trkpt><trkpt lat="50.052584" lon="5.805984"><ele>523.578</ele><time>2022-09-17T15:39:16Z</time></trkpt><trkpt lat="50.052578" lon="5.806206"><ele>523.613</ele><time>2022-09-17T15:39:30Z</time></trkpt><trkpt lat="50.052595" lon="5.806357"><ele>523.817</ele><time>2022-09-17T15:39:32Z</time></trkpt><trkpt lat="50.052605" lon="5.806449"><ele>523.874</ele><time>2022-09-17T15:39:33Z</time></trkpt><trkpt lat="50.052618" lon="5.806562"><ele>523.935</ele><time>2022-09-17T15:39:34Z</time></trkpt><trkpt lat="50.052631" lon="5.806679"><ele>524.086</ele><time>2022-09-17T15:39:35Z</time></trkpt><trkpt lat="50.052644" lon="5.806797"><ele>524.114</ele><time>2022-09-17T15:39:36Z</time></trkpt><trkpt lat="50.052657" lon="5.806914"><ele>524.109</ele><time>2022-09-17T15:39:37Z</time></trkpt><trkpt lat="50.052671" lon="5.807040"><ele>524.164</ele><time>2022-09-17T15:39:38Z</time></trkpt><trkpt lat="50.052685" lon="5.807169"><ele>523.884</ele><time>2022-09-17T15:39:39Z</time></trkpt><trkpt lat="50.052701" lon="5.807311"><ele>523.626</ele><time>2022-09-17T15:39:40Z</time></trkpt><trkpt lat="50.052735" lon="5.807434"><ele>523.572</ele><time>2022-09-17T15:39:41Z</time></trkpt><trkpt lat="50.052749" lon="5.807574"><ele>523.357</ele><time>2022-09-17T15:39:42Z</time></trkpt><trkpt lat="50.052770" lon="5.807716"><ele>523.372</ele><time>2022-09-17T15:39:43Z</time></trkpt><trkpt lat="50.052792" lon="5.807850"><ele>523.277</ele><time>2022-09-17T15:39:44Z</time></trkpt><trkpt lat="50.052814" lon="5.807987"><ele>523.011</ele><time>2022-09-17T15:39:45Z</time></trkpt><trkpt lat="50.052837" lon="5.808120"><ele>523.018</ele><time>2022-09-17T15:39:46Z</time></trkpt><trkpt lat="50.052865" lon="5.808265"><ele>523.076</ele><time>2022-09-17T15:39:47Z</time></trkpt><trkpt lat="50.052898" lon="5.808394"><ele>523.090</ele><time>2022-09-17T15:39:48Z</time></trkpt><trkpt lat="50.052938" lon="5.808533"><ele>522.919</ele><time>2022-09-17T15:39:49Z</time></trkpt><trkpt lat="50.052981" lon="5.808680"><ele>522.809</ele><time>2022-09-17T15:39:50Z</time></trkpt><trkpt lat="50.053037" lon="5.808809"><ele>522.898</ele><time>2022-09-17T15:39:51Z</time></trkpt><trkpt lat="50.053090" lon="5.808927"><ele>522.758</ele><time>2022-09-17T15:39:52Z</time></trkpt><trkpt lat="50.053144" lon="5.809032"><ele>522.790</ele><time>2022-09-17T15:39:53Z</time></trkpt><trkpt lat="50.053194" lon="5.809114"><ele>522.796</ele><time>2022-09-17T15:39:54Z</time></trkpt><trkpt lat="50.053242" lon="5.809211"><ele>522.781</ele><time>2022-09-17T15:39:55Z</time></trkpt><trkpt lat="50.053293" lon="5.809310"><ele>522.716</ele><time>2022-09-17T15:39:56Z</time></trkpt><trkpt lat="50.053345" lon="5.809405"><ele>522.761</ele><time>2022-09-17T15:39:57Z</time></trkpt><trkpt lat="50.053399" lon="5.809492"><ele>522.815</ele><time>2022-09-17T15:39:58Z</time></trkpt><trkpt lat="50.053460" lon="5.809574"><ele>522.922</ele><time>2022-09-17T15:39:59Z</time></trkpt><trkpt lat="50.053526" lon="5.809655"><ele>523.079</ele><time>2022-09-17T15:40:00Z</time></trkpt><trkpt lat="50.053588" lon="5.809730"><ele>523.005</ele><time>2022-09-17T15:40:01Z</time></trkpt><trkpt lat="50.053661" lon="5.809789"><ele>522.925</ele><time>2022-09-17T15:40:02Z</time></trkpt><trkpt lat="50.053744" lon="5.809856"><ele>522.809</ele><time>2022-09-17T15:40:03Z</time></trkpt><trkpt lat="50.053829" lon="5.809932"><ele>522.888</ele><time>2022-09-17T15:40:04Z</time></trkpt><trkpt lat="50.053928" lon="5.810026"><ele>522.988</ele><time>2022-09-17T15:40:05Z</time></trkpt><trkpt lat="50.054025" lon="5.810112"><ele>523.020</ele><time>2022-09-17T15:40:06Z</time></trkpt><trkpt lat="50.054119" lon="5.810184"><ele>523.796</ele><time>2022-09-17T15:40:07Z</time></trkpt><trkpt lat="50.054224" lon="5.810264"><ele>524.121</ele><time>2022-09-17T15:40:08Z</time></trkpt><trkpt lat="50.054341" lon="5.810341"><ele>524.596</ele><time>2022-09-17T15:40:09Z</time></trkpt><trkpt lat="50.054440" lon="5.810389"><ele>524.941</ele><time>2022-09-17T15:40:10Z</time></trkpt><trkpt lat="50.054548" lon="5.810456"><ele>524.995</ele><time>2022-09-17T15:40:11Z</time></trkpt><trkpt lat="50.054652" lon="5.810512"><ele>524.942</ele><time>2022-09-17T15:40:12Z</time></trkpt><trkpt lat="50.054764" lon="5.810579"><ele>524.656</ele><time>2022-09-17T15:40:13Z</time></trkpt><trkpt lat="50.054894" lon="5.810646"><ele>524.359</ele><time>2022-09-17T15:40:14Z</time></trkpt><trkpt lat="50.055030" lon="5.810715"><ele>523.914</ele><time>2022-09-17T15:40:15Z</time></trkpt><trkpt lat="50.055172" lon="5.810799"><ele>523.809</ele><time>2022-09-17T15:40:16Z</time></trkpt><trkpt lat="50.055314" lon="5.810871"><ele>523.636</ele><time>2022-09-17T15:40:17Z</time></trkpt><trkpt lat="50.055453" lon="5.810943"><ele>523.526</ele><time>2022-09-17T15:40:18Z</time></trkpt><trkpt lat="50.055594" lon="5.811013"><ele>523.378</ele><time>2022-09-17T15:40:19Z</time></trkpt><trkpt lat="50.055722" lon="5.811084"><ele>522.864</ele><time>2022-09-17T15:40:20Z</time></trkpt><trkpt lat="50.055851" lon="5.811144"><ele>522.299</ele><time>2022-09-17T15:40:21Z</time></trkpt><trkpt lat="50.055981" lon="5.811207"><ele>521.674</ele><time>2022-09-17T15:40:22Z</time></trkpt><trkpt lat="50.056113" lon="5.811270"><ele>521.019</ele><time>2022-09-17T15:40:23Z</time></trkpt><trkpt lat="50.056248" lon="5.811344"><ele>520.583</ele><time>2022-09-17T15:40:24Z</time></trkpt><trkpt lat="50.056379" lon="5.811405"><ele>520.250</ele><time>2022-09-17T15:40:25Z</time></trkpt><trkpt lat="50.056503" lon="5.811442"><ele>520.179</ele><time>2022-09-17T15:40:26Z</time></trkpt><trkpt lat="50.056618" lon="5.811488"><ele>520.105</ele><time>2022-09-17T15:40:27Z</time></trkpt><trkpt lat="50.056685" lon="5.811553"><ele>519.925</ele><time>2022-09-17T15:40:28Z</time></trkpt><trkpt lat="50.056758" lon="5.811610"><ele>519.409</ele><time>2022-09-17T15:40:29Z</time></trkpt><trkpt lat="50.056813" lon="5.811653"><ele>519.148</ele><time>2022-09-17T15:40:30Z</time></trkpt><trkpt lat="50.056869" lon="5.811697"><ele>518.578</ele><time>2022-09-17T15:40:31Z</time></trkpt><trkpt lat="50.056978" lon="5.811544"><ele>517.360</ele><time>2022-09-17T15:40:32Z</time></trkpt><trkpt lat="50.057054" lon="5.811526"><ele>516.886</ele><time>2022-09-17T15:40:33Z</time></trkpt><trkpt lat="50.057113" lon="5.811519"><ele>516.811</ele><time>2022-09-17T15:40:34Z</time></trkpt><trkpt lat="50.057182" lon="5.811577"><ele>516.966</ele><time>2022-09-17T15:40:35Z</time></trkpt><trkpt lat="50.057259" lon="5.811682"><ele>517.071</ele><time>2022-09-17T15:40:36Z</time></trkpt><trkpt lat="50.057345" lon="5.811808"><ele>517.535</ele><time>2022-09-17T15:40:37Z</time></trkpt><trkpt lat="50.057432" lon="5.811936"><ele>517.792</ele><time>2022-09-17T15:40:38Z</time></trkpt><trkpt lat="50.057539" lon="5.812093"><ele>517.719</ele><time>2022-09-17T15:40:39Z</time></trkpt><trkpt lat="50.057649" lon="5.812254"><ele>517.709</ele><time>2022-09-17T15:40:40Z</time></trkpt><trkpt lat="50.057760" lon="5.812417"><ele>517.619</ele><time>2022-09-17T15:40:41Z</time></trkpt><trkpt lat="50.057870" lon="5.812578"><ele>517.509</ele><time>2022-09-17T15:40:42Z</time></trkpt><trkpt lat="50.057984" lon="5.812744"><ele>517.452</ele><time>2022-09-17T15:40:43Z</time></trkpt><trkpt lat="50.058115" lon="5.812893"><ele>517.342</ele><time>2022-09-17T15:40:44Z</time></trkpt><trkpt lat="50.058229" lon="5.813058"><ele>517.394</ele><time>2022-09-17T15:40:45Z</time></trkpt><trkpt lat="50.058340" lon="5.813214"><ele>517.220</ele><time>2022-09-17T15:40:46Z</time></trkpt><trkpt lat="50.058453" lon="5.813373"><ele>517.165</ele><time>2022-09-17T15:40:47Z</time></trkpt><trkpt lat="50.058554" lon="5.813513"><ele>517.140</ele><time>2022-09-17T15:40:48Z</time></trkpt><trkpt lat="50.058660" lon="5.813660"><ele>517.035</ele><time>2022-09-17T15:40:49Z</time></trkpt><trkpt lat="50.058766" lon="5.813807"><ele>516.949</ele><time>2022-09-17T15:40:50Z</time></trkpt><trkpt lat="50.058864" lon="5.813976"><ele>516.526</ele><time>2022-09-17T15:40:51Z</time></trkpt><trkpt lat="50.058975" lon="5.814131"><ele>516.065</ele><time>2022-09-17T15:40:52Z</time></trkpt><trkpt lat="50.059092" lon="5.814261"><ele>515.668</ele><time>2022-09-17T15:40:53Z</time></trkpt><trkpt lat="50.059195" lon="5.814406"><ele>515.114</ele><time>2022-09-17T15:40:54Z</time></trkpt><trkpt lat="50.059281" lon="5.814531"><ele>514.909</ele><time>2022-09-17T15:40:55Z</time></trkpt><trkpt lat="50.059360" lon="5.814636"><ele>514.757</ele><time>2022-09-17T15:40:56Z</time></trkpt><trkpt lat="50.059425" lon="5.814727"><ele>514.437</ele><time>2022-09-17T15:40:57Z</time></trkpt><trkpt lat="50.059494" lon="5.814814"><ele>513.969</ele><time>2022-09-17T15:40:58Z</time></trkpt><trkpt lat="50.059570" lon="5.814903"><ele>513.575</ele><time>2022-09-17T15:40:59Z</time></trkpt><trkpt lat="50.059636" lon="5.814989"><ele>513.040</ele><time>2022-09-17T15:41:00Z</time></trkpt><trkpt lat="50.059694" lon="5.815074"><ele>512.835</ele><time>2022-09-17T15:41:01Z</time></trkpt><trkpt lat="50.059752" lon="5.815145"><ele>512.460</ele><time>2022-09-17T15:41:02Z</time></trkpt><trkpt lat="50.059810" lon="5.815214"><ele>512.274</ele><time>2022-09-17T15:41:03Z</time></trkpt><trkpt lat="50.059889" lon="5.815311"><ele>512.031</ele><time>2022-09-17T15:41:04Z</time></trkpt><trkpt lat="50.059964" lon="5.815421"><ele>511.828</ele><time>2022-09-17T15:41:05Z</time></trkpt><trkpt lat="50.060043" lon="5.815513"><ele>511.689</ele><time>2022-09-17T15:41:06Z</time></trkpt><trkpt lat="50.060124" lon="5.815647"><ele>511.617</ele><time>2022-09-17T15:41:07Z</time></trkpt><trkpt lat="50.060202" lon="5.815774"><ele>511.409</ele><time>2022-09-17T15:41:08Z</time></trkpt><trkpt lat="50.060283" lon="5.815956"><ele>511.453</ele><time>2022-09-17T15:41:09Z</time></trkpt><trkpt lat="50.060358" lon="5.816111"><ele>511.433</ele><time>2022-09-17T15:41:10Z</time></trkpt><trkpt lat="50.060439" lon="5.816244"><ele>511.325</ele><time>2022-09-17T15:41:11Z</time></trkpt><trkpt lat="50.060525" lon="5.816416"><ele>511.081</ele><time>2022-09-17T15:41:12Z</time></trkpt><trkpt lat="50.060608" lon="5.816582"><ele>510.696</ele><time>2022-09-17T15:41:13Z</time></trkpt><trkpt lat="50.060686" lon="5.816737"><ele>510.441</ele><time>2022-09-17T15:41:14Z</time></trkpt><trkpt lat="50.060772" lon="5.816897"><ele>510.166</ele><time>2022-09-17T15:41:15Z</time></trkpt><trkpt lat="50.060850" lon="5.817028"><ele>508.990</ele><time>2022-09-17T15:41:16Z</time></trkpt><trkpt lat="50.060939" lon="5.817125"><ele>507.787</ele><time>2022-09-17T15:41:17Z</time></trkpt><trkpt lat="50.061016" lon="5.817227"><ele>506.592</ele><time>2022-09-17T15:41:18Z</time></trkpt><trkpt lat="50.061091" lon="5.817303"><ele>505.673</ele><time>2022-09-17T15:41:19Z</time></trkpt><trkpt lat="50.061148" lon="5.817392"><ele>504.620</ele><time>2022-09-17T15:41:20Z</time></trkpt><trkpt lat="50.061196" lon="5.817480"><ele>504.509</ele><time>2022-09-17T15:41:21Z</time></trkpt><trkpt lat="50.061246" lon="5.817562"><ele>504.520</ele><time>2022-09-17T15:41:22Z</time></trkpt><trkpt lat="50.061297" lon="5.817604"><ele>504.680</ele><time>2022-09-17T15:41:23Z</time></trkpt><trkpt lat="50.061335" lon="5.817641"><ele>504.792</ele><time>2022-09-17T15:41:24Z</time></trkpt><trkpt lat="50.061409" lon="5.817711"><ele>504.938</ele><time>2022-09-17T15:41:26Z</time></trkpt><trkpt lat="50.061454" lon="5.817741"><ele>505.223</ele><time>2022-09-17T15:41:27Z</time></trkpt><trkpt lat="50.061509" lon="5.817795"><ele>505.688</ele><time>2022-09-17T15:41:28Z</time></trkpt><trkpt lat="50.061557" lon="5.817845"><ele>505.783</ele><time>2022-09-17T15:41:29Z</time></trkpt><trkpt lat="50.061618" lon="5.817877"><ele>505.927</ele><time>2022-09-17T15:41:30Z</time></trkpt><trkpt lat="50.061664" lon="5.817943"><ele>505.954</ele><time>2022-09-17T15:41:31Z</time></trkpt><trkpt lat="50.061718" lon="5.818008"><ele>506.114</ele><time>2022-09-17T15:41:32Z</time></trkpt><trkpt lat="50.061783" lon="5.818055"><ele>506.154</ele><time>2022-09-17T15:41:33Z</time></trkpt><trkpt lat="50.061872" lon="5.818141"><ele>506.109</ele><time>2022-09-17T15:41:34Z</time></trkpt><trkpt lat="50.061942" lon="5.818216"><ele>506.009</ele><time>2022-09-17T15:41:35Z</time></trkpt><trkpt lat="50.062021" lon="5.818287"><ele>505.762</ele><time>2022-09-17T15:41:36Z</time></trkpt><trkpt lat="50.062089" lon="5.818374"><ele>505.612</ele><time>2022-09-17T15:41:37Z</time></trkpt><trkpt lat="50.062153" lon="5.818438"><ele>505.354</ele><time>2022-09-17T15:41:38Z</time></trkpt><trkpt lat="50.062215" lon="5.818527"><ele>505.180</ele><time>2022-09-17T15:41:39Z</time></trkpt><trkpt lat="50.062283" lon="5.818597"><ele>505.185</ele><time>2022-09-17T15:41:40Z</time></trkpt><trkpt lat="50.062348" lon="5.818680"><ele>505.180</ele><time>2022-09-17T15:41:41Z</time></trkpt><trkpt lat="50.062420" lon="5.818758"><ele>505.125</ele><time>2022-09-17T15:41:42Z</time></trkpt><trkpt lat="50.062492" lon="5.818839"><ele>505.169</ele><time>2022-09-17T15:41:43Z</time></trkpt><trkpt lat="50.062560" lon="5.818939"><ele>505.086</ele><time>2022-09-17T15:41:44Z</time></trkpt><trkpt lat="50.062621" lon="5.819039"><ele>504.975</ele><time>2022-09-17T15:41:45Z</time></trkpt><trkpt lat="50.062690" lon="5.819125"><ele>504.728</ele><time>2022-09-17T15:41:46Z</time></trkpt><trkpt lat="50.062755" lon="5.819237"><ele>504.720</ele><time>2022-09-17T15:41:47Z</time></trkpt><trkpt lat="50.062829" lon="5.819331"><ele>504.709</ele><time>2022-09-17T15:41:48Z</time></trkpt><trkpt lat="50.062885" lon="5.819465"><ele>504.898</ele><time>2022-09-17T15:41:49Z</time></trkpt><trkpt lat="50.062959" lon="5.819570"><ele>504.858</ele><time>2022-09-17T15:41:50Z</time></trkpt><trkpt lat="50.063028" lon="5.819647"><ele>504.910</ele><time>2022-09-17T15:41:51Z</time></trkpt><trkpt lat="50.063101" lon="5.819764"><ele>504.966</ele><time>2022-09-17T15:41:52Z</time></trkpt><trkpt lat="50.063172" lon="5.819824"><ele>504.921</ele><time>2022-09-17T15:41:53Z</time></trkpt><trkpt lat="50.063231" lon="5.819941"><ele>504.826</ele><time>2022-09-17T15:41:54Z</time></trkpt><trkpt lat="50.063282" lon="5.820080"><ele>504.821</ele><time>2022-09-17T15:41:55Z</time></trkpt><trkpt lat="50.063328" lon="5.820219"><ele>504.685</ele><time>2022-09-17T15:41:56Z</time></trkpt><trkpt lat="50.063414" lon="5.820365"><ele>504.612</ele><time>2022-09-17T15:41:57Z</time></trkpt><trkpt lat="50.063485" lon="5.820463"><ele>504.688</ele><time>2022-09-17T15:41:58Z</time></trkpt><trkpt lat="50.063576" lon="5.820554"><ele>504.224</ele><time>2022-09-17T15:41:59Z</time></trkpt><trkpt lat="50.063663" lon="5.820665"><ele>504.026</ele><time>2022-09-17T15:42:00Z</time></trkpt><trkpt lat="50.063735" lon="5.820827"><ele>503.809</ele><time>2022-09-17T15:42:01Z</time></trkpt><trkpt lat="50.063810" lon="5.820949"><ele>503.589</ele><time>2022-09-17T15:42:02Z</time></trkpt><trkpt lat="50.063878" lon="5.821058"><ele>503.259</ele><time>2022-09-17T15:42:03Z</time></trkpt><trkpt lat="50.063958" lon="5.821176"><ele>503.171</ele><time>2022-09-17T15:42:04Z</time></trkpt><trkpt lat="50.064030" lon="5.821300"><ele>502.867</ele><time>2022-09-17T15:42:05Z</time></trkpt><trkpt lat="50.064064" lon="5.821477"><ele>502.532</ele><time>2022-09-17T15:42:06Z</time></trkpt><trkpt lat="50.064106" lon="5.821622"><ele>502.217</ele><time>2022-09-17T15:42:07Z</time></trkpt><trkpt lat="50.064165" lon="5.821724"><ele>501.822</ele><time>2022-09-17T15:42:08Z</time></trkpt><trkpt lat="50.064213" lon="5.821826"><ele>501.636</ele><time>2022-09-17T15:42:09Z</time></trkpt><trkpt lat="50.064263" lon="5.821930"><ele>501.593</ele><time>2022-09-17T15:42:10Z</time></trkpt><trkpt lat="50.064318" lon="5.822032"><ele>501.397</ele><time>2022-09-17T15:42:11Z</time></trkpt><trkpt lat="50.064374" lon="5.822138"><ele>501.123</ele><time>2022-09-17T15:42:12Z</time></trkpt><trkpt lat="50.064428" lon="5.822239"><ele>501.025</ele><time>2022-09-17T15:42:13Z</time></trkpt><trkpt lat="50.064499" lon="5.822359"><ele>500.709</ele><time>2022-09-17T15:42:14Z</time></trkpt><trkpt lat="50.064572" lon="5.822485"><ele>500.370</ele><time>2022-09-17T15:42:15Z</time></trkpt><trkpt lat="50.064660" lon="5.822598"><ele>500.180</ele><time>2022-09-17T15:42:16Z</time></trkpt><trkpt lat="50.064743" lon="5.822684"><ele>499.882</ele><time>2022-09-17T15:42:17Z</time></trkpt><trkpt lat="50.064802" lon="5.822791"><ele>499.838</ele><time>2022-09-17T15:42:18Z</time></trkpt><trkpt lat="50.064873" lon="5.822872"><ele>499.683</ele><time>2022-09-17T15:42:19Z</time></trkpt><trkpt lat="50.064933" lon="5.823005"><ele>499.518</ele><time>2022-09-17T15:42:20Z</time></trkpt><trkpt lat="50.065001" lon="5.823131"><ele>499.493</ele><time>2022-09-17T15:42:21Z</time></trkpt><trkpt lat="50.065068" lon="5.823235"><ele>499.487</ele><time>2022-09-17T15:42:22Z</time></trkpt><trkpt lat="50.065131" lon="5.823322"><ele>499.324</ele><time>2022-09-17T15:42:23Z</time></trkpt><trkpt lat="50.065186" lon="5.823394"><ele>499.375</ele><time>2022-09-17T15:42:24Z</time></trkpt><trkpt lat="50.065259" lon="5.823470"><ele>499.328</ele><time>2022-09-17T15:42:25Z</time></trkpt><trkpt lat="50.065227" lon="5.823705"><ele>499.320</ele><time>2022-09-17T15:42:26Z</time></trkpt><trkpt lat="50.065247" lon="5.823918"><ele>499.409</ele><time>2022-09-17T15:42:27Z</time></trkpt><trkpt lat="50.065295" lon="5.824059"><ele>499.538</ele><time>2022-09-17T15:42:28Z</time></trkpt><trkpt lat="50.065342" lon="5.824157"><ele>499.588</ele><time>2022-09-17T15:42:29Z</time></trkpt><trkpt lat="50.065416" lon="5.824251"><ele>499.620</ele><time>2022-09-17T15:42:30Z</time></trkpt><trkpt lat="50.065464" lon="5.824378"><ele>499.656</ele><time>2022-09-17T15:42:31Z</time></trkpt><trkpt lat="50.065504" lon="5.824487"><ele>499.831</ele><time>2022-09-17T15:42:32Z</time></trkpt><trkpt lat="50.065537" lon="5.824617"><ele>499.876</ele><time>2022-09-17T15:42:33Z</time></trkpt><trkpt lat="50.065600" lon="5.824718"><ele>499.841</ele><time>2022-09-17T15:42:34Z</time></trkpt><trkpt lat="50.065651" lon="5.824824"><ele>499.965</ele><time>2022-09-17T15:42:35Z</time></trkpt><trkpt lat="50.065676" lon="5.824957"><ele>500.092</ele><time>2022-09-17T15:42:36Z</time></trkpt><trkpt lat="50.065709" lon="5.825063"><ele>500.079</ele><time>2022-09-17T15:42:37Z</time></trkpt><trkpt lat="50.065746" lon="5.825205"><ele>500.105</ele><time>2022-09-17T15:42:38Z</time></trkpt><trkpt lat="50.065814" lon="5.825302"><ele>500.225</ele><time>2022-09-17T15:42:39Z</time></trkpt><trkpt lat="50.065874" lon="5.825430"><ele>500.309</ele><time>2022-09-17T15:42:40Z</time></trkpt><trkpt lat="50.065915" lon="5.825522"><ele>500.388</ele><time>2022-09-17T15:42:41Z</time></trkpt><trkpt lat="50.065961" lon="5.825668"><ele>500.438</ele><time>2022-09-17T15:42:42Z</time></trkpt><trkpt lat="50.066003" lon="5.825805"><ele>500.580</ele><time>2022-09-17T15:42:43Z</time></trkpt><trkpt lat="50.066057" lon="5.825898"><ele>500.596</ele><time>2022-09-17T15:42:44Z</time></trkpt><trkpt lat="50.066082" lon="5.826020"><ele>500.631</ele><time>2022-09-17T15:42:45Z</time></trkpt><trkpt lat="50.066101" lon="5.826115"><ele>500.736</ele><time>2022-09-17T15:42:46Z</time></trkpt><trkpt lat="50.066119" lon="5.826193"><ele>500.711</ele><time>2022-09-17T15:42:47Z</time></trkpt><trkpt lat="50.066164" lon="5.826299"><ele>500.745</ele><time>2022-09-17T15:42:49Z</time></trkpt><trkpt lat="50.066186" lon="5.826368"><ele>500.752</ele><time>2022-09-17T15:42:50Z</time></trkpt><trkpt lat="50.066220" lon="5.826431"><ele>501.838</ele><time>2022-09-17T15:42:51Z</time></trkpt><trkpt lat="50.066249" lon="5.826522"><ele>501.870</ele><time>2022-09-17T15:42:52Z</time></trkpt><trkpt lat="50.066292" lon="5.826612"><ele>502.117</ele><time>2022-09-17T15:42:53Z</time></trkpt><trkpt lat="50.066313" lon="5.826730"><ele>502.409</ele><time>2022-09-17T15:42:54Z</time></trkpt><trkpt lat="50.066348" lon="5.826813"><ele>502.434</ele><time>2022-09-17T15:42:55Z</time></trkpt><trkpt lat="50.066391" lon="5.826893"><ele>502.494</ele><time>2022-09-17T15:42:56Z</time></trkpt><trkpt lat="50.066427" lon="5.826985"><ele>502.356</ele><time>2022-09-17T15:42:57Z</time></trkpt><trkpt lat="50.066446" lon="5.827102"><ele>502.342</ele><time>2022-09-17T15:42:58Z</time></trkpt><trkpt lat="50.066483" lon="5.827211"><ele>502.397</ele><time>2022-09-17T15:42:59Z</time></trkpt><trkpt lat="50.066519" lon="5.827315"><ele>502.592</ele><time>2022-09-17T15:43:00Z</time></trkpt><trkpt lat="50.066542" lon="5.827439"><ele>502.617</ele><time>2022-09-17T15:43:01Z</time></trkpt><trkpt lat="50.066577" lon="5.827554"><ele>502.661</ele><time>2022-09-17T15:43:02Z</time></trkpt><trkpt lat="50.066609" lon="5.827650"><ele>502.678</ele><time>2022-09-17T15:43:03Z</time></trkpt><trkpt lat="50.066635" lon="5.827747"><ele>502.655</ele><time>2022-09-17T15:43:04Z</time></trkpt><trkpt lat="50.066662" lon="5.827832"><ele>502.507</ele><time>2022-09-17T15:43:05Z</time></trkpt><trkpt lat="50.066681" lon="5.827911"><ele>502.617</ele><time>2022-09-17T15:43:06Z</time></trkpt><trkpt lat="50.066696" lon="5.828007"><ele>502.609</ele><time>2022-09-17T15:43:07Z</time></trkpt><trkpt lat="50.066727" lon="5.828109"><ele>502.736</ele><time>2022-09-17T15:43:08Z</time></trkpt><trkpt lat="50.066743" lon="5.828211"><ele>502.996</ele><time>2022-09-17T15:43:09Z</time></trkpt><trkpt lat="50.066763" lon="5.828298"><ele>503.178</ele><time>2022-09-17T15:43:10Z</time></trkpt><trkpt lat="50.066792" lon="5.828392"><ele>503.374</ele><time>2022-09-17T15:43:11Z</time></trkpt><trkpt lat="50.066815" lon="5.828506"><ele>503.589</ele><time>2022-09-17T15:43:12Z</time></trkpt><trkpt lat="50.066848" lon="5.828624"><ele>503.514</ele><time>2022-09-17T15:43:13Z</time></trkpt><trkpt lat="50.066872" lon="5.828761"><ele>503.589</ele><time>2022-09-17T15:43:14Z</time></trkpt><trkpt lat="50.066914" lon="5.828880"><ele>503.523</ele><time>2022-09-17T15:43:15Z</time></trkpt><trkpt lat="50.066949" lon="5.828994"><ele>503.520</ele><time>2022-09-17T15:43:16Z</time></trkpt><trkpt lat="50.066987" lon="5.829112"><ele>503.667</ele><time>2022-09-17T15:43:17Z</time></trkpt><trkpt lat="50.067004" lon="5.829250"><ele>503.781</ele><time>2022-09-17T15:43:18Z</time></trkpt><trkpt lat="50.067015" lon="5.829405"><ele>503.819</ele><time>2022-09-17T15:43:19Z</time></trkpt><trkpt lat="50.067038" lon="5.829585"><ele>503.909</ele><time>2022-09-17T15:43:20Z</time></trkpt><trkpt lat="50.067059" lon="5.829759"><ele>504.037</ele><time>2022-09-17T15:43:21Z</time></trkpt><trkpt lat="50.067075" lon="5.829896"><ele>504.367</ele><time>2022-09-17T15:43:22Z</time></trkpt><trkpt lat="50.067093" lon="5.830044"><ele>504.479</ele><time>2022-09-17T15:43:23Z</time></trkpt><trkpt lat="50.067121" lon="5.830191"><ele>504.435</ele><time>2022-09-17T15:43:24Z</time></trkpt><trkpt lat="50.067160" lon="5.830319"><ele>504.470</ele><time>2022-09-17T15:43:25Z</time></trkpt><trkpt lat="50.067200" lon="5.830452"><ele>504.345</ele><time>2022-09-17T15:43:26Z</time></trkpt><trkpt lat="50.067241" lon="5.830587"><ele>503.920</ele><time>2022-09-17T15:43:27Z</time></trkpt><trkpt lat="50.067303" lon="5.830724"><ele>503.954</ele><time>2022-09-17T15:43:28Z</time></trkpt><trkpt lat="50.067349" lon="5.830862"><ele>503.981</ele><time>2022-09-17T15:43:29Z</time></trkpt><trkpt lat="50.067371" lon="5.831022"><ele>503.918</ele><time>2022-09-17T15:43:30Z</time></trkpt><trkpt lat="50.067394" lon="5.831151"><ele>503.998</ele><time>2022-09-17T15:43:31Z</time></trkpt><trkpt lat="50.067433" lon="5.831291"><ele>504.017</ele><time>2022-09-17T15:43:32Z</time></trkpt><trkpt lat="50.067469" lon="5.831436"><ele>504.009</ele><time>2022-09-17T15:43:33Z</time></trkpt><trkpt lat="50.067504" lon="5.831594"><ele>504.052</ele><time>2022-09-17T15:43:34Z</time></trkpt><trkpt lat="50.067537" lon="5.831753"><ele>503.932</ele><time>2022-09-17T15:43:35Z</time></trkpt><trkpt lat="50.067577" lon="5.831902"><ele>503.994</ele><time>2022-09-17T15:43:36Z</time></trkpt><trkpt lat="50.067594" lon="5.832083"><ele>503.960</ele><time>2022-09-17T15:43:37Z</time></trkpt><trkpt lat="50.067625" lon="5.832219"><ele>503.445</ele><time>2022-09-17T15:43:38Z</time></trkpt><trkpt lat="50.067660" lon="5.832314"><ele>503.270</ele><time>2022-09-17T15:43:39Z</time></trkpt><trkpt lat="50.067671" lon="5.832438"><ele>503.065</ele><time>2022-09-17T15:43:40Z</time></trkpt><trkpt lat="50.067674" lon="5.832540"><ele>502.819</ele><time>2022-09-17T15:43:41Z</time></trkpt><trkpt lat="50.067681" lon="5.832629"><ele>502.886</ele><time>2022-09-17T15:43:42Z</time></trkpt><trkpt lat="50.067700" lon="5.832722"><ele>502.886</ele><time>2022-09-17T15:43:43Z</time></trkpt><trkpt lat="50.067719" lon="5.832809"><ele>502.860</ele><time>2022-09-17T15:43:44Z</time></trkpt><trkpt lat="50.067743" lon="5.832907"><ele>502.926</ele><time>2022-09-17T15:43:45Z</time></trkpt><trkpt lat="50.067762" lon="5.833023"><ele>502.909</ele><time>2022-09-17T15:43:46Z</time></trkpt><trkpt lat="50.067789" lon="5.833127"><ele>502.969</ele><time>2022-09-17T15:43:47Z</time></trkpt><trkpt lat="50.067802" lon="5.833243"><ele>502.739</ele><time>2022-09-17T15:43:48Z</time></trkpt><trkpt lat="50.067829" lon="5.833352"><ele>502.521</ele><time>2022-09-17T15:43:49Z</time></trkpt><trkpt lat="50.067856" lon="5.833486"><ele>502.227</ele><time>2022-09-17T15:43:50Z</time></trkpt><trkpt lat="50.067888" lon="5.833573"><ele>501.882</ele><time>2022-09-17T15:43:51Z</time></trkpt><trkpt lat="50.067920" lon="5.833671"><ele>501.687</ele><time>2022-09-17T15:43:52Z</time></trkpt><trkpt lat="50.067960" lon="5.833772"><ele>501.662</ele><time>2022-09-17T15:43:53Z</time></trkpt><trkpt lat="50.067977" lon="5.833877"><ele>501.536</ele><time>2022-09-17T15:43:54Z</time></trkpt><trkpt lat="50.067995" lon="5.833985"><ele>501.443</ele><time>2022-09-17T15:43:55Z</time></trkpt><trkpt lat="50.068034" lon="5.834071"><ele>501.368</ele><time>2022-09-17T15:43:56Z</time></trkpt><trkpt lat="50.068036" lon="5.834166"><ele>501.242</ele><time>2022-09-17T15:43:57Z</time></trkpt><trkpt lat="50.068071" lon="5.834219"><ele>501.126</ele><time>2022-09-17T15:43:58Z</time></trkpt><trkpt lat="50.068082" lon="5.834302"><ele>501.109</ele><time>2022-09-17T15:43:59Z</time></trkpt><trkpt lat="50.068085" lon="5.834392"><ele>500.847</ele><time>2022-09-17T15:44:00Z</time></trkpt><trkpt lat="50.068115" lon="5.834475"><ele>500.777</ele><time>2022-09-17T15:44:01Z</time></trkpt><trkpt lat="50.068146" lon="5.834562"><ele>500.699</ele><time>2022-09-17T15:44:02Z</time></trkpt><trkpt lat="50.068181" lon="5.834652"><ele>500.345</ele><time>2022-09-17T15:44:03Z</time></trkpt><trkpt lat="50.068229" lon="5.834748"><ele>500.180</ele><time>2022-09-17T15:44:04Z</time></trkpt><trkpt lat="50.068256" lon="5.834849"><ele>500.015</ele><time>2022-09-17T15:44:05Z</time></trkpt><trkpt lat="50.068296" lon="5.834923"><ele>499.980</ele><time>2022-09-17T15:44:06Z</time></trkpt><trkpt lat="50.068325" lon="5.835006"><ele>499.724</ele><time>2022-09-17T15:44:07Z</time></trkpt><trkpt lat="50.068340" lon="5.835080"><ele>499.591</ele><time>2022-09-17T15:44:08Z</time></trkpt><trkpt lat="50.068371" lon="5.835141"><ele>499.375</ele><time>2022-09-17T15:44:09Z</time></trkpt><trkpt lat="50.068407" lon="5.835210"><ele>499.228</ele><time>2022-09-17T15:44:10Z</time></trkpt><trkpt lat="50.068443" lon="5.835294"><ele>499.020</ele><time>2022-09-17T15:44:11Z</time></trkpt><trkpt lat="50.068460" lon="5.835430"><ele>499.009</ele><time>2022-09-17T15:44:12Z</time></trkpt><trkpt lat="50.068477" lon="5.835549"><ele>498.998</ele><time>2022-09-17T15:44:13Z</time></trkpt><trkpt lat="50.068500" lon="5.835624"><ele>498.798</ele><time>2022-09-17T15:44:14Z</time></trkpt><trkpt lat="50.068541" lon="5.835763"><ele>498.490</ele><time>2022-09-17T15:44:16Z</time></trkpt><trkpt lat="50.068533" lon="5.835871"><ele>497.946</ele><time>2022-09-17T15:44:17Z</time></trkpt><trkpt lat="50.068537" lon="5.835986"><ele>497.661</ele><time>2022-09-17T15:44:18Z</time></trkpt><trkpt lat="50.068530" lon="5.836124"><ele>497.586</ele><time>2022-09-17T15:44:19Z</time></trkpt><trkpt lat="50.068518" lon="5.836221"><ele>497.451</ele><time>2022-09-17T15:44:20Z</time></trkpt><trkpt lat="50.068523" lon="5.836311"><ele>497.475</ele><time>2022-09-17T15:44:21Z</time></trkpt><trkpt lat="50.068544" lon="5.836437"><ele>497.472</ele><time>2022-09-17T15:44:22Z</time></trkpt><trkpt lat="50.068586" lon="5.836550"><ele>497.574</ele><time>2022-09-17T15:44:23Z</time></trkpt><trkpt lat="50.068621" lon="5.836617"><ele>497.656</ele><time>2022-09-17T15:44:24Z</time></trkpt><trkpt lat="50.068655" lon="5.836712"><ele>497.721</ele><time>2022-09-17T15:44:25Z</time></trkpt><trkpt lat="50.068687" lon="5.836790"><ele>497.809</ele><time>2022-09-17T15:44:26Z</time></trkpt><trkpt lat="50.068748" lon="5.836929"><ele>497.888</ele><time>2022-09-17T15:44:28Z</time></trkpt><trkpt lat="50.068776" lon="5.837035"><ele>497.828</ele><time>2022-09-17T15:44:29Z</time></trkpt><trkpt lat="50.068823" lon="5.837151"><ele>497.860</ele><time>2022-09-17T15:44:30Z</time></trkpt><trkpt lat="50.068848" lon="5.837260"><ele>497.856</ele><time>2022-09-17T15:44:31Z</time></trkpt><trkpt lat="50.068887" lon="5.837361"><ele>497.821</ele><time>2022-09-17T15:44:32Z</time></trkpt><trkpt lat="50.068875" lon="5.837498"><ele>497.826</ele><time>2022-09-17T15:44:33Z</time></trkpt><trkpt lat="50.068874" lon="5.837596"><ele>497.851</ele><time>2022-09-17T15:44:34Z</time></trkpt><trkpt lat="50.068833" lon="5.837726"><ele>497.885</ele><time>2022-09-17T15:44:35Z</time></trkpt><trkpt lat="50.068835" lon="5.837864"><ele>497.852</ele><time>2022-09-17T15:44:36Z</time></trkpt><trkpt lat="50.068838" lon="5.837998"><ele>497.816</ele><time>2022-09-17T15:44:37Z</time></trkpt><trkpt lat="50.068867" lon="5.838113"><ele>497.876</ele><time>2022-09-17T15:44:38Z</time></trkpt><trkpt lat="50.068892" lon="5.838203"><ele>497.913</ele><time>2022-09-17T15:44:39Z</time></trkpt><trkpt lat="50.068964" lon="5.838270"><ele>498.009</ele><time>2022-09-17T15:44:40Z</time></trkpt><trkpt lat="50.068976" lon="5.838470"><ele>498.452</ele><time>2022-09-17T15:44:41Z</time></trkpt><trkpt lat="50.068981" lon="5.838643"><ele>498.562</ele><time>2022-09-17T15:44:42Z</time></trkpt><trkpt lat="50.068994" lon="5.838783"><ele>498.734</ele><time>2022-09-17T15:44:43Z</time></trkpt><trkpt lat="50.069046" lon="5.838875"><ele>498.790</ele><time>2022-09-17T15:44:44Z</time></trkpt><trkpt lat="50.069079" lon="5.839005"><ele>498.795</ele><time>2022-09-17T15:44:45Z</time></trkpt><trkpt lat="50.069102" lon="5.839136"><ele>498.560</ele><time>2022-09-17T15:44:46Z</time></trkpt><trkpt lat="50.069133" lon="5.839235"><ele>498.255</ele><time>2022-09-17T15:44:47Z</time></trkpt><trkpt lat="50.069164" lon="5.839334"><ele>498.019</ele><time>2022-09-17T15:44:48Z</time></trkpt><trkpt lat="50.069190" lon="5.839420"><ele>497.746</ele><time>2022-09-17T15:44:49Z</time></trkpt><trkpt lat="50.069209" lon="5.839504"><ele>497.637</ele><time>2022-09-17T15:44:50Z</time></trkpt><trkpt lat="50.069245" lon="5.839653"><ele>497.349</ele><time>2022-09-17T15:44:52Z</time></trkpt><trkpt lat="50.069291" lon="5.839744"><ele>497.213</ele><time>2022-09-17T15:44:53Z</time></trkpt><trkpt lat="50.069329" lon="5.839837"><ele>497.109</ele><time>2022-09-17T15:44:54Z</time></trkpt><trkpt lat="50.069368" lon="5.839924"><ele>497.054</ele><time>2022-09-17T15:44:55Z</time></trkpt><trkpt lat="50.069381" lon="5.840015"><ele>496.974</ele><time>2022-09-17T15:44:56Z</time></trkpt><trkpt lat="50.069391" lon="5.840116"><ele>496.856</ele><time>2022-09-17T15:44:57Z</time></trkpt><trkpt lat="50.069409" lon="5.840218"><ele>496.672</ele><time>2022-09-17T15:44:58Z</time></trkpt><trkpt lat="50.069429" lon="5.840281"><ele>496.537</ele><time>2022-09-17T15:44:59Z</time></trkpt><trkpt lat="50.069444" lon="5.840360"><ele>496.442</ele><time>2022-09-17T15:45:00Z</time></trkpt><trkpt lat="50.069485" lon="5.840480"><ele>496.347</ele><time>2022-09-17T15:45:02Z</time></trkpt><trkpt lat="50.069494" lon="5.840587"><ele>496.211</ele><time>2022-09-17T15:45:04Z</time></trkpt><trkpt lat="50.069472" lon="5.840657"><ele>496.028</ele><time>2022-09-17T15:45:06Z</time></trkpt><trkpt lat="50.069461" lon="5.840748"><ele>495.961</ele><time>2022-09-17T15:45:08Z</time></trkpt><trkpt lat="50.069437" lon="5.840851"><ele>495.921</ele><time>2022-09-17T15:45:15Z</time></trkpt><trkpt lat="50.069470" lon="5.841020"><ele>496.013</ele><time>2022-09-17T15:45:21Z</time></trkpt><trkpt lat="50.069492" lon="5.841090"><ele>496.109</ele><time>2022-09-17T15:45:22Z</time></trkpt><trkpt lat="50.069524" lon="5.841204"><ele>496.287</ele><time>2022-09-17T15:45:24Z</time></trkpt><trkpt lat="50.069534" lon="5.841291"><ele>496.247</ele><time>2022-09-17T15:45:25Z</time></trkpt><trkpt lat="50.069551" lon="5.841375"><ele>496.149</ele><time>2022-09-17T15:45:26Z</time></trkpt><trkpt lat="50.069611" lon="5.841475"><ele>496.195</ele><time>2022-09-17T15:45:27Z</time></trkpt><trkpt lat="50.069652" lon="5.841566"><ele>495.920</ele><time>2022-09-17T15:45:28Z</time></trkpt><trkpt lat="50.069667" lon="5.841667"><ele>495.755</ele><time>2022-09-17T15:45:29Z</time></trkpt><trkpt lat="50.069683" lon="5.841755"><ele>495.740</ele><time>2022-09-17T15:45:30Z</time></trkpt><trkpt lat="50.069714" lon="5.841855"><ele>495.724</ele><time>2022-09-17T15:45:31Z</time></trkpt><trkpt lat="50.069740" lon="5.841934"><ele>495.761</ele><time>2022-09-17T15:45:32Z</time></trkpt><trkpt lat="50.069773" lon="5.842016"><ele>495.761</ele><time>2022-09-17T15:45:33Z</time></trkpt><trkpt lat="50.069766" lon="5.842103"><ele>495.621</ele><time>2022-09-17T15:45:34Z</time></trkpt><trkpt lat="50.069745" lon="5.842199"><ele>495.613</ele><time>2022-09-17T15:45:35Z</time></trkpt><trkpt lat="50.069797" lon="5.842322"><ele>495.609</ele><time>2022-09-17T15:45:37Z</time></trkpt><trkpt lat="50.069829" lon="5.842435"><ele>495.697</ele><time>2022-09-17T15:45:38Z</time></trkpt><trkpt lat="50.069829" lon="5.842545"><ele>495.667</ele><time>2022-09-17T15:45:39Z</time></trkpt><trkpt lat="50.069829" lon="5.842658"><ele>495.619</ele><time>2022-09-17T15:45:40Z</time></trkpt><trkpt lat="50.069816" lon="5.842814"><ele>495.615</ele><time>2022-09-17T15:45:41Z</time></trkpt><trkpt lat="50.069770" lon="5.843013"><ele>495.610</ele><time>2022-09-17T15:45:42Z</time></trkpt><trkpt lat="50.069769" lon="5.843142"><ele>495.595</ele><time>2022-09-17T15:45:43Z</time></trkpt><trkpt lat="50.069780" lon="5.843261"><ele>495.570</ele><time>2022-09-17T15:45:44Z</time></trkpt><trkpt lat="50.069773" lon="5.843414"><ele>495.544</ele><time>2022-09-17T15:45:45Z</time></trkpt><trkpt lat="50.069778" lon="5.843569"><ele>495.551</ele><time>2022-09-17T15:45:46Z</time></trkpt><trkpt lat="50.069777" lon="5.843705"><ele>495.474</ele><time>2022-09-17T15:45:47Z</time></trkpt><trkpt lat="50.069766" lon="5.843837"><ele>495.456</ele><time>2022-09-17T15:45:48Z</time></trkpt><trkpt lat="50.069765" lon="5.843967"><ele>495.421</ele><time>2022-09-17T15:45:49Z</time></trkpt><trkpt lat="50.069759" lon="5.844104"><ele>495.409</ele><time>2022-09-17T15:45:50Z</time></trkpt><trkpt lat="50.069753" lon="5.844246"><ele>495.478</ele><time>2022-09-17T15:45:51Z</time></trkpt><trkpt lat="50.069744" lon="5.844393"><ele>495.518</ele><time>2022-09-17T15:45:52Z</time></trkpt><trkpt lat="50.069724" lon="5.844534"><ele>495.690</ele><time>2022-09-17T15:45:53Z</time></trkpt><trkpt lat="50.069725" lon="5.844673"><ele>495.756</ele><time>2022-09-17T15:45:54Z</time></trkpt><trkpt lat="50.069722" lon="5.844814"><ele>495.751</ele><time>2022-09-17T15:45:55Z</time></trkpt><trkpt lat="50.069716" lon="5.844962"><ele>495.766</ele><time>2022-09-17T15:45:56Z</time></trkpt><trkpt lat="50.069700" lon="5.845117"><ele>495.761</ele><time>2022-09-17T15:45:57Z</time></trkpt><trkpt lat="50.069689" lon="5.845274"><ele>495.995</ele><time>2022-09-17T15:45:58Z</time></trkpt><trkpt lat="50.069676" lon="5.845419"><ele>495.982</ele><time>2022-09-17T15:45:59Z</time></trkpt><trkpt lat="50.069669" lon="5.845567"><ele>496.147</ele><time>2022-09-17T15:46:00Z</time></trkpt><trkpt lat="50.069658" lon="5.845700"><ele>496.129</ele><time>2022-09-17T15:46:01Z</time></trkpt><trkpt lat="50.069648" lon="5.845830"><ele>496.121</ele><time>2022-09-17T15:46:02Z</time></trkpt><trkpt lat="50.069633" lon="5.845964"><ele>496.209</ele><time>2022-09-17T15:46:03Z</time></trkpt><trkpt lat="50.069616" lon="5.846113"><ele>496.395</ele><time>2022-09-17T15:46:04Z</time></trkpt><trkpt lat="50.069608" lon="5.846256"><ele>496.365</ele><time>2022-09-17T15:46:05Z</time></trkpt><trkpt lat="50.069614" lon="5.846389"><ele>496.687</ele><time>2022-09-17T15:46:06Z</time></trkpt><trkpt lat="50.069606" lon="5.846520"><ele>496.683</ele><time>2022-09-17T15:46:07Z</time></trkpt><trkpt lat="50.069603" lon="5.846643"><ele>496.938</ele><time>2022-09-17T15:46:08Z</time></trkpt><trkpt lat="50.069602" lon="5.846747"><ele>497.183</ele><time>2022-09-17T15:46:09Z</time></trkpt><trkpt lat="50.069584" lon="5.846835"><ele>497.338</ele><time>2022-09-17T15:46:10Z</time></trkpt><trkpt lat="50.069584" lon="5.846955"><ele>497.652</ele><time>2022-09-17T15:46:12Z</time></trkpt><trkpt lat="50.069614" lon="5.847012"><ele>497.749</ele><time>2022-09-17T15:46:14Z</time></trkpt><trkpt lat="50.069704" lon="5.846973"><ele>498.429</ele><time>2022-09-17T15:46:16Z</time></trkpt><trkpt lat="50.069765" lon="5.846908"><ele>498.900</ele><time>2022-09-17T15:46:17Z</time></trkpt><trkpt lat="50.069813" lon="5.846853"><ele>499.320</ele><time>2022-09-17T15:46:18Z</time></trkpt><trkpt lat="50.069858" lon="5.846785"><ele>499.609</ele><time>2022-09-17T15:46:19Z</time></trkpt><trkpt lat="50.069916" lon="5.846721"><ele>499.813</ele><time>2022-09-17T15:46:20Z</time></trkpt><trkpt lat="50.069983" lon="5.846654"><ele>500.223</ele><time>2022-09-17T15:46:21Z</time></trkpt><trkpt lat="50.070041" lon="5.846622"><ele>500.255</ele><time>2022-09-17T15:46:22Z</time></trkpt><trkpt lat="50.070120" lon="5.846585"><ele>500.191</ele><time>2022-09-17T15:46:23Z</time></trkpt><trkpt lat="50.070198" lon="5.846599"><ele>499.716</ele><time>2022-09-17T15:46:24Z</time></trkpt><trkpt lat="50.070293" lon="5.846636"><ele>499.311</ele><time>2022-09-17T15:46:25Z</time></trkpt><trkpt lat="50.070369" lon="5.846689"><ele>498.816</ele><time>2022-09-17T15:46:26Z</time></trkpt><trkpt lat="50.070459" lon="5.846713"><ele>498.560</ele><time>2022-09-17T15:46:27Z</time></trkpt><trkpt lat="50.070540" lon="5.846718"><ele>498.417</ele><time>2022-09-17T15:46:28Z</time></trkpt><trkpt lat="50.070618" lon="5.846709"><ele>498.231</ele><time>2022-09-17T15:46:29Z</time></trkpt><trkpt lat="50.070687" lon="5.846664"><ele>498.061</ele><time>2022-09-17T15:46:30Z</time></trkpt><trkpt lat="50.070773" lon="5.846618"><ele>497.907</ele><time>2022-09-17T15:46:31Z</time></trkpt><trkpt lat="50.070831" lon="5.846577"><ele>497.909</ele><time>2022-09-17T15:46:32Z</time></trkpt><trkpt lat="50.070899" lon="5.846517"><ele>497.894</ele><time>2022-09-17T15:46:33Z</time></trkpt><trkpt lat="50.070955" lon="5.846445"><ele>497.514</ele><time>2022-09-17T15:46:34Z</time></trkpt><trkpt lat="50.070994" lon="5.846338"><ele>497.356</ele><time>2022-09-17T15:46:35Z</time></trkpt><trkpt lat="50.071008" lon="5.846223"><ele>497.042</ele><time>2022-09-17T15:46:36Z</time></trkpt><trkpt lat="50.071013" lon="5.846095"><ele>496.517</ele><time>2022-09-17T15:46:37Z</time></trkpt><trkpt lat="50.071020" lon="5.845967"><ele>495.912</ele><time>2022-09-17T15:46:38Z</time></trkpt><trkpt lat="50.071029" lon="5.845803"><ele>494.897</ele><time>2022-09-17T15:46:39Z</time></trkpt><trkpt lat="50.071043" lon="5.845638"><ele>494.341</ele><time>2022-09-17T15:46:40Z</time></trkpt><trkpt lat="50.071075" lon="5.845490"><ele>493.828</ele><time>2022-09-17T15:46:41Z</time></trkpt><trkpt lat="50.071114" lon="5.845347"><ele>493.094</ele><time>2022-09-17T15:46:42Z</time></trkpt><trkpt lat="50.071175" lon="5.845198"><ele>492.357</ele><time>2022-09-17T15:46:43Z</time></trkpt><trkpt lat="50.071241" lon="5.845060"><ele>491.822</ele><time>2022-09-17T15:46:44Z</time></trkpt><trkpt lat="50.071311" lon="5.844907"><ele>490.809</ele><time>2022-09-17T15:46:45Z</time></trkpt><trkpt lat="50.071376" lon="5.844734"><ele>490.730</ele><time>2022-09-17T15:46:46Z</time></trkpt><trkpt lat="50.071448" lon="5.844554"><ele>490.640</ele><time>2022-09-17T15:46:47Z</time></trkpt><trkpt lat="50.071526" lon="5.844372"><ele>490.222</ele><time>2022-09-17T15:46:48Z</time></trkpt><trkpt lat="50.071608" lon="5.844180"><ele>489.778</ele><time>2022-09-17T15:46:49Z</time></trkpt><trkpt lat="50.071684" lon="5.844006"><ele>489.053</ele><time>2022-09-17T15:46:50Z</time></trkpt><trkpt lat="50.071752" lon="5.843836"><ele>488.598</ele><time>2022-09-17T15:46:51Z</time></trkpt><trkpt lat="50.071816" lon="5.843680"><ele>487.513</ele><time>2022-09-17T15:46:52Z</time></trkpt><trkpt lat="50.071877" lon="5.843534"><ele>486.477</ele><time>2022-09-17T15:46:53Z</time></trkpt><trkpt lat="50.071925" lon="5.843386"><ele>485.944</ele><time>2022-09-17T15:46:54Z</time></trkpt><trkpt lat="50.071992" lon="5.843239"><ele>485.576</ele><time>2022-09-17T15:46:55Z</time></trkpt><trkpt lat="50.072019" lon="5.843098"><ele>485.190</ele><time>2022-09-17T15:46:56Z</time></trkpt><trkpt lat="50.072094" lon="5.842955"><ele>485.019</ele><time>2022-09-17T15:46:57Z</time></trkpt><trkpt lat="50.072150" lon="5.842815"><ele>485.009</ele><time>2022-09-17T15:46:58Z</time></trkpt><trkpt lat="50.072217" lon="5.842684"><ele>485.288</ele><time>2022-09-17T15:46:59Z</time></trkpt><trkpt lat="50.072299" lon="5.842565"><ele>485.568</ele><time>2022-09-17T15:47:00Z</time></trkpt><trkpt lat="50.072387" lon="5.842457"><ele>486.050</ele><time>2022-09-17T15:47:01Z</time></trkpt><trkpt lat="50.072470" lon="5.842360"><ele>486.146</ele><time>2022-09-17T15:47:02Z</time></trkpt><trkpt lat="50.072567" lon="5.842279"><ele>486.671</ele><time>2022-09-17T15:47:03Z</time></trkpt><trkpt lat="50.072668" lon="5.842195"><ele>487.066</ele><time>2022-09-17T15:47:04Z</time></trkpt><trkpt lat="50.072745" lon="5.842135"><ele>487.191</ele><time>2022-09-17T15:47:05Z</time></trkpt><trkpt lat="50.072781" lon="5.841904"><ele>487.475</ele><time>2022-09-17T15:47:06Z</time></trkpt><trkpt lat="50.072872" lon="5.841820"><ele>488.032</ele><time>2022-09-17T15:47:07Z</time></trkpt><trkpt lat="50.072985" lon="5.841716"><ele>488.825</ele><time>2022-09-17T15:47:08Z</time></trkpt><trkpt lat="50.073094" lon="5.841633"><ele>489.226</ele><time>2022-09-17T15:47:09Z</time></trkpt><trkpt lat="50.073210" lon="5.841528"><ele>490.108</ele><time>2022-09-17T15:47:10Z</time></trkpt><trkpt lat="50.073329" lon="5.841427"><ele>491.609</ele><time>2022-09-17T15:47:11Z</time></trkpt><trkpt lat="50.073441" lon="5.841305"><ele>492.613</ele><time>2022-09-17T15:47:12Z</time></trkpt><trkpt lat="50.073571" lon="5.841182"><ele>493.323</ele><time>2022-09-17T15:47:13Z</time></trkpt><trkpt lat="50.073687" lon="5.841062"><ele>493.925</ele><time>2022-09-17T15:47:14Z</time></trkpt><trkpt lat="50.073797" lon="5.840939"><ele>494.111</ele><time>2022-09-17T15:47:15Z</time></trkpt><trkpt lat="50.073906" lon="5.840813"><ele>494.036</ele><time>2022-09-17T15:47:16Z</time></trkpt><trkpt lat="50.074016" lon="5.840693"><ele>493.811</ele><time>2022-09-17T15:47:17Z</time></trkpt><trkpt lat="50.074108" lon="5.840593"><ele>493.736</ele><time>2022-09-17T15:47:18Z</time></trkpt><trkpt lat="50.074203" lon="5.840479"><ele>493.510</ele><time>2022-09-17T15:47:19Z</time></trkpt><trkpt lat="50.074302" lon="5.840354"><ele>492.467</ele><time>2022-09-17T15:47:20Z</time></trkpt><trkpt lat="50.074391" lon="5.840252"><ele>491.834</ele><time>2022-09-17T15:47:21Z</time></trkpt><trkpt lat="50.074483" lon="5.840159"><ele>491.155</ele><time>2022-09-17T15:47:22Z</time></trkpt><trkpt lat="50.074567" lon="5.840066"><ele>490.010</ele><time>2022-09-17T15:47:23Z</time></trkpt><trkpt lat="50.074619" lon="5.839984"><ele>490.009</ele><time>2022-09-17T15:47:24Z</time></trkpt><trkpt lat="50.074679" lon="5.839903"><ele>490.124</ele><time>2022-09-17T15:47:25Z</time></trkpt><trkpt lat="50.074752" lon="5.839817"><ele>490.274</ele><time>2022-09-17T15:47:26Z</time></trkpt><trkpt lat="50.074817" lon="5.839739"><ele>490.296</ele><time>2022-09-17T15:47:27Z</time></trkpt><trkpt lat="50.074884" lon="5.839663"><ele>490.182</ele><time>2022-09-17T15:47:28Z</time></trkpt><trkpt lat="50.074963" lon="5.839583"><ele>490.057</ele><time>2022-09-17T15:47:29Z</time></trkpt><trkpt lat="50.075028" lon="5.839514"><ele>489.662</ele><time>2022-09-17T15:47:30Z</time></trkpt><trkpt lat="50.075097" lon="5.839438"><ele>488.817</ele><time>2022-09-17T15:47:31Z</time></trkpt><trkpt lat="50.075143" lon="5.839384"><ele>488.461</ele><time>2022-09-17T15:47:32Z</time></trkpt><trkpt lat="50.075201" lon="5.839327"><ele>488.468</ele><time>2022-09-17T15:47:34Z</time></trkpt><trkpt lat="50.075239" lon="5.839253"><ele>488.832</ele><time>2022-09-17T15:47:35Z</time></trkpt><trkpt lat="50.075323" lon="5.839553"><ele>490.192</ele><time>2022-09-17T15:47:36Z</time></trkpt><trkpt lat="50.075384" lon="5.839710"><ele>490.211</ele><time>2022-09-17T15:47:37Z</time></trkpt><trkpt lat="50.075489" lon="5.839929"><ele>490.209</ele><time>2022-09-17T15:47:38Z</time></trkpt><trkpt lat="50.075562" lon="5.840089"><ele>490.294</ele><time>2022-09-17T15:47:39Z</time></trkpt><trkpt lat="50.075630" lon="5.840237"><ele>490.294</ele><time>2022-09-17T15:47:40Z</time></trkpt><trkpt lat="50.075696" lon="5.840381"><ele>490.096</ele><time>2022-09-17T15:47:41Z</time></trkpt><trkpt lat="50.075753" lon="5.840523"><ele>489.822</ele><time>2022-09-17T15:47:42Z</time></trkpt><trkpt lat="50.075806" lon="5.840679"><ele>489.167</ele><time>2022-09-17T15:47:43Z</time></trkpt><trkpt lat="50.075840" lon="5.840830"><ele>487.892</ele><time>2022-09-17T15:47:44Z</time></trkpt><trkpt lat="50.075857" lon="5.840947"><ele>487.017</ele><time>2022-09-17T15:47:45Z</time></trkpt><trkpt lat="50.075874" lon="5.841112"><ele>486.171</ele><time>2022-09-17T15:47:46Z</time></trkpt><trkpt lat="50.075929" lon="5.841273"><ele>485.498</ele><time>2022-09-17T15:47:47Z</time></trkpt><trkpt lat="50.076003" lon="5.841491"><ele>485.013</ele><time>2022-09-17T15:47:48Z</time></trkpt><trkpt lat="50.076130" lon="5.841653"><ele>485.343</ele><time>2022-09-17T15:47:49Z</time></trkpt><trkpt lat="50.076183" lon="5.841811"><ele>485.807</ele><time>2022-09-17T15:47:50Z</time></trkpt><trkpt lat="50.076243" lon="5.841992"><ele>486.109</ele><time>2022-09-17T15:47:51Z</time></trkpt><trkpt lat="50.076299" lon="5.842153"><ele>486.652</ele><time>2022-09-17T15:47:52Z</time></trkpt><trkpt lat="50.076373" lon="5.842307"><ele>487.182</ele><time>2022-09-17T15:47:53Z</time></trkpt><trkpt lat="50.076446" lon="5.842452"><ele>488.044</ele><time>2022-09-17T15:47:54Z</time></trkpt><trkpt lat="50.076521" lon="5.842597"><ele>488.080</ele><time>2022-09-17T15:47:55Z</time></trkpt><trkpt lat="50.076614" lon="5.842750"><ele>488.045</ele><time>2022-09-17T15:47:56Z</time></trkpt><trkpt lat="50.076701" lon="5.842905"><ele>488.110</ele><time>2022-09-17T15:47:57Z</time></trkpt><trkpt lat="50.076794" lon="5.843071"><ele>488.185</ele><time>2022-09-17T15:47:58Z</time></trkpt><trkpt lat="50.076872" lon="5.843207"><ele>488.149</ele><time>2022-09-17T15:47:59Z</time></trkpt><trkpt lat="50.076956" lon="5.843351"><ele>488.016</ele><time>2022-09-17T15:48:00Z</time></trkpt><trkpt lat="50.077035" lon="5.843508"><ele>488.079</ele><time>2022-09-17T15:48:01Z</time></trkpt><trkpt lat="50.077109" lon="5.843667"><ele>487.805</ele><time>2022-09-17T15:48:02Z</time></trkpt><trkpt lat="50.077193" lon="5.843841"><ele>487.725</ele><time>2022-09-17T15:48:03Z</time></trkpt><trkpt lat="50.077278" lon="5.844011"><ele>487.409</ele><time>2022-09-17T15:48:04Z</time></trkpt><trkpt lat="50.077350" lon="5.844164"><ele>487.448</ele><time>2022-09-17T15:48:05Z</time></trkpt><trkpt lat="50.077417" lon="5.844305"><ele>487.458</ele><time>2022-09-17T15:48:06Z</time></trkpt><trkpt lat="50.077487" lon="5.844441"><ele>487.230</ele><time>2022-09-17T15:48:07Z</time></trkpt><trkpt lat="50.077568" lon="5.844592"><ele>487.056</ele><time>2022-09-17T15:48:08Z</time></trkpt><trkpt lat="50.077654" lon="5.844762"><ele>487.061</ele><time>2022-09-17T15:48:09Z</time></trkpt><trkpt lat="50.077733" lon="5.844932"><ele>487.276</ele><time>2022-09-17T15:48:10Z</time></trkpt><trkpt lat="50.077804" lon="5.845108"><ele>487.411</ele><time>2022-09-17T15:48:11Z</time></trkpt><trkpt lat="50.077880" lon="5.845300"><ele>488.455</ele><time>2022-09-17T15:48:12Z</time></trkpt><trkpt lat="50.077949" lon="5.845490"><ele>488.812</ele><time>2022-09-17T15:48:13Z</time></trkpt><trkpt lat="50.078017" lon="5.845683"><ele>488.896</ele><time>2022-09-17T15:48:14Z</time></trkpt><trkpt lat="50.078082" lon="5.845881"><ele>488.631</ele><time>2022-09-17T15:48:15Z</time></trkpt><trkpt lat="50.078156" lon="5.846090"><ele>488.224</ele><time>2022-09-17T15:48:16Z</time></trkpt><trkpt lat="50.078222" lon="5.846299"><ele>487.909</ele><time>2022-09-17T15:48:17Z</time></trkpt><trkpt lat="50.078276" lon="5.846498"><ele>487.530</ele><time>2022-09-17T15:48:18Z</time></trkpt><trkpt lat="50.078349" lon="5.846696"><ele>487.250</ele><time>2022-09-17T15:48:19Z</time></trkpt><trkpt lat="50.078429" lon="5.846886"><ele>487.162</ele><time>2022-09-17T15:48:20Z</time></trkpt><trkpt lat="50.078519" lon="5.847069"><ele>487.078</ele><time>2022-09-17T15:48:21Z</time></trkpt><trkpt lat="50.078605" lon="5.847250"><ele>486.983</ele><time>2022-09-17T15:48:22Z</time></trkpt><trkpt lat="50.078681" lon="5.847419"><ele>486.818</ele><time>2022-09-17T15:48:23Z</time></trkpt><trkpt lat="50.078760" lon="5.847590"><ele>486.863</ele><time>2022-09-17T15:48:24Z</time></trkpt><trkpt lat="50.078840" lon="5.847771"><ele>486.097</ele><time>2022-09-17T15:48:25Z</time></trkpt><trkpt lat="50.078912" lon="5.847953"><ele>485.524</ele><time>2022-09-17T15:48:26Z</time></trkpt><trkpt lat="50.078991" lon="5.848138"><ele>485.089</ele><time>2022-09-17T15:48:27Z</time></trkpt><trkpt lat="50.079077" lon="5.848309"><ele>484.606</ele><time>2022-09-17T15:48:28Z</time></trkpt><trkpt lat="50.079172" lon="5.848472"><ele>484.526</ele><time>2022-09-17T15:48:29Z</time></trkpt><trkpt lat="50.079267" lon="5.848624"><ele>484.409</ele><time>2022-09-17T15:48:30Z</time></trkpt><trkpt lat="50.079371" lon="5.848784"><ele>484.269</ele><time>2022-09-17T15:48:31Z</time></trkpt><trkpt lat="50.079463" lon="5.848929"><ele>483.939</ele><time>2022-09-17T15:48:32Z</time></trkpt><trkpt lat="50.079558" lon="5.849079"><ele>483.821</ele><time>2022-09-17T15:48:33Z</time></trkpt><trkpt lat="50.079657" lon="5.849229"><ele>483.337</ele><time>2022-09-17T15:48:34Z</time></trkpt><trkpt lat="50.079770" lon="5.849370"><ele>483.162</ele><time>2022-09-17T15:48:35Z</time></trkpt><trkpt lat="50.079874" lon="5.849497"><ele>483.367</ele><time>2022-09-17T15:48:36Z</time></trkpt><trkpt lat="50.079985" lon="5.849629"><ele>483.612</ele><time>2022-09-17T15:48:37Z</time></trkpt><trkpt lat="50.080091" lon="5.849756"><ele>483.946</ele><time>2022-09-17T15:48:38Z</time></trkpt><trkpt lat="50.080195" lon="5.849875"><ele>484.143</ele><time>2022-09-17T15:48:39Z</time></trkpt><trkpt lat="50.080303" lon="5.849993"><ele>484.248</ele><time>2022-09-17T15:48:40Z</time></trkpt><trkpt lat="50.080414" lon="5.850108"><ele>484.261</ele><time>2022-09-17T15:48:41Z</time></trkpt><trkpt lat="50.080521" lon="5.850228"><ele>483.717</ele><time>2022-09-17T15:48:42Z</time></trkpt><trkpt lat="50.080620" lon="5.850339"><ele>483.309</ele><time>2022-09-17T15:48:43Z</time></trkpt><trkpt lat="50.080719" lon="5.850449"><ele>482.585</ele><time>2022-09-17T15:48:44Z</time></trkpt><trkpt lat="50.080809" lon="5.850546"><ele>482.075</ele><time>2022-09-17T15:48:45Z</time></trkpt><trkpt lat="50.080890" lon="5.850642"><ele>481.247</ele><time>2022-09-17T15:48:46Z</time></trkpt><trkpt lat="50.080967" lon="5.850724"><ele>480.593</ele><time>2022-09-17T15:48:47Z</time></trkpt><trkpt lat="50.081044" lon="5.850789"><ele>479.548</ele><time>2022-09-17T15:48:48Z</time></trkpt><trkpt lat="50.081144" lon="5.850848"><ele>478.913</ele><time>2022-09-17T15:48:49Z</time></trkpt><trkpt lat="50.081286" lon="5.850937"><ele>477.958</ele><time>2022-09-17T15:48:50Z</time></trkpt><trkpt lat="50.081396" lon="5.851032"><ele>477.332</ele><time>2022-09-17T15:48:51Z</time></trkpt><trkpt lat="50.081521" lon="5.851146"><ele>476.239</ele><time>2022-09-17T15:48:52Z</time></trkpt><trkpt lat="50.081627" lon="5.851273"><ele>474.747</ele><time>2022-09-17T15:48:53Z</time></trkpt><trkpt lat="50.081718" lon="5.851403"><ele>474.029</ele><time>2022-09-17T15:48:54Z</time></trkpt><trkpt lat="50.081824" lon="5.851525"><ele>472.421</ele><time>2022-09-17T15:48:55Z</time></trkpt><trkpt lat="50.081917" lon="5.851638"><ele>470.509</ele><time>2022-09-17T15:48:56Z</time></trkpt><trkpt lat="50.082012" lon="5.851739"><ele>469.285</ele><time>2022-09-17T15:48:57Z</time></trkpt><trkpt lat="50.082118" lon="5.851848"><ele>469.245</ele><time>2022-09-17T15:48:58Z</time></trkpt><trkpt lat="50.082213" lon="5.851955"><ele>468.947</ele><time>2022-09-17T15:48:59Z</time></trkpt><trkpt lat="50.082317" lon="5.852071"><ele>468.943</ele><time>2022-09-17T15:49:00Z</time></trkpt><trkpt lat="50.082415" lon="5.852161"><ele>468.978</ele><time>2022-09-17T15:49:01Z</time></trkpt><trkpt lat="50.082515" lon="5.852251"><ele>469.023</ele><time>2022-09-17T15:49:02Z</time></trkpt><trkpt lat="50.082606" lon="5.852338"><ele>469.328</ele><time>2022-09-17T15:49:03Z</time></trkpt><trkpt lat="50.082691" lon="5.852419"><ele>469.872</ele><time>2022-09-17T15:49:04Z</time></trkpt><trkpt lat="50.082794" lon="5.852510"><ele>470.289</ele><time>2022-09-17T15:49:05Z</time></trkpt><trkpt lat="50.082901" lon="5.852604"><ele>470.746</ele><time>2022-09-17T15:49:06Z</time></trkpt><trkpt lat="50.083005" lon="5.852693"><ele>471.188</ele><time>2022-09-17T15:49:07Z</time></trkpt><trkpt lat="50.083104" lon="5.852785"><ele>471.216</ele><time>2022-09-17T15:49:08Z</time></trkpt><trkpt lat="50.083201" lon="5.852887"><ele>471.309</ele><time>2022-09-17T15:49:09Z</time></trkpt><trkpt lat="50.083309" lon="5.852999"><ele>471.485</ele><time>2022-09-17T15:49:10Z</time></trkpt><trkpt lat="50.083409" lon="5.853104"><ele>471.575</ele><time>2022-09-17T15:49:11Z</time></trkpt><trkpt lat="50.083504" lon="5.853205"><ele>471.537</ele><time>2022-09-17T15:49:12Z</time></trkpt><trkpt lat="50.083601" lon="5.853304"><ele>471.473</ele><time>2022-09-17T15:49:13Z</time></trkpt><trkpt lat="50.083688" lon="5.853398"><ele>471.058</ele><time>2022-09-17T15:49:14Z</time></trkpt><trkpt lat="50.083773" lon="5.853493"><ele>470.663</ele><time>2022-09-17T15:49:15Z</time></trkpt><trkpt lat="50.083854" lon="5.853586"><ele>469.528</ele><time>2022-09-17T15:49:16Z</time></trkpt><trkpt lat="50.083931" lon="5.853659"><ele>469.152</ele><time>2022-09-17T15:49:17Z</time></trkpt><trkpt lat="50.084006" lon="5.853716"><ele>468.379</ele><time>2022-09-17T15:49:18Z</time></trkpt><trkpt lat="50.084086" lon="5.853768"><ele>468.098</ele><time>2022-09-17T15:49:19Z</time></trkpt><trkpt lat="50.084176" lon="5.853807"><ele>467.215</ele><time>2022-09-17T15:49:20Z</time></trkpt><trkpt lat="50.084264" lon="5.853829"><ele>466.426</ele><time>2022-09-17T15:49:21Z</time></trkpt><trkpt lat="50.084347" lon="5.853859"><ele>465.909</ele><time>2022-09-17T15:49:22Z</time></trkpt><trkpt lat="50.084426" lon="5.853901"><ele>464.860</ele><time>2022-09-17T15:49:23Z</time></trkpt><trkpt lat="50.084497" lon="5.853959"><ele>463.790</ele><time>2022-09-17T15:49:24Z</time></trkpt><trkpt lat="50.084548" lon="5.854057"><ele>462.882</ele><time>2022-09-17T15:49:25Z</time></trkpt><trkpt lat="50.084603" lon="5.854167"><ele>462.138</ele><time>2022-09-17T15:49:26Z</time></trkpt><trkpt lat="50.084667" lon="5.854286"><ele>461.313</ele><time>2022-09-17T15:49:27Z</time></trkpt><trkpt lat="50.084731" lon="5.854421"><ele>461.398</ele><time>2022-09-17T15:49:28Z</time></trkpt><trkpt lat="50.084810" lon="5.854583"><ele>461.383</ele><time>2022-09-17T15:49:29Z</time></trkpt><trkpt lat="50.084884" lon="5.854732"><ele>461.497</ele><time>2022-09-17T15:49:30Z</time></trkpt><trkpt lat="50.084964" lon="5.854892"><ele>461.674</ele><time>2022-09-17T15:49:31Z</time></trkpt><trkpt lat="50.085036" lon="5.855049"><ele>462.117</ele><time>2022-09-17T15:49:32Z</time></trkpt><trkpt lat="50.085119" lon="5.855224"><ele>462.687</ele><time>2022-09-17T15:49:33Z</time></trkpt><trkpt lat="50.085203" lon="5.855389"><ele>463.115</ele><time>2022-09-17T15:49:34Z</time></trkpt><trkpt lat="50.085295" lon="5.855525"><ele>463.209</ele><time>2022-09-17T15:49:35Z</time></trkpt><trkpt lat="50.085392" lon="5.855642"><ele>463.492</ele><time>2022-09-17T15:49:36Z</time></trkpt><trkpt lat="50.085492" lon="5.855767"><ele>463.522</ele><time>2022-09-17T15:49:37Z</time></trkpt><trkpt lat="50.085588" lon="5.855859"><ele>463.694</ele><time>2022-09-17T15:49:38Z</time></trkpt><trkpt lat="50.085692" lon="5.855956"><ele>463.670</ele><time>2022-09-17T15:49:39Z</time></trkpt><trkpt lat="50.085779" lon="5.856072"><ele>463.685</ele><time>2022-09-17T15:49:40Z</time></trkpt><trkpt lat="50.085860" lon="5.856196"><ele>463.660</ele><time>2022-09-17T15:49:41Z</time></trkpt><trkpt lat="50.085940" lon="5.856316"><ele>463.535</ele><time>2022-09-17T15:49:42Z</time></trkpt><trkpt lat="50.086029" lon="5.856441"><ele>463.589</ele><time>2022-09-17T15:49:43Z</time></trkpt><trkpt lat="50.086139" lon="5.856543"><ele>463.586</ele><time>2022-09-17T15:49:44Z</time></trkpt><trkpt lat="50.086264" lon="5.856602"><ele>463.756</ele><time>2022-09-17T15:49:45Z</time></trkpt><trkpt lat="50.086387" lon="5.856716"><ele>464.459</ele><time>2022-09-17T15:49:46Z</time></trkpt><trkpt lat="50.086513" lon="5.856834"><ele>465.014</ele><time>2022-09-17T15:49:47Z</time></trkpt><trkpt lat="50.086623" lon="5.856937"><ele>465.909</ele><time>2022-09-17T15:49:48Z</time></trkpt><trkpt lat="50.086743" lon="5.857050"><ele>466.476</ele><time>2022-09-17T15:49:49Z</time></trkpt><trkpt lat="50.086857" lon="5.857157"><ele>467.356</ele><time>2022-09-17T15:49:50Z</time></trkpt><trkpt lat="50.086976" lon="5.857291"><ele>468.248</ele><time>2022-09-17T15:49:51Z</time></trkpt><trkpt lat="50.087092" lon="5.857377"><ele>469.084</ele><time>2022-09-17T15:49:52Z</time></trkpt><trkpt lat="50.087207" lon="5.857482"><ele>469.429</ele><time>2022-09-17T15:49:53Z</time></trkpt><trkpt lat="50.087323" lon="5.857590"><ele>469.864</ele><time>2022-09-17T15:49:54Z</time></trkpt><trkpt lat="50.087444" lon="5.857708"><ele>470.739</ele><time>2022-09-17T15:49:55Z</time></trkpt><trkpt lat="50.087565" lon="5.857822"><ele>470.823</ele><time>2022-09-17T15:49:56Z</time></trkpt><trkpt lat="50.087683" lon="5.857935"><ele>470.910</ele><time>2022-09-17T15:49:57Z</time></trkpt><trkpt lat="50.087792" lon="5.858040"><ele>470.927</ele><time>2022-09-17T15:49:58Z</time></trkpt><trkpt lat="50.087890" lon="5.858130"><ele>471.368</ele><time>2022-09-17T15:49:59Z</time></trkpt><trkpt lat="50.087985" lon="5.858211"><ele>471.614</ele><time>2022-09-17T15:50:00Z</time></trkpt><trkpt lat="50.088092" lon="5.858308"><ele>472.009</ele><time>2022-09-17T15:50:01Z</time></trkpt><trkpt lat="50.088205" lon="5.858413"><ele>472.543</ele><time>2022-09-17T15:50:02Z</time></trkpt><trkpt lat="50.088300" lon="5.858509"><ele>473.023</ele><time>2022-09-17T15:50:03Z</time></trkpt><trkpt lat="50.088407" lon="5.858615"><ele>473.535</ele><time>2022-09-17T15:50:04Z</time></trkpt><trkpt lat="50.088497" lon="5.858741"><ele>474.111</ele><time>2022-09-17T15:50:05Z</time></trkpt><trkpt lat="50.088605" lon="5.858843"><ele>474.956</ele><time>2022-09-17T15:50:06Z</time></trkpt><trkpt lat="50.088699" lon="5.858977"><ele>475.891</ele><time>2022-09-17T15:50:07Z</time></trkpt><trkpt lat="50.088768" lon="5.859142"><ele>476.446</ele><time>2022-09-17T15:50:08Z</time></trkpt><trkpt lat="50.088839" lon="5.859295"><ele>476.920</ele><time>2022-09-17T15:50:09Z</time></trkpt><trkpt lat="50.088894" lon="5.859460"><ele>477.467</ele><time>2022-09-17T15:50:10Z</time></trkpt><trkpt lat="50.088953" lon="5.859641"><ele>477.646</ele><time>2022-09-17T15:50:11Z</time></trkpt><trkpt lat="50.089028" lon="5.859812"><ele>477.788</ele><time>2022-09-17T15:50:12Z</time></trkpt><trkpt lat="50.089076" lon="5.860009"><ele>478.116</ele><time>2022-09-17T15:50:13Z</time></trkpt><trkpt lat="50.089138" lon="5.860208"><ele>478.709</ele><time>2022-09-17T15:50:14Z</time></trkpt><trkpt lat="50.089201" lon="5.860406"><ele>479.245</ele><time>2022-09-17T15:50:15Z</time></trkpt><trkpt lat="50.089263" lon="5.860605"><ele>479.855</ele><time>2022-09-17T15:50:16Z</time></trkpt><trkpt lat="50.089330" lon="5.860804"><ele>480.347</ele><time>2022-09-17T15:50:17Z</time></trkpt><trkpt lat="50.089397" lon="5.861002"><ele>480.713</ele><time>2022-09-17T15:50:18Z</time></trkpt><trkpt lat="50.089466" lon="5.861198"><ele>481.048</ele><time>2022-09-17T15:50:19Z</time></trkpt><trkpt lat="50.089527" lon="5.861381"><ele>481.213</ele><time>2022-09-17T15:50:20Z</time></trkpt><trkpt lat="50.089585" lon="5.861568"><ele>481.278</ele><time>2022-09-17T15:50:21Z</time></trkpt><trkpt lat="50.089643" lon="5.861744"><ele>481.242</ele><time>2022-09-17T15:50:22Z</time></trkpt><trkpt lat="50.089706" lon="5.861929"><ele>481.019</ele><time>2022-09-17T15:50:23Z</time></trkpt><trkpt lat="50.089762" lon="5.862097"><ele>480.731</ele><time>2022-09-17T15:50:24Z</time></trkpt><trkpt lat="50.089825" lon="5.862284"><ele>480.461</ele><time>2022-09-17T15:50:25Z</time></trkpt><trkpt lat="50.089876" lon="5.862470"><ele>480.207</ele><time>2022-09-17T15:50:26Z</time></trkpt><trkpt lat="50.089917" lon="5.862672"><ele>480.209</ele><time>2022-09-17T15:50:27Z</time></trkpt><trkpt lat="50.089952" lon="5.862888"><ele>480.384</ele><time>2022-09-17T15:50:28Z</time></trkpt><trkpt lat="50.089993" lon="5.863109"><ele>480.334</ele><time>2022-09-17T15:50:29Z</time></trkpt><trkpt lat="50.090029" lon="5.863311"><ele>480.326</ele><time>2022-09-17T15:50:30Z</time></trkpt><trkpt lat="50.090072" lon="5.863500"><ele>480.312</ele><time>2022-09-17T15:50:31Z</time></trkpt><trkpt lat="50.090118" lon="5.863691"><ele>480.117</ele><time>2022-09-17T15:50:32Z</time></trkpt><trkpt lat="50.090170" lon="5.863876"><ele>480.092</ele><time>2022-09-17T15:50:33Z</time></trkpt><trkpt lat="50.090232" lon="5.864058"><ele>479.997</ele><time>2022-09-17T15:50:34Z</time></trkpt><trkpt lat="50.090299" lon="5.864236"><ele>479.721</ele><time>2022-09-17T15:50:35Z</time></trkpt><trkpt lat="50.090398" lon="5.864402"><ele>479.688</ele><time>2022-09-17T15:50:36Z</time></trkpt><trkpt lat="50.090491" lon="5.864570"><ele>479.692</ele><time>2022-09-17T15:50:37Z</time></trkpt><trkpt lat="50.090583" lon="5.864746"><ele>479.873</ele><time>2022-09-17T15:50:38Z</time></trkpt><trkpt lat="50.090693" lon="5.864908"><ele>480.120</ele><time>2022-09-17T15:50:39Z</time></trkpt><trkpt lat="50.090790" lon="5.865083"><ele>480.409</ele><time>2022-09-17T15:50:40Z</time></trkpt><trkpt lat="50.090884" lon="5.865253"><ele>480.880</ele><time>2022-09-17T15:50:41Z</time></trkpt><trkpt lat="50.090979" lon="5.865423"><ele>481.140</ele><time>2022-09-17T15:50:42Z</time></trkpt><trkpt lat="50.091072" lon="5.865590"><ele>481.312</ele><time>2022-09-17T15:50:43Z</time></trkpt><trkpt lat="50.091162" lon="5.865751"><ele>481.468</ele><time>2022-09-17T15:50:44Z</time></trkpt><trkpt lat="50.091250" lon="5.865910"><ele>481.353</ele><time>2022-09-17T15:50:45Z</time></trkpt><trkpt lat="50.091331" lon="5.866056"><ele>481.268</ele><time>2022-09-17T15:50:46Z</time></trkpt><trkpt lat="50.091403" lon="5.866197"><ele>481.183</ele><time>2022-09-17T15:50:47Z</time></trkpt><trkpt lat="50.091501" lon="5.866282"><ele>481.067</ele><time>2022-09-17T15:50:48Z</time></trkpt><trkpt lat="50.091599" lon="5.866347"><ele>481.034</ele><time>2022-09-17T15:50:49Z</time></trkpt><trkpt lat="50.091691" lon="5.866388"><ele>481.132</ele><time>2022-09-17T15:50:50Z</time></trkpt><trkpt lat="50.091780" lon="5.866407"><ele>481.392</ele><time>2022-09-17T15:50:51Z</time></trkpt><trkpt lat="50.091848" lon="5.866448"><ele>481.411</ele><time>2022-09-17T15:50:52Z</time></trkpt><trkpt lat="50.091910" lon="5.866478"><ele>481.709</ele><time>2022-09-17T15:50:53Z</time></trkpt><trkpt lat="50.091966" lon="5.866495"><ele>481.824</ele><time>2022-09-17T15:50:54Z</time></trkpt><trkpt lat="50.092022" lon="5.866531"><ele>481.834</ele><time>2022-09-17T15:50:55Z</time></trkpt><trkpt lat="50.092064" lon="5.866555"><ele>481.846</ele><time>2022-09-17T15:50:56Z</time></trkpt><trkpt lat="50.092118" lon="5.866586"><ele>481.842</ele><time>2022-09-17T15:50:57Z</time></trkpt><trkpt lat="50.092163" lon="5.866613"><ele>481.827</ele><time>2022-09-17T15:50:58Z</time></trkpt><trkpt lat="50.092247" lon="5.866646"><ele>481.852</ele><time>2022-09-17T15:51:00Z</time></trkpt><trkpt lat="50.092299" lon="5.866671"><ele>482.197</ele><time>2022-09-17T15:51:01Z</time></trkpt><trkpt lat="50.092361" lon="5.866679"><ele>482.411</ele><time>2022-09-17T15:51:02Z</time></trkpt><trkpt lat="50.092425" lon="5.866716"><ele>482.758</ele><time>2022-09-17T15:51:03Z</time></trkpt><trkpt lat="50.092501" lon="5.866753"><ele>482.844</ele><time>2022-09-17T15:51:04Z</time></trkpt><trkpt lat="50.092578" lon="5.866789"><ele>483.105</ele><time>2022-09-17T15:51:05Z</time></trkpt><trkpt lat="50.092661" lon="5.866828"><ele>483.415</ele><time>2022-09-17T15:51:06Z</time></trkpt><trkpt lat="50.092738" lon="5.866865"><ele>483.609</ele><time>2022-09-17T15:51:07Z</time></trkpt><trkpt lat="50.092815" lon="5.866902"><ele>483.825</ele><time>2022-09-17T15:51:08Z</time></trkpt><trkpt lat="50.092885" lon="5.866937"><ele>484.045</ele><time>2022-09-17T15:51:09Z</time></trkpt><trkpt lat="50.092964" lon="5.866967"><ele>484.237</ele><time>2022-09-17T15:51:10Z</time></trkpt><trkpt lat="50.093030" lon="5.866977"><ele>484.533</ele><time>2022-09-17T15:51:11Z</time></trkpt><trkpt lat="50.093098" lon="5.867011"><ele>484.878</ele><time>2022-09-17T15:51:13Z</time></trkpt><trkpt lat="50.093160" lon="5.866986"><ele>484.843</ele><time>2022-09-17T15:51:18Z</time></trkpt><trkpt lat="50.093243" lon="5.866992"><ele>484.578</ele><time>2022-09-17T15:51:19Z</time></trkpt><trkpt lat="50.093336" lon="5.866988"><ele>484.262</ele><time>2022-09-17T15:51:20Z</time></trkpt><trkpt lat="50.093432" lon="5.867017"><ele>484.319</ele><time>2022-09-17T15:51:21Z</time></trkpt><trkpt lat="50.093516" lon="5.867050"><ele>484.327</ele><time>2022-09-17T15:51:22Z</time></trkpt><trkpt lat="50.093611" lon="5.867104"><ele>484.568</ele><time>2022-09-17T15:51:23Z</time></trkpt><trkpt lat="50.093719" lon="5.867154"><ele>484.514</ele><time>2022-09-17T15:51:24Z</time></trkpt><trkpt lat="50.093824" lon="5.867219"><ele>484.509</ele><time>2022-09-17T15:51:25Z</time></trkpt><trkpt lat="50.093922" lon="5.867292"><ele>484.473</ele><time>2022-09-17T15:51:26Z</time></trkpt><trkpt lat="50.094027" lon="5.867360"><ele>484.323</ele><time>2022-09-17T15:51:27Z</time></trkpt><trkpt lat="50.094128" lon="5.867427"><ele>483.675</ele><time>2022-09-17T15:51:28Z</time></trkpt><trkpt lat="50.094228" lon="5.867497"><ele>483.441</ele><time>2022-09-17T15:51:29Z</time></trkpt><trkpt lat="50.094317" lon="5.867561"><ele>482.566</ele><time>2022-09-17T15:51:30Z</time></trkpt><trkpt lat="50.094404" lon="5.867623"><ele>481.771</ele><time>2022-09-17T15:51:31Z</time></trkpt><trkpt lat="50.094490" lon="5.867682"><ele>480.926</ele><time>2022-09-17T15:51:32Z</time></trkpt><trkpt lat="50.094573" lon="5.867739"><ele>480.250</ele><time>2022-09-17T15:51:33Z</time></trkpt><trkpt lat="50.094651" lon="5.867791"><ele>479.927</ele><time>2022-09-17T15:51:34Z</time></trkpt><trkpt lat="50.094732" lon="5.867837"><ele>479.265</ele><time>2022-09-17T15:51:35Z</time></trkpt><trkpt lat="50.094827" lon="5.867856"><ele>478.868</ele><time>2022-09-17T15:51:36Z</time></trkpt><trkpt lat="50.094930" lon="5.867859"><ele>478.114</ele><time>2022-09-17T15:51:37Z</time></trkpt><trkpt lat="50.095038" lon="5.867850"><ele>477.809</ele><time>2022-09-17T15:51:38Z</time></trkpt><trkpt lat="50.095149" lon="5.867836"><ele>477.827</ele><time>2022-09-17T15:51:39Z</time></trkpt><trkpt lat="50.095251" lon="5.867812"><ele>478.017</ele><time>2022-09-17T15:51:40Z</time></trkpt><trkpt lat="50.095355" lon="5.867796"><ele>478.379</ele><time>2022-09-17T15:51:41Z</time></trkpt><trkpt lat="50.095447" lon="5.867790"><ele>478.875</ele><time>2022-09-17T15:51:42Z</time></trkpt><trkpt lat="50.095536" lon="5.867782"><ele>479.170</ele><time>2022-09-17T15:51:43Z</time></trkpt><trkpt lat="50.095615" lon="5.867781"><ele>478.915</ele><time>2022-09-17T15:51:44Z</time></trkpt><trkpt lat="50.095687" lon="5.867773"><ele>478.860</ele><time>2022-09-17T15:51:45Z</time></trkpt><trkpt lat="50.095752" lon="5.867766"><ele>478.414</ele><time>2022-09-17T15:51:46Z</time></trkpt><trkpt lat="50.095815" lon="5.868002"><ele>477.611</ele><time>2022-09-17T15:51:47Z</time></trkpt><trkpt lat="50.095818" lon="5.868140"><ele>477.099</ele><time>2022-09-17T15:51:48Z</time></trkpt><trkpt lat="50.095824" lon="5.868283"><ele>476.707</ele><time>2022-09-17T15:51:49Z</time></trkpt><trkpt lat="50.095839" lon="5.868437"><ele>476.527</ele><time>2022-09-17T15:51:50Z</time></trkpt><trkpt lat="50.095813" lon="5.868610"><ele>476.309</ele><time>2022-09-17T15:51:51Z</time></trkpt><trkpt lat="50.095801" lon="5.868779"><ele>476.120</ele><time>2022-09-17T15:51:52Z</time></trkpt><trkpt lat="50.095790" lon="5.868975"><ele>476.090</ele><time>2022-09-17T15:51:53Z</time></trkpt><trkpt lat="50.095779" lon="5.869178"><ele>475.652</ele><time>2022-09-17T15:51:54Z</time></trkpt><trkpt lat="50.095773" lon="5.869375"><ele>475.588</ele><time>2022-09-17T15:51:55Z</time></trkpt><trkpt lat="50.095766" lon="5.869565"><ele>475.283</ele><time>2022-09-17T15:51:56Z</time></trkpt><trkpt lat="50.095762" lon="5.869749"><ele>474.768</ele><time>2022-09-17T15:51:57Z</time></trkpt><trkpt lat="50.095757" lon="5.869936"><ele>473.913</ele><time>2022-09-17T15:51:58Z</time></trkpt><trkpt lat="50.095751" lon="5.870117"><ele>473.047</ele><time>2022-09-17T15:51:59Z</time></trkpt><trkpt lat="50.095749" lon="5.870300"><ele>471.964</ele><time>2022-09-17T15:52:00Z</time></trkpt><trkpt lat="50.095756" lon="5.870476"><ele>470.777</ele><time>2022-09-17T15:52:01Z</time></trkpt><trkpt lat="50.095736" lon="5.870665"><ele>469.561</ele><time>2022-09-17T15:52:02Z</time></trkpt><trkpt lat="50.095759" lon="5.870841"><ele>468.527</ele><time>2022-09-17T15:52:03Z</time></trkpt><trkpt lat="50.095799" lon="5.871022"><ele>467.709</ele><time>2022-09-17T15:52:04Z</time></trkpt><trkpt lat="50.095837" lon="5.871180"><ele>466.748</ele><time>2022-09-17T15:52:05Z</time></trkpt><trkpt lat="50.095873" lon="5.871327"><ele>465.718</ele><time>2022-09-17T15:52:06Z</time></trkpt><trkpt lat="50.095909" lon="5.871455"><ele>465.030</ele><time>2022-09-17T15:52:07Z</time></trkpt><trkpt lat="50.095961" lon="5.871541"><ele>464.586</ele><time>2022-09-17T15:52:08Z</time></trkpt><trkpt lat="50.096050" lon="5.871566"><ele>463.631</ele><time>2022-09-17T15:52:09Z</time></trkpt><trkpt lat="50.096135" lon="5.871525"><ele>462.896</ele><time>2022-09-17T15:52:10Z</time></trkpt><trkpt lat="50.096208" lon="5.871435"><ele>461.621</ele><time>2022-09-17T15:52:11Z</time></trkpt><trkpt lat="50.096295" lon="5.871358"><ele>460.995</ele><time>2022-09-17T15:52:12Z</time></trkpt><trkpt lat="50.096368" lon="5.871262"><ele>460.742</ele><time>2022-09-17T15:52:13Z</time></trkpt><trkpt lat="50.096444" lon="5.871176"><ele>460.757</ele><time>2022-09-17T15:52:14Z</time></trkpt><trkpt lat="50.096517" lon="5.871096"><ele>460.700</ele><time>2022-09-17T15:52:15Z</time></trkpt><trkpt lat="50.096577" lon="5.871030"><ele>460.820</ele><time>2022-09-17T15:52:16Z</time></trkpt><trkpt lat="50.096627" lon="5.870976"><ele>461.109</ele><time>2022-09-17T15:52:17Z</time></trkpt><trkpt lat="50.096679" lon="5.870922"><ele>461.126</ele><time>2022-09-17T15:52:19Z</time></trkpt><trkpt lat="50.096756" lon="5.871076"><ele>461.096</ele><time>2022-09-17T15:52:20Z</time></trkpt><trkpt lat="50.096777" lon="5.871174"><ele>460.648</ele><time>2022-09-17T15:52:21Z</time></trkpt><trkpt lat="50.096795" lon="5.871286"><ele>460.364</ele><time>2022-09-17T15:52:22Z</time></trkpt><trkpt lat="50.096822" lon="5.871435"><ele>460.229</ele><time>2022-09-17T15:52:23Z</time></trkpt><trkpt lat="50.096816" lon="5.871586"><ele>460.244</ele><time>2022-09-17T15:52:24Z</time></trkpt><trkpt lat="50.096750" lon="5.871760"><ele>460.459</ele><time>2022-09-17T15:52:25Z</time></trkpt><trkpt lat="50.096744" lon="5.871951"><ele>460.923</ele><time>2022-09-17T15:52:26Z</time></trkpt><trkpt lat="50.096729" lon="5.872142"><ele>461.470</ele><time>2022-09-17T15:52:27Z</time></trkpt><trkpt lat="50.096704" lon="5.872315"><ele>462.192</ele><time>2022-09-17T15:52:28Z</time></trkpt><trkpt lat="50.096734" lon="5.872500"><ele>463.073</ele><time>2022-09-17T15:52:29Z</time></trkpt><trkpt lat="50.096751" lon="5.872698"><ele>463.920</ele><time>2022-09-17T15:52:30Z</time></trkpt><trkpt lat="50.096784" lon="5.872908"><ele>465.009</ele><time>2022-09-17T15:52:31Z</time></trkpt><trkpt lat="50.096830" lon="5.873098"><ele>467.110</ele><time>2022-09-17T15:52:32Z</time></trkpt><trkpt lat="50.096880" lon="5.873256"><ele>467.890</ele><time>2022-09-17T15:52:33Z</time></trkpt><trkpt lat="50.096905" lon="5.873416"><ele>469.462</ele><time>2022-09-17T15:52:34Z</time></trkpt><trkpt lat="50.096923" lon="5.873564"><ele>470.628</ele><time>2022-09-17T15:52:35Z</time></trkpt><trkpt lat="50.096929" lon="5.873692"><ele>471.723</ele><time>2022-09-17T15:52:36Z</time></trkpt><trkpt lat="50.096928" lon="5.873793"><ele>472.298</ele><time>2022-09-17T15:52:37Z</time></trkpt><trkpt lat="50.096921" lon="5.873895"><ele>473.033</ele><time>2022-09-17T15:52:38Z</time></trkpt><trkpt lat="50.096912" lon="5.874029"><ele>473.667</ele><time>2022-09-17T15:52:39Z</time></trkpt><trkpt lat="50.096904" lon="5.874196"><ele>474.184</ele><time>2022-09-17T15:52:40Z</time></trkpt><trkpt lat="50.096891" lon="5.874390"><ele>474.925</ele><time>2022-09-17T15:52:41Z</time></trkpt><trkpt lat="50.096877" lon="5.874629"><ele>475.826</ele><time>2022-09-17T15:52:42Z</time></trkpt><trkpt lat="50.096866" lon="5.874840"><ele>476.608</ele><time>2022-09-17T15:52:43Z</time></trkpt><trkpt lat="50.096858" lon="5.875055"><ele>477.109</ele><time>2022-09-17T15:52:44Z</time></trkpt><trkpt lat="50.096834" lon="5.875261"><ele>477.233</ele><time>2022-09-17T15:52:45Z</time></trkpt><trkpt lat="50.096824" lon="5.875450"><ele>477.273</ele><time>2022-09-17T15:52:46Z</time></trkpt><trkpt lat="50.096817" lon="5.875620"><ele>477.055</ele><time>2022-09-17T15:52:47Z</time></trkpt><trkpt lat="50.096808" lon="5.875787"><ele>476.661</ele><time>2022-09-17T15:52:48Z</time></trkpt><trkpt lat="50.096793" lon="5.875953"><ele>476.296</ele><time>2022-09-17T15:52:49Z</time></trkpt><trkpt lat="50.096771" lon="5.876128"><ele>476.231</ele><time>2022-09-17T15:52:50Z</time></trkpt><trkpt lat="50.096743" lon="5.876318"><ele>476.676</ele><time>2022-09-17T15:52:51Z</time></trkpt><trkpt lat="50.096708" lon="5.876504"><ele>476.880</ele><time>2022-09-17T15:52:52Z</time></trkpt><trkpt lat="50.096659" lon="5.876682"><ele>477.037</ele><time>2022-09-17T15:52:53Z</time></trkpt><trkpt lat="50.096602" lon="5.876868"><ele>477.099</ele><time>2022-09-17T15:52:54Z</time></trkpt><trkpt lat="50.096550" lon="5.877059"><ele>477.007</ele><time>2022-09-17T15:52:55Z</time></trkpt><trkpt lat="50.096511" lon="5.877223"><ele>476.927</ele><time>2022-09-17T15:52:56Z</time></trkpt><trkpt lat="50.096464" lon="5.877400"><ele>476.809</ele><time>2022-09-17T15:52:57Z</time></trkpt><trkpt lat="50.096426" lon="5.877576"><ele>476.880</ele><time>2022-09-17T15:52:58Z</time></trkpt><trkpt lat="50.096398" lon="5.877743"><ele>476.810</ele><time>2022-09-17T15:52:59Z</time></trkpt><trkpt lat="50.096371" lon="5.877901"><ele>477.052</ele><time>2022-09-17T15:53:00Z</time></trkpt><trkpt lat="50.096355" lon="5.878052"><ele>477.228</ele><time>2022-09-17T15:53:01Z</time></trkpt><trkpt lat="50.096343" lon="5.878170"><ele>477.343</ele><time>2022-09-17T15:53:02Z</time></trkpt><trkpt lat="50.096338" lon="5.878257"><ele>477.378</ele><time>2022-09-17T15:53:03Z</time></trkpt><trkpt lat="50.096323" lon="5.878356"><ele>477.683</ele><time>2022-09-17T15:53:05Z</time></trkpt><trkpt lat="50.096362" lon="5.878263"><ele>477.937</ele><time>2022-09-17T15:53:10Z</time></trkpt><trkpt lat="50.096392" lon="5.878181"><ele>478.784</ele><time>2022-09-17T15:53:12Z</time></trkpt><trkpt lat="50.096467" lon="5.878181"><ele>480.317</ele><time>2022-09-17T15:53:14Z</time></trkpt><trkpt lat="50.096542" lon="5.878235"><ele>480.487</ele><time>2022-09-17T15:53:15Z</time></trkpt><trkpt lat="50.096617" lon="5.878300"><ele>480.415</ele><time>2022-09-17T15:53:16Z</time></trkpt><trkpt lat="50.096701" lon="5.878335"><ele>480.409</ele><time>2022-09-17T15:53:17Z</time></trkpt><trkpt lat="50.096763" lon="5.878376"><ele>480.452</ele><time>2022-09-17T15:53:18Z</time></trkpt><trkpt lat="50.096815" lon="5.878440"><ele>480.322</ele><time>2022-09-17T15:53:19Z</time></trkpt><trkpt lat="50.096844" lon="5.878529"><ele>480.234</ele><time>2022-09-17T15:53:20Z</time></trkpt><trkpt lat="50.096862" lon="5.878641"><ele>480.160</ele><time>2022-09-17T15:53:21Z</time></trkpt><trkpt lat="50.096884" lon="5.878770"><ele>480.165</ele><time>2022-09-17T15:53:22Z</time></trkpt><trkpt lat="50.096910" lon="5.878881"><ele>480.170</ele><time>2022-09-17T15:53:23Z</time></trkpt><trkpt lat="50.096956" lon="5.878987"><ele>480.275</ele><time>2022-09-17T15:53:24Z</time></trkpt><trkpt lat="50.097028" lon="5.879068"><ele>480.419</ele><time>2022-09-17T15:53:25Z</time></trkpt><trkpt lat="50.097098" lon="5.879141"><ele>480.696</ele><time>2022-09-17T15:53:26Z</time></trkpt><trkpt lat="50.097167" lon="5.879198"><ele>480.747</ele><time>2022-09-17T15:53:27Z</time></trkpt><trkpt lat="50.097243" lon="5.879249"><ele>480.829</ele><time>2022-09-17T15:53:28Z</time></trkpt><trkpt lat="50.097315" lon="5.879288"><ele>480.921</ele><time>2022-09-17T15:53:29Z</time></trkpt><trkpt lat="50.097387" lon="5.879315"><ele>480.909</ele><time>2022-09-17T15:53:30Z</time></trkpt><trkpt lat="50.097466" lon="5.879317"><ele>480.975</ele><time>2022-09-17T15:53:31Z</time></trkpt><trkpt lat="50.097545" lon="5.879316"><ele>480.495</ele><time>2022-09-17T15:53:32Z</time></trkpt><trkpt lat="50.097620" lon="5.879310"><ele>479.677</ele><time>2022-09-17T15:53:33Z</time></trkpt><trkpt lat="50.097691" lon="5.879306"><ele>479.023</ele><time>2022-09-17T15:53:34Z</time></trkpt><trkpt lat="50.097760" lon="5.879289"><ele>478.398</ele><time>2022-09-17T15:53:35Z</time></trkpt><trkpt lat="50.097831" lon="5.879271"><ele>477.543</ele><time>2022-09-17T15:53:36Z</time></trkpt><trkpt lat="50.097897" lon="5.879256"><ele>477.188</ele><time>2022-09-17T15:53:37Z</time></trkpt><trkpt lat="50.097967" lon="5.879236"><ele>476.892</ele><time>2022-09-17T15:53:38Z</time></trkpt><trkpt lat="50.098024" lon="5.879226"><ele>476.619</ele><time>2022-09-17T15:53:39Z</time></trkpt><trkpt lat="50.098089" lon="5.879216"><ele>475.586</ele><time>2022-09-17T15:53:40Z</time></trkpt><trkpt lat="50.098167" lon="5.879201"><ele>475.060</ele><time>2022-09-17T15:53:41Z</time></trkpt><trkpt lat="50.098234" lon="5.879192"><ele>474.826</ele><time>2022-09-17T15:53:42Z</time></trkpt><trkpt lat="50.098281" lon="5.879171"><ele>474.009</ele><time>2022-09-17T15:53:43Z</time></trkpt><trkpt lat="50.098331" lon="5.879135"><ele>473.499</ele><time>2022-09-17T15:53:44Z</time></trkpt><trkpt lat="50.098385" lon="5.879043"><ele>473.289</ele><time>2022-09-17T15:53:45Z</time></trkpt><trkpt lat="50.098421" lon="5.878915"><ele>472.851</ele><time>2022-09-17T15:53:46Z</time></trkpt><trkpt lat="50.098461" lon="5.878774"><ele>472.727</ele><time>2022-09-17T15:53:47Z</time></trkpt><trkpt lat="50.098539" lon="5.878579"><ele>472.882</ele><time>2022-09-17T15:53:48Z</time></trkpt><trkpt lat="50.098612" lon="5.878422"><ele>473.057</ele><time>2022-09-17T15:53:49Z</time></trkpt><trkpt lat="50.098677" lon="5.878260"><ele>473.032</ele><time>2022-09-17T15:53:50Z</time></trkpt><trkpt lat="50.098774" lon="5.878127"><ele>472.986</ele><time>2022-09-17T15:53:51Z</time></trkpt><trkpt lat="50.098860" lon="5.878001"><ele>471.763</ele><time>2022-09-17T15:53:52Z</time></trkpt><trkpt lat="50.098956" lon="5.877855"><ele>470.767</ele><time>2022-09-17T15:53:53Z</time></trkpt><trkpt lat="50.099031" lon="5.877726"><ele>469.381</ele><time>2022-09-17T15:53:54Z</time></trkpt><trkpt lat="50.099123" lon="5.877599"><ele>468.419</ele><time>2022-09-17T15:53:55Z</time></trkpt><trkpt lat="50.099197" lon="5.877474"><ele>467.109</ele><time>2022-09-17T15:53:56Z</time></trkpt><trkpt lat="50.099273" lon="5.877347"><ele>467.117</ele><time>2022-09-17T15:53:57Z</time></trkpt><trkpt lat="50.099344" lon="5.877222"><ele>466.857</ele><time>2022-09-17T15:53:58Z</time></trkpt><trkpt lat="50.099406" lon="5.877105"><ele>466.749</ele><time>2022-09-17T15:53:59Z</time></trkpt><trkpt lat="50.099458" lon="5.876976"><ele>466.435</ele><time>2022-09-17T15:54:00Z</time></trkpt><trkpt lat="50.099498" lon="5.876852"><ele>466.360</ele><time>2022-09-17T15:54:01Z</time></trkpt><trkpt lat="50.099517" lon="5.876717"><ele>466.365</ele><time>2022-09-17T15:54:02Z</time></trkpt><trkpt lat="50.099519" lon="5.876596"><ele>466.350</ele><time>2022-09-17T15:54:03Z</time></trkpt><trkpt lat="50.099524" lon="5.876456"><ele>466.214</ele><time>2022-09-17T15:54:04Z</time></trkpt><trkpt lat="50.099515" lon="5.876308"><ele>466.021</ele><time>2022-09-17T15:54:05Z</time></trkpt><trkpt lat="50.099501" lon="5.876143"><ele>465.899</ele><time>2022-09-17T15:54:06Z</time></trkpt><trkpt lat="50.099481" lon="5.875989"><ele>465.207</ele><time>2022-09-17T15:54:07Z</time></trkpt><trkpt lat="50.099469" lon="5.875844"><ele>464.727</ele><time>2022-09-17T15:54:08Z</time></trkpt><trkpt lat="50.099447" lon="5.875724"><ele>464.109</ele><time>2022-09-17T15:54:09Z</time></trkpt><trkpt lat="50.099426" lon="5.875612"><ele>463.930</ele><time>2022-09-17T15:54:10Z</time></trkpt><trkpt lat="50.099407" lon="5.875501"><ele>463.580</ele><time>2022-09-17T15:54:11Z</time></trkpt><trkpt lat="50.099390" lon="5.875395"><ele>463.362</ele><time>2022-09-17T15:54:12Z</time></trkpt><trkpt lat="50.099380" lon="5.875304"><ele>463.358</ele><time>2022-09-17T15:54:13Z</time></trkpt><trkpt lat="50.099376" lon="5.875199"><ele>463.493</ele><time>2022-09-17T15:54:15Z</time></trkpt><trkpt lat="50.099410" lon="5.875150"><ele>463.528</ele><time>2022-09-17T15:54:17Z</time></trkpt><trkpt lat="50.099474" lon="5.875245"><ele>463.733</ele><time>2022-09-17T15:54:19Z</time></trkpt><trkpt lat="50.099503" lon="5.875318"><ele>463.887</ele><time>2022-09-17T15:54:20Z</time></trkpt><trkpt lat="50.099529" lon="5.875407"><ele>463.884</ele><time>2022-09-17T15:54:21Z</time></trkpt><trkpt lat="50.099566" lon="5.875501"><ele>463.859</ele><time>2022-09-17T15:54:22Z</time></trkpt><trkpt lat="50.099604" lon="5.875612"><ele>463.703</ele><time>2022-09-17T15:54:23Z</time></trkpt><trkpt lat="50.099637" lon="5.875711"><ele>463.623</ele><time>2022-09-17T15:54:24Z</time></trkpt><trkpt lat="50.099672" lon="5.875809"><ele>463.509</ele><time>2022-09-17T15:54:25Z</time></trkpt><trkpt lat="50.099709" lon="5.875917"><ele>463.436</ele><time>2022-09-17T15:54:26Z</time></trkpt><trkpt lat="50.099747" lon="5.876028"><ele>463.346</ele><time>2022-09-17T15:54:27Z</time></trkpt><trkpt lat="50.099792" lon="5.876161"><ele>463.228</ele><time>2022-09-17T15:54:28Z</time></trkpt><trkpt lat="50.099839" lon="5.876292"><ele>463.164</ele><time>2022-09-17T15:54:29Z</time></trkpt><trkpt lat="50.099891" lon="5.876436"><ele>463.079</ele><time>2022-09-17T15:54:30Z</time></trkpt><trkpt lat="50.099952" lon="5.876606"><ele>462.924</ele><time>2022-09-17T15:54:31Z</time></trkpt><trkpt lat="50.100022" lon="5.876775"><ele>462.989</ele><time>2022-09-17T15:54:32Z</time></trkpt><trkpt lat="50.100100" lon="5.876953"><ele>462.923</ele><time>2022-09-17T15:54:33Z</time></trkpt><trkpt lat="50.100200" lon="5.877133"><ele>463.240</ele><time>2022-09-17T15:54:34Z</time></trkpt><trkpt lat="50.100272" lon="5.877311"><ele>463.416</ele><time>2022-09-17T15:54:35Z</time></trkpt><trkpt lat="50.100347" lon="5.877499"><ele>463.576</ele><time>2022-09-17T15:54:36Z</time></trkpt><trkpt lat="50.100426" lon="5.877698"><ele>463.513</ele><time>2022-09-17T15:54:37Z</time></trkpt><trkpt lat="50.100493" lon="5.877903"><ele>463.409</ele><time>2022-09-17T15:54:38Z</time></trkpt><trkpt lat="50.100546" lon="5.878084"><ele>463.092</ele><time>2022-09-17T15:54:39Z</time></trkpt><trkpt lat="50.100617" lon="5.878265"><ele>462.732</ele><time>2022-09-17T15:54:40Z</time></trkpt><trkpt lat="50.100678" lon="5.878442"><ele>462.114</ele><time>2022-09-17T15:54:41Z</time></trkpt><trkpt lat="50.100735" lon="5.878625"><ele>461.760</ele><time>2022-09-17T15:54:42Z</time></trkpt><trkpt lat="50.100798" lon="5.878810"><ele>461.025</ele><time>2022-09-17T15:54:43Z</time></trkpt><trkpt lat="50.100863" lon="5.878994"><ele>460.140</ele><time>2022-09-17T15:54:44Z</time></trkpt><trkpt lat="50.100938" lon="5.879160"><ele>459.385</ele><time>2022-09-17T15:54:45Z</time></trkpt><trkpt lat="50.101034" lon="5.879305"><ele>458.849</ele><time>2022-09-17T15:54:46Z</time></trkpt><trkpt lat="50.101138" lon="5.879424"><ele>458.026</ele><time>2022-09-17T15:54:47Z</time></trkpt><trkpt lat="50.101254" lon="5.879508"><ele>457.138</ele><time>2022-09-17T15:54:48Z</time></trkpt><trkpt lat="50.101381" lon="5.879575"><ele>456.670</ele><time>2022-09-17T15:54:49Z</time></trkpt><trkpt lat="50.101509" lon="5.879637"><ele>456.317</ele><time>2022-09-17T15:54:50Z</time></trkpt><trkpt lat="50.101635" lon="5.879718"><ele>456.309</ele><time>2022-09-17T15:54:51Z</time></trkpt><trkpt lat="50.101752" lon="5.879837"><ele>456.464</ele><time>2022-09-17T15:54:52Z</time></trkpt><trkpt lat="50.101856" lon="5.879990"><ele>456.854</ele><time>2022-09-17T15:54:53Z</time></trkpt><trkpt lat="50.101940" lon="5.880176"><ele>457.316</ele><time>2022-09-17T15:54:54Z</time></trkpt><trkpt lat="50.102020" lon="5.880377"><ele>457.682</ele><time>2022-09-17T15:54:55Z</time></trkpt><trkpt lat="50.102099" lon="5.880573"><ele>458.087</ele><time>2022-09-17T15:54:56Z</time></trkpt><trkpt lat="50.102177" lon="5.880765"><ele>458.732</ele><time>2022-09-17T15:54:57Z</time></trkpt><trkpt lat="50.102251" lon="5.880949"><ele>459.647</ele><time>2022-09-17T15:54:58Z</time></trkpt><trkpt lat="50.102330" lon="5.881120"><ele>460.691</ele><time>2022-09-17T15:54:59Z</time></trkpt><trkpt lat="50.102414" lon="5.881288"><ele>461.698</ele><time>2022-09-17T15:55:00Z</time></trkpt><trkpt lat="50.102499" lon="5.881456"><ele>462.454</ele><time>2022-09-17T15:55:01Z</time></trkpt><trkpt lat="50.102585" lon="5.881631"><ele>462.856</ele><time>2022-09-17T15:55:02Z</time></trkpt><trkpt lat="50.102675" lon="5.881809"><ele>462.911</ele><time>2022-09-17T15:55:03Z</time></trkpt><trkpt lat="50.102766" lon="5.881984"><ele>462.909</ele><time>2022-09-17T15:55:04Z</time></trkpt><trkpt lat="50.102865" lon="5.882171"><ele>462.926</ele><time>2022-09-17T15:55:05Z</time></trkpt><trkpt lat="50.102960" lon="5.882351"><ele>463.096</ele><time>2022-09-17T15:55:06Z</time></trkpt><trkpt lat="50.103053" lon="5.882531"><ele>463.288</ele><time>2022-09-17T15:55:07Z</time></trkpt><trkpt lat="50.103143" lon="5.882713"><ele>463.654</ele><time>2022-09-17T15:55:08Z</time></trkpt><trkpt lat="50.103225" lon="5.882910"><ele>464.169</ele><time>2022-09-17T15:55:09Z</time></trkpt><trkpt lat="50.103287" lon="5.883123"><ele>464.724</ele><time>2022-09-17T15:55:10Z</time></trkpt><trkpt lat="50.103336" lon="5.883360"><ele>465.429</ele><time>2022-09-17T15:55:11Z</time></trkpt><trkpt lat="50.103372" lon="5.883612"><ele>466.053</ele><time>2022-09-17T15:55:12Z</time></trkpt><trkpt lat="50.103400" lon="5.883862"><ele>466.530</ele><time>2022-09-17T15:55:13Z</time></trkpt><trkpt lat="50.103432" lon="5.884114"><ele>467.099</ele><time>2022-09-17T15:55:14Z</time></trkpt><trkpt lat="50.103486" lon="5.884362"><ele>467.207</ele><time>2022-09-17T15:55:15Z</time></trkpt><trkpt lat="50.103551" lon="5.884599"><ele>467.327</ele><time>2022-09-17T15:55:16Z</time></trkpt><trkpt lat="50.103629" lon="5.884819"><ele>467.609</ele><time>2022-09-17T15:55:17Z</time></trkpt><trkpt lat="50.103707" lon="5.885042"><ele>468.070</ele><time>2022-09-17T15:55:18Z</time></trkpt><trkpt lat="50.103783" lon="5.885262"><ele>468.350</ele><time>2022-09-17T15:55:19Z</time></trkpt><trkpt lat="50.103861" lon="5.885488"><ele>468.992</ele><time>2022-09-17T15:55:20Z</time></trkpt><trkpt lat="50.103940" lon="5.885713"><ele>469.568</ele><time>2022-09-17T15:55:21Z</time></trkpt><trkpt lat="50.104016" lon="5.885933"><ele>469.893</ele><time>2022-09-17T15:55:22Z</time></trkpt><trkpt lat="50.104090" lon="5.886144"><ele>469.978</ele><time>2022-09-17T15:55:23Z</time></trkpt><trkpt lat="50.104160" lon="5.886345"><ele>469.933</ele><time>2022-09-17T15:55:24Z</time></trkpt><trkpt lat="50.104227" lon="5.886536"><ele>469.717</ele><time>2022-09-17T15:55:25Z</time></trkpt><trkpt lat="50.104289" lon="5.886712"><ele>469.564</ele><time>2022-09-17T15:55:26Z</time></trkpt><trkpt lat="50.104351" lon="5.886886"><ele>469.557</ele><time>2022-09-17T15:55:27Z</time></trkpt><trkpt lat="50.104412" lon="5.887072"><ele>469.400</ele><time>2022-09-17T15:55:28Z</time></trkpt><trkpt lat="50.104476" lon="5.887262"><ele>469.420</ele><time>2022-09-17T15:55:29Z</time></trkpt><trkpt lat="50.104543" lon="5.887454"><ele>469.509</ele><time>2022-09-17T15:55:30Z</time></trkpt><trkpt lat="50.104602" lon="5.887632"><ele>469.616</ele><time>2022-09-17T15:55:31Z</time></trkpt><trkpt lat="50.104650" lon="5.887795"><ele>469.946</ele><time>2022-09-17T15:55:32Z</time></trkpt><trkpt lat="50.104680" lon="5.887958"><ele>470.018</ele><time>2022-09-17T15:55:33Z</time></trkpt><trkpt lat="50.104685" lon="5.888125"><ele>470.074</ele><time>2022-09-17T15:55:34Z</time></trkpt><trkpt lat="50.104672" lon="5.888293"><ele>470.029</ele><time>2022-09-17T15:55:35Z</time></trkpt><trkpt lat="50.104644" lon="5.888478"><ele>469.954</ele><time>2022-09-17T15:55:36Z</time></trkpt><trkpt lat="50.104590" lon="5.888648"><ele>469.759</ele><time>2022-09-17T15:55:37Z</time></trkpt><trkpt lat="50.104561" lon="5.888866"><ele>469.733</ele><time>2022-09-17T15:55:38Z</time></trkpt><trkpt lat="50.104500" lon="5.889078"><ele>470.040</ele><time>2022-09-17T15:55:39Z</time></trkpt><trkpt lat="50.104453" lon="5.889335"><ele>470.387</ele><time>2022-09-17T15:55:40Z</time></trkpt><trkpt lat="50.104411" lon="5.889562"><ele>470.842</ele><time>2022-09-17T15:55:41Z</time></trkpt><trkpt lat="50.104382" lon="5.889812"><ele>471.326</ele><time>2022-09-17T15:55:42Z</time></trkpt><trkpt lat="50.104361" lon="5.890051"><ele>471.609</ele><time>2022-09-17T15:55:43Z</time></trkpt><trkpt lat="50.104348" lon="5.890312"><ele>471.999</ele><time>2022-09-17T15:55:44Z</time></trkpt><trkpt lat="50.104339" lon="5.890586"><ele>472.439</ele><time>2022-09-17T15:55:45Z</time></trkpt><trkpt lat="50.104346" lon="5.890848"><ele>473.051</ele><time>2022-09-17T15:55:46Z</time></trkpt><trkpt lat="50.104369" lon="5.891112"><ele>473.757</ele><time>2022-09-17T15:55:47Z</time></trkpt><trkpt lat="50.104388" lon="5.891374"><ele>474.542</ele><time>2022-09-17T15:55:48Z</time></trkpt><trkpt lat="50.104411" lon="5.891633"><ele>475.447</ele><time>2022-09-17T15:55:49Z</time></trkpt><trkpt lat="50.104432" lon="5.891900"><ele>476.232</ele><time>2022-09-17T15:55:50Z</time></trkpt><trkpt lat="50.104458" lon="5.892136"><ele>476.826</ele><time>2022-09-17T15:55:51Z</time></trkpt><trkpt lat="50.104477" lon="5.892384"><ele>477.313</ele><time>2022-09-17T15:55:52Z</time></trkpt><trkpt lat="50.104500" lon="5.892626"><ele>477.892</ele><time>2022-09-17T15:55:53Z</time></trkpt><trkpt lat="50.104516" lon="5.892862"><ele>478.373</ele><time>2022-09-17T15:55:54Z</time></trkpt><trkpt lat="50.104534" lon="5.893084"><ele>478.720</ele><time>2022-09-17T15:55:55Z</time></trkpt><trkpt lat="50.104547" lon="5.893298"><ele>479.109</ele><time>2022-09-17T15:55:56Z</time></trkpt><trkpt lat="50.104562" lon="5.893515"><ele>479.640</ele><time>2022-09-17T15:55:57Z</time></trkpt><trkpt lat="50.104577" lon="5.893721"><ele>480.270</ele><time>2022-09-17T15:55:58Z</time></trkpt><trkpt lat="50.104586" lon="5.893927"><ele>480.572</ele><time>2022-09-17T15:55:59Z</time></trkpt><trkpt lat="50.104595" lon="5.894125"><ele>481.378</ele><time>2022-09-17T15:56:00Z</time></trkpt><trkpt lat="50.104601" lon="5.894307"><ele>482.013</ele><time>2022-09-17T15:56:01Z</time></trkpt><trkpt lat="50.104582" lon="5.894485"><ele>482.738</ele><time>2022-09-17T15:56:02Z</time></trkpt><trkpt lat="50.104553" lon="5.894647"><ele>483.353</ele><time>2022-09-17T15:56:03Z</time></trkpt><trkpt lat="50.104523" lon="5.894784"><ele>483.777</ele><time>2022-09-17T15:56:04Z</time></trkpt><trkpt lat="50.104478" lon="5.894862"><ele>483.944</ele><time>2022-09-17T15:56:05Z</time></trkpt><trkpt lat="50.104450" lon="5.894921"><ele>484.445</ele><time>2022-09-17T15:56:06Z</time></trkpt><trkpt lat="50.104426" lon="5.894989"><ele>484.747</ele><time>2022-09-17T15:56:08Z</time></trkpt><trkpt lat="50.104356" lon="5.894961"><ele>484.911</ele><time>2022-09-17T15:56:09Z</time></trkpt><trkpt lat="50.104277" lon="5.894900"><ele>485.009</ele><time>2022-09-17T15:56:10Z</time></trkpt><trkpt lat="50.104169" lon="5.894834"><ele>485.165</ele><time>2022-09-17T15:56:11Z</time></trkpt><trkpt lat="50.104066" lon="5.894778"><ele>485.195</ele><time>2022-09-17T15:56:12Z</time></trkpt><trkpt lat="50.103969" lon="5.894738"><ele>485.077</ele><time>2022-09-17T15:56:13Z</time></trkpt><trkpt lat="50.103872" lon="5.894683"><ele>484.643</ele><time>2022-09-17T15:56:14Z</time></trkpt><trkpt lat="50.103774" lon="5.894630"><ele>484.058</ele><time>2022-09-17T15:56:15Z</time></trkpt><trkpt lat="50.103671" lon="5.894575"><ele>483.573</ele><time>2022-09-17T15:56:16Z</time></trkpt><trkpt lat="50.103567" lon="5.894535"><ele>483.298</ele><time>2022-09-17T15:56:17Z</time></trkpt><trkpt lat="50.103459" lon="5.894490"><ele>482.992</ele><time>2022-09-17T15:56:18Z</time></trkpt><trkpt lat="50.103347" lon="5.894441"><ele>482.959</ele><time>2022-09-17T15:56:19Z</time></trkpt><trkpt lat="50.103237" lon="5.894405"><ele>482.953</ele><time>2022-09-17T15:56:20Z</time></trkpt><trkpt lat="50.103129" lon="5.894375"><ele>482.904</ele><time>2022-09-17T15:56:21Z</time></trkpt><trkpt lat="50.103032" lon="5.894345"><ele>482.814</ele><time>2022-09-17T15:56:22Z</time></trkpt><trkpt lat="50.102927" lon="5.894327"><ele>482.709</ele><time>2022-09-17T15:56:23Z</time></trkpt><trkpt lat="50.102819" lon="5.894318"><ele>482.786</ele><time>2022-09-17T15:56:24Z</time></trkpt><trkpt lat="50.102710" lon="5.894308"><ele>482.866</ele><time>2022-09-17T15:56:25Z</time></trkpt><trkpt lat="50.102600" lon="5.894304"><ele>483.028</ele><time>2022-09-17T15:56:26Z</time></trkpt><trkpt lat="50.102486" lon="5.894308"><ele>483.384</ele><time>2022-09-17T15:56:27Z</time></trkpt><trkpt lat="50.102369" lon="5.894319"><ele>483.769</ele><time>2022-09-17T15:56:28Z</time></trkpt><trkpt lat="50.102254" lon="5.894327"><ele>483.974</ele><time>2022-09-17T15:56:29Z</time></trkpt><trkpt lat="50.102145" lon="5.894345"><ele>484.029</ele><time>2022-09-17T15:56:30Z</time></trkpt><trkpt lat="50.102035" lon="5.894371"><ele>484.333</ele><time>2022-09-17T15:56:31Z</time></trkpt><trkpt lat="50.101931" lon="5.894395"><ele>484.440</ele><time>2022-09-17T15:56:32Z</time></trkpt><trkpt lat="50.101827" lon="5.894421"><ele>484.646</ele><time>2022-09-17T15:56:33Z</time></trkpt><trkpt lat="50.101723" lon="5.894446"><ele>484.788</ele><time>2022-09-17T15:56:34Z</time></trkpt><trkpt lat="50.101626" lon="5.894467"><ele>485.016</ele><time>2022-09-17T15:56:35Z</time></trkpt><trkpt lat="50.101521" lon="5.894488"><ele>485.209</ele><time>2022-09-17T15:56:36Z</time></trkpt><trkpt lat="50.101418" lon="5.894508"><ele>485.455</ele><time>2022-09-17T15:56:37Z</time></trkpt><trkpt lat="50.101308" lon="5.894522"><ele>485.625</ele><time>2022-09-17T15:56:38Z</time></trkpt><trkpt lat="50.101216" lon="5.894532"><ele>485.877</ele><time>2022-09-17T15:56:39Z</time></trkpt><trkpt lat="50.101152" lon="5.894542"><ele>485.953</ele><time>2022-09-17T15:56:40Z</time></trkpt><trkpt lat="50.101085" lon="5.894556"><ele>486.228</ele><time>2022-09-17T15:56:42Z</time></trkpt><trkpt lat="50.101072" lon="5.894644"><ele>487.033</ele><time>2022-09-17T15:56:44Z</time></trkpt><trkpt lat="50.101114" lon="5.894688"><ele>487.798</ele><time>2022-09-17T15:56:47Z</time></trkpt><trkpt lat="50.101180" lon="5.894846"><ele>489.442</ele><time>2022-09-17T15:57:05Z</time></trkpt><trkpt lat="50.101246" lon="5.894950"><ele>489.919</ele><time>2022-09-17T15:57:06Z</time></trkpt><trkpt lat="50.101315" lon="5.895072"><ele>490.048</ele><time>2022-09-17T15:57:07Z</time></trkpt><trkpt lat="50.101380" lon="5.895258"><ele>490.461</ele><time>2022-09-17T15:57:08Z</time></trkpt><trkpt lat="50.101469" lon="5.895435"><ele>491.017</ele><time>2022-09-17T15:57:09Z</time></trkpt><trkpt lat="50.101531" lon="5.895663"><ele>491.509</ele><time>2022-09-17T15:57:10Z</time></trkpt><trkpt lat="50.101605" lon="5.895889"><ele>492.035</ele><time>2022-09-17T15:57:11Z</time></trkpt><trkpt lat="50.101673" lon="5.896103"><ele>492.495</ele><time>2022-09-17T15:57:12Z</time></trkpt><trkpt lat="50.101737" lon="5.896321"><ele>492.777</ele><time>2022-09-17T15:57:13Z</time></trkpt><trkpt lat="50.101794" lon="5.896525"><ele>492.913</ele><time>2022-09-17T15:57:14Z</time></trkpt><trkpt lat="50.101838" lon="5.896732"><ele>492.988</ele><time>2022-09-17T15:57:15Z</time></trkpt><trkpt lat="50.101875" lon="5.896953"><ele>492.763</ele><time>2022-09-17T15:57:16Z</time></trkpt><trkpt lat="50.101908" lon="5.897188"><ele>492.228</ele><time>2022-09-17T15:57:17Z</time></trkpt><trkpt lat="50.101939" lon="5.897428"><ele>491.672</ele><time>2022-09-17T15:57:18Z</time></trkpt><trkpt lat="50.101966" lon="5.897645"><ele>491.199</ele><time>2022-09-17T15:57:19Z</time></trkpt><trkpt lat="50.101996" lon="5.897884"><ele>490.549</ele><time>2022-09-17T15:57:20Z</time></trkpt><trkpt lat="50.102026" lon="5.898120"><ele>489.902</ele><time>2022-09-17T15:57:21Z</time></trkpt><trkpt lat="50.102056" lon="5.898360"><ele>489.522</ele><time>2022-09-17T15:57:22Z</time></trkpt><trkpt lat="50.102092" lon="5.898590"><ele>489.109</ele><time>2022-09-17T15:57:23Z</time></trkpt><trkpt lat="50.102136" lon="5.898829"><ele>488.625</ele><time>2022-09-17T15:57:24Z</time></trkpt><trkpt lat="50.102177" lon="5.899071"><ele>488.345</ele><time>2022-09-17T15:57:25Z</time></trkpt><trkpt lat="50.102205" lon="5.899303"><ele>488.277</ele><time>2022-09-17T15:57:26Z</time></trkpt><trkpt lat="50.102234" lon="5.899548"><ele>488.043</ele><time>2022-09-17T15:57:27Z</time></trkpt><trkpt lat="50.102273" lon="5.899785"><ele>487.848</ele><time>2022-09-17T15:57:28Z</time></trkpt><trkpt lat="50.102313" lon="5.900025"><ele>487.773</ele><time>2022-09-17T15:57:29Z</time></trkpt><trkpt lat="50.102363" lon="5.900272"><ele>487.658</ele><time>2022-09-17T15:57:30Z</time></trkpt><trkpt lat="50.102411" lon="5.900509"><ele>487.612</ele><time>2022-09-17T15:57:31Z</time></trkpt><trkpt lat="50.102463" lon="5.900764"><ele>487.659</ele><time>2022-09-17T15:57:32Z</time></trkpt><trkpt lat="50.102516" lon="5.901018"><ele>487.499</ele><time>2022-09-17T15:57:33Z</time></trkpt><trkpt lat="50.102573" lon="5.901268"><ele>487.107</ele><time>2022-09-17T15:57:34Z</time></trkpt><trkpt lat="50.102629" lon="5.901514"><ele>486.727</ele><time>2022-09-17T15:57:35Z</time></trkpt><trkpt lat="50.102683" lon="5.901762"><ele>486.209</ele><time>2022-09-17T15:57:36Z</time></trkpt><trkpt lat="50.102732" lon="5.902007"><ele>485.890</ele><time>2022-09-17T15:57:37Z</time></trkpt><trkpt lat="50.102783" lon="5.902257"><ele>485.420</ele><time>2022-09-17T15:57:38Z</time></trkpt><trkpt lat="50.102833" lon="5.902506"><ele>485.162</ele><time>2022-09-17T15:57:39Z</time></trkpt><trkpt lat="50.102888" lon="5.902758"><ele>484.878</ele><time>2022-09-17T15:57:40Z</time></trkpt><trkpt lat="50.102944" lon="5.903009"><ele>484.473</ele><time>2022-09-17T15:57:41Z</time></trkpt><trkpt lat="50.103002" lon="5.903267"><ele>484.188</ele><time>2022-09-17T15:57:42Z</time></trkpt><trkpt lat="50.103058" lon="5.903521"><ele>483.943</ele><time>2022-09-17T15:57:43Z</time></trkpt><trkpt lat="50.103111" lon="5.903769"><ele>483.967</ele><time>2022-09-17T15:57:44Z</time></trkpt><trkpt lat="50.103163" lon="5.904008"><ele>483.984</ele><time>2022-09-17T15:57:45Z</time></trkpt><trkpt lat="50.103218" lon="5.904240"><ele>483.921</ele><time>2022-09-17T15:57:46Z</time></trkpt><trkpt lat="50.103271" lon="5.904464"><ele>483.841</ele><time>2022-09-17T15:57:47Z</time></trkpt><trkpt lat="50.103326" lon="5.904692"><ele>483.605</ele><time>2022-09-17T15:57:48Z</time></trkpt><trkpt lat="50.103383" lon="5.904927"><ele>483.109</ele><time>2022-09-17T15:57:49Z</time></trkpt><trkpt lat="50.103444" lon="5.905175"><ele>482.683</ele><time>2022-09-17T15:57:50Z</time></trkpt><trkpt lat="50.103497" lon="5.905390"><ele>482.373</ele><time>2022-09-17T15:57:51Z</time></trkpt><trkpt lat="50.103547" lon="5.905596"><ele>482.185</ele><time>2022-09-17T15:57:52Z</time></trkpt><trkpt lat="50.103590" lon="5.905768"><ele>482.051</ele><time>2022-09-17T15:57:53Z</time></trkpt><trkpt lat="50.103625" lon="5.905912"><ele>482.026</ele><time>2022-09-17T15:57:54Z</time></trkpt><trkpt lat="50.103659" lon="5.906050"><ele>481.811</ele><time>2022-09-17T15:57:55Z</time></trkpt><trkpt lat="50.103685" lon="5.906159"><ele>481.786</ele><time>2022-09-17T15:57:56Z</time></trkpt><trkpt lat="50.103712" lon="5.906270"><ele>481.290</ele><time>2022-09-17T15:57:57Z</time></trkpt><trkpt lat="50.103741" lon="5.906388"><ele>480.497</ele><time>2022-09-17T15:57:58Z</time></trkpt><trkpt lat="50.103779" lon="5.906527"><ele>479.738</ele><time>2022-09-17T15:57:59Z</time></trkpt><trkpt lat="50.103786" lon="5.906701"><ele>478.670</ele><time>2022-09-17T15:58:00Z</time></trkpt><trkpt lat="50.103788" lon="5.906896"><ele>478.317</ele><time>2022-09-17T15:58:01Z</time></trkpt><trkpt lat="50.103802" lon="5.907129"><ele>478.309</ele><time>2022-09-17T15:58:02Z</time></trkpt><trkpt lat="50.103815" lon="5.907360"><ele>478.244</ele><time>2022-09-17T15:58:03Z</time></trkpt><trkpt lat="50.103825" lon="5.907585"><ele>477.934</ele><time>2022-09-17T15:58:04Z</time></trkpt><trkpt lat="50.103838" lon="5.907816"><ele>477.486</ele><time>2022-09-17T15:58:05Z</time></trkpt><trkpt lat="50.103842" lon="5.908046"><ele>476.892</ele><time>2022-09-17T15:58:06Z</time></trkpt><trkpt lat="50.103855" lon="5.908283"><ele>476.297</ele><time>2022-09-17T15:58:07Z</time></trkpt><trkpt lat="50.103865" lon="5.908542"><ele>475.832</ele><time>2022-09-17T15:58:08Z</time></trkpt><trkpt lat="50.103872" lon="5.908786"><ele>475.587</ele><time>2022-09-17T15:58:09Z</time></trkpt><trkpt lat="50.103873" lon="5.909028"><ele>475.271</ele><time>2022-09-17T15:58:10Z</time></trkpt><trkpt lat="50.103874" lon="5.909269"><ele>474.788</ele><time>2022-09-17T15:58:11Z</time></trkpt><trkpt lat="50.103873" lon="5.909506"><ele>474.113</ele><time>2022-09-17T15:58:12Z</time></trkpt><trkpt lat="50.103867" lon="5.909735"><ele>473.543</ele><time>2022-09-17T15:58:13Z</time></trkpt><trkpt lat="50.103866" lon="5.909962"><ele>472.807</ele><time>2022-09-17T15:58:14Z</time></trkpt><trkpt lat="50.103859" lon="5.910186"><ele>472.209</ele><time>2022-09-17T15:58:15Z</time></trkpt><trkpt lat="50.103853" lon="5.910406"><ele>471.852</ele><time>2022-09-17T15:58:16Z</time></trkpt><trkpt lat="50.103838" lon="5.910617"><ele>471.532</ele><time>2022-09-17T15:58:17Z</time></trkpt><trkpt lat="50.103837" lon="5.910815"><ele>471.374</ele><time>2022-09-17T15:58:18Z</time></trkpt><trkpt lat="50.103827" lon="5.910979"><ele>471.210</ele><time>2022-09-17T15:58:19Z</time></trkpt><trkpt lat="50.103822" lon="5.911109"><ele>470.925</ele><time>2022-09-17T15:58:20Z</time></trkpt><trkpt lat="50.103801" lon="5.911221"><ele>470.740</ele><time>2022-09-17T15:58:21Z</time></trkpt><trkpt lat="50.103726" lon="5.911261"><ele>470.385</ele><time>2022-09-17T15:58:22Z</time></trkpt><trkpt lat="50.103652" lon="5.911363"><ele>470.039</ele><time>2022-09-17T15:58:23Z</time></trkpt><trkpt lat="50.103581" lon="5.911488"><ele>469.696</ele><time>2022-09-17T15:58:24Z</time></trkpt><trkpt lat="50.103496" lon="5.911630"><ele>469.417</ele><time>2022-09-17T15:58:25Z</time></trkpt><trkpt lat="50.103402" lon="5.911794"><ele>469.487</ele><time>2022-09-17T15:58:26Z</time></trkpt><trkpt lat="50.103293" lon="5.911953"><ele>469.415</ele><time>2022-09-17T15:58:27Z</time></trkpt><trkpt lat="50.103169" lon="5.912092"><ele>469.109</ele><time>2022-09-17T15:58:28Z</time></trkpt><trkpt lat="50.103056" lon="5.912255"><ele>468.622</ele><time>2022-09-17T15:58:29Z</time></trkpt><trkpt lat="50.102956" lon="5.912418"><ele>468.092</ele><time>2022-09-17T15:58:30Z</time></trkpt><trkpt lat="50.102859" lon="5.912570"><ele>467.284</ele><time>2022-09-17T15:58:31Z</time></trkpt><trkpt lat="50.102760" lon="5.912716"><ele>466.340</ele><time>2022-09-17T15:58:32Z</time></trkpt><trkpt lat="50.102653" lon="5.912853"><ele>465.535</ele><time>2022-09-17T15:58:33Z</time></trkpt><trkpt lat="50.102535" lon="5.912988"><ele>464.980</ele><time>2022-09-17T15:58:34Z</time></trkpt><trkpt lat="50.102414" lon="5.913107"><ele>464.355</ele><time>2022-09-17T15:58:35Z</time></trkpt><trkpt lat="50.102300" lon="5.913212"><ele>463.729</ele><time>2022-09-17T15:58:36Z</time></trkpt><trkpt lat="50.102190" lon="5.913312"><ele>463.476</ele><time>2022-09-17T15:58:37Z</time></trkpt><trkpt lat="50.102080" lon="5.913422"><ele>462.772</ele><time>2022-09-17T15:58:38Z</time></trkpt><trkpt lat="50.101983" lon="5.913553"><ele>461.913</ele><time>2022-09-17T15:58:39Z</time></trkpt><trkpt lat="50.101897" lon="5.913699"><ele>461.214</ele><time>2022-09-17T15:58:40Z</time></trkpt><trkpt lat="50.101811" lon="5.913861"><ele>460.709</ele><time>2022-09-17T15:58:41Z</time></trkpt><trkpt lat="50.101716" lon="5.914012"><ele>459.798</ele><time>2022-09-17T15:58:42Z</time></trkpt><trkpt lat="50.101642" lon="5.914202"><ele>459.188</ele><time>2022-09-17T15:58:43Z</time></trkpt><trkpt lat="50.101581" lon="5.914402"><ele>458.650</ele><time>2022-09-17T15:58:44Z</time></trkpt><trkpt lat="50.101531" lon="5.914608"><ele>458.086</ele><time>2022-09-17T15:58:45Z</time></trkpt><trkpt lat="50.101497" lon="5.914813"><ele>457.241</ele><time>2022-09-17T15:58:46Z</time></trkpt><trkpt lat="50.101470" lon="5.915007"><ele>456.896</ele><time>2022-09-17T15:58:47Z</time></trkpt><trkpt lat="50.101437" lon="5.915192"><ele>456.161</ele><time>2022-09-17T15:58:48Z</time></trkpt><trkpt lat="50.101397" lon="5.915393"><ele>455.525</ele><time>2022-09-17T15:58:49Z</time></trkpt><trkpt lat="50.101349" lon="5.915589"><ele>454.352</ele><time>2022-09-17T15:58:50Z</time></trkpt><trkpt lat="50.101303" lon="5.915778"><ele>453.952</ele><time>2022-09-17T15:58:51Z</time></trkpt><trkpt lat="50.101258" lon="5.915963"><ele>453.253</ele><time>2022-09-17T15:58:52Z</time></trkpt><trkpt lat="50.101213" lon="5.916141"><ele>452.508</ele><time>2022-09-17T15:58:53Z</time></trkpt><trkpt lat="50.101169" lon="5.916314"><ele>451.509</ele><time>2022-09-17T15:58:54Z</time></trkpt><trkpt lat="50.101112" lon="5.916481"><ele>450.746</ele><time>2022-09-17T15:58:55Z</time></trkpt><trkpt lat="50.101062" lon="5.916656"><ele>450.136</ele><time>2022-09-17T15:58:56Z</time></trkpt><trkpt lat="50.101014" lon="5.916839"><ele>449.588</ele><time>2022-09-17T15:58:57Z</time></trkpt><trkpt lat="50.100977" lon="5.917023"><ele>449.074</ele><time>2022-09-17T15:58:58Z</time></trkpt><trkpt lat="50.100949" lon="5.917202"><ele>448.649</ele><time>2022-09-17T15:58:59Z</time></trkpt><trkpt lat="50.100923" lon="5.917382"><ele>448.384</ele><time>2022-09-17T15:59:00Z</time></trkpt><trkpt lat="50.100903" lon="5.917559"><ele>448.069</ele><time>2022-09-17T15:59:01Z</time></trkpt><trkpt lat="50.100885" lon="5.917741"><ele>447.933</ele><time>2022-09-17T15:59:02Z</time></trkpt><trkpt lat="50.100866" lon="5.917931"><ele>447.990</ele><time>2022-09-17T15:59:03Z</time></trkpt><trkpt lat="50.100855" lon="5.918122"><ele>447.926</ele><time>2022-09-17T15:59:04Z</time></trkpt><trkpt lat="50.100849" lon="5.918300"><ele>447.847</ele><time>2022-09-17T15:59:05Z</time></trkpt><trkpt lat="50.100873" lon="5.918468"><ele>447.811</ele><time>2022-09-17T15:59:06Z</time></trkpt><trkpt lat="50.100840" lon="5.918636"><ele>447.509</ele><time>2022-09-17T15:59:07Z</time></trkpt><trkpt lat="50.100829" lon="5.918788"><ele>447.463</ele><time>2022-09-17T15:59:08Z</time></trkpt><trkpt lat="50.100814" lon="5.918938"><ele>447.243</ele><time>2022-09-17T15:59:09Z</time></trkpt><trkpt lat="50.100781" lon="5.919074"><ele>447.095</ele><time>2022-09-17T15:59:10Z</time></trkpt><trkpt lat="50.100758" lon="5.919211"><ele>446.761</ele><time>2022-09-17T15:59:11Z</time></trkpt><trkpt lat="50.100730" lon="5.919339"><ele>446.556</ele><time>2022-09-17T15:59:12Z</time></trkpt><trkpt lat="50.100705" lon="5.919458"><ele>446.471</ele><time>2022-09-17T15:59:13Z</time></trkpt><trkpt lat="50.100685" lon="5.919558"><ele>446.176</ele><time>2022-09-17T15:59:14Z</time></trkpt><trkpt lat="50.100670" lon="5.919635"><ele>445.950</ele><time>2022-09-17T15:59:15Z</time></trkpt><trkpt lat="50.100657" lon="5.919702"><ele>445.837</ele><time>2022-09-17T15:59:16Z</time></trkpt><trkpt lat="50.100637" lon="5.919812"><ele>445.664</ele><time>2022-09-17T15:59:18Z</time></trkpt><trkpt lat="50.100645" lon="5.919893"><ele>445.606</ele><time>2022-09-17T15:59:20Z</time></trkpt><trkpt lat="50.100705" lon="5.919914"><ele>445.516</ele><time>2022-09-17T15:59:22Z</time></trkpt><trkpt lat="50.100778" lon="5.919750"><ele>445.409</ele><time>2022-09-17T15:59:24Z</time></trkpt><trkpt lat="50.100800" lon="5.919635"><ele>445.667</ele><time>2022-09-17T15:59:25Z</time></trkpt><trkpt lat="50.100832" lon="5.919501"><ele>446.027</ele><time>2022-09-17T15:59:26Z</time></trkpt><trkpt lat="50.100875" lon="5.919367"><ele>446.359</ele><time>2022-09-17T15:59:27Z</time></trkpt><trkpt lat="50.100941" lon="5.919254"><ele>447.125</ele><time>2022-09-17T15:59:28Z</time></trkpt><trkpt lat="50.101018" lon="5.919160"><ele>447.980</ele><time>2022-09-17T15:59:29Z</time></trkpt><trkpt lat="50.101110" lon="5.919116"><ele>448.725</ele><time>2022-09-17T15:59:30Z</time></trkpt><trkpt lat="50.101205" lon="5.919100"><ele>449.340</ele><time>2022-09-17T15:59:31Z</time></trkpt><trkpt lat="50.101303" lon="5.919129"><ele>450.094</ele><time>2022-09-17T15:59:32Z</time></trkpt><trkpt lat="50.101390" lon="5.919187"><ele>450.821</ele><time>2022-09-17T15:59:33Z</time></trkpt><trkpt lat="50.101457" lon="5.919294"><ele>451.512</ele><time>2022-09-17T15:59:34Z</time></trkpt><trkpt lat="50.101528" lon="5.919411"><ele>452.332</ele><time>2022-09-17T15:59:35Z</time></trkpt><trkpt lat="50.101607" lon="5.919540"><ele>453.305</ele><time>2022-09-17T15:59:36Z</time></trkpt><trkpt lat="50.101692" lon="5.919662"><ele>454.109</ele><time>2022-09-17T15:59:37Z</time></trkpt><trkpt lat="50.101790" lon="5.919760"><ele>454.972</ele><time>2022-09-17T15:59:38Z</time></trkpt><trkpt lat="50.101858" lon="5.919897"><ele>455.562</ele><time>2022-09-17T15:59:39Z</time></trkpt><trkpt lat="50.101954" lon="5.920003"><ele>456.034</ele><time>2022-09-17T15:59:40Z</time></trkpt><trkpt lat="50.102045" lon="5.920113"><ele>456.450</ele><time>2022-09-17T15:59:41Z</time></trkpt><trkpt lat="50.102130" lon="5.920229"><ele>456.945</ele><time>2022-09-17T15:59:42Z</time></trkpt><trkpt lat="50.102206" lon="5.920354"><ele>457.470</ele><time>2022-09-17T15:59:43Z</time></trkpt><trkpt lat="50.102235" lon="5.920498"><ele>458.245</ele><time>2022-09-17T15:59:44Z</time></trkpt><trkpt lat="50.102299" lon="5.920653"><ele>458.749</ele><time>2022-09-17T15:59:45Z</time></trkpt><trkpt lat="50.102362" lon="5.920815"><ele>459.326</ele><time>2022-09-17T15:59:46Z</time></trkpt><trkpt lat="50.102423" lon="5.920969"><ele>459.971</ele><time>2022-09-17T15:59:47Z</time></trkpt><trkpt lat="50.102482" lon="5.921120"><ele>460.641</ele><time>2022-09-17T15:59:48Z</time></trkpt><trkpt lat="50.102545" lon="5.921278"><ele>461.115</ele><time>2022-09-17T15:59:49Z</time></trkpt><trkpt lat="50.102614" lon="5.921452"><ele>461.809</ele><time>2022-09-17T15:59:50Z</time></trkpt><trkpt lat="50.102677" lon="5.921610"><ele>462.538</ele><time>2022-09-17T15:59:51Z</time></trkpt><trkpt lat="50.102750" lon="5.921773"><ele>463.248</ele><time>2022-09-17T15:59:52Z</time></trkpt><trkpt lat="50.102839" lon="5.921903"><ele>464.020</ele><time>2022-09-17T15:59:53Z</time></trkpt><trkpt lat="50.102943" lon="5.922028"><ele>464.746</ele><time>2022-09-17T15:59:54Z</time></trkpt><trkpt lat="50.103053" lon="5.922142"><ele>465.711</ele><time>2022-09-17T15:59:55Z</time></trkpt><trkpt lat="50.103164" lon="5.922252"><ele>466.546</ele><time>2022-09-17T15:59:56Z</time></trkpt><trkpt lat="50.103272" lon="5.922357"><ele>467.321</ele><time>2022-09-17T15:59:57Z</time></trkpt><trkpt lat="50.103383" lon="5.922466"><ele>467.875</ele><time>2022-09-17T15:59:58Z</time></trkpt><trkpt lat="50.103482" lon="5.922571"><ele>468.582</ele><time>2022-09-17T15:59:59Z</time></trkpt><trkpt lat="50.103582" lon="5.922660"><ele>468.785</ele><time>2022-09-17T16:00:00Z</time></trkpt><trkpt lat="50.103684" lon="5.922735"><ele>469.089</ele><time>2022-09-17T16:00:01Z</time></trkpt><trkpt lat="50.103791" lon="5.922807"><ele>469.117</ele><time>2022-09-17T16:00:02Z</time></trkpt><trkpt lat="50.103902" lon="5.922876"><ele>469.309</ele><time>2022-09-17T16:00:03Z</time></trkpt><trkpt lat="50.104008" lon="5.922937"><ele>469.479</ele><time>2022-09-17T16:00:04Z</time></trkpt><trkpt lat="50.104099" lon="5.922994"><ele>469.429</ele><time>2022-09-17T16:00:05Z</time></trkpt><trkpt lat="50.104171" lon="5.923032"><ele>469.641</ele><time>2022-09-17T16:00:06Z</time></trkpt><trkpt lat="50.104232" lon="5.923067"><ele>469.667</ele><time>2022-09-17T16:00:07Z</time></trkpt><trkpt lat="50.104305" lon="5.923096"><ele>469.682</ele><time>2022-09-17T16:00:09Z</time></trkpt><trkpt lat="50.104374" lon="5.923115"><ele>469.437</ele><time>2022-09-17T16:00:19Z</time></trkpt><trkpt lat="50.104455" lon="5.923104"><ele>468.882</ele><time>2022-09-17T16:00:21Z</time></trkpt><trkpt lat="50.104492" lon="5.923039"><ele>468.366</ele><time>2022-09-17T16:00:22Z</time></trkpt><trkpt lat="50.104509" lon="5.922941"><ele>468.213</ele><time>2022-09-17T16:00:23Z</time></trkpt><trkpt lat="50.104518" lon="5.922821"><ele>468.193</ele><time>2022-09-17T16:00:24Z</time></trkpt><trkpt lat="50.104535" lon="5.922679"><ele>468.065</ele><time>2022-09-17T16:00:25Z</time></trkpt><trkpt lat="50.104544" lon="5.922528"><ele>468.021</ele><time>2022-09-17T16:00:26Z</time></trkpt><trkpt lat="50.104562" lon="5.922353"><ele>468.409</ele><time>2022-09-17T16:00:27Z</time></trkpt><trkpt lat="50.104580" lon="5.922191"><ele>468.990</ele><time>2022-09-17T16:00:28Z</time></trkpt><trkpt lat="50.104594" lon="5.922048"><ele>469.540</ele><time>2022-09-17T16:00:29Z</time></trkpt><trkpt lat="50.104613" lon="5.921921"><ele>470.112</ele><time>2022-09-17T16:00:30Z</time></trkpt><trkpt lat="50.104627" lon="5.921817"><ele>470.198</ele><time>2022-09-17T16:00:31Z</time></trkpt><trkpt lat="50.104639" lon="5.921731"><ele>470.193</ele><time>2022-09-17T16:00:32Z</time></trkpt><trkpt lat="50.104652" lon="5.921660"><ele>470.168</ele><time>2022-09-17T16:00:33Z</time></trkpt><trkpt lat="50.104673" lon="5.921553"><ele>469.963</ele><time>2022-09-17T16:00:35Z</time></trkpt><trkpt lat="50.104705" lon="5.921475"><ele>469.547</ele><time>2022-09-17T16:00:37Z</time></trkpt><trkpt lat="50.104716" lon="5.921549"><ele>469.524</ele><time>2022-09-17T16:02:34Z</time></trkpt><trkpt lat="50.104760" lon="5.921473"><ele>469.579</ele><time>2022-09-17T16:02:51Z</time></trkpt><trkpt lat="50.104727" lon="5.921534"><ele>470.105</ele><time>2022-09-17T16:04:57Z</time></trkpt><trkpt lat="50.104776" lon="5.921478"><ele>470.225</ele><time>2022-09-17T16:05:47Z</time></trkpt><trkpt lat="50.104816" lon="5.921375"><ele>470.209</ele><time>2022-09-17T16:07:18Z</time></trkpt><trkpt lat="50.104761" lon="5.921370"><ele>470.298</ele><time>2022-09-17T16:07:27Z</time></trkpt><trkpt lat="50.104704" lon="5.921341"><ele>470.238</ele><time>2022-09-17T16:07:40Z</time></trkpt><trkpt lat="50.104753" lon="5.921378"><ele>470.270</ele><time>2022-09-17T16:07:57Z</time></trkpt><trkpt lat="50.104665" lon="5.921433"><ele>470.186</ele><time>2022-09-17T16:08:19Z</time></trkpt><trkpt lat="50.104714" lon="5.921466"><ele>470.081</ele><time>2022-09-17T16:08:28Z</time></trkpt><trkpt lat="50.104758" lon="5.921447"><ele>469.926</ele><time>2022-09-17T16:08:36Z</time></trkpt><trkpt lat="50.104831" lon="5.921446"><ele>469.841</ele><time>2022-09-17T16:08:42Z</time></trkpt><trkpt lat="50.104841" lon="5.921314"><ele>469.855</ele><time>2022-09-17T16:08:47Z</time></trkpt><trkpt lat="50.104898" lon="5.921241"><ele>469.812</ele><time>2022-09-17T16:08:49Z</time></trkpt><trkpt lat="50.104877" lon="5.921179"><ele>469.913</ele><time>2022-09-17T16:08:52Z</time></trkpt><trkpt lat="50.104900" lon="5.921087"><ele>469.943</ele><time>2022-09-17T16:09:13Z</time></trkpt><trkpt lat="50.104949" lon="5.921067"><ele>469.907</ele><time>2022-09-17T16:11:13Z</time></trkpt><trkpt lat="50.104931" lon="5.920998"><ele>469.909</ele><time>2022-09-17T16:11:16Z</time></trkpt><trkpt lat="50.104909" lon="5.920890"><ele>469.952</ele><time>2022-09-17T16:11:50Z</time></trkpt><trkpt lat="50.104864" lon="5.920894"><ele>469.832</ele><time>2022-09-17T16:12:09Z</time></trkpt><trkpt lat="50.104806" lon="5.920879"><ele>469.664</ele><time>2022-09-17T16:12:11Z</time></trkpt><trkpt lat="50.104733" lon="5.920914"><ele>469.610</ele><time>2022-09-17T16:12:14Z</time></trkpt><trkpt lat="50.104702" lon="5.921055"><ele>469.595</ele><time>2022-09-17T16:12:16Z</time></trkpt><trkpt lat="50.104700" lon="5.921129"><ele>469.440</ele><time>2022-09-17T16:12:17Z</time></trkpt><trkpt lat="50.104697" lon="5.921202"><ele>469.445</ele><time>2022-09-17T16:12:18Z</time></trkpt><trkpt lat="50.104679" lon="5.921296"><ele>469.429</ele><time>2022-09-17T16:12:19Z</time></trkpt><trkpt lat="50.104662" lon="5.921375"><ele>469.466</ele><time>2022-09-17T16:12:20Z</time></trkpt><trkpt lat="50.104650" lon="5.921487"><ele>469.425</ele><time>2022-09-17T16:12:22Z</time></trkpt><trkpt lat="50.104598" lon="5.921516"><ele>469.426</ele><time>2022-09-17T16:12:24Z</time></trkpt><trkpt lat="50.104588" lon="5.921588"><ele>469.208</ele><time>2022-09-17T16:12:26Z</time></trkpt><trkpt lat="50.104597" lon="5.921678"><ele>469.009</ele><time>2022-09-17T16:13:19Z</time></trkpt><trkpt lat="50.104590" lon="5.921826"><ele>469.013</ele><time>2022-09-17T16:13:21Z</time></trkpt><trkpt lat="50.104578" lon="5.921944"><ele>469.023</ele><time>2022-09-17T16:13:22Z</time></trkpt><trkpt lat="50.104567" lon="5.922067"><ele>469.095</ele><time>2022-09-17T16:13:23Z</time></trkpt><trkpt lat="50.104499" lon="5.922181"><ele>469.091</ele><time>2022-09-17T16:13:24Z</time></trkpt><trkpt lat="50.104485" lon="5.922313"><ele>469.096</ele><time>2022-09-17T16:13:25Z</time></trkpt><trkpt lat="50.104470" lon="5.922459"><ele>469.051</ele><time>2022-09-17T16:13:26Z</time></trkpt><trkpt lat="50.104456" lon="5.922585"><ele>468.916</ele><time>2022-09-17T16:13:27Z</time></trkpt><trkpt lat="50.104443" lon="5.922698"><ele>468.760</ele><time>2022-09-17T16:13:28Z</time></trkpt><trkpt lat="50.104431" lon="5.922804"><ele>468.567</ele><time>2022-09-17T16:13:29Z</time></trkpt><trkpt lat="50.104422" lon="5.922881"><ele>468.376</ele><time>2022-09-17T16:13:30Z</time></trkpt><trkpt lat="50.104413" lon="5.922961"><ele>468.290</ele><time>2022-09-17T16:13:31Z</time></trkpt><trkpt lat="50.104402" lon="5.923054"><ele>467.919</ele><time>2022-09-17T16:13:33Z</time></trkpt><trkpt lat="50.104387" lon="5.923182"><ele>467.809</ele><time>2022-09-17T16:13:35Z</time></trkpt><trkpt lat="50.104383" lon="5.923281"><ele>467.448</ele><time>2022-09-17T16:13:36Z</time></trkpt><trkpt lat="50.104376" lon="5.923405"><ele>467.118</ele><time>2022-09-17T16:13:37Z</time></trkpt><trkpt lat="50.104368" lon="5.923548"><ele>467.060</ele><time>2022-09-17T16:13:38Z</time></trkpt><trkpt lat="50.104356" lon="5.923714"><ele>467.036</ele><time>2022-09-17T16:13:39Z</time></trkpt><trkpt lat="50.104342" lon="5.923914"><ele>467.231</ele><time>2022-09-17T16:13:40Z</time></trkpt><trkpt lat="50.104329" lon="5.924101"><ele>467.636</ele><time>2022-09-17T16:13:41Z</time></trkpt><trkpt lat="50.104316" lon="5.924278"><ele>468.091</ele><time>2022-09-17T16:13:42Z</time></trkpt><trkpt lat="50.104304" lon="5.924454"><ele>468.145</ele><time>2022-09-17T16:13:43Z</time></trkpt><trkpt lat="50.104291" lon="5.924622"><ele>468.222</ele><time>2022-09-17T16:13:44Z</time></trkpt><trkpt lat="50.104273" lon="5.924787"><ele>468.223</ele><time>2022-09-17T16:13:45Z</time></trkpt><trkpt lat="50.104251" lon="5.924967"><ele>467.883</ele><time>2022-09-17T16:13:46Z</time></trkpt><trkpt lat="50.104226" lon="5.925150"><ele>467.411</ele><time>2022-09-17T16:13:47Z</time></trkpt><trkpt lat="50.104188" lon="5.925346"><ele>467.209</ele><time>2022-09-17T16:13:48Z</time></trkpt><trkpt lat="50.104143" lon="5.925576"><ele>466.693</ele><time>2022-09-17T16:13:49Z</time></trkpt><trkpt lat="50.104094" lon="5.925786"><ele>466.233</ele><time>2022-09-17T16:13:50Z</time></trkpt><trkpt lat="50.104037" lon="5.926014"><ele>465.865</ele><time>2022-09-17T16:13:51Z</time></trkpt><trkpt lat="50.103978" lon="5.926247"><ele>465.391</ele><time>2022-09-17T16:13:52Z</time></trkpt><trkpt lat="50.103912" lon="5.926488"><ele>464.736</ele><time>2022-09-17T16:13:53Z</time></trkpt><trkpt lat="50.103848" lon="5.926707"><ele>464.051</ele><time>2022-09-17T16:13:54Z</time></trkpt><trkpt lat="50.103778" lon="5.926921"><ele>463.266</ele><time>2022-09-17T16:13:55Z</time></trkpt><trkpt lat="50.103712" lon="5.927134"><ele>462.230</ele><time>2022-09-17T16:13:56Z</time></trkpt><trkpt lat="50.103637" lon="5.927342"><ele>461.287</ele><time>2022-09-17T16:13:57Z</time></trkpt><trkpt lat="50.103562" lon="5.927540"><ele>460.243</ele><time>2022-09-17T16:13:58Z</time></trkpt><trkpt lat="50.103483" lon="5.927728"><ele>459.064</ele><time>2022-09-17T16:13:59Z</time></trkpt><trkpt lat="50.103404" lon="5.927926"><ele>457.810</ele><time>2022-09-17T16:14:00Z</time></trkpt><trkpt lat="50.103340" lon="5.928115"><ele>456.709</ele><time>2022-09-17T16:14:01Z</time></trkpt><trkpt lat="50.103285" lon="5.928344"><ele>455.575</ele><time>2022-09-17T16:14:02Z</time></trkpt><trkpt lat="50.103257" lon="5.928576"><ele>454.295</ele><time>2022-09-17T16:14:03Z</time></trkpt><trkpt lat="50.103259" lon="5.928825"><ele>453.157</ele><time>2022-09-17T16:14:04Z</time></trkpt><trkpt lat="50.103273" lon="5.929065"><ele>452.153</ele><time>2022-09-17T16:14:05Z</time></trkpt><trkpt lat="50.103294" lon="5.929308"><ele>451.068</ele><time>2022-09-17T16:14:06Z</time></trkpt><trkpt lat="50.103305" lon="5.929562"><ele>450.243</ele><time>2022-09-17T16:14:07Z</time></trkpt><trkpt lat="50.103315" lon="5.929831"><ele>449.728</ele><time>2022-09-17T16:14:08Z</time></trkpt><trkpt lat="50.103317" lon="5.930095"><ele>449.392</ele><time>2022-09-17T16:14:09Z</time></trkpt><trkpt lat="50.103322" lon="5.930377"><ele>448.989</ele><time>2022-09-17T16:14:10Z</time></trkpt><trkpt lat="50.103321" lon="5.930659"><ele>448.685</ele><time>2022-09-17T16:14:11Z</time></trkpt><trkpt lat="50.103317" lon="5.930945"><ele>448.289</ele><time>2022-09-17T16:14:12Z</time></trkpt><trkpt lat="50.103311" lon="5.931235"><ele>447.517</ele><time>2022-09-17T16:14:13Z</time></trkpt><trkpt lat="50.103305" lon="5.931521"><ele>446.509</ele><time>2022-09-17T16:14:14Z</time></trkpt><trkpt lat="50.103297" lon="5.931790"><ele>445.429</ele><time>2022-09-17T16:14:15Z</time></trkpt><trkpt lat="50.103287" lon="5.932052"><ele>444.139</ele><time>2022-09-17T16:14:16Z</time></trkpt><trkpt lat="50.103278" lon="5.932293"><ele>442.131</ele><time>2022-09-17T16:14:17Z</time></trkpt><trkpt lat="50.103269" lon="5.932541"><ele>440.167</ele><time>2022-09-17T16:14:18Z</time></trkpt><trkpt lat="50.103264" lon="5.932781"><ele>438.662</ele><time>2022-09-17T16:14:19Z</time></trkpt><trkpt lat="50.103266" lon="5.933019"><ele>437.237</ele><time>2022-09-17T16:14:20Z</time></trkpt><trkpt lat="50.103293" lon="5.933266"><ele>436.292</ele><time>2022-09-17T16:14:21Z</time></trkpt><trkpt lat="50.103345" lon="5.933470"><ele>435.826</ele><time>2022-09-17T16:14:22Z</time></trkpt><trkpt lat="50.103412" lon="5.933651"><ele>435.693</ele><time>2022-09-17T16:14:23Z</time></trkpt><trkpt lat="50.103496" lon="5.933811"><ele>435.537</ele><time>2022-09-17T16:14:24Z</time></trkpt><trkpt lat="50.103589" lon="5.933990"><ele>435.049</ele><time>2022-09-17T16:14:25Z</time></trkpt><trkpt lat="50.103673" lon="5.934155"><ele>435.013</ele><time>2022-09-17T16:14:26Z</time></trkpt><trkpt lat="50.103737" lon="5.934356"><ele>435.009</ele><time>2022-09-17T16:14:27Z</time></trkpt><trkpt lat="50.103788" lon="5.934583"><ele>435.134</ele><time>2022-09-17T16:14:28Z</time></trkpt><trkpt lat="50.103822" lon="5.934823"><ele>435.614</ele><time>2022-09-17T16:14:29Z</time></trkpt><trkpt lat="50.103875" lon="5.935097"><ele>436.666</ele><time>2022-09-17T16:14:30Z</time></trkpt><trkpt lat="50.103917" lon="5.935359"><ele>437.852</ele><time>2022-09-17T16:14:31Z</time></trkpt><trkpt lat="50.103950" lon="5.935638"><ele>439.347</ele><time>2022-09-17T16:14:32Z</time></trkpt><trkpt lat="50.103975" lon="5.935912"><ele>441.112</ele><time>2022-09-17T16:14:33Z</time></trkpt><trkpt lat="50.103993" lon="5.936188"><ele>442.867</ele><time>2022-09-17T16:14:34Z</time></trkpt><trkpt lat="50.104012" lon="5.936460"><ele>444.121</ele><time>2022-09-17T16:14:35Z</time></trkpt><trkpt lat="50.104034" lon="5.936726"><ele>445.118</ele><time>2022-09-17T16:14:36Z</time></trkpt><trkpt lat="50.104051" lon="5.936987"><ele>445.952</ele><time>2022-09-17T16:14:37Z</time></trkpt><trkpt lat="50.104057" lon="5.937248"><ele>446.553</ele><time>2022-09-17T16:14:38Z</time></trkpt><trkpt lat="50.104074" lon="5.937498"><ele>447.008</ele><time>2022-09-17T16:14:39Z</time></trkpt><trkpt lat="50.104085" lon="5.937756"><ele>447.709</ele><time>2022-09-17T16:14:40Z</time></trkpt><trkpt lat="50.104069" lon="5.938010"><ele>448.686</ele><time>2022-09-17T16:14:41Z</time></trkpt><trkpt lat="50.104065" lon="5.938254"><ele>449.466</ele><time>2022-09-17T16:14:42Z</time></trkpt><trkpt lat="50.104055" lon="5.938482"><ele>450.198</ele><time>2022-09-17T16:14:43Z</time></trkpt><trkpt lat="50.104040" lon="5.938712"><ele>450.874</ele><time>2022-09-17T16:14:44Z</time></trkpt><trkpt lat="50.104019" lon="5.938927"><ele>451.349</ele><time>2022-09-17T16:14:45Z</time></trkpt><trkpt lat="50.103993" lon="5.939154"><ele>451.764</ele><time>2022-09-17T16:14:46Z</time></trkpt><trkpt lat="50.103979" lon="5.939381"><ele>452.189</ele><time>2022-09-17T16:14:47Z</time></trkpt><trkpt lat="50.103941" lon="5.939603"><ele>452.463</ele><time>2022-09-17T16:14:48Z</time></trkpt><trkpt lat="50.103922" lon="5.939829"><ele>452.660</ele><time>2022-09-17T16:14:49Z</time></trkpt><trkpt lat="50.103892" lon="5.940062"><ele>453.039</ele><time>2022-09-17T16:14:50Z</time></trkpt><trkpt lat="50.103881" lon="5.940315"><ele>453.601</ele><time>2022-09-17T16:14:51Z</time></trkpt><trkpt lat="50.103857" lon="5.940562"><ele>454.321</ele><time>2022-09-17T16:14:52Z</time></trkpt><trkpt lat="50.103861" lon="5.940818"><ele>455.109</ele><time>2022-09-17T16:14:53Z</time></trkpt><trkpt lat="50.103876" lon="5.941067"><ele>456.014</ele><time>2022-09-17T16:14:54Z</time></trkpt><trkpt lat="50.103894" lon="5.941307"><ele>456.734</ele><time>2022-09-17T16:14:55Z</time></trkpt><trkpt lat="50.103919" lon="5.941548"><ele>457.236</ele><time>2022-09-17T16:14:56Z</time></trkpt><trkpt lat="50.103956" lon="5.941788"><ele>457.662</ele><time>2022-09-17T16:14:57Z</time></trkpt><trkpt lat="50.104004" lon="5.942013"><ele>458.077</ele><time>2022-09-17T16:14:58Z</time></trkpt><trkpt lat="50.104075" lon="5.942229"><ele>458.392</ele><time>2022-09-17T16:14:59Z</time></trkpt><trkpt lat="50.104136" lon="5.942416"><ele>458.657</ele><time>2022-09-17T16:15:00Z</time></trkpt><trkpt lat="50.104193" lon="5.942587"><ele>458.751</ele><time>2022-09-17T16:15:01Z</time></trkpt><trkpt lat="50.104229" lon="5.942743"><ele>458.858</ele><time>2022-09-17T16:15:02Z</time></trkpt><trkpt lat="50.104229" lon="5.942874"><ele>459.116</ele><time>2022-09-17T16:15:03Z</time></trkpt><trkpt lat="50.104220" lon="5.943008"><ele>459.176</ele><time>2022-09-17T16:15:04Z</time></trkpt><trkpt lat="50.104184" lon="5.943110"><ele>459.013</ele><time>2022-09-17T16:15:05Z</time></trkpt><trkpt lat="50.104143" lon="5.943180"><ele>458.909</ele><time>2022-09-17T16:15:06Z</time></trkpt><trkpt lat="50.104089" lon="5.943277"><ele>458.862</ele><time>2022-09-17T16:15:07Z</time></trkpt><trkpt lat="50.104026" lon="5.943328"><ele>458.672</ele><time>2022-09-17T16:15:08Z</time></trkpt><trkpt lat="50.103947" lon="5.943410"><ele>458.574</ele><time>2022-09-17T16:15:09Z</time></trkpt><trkpt lat="50.103857" lon="5.943483"><ele>458.530</ele><time>2022-09-17T16:15:10Z</time></trkpt><trkpt lat="50.103747" lon="5.943572"><ele>458.715</ele><time>2022-09-17T16:15:11Z</time></trkpt><trkpt lat="50.103652" lon="5.943650"><ele>459.010</ele><time>2022-09-17T16:15:12Z</time></trkpt><trkpt lat="50.103562" lon="5.943725"><ele>459.465</ele><time>2022-09-17T16:15:13Z</time></trkpt><trkpt lat="50.103480" lon="5.943793"><ele>459.449</ele><time>2022-09-17T16:15:14Z</time></trkpt><trkpt lat="50.103407" lon="5.943872"><ele>459.566</ele><time>2022-09-17T16:15:15Z</time></trkpt><trkpt lat="50.103350" lon="5.943933"><ele>459.585</ele><time>2022-09-17T16:15:16Z</time></trkpt><trkpt lat="50.103310" lon="5.943994"><ele>459.589</ele><time>2022-09-17T16:15:17Z</time></trkpt><trkpt lat="50.103232" lon="5.943935"><ele>459.417</ele><time>2022-09-17T16:15:19Z</time></trkpt><trkpt lat="50.103208" lon="5.943846"><ele>459.209</ele><time>2022-09-17T16:15:20Z</time></trkpt><trkpt lat="50.103195" lon="5.943716"><ele>458.989</ele><time>2022-09-17T16:15:21Z</time></trkpt><trkpt lat="50.103168" lon="5.943572"><ele>458.829</ele><time>2022-09-17T16:15:22Z</time></trkpt><trkpt lat="50.103128" lon="5.943390"><ele>458.721</ele><time>2022-09-17T16:15:23Z</time></trkpt><trkpt lat="50.103079" lon="5.943208"><ele>458.637</ele><time>2022-09-17T16:15:24Z</time></trkpt><trkpt lat="50.103018" lon="5.943037"><ele>458.662</ele><time>2022-09-17T16:15:25Z</time></trkpt><trkpt lat="50.102946" lon="5.942891"><ele>458.187</ele><time>2022-09-17T16:15:26Z</time></trkpt><trkpt lat="50.102886" lon="5.942717"><ele>457.282</ele><time>2022-09-17T16:15:27Z</time></trkpt><trkpt lat="50.102793" lon="5.942568"><ele>456.476</ele><time>2022-09-17T16:15:28Z</time></trkpt><trkpt lat="50.102685" lon="5.942433"><ele>455.333</ele><time>2022-09-17T16:15:29Z</time></trkpt><trkpt lat="50.102567" lon="5.942304"><ele>454.721</ele><time>2022-09-17T16:15:30Z</time></trkpt><trkpt lat="50.102450" lon="5.942178"><ele>454.441</ele><time>2022-09-17T16:15:31Z</time></trkpt><trkpt lat="50.102341" lon="5.942058"><ele>453.905</ele><time>2022-09-17T16:15:32Z</time></trkpt><trkpt lat="50.102233" lon="5.941940"><ele>453.509</ele><time>2022-09-17T16:15:33Z</time></trkpt><trkpt lat="50.102130" lon="5.941830"><ele>452.593</ele><time>2022-09-17T16:15:34Z</time></trkpt><trkpt lat="50.102008" lon="5.941721"><ele>451.243</ele><time>2022-09-17T16:15:35Z</time></trkpt><trkpt lat="50.101873" lon="5.941640"><ele>448.855</ele><time>2022-09-17T16:15:36Z</time></trkpt><trkpt lat="50.101723" lon="5.941584"><ele>447.251</ele><time>2022-09-17T16:15:37Z</time></trkpt><trkpt lat="50.101575" lon="5.941543"><ele>445.686</ele><time>2022-09-17T16:15:38Z</time></trkpt><trkpt lat="50.101439" lon="5.941509"><ele>444.291</ele><time>2022-09-17T16:15:39Z</time></trkpt><trkpt lat="50.101277" lon="5.941479"><ele>443.046</ele><time>2022-09-17T16:15:40Z</time></trkpt><trkpt lat="50.101123" lon="5.941499"><ele>441.890</ele><time>2022-09-17T16:15:41Z</time></trkpt><trkpt lat="50.100945" lon="5.941612"><ele>440.527</ele><time>2022-09-17T16:15:42Z</time></trkpt><trkpt lat="50.100812" lon="5.941733"><ele>439.336</ele><time>2022-09-17T16:15:43Z</time></trkpt><trkpt lat="50.100678" lon="5.941852"><ele>438.017</ele><time>2022-09-17T16:15:44Z</time></trkpt><trkpt lat="50.100538" lon="5.941975"><ele>436.618</ele><time>2022-09-17T16:15:45Z</time></trkpt><trkpt lat="50.100402" lon="5.942097"><ele>435.409</ele><time>2022-09-17T16:15:46Z</time></trkpt><trkpt lat="50.100262" lon="5.942219"><ele>434.554</ele><time>2022-09-17T16:15:47Z</time></trkpt><trkpt lat="50.100127" lon="5.942334"><ele>433.884</ele><time>2022-09-17T16:15:48Z</time></trkpt><trkpt lat="50.100000" lon="5.942441"><ele>433.076</ele><time>2022-09-17T16:15:49Z</time></trkpt><trkpt lat="50.099887" lon="5.942522"><ele>432.662</ele><time>2022-09-17T16:15:50Z</time></trkpt><trkpt lat="50.099788" lon="5.942592"><ele>431.857</ele><time>2022-09-17T16:15:51Z</time></trkpt><trkpt lat="50.099691" lon="5.942660"><ele>430.832</ele><time>2022-09-17T16:15:52Z</time></trkpt><trkpt lat="50.099606" lon="5.942719"><ele>429.867</ele><time>2022-09-17T16:15:53Z</time></trkpt><trkpt lat="50.099516" lon="5.942760"><ele>428.761</ele><time>2022-09-17T16:15:54Z</time></trkpt><trkpt lat="50.099418" lon="5.942809"><ele>427.928</ele><time>2022-09-17T16:15:55Z</time></trkpt><trkpt lat="50.099303" lon="5.942823"><ele>427.593</ele><time>2022-09-17T16:15:56Z</time></trkpt><trkpt lat="50.099193" lon="5.942869"><ele>427.365</ele><time>2022-09-17T16:15:57Z</time></trkpt><trkpt lat="50.099094" lon="5.942937"><ele>426.621</ele><time>2022-09-17T16:15:58Z</time></trkpt><trkpt lat="50.098979" lon="5.943007"><ele>426.109</ele><time>2022-09-17T16:15:59Z</time></trkpt><trkpt lat="50.098877" lon="5.943068"><ele>425.530</ele><time>2022-09-17T16:16:00Z</time></trkpt><trkpt lat="50.098771" lon="5.943132"><ele>424.370</ele><time>2022-09-17T16:16:01Z</time></trkpt><trkpt lat="50.098680" lon="5.943187"><ele>423.172</ele><time>2022-09-17T16:16:02Z</time></trkpt><trkpt lat="50.098611" lon="5.943229"><ele>423.158</ele><time>2022-09-17T16:16:03Z</time></trkpt><trkpt lat="50.098547" lon="5.943269"><ele>423.333</ele><time>2022-09-17T16:16:04Z</time></trkpt><trkpt lat="50.098481" lon="5.943311"><ele>423.798</ele><time>2022-09-17T16:16:05Z</time></trkpt><trkpt lat="50.098416" lon="5.943351"><ele>424.483</ele><time>2022-09-17T16:16:06Z</time></trkpt><trkpt lat="50.098358" lon="5.943387"><ele>425.377</ele><time>2022-09-17T16:16:07Z</time></trkpt><trkpt lat="50.098303" lon="5.943422"><ele>425.274</ele><time>2022-09-17T16:16:08Z</time></trkpt><trkpt lat="50.098256" lon="5.943452"><ele>425.291</ele><time>2022-09-17T16:16:09Z</time></trkpt><trkpt lat="50.098210" lon="5.943476"><ele>425.281</ele><time>2022-09-17T16:16:10Z</time></trkpt><trkpt lat="50.098163" lon="5.943506"><ele>424.219</ele><time>2022-09-17T16:16:11Z</time></trkpt><trkpt lat="50.098121" lon="5.943533"><ele>423.709</ele><time>2022-09-17T16:16:12Z</time></trkpt><trkpt lat="50.098078" lon="5.943560"><ele>422.930</ele><time>2022-09-17T16:16:13Z</time></trkpt><trkpt lat="50.098007" lon="5.943604"><ele>422.480</ele><time>2022-09-17T16:16:15Z</time></trkpt><trkpt lat="50.097965" lon="5.943629"><ele>421.982</ele><time>2022-09-17T16:16:16Z</time></trkpt><trkpt lat="50.097922" lon="5.943655"><ele>421.728</ele><time>2022-09-17T16:16:17Z</time></trkpt><trkpt lat="50.097879" lon="5.943680"><ele>421.683</ele><time>2022-09-17T16:16:18Z</time></trkpt><trkpt lat="50.097832" lon="5.943686"><ele>421.378</ele><time>2022-09-17T16:16:19Z</time></trkpt><trkpt lat="50.097777" lon="5.943692"><ele>421.023</ele><time>2022-09-17T16:16:20Z</time></trkpt><trkpt lat="50.097716" lon="5.943696"><ele>420.797</ele><time>2022-09-17T16:16:21Z</time></trkpt><trkpt lat="50.097659" lon="5.943696"><ele>420.534</ele><time>2022-09-17T16:16:22Z</time></trkpt><trkpt lat="50.097318" lon="5.942699"><ele>419.934</ele><time>2022-09-17T16:16:23Z</time></trkpt><trkpt lat="50.097212" lon="5.942627"><ele>419.855</ele><time>2022-09-17T16:16:24Z</time></trkpt><trkpt lat="50.097107" lon="5.942566"><ele>419.710</ele><time>2022-09-17T16:16:25Z</time></trkpt><trkpt lat="50.097001" lon="5.942521"><ele>419.409</ele><time>2022-09-17T16:16:26Z</time></trkpt><trkpt lat="50.096900" lon="5.942494"><ele>419.284</ele><time>2022-09-17T16:16:27Z</time></trkpt><trkpt lat="50.096806" lon="5.942494"><ele>418.894</ele><time>2022-09-17T16:16:28Z</time></trkpt><trkpt lat="50.096704" lon="5.942479"><ele>418.656</ele><time>2022-09-17T16:16:29Z</time></trkpt><trkpt lat="50.096605" lon="5.942469"><ele>418.542</ele><time>2022-09-17T16:16:30Z</time></trkpt><trkpt lat="50.096507" lon="5.942430"><ele>418.387</ele><time>2022-09-17T16:16:31Z</time></trkpt><trkpt lat="50.096406" lon="5.942387"><ele>418.392</ele><time>2022-09-17T16:16:32Z</time></trkpt><trkpt lat="50.096301" lon="5.942294"><ele>418.427</ele><time>2022-09-17T16:16:33Z</time></trkpt><trkpt lat="50.096196" lon="5.942217"><ele>418.471</ele><time>2022-09-17T16:16:34Z</time></trkpt><trkpt lat="50.096100" lon="5.942112"><ele>418.428</ele><time>2022-09-17T16:16:35Z</time></trkpt><trkpt lat="50.096008" lon="5.941988"><ele>418.489</ele><time>2022-09-17T16:16:36Z</time></trkpt><trkpt lat="50.095907" lon="5.941883"><ele>418.406</ele><time>2022-09-17T16:16:37Z</time></trkpt><trkpt lat="50.095822" lon="5.941811"><ele>418.426</ele><time>2022-09-17T16:16:38Z</time></trkpt><trkpt lat="50.095712" lon="5.941713"><ele>418.409</ele><time>2022-09-17T16:16:39Z</time></trkpt><trkpt lat="50.095605" lon="5.941679"><ele>418.499</ele><time>2022-09-17T16:16:40Z</time></trkpt><trkpt lat="50.095500" lon="5.941669"><ele>418.679</ele><time>2022-09-17T16:16:41Z</time></trkpt><trkpt lat="50.095399" lon="5.941659"><ele>418.791</ele><time>2022-09-17T16:16:42Z</time></trkpt><trkpt lat="50.095299" lon="5.941676"><ele>418.927</ele><time>2022-09-17T16:16:43Z</time></trkpt><trkpt lat="50.095201" lon="5.941710"><ele>419.262</ele><time>2022-09-17T16:16:44Z</time></trkpt><trkpt lat="50.095099" lon="5.941775"><ele>419.787</ele><time>2022-09-17T16:16:45Z</time></trkpt><trkpt lat="50.094994" lon="5.941855"><ele>419.892</ele><time>2022-09-17T16:16:46Z</time></trkpt><trkpt lat="50.094898" lon="5.941941"><ele>420.176</ele><time>2022-09-17T16:16:47Z</time></trkpt><trkpt lat="50.094806" lon="5.942026"><ele>420.443</ele><time>2022-09-17T16:16:48Z</time></trkpt><trkpt lat="50.094721" lon="5.942100"><ele>420.681</ele><time>2022-09-17T16:16:49Z</time></trkpt><trkpt lat="50.094635" lon="5.942146"><ele>420.861</ele><time>2022-09-17T16:16:50Z</time></trkpt><trkpt lat="50.094546" lon="5.942173"><ele>421.317</ele><time>2022-09-17T16:16:51Z</time></trkpt><trkpt lat="50.094448" lon="5.942194"><ele>421.809</ele><time>2022-09-17T16:16:52Z</time></trkpt><trkpt lat="50.094343" lon="5.942205"><ele>421.899</ele><time>2022-09-17T16:16:53Z</time></trkpt><trkpt lat="50.094239" lon="5.942221"><ele>422.539</ele><time>2022-09-17T16:16:54Z</time></trkpt><trkpt lat="50.094137" lon="5.942233"><ele>422.511</ele><time>2022-09-17T16:16:55Z</time></trkpt><trkpt lat="50.094033" lon="5.942263"><ele>422.727</ele><time>2022-09-17T16:16:56Z</time></trkpt><trkpt lat="50.093925" lon="5.942283"><ele>423.152</ele><time>2022-09-17T16:16:57Z</time></trkpt><trkpt lat="50.093816" lon="5.942312"><ele>423.297</ele><time>2022-09-17T16:16:58Z</time></trkpt><trkpt lat="50.093717" lon="5.942334"><ele>423.622</ele><time>2022-09-17T16:16:59Z</time></trkpt><trkpt lat="50.093613" lon="5.942360"><ele>423.616</ele><time>2022-09-17T16:17:00Z</time></trkpt><trkpt lat="50.093510" lon="5.942392"><ele>423.773</ele><time>2022-09-17T16:17:01Z</time></trkpt><trkpt lat="50.093412" lon="5.942430"><ele>423.776</ele><time>2022-09-17T16:17:02Z</time></trkpt><trkpt lat="50.093302" lon="5.942475"><ele>424.190</ele><time>2022-09-17T16:17:03Z</time></trkpt><trkpt lat="50.093182" lon="5.942536"><ele>424.719</ele><time>2022-09-17T16:17:04Z</time></trkpt><trkpt lat="50.093063" lon="5.942613"><ele>425.309</ele><time>2022-09-17T16:17:05Z</time></trkpt><trkpt lat="50.092956" lon="5.942685"><ele>426.378</ele><time>2022-09-17T16:17:06Z</time></trkpt><trkpt lat="50.092851" lon="5.942748"><ele>427.048</ele><time>2022-09-17T16:17:07Z</time></trkpt><trkpt lat="50.092740" lon="5.942804"><ele>427.530</ele><time>2022-09-17T16:17:08Z</time></trkpt><trkpt lat="50.092623" lon="5.942843"><ele>428.046</ele><time>2022-09-17T16:17:09Z</time></trkpt><trkpt lat="50.092489" lon="5.942872"><ele>428.641</ele><time>2022-09-17T16:17:10Z</time></trkpt><trkpt lat="50.092372" lon="5.942889"><ele>429.186</ele><time>2022-09-17T16:17:11Z</time></trkpt><trkpt lat="50.092263" lon="5.942876"><ele>429.641</ele><time>2022-09-17T16:17:12Z</time></trkpt><trkpt lat="50.092170" lon="5.942851"><ele>430.665</ele><time>2022-09-17T16:17:13Z</time></trkpt><trkpt lat="50.092097" lon="5.942815"><ele>431.372</ele><time>2022-09-17T16:17:14Z</time></trkpt><trkpt lat="50.092033" lon="5.942801"><ele>431.885</ele><time>2022-09-17T16:17:15Z</time></trkpt><trkpt lat="50.091985" lon="5.942808"><ele>432.789</ele><time>2022-09-17T16:17:16Z</time></trkpt><trkpt lat="50.091919" lon="5.942791"><ele>433.017</ele><time>2022-09-17T16:17:18Z</time></trkpt><trkpt lat="50.091874" lon="5.942811"><ele>433.909</ele><time>2022-09-17T16:17:20Z</time></trkpt><trkpt lat="50.091853" lon="5.942988"><ele>435.419</ele><time>2022-09-17T16:17:30Z</time></trkpt><trkpt lat="50.091744" lon="5.943086"><ele>436.299</ele><time>2022-09-17T16:17:31Z</time></trkpt><trkpt lat="50.091720" lon="5.943271"><ele>436.311</ele><time>2022-09-17T16:17:32Z</time></trkpt><trkpt lat="50.091687" lon="5.943509"><ele>436.587</ele><time>2022-09-17T16:17:33Z</time></trkpt><trkpt lat="50.091649" lon="5.943742"><ele>436.752</ele><time>2022-09-17T16:17:34Z</time></trkpt><trkpt lat="50.091626" lon="5.943974"><ele>437.037</ele><time>2022-09-17T16:17:35Z</time></trkpt><trkpt lat="50.091575" lon="5.944195"><ele>437.242</ele><time>2022-09-17T16:17:36Z</time></trkpt><trkpt lat="50.091511" lon="5.944409"><ele>437.356</ele><time>2022-09-17T16:17:37Z</time></trkpt><trkpt lat="50.091449" lon="5.944609"><ele>437.563</ele><time>2022-09-17T16:17:38Z</time></trkpt><trkpt lat="50.091390" lon="5.944800"><ele>437.612</ele><time>2022-09-17T16:17:39Z</time></trkpt><trkpt lat="50.091330" lon="5.944989"><ele>437.732</ele><time>2022-09-17T16:17:40Z</time></trkpt><trkpt lat="50.091266" lon="5.945198"><ele>437.905</ele><time>2022-09-17T16:17:41Z</time></trkpt><trkpt lat="50.091213" lon="5.945421"><ele>438.109</ele><time>2022-09-17T16:17:42Z</time></trkpt><trkpt lat="50.091168" lon="5.945639"><ele>438.482</ele><time>2022-09-17T16:17:43Z</time></trkpt><trkpt lat="50.091128" lon="5.945855"><ele>438.762</ele><time>2022-09-17T16:17:44Z</time></trkpt><trkpt lat="50.091096" lon="5.946055"><ele>439.044</ele><time>2022-09-17T16:17:45Z</time></trkpt><trkpt lat="50.091074" lon="5.946241"><ele>439.230</ele><time>2022-09-17T16:17:46Z</time></trkpt><trkpt lat="50.091051" lon="5.946423"><ele>439.765</ele><time>2022-09-17T16:17:47Z</time></trkpt><trkpt lat="50.091026" lon="5.946602"><ele>440.210</ele><time>2022-09-17T16:17:48Z</time></trkpt><trkpt lat="50.091004" lon="5.946782"><ele>440.745</ele><time>2022-09-17T16:17:49Z</time></trkpt><trkpt lat="50.090990" lon="5.946947"><ele>441.399</ele><time>2022-09-17T16:17:50Z</time></trkpt><trkpt lat="50.090977" lon="5.947126"><ele>441.576</ele><time>2022-09-17T16:17:51Z</time></trkpt><trkpt lat="50.090961" lon="5.947316"><ele>441.612</ele><time>2022-09-17T16:17:52Z</time></trkpt><trkpt lat="50.090948" lon="5.947515"><ele>441.632</ele><time>2022-09-17T16:17:53Z</time></trkpt><trkpt lat="50.090950" lon="5.947718"><ele>441.405</ele><time>2022-09-17T16:17:54Z</time></trkpt><trkpt lat="50.090959" lon="5.947918"><ele>441.009</ele><time>2022-09-17T16:17:55Z</time></trkpt><trkpt lat="50.090975" lon="5.948118"><ele>440.712</ele><time>2022-09-17T16:17:56Z</time></trkpt><trkpt lat="50.090998" lon="5.948305"><ele>440.122</ele><time>2022-09-17T16:17:57Z</time></trkpt><trkpt lat="50.091034" lon="5.948482"><ele>439.574</ele><time>2022-09-17T16:17:58Z</time></trkpt><trkpt lat="50.091082" lon="5.948645"><ele>438.990</ele><time>2022-09-17T16:17:59Z</time></trkpt><trkpt lat="50.091140" lon="5.948793"><ele>438.125</ele><time>2022-09-17T16:18:00Z</time></trkpt><trkpt lat="50.091206" lon="5.948941"><ele>437.410</ele><time>2022-09-17T16:18:01Z</time></trkpt><trkpt lat="50.091283" lon="5.949068"><ele>436.695</ele><time>2022-09-17T16:18:02Z</time></trkpt><trkpt lat="50.091371" lon="5.949184"><ele>435.849</ele><time>2022-09-17T16:18:03Z</time></trkpt><trkpt lat="50.091451" lon="5.949286"><ele>434.966</ele><time>2022-09-17T16:18:04Z</time></trkpt><trkpt lat="50.091522" lon="5.949394"><ele>433.744</ele><time>2022-09-17T16:18:05Z</time></trkpt><trkpt lat="50.091579" lon="5.949514"><ele>432.205</ele><time>2022-09-17T16:18:06Z</time></trkpt><trkpt lat="50.091628" lon="5.949654"><ele>430.815</ele><time>2022-09-17T16:18:07Z</time></trkpt><trkpt lat="50.091659" lon="5.949803"><ele>429.209</ele><time>2022-09-17T16:18:08Z</time></trkpt><trkpt lat="50.091679" lon="5.949972"><ele>427.475</ele><time>2022-09-17T16:18:09Z</time></trkpt><trkpt lat="50.091687" lon="5.950144"><ele>425.835</ele><time>2022-09-17T16:18:10Z</time></trkpt><trkpt lat="50.091659" lon="5.950316"><ele>424.367</ele><time>2022-09-17T16:18:11Z</time></trkpt><trkpt lat="50.091635" lon="5.950481"><ele>422.963</ele><time>2022-09-17T16:18:12Z</time></trkpt><trkpt lat="50.091608" lon="5.950653"><ele>421.678</ele><time>2022-09-17T16:18:13Z</time></trkpt><trkpt lat="50.091587" lon="5.950827"><ele>420.333</ele><time>2022-09-17T16:18:14Z</time></trkpt><trkpt lat="50.091557" lon="5.951004"><ele>419.168</ele><time>2022-09-17T16:18:15Z</time></trkpt><trkpt lat="50.091535" lon="5.951186"><ele>418.022</ele><time>2022-09-17T16:18:16Z</time></trkpt><trkpt lat="50.091526" lon="5.951365"><ele>416.859</ele><time>2022-09-17T16:18:17Z</time></trkpt><trkpt lat="50.091519" lon="5.951535"><ele>415.688</ele><time>2022-09-17T16:18:18Z</time></trkpt><trkpt lat="50.091512" lon="5.951698"><ele>414.524</ele><time>2022-09-17T16:18:19Z</time></trkpt><trkpt lat="50.091506" lon="5.951862"><ele>413.626</ele><time>2022-09-17T16:18:20Z</time></trkpt><trkpt lat="50.091481" lon="5.952016"><ele>412.809</ele><time>2022-09-17T16:18:21Z</time></trkpt><trkpt lat="50.091492" lon="5.952174"><ele>412.189</ele><time>2022-09-17T16:18:22Z</time></trkpt><trkpt lat="50.091474" lon="5.952324"><ele>411.619</ele><time>2022-09-17T16:18:23Z</time></trkpt><trkpt lat="50.091483" lon="5.952473"><ele>411.231</ele><time>2022-09-17T16:18:24Z</time></trkpt><trkpt lat="50.091510" lon="5.952621"><ele>410.777</ele><time>2022-09-17T16:18:25Z</time></trkpt><trkpt lat="50.091556" lon="5.952761"><ele>410.452</ele><time>2022-09-17T16:18:26Z</time></trkpt><trkpt lat="50.091633" lon="5.952884"><ele>410.387</ele><time>2022-09-17T16:18:27Z</time></trkpt><trkpt lat="50.091708" lon="5.953024"><ele>410.362</ele><time>2022-09-17T16:18:28Z</time></trkpt><trkpt lat="50.091786" lon="5.953182"><ele>410.466</ele><time>2022-09-17T16:18:29Z</time></trkpt><trkpt lat="50.091882" lon="5.953317"><ele>410.743</ele><time>2022-09-17T16:18:30Z</time></trkpt><trkpt lat="50.091957" lon="5.953482"><ele>411.095</ele><time>2022-09-17T16:18:31Z</time></trkpt><trkpt lat="50.092011" lon="5.953658"><ele>411.649</ele><time>2022-09-17T16:18:32Z</time></trkpt><trkpt lat="50.092070" lon="5.953822"><ele>412.523</ele><time>2022-09-17T16:18:33Z</time></trkpt><trkpt lat="50.092125" lon="5.953987"><ele>413.409</ele><time>2022-09-17T16:18:34Z</time></trkpt><trkpt lat="50.092150" lon="5.954154"><ele>414.510</ele><time>2022-09-17T16:18:35Z</time></trkpt><trkpt lat="50.092180" lon="5.954312"><ele>415.670</ele><time>2022-09-17T16:18:36Z</time></trkpt><trkpt lat="50.092205" lon="5.954460"><ele>416.612</ele><time>2022-09-17T16:18:37Z</time></trkpt><trkpt lat="50.092226" lon="5.954615"><ele>417.558</ele><time>2022-09-17T16:18:38Z</time></trkpt><trkpt lat="50.092254" lon="5.954762"><ele>418.483</ele><time>2022-09-17T16:18:39Z</time></trkpt><trkpt lat="50.092271" lon="5.954880"><ele>419.368</ele><time>2022-09-17T16:18:40Z</time></trkpt><trkpt lat="50.092308" lon="5.954978"><ele>419.863</ele><time>2022-09-17T16:18:41Z</time></trkpt><trkpt lat="50.092310" lon="5.955075"><ele>420.867</ele><time>2022-09-17T16:18:42Z</time></trkpt><trkpt lat="50.092324" lon="5.955197"><ele>421.844</ele><time>2022-09-17T16:18:44Z</time></trkpt><trkpt lat="50.092283" lon="5.955239"><ele>422.359</ele><time>2022-09-17T16:18:46Z</time></trkpt><trkpt lat="50.092204" lon="5.955101"><ele>425.103</ele><time>2022-09-17T16:18:48Z</time></trkpt><trkpt lat="50.092129" lon="5.955016"><ele>426.723</ele><time>2022-09-17T16:18:49Z</time></trkpt><trkpt lat="50.092026" lon="5.954899"><ele>428.009</ele><time>2022-09-17T16:18:50Z</time></trkpt><trkpt lat="50.091914" lon="5.954771"><ele>428.426</ele><time>2022-09-17T16:18:51Z</time></trkpt><trkpt lat="50.091784" lon="5.954622"><ele>428.976</ele><time>2022-09-17T16:18:52Z</time></trkpt><trkpt lat="50.091636" lon="5.954454"><ele>429.488</ele><time>2022-09-17T16:18:53Z</time></trkpt><trkpt lat="50.091486" lon="5.954283"><ele>430.044</ele><time>2022-09-17T16:18:54Z</time></trkpt><trkpt lat="50.091325" lon="5.954103"><ele>430.629</ele><time>2022-09-17T16:18:55Z</time></trkpt><trkpt lat="50.091167" lon="5.953928"><ele>431.144</ele><time>2022-09-17T16:18:56Z</time></trkpt><trkpt lat="50.091009" lon="5.953754"><ele>431.319</ele><time>2022-09-17T16:18:57Z</time></trkpt><trkpt lat="50.090856" lon="5.953584"><ele>431.153</ele><time>2022-09-17T16:18:58Z</time></trkpt><trkpt lat="50.090703" lon="5.953417"><ele>430.470</ele><time>2022-09-17T16:18:59Z</time></trkpt><trkpt lat="50.090557" lon="5.953259"><ele>429.399</ele><time>2022-09-17T16:19:00Z</time></trkpt><trkpt lat="50.090419" lon="5.953117"><ele>427.907</ele><time>2022-09-17T16:19:01Z</time></trkpt><trkpt lat="50.090284" lon="5.952974"><ele>426.227</ele><time>2022-09-17T16:19:02Z</time></trkpt><trkpt lat="50.090159" lon="5.952867"><ele>424.509</ele><time>2022-09-17T16:19:03Z</time></trkpt><trkpt lat="50.090041" lon="5.952764"><ele>423.030</ele><time>2022-09-17T16:19:04Z</time></trkpt><trkpt lat="50.089902" lon="5.952652"><ele>421.790</ele><time>2022-09-17T16:19:05Z</time></trkpt><trkpt lat="50.089804" lon="5.952574"><ele>421.162</ele><time>2022-09-17T16:19:06Z</time></trkpt><trkpt lat="50.089725" lon="5.952512"><ele>419.748</ele><time>2022-09-17T16:19:07Z</time></trkpt><trkpt lat="50.089655" lon="5.952456"><ele>418.963</ele><time>2022-09-17T16:19:08Z</time></trkpt><trkpt lat="50.089589" lon="5.952403"><ele>418.358</ele><time>2022-09-17T16:19:09Z</time></trkpt><trkpt lat="50.089496" lon="5.952337"><ele>417.253</ele><time>2022-09-17T16:19:10Z</time></trkpt><trkpt lat="50.089417" lon="5.952267"><ele>416.387</ele><time>2022-09-17T16:19:11Z</time></trkpt><trkpt lat="50.089322" lon="5.952191"><ele>415.934</ele><time>2022-09-17T16:19:12Z</time></trkpt><trkpt lat="50.089227" lon="5.952115"><ele>415.267</ele><time>2022-09-17T16:19:13Z</time></trkpt><trkpt lat="50.089145" lon="5.952049"><ele>414.581</ele><time>2022-09-17T16:19:14Z</time></trkpt><trkpt lat="50.089042" lon="5.951967"><ele>413.919</ele><time>2022-09-17T16:19:15Z</time></trkpt><trkpt lat="50.088948" lon="5.951892"><ele>413.009</ele><time>2022-09-17T16:19:16Z</time></trkpt><trkpt lat="50.088856" lon="5.951818"><ele>412.047</ele><time>2022-09-17T16:19:17Z</time></trkpt><trkpt lat="50.088764" lon="5.951744"><ele>411.477</ele><time>2022-09-17T16:19:18Z</time></trkpt><trkpt lat="50.088678" lon="5.951676"><ele>411.279</ele><time>2022-09-17T16:19:19Z</time></trkpt><trkpt lat="50.088580" lon="5.951598"><ele>410.965</ele><time>2022-09-17T16:19:20Z</time></trkpt><trkpt lat="50.088474" lon="5.951514"><ele>410.860</ele><time>2022-09-17T16:19:21Z</time></trkpt><trkpt lat="50.088416" lon="5.951468"><ele>410.735</ele><time>2022-09-17T16:19:22Z</time></trkpt><trkpt lat="50.088375" lon="5.951436"><ele>410.710</ele><time>2022-09-17T16:19:24Z</time></trkpt><trkpt lat="50.088378" lon="5.951517"><ele>410.764</ele><time>2022-09-17T16:19:25Z</time></trkpt><trkpt lat="50.088182" lon="5.952268"><ele>410.981</ele><time>2022-09-17T16:19:26Z</time></trkpt><trkpt lat="50.088164" lon="5.952404"><ele>410.953</ele><time>2022-09-17T16:19:27Z</time></trkpt><trkpt lat="50.088148" lon="5.952499"><ele>410.904</ele><time>2022-09-17T16:19:28Z</time></trkpt><trkpt lat="50.088112" lon="5.952608"><ele>410.814</ele><time>2022-09-17T16:19:29Z</time></trkpt><trkpt lat="50.088046" lon="5.952703"><ele>410.509</ele><time>2022-09-17T16:19:30Z</time></trkpt><trkpt lat="50.087944" lon="5.952806"><ele>409.896</ele><time>2022-09-17T16:19:31Z</time></trkpt><trkpt lat="50.087782" lon="5.952920"><ele>409.376</ele><time>2022-09-17T16:19:32Z</time></trkpt><trkpt lat="50.087680" lon="5.953048"><ele>409.118</ele><time>2022-09-17T16:19:33Z</time></trkpt><trkpt lat="50.087610" lon="5.953206"><ele>409.154</ele><time>2022-09-17T16:19:34Z</time></trkpt><trkpt lat="50.087550" lon="5.953388"><ele>409.249</ele><time>2022-09-17T16:19:35Z</time></trkpt><trkpt lat="50.087509" lon="5.953548"><ele>409.254</ele><time>2022-09-17T16:19:36Z</time></trkpt><trkpt lat="50.087504" lon="5.953721"><ele>409.219</ele><time>2022-09-17T16:19:37Z</time></trkpt><trkpt lat="50.087531" lon="5.953935"><ele>409.213</ele><time>2022-09-17T16:19:38Z</time></trkpt><trkpt lat="50.087571" lon="5.954177"><ele>409.090</ele><time>2022-09-17T16:19:39Z</time></trkpt><trkpt lat="50.087619" lon="5.954398"><ele>408.852</ele><time>2022-09-17T16:19:40Z</time></trkpt><trkpt lat="50.087665" lon="5.954595"><ele>408.553</ele><time>2022-09-17T16:19:41Z</time></trkpt><trkpt lat="50.087713" lon="5.954798"><ele>408.208</ele><time>2022-09-17T16:19:42Z</time></trkpt><trkpt lat="50.087765" lon="5.954997"><ele>407.909</ele><time>2022-09-17T16:19:43Z</time></trkpt><trkpt lat="50.087829" lon="5.955188"><ele>407.576</ele><time>2022-09-17T16:19:44Z</time></trkpt><trkpt lat="50.087887" lon="5.955378"><ele>407.256</ele><time>2022-09-17T16:19:45Z</time></trkpt><trkpt lat="50.087944" lon="5.955556"><ele>407.138</ele><time>2022-09-17T16:19:46Z</time></trkpt><trkpt lat="50.088000" lon="5.955737"><ele>406.974</ele><time>2022-09-17T16:19:47Z</time></trkpt><trkpt lat="50.088062" lon="5.955911"><ele>406.929</ele><time>2022-09-17T16:19:48Z</time></trkpt><trkpt lat="50.088126" lon="5.956093"><ele>407.054</ele><time>2022-09-17T16:19:49Z</time></trkpt><trkpt lat="50.088197" lon="5.956271"><ele>407.339</ele><time>2022-09-17T16:19:50Z</time></trkpt><trkpt lat="50.088275" lon="5.956437"><ele>407.473</ele><time>2022-09-17T16:19:51Z</time></trkpt><trkpt lat="50.088349" lon="5.956607"><ele>407.770</ele><time>2022-09-17T16:19:52Z</time></trkpt><trkpt lat="50.088418" lon="5.956795"><ele>407.763</ele><time>2022-09-17T16:19:53Z</time></trkpt><trkpt lat="50.088497" lon="5.956975"><ele>407.744</ele><time>2022-09-17T16:19:54Z</time></trkpt><trkpt lat="50.088561" lon="5.957165"><ele>407.718</ele><time>2022-09-17T16:19:55Z</time></trkpt><trkpt lat="50.088633" lon="5.957339"><ele>407.709</ele><time>2022-09-17T16:19:56Z</time></trkpt><trkpt lat="50.088702" lon="5.957535"><ele>407.787</ele><time>2022-09-17T16:19:57Z</time></trkpt><trkpt lat="50.088767" lon="5.957695"><ele>407.717</ele><time>2022-09-17T16:19:58Z</time></trkpt><trkpt lat="50.088814" lon="5.957861"><ele>407.699</ele><time>2022-09-17T16:19:59Z</time></trkpt><trkpt lat="50.088851" lon="5.958025"><ele>407.585</ele><time>2022-09-17T16:20:00Z</time></trkpt><trkpt lat="50.088904" lon="5.958195"><ele>407.540</ele><time>2022-09-17T16:20:01Z</time></trkpt><trkpt lat="50.088957" lon="5.958355"><ele>407.555</ele><time>2022-09-17T16:20:02Z</time></trkpt><trkpt lat="50.088991" lon="5.958507"><ele>407.730</ele><time>2022-09-17T16:20:03Z</time></trkpt><trkpt lat="50.089025" lon="5.958669"><ele>408.044</ele><time>2022-09-17T16:20:04Z</time></trkpt><trkpt lat="50.089046" lon="5.958850"><ele>408.221</ele><time>2022-09-17T16:20:05Z</time></trkpt><trkpt lat="50.089058" lon="5.959045"><ele>408.257</ele><time>2022-09-17T16:20:06Z</time></trkpt><trkpt lat="50.089060" lon="5.959234"><ele>408.100</ele><time>2022-09-17T16:20:07Z</time></trkpt><trkpt lat="50.089072" lon="5.959414"><ele>407.620</ele><time>2022-09-17T16:20:08Z</time></trkpt><trkpt lat="50.089071" lon="5.959593"><ele>407.109</ele><time>2022-09-17T16:20:09Z</time></trkpt><trkpt lat="50.089055" lon="5.959802"><ele>406.736</ele><time>2022-09-17T16:20:10Z</time></trkpt><trkpt lat="50.089060" lon="5.959997"><ele>406.186</ele><time>2022-09-17T16:20:11Z</time></trkpt><trkpt lat="50.089051" lon="5.960202"><ele>405.818</ele><time>2022-09-17T16:20:12Z</time></trkpt><trkpt lat="50.089029" lon="5.960401"><ele>405.764</ele><time>2022-09-17T16:20:13Z</time></trkpt><trkpt lat="50.089008" lon="5.960596"><ele>405.539</ele><time>2022-09-17T16:20:14Z</time></trkpt><trkpt lat="50.088980" lon="5.960795"><ele>405.374</ele><time>2022-09-17T16:20:15Z</time></trkpt><trkpt lat="50.088955" lon="5.961000"><ele>405.279</ele><time>2022-09-17T16:20:16Z</time></trkpt><trkpt lat="50.088942" lon="5.961189"><ele>405.173</ele><time>2022-09-17T16:20:17Z</time></trkpt><trkpt lat="50.088930" lon="5.961391"><ele>404.910</ele><time>2022-09-17T16:20:18Z</time></trkpt><trkpt lat="50.088919" lon="5.961601"><ele>404.963</ele><time>2022-09-17T16:20:19Z</time></trkpt><trkpt lat="50.088891" lon="5.961805"><ele>404.844</ele><time>2022-09-17T16:20:20Z</time></trkpt><trkpt lat="50.088849" lon="5.961985"><ele>404.818</ele><time>2022-09-17T16:20:21Z</time></trkpt><trkpt lat="50.088831" lon="5.962141"><ele>404.709</ele><time>2022-09-17T16:20:22Z</time></trkpt><trkpt lat="50.088812" lon="5.962271"><ele>404.767</ele><time>2022-09-17T16:20:23Z</time></trkpt><trkpt lat="50.088807" lon="5.962402"><ele>404.947</ele><time>2022-09-17T16:20:24Z</time></trkpt><trkpt lat="50.088806" lon="5.962527"><ele>405.069</ele><time>2022-09-17T16:20:25Z</time></trkpt><trkpt lat="50.088794" lon="5.962673"><ele>405.355</ele><time>2022-09-17T16:20:26Z</time></trkpt><trkpt lat="50.088757" lon="5.962847"><ele>406.060</ele><time>2022-09-17T16:20:27Z</time></trkpt><trkpt lat="50.088732" lon="5.962990"><ele>406.265</ele><time>2022-09-17T16:20:28Z</time></trkpt><trkpt lat="50.088697" lon="5.963146"><ele>406.350</ele><time>2022-09-17T16:20:29Z</time></trkpt><trkpt lat="50.088652" lon="5.963288"><ele>406.354</ele><time>2022-09-17T16:20:30Z</time></trkpt><trkpt lat="50.088616" lon="5.963403"><ele>406.321</ele><time>2022-09-17T16:20:31Z</time></trkpt><trkpt lat="50.088571" lon="5.963544"><ele>406.339</ele><time>2022-09-17T16:20:32Z</time></trkpt><trkpt lat="50.088549" lon="5.963658"><ele>406.301</ele><time>2022-09-17T16:20:33Z</time></trkpt><trkpt lat="50.088516" lon="5.963799"><ele>406.321</ele><time>2022-09-17T16:20:34Z</time></trkpt><trkpt lat="50.088503" lon="5.963934"><ele>406.409</ele><time>2022-09-17T16:20:35Z</time></trkpt><trkpt lat="50.088509" lon="5.964060"><ele>406.514</ele><time>2022-09-17T16:20:36Z</time></trkpt><trkpt lat="50.088500" lon="5.964180"><ele>406.684</ele><time>2022-09-17T16:20:37Z</time></trkpt><trkpt lat="50.088504" lon="5.964253"><ele>406.736</ele><time>2022-09-17T16:20:38Z</time></trkpt><trkpt lat="50.088505" lon="5.964329"><ele>406.722</ele><time>2022-09-17T16:20:39Z</time></trkpt><trkpt lat="50.088509" lon="5.964420"><ele>406.767</ele><time>2022-09-17T16:20:40Z</time></trkpt><trkpt lat="50.088530" lon="5.964491"><ele>406.792</ele><time>2022-09-17T16:20:41Z</time></trkpt><trkpt lat="50.088545" lon="5.964566"><ele>406.727</ele><time>2022-09-17T16:20:42Z</time></trkpt><trkpt lat="50.088558" lon="5.964648"><ele>406.731</ele><time>2022-09-17T16:20:43Z</time></trkpt><trkpt lat="50.088611" lon="5.964740"><ele>406.798</ele><time>2022-09-17T16:20:45Z</time></trkpt><trkpt lat="50.088512" lon="5.964955"><ele>406.879</ele><time>2022-09-17T16:20:46Z</time></trkpt><trkpt lat="50.088456" lon="5.964849"><ele>406.805</ele><time>2022-09-17T16:20:50Z</time></trkpt><trkpt lat="50.088417" lon="5.964771"><ele>406.425</ele><time>2022-09-17T16:20:51Z</time></trkpt><trkpt lat="50.088351" lon="5.964740"><ele>406.409</ele><time>2022-09-17T16:20:52Z</time></trkpt><trkpt lat="50.088302" lon="5.964710"><ele>406.268</ele><time>2022-09-17T16:20:53Z</time></trkpt><trkpt lat="50.088254" lon="5.964665"><ele>406.198</ele><time>2022-09-17T16:20:54Z</time></trkpt><trkpt lat="50.088210" lon="5.964622"><ele>405.970</ele><time>2022-09-17T16:20:55Z</time></trkpt><trkpt lat="50.088142" lon="5.964600"><ele>405.686</ele><time>2022-09-17T16:20:57Z</time></trkpt><trkpt lat="50.088074" lon="5.964585"><ele>405.311</ele><time>2022-09-17T16:20:59Z</time></trkpt><trkpt lat="50.087985" lon="5.964496"><ele>404.436</ele><time>2022-09-17T16:21:10Z</time></trkpt><trkpt lat="50.088005" lon="5.964398"><ele>404.151</ele><time>2022-09-17T16:21:12Z</time></trkpt><trkpt lat="50.087829" lon="5.964334"><ele>403.855</ele><time>2022-09-17T16:21:15Z</time></trkpt><trkpt lat="50.087828" lon="5.964252"><ele>403.782</ele><time>2022-09-17T16:21:19Z</time></trkpt><trkpt lat="50.087832" lon="5.964079"><ele>403.664</ele><time>2022-09-17T16:21:30Z</time></trkpt><trkpt lat="50.087828" lon="5.964191"><ele>403.606</ele><time>2022-09-17T16:22:35Z</time></trkpt><trkpt lat="50.088013" lon="5.964152"><ele>403.616</ele><time>2022-09-17T16:23:13Z</time></trkpt><trkpt lat="50.088077" lon="5.964177"><ele>403.709</ele><time>2022-09-17T16:26:05Z</time></trkpt><trkpt lat="50.088025" lon="5.964179"><ele>403.857</ele><time>2022-09-17T16:26:29Z</time></trkpt><trkpt lat="50.087966" lon="5.964241"><ele>403.837</ele><time>2022-09-17T16:27:06Z</time></trkpt><trkpt lat="50.088015" lon="5.964270"><ele>403.819</ele><time>2022-09-17T16:27:53Z</time></trkpt><trkpt lat="50.088335" lon="5.964453"><ele>405.695</ele><time>2022-09-17T16:57:37Z</time></trkpt><trkpt lat="50.132553" lon="5.790696"><ele>313.560</ele><time>2022-09-18T12:50:55Z</time></trkpt><trkpt lat="50.132421" lon="5.790970"><ele>316.185</ele><time>2022-09-18T13:56:50Z</time></trkpt><trkpt lat="50.132463" lon="5.790925"><ele>318.690</ele><time>2022-09-18T13:57:40Z</time></trkpt><trkpt lat="50.132412" lon="5.790922"><ele>318.574</ele><time>2022-09-18T13:57:46Z</time></trkpt><trkpt lat="50.132386" lon="5.790998"><ele>318.421</ele><time>2022-09-18T13:58:02Z</time></trkpt><trkpt lat="50.132431" lon="5.790988"><ele>318.351</ele><time>2022-09-18T13:58:06Z</time></trkpt><trkpt lat="50.132390" lon="5.790897"><ele>318.301</ele><time>2022-09-18T13:58:41Z</time></trkpt><trkpt lat="50.132423" lon="5.790946"><ele>318.311</ele><time>2022-09-18T13:58:51Z</time></trkpt><trkpt lat="50.132407" lon="5.791018"><ele>318.309</ele><time>2022-09-18T13:59:15Z</time></trkpt><trkpt lat="50.132453" lon="5.790938"><ele>318.236</ele><time>2022-09-18T13:59:30Z</time></trkpt><trkpt lat="50.132459" lon="5.790818"><ele>317.846</ele><time>2022-09-18T14:04:31Z</time></trkpt><trkpt lat="50.132478" lon="5.790751"><ele>317.798</ele><time>2022-09-18T14:04:34Z</time></trkpt><trkpt lat="50.132514" lon="5.790687"><ele>317.614</ele><time>2022-09-18T14:04:36Z</time></trkpt><trkpt lat="50.132587" lon="5.790678"><ele>317.779</ele><time>2022-09-18T14:04:38Z</time></trkpt><trkpt lat="50.132649" lon="5.790691"><ele>317.824</ele><time>2022-09-18T14:04:39Z</time></trkpt><trkpt lat="50.132736" lon="5.790679"><ele>317.829</ele><time>2022-09-18T14:04:40Z</time></trkpt><trkpt lat="50.132800" lon="5.790663"><ele>317.913</ele><time>2022-09-18T14:04:41Z</time></trkpt><trkpt lat="50.132903" lon="5.790756"><ele>318.110</ele><time>2022-09-18T14:04:42Z</time></trkpt><trkpt lat="50.132990" lon="5.790728"><ele>318.317</ele><time>2022-09-18T14:04:43Z</time></trkpt><trkpt lat="50.133081" lon="5.790699"><ele>318.687</ele><time>2022-09-18T14:04:44Z</time></trkpt><trkpt lat="50.133152" lon="5.790676"><ele>318.815</ele><time>2022-09-18T14:04:45Z</time></trkpt><trkpt lat="50.133246" lon="5.790645"><ele>319.109</ele><time>2022-09-18T14:04:46Z</time></trkpt><trkpt lat="50.133332" lon="5.790616"><ele>319.482</ele><time>2022-09-18T14:04:47Z</time></trkpt><trkpt lat="50.133428" lon="5.790584"><ele>320.142</ele><time>2022-09-18T14:04:48Z</time></trkpt><trkpt lat="50.133540" lon="5.790543"><ele>320.634</ele><time>2022-09-18T14:04:49Z</time></trkpt><trkpt lat="50.133626" lon="5.790514"><ele>321.230</ele><time>2022-09-18T14:04:50Z</time></trkpt><trkpt lat="50.133737" lon="5.790477"><ele>321.875</ele><time>2022-09-18T14:04:51Z</time></trkpt><trkpt lat="50.133839" lon="5.790441"><ele>322.320</ele><time>2022-09-18T14:04:52Z</time></trkpt><trkpt lat="50.133945" lon="5.790404"><ele>322.825</ele><time>2022-09-18T14:04:53Z</time></trkpt><trkpt lat="50.134062" lon="5.790375"><ele>323.489</ele><time>2022-09-18T14:04:54Z</time></trkpt><trkpt lat="50.134177" lon="5.790324"><ele>323.856</ele><time>2022-09-18T14:04:55Z</time></trkpt><trkpt lat="50.134279" lon="5.790279"><ele>324.472</ele><time>2022-09-18T14:04:56Z</time></trkpt><trkpt lat="50.134388" lon="5.790174"><ele>325.113</ele><time>2022-09-18T14:04:57Z</time></trkpt><trkpt lat="50.134513" lon="5.790022"><ele>326.014</ele><time>2022-09-18T14:04:58Z</time></trkpt><trkpt lat="50.134622" lon="5.789883"><ele>326.809</ele><time>2022-09-18T14:04:59Z</time></trkpt><trkpt lat="50.134735" lon="5.789737"><ele>327.888</ele><time>2022-09-18T14:05:00Z</time></trkpt><trkpt lat="50.134838" lon="5.789535"><ele>328.748</ele><time>2022-09-18T14:05:01Z</time></trkpt><trkpt lat="50.134936" lon="5.789369"><ele>329.620</ele><time>2022-09-18T14:05:02Z</time></trkpt><trkpt lat="50.135003" lon="5.789197"><ele>330.526</ele><time>2022-09-18T14:05:03Z</time></trkpt><trkpt lat="50.135059" lon="5.789003"><ele>330.941</ele><time>2022-09-18T14:05:04Z</time></trkpt><trkpt lat="50.135095" lon="5.788822"><ele>331.666</ele><time>2022-09-18T14:05:05Z</time></trkpt><trkpt lat="50.135101" lon="5.788631"><ele>332.471</ele><time>2022-09-18T14:05:06Z</time></trkpt><trkpt lat="50.135105" lon="5.788439"><ele>333.195</ele><time>2022-09-18T14:05:07Z</time></trkpt><trkpt lat="50.135090" lon="5.788246"><ele>333.152</ele><time>2022-09-18T14:05:08Z</time></trkpt><trkpt lat="50.135044" lon="5.788042"><ele>334.584</ele><time>2022-09-18T14:05:09Z</time></trkpt><trkpt lat="50.135004" lon="5.787836"><ele>335.207</ele><time>2022-09-18T14:05:10Z</time></trkpt><trkpt lat="50.134954" lon="5.787667"><ele>335.217</ele><time>2022-09-18T14:05:11Z</time></trkpt><trkpt lat="50.134891" lon="5.787491"><ele>335.909</ele><time>2022-09-18T14:05:12Z</time></trkpt><trkpt lat="50.134838" lon="5.787345"><ele>336.879</ele><time>2022-09-18T14:05:13Z</time></trkpt><trkpt lat="50.134770" lon="5.787219"><ele>337.759</ele><time>2022-09-18T14:05:14Z</time></trkpt><trkpt lat="50.134718" lon="5.787074"><ele>338.681</ele><time>2022-09-18T14:05:15Z</time></trkpt><trkpt lat="50.134647" lon="5.786903"><ele>339.537</ele><time>2022-09-18T14:05:16Z</time></trkpt><trkpt lat="50.134567" lon="5.786732"><ele>340.132</ele><time>2022-09-18T14:05:17Z</time></trkpt><trkpt lat="50.134458" lon="5.786593"><ele>341.057</ele><time>2022-09-18T14:05:18Z</time></trkpt><trkpt lat="50.134359" lon="5.786452"><ele>341.752</ele><time>2022-09-18T14:05:19Z</time></trkpt><trkpt lat="50.134253" lon="5.786302"><ele>342.396</ele><time>2022-09-18T14:05:20Z</time></trkpt><trkpt lat="50.134162" lon="5.786123"><ele>342.983</ele><time>2022-09-18T14:05:21Z</time></trkpt><trkpt lat="50.134058" lon="5.785972"><ele>343.614</ele><time>2022-09-18T14:05:22Z</time></trkpt><trkpt lat="50.133970" lon="5.785801"><ele>344.254</ele><time>2022-09-18T14:05:23Z</time></trkpt><trkpt lat="50.133925" lon="5.785621"><ele>344.409</ele><time>2022-09-18T14:05:24Z</time></trkpt><trkpt lat="50.133904" lon="5.785437"><ele>345.109</ele><time>2022-09-18T14:05:25Z</time></trkpt><trkpt lat="50.133901" lon="5.785288"><ele>346.282</ele><time>2022-09-18T14:05:26Z</time></trkpt><trkpt lat="50.133942" lon="5.785110"><ele>347.212</ele><time>2022-09-18T14:05:27Z</time></trkpt><trkpt lat="50.134007" lon="5.784990"><ele>348.294</ele><time>2022-09-18T14:05:28Z</time></trkpt><trkpt lat="50.134098" lon="5.784875"><ele>349.140</ele><time>2022-09-18T14:05:29Z</time></trkpt><trkpt lat="50.134197" lon="5.784786"><ele>349.915</ele><time>2022-09-18T14:05:30Z</time></trkpt><trkpt lat="50.134319" lon="5.784748"><ele>350.510</ele><time>2022-09-18T14:05:31Z</time></trkpt><trkpt lat="50.134440" lon="5.784791"><ele>351.145</ele><time>2022-09-18T14:05:32Z</time></trkpt><trkpt lat="50.134569" lon="5.784862"><ele>351.849</ele><time>2022-09-18T14:05:33Z</time></trkpt><trkpt lat="50.134706" lon="5.784980"><ele>352.916</ele><time>2022-09-18T14:05:34Z</time></trkpt><trkpt lat="50.134844" lon="5.785126"><ele>353.727</ele><time>2022-09-18T14:05:35Z</time></trkpt><trkpt lat="50.134973" lon="5.785290"><ele>354.568</ele><time>2022-09-18T14:05:36Z</time></trkpt><trkpt lat="50.135093" lon="5.785493"><ele>355.414</ele><time>2022-09-18T14:05:37Z</time></trkpt><trkpt lat="50.135217" lon="5.785651"><ele>356.309</ele><time>2022-09-18T14:05:38Z</time></trkpt><trkpt lat="50.135354" lon="5.785822"><ele>356.913</ele><time>2022-09-18T14:05:39Z</time></trkpt><trkpt lat="50.135483" lon="5.785987"><ele>357.213</ele><time>2022-09-18T14:05:40Z</time></trkpt><trkpt lat="50.135601" lon="5.786143"><ele>357.345</ele><time>2022-09-18T14:05:41Z</time></trkpt><trkpt lat="50.135713" lon="5.786285"><ele>357.351</ele><time>2022-09-18T14:05:42Z</time></trkpt><trkpt lat="50.135843" lon="5.786426"><ele>357.136</ele><time>2022-09-18T14:05:43Z</time></trkpt><trkpt lat="50.135948" lon="5.786561"><ele>357.051</ele><time>2022-09-18T14:05:44Z</time></trkpt><trkpt lat="50.136058" lon="5.786700"><ele>357.056</ele><time>2022-09-18T14:05:45Z</time></trkpt><trkpt lat="50.136167" lon="5.786844"><ele>357.280</ele><time>2022-09-18T14:05:46Z</time></trkpt><trkpt lat="50.136285" lon="5.786990"><ele>357.687</ele><time>2022-09-18T14:05:47Z</time></trkpt><trkpt lat="50.136410" lon="5.787144"><ele>358.116</ele><time>2022-09-18T14:05:48Z</time></trkpt><trkpt lat="50.136532" lon="5.787281"><ele>358.776</ele><time>2022-09-18T14:05:49Z</time></trkpt><trkpt lat="50.136636" lon="5.787394"><ele>359.313</ele><time>2022-09-18T14:05:50Z</time></trkpt><trkpt lat="50.136726" lon="5.787584"><ele>360.009</ele><time>2022-09-18T14:05:51Z</time></trkpt><trkpt lat="50.136840" lon="5.787726"><ele>360.852</ele><time>2022-09-18T14:05:52Z</time></trkpt><trkpt lat="50.136951" lon="5.787866"><ele>361.522</ele><time>2022-09-18T14:05:53Z</time></trkpt><trkpt lat="50.137062" lon="5.788011"><ele>362.264</ele><time>2022-09-18T14:05:54Z</time></trkpt><trkpt lat="50.137164" lon="5.788143"><ele>363.050</ele><time>2022-09-18T14:05:55Z</time></trkpt><trkpt lat="50.137262" lon="5.788266"><ele>363.475</ele><time>2022-09-18T14:05:56Z</time></trkpt><trkpt lat="50.137361" lon="5.788388"><ele>363.970</ele><time>2022-09-18T14:05:57Z</time></trkpt><trkpt lat="50.137445" lon="5.788491"><ele>364.565</ele><time>2022-09-18T14:05:58Z</time></trkpt><trkpt lat="50.137516" lon="5.788581"><ele>365.179</ele><time>2022-09-18T14:05:59Z</time></trkpt><trkpt lat="50.137598" lon="5.788698"><ele>365.626</ele><time>2022-09-18T14:06:00Z</time></trkpt><trkpt lat="50.137647" lon="5.788762"><ele>365.811</ele><time>2022-09-18T14:06:01Z</time></trkpt><trkpt lat="50.137679" lon="5.788812"><ele>366.221</ele><time>2022-09-18T14:06:02Z</time></trkpt><trkpt lat="50.137707" lon="5.788881"><ele>366.603</ele><time>2022-09-18T14:06:03Z</time></trkpt><trkpt lat="50.137730" lon="5.788984"><ele>366.809</ele><time>2022-09-18T14:06:05Z</time></trkpt><trkpt lat="50.137745" lon="5.788913"><ele>367.232</ele><time>2022-09-18T14:08:31Z</time></trkpt><trkpt lat="50.137810" lon="5.788688"><ele>369.072</ele><time>2022-09-18T14:08:41Z</time></trkpt><trkpt lat="50.137799" lon="5.789135"><ele>368.814</ele><time>2022-09-18T14:08:44Z</time></trkpt><trkpt lat="50.137762" lon="5.789297"><ele>368.810</ele><time>2022-09-18T14:08:46Z</time></trkpt><trkpt lat="50.137758" lon="5.789206"><ele>368.835</ele><time>2022-09-18T14:08:49Z</time></trkpt><trkpt lat="50.137814" lon="5.789057"><ele>368.850</ele><time>2022-09-18T14:08:54Z</time></trkpt><trkpt lat="50.137838" lon="5.788906"><ele>368.835</ele><time>2022-09-18T14:09:16Z</time></trkpt><trkpt lat="50.137789" lon="5.789098"><ele>368.899</ele><time>2022-09-18T14:10:08Z</time></trkpt><trkpt lat="50.137759" lon="5.788986"><ele>368.976</ele><time>2022-09-18T14:11:00Z</time></trkpt><trkpt lat="50.137775" lon="5.789066"><ele>368.917</ele><time>2022-09-18T14:11:08Z</time></trkpt><trkpt lat="50.137754" lon="5.789134"><ele>368.987</ele><time>2022-09-18T14:12:24Z</time></trkpt><trkpt lat="50.137774" lon="5.789062"><ele>368.915</ele><time>2022-09-18T14:12:30Z</time></trkpt><trkpt lat="50.137819" lon="5.789026"><ele>368.909</ele><time>2022-09-18T14:12:50Z</time></trkpt><trkpt lat="50.137773" lon="5.789093"><ele>368.942</ele><time>2022-09-18T14:13:14Z</time></trkpt><trkpt lat="50.137758" lon="5.789009"><ele>369.042</ele><time>2022-09-18T14:13:16Z</time></trkpt><trkpt lat="50.137745" lon="5.788926"><ele>369.284</ele><time>2022-09-18T14:13:19Z</time></trkpt><trkpt lat="50.137798" lon="5.789091"><ele>369.370</ele><time>2022-09-18T14:13:31Z</time></trkpt><trkpt lat="50.137852" lon="5.789188"><ele>369.485</ele><time>2022-09-18T14:13:33Z</time></trkpt><trkpt lat="50.137942" lon="5.789237"><ele>369.510</ele><time>2022-09-18T14:13:34Z</time></trkpt><trkpt lat="50.138002" lon="5.789245"><ele>369.695</ele><time>2022-09-18T14:13:35Z</time></trkpt><trkpt lat="50.138078" lon="5.789262"><ele>369.719</ele><time>2022-09-18T14:13:36Z</time></trkpt><trkpt lat="50.138154" lon="5.789360"><ele>370.016</ele><time>2022-09-18T14:13:37Z</time></trkpt><trkpt lat="50.138237" lon="5.789494"><ele>370.523</ele><time>2022-09-18T14:13:38Z</time></trkpt><trkpt lat="50.138342" lon="5.789603"><ele>370.583</ele><time>2022-09-18T14:13:39Z</time></trkpt><trkpt lat="50.138444" lon="5.789756"><ele>371.411</ele><time>2022-09-18T14:13:40Z</time></trkpt><trkpt lat="50.138526" lon="5.789877"><ele>371.809</ele><time>2022-09-18T14:13:41Z</time></trkpt><trkpt lat="50.138614" lon="5.789973"><ele>371.843</ele><time>2022-09-18T14:13:42Z</time></trkpt><trkpt lat="50.138712" lon="5.790090"><ele>372.413</ele><time>2022-09-18T14:13:43Z</time></trkpt><trkpt lat="50.138801" lon="5.790203"><ele>372.965</ele><time>2022-09-18T14:13:44Z</time></trkpt><trkpt lat="50.138885" lon="5.790302"><ele>373.621</ele><time>2022-09-18T14:13:45Z</time></trkpt><trkpt lat="50.138972" lon="5.790402"><ele>374.136</ele><time>2022-09-18T14:13:46Z</time></trkpt><trkpt lat="50.139060" lon="5.790487"><ele>374.951</ele><time>2022-09-18T14:13:47Z</time></trkpt><trkpt lat="50.139160" lon="5.790575"><ele>375.766</ele><time>2022-09-18T14:13:48Z</time></trkpt><trkpt lat="50.139265" lon="5.790628"><ele>376.240</ele><time>2022-09-18T14:13:49Z</time></trkpt><trkpt lat="50.139363" lon="5.790614"><ele>376.697</ele><time>2022-09-18T14:13:50Z</time></trkpt><trkpt lat="50.139477" lon="5.790603"><ele>377.044</ele><time>2022-09-18T14:13:51Z</time></trkpt><trkpt lat="50.139671" lon="5.790589"><ele>377.605</ele><time>2022-09-18T14:13:52Z</time></trkpt><trkpt lat="50.139804" lon="5.790545"><ele>378.015</ele><time>2022-09-18T14:13:53Z</time></trkpt><trkpt lat="50.139960" lon="5.790526"><ele>378.809</ele><time>2022-09-18T14:13:54Z</time></trkpt><trkpt lat="50.140110" lon="5.790520"><ele>379.745</ele><time>2022-09-18T14:13:55Z</time></trkpt><trkpt lat="50.140273" lon="5.790515"><ele>380.765</ele><time>2022-09-18T14:13:56Z</time></trkpt><trkpt lat="50.140409" lon="5.790472"><ele>381.897</ele><time>2022-09-18T14:13:57Z</time></trkpt><trkpt lat="50.140576" lon="5.790429"><ele>382.883</ele><time>2022-09-18T14:13:58Z</time></trkpt><trkpt lat="50.140708" lon="5.790410"><ele>383.618</ele><time>2022-09-18T14:13:59Z</time></trkpt><trkpt lat="50.140840" lon="5.790393"><ele>383.943</ele><time>2022-09-18T14:14:00Z</time></trkpt><trkpt lat="50.140977" lon="5.790363"><ele>385.578</ele><time>2022-09-18T14:14:01Z</time></trkpt><trkpt lat="50.141114" lon="5.790340"><ele>386.642</ele><time>2022-09-18T14:14:02Z</time></trkpt><trkpt lat="50.141240" lon="5.790310"><ele>387.219</ele><time>2022-09-18T14:14:03Z</time></trkpt><trkpt lat="50.141406" lon="5.790256"><ele>388.439</ele><time>2022-09-18T14:14:04Z</time></trkpt><trkpt lat="50.141556" lon="5.790217"><ele>389.001</ele><time>2022-09-18T14:14:05Z</time></trkpt><trkpt lat="50.141707" lon="5.790157"><ele>389.421</ele><time>2022-09-18T14:14:06Z</time></trkpt><trkpt lat="50.141829" lon="5.790074"><ele>389.609</ele><time>2022-09-18T14:14:07Z</time></trkpt><trkpt lat="50.141940" lon="5.789970"><ele>389.634</ele><time>2022-09-18T14:14:08Z</time></trkpt><trkpt lat="50.142053" lon="5.789845"><ele>389.674</ele><time>2022-09-18T14:14:09Z</time></trkpt><trkpt lat="50.142165" lon="5.789701"><ele>390.336</ele><time>2022-09-18T14:14:10Z</time></trkpt><trkpt lat="50.142275" lon="5.789550"><ele>390.662</ele><time>2022-09-18T14:14:11Z</time></trkpt><trkpt lat="50.142359" lon="5.789376"><ele>391.087</ele><time>2022-09-18T14:14:12Z</time></trkpt><trkpt lat="50.142458" lon="5.789201"><ele>391.622</ele><time>2022-09-18T14:14:13Z</time></trkpt><trkpt lat="50.142523" lon="5.789020"><ele>392.387</ele><time>2022-09-18T14:14:14Z</time></trkpt><trkpt lat="50.142569" lon="5.788810"><ele>392.981</ele><time>2022-09-18T14:14:15Z</time></trkpt><trkpt lat="50.142604" lon="5.788598"><ele>393.588</ele><time>2022-09-18T14:14:16Z</time></trkpt><trkpt lat="50.142632" lon="5.788378"><ele>394.281</ele><time>2022-09-18T14:14:17Z</time></trkpt><trkpt lat="50.142647" lon="5.788159"><ele>395.061</ele><time>2022-09-18T14:14:18Z</time></trkpt><trkpt lat="50.142665" lon="5.787935"><ele>395.817</ele><time>2022-09-18T14:14:19Z</time></trkpt><trkpt lat="50.142673" lon="5.787728"><ele>396.609</ele><time>2022-09-18T14:14:20Z</time></trkpt><trkpt lat="50.142696" lon="5.787522"><ele>397.059</ele><time>2022-09-18T14:14:21Z</time></trkpt><trkpt lat="50.142718" lon="5.787320"><ele>397.729</ele><time>2022-09-18T14:14:22Z</time></trkpt><trkpt lat="50.142743" lon="5.787090"><ele>398.631</ele><time>2022-09-18T14:14:23Z</time></trkpt><trkpt lat="50.142779" lon="5.786863"><ele>399.157</ele><time>2022-09-18T14:14:24Z</time></trkpt><trkpt lat="50.142818" lon="5.786627"><ele>399.672</ele><time>2022-09-18T14:14:25Z</time></trkpt><trkpt lat="50.142856" lon="5.786409"><ele>400.387</ele><time>2022-09-18T14:14:26Z</time></trkpt><trkpt lat="50.142900" lon="5.786202"><ele>401.362</ele><time>2022-09-18T14:14:27Z</time></trkpt><trkpt lat="50.142958" lon="5.785985"><ele>402.456</ele><time>2022-09-18T14:14:28Z</time></trkpt><trkpt lat="50.143020" lon="5.785808"><ele>403.483</ele><time>2022-09-18T14:14:29Z</time></trkpt><trkpt lat="50.143099" lon="5.785617"><ele>404.491</ele><time>2022-09-18T14:14:30Z</time></trkpt><trkpt lat="50.143185" lon="5.785425"><ele>405.381</ele><time>2022-09-18T14:14:31Z</time></trkpt><trkpt lat="50.143280" lon="5.785240"><ele>405.919</ele><time>2022-09-18T14:14:32Z</time></trkpt><trkpt lat="50.143382" lon="5.785080"><ele>406.309</ele><time>2022-09-18T14:14:33Z</time></trkpt><trkpt lat="50.143486" lon="5.784923"><ele>406.910</ele><time>2022-09-18T14:14:34Z</time></trkpt><trkpt lat="50.143613" lon="5.784797"><ele>407.580</ele><time>2022-09-18T14:14:35Z</time></trkpt><trkpt lat="50.143749" lon="5.784668"><ele>408.012</ele><time>2022-09-18T14:14:36Z</time></trkpt><trkpt lat="50.143878" lon="5.784556"><ele>408.538</ele><time>2022-09-18T14:14:37Z</time></trkpt><trkpt lat="50.144017" lon="5.784474"><ele>409.143</ele><time>2022-09-18T14:14:38Z</time></trkpt><trkpt lat="50.144155" lon="5.784419"><ele>409.628</ele><time>2022-09-18T14:14:39Z</time></trkpt><trkpt lat="50.144297" lon="5.784368"><ele>410.063</ele><time>2022-09-18T14:14:40Z</time></trkpt><trkpt lat="50.144448" lon="5.784331"><ele>410.467</ele><time>2022-09-18T14:14:41Z</time></trkpt><trkpt lat="50.144606" lon="5.784306"><ele>410.834</ele><time>2022-09-18T14:14:42Z</time></trkpt><trkpt lat="50.144751" lon="5.784302"><ele>411.249</ele><time>2022-09-18T14:14:43Z</time></trkpt><trkpt lat="50.144912" lon="5.784315"><ele>411.602</ele><time>2022-09-18T14:14:44Z</time></trkpt><trkpt lat="50.145066" lon="5.784351"><ele>412.022</ele><time>2022-09-18T14:14:45Z</time></trkpt><trkpt lat="50.145228" lon="5.784402"><ele>412.609</ele><time>2022-09-18T14:14:46Z</time></trkpt><trkpt lat="50.145383" lon="5.784460"><ele>413.435</ele><time>2022-09-18T14:14:47Z</time></trkpt><trkpt lat="50.145525" lon="5.784511"><ele>414.215</ele><time>2022-09-18T14:14:48Z</time></trkpt><trkpt lat="50.145672" lon="5.784533"><ele>414.987</ele><time>2022-09-18T14:14:49Z</time></trkpt><trkpt lat="50.145829" lon="5.784578"><ele>415.513</ele><time>2022-09-18T14:14:50Z</time></trkpt><trkpt lat="50.145967" lon="5.784618"><ele>416.088</ele><time>2022-09-18T14:14:51Z</time></trkpt><trkpt lat="50.146111" lon="5.784677"><ele>416.593</ele><time>2022-09-18T14:14:52Z</time></trkpt><trkpt lat="50.146286" lon="5.784717"><ele>417.178</ele><time>2022-09-18T14:14:53Z</time></trkpt><trkpt lat="50.146462" lon="5.784779"><ele>417.992</ele><time>2022-09-18T14:14:54Z</time></trkpt><trkpt lat="50.146652" lon="5.784849"><ele>419.099</ele><time>2022-09-18T14:14:55Z</time></trkpt><trkpt lat="50.146824" lon="5.784881"><ele>420.123</ele><time>2022-09-18T14:14:56Z</time></trkpt><trkpt lat="50.146972" lon="5.784939"><ele>421.283</ele><time>2022-09-18T14:14:57Z</time></trkpt><trkpt lat="50.147119" lon="5.784995"><ele>422.311</ele><time>2022-09-18T14:14:58Z</time></trkpt><trkpt lat="50.147272" lon="5.785059"><ele>423.409</ele><time>2022-09-18T14:14:59Z</time></trkpt><trkpt lat="50.147441" lon="5.785127"><ele>424.533</ele><time>2022-09-18T14:15:00Z</time></trkpt><trkpt lat="50.147608" lon="5.785146"><ele>425.923</ele><time>2022-09-18T14:15:01Z</time></trkpt><trkpt lat="50.147758" lon="5.785185"><ele>427.365</ele><time>2022-09-18T14:15:02Z</time></trkpt><trkpt lat="50.147912" lon="5.785226"><ele>428.311</ele><time>2022-09-18T14:15:03Z</time></trkpt><trkpt lat="50.148072" lon="5.785194"><ele>429.116</ele><time>2022-09-18T14:15:04Z</time></trkpt><trkpt lat="50.148234" lon="5.785182"><ele>430.031</ele><time>2022-09-18T14:15:05Z</time></trkpt><trkpt lat="50.148393" lon="5.785152"><ele>430.826</ele><time>2022-09-18T14:15:06Z</time></trkpt><trkpt lat="50.148559" lon="5.785116"><ele>431.580</ele><time>2022-09-18T14:15:07Z</time></trkpt><trkpt lat="50.148722" lon="5.785081"><ele>432.647</ele><time>2022-09-18T14:15:08Z</time></trkpt><trkpt lat="50.148892" lon="5.785070"><ele>434.078</ele><time>2022-09-18T14:15:09Z</time></trkpt><trkpt lat="50.149044" lon="5.785019"><ele>435.433</ele><time>2022-09-18T14:15:10Z</time></trkpt><trkpt lat="50.149203" lon="5.784987"><ele>436.826</ele><time>2022-09-18T14:15:11Z</time></trkpt><trkpt lat="50.149360" lon="5.784953"><ele>438.209</ele><time>2022-09-18T14:15:12Z</time></trkpt><trkpt lat="50.149520" lon="5.784913"><ele>439.428</ele><time>2022-09-18T14:15:13Z</time></trkpt><trkpt lat="50.149674" lon="5.784871"><ele>440.578</ele><time>2022-09-18T14:15:14Z</time></trkpt><trkpt lat="50.149837" lon="5.784823"><ele>441.580</ele><time>2022-09-18T14:15:15Z</time></trkpt><trkpt lat="50.149990" lon="5.784785"><ele>442.496</ele><time>2022-09-18T14:15:16Z</time></trkpt><trkpt lat="50.150145" lon="5.784745"><ele>443.371</ele><time>2022-09-18T14:15:17Z</time></trkpt><trkpt lat="50.150302" lon="5.784713"><ele>444.146</ele><time>2022-09-18T14:15:18Z</time></trkpt><trkpt lat="50.150466" lon="5.784684"><ele>444.851</ele><time>2022-09-18T14:15:19Z</time></trkpt><trkpt lat="50.150632" lon="5.784648"><ele>445.565</ele><time>2022-09-18T14:15:20Z</time></trkpt><trkpt lat="50.150785" lon="5.784609"><ele>446.472</ele><time>2022-09-18T14:15:21Z</time></trkpt><trkpt lat="50.150953" lon="5.784562"><ele>447.378</ele><time>2022-09-18T14:15:22Z</time></trkpt><trkpt lat="50.151096" lon="5.784559"><ele>448.133</ele><time>2022-09-18T14:15:23Z</time></trkpt><trkpt lat="50.151252" lon="5.784526"><ele>448.726</ele><time>2022-09-18T14:15:24Z</time></trkpt><trkpt lat="50.151423" lon="5.784491"><ele>449.109</ele><time>2022-09-18T14:15:25Z</time></trkpt><trkpt lat="50.151593" lon="5.784456"><ele>449.338</ele><time>2022-09-18T14:15:26Z</time></trkpt><trkpt lat="50.151753" lon="5.784424"><ele>449.438</ele><time>2022-09-18T14:15:27Z</time></trkpt><trkpt lat="50.151913" lon="5.784391"><ele>449.790</ele><time>2022-09-18T14:15:28Z</time></trkpt><trkpt lat="50.152074" lon="5.784358"><ele>450.326</ele><time>2022-09-18T14:15:29Z</time></trkpt><trkpt lat="50.152240" lon="5.784324"><ele>451.061</ele><time>2022-09-18T14:15:30Z</time></trkpt><trkpt lat="50.152410" lon="5.784289"><ele>451.946</ele><time>2022-09-18T14:15:31Z</time></trkpt><trkpt lat="50.152571" lon="5.784258"><ele>452.831</ele><time>2022-09-18T14:15:32Z</time></trkpt><trkpt lat="50.152744" lon="5.784227"><ele>453.885</ele><time>2022-09-18T14:15:33Z</time></trkpt><trkpt lat="50.152922" lon="5.784195"><ele>455.012</ele><time>2022-09-18T14:15:34Z</time></trkpt><trkpt lat="50.153098" lon="5.784163"><ele>456.122</ele><time>2022-09-18T14:15:35Z</time></trkpt><trkpt lat="50.153274" lon="5.784129"><ele>457.162</ele><time>2022-09-18T14:15:36Z</time></trkpt><trkpt lat="50.153438" lon="5.784097"><ele>458.208</ele><time>2022-09-18T14:15:37Z</time></trkpt><trkpt lat="50.153587" lon="5.784068"><ele>459.309</ele><time>2022-09-18T14:15:38Z</time></trkpt><trkpt lat="50.153748" lon="5.784036"><ele>460.493</ele><time>2022-09-18T14:15:39Z</time></trkpt><trkpt lat="50.153919" lon="5.784002"><ele>461.683</ele><time>2022-09-18T14:15:40Z</time></trkpt><trkpt lat="50.154081" lon="5.783970"><ele>463.115</ele><time>2022-09-18T14:15:41Z</time></trkpt><trkpt lat="50.154265" lon="5.783931"><ele>464.611</ele><time>2022-09-18T14:15:42Z</time></trkpt><trkpt lat="50.154447" lon="5.783892"><ele>465.966</ele><time>2022-09-18T14:15:43Z</time></trkpt><trkpt lat="50.154626" lon="5.783854"><ele>467.091</ele><time>2022-09-18T14:15:44Z</time></trkpt><trkpt lat="50.154810" lon="5.783815"><ele>467.886</ele><time>2022-09-18T14:15:45Z</time></trkpt><trkpt lat="50.155003" lon="5.783777"><ele>468.410</ele><time>2022-09-18T14:15:46Z</time></trkpt><trkpt lat="50.155199" lon="5.783739"><ele>468.737</ele><time>2022-09-18T14:15:47Z</time></trkpt><trkpt lat="50.155390" lon="5.783675"><ele>468.915</ele><time>2022-09-18T14:15:48Z</time></trkpt><trkpt lat="50.155571" lon="5.783640"><ele>469.365</ele><time>2022-09-18T14:15:49Z</time></trkpt><trkpt lat="50.155763" lon="5.783604"><ele>470.011</ele><time>2022-09-18T14:15:50Z</time></trkpt><trkpt lat="50.155948" lon="5.783565"><ele>470.709</ele><time>2022-09-18T14:15:51Z</time></trkpt><trkpt lat="50.156136" lon="5.783528"><ele>471.342</ele><time>2022-09-18T14:15:52Z</time></trkpt><trkpt lat="50.156331" lon="5.783490"><ele>472.012</ele><time>2022-09-18T14:15:53Z</time></trkpt><trkpt lat="50.156522" lon="5.783452"><ele>472.944</ele><time>2022-09-18T14:15:54Z</time></trkpt><trkpt lat="50.156714" lon="5.783414"><ele>473.690</ele><time>2022-09-18T14:15:55Z</time></trkpt><trkpt lat="50.156899" lon="5.783376"><ele>474.135</ele><time>2022-09-18T14:15:56Z</time></trkpt><trkpt lat="50.157091" lon="5.783350"><ele>474.890</ele><time>2022-09-18T14:15:57Z</time></trkpt><trkpt lat="50.157284" lon="5.783307"><ele>475.765</ele><time>2022-09-18T14:15:58Z</time></trkpt><trkpt lat="50.157480" lon="5.783262"><ele>476.379</ele><time>2022-09-18T14:15:59Z</time></trkpt><trkpt lat="50.157670" lon="5.783215"><ele>476.696</ele><time>2022-09-18T14:16:00Z</time></trkpt><trkpt lat="50.157860" lon="5.783216"><ele>476.894</ele><time>2022-09-18T14:16:01Z</time></trkpt><trkpt lat="50.158063" lon="5.783171"><ele>476.957</ele><time>2022-09-18T14:16:02Z</time></trkpt><trkpt lat="50.158273" lon="5.783126"><ele>476.822</ele><time>2022-09-18T14:16:03Z</time></trkpt><trkpt lat="50.158484" lon="5.783083"><ele>476.509</ele><time>2022-09-18T14:16:04Z</time></trkpt><trkpt lat="50.158687" lon="5.783044"><ele>476.440</ele><time>2022-09-18T14:16:05Z</time></trkpt><trkpt lat="50.158887" lon="5.783008"><ele>476.530</ele><time>2022-09-18T14:16:06Z</time></trkpt><trkpt lat="50.159082" lon="5.782963"><ele>476.972</ele><time>2022-09-18T14:16:07Z</time></trkpt><trkpt lat="50.159286" lon="5.782912"><ele>477.438</ele><time>2022-09-18T14:16:08Z</time></trkpt><trkpt lat="50.159483" lon="5.782863"><ele>477.843</ele><time>2022-09-18T14:16:09Z</time></trkpt><trkpt lat="50.159678" lon="5.782821"><ele>477.948</ele><time>2022-09-18T14:16:10Z</time></trkpt><trkpt lat="50.159869" lon="5.782775"><ele>477.973</ele><time>2022-09-18T14:16:11Z</time></trkpt><trkpt lat="50.160066" lon="5.782730"><ele>477.857</ele><time>2022-09-18T14:16:12Z</time></trkpt><trkpt lat="50.160264" lon="5.782691"><ele>477.554</ele><time>2022-09-18T14:16:13Z</time></trkpt><trkpt lat="50.160467" lon="5.782645"><ele>477.223</ele><time>2022-09-18T14:16:14Z</time></trkpt><trkpt lat="50.160668" lon="5.782604"><ele>476.983</ele><time>2022-09-18T14:16:15Z</time></trkpt><trkpt lat="50.160869" lon="5.782566"><ele>476.711</ele><time>2022-09-18T14:16:16Z</time></trkpt><trkpt lat="50.161063" lon="5.782534"><ele>476.609</ele><time>2022-09-18T14:16:17Z</time></trkpt><trkpt lat="50.161251" lon="5.782499"><ele>476.823</ele><time>2022-09-18T14:16:18Z</time></trkpt><trkpt lat="50.161448" lon="5.782448"><ele>477.363</ele><time>2022-09-18T14:16:19Z</time></trkpt><trkpt lat="50.161637" lon="5.782416"><ele>478.035</ele><time>2022-09-18T14:16:20Z</time></trkpt><trkpt lat="50.161843" lon="5.782375"><ele>478.871</ele><time>2022-09-18T14:16:21Z</time></trkpt><trkpt lat="50.162031" lon="5.782338"><ele>479.526</ele><time>2022-09-18T14:16:22Z</time></trkpt><trkpt lat="50.162228" lon="5.782295"><ele>480.161</ele><time>2022-09-18T14:16:23Z</time></trkpt><trkpt lat="50.162412" lon="5.782254"><ele>481.086</ele><time>2022-09-18T14:16:24Z</time></trkpt><trkpt lat="50.162595" lon="5.782209"><ele>482.190</ele><time>2022-09-18T14:16:25Z</time></trkpt><trkpt lat="50.162786" lon="5.782170"><ele>483.347</ele><time>2022-09-18T14:16:26Z</time></trkpt><trkpt lat="50.162973" lon="5.782138"><ele>484.844</ele><time>2022-09-18T14:16:27Z</time></trkpt><trkpt lat="50.163160" lon="5.782105"><ele>486.105</ele><time>2022-09-18T14:16:28Z</time></trkpt><trkpt lat="50.163344" lon="5.782069"><ele>486.915</ele><time>2022-09-18T14:16:29Z</time></trkpt><trkpt lat="50.163534" lon="5.782037"><ele>487.309</ele><time>2022-09-18T14:16:30Z</time></trkpt><trkpt lat="50.163720" lon="5.782005"><ele>487.575</ele><time>2022-09-18T14:16:31Z</time></trkpt><trkpt lat="50.163916" lon="5.781977"><ele>487.555</ele><time>2022-09-18T14:16:32Z</time></trkpt><trkpt lat="50.164109" lon="5.781944"><ele>487.637</ele><time>2022-09-18T14:16:33Z</time></trkpt><trkpt lat="50.164304" lon="5.781925"><ele>487.933</ele><time>2022-09-18T14:16:34Z</time></trkpt><trkpt lat="50.164492" lon="5.781914"><ele>488.178</ele><time>2022-09-18T14:16:35Z</time></trkpt><trkpt lat="50.164685" lon="5.781894"><ele>488.273</ele><time>2022-09-18T14:16:36Z</time></trkpt><trkpt lat="50.164879" lon="5.781875"><ele>488.238</ele><time>2022-09-18T14:16:37Z</time></trkpt><trkpt lat="50.165072" lon="5.781859"><ele>488.182</ele><time>2022-09-18T14:16:38Z</time></trkpt><trkpt lat="50.165258" lon="5.781839"><ele>488.099</ele><time>2022-09-18T14:16:39Z</time></trkpt><trkpt lat="50.165440" lon="5.781821"><ele>488.091</ele><time>2022-09-18T14:16:40Z</time></trkpt><trkpt lat="50.165620" lon="5.781814"><ele>488.081</ele><time>2022-09-18T14:16:41Z</time></trkpt><trkpt lat="50.165783" lon="5.781809"><ele>487.719</ele><time>2022-09-18T14:16:42Z</time></trkpt><trkpt lat="50.165941" lon="5.781810"><ele>486.709</ele><time>2022-09-18T14:16:43Z</time></trkpt><trkpt lat="50.166103" lon="5.781805"><ele>485.140</ele><time>2022-09-18T14:16:44Z</time></trkpt><trkpt lat="50.166258" lon="5.781793"><ele>483.270</ele><time>2022-09-18T14:16:45Z</time></trkpt><trkpt lat="50.166408" lon="5.781800"><ele>481.212</ele><time>2022-09-18T14:16:46Z</time></trkpt><trkpt lat="50.166564" lon="5.781785"><ele>479.248</ele><time>2022-09-18T14:16:47Z</time></trkpt><trkpt lat="50.166728" lon="5.781778"><ele>477.663</ele><time>2022-09-18T14:16:48Z</time></trkpt><trkpt lat="50.166901" lon="5.781769"><ele>476.588</ele><time>2022-09-18T14:16:49Z</time></trkpt><trkpt lat="50.167072" lon="5.781760"><ele>475.763</ele><time>2022-09-18T14:16:50Z</time></trkpt><trkpt lat="50.167256" lon="5.781742"><ele>475.297</ele><time>2022-09-18T14:16:51Z</time></trkpt><trkpt lat="50.167438" lon="5.781728"><ele>475.094</ele><time>2022-09-18T14:16:52Z</time></trkpt><trkpt lat="50.167632" lon="5.781724"><ele>475.143</ele><time>2022-09-18T14:16:53Z</time></trkpt><trkpt lat="50.167822" lon="5.781708"><ele>475.264</ele><time>2022-09-18T14:16:54Z</time></trkpt><trkpt lat="50.168014" lon="5.781696"><ele>475.210</ele><time>2022-09-18T14:16:55Z</time></trkpt><trkpt lat="50.168195" lon="5.781690"><ele>474.909</ele><time>2022-09-18T14:16:56Z</time></trkpt><trkpt lat="50.168370" lon="5.781687"><ele>474.235</ele><time>2022-09-18T14:16:57Z</time></trkpt><trkpt lat="50.168561" lon="5.781680"><ele>473.155</ele><time>2022-09-18T14:16:58Z</time></trkpt><trkpt lat="50.168752" lon="5.781670"><ele>471.757</ele><time>2022-09-18T14:16:59Z</time></trkpt><trkpt lat="50.168938" lon="5.781667"><ele>470.393</ele><time>2022-09-18T14:17:00Z</time></trkpt><trkpt lat="50.169117" lon="5.781659"><ele>469.098</ele><time>2022-09-18T14:17:01Z</time></trkpt><trkpt lat="50.169291" lon="5.781662"><ele>467.823</ele><time>2022-09-18T14:17:02Z</time></trkpt><trkpt lat="50.169481" lon="5.781657"><ele>466.828</ele><time>2022-09-18T14:17:03Z</time></trkpt><trkpt lat="50.169644" lon="5.781654"><ele>465.982</ele><time>2022-09-18T14:17:04Z</time></trkpt><trkpt lat="50.169795" lon="5.781656"><ele>464.859</ele><time>2022-09-18T14:17:05Z</time></trkpt><trkpt lat="50.169956" lon="5.781646"><ele>463.393</ele><time>2022-09-18T14:17:06Z</time></trkpt><trkpt lat="50.170116" lon="5.781629"><ele>461.665</ele><time>2022-09-18T14:17:07Z</time></trkpt><trkpt lat="50.170277" lon="5.781615"><ele>460.121</ele><time>2022-09-18T14:17:08Z</time></trkpt><trkpt lat="50.170440" lon="5.781591"><ele>458.709</ele><time>2022-09-18T14:17:09Z</time></trkpt><trkpt lat="50.170628" lon="5.781584"><ele>457.250</ele><time>2022-09-18T14:17:10Z</time></trkpt><trkpt lat="50.170802" lon="5.781596"><ele>456.110</ele><time>2022-09-18T14:17:11Z</time></trkpt><trkpt lat="50.170980" lon="5.781606"><ele>455.452</ele><time>2022-09-18T14:17:12Z</time></trkpt><trkpt lat="50.171136" lon="5.781597"><ele>454.658</ele><time>2022-09-18T14:17:13Z</time></trkpt><trkpt lat="50.171292" lon="5.781597"><ele>453.543</ele><time>2022-09-18T14:17:14Z</time></trkpt><trkpt lat="50.171471" lon="5.781582"><ele>452.518</ele><time>2022-09-18T14:17:15Z</time></trkpt><trkpt lat="50.171653" lon="5.781549"><ele>451.733</ele><time>2022-09-18T14:17:16Z</time></trkpt><trkpt lat="50.171832" lon="5.781544"><ele>450.777</ele><time>2022-09-18T14:17:17Z</time></trkpt><trkpt lat="50.172016" lon="5.781533"><ele>449.664</ele><time>2022-09-18T14:17:18Z</time></trkpt><trkpt lat="50.172195" lon="5.781518"><ele>448.796</ele><time>2022-09-18T14:17:19Z</time></trkpt><trkpt lat="50.172369" lon="5.781516"><ele>447.931</ele><time>2022-09-18T14:17:20Z</time></trkpt><trkpt lat="50.172529" lon="5.781502"><ele>446.924</ele><time>2022-09-18T14:17:21Z</time></trkpt><trkpt lat="50.172697" lon="5.781503"><ele>445.809</ele><time>2022-09-18T14:17:22Z</time></trkpt><trkpt lat="50.172858" lon="5.781506"><ele>445.050</ele><time>2022-09-18T14:17:23Z</time></trkpt><trkpt lat="50.173012" lon="5.781498"><ele>444.350</ele><time>2022-09-18T14:17:24Z</time></trkpt><trkpt lat="50.173163" lon="5.781489"><ele>443.792</ele><time>2022-09-18T14:17:25Z</time></trkpt><trkpt lat="50.173326" lon="5.781480"><ele>443.538</ele><time>2022-09-18T14:17:26Z</time></trkpt><trkpt lat="50.173485" lon="5.781478"><ele>443.623</ele><time>2022-09-18T14:17:27Z</time></trkpt><trkpt lat="50.173656" lon="5.781456"><ele>443.818</ele><time>2022-09-18T14:17:28Z</time></trkpt><trkpt lat="50.173808" lon="5.781458"><ele>444.213</ele><time>2022-09-18T14:17:29Z</time></trkpt><trkpt lat="50.173971" lon="5.781447"><ele>444.877</ele><time>2022-09-18T14:17:30Z</time></trkpt><trkpt lat="50.174133" lon="5.781440"><ele>445.424</ele><time>2022-09-18T14:17:31Z</time></trkpt><trkpt lat="50.174290" lon="5.781436"><ele>445.969</ele><time>2022-09-18T14:17:32Z</time></trkpt><trkpt lat="50.174460" lon="5.781428"><ele>446.404</ele><time>2022-09-18T14:17:33Z</time></trkpt><trkpt lat="50.174619" lon="5.781422"><ele>447.024</ele><time>2022-09-18T14:17:34Z</time></trkpt><trkpt lat="50.174779" lon="5.781413"><ele>447.609</ele><time>2022-09-18T14:17:35Z</time></trkpt><trkpt lat="50.174941" lon="5.781408"><ele>448.157</ele><time>2022-09-18T14:17:36Z</time></trkpt><trkpt lat="50.175107" lon="5.781403"><ele>448.667</ele><time>2022-09-18T14:17:37Z</time></trkpt><trkpt lat="50.175270" lon="5.781386"><ele>449.239</ele><time>2022-09-18T14:17:38Z</time></trkpt><trkpt lat="50.175432" lon="5.781381"><ele>449.785</ele><time>2022-09-18T14:17:39Z</time></trkpt><trkpt lat="50.175600" lon="5.781369"><ele>450.210</ele><time>2022-09-18T14:17:40Z</time></trkpt><trkpt lat="50.175760" lon="5.781355"><ele>450.815</ele><time>2022-09-18T14:17:41Z</time></trkpt><trkpt lat="50.175919" lon="5.781344"><ele>451.580</ele><time>2022-09-18T14:17:42Z</time></trkpt><trkpt lat="50.176089" lon="5.781331"><ele>452.124</ele><time>2022-09-18T14:17:43Z</time></trkpt><trkpt lat="50.176250" lon="5.781321"><ele>452.791</ele><time>2022-09-18T14:17:44Z</time></trkpt><trkpt lat="50.176414" lon="5.781314"><ele>453.275</ele><time>2022-09-18T14:17:45Z</time></trkpt><trkpt lat="50.176579" lon="5.781301"><ele>453.628</ele><time>2022-09-18T14:17:46Z</time></trkpt><trkpt lat="50.176746" lon="5.781285"><ele>454.220</ele><time>2022-09-18T14:17:47Z</time></trkpt><trkpt lat="50.176907" lon="5.781275"><ele>454.909</ele><time>2022-09-18T14:17:48Z</time></trkpt><trkpt lat="50.177070" lon="5.781266"><ele>455.568</ele><time>2022-09-18T14:17:49Z</time></trkpt><trkpt lat="50.177242" lon="5.781264"><ele>456.118</ele><time>2022-09-18T14:17:50Z</time></trkpt><trkpt lat="50.177407" lon="5.781260"><ele>456.920</ele><time>2022-09-18T14:17:51Z</time></trkpt><trkpt lat="50.177565" lon="5.781249"><ele>457.556</ele><time>2022-09-18T14:17:52Z</time></trkpt><trkpt lat="50.177726" lon="5.781236"><ele>458.081</ele><time>2022-09-18T14:17:53Z</time></trkpt><trkpt lat="50.177893" lon="5.781228"><ele>458.676</ele><time>2022-09-18T14:17:54Z</time></trkpt><trkpt lat="50.178051" lon="5.781219"><ele>459.211</ele><time>2022-09-18T14:17:55Z</time></trkpt><trkpt lat="50.178212" lon="5.781226"><ele>459.845</ele><time>2022-09-18T14:17:56Z</time></trkpt><trkpt lat="50.178380" lon="5.781240"><ele>460.562</ele><time>2022-09-18T14:17:57Z</time></trkpt><trkpt lat="50.178546" lon="5.781268"><ele>461.261</ele><time>2022-09-18T14:17:58Z</time></trkpt><trkpt lat="50.178708" lon="5.781329"><ele>462.021</ele><time>2022-09-18T14:17:59Z</time></trkpt><trkpt lat="50.178864" lon="5.781393"><ele>462.813</ele><time>2022-09-18T14:18:00Z</time></trkpt><trkpt lat="50.179025" lon="5.781474"><ele>463.509</ele><time>2022-09-18T14:18:01Z</time></trkpt><trkpt lat="50.179166" lon="5.781574"><ele>464.167</ele><time>2022-09-18T14:18:02Z</time></trkpt><trkpt lat="50.179301" lon="5.781681"><ele>464.517</ele><time>2022-09-18T14:18:03Z</time></trkpt><trkpt lat="50.179465" lon="5.781823"><ele>464.719</ele><time>2022-09-18T14:18:04Z</time></trkpt><trkpt lat="50.179613" lon="5.781980"><ele>464.685</ele><time>2022-09-18T14:18:05Z</time></trkpt><trkpt lat="50.179765" lon="5.782127"><ele>464.530</ele><time>2022-09-18T14:18:06Z</time></trkpt><trkpt lat="50.179913" lon="5.782293"><ele>464.335</ele><time>2022-09-18T14:18:07Z</time></trkpt><trkpt lat="50.180068" lon="5.782452"><ele>463.960</ele><time>2022-09-18T14:18:08Z</time></trkpt><trkpt lat="50.180228" lon="5.782594"><ele>463.574</ele><time>2022-09-18T14:18:09Z</time></trkpt><trkpt lat="50.180401" lon="5.782732"><ele>463.361</ele><time>2022-09-18T14:18:10Z</time></trkpt><trkpt lat="50.180560" lon="5.782897"><ele>463.282</ele><time>2022-09-18T14:18:11Z</time></trkpt><trkpt lat="50.180731" lon="5.783036"><ele>463.143</ele><time>2022-09-18T14:18:12Z</time></trkpt><trkpt lat="50.180897" lon="5.783182"><ele>463.017</ele><time>2022-09-18T14:18:13Z</time></trkpt><trkpt lat="50.181058" lon="5.783328"><ele>462.909</ele><time>2022-09-18T14:18:14Z</time></trkpt><trkpt lat="50.181211" lon="5.783494"><ele>462.869</ele><time>2022-09-18T14:18:15Z</time></trkpt><trkpt lat="50.181379" lon="5.783632"><ele>462.789</ele><time>2022-09-18T14:18:16Z</time></trkpt><trkpt lat="50.181530" lon="5.783787"><ele>462.651</ele><time>2022-09-18T14:18:17Z</time></trkpt><trkpt lat="50.181674" lon="5.783955"><ele>462.887</ele><time>2022-09-18T14:18:18Z</time></trkpt><trkpt lat="50.181830" lon="5.784111"><ele>463.482</ele><time>2022-09-18T14:18:19Z</time></trkpt><trkpt lat="50.181984" lon="5.784264"><ele>463.997</ele><time>2022-09-18T14:18:20Z</time></trkpt><trkpt lat="50.182114" lon="5.784411"><ele>464.182</ele><time>2022-09-18T14:18:21Z</time></trkpt><trkpt lat="50.182259" lon="5.784534"><ele>464.456</ele><time>2022-09-18T14:18:22Z</time></trkpt><trkpt lat="50.182425" lon="5.784623"><ele>464.513</ele><time>2022-09-18T14:18:23Z</time></trkpt><trkpt lat="50.182559" lon="5.784708"><ele>464.514</ele><time>2022-09-18T14:18:24Z</time></trkpt><trkpt lat="50.182711" lon="5.784780"><ele>464.854</ele><time>2022-09-18T14:18:25Z</time></trkpt><trkpt lat="50.182845" lon="5.784890"><ele>465.409</ele><time>2022-09-18T14:18:26Z</time></trkpt><trkpt lat="50.182986" lon="5.784935"><ele>466.209</ele><time>2022-09-18T14:18:27Z</time></trkpt><trkpt lat="50.183136" lon="5.784981"><ele>467.312</ele><time>2022-09-18T14:18:28Z</time></trkpt><trkpt lat="50.183309" lon="5.785023"><ele>468.532</ele><time>2022-09-18T14:18:29Z</time></trkpt><trkpt lat="50.183471" lon="5.785050"><ele>469.684</ele><time>2022-09-18T14:18:30Z</time></trkpt><trkpt lat="50.183620" lon="5.785061"><ele>470.790</ele><time>2022-09-18T14:18:31Z</time></trkpt><trkpt lat="50.183776" lon="5.785057"><ele>471.715</ele><time>2022-09-18T14:18:32Z</time></trkpt><trkpt lat="50.183934" lon="5.785038"><ele>472.660</ele><time>2022-09-18T14:18:33Z</time></trkpt><trkpt lat="50.184111" lon="5.785015"><ele>473.775</ele><time>2022-09-18T14:18:34Z</time></trkpt><trkpt lat="50.184264" lon="5.784979"><ele>474.889</ele><time>2022-09-18T14:18:35Z</time></trkpt><trkpt lat="50.184406" lon="5.784926"><ele>475.976</ele><time>2022-09-18T14:18:36Z</time></trkpt><trkpt lat="50.184555" lon="5.784879"><ele>477.284</ele><time>2022-09-18T14:18:37Z</time></trkpt><trkpt lat="50.184692" lon="5.784799"><ele>478.307</ele><time>2022-09-18T14:18:38Z</time></trkpt><trkpt lat="50.184848" lon="5.784720"><ele>479.217</ele><time>2022-09-18T14:18:39Z</time></trkpt><trkpt lat="50.184991" lon="5.784619"><ele>480.109</ele><time>2022-09-18T14:18:40Z</time></trkpt><trkpt lat="50.185133" lon="5.784510"><ele>481.149</ele><time>2022-09-18T14:18:41Z</time></trkpt><trkpt lat="50.185274" lon="5.784399"><ele>482.149</ele><time>2022-09-18T14:18:42Z</time></trkpt><trkpt lat="50.185407" lon="5.784277"><ele>483.281</ele><time>2022-09-18T14:18:43Z</time></trkpt><trkpt lat="50.185545" lon="5.784152"><ele>484.677</ele><time>2022-09-18T14:18:44Z</time></trkpt><trkpt lat="50.185677" lon="5.784021"><ele>486.072</ele><time>2022-09-18T14:18:45Z</time></trkpt><trkpt lat="50.185811" lon="5.783898"><ele>487.477</ele><time>2022-09-18T14:18:46Z</time></trkpt><trkpt lat="50.185945" lon="5.783777"><ele>488.892</ele><time>2022-09-18T14:18:47Z</time></trkpt><trkpt lat="50.186088" lon="5.783666"><ele>490.066</ele><time>2022-09-18T14:18:48Z</time></trkpt><trkpt lat="50.186221" lon="5.783552"><ele>491.093</ele><time>2022-09-18T14:18:49Z</time></trkpt><trkpt lat="50.186357" lon="5.783425"><ele>491.959</ele><time>2022-09-18T14:18:50Z</time></trkpt><trkpt lat="50.186489" lon="5.783308"><ele>492.803</ele><time>2022-09-18T14:18:51Z</time></trkpt><trkpt lat="50.186624" lon="5.783201"><ele>493.623</ele><time>2022-09-18T14:18:52Z</time></trkpt><trkpt lat="50.186755" lon="5.783075"><ele>494.409</ele><time>2022-09-18T14:18:53Z</time></trkpt><trkpt lat="50.186887" lon="5.782939"><ele>495.276</ele><time>2022-09-18T14:18:54Z</time></trkpt><trkpt lat="50.187021" lon="5.782819"><ele>496.196</ele><time>2022-09-18T14:18:55Z</time></trkpt><trkpt lat="50.187154" lon="5.782705"><ele>497.168</ele><time>2022-09-18T14:18:56Z</time></trkpt><trkpt lat="50.187297" lon="5.782575"><ele>498.064</ele><time>2022-09-18T14:18:57Z</time></trkpt><trkpt lat="50.187429" lon="5.782439"><ele>498.999</ele><time>2022-09-18T14:18:58Z</time></trkpt><trkpt lat="50.187576" lon="5.782345"><ele>499.784</ele><time>2022-09-18T14:18:59Z</time></trkpt><trkpt lat="50.187716" lon="5.782221"><ele>500.419</ele><time>2022-09-18T14:19:00Z</time></trkpt><trkpt lat="50.187857" lon="5.782094"><ele>500.983</ele><time>2022-09-18T14:19:01Z</time></trkpt><trkpt lat="50.187990" lon="5.781936"><ele>501.480</ele><time>2022-09-18T14:19:02Z</time></trkpt><trkpt lat="50.188135" lon="5.781811"><ele>502.011</ele><time>2022-09-18T14:19:03Z</time></trkpt><trkpt lat="50.188271" lon="5.781663"><ele>503.121</ele><time>2022-09-18T14:19:04Z</time></trkpt><trkpt lat="50.188414" lon="5.781548"><ele>504.603</ele><time>2022-09-18T14:19:05Z</time></trkpt><trkpt lat="50.188581" lon="5.781503"><ele>506.009</ele><time>2022-09-18T14:19:06Z</time></trkpt><trkpt lat="50.188748" lon="5.781438"><ele>507.252</ele><time>2022-09-18T14:19:07Z</time></trkpt><trkpt lat="50.188901" lon="5.781315"><ele>508.152</ele><time>2022-09-18T14:19:08Z</time></trkpt><trkpt lat="50.189061" lon="5.781191"><ele>508.814</ele><time>2022-09-18T14:19:09Z</time></trkpt><trkpt lat="50.189225" lon="5.781081"><ele>509.280</ele><time>2022-09-18T14:19:10Z</time></trkpt><trkpt lat="50.189394" lon="5.780980"><ele>509.565</ele><time>2022-09-18T14:19:11Z</time></trkpt><trkpt lat="50.189564" lon="5.780917"><ele>510.160</ele><time>2022-09-18T14:19:12Z</time></trkpt><trkpt lat="50.189727" lon="5.780851"><ele>510.925</ele><time>2022-09-18T14:19:13Z</time></trkpt><trkpt lat="50.189892" lon="5.780794"><ele>511.769</ele><time>2022-09-18T14:19:14Z</time></trkpt><trkpt lat="50.190058" lon="5.780716"><ele>512.546</ele><time>2022-09-18T14:19:15Z</time></trkpt><trkpt lat="50.190228" lon="5.780682"><ele>513.383</ele><time>2022-09-18T14:19:16Z</time></trkpt><trkpt lat="50.190395" lon="5.780636"><ele>514.025</ele><time>2022-09-18T14:19:17Z</time></trkpt><trkpt lat="50.190563" lon="5.780594"><ele>514.417</ele><time>2022-09-18T14:19:18Z</time></trkpt><trkpt lat="50.190741" lon="5.780591"><ele>514.709</ele><time>2022-09-18T14:19:19Z</time></trkpt><trkpt lat="50.190903" lon="5.780559"><ele>515.269</ele><time>2022-09-18T14:19:20Z</time></trkpt><trkpt lat="50.191078" lon="5.780554"><ele>515.799</ele><time>2022-09-18T14:19:21Z</time></trkpt><trkpt lat="50.191245" lon="5.780543"><ele>516.221</ele><time>2022-09-18T14:19:22Z</time></trkpt><trkpt lat="50.191417" lon="5.780534"><ele>516.927</ele><time>2022-09-18T14:19:23Z</time></trkpt><trkpt lat="50.191581" lon="5.780515"><ele>517.572</ele><time>2022-09-18T14:19:24Z</time></trkpt><trkpt lat="50.191746" lon="5.780497"><ele>517.987</ele><time>2022-09-18T14:19:25Z</time></trkpt><trkpt lat="50.191923" lon="5.780493"><ele>518.362</ele><time>2022-09-18T14:19:26Z</time></trkpt><trkpt lat="50.192107" lon="5.780486"><ele>518.826</ele><time>2022-09-18T14:19:27Z</time></trkpt><trkpt lat="50.192281" lon="5.780464"><ele>519.483</ele><time>2022-09-18T14:19:28Z</time></trkpt><trkpt lat="50.192452" lon="5.780468"><ele>520.078</ele><time>2022-09-18T14:19:29Z</time></trkpt><trkpt lat="50.192638" lon="5.780465"><ele>520.633</ele><time>2022-09-18T14:19:30Z</time></trkpt><trkpt lat="50.192816" lon="5.780464"><ele>521.626</ele><time>2022-09-18T14:19:31Z</time></trkpt><trkpt lat="50.192989" lon="5.780453"><ele>522.709</ele><time>2022-09-18T14:19:32Z</time></trkpt><trkpt lat="50.193158" lon="5.780446"><ele>523.688</ele><time>2022-09-18T14:19:33Z</time></trkpt><trkpt lat="50.193336" lon="5.780427"><ele>524.428</ele><time>2022-09-18T14:19:34Z</time></trkpt><trkpt lat="50.193501" lon="5.780418"><ele>524.840</ele><time>2022-09-18T14:19:35Z</time></trkpt><trkpt lat="50.193675" lon="5.780398"><ele>524.966</ele><time>2022-09-18T14:19:36Z</time></trkpt><trkpt lat="50.193858" lon="5.780408"><ele>525.281</ele><time>2022-09-18T14:19:37Z</time></trkpt><trkpt lat="50.194033" lon="5.780397"><ele>525.836</ele><time>2022-09-18T14:19:38Z</time></trkpt><trkpt lat="50.194205" lon="5.780388"><ele>526.731</ele><time>2022-09-18T14:19:39Z</time></trkpt><trkpt lat="50.194364" lon="5.780379"><ele>528.055</ele><time>2022-09-18T14:19:40Z</time></trkpt><trkpt lat="50.194536" lon="5.780345"><ele>529.482</ele><time>2022-09-18T14:19:41Z</time></trkpt><trkpt lat="50.194723" lon="5.780342"><ele>530.555</ele><time>2022-09-18T14:19:42Z</time></trkpt><trkpt lat="50.194906" lon="5.780340"><ele>531.507</ele><time>2022-09-18T14:19:43Z</time></trkpt><trkpt lat="50.195077" lon="5.780338"><ele>532.417</ele><time>2022-09-18T14:19:44Z</time></trkpt><trkpt lat="50.195239" lon="5.780344"><ele>533.409</ele><time>2022-09-18T14:19:45Z</time></trkpt><trkpt lat="50.195402" lon="5.780363"><ele>534.546</ele><time>2022-09-18T14:19:46Z</time></trkpt><trkpt lat="50.195592" lon="5.780392"><ele>535.896</ele><time>2022-09-18T14:19:47Z</time></trkpt><trkpt lat="50.195784" lon="5.780415"><ele>537.318</ele><time>2022-09-18T14:19:48Z</time></trkpt><trkpt lat="50.195965" lon="5.780422"><ele>538.744</ele><time>2022-09-18T14:19:49Z</time></trkpt><trkpt lat="50.196133" lon="5.780430"><ele>540.049</ele><time>2022-09-18T14:19:50Z</time></trkpt><trkpt lat="50.196305" lon="5.780398"><ele>541.384</ele><time>2022-09-18T14:19:51Z</time></trkpt><trkpt lat="50.196478" lon="5.780390"><ele>542.269</ele><time>2022-09-18T14:19:52Z</time></trkpt><trkpt lat="50.196649" lon="5.780382"><ele>542.863</ele><time>2022-09-18T14:19:53Z</time></trkpt><trkpt lat="50.196817" lon="5.780374"><ele>543.460</ele><time>2022-09-18T14:19:54Z</time></trkpt><trkpt lat="50.196986" lon="5.780354"><ele>544.092</ele><time>2022-09-18T14:19:55Z</time></trkpt><trkpt lat="50.197152" lon="5.780312"><ele>544.373</ele><time>2022-09-18T14:19:56Z</time></trkpt><trkpt lat="50.197324" lon="5.780303"><ele>544.420</ele><time>2022-09-18T14:19:57Z</time></trkpt><trkpt lat="50.197504" lon="5.780287"><ele>544.509</ele><time>2022-09-18T14:19:58Z</time></trkpt><trkpt lat="50.197689" lon="5.780279"><ele>544.490</ele><time>2022-09-18T14:19:59Z</time></trkpt><trkpt lat="50.197869" lon="5.780250"><ele>544.360</ele><time>2022-09-18T14:20:00Z</time></trkpt><trkpt lat="50.198049" lon="5.780232"><ele>544.412</ele><time>2022-09-18T14:20:01Z</time></trkpt><trkpt lat="50.198237" lon="5.780221"><ele>544.678</ele><time>2022-09-18T14:20:02Z</time></trkpt><trkpt lat="50.198412" lon="5.780211"><ele>544.983</ele><time>2022-09-18T14:20:03Z</time></trkpt><trkpt lat="50.198599" lon="5.780213"><ele>545.458</ele><time>2022-09-18T14:20:04Z</time></trkpt><trkpt lat="50.198783" lon="5.780208"><ele>546.033</ele><time>2022-09-18T14:20:05Z</time></trkpt><trkpt lat="50.198962" lon="5.780206"><ele>546.437</ele><time>2022-09-18T14:20:06Z</time></trkpt><trkpt lat="50.199138" lon="5.780195"><ele>547.054</ele><time>2022-09-18T14:20:07Z</time></trkpt><trkpt lat="50.199318" lon="5.780192"><ele>547.833</ele><time>2022-09-18T14:20:08Z</time></trkpt><trkpt lat="50.199506" lon="5.780200"><ele>548.623</ele><time>2022-09-18T14:20:09Z</time></trkpt><trkpt lat="50.199703" lon="5.780201"><ele>549.415</ele><time>2022-09-18T14:20:10Z</time></trkpt><trkpt lat="50.199895" lon="5.780185"><ele>549.909</ele><time>2022-09-18T14:20:11Z</time></trkpt><trkpt lat="50.200081" lon="5.780150"><ele>550.184</ele><time>2022-09-18T14:20:12Z</time></trkpt><trkpt lat="50.200260" lon="5.780125"><ele>550.424</ele><time>2022-09-18T14:20:13Z</time></trkpt><trkpt lat="50.200435" lon="5.780113"><ele>550.886</ele><time>2022-09-18T14:20:14Z</time></trkpt><trkpt lat="50.200620" lon="5.780096"><ele>551.042</ele><time>2022-09-18T14:20:15Z</time></trkpt><trkpt lat="50.200800" lon="5.780073"><ele>551.487</ele><time>2022-09-18T14:20:16Z</time></trkpt><trkpt lat="50.200976" lon="5.780066"><ele>551.942</ele><time>2022-09-18T14:20:17Z</time></trkpt><trkpt lat="50.201157" lon="5.780076"><ele>552.287</ele><time>2022-09-18T14:20:18Z</time></trkpt><trkpt lat="50.201335" lon="5.780076"><ele>552.561</ele><time>2022-09-18T14:20:19Z</time></trkpt><trkpt lat="50.201505" lon="5.780058"><ele>553.088</ele><time>2022-09-18T14:20:20Z</time></trkpt><trkpt lat="50.201690" lon="5.780034"><ele>553.529</ele><time>2022-09-18T14:20:21Z</time></trkpt><trkpt lat="50.201864" lon="5.779993"><ele>554.000</ele><time>2022-09-18T14:20:22Z</time></trkpt><trkpt lat="50.202050" lon="5.779924"><ele>554.920</ele><time>2022-09-18T14:20:23Z</time></trkpt><trkpt lat="50.202224" lon="5.779858"><ele>555.709</ele><time>2022-09-18T14:20:24Z</time></trkpt><trkpt lat="50.202407" lon="5.779796"><ele>556.313</ele><time>2022-09-18T14:20:25Z</time></trkpt><trkpt lat="50.202588" lon="5.779717"><ele>557.143</ele><time>2022-09-18T14:20:26Z</time></trkpt><trkpt lat="50.202767" lon="5.779649"><ele>557.785</ele><time>2022-09-18T14:20:27Z</time></trkpt><trkpt lat="50.202947" lon="5.779583"><ele>557.811</ele><time>2022-09-18T14:20:28Z</time></trkpt><trkpt lat="50.203146" lon="5.779558"><ele>557.786</ele><time>2022-09-18T14:20:29Z</time></trkpt><trkpt lat="50.203330" lon="5.779490"><ele>557.431</ele><time>2022-09-18T14:20:30Z</time></trkpt><trkpt lat="50.203496" lon="5.779429"><ele>557.056</ele><time>2022-09-18T14:20:31Z</time></trkpt><trkpt lat="50.203675" lon="5.779364"><ele>556.260</ele><time>2022-09-18T14:20:32Z</time></trkpt><trkpt lat="50.203852" lon="5.779298"><ele>555.387</ele><time>2022-09-18T14:20:33Z</time></trkpt><trkpt lat="50.204028" lon="5.779234"><ele>554.942</ele><time>2022-09-18T14:20:34Z</time></trkpt><trkpt lat="50.204201" lon="5.779162"><ele>554.722</ele><time>2022-09-18T14:20:35Z</time></trkpt><trkpt lat="50.204388" lon="5.779090"><ele>554.314</ele><time>2022-09-18T14:20:36Z</time></trkpt><trkpt lat="50.204572" lon="5.779020"><ele>554.009</ele><time>2022-09-18T14:20:37Z</time></trkpt><trkpt lat="50.204753" lon="5.778937"><ele>553.855</ele><time>2022-09-18T14:20:38Z</time></trkpt><trkpt lat="50.204926" lon="5.778882"><ele>553.645</ele><time>2022-09-18T14:20:39Z</time></trkpt><trkpt lat="50.205101" lon="5.778845"><ele>553.387</ele><time>2022-09-18T14:20:40Z</time></trkpt><trkpt lat="50.205284" lon="5.778769"><ele>552.963</ele><time>2022-09-18T14:20:41Z</time></trkpt><trkpt lat="50.205465" lon="5.778694"><ele>552.588</ele><time>2022-09-18T14:20:42Z</time></trkpt><trkpt lat="50.205649" lon="5.778616"><ele>552.313</ele><time>2022-09-18T14:20:43Z</time></trkpt><trkpt lat="50.205839" lon="5.778535"><ele>551.988</ele><time>2022-09-18T14:20:44Z</time></trkpt><trkpt lat="50.206020" lon="5.778476"><ele>551.352</ele><time>2022-09-18T14:20:45Z</time></trkpt><trkpt lat="50.206195" lon="5.778414"><ele>550.959</ele><time>2022-09-18T14:20:46Z</time></trkpt><trkpt lat="50.206376" lon="5.778334"><ele>550.467</ele><time>2022-09-18T14:20:47Z</time></trkpt><trkpt lat="50.206560" lon="5.778252"><ele>549.781</ele><time>2022-09-18T14:20:48Z</time></trkpt><trkpt lat="50.206742" lon="5.778157"><ele>548.919</ele><time>2022-09-18T14:20:49Z</time></trkpt><trkpt lat="50.206920" lon="5.778063"><ele>548.009</ele><time>2022-09-18T14:20:50Z</time></trkpt><trkpt lat="50.207108" lon="5.777990"><ele>547.417</ele><time>2022-09-18T14:20:51Z</time></trkpt><trkpt lat="50.207290" lon="5.777920"><ele>547.177</ele><time>2022-09-18T14:20:52Z</time></trkpt><trkpt lat="50.207462" lon="5.777854"><ele>547.089</ele><time>2022-09-18T14:20:53Z</time></trkpt><trkpt lat="50.207646" lon="5.777784"><ele>546.855</ele><time>2022-09-18T14:20:54Z</time></trkpt><trkpt lat="50.207831" lon="5.777714"><ele>546.550</ele><time>2022-09-18T14:20:55Z</time></trkpt><trkpt lat="50.208015" lon="5.777643"><ele>546.135</ele><time>2022-09-18T14:20:56Z</time></trkpt><trkpt lat="50.208196" lon="5.777573"><ele>545.560</ele><time>2022-09-18T14:20:57Z</time></trkpt><trkpt lat="50.208374" lon="5.777504"><ele>544.774</ele><time>2022-09-18T14:20:58Z</time></trkpt><trkpt lat="50.208555" lon="5.777434"><ele>544.251</ele><time>2022-09-18T14:20:59Z</time></trkpt><trkpt lat="50.208723" lon="5.777355"><ele>544.188</ele><time>2022-09-18T14:21:00Z</time></trkpt><trkpt lat="50.208897" lon="5.777301"><ele>544.224</ele><time>2022-09-18T14:21:01Z</time></trkpt><trkpt lat="50.209069" lon="5.777240"><ele>544.426</ele><time>2022-09-18T14:21:02Z</time></trkpt><trkpt lat="50.209244" lon="5.777176"><ele>544.809</ele><time>2022-09-18T14:21:03Z</time></trkpt><trkpt lat="50.209427" lon="5.777124"><ele>545.419</ele><time>2022-09-18T14:21:04Z</time></trkpt><trkpt lat="50.209608" lon="5.777088"><ele>546.059</ele><time>2022-09-18T14:21:05Z</time></trkpt><trkpt lat="50.209785" lon="5.777038"><ele>546.791</ele><time>2022-09-18T14:21:06Z</time></trkpt><trkpt lat="50.209953" lon="5.777000"><ele>547.657</ele><time>2022-09-18T14:21:07Z</time></trkpt><trkpt lat="50.210117" lon="5.776938"><ele>548.752</ele><time>2022-09-18T14:21:08Z</time></trkpt><trkpt lat="50.210288" lon="5.776862"><ele>549.747</ele><time>2022-09-18T14:21:09Z</time></trkpt><trkpt lat="50.210458" lon="5.776796"><ele>550.592</ele><time>2022-09-18T14:21:10Z</time></trkpt><trkpt lat="50.210628" lon="5.776755"><ele>551.116</ele><time>2022-09-18T14:21:11Z</time></trkpt><trkpt lat="50.210790" lon="5.776645"><ele>551.453</ele><time>2022-09-18T14:21:12Z</time></trkpt><trkpt lat="50.210959" lon="5.776544"><ele>551.522</ele><time>2022-09-18T14:21:13Z</time></trkpt><trkpt lat="50.211121" lon="5.776428"><ele>551.762</ele><time>2022-09-18T14:21:14Z</time></trkpt><trkpt lat="50.211287" lon="5.776357"><ele>552.108</ele><time>2022-09-18T14:21:15Z</time></trkpt><trkpt lat="50.211457" lon="5.776290"><ele>552.609</ele><time>2022-09-18T14:21:16Z</time></trkpt><trkpt lat="50.211611" lon="5.776229"><ele>553.093</ele><time>2022-09-18T14:21:17Z</time></trkpt><trkpt lat="50.211778" lon="5.776164"><ele>553.343</ele><time>2022-09-18T14:21:18Z</time></trkpt><trkpt lat="50.211939" lon="5.776102"><ele>553.655</ele><time>2022-09-18T14:21:19Z</time></trkpt><trkpt lat="50.212108" lon="5.776035"><ele>554.021</ele><time>2022-09-18T14:21:20Z</time></trkpt><trkpt lat="50.212272" lon="5.775971"><ele>554.786</ele><time>2022-09-18T14:21:21Z</time></trkpt><trkpt lat="50.212446" lon="5.775903"><ele>555.581</ele><time>2022-09-18T14:21:22Z</time></trkpt><trkpt lat="50.212616" lon="5.775837"><ele>556.596</ele><time>2022-09-18T14:21:23Z</time></trkpt><trkpt lat="50.212780" lon="5.775756"><ele>557.720</ele><time>2022-09-18T14:21:24Z</time></trkpt><trkpt lat="50.212949" lon="5.775722"><ele>559.147</ele><time>2022-09-18T14:21:25Z</time></trkpt><trkpt lat="50.213118" lon="5.775666"><ele>560.432</ele><time>2022-09-18T14:21:26Z</time></trkpt><trkpt lat="50.213285" lon="5.775613"><ele>561.892</ele><time>2022-09-18T14:21:27Z</time></trkpt><trkpt lat="50.213457" lon="5.775570"><ele>563.211</ele><time>2022-09-18T14:21:28Z</time></trkpt><trkpt lat="50.213628" lon="5.775513"><ele>564.209</ele><time>2022-09-18T14:21:29Z</time></trkpt><trkpt lat="50.213795" lon="5.775458"><ele>564.914</ele><time>2022-09-18T14:21:30Z</time></trkpt><trkpt lat="50.213972" lon="5.775422"><ele>565.664</ele><time>2022-09-18T14:21:31Z</time></trkpt><trkpt lat="50.214136" lon="5.775352"><ele>566.266</ele><time>2022-09-18T14:21:32Z</time></trkpt><trkpt lat="50.214305" lon="5.775285"><ele>566.932</ele><time>2022-09-18T14:21:33Z</time></trkpt><trkpt lat="50.214478" lon="5.775216"><ele>567.847</ele><time>2022-09-18T14:21:34Z</time></trkpt><trkpt lat="50.214645" lon="5.775150"><ele>568.622</ele><time>2022-09-18T14:21:35Z</time></trkpt><trkpt lat="50.214816" lon="5.775082"><ele>569.237</ele><time>2022-09-18T14:21:36Z</time></trkpt><trkpt lat="50.214991" lon="5.775013"><ele>569.671</ele><time>2022-09-18T14:21:37Z</time></trkpt><trkpt lat="50.215166" lon="5.774944"><ele>570.048</ele><time>2022-09-18T14:21:38Z</time></trkpt><trkpt lat="50.215339" lon="5.774894"><ele>570.557</ele><time>2022-09-18T14:21:39Z</time></trkpt><trkpt lat="50.215510" lon="5.774801"><ele>571.300</ele><time>2022-09-18T14:21:40Z</time></trkpt><trkpt lat="50.215684" lon="5.774728"><ele>572.420</ele><time>2022-09-18T14:21:41Z</time></trkpt><trkpt lat="50.215848" lon="5.774659"><ele>573.609</ele><time>2022-09-18T14:21:42Z</time></trkpt><trkpt lat="50.216015" lon="5.774580"><ele>574.826</ele><time>2022-09-18T14:21:43Z</time></trkpt><trkpt lat="50.216179" lon="5.774480"><ele>575.926</ele><time>2022-09-18T14:21:44Z</time></trkpt><trkpt lat="50.216352" lon="5.774444"><ele>576.848</ele><time>2022-09-18T14:21:45Z</time></trkpt><trkpt lat="50.216523" lon="5.774403"><ele>577.564</ele><time>2022-09-18T14:21:46Z</time></trkpt><trkpt lat="50.216698" lon="5.774359"><ele>578.249</ele><time>2022-09-18T14:21:47Z</time></trkpt><trkpt lat="50.216863" lon="5.774296"><ele>578.994</ele><time>2022-09-18T14:21:48Z</time></trkpt><trkpt lat="50.217030" lon="5.774217"><ele>579.559</ele><time>2022-09-18T14:21:49Z</time></trkpt><trkpt lat="50.217202" lon="5.774173"><ele>580.273</ele><time>2022-09-18T14:21:50Z</time></trkpt><trkpt lat="50.217374" lon="5.774082"><ele>581.040</ele><time>2022-09-18T14:21:51Z</time></trkpt><trkpt lat="50.217546" lon="5.774006"><ele>581.786</ele><time>2022-09-18T14:21:52Z</time></trkpt><trkpt lat="50.217718" lon="5.773926"><ele>582.160</ele><time>2022-09-18T14:21:53Z</time></trkpt><trkpt lat="50.217883" lon="5.773846"><ele>582.426</ele><time>2022-09-18T14:21:54Z</time></trkpt><trkpt lat="50.218053" lon="5.773772"><ele>582.809</ele><time>2022-09-18T14:21:55Z</time></trkpt><trkpt lat="50.218225" lon="5.773710"><ele>583.169</ele><time>2022-09-18T14:21:56Z</time></trkpt><trkpt lat="50.218400" lon="5.773663"><ele>583.319</ele><time>2022-09-18T14:21:57Z</time></trkpt><trkpt lat="50.218575" lon="5.773568"><ele>583.841</ele><time>2022-09-18T14:21:58Z</time></trkpt><trkpt lat="50.218751" lon="5.773483"><ele>584.357</ele><time>2022-09-18T14:21:59Z</time></trkpt><trkpt lat="50.218929" lon="5.773407"><ele>584.572</ele><time>2022-09-18T14:22:00Z</time></trkpt><trkpt lat="50.219098" lon="5.773306"><ele>584.577</ele><time>2022-09-18T14:22:01Z</time></trkpt><trkpt lat="50.219270" lon="5.773223"><ele>584.532</ele><time>2022-09-18T14:22:02Z</time></trkpt><trkpt lat="50.219442" lon="5.773151"><ele>584.476</ele><time>2022-09-18T14:22:03Z</time></trkpt><trkpt lat="50.219616" lon="5.773076"><ele>584.253</ele><time>2022-09-18T14:22:04Z</time></trkpt><trkpt lat="50.219787" lon="5.772986"><ele>584.087</ele><time>2022-09-18T14:22:05Z</time></trkpt><trkpt lat="50.219956" lon="5.772939"><ele>584.142</ele><time>2022-09-18T14:22:06Z</time></trkpt><trkpt lat="50.220127" lon="5.772871"><ele>584.326</ele><time>2022-09-18T14:22:07Z</time></trkpt><trkpt lat="50.220302" lon="5.772801"><ele>584.509</ele><time>2022-09-18T14:22:08Z</time></trkpt><trkpt lat="50.220472" lon="5.772733"><ele>584.919</ele><time>2022-09-18T14:22:09Z</time></trkpt><trkpt lat="50.220651" lon="5.772661"><ele>585.539</ele><time>2022-09-18T14:22:10Z</time></trkpt><trkpt lat="50.220822" lon="5.772592"><ele>586.151</ele><time>2022-09-18T14:22:11Z</time></trkpt><trkpt lat="50.220993" lon="5.772496"><ele>586.747</ele><time>2022-09-18T14:22:12Z</time></trkpt><trkpt lat="50.221179" lon="5.772463"><ele>587.352</ele><time>2022-09-18T14:22:13Z</time></trkpt><trkpt lat="50.221360" lon="5.772410"><ele>587.677</ele><time>2022-09-18T14:22:14Z</time></trkpt><trkpt lat="50.221532" lon="5.772342"><ele>587.962</ele><time>2022-09-18T14:22:15Z</time></trkpt><trkpt lat="50.221704" lon="5.772277"><ele>588.216</ele><time>2022-09-18T14:22:16Z</time></trkpt><trkpt lat="50.221877" lon="5.772204"><ele>588.433</ele><time>2022-09-18T14:22:17Z</time></trkpt><trkpt lat="50.222053" lon="5.772149"><ele>588.686</ele><time>2022-09-18T14:22:18Z</time></trkpt><trkpt lat="50.222226" lon="5.772092"><ele>588.660</ele><time>2022-09-18T14:22:19Z</time></trkpt><trkpt lat="50.222403" lon="5.772028"><ele>588.526</ele><time>2022-09-18T14:22:20Z</time></trkpt><trkpt lat="50.222578" lon="5.771953"><ele>588.409</ele><time>2022-09-18T14:22:21Z</time></trkpt><trkpt lat="50.222753" lon="5.771888"><ele>588.859</ele><time>2022-09-18T14:22:22Z</time></trkpt><trkpt lat="50.222918" lon="5.771827"><ele>589.499</ele><time>2022-09-18T14:22:23Z</time></trkpt><trkpt lat="50.223084" lon="5.771796"><ele>589.671</ele><time>2022-09-18T14:22:24Z</time></trkpt><trkpt lat="50.223253" lon="5.771766"><ele>589.727</ele><time>2022-09-18T14:22:25Z</time></trkpt><trkpt lat="50.223436" lon="5.771740"><ele>589.842</ele><time>2022-09-18T14:22:26Z</time></trkpt><trkpt lat="50.223631" lon="5.771711"><ele>589.657</ele><time>2022-09-18T14:22:27Z</time></trkpt><trkpt lat="50.223824" lon="5.771682"><ele>589.312</ele><time>2022-09-18T14:22:28Z</time></trkpt><trkpt lat="50.224005" lon="5.771648"><ele>589.166</ele><time>2022-09-18T14:22:29Z</time></trkpt><trkpt lat="50.224180" lon="5.771616"><ele>589.023</ele><time>2022-09-18T14:22:30Z</time></trkpt><trkpt lat="50.224356" lon="5.771576"><ele>589.271</ele><time>2022-09-18T14:22:31Z</time></trkpt><trkpt lat="50.224535" lon="5.771543"><ele>589.841</ele><time>2022-09-18T14:22:32Z</time></trkpt><trkpt lat="50.224704" lon="5.771508"><ele>590.415</ele><time>2022-09-18T14:22:33Z</time></trkpt><trkpt lat="50.224882" lon="5.771454"><ele>590.909</ele><time>2022-09-18T14:22:34Z</time></trkpt><trkpt lat="50.225058" lon="5.771403"><ele>591.528</ele><time>2022-09-18T14:22:35Z</time></trkpt><trkpt lat="50.225234" lon="5.771365"><ele>592.048</ele><time>2022-09-18T14:22:36Z</time></trkpt><trkpt lat="50.225410" lon="5.771326"><ele>592.240</ele><time>2022-09-18T14:22:37Z</time></trkpt><trkpt lat="50.225577" lon="5.771298"><ele>592.426</ele><time>2022-09-18T14:22:38Z</time></trkpt><trkpt lat="50.225763" lon="5.771267"><ele>592.531</ele><time>2022-09-18T14:22:39Z</time></trkpt><trkpt lat="50.225933" lon="5.771229"><ele>592.666</ele><time>2022-09-18T14:22:40Z</time></trkpt><trkpt lat="50.226116" lon="5.771190"><ele>592.881</ele><time>2022-09-18T14:22:41Z</time></trkpt><trkpt lat="50.226299" lon="5.771150"><ele>593.085</ele><time>2022-09-18T14:22:42Z</time></trkpt><trkpt lat="50.226492" lon="5.771102"><ele>593.272</ele><time>2022-09-18T14:22:43Z</time></trkpt><trkpt lat="50.226667" lon="5.771057"><ele>593.663</ele><time>2022-09-18T14:22:44Z</time></trkpt><trkpt lat="50.226832" lon="5.771000"><ele>594.444</ele><time>2022-09-18T14:22:45Z</time></trkpt><trkpt lat="50.227003" lon="5.770939"><ele>595.218</ele><time>2022-09-18T14:22:46Z</time></trkpt><trkpt lat="50.227182" lon="5.770870"><ele>595.809</ele><time>2022-09-18T14:22:47Z</time></trkpt><trkpt lat="50.227358" lon="5.770791"><ele>596.477</ele><time>2022-09-18T14:22:48Z</time></trkpt><trkpt lat="50.227530" lon="5.770713"><ele>596.857</ele><time>2022-09-18T14:22:49Z</time></trkpt><trkpt lat="50.227707" lon="5.770618"><ele>597.129</ele><time>2022-09-18T14:22:50Z</time></trkpt><trkpt lat="50.227890" lon="5.770551"><ele>597.435</ele><time>2022-09-18T14:22:51Z</time></trkpt><trkpt lat="50.228061" lon="5.770459"><ele>597.730</ele><time>2022-09-18T14:22:52Z</time></trkpt><trkpt lat="50.228233" lon="5.770364"><ele>597.965</ele><time>2022-09-18T14:22:53Z</time></trkpt><trkpt lat="50.228404" lon="5.770262"><ele>598.260</ele><time>2022-09-18T14:22:54Z</time></trkpt><trkpt lat="50.228574" lon="5.770156"><ele>598.524</ele><time>2022-09-18T14:22:55Z</time></trkpt><trkpt lat="50.228736" lon="5.770021"><ele>598.791</ele><time>2022-09-18T14:22:56Z</time></trkpt><trkpt lat="50.228905" lon="5.769937"><ele>598.954</ele><time>2022-09-18T14:22:57Z</time></trkpt><trkpt lat="50.229070" lon="5.769824"><ele>599.356</ele><time>2022-09-18T14:22:58Z</time></trkpt><trkpt lat="50.229228" lon="5.769699"><ele>599.911</ele><time>2022-09-18T14:22:59Z</time></trkpt><trkpt lat="50.229383" lon="5.769557"><ele>600.609</ele><time>2022-09-18T14:23:00Z</time></trkpt><trkpt lat="50.229547" lon="5.769435"><ele>601.276</ele><time>2022-09-18T14:23:01Z</time></trkpt><trkpt lat="50.229707" lon="5.769310"><ele>601.916</ele><time>2022-09-18T14:23:02Z</time></trkpt><trkpt lat="50.229860" lon="5.769180"><ele>602.578</ele><time>2022-09-18T14:23:03Z</time></trkpt><trkpt lat="50.230021" lon="5.769060"><ele>603.164</ele><time>2022-09-18T14:23:04Z</time></trkpt><trkpt lat="50.230176" lon="5.768946"><ele>603.629</ele><time>2022-09-18T14:23:05Z</time></trkpt><trkpt lat="50.230333" lon="5.768827"><ele>603.924</ele><time>2022-09-18T14:23:06Z</time></trkpt><trkpt lat="50.230488" lon="5.768698"><ele>604.159</ele><time>2022-09-18T14:23:07Z</time></trkpt><trkpt lat="50.230641" lon="5.768547"><ele>604.283</ele><time>2022-09-18T14:23:08Z</time></trkpt><trkpt lat="50.230795" lon="5.768388"><ele>604.360</ele><time>2022-09-18T14:23:09Z</time></trkpt><trkpt lat="50.230933" lon="5.768214"><ele>604.314</ele><time>2022-09-18T14:23:10Z</time></trkpt><trkpt lat="50.231064" lon="5.768036"><ele>604.354</ele><time>2022-09-18T14:23:11Z</time></trkpt><trkpt lat="50.231190" lon="5.767864"><ele>604.409</ele><time>2022-09-18T14:23:12Z</time></trkpt><trkpt lat="50.231312" lon="5.767657"><ele>604.609</ele><time>2022-09-18T14:23:13Z</time></trkpt><trkpt lat="50.231430" lon="5.767453"><ele>604.832</ele><time>2022-09-18T14:23:14Z</time></trkpt><trkpt lat="50.231548" lon="5.767234"><ele>605.432</ele><time>2022-09-18T14:23:15Z</time></trkpt><trkpt lat="50.231675" lon="5.767037"><ele>606.244</ele><time>2022-09-18T14:23:16Z</time></trkpt><trkpt lat="50.231790" lon="5.766825"><ele>607.030</ele><time>2022-09-18T14:23:17Z</time></trkpt><trkpt lat="50.231911" lon="5.766609"><ele>607.995</ele><time>2022-09-18T14:23:18Z</time></trkpt><trkpt lat="50.232031" lon="5.766412"><ele>608.830</ele><time>2022-09-18T14:23:19Z</time></trkpt><trkpt lat="50.232150" lon="5.766217"><ele>609.245</ele><time>2022-09-18T14:23:20Z</time></trkpt><trkpt lat="50.232265" lon="5.766022"><ele>609.479</ele><time>2022-09-18T14:23:21Z</time></trkpt><trkpt lat="50.232371" lon="5.765847"><ele>609.546</ele><time>2022-09-18T14:23:22Z</time></trkpt><trkpt lat="50.232448" lon="5.765702"><ele>609.219</ele><time>2022-09-18T14:23:23Z</time></trkpt><trkpt lat="50.232529" lon="5.765597"><ele>608.909</ele><time>2022-09-18T14:23:24Z</time></trkpt><trkpt lat="50.232584" lon="5.765522"><ele>607.719</ele><time>2022-09-18T14:23:25Z</time></trkpt><trkpt lat="50.232644" lon="5.765423"><ele>607.509</ele><time>2022-09-18T14:23:26Z</time></trkpt><trkpt lat="50.232695" lon="5.765336"><ele>606.952</ele><time>2022-09-18T14:23:27Z</time></trkpt><trkpt lat="50.232733" lon="5.765264"><ele>606.152</ele><time>2022-09-18T14:23:28Z</time></trkpt><trkpt lat="50.232771" lon="5.765200"><ele>605.914</ele><time>2022-09-18T14:23:29Z</time></trkpt><trkpt lat="50.232811" lon="5.765128"><ele>606.110</ele><time>2022-09-18T14:23:30Z</time></trkpt><trkpt lat="50.232859" lon="5.765107"><ele>606.185</ele><time>2022-09-18T14:23:31Z</time></trkpt><trkpt lat="50.232905" lon="5.765130"><ele>606.420</ele><time>2022-09-18T14:23:32Z</time></trkpt><trkpt lat="50.232934" lon="5.765237"><ele>606.815</ele><time>2022-09-18T14:23:33Z</time></trkpt><trkpt lat="50.232991" lon="5.765308"><ele>607.179</ele><time>2022-09-18T14:23:34Z</time></trkpt><trkpt lat="50.233059" lon="5.765400"><ele>607.396</ele><time>2022-09-18T14:23:35Z</time></trkpt><trkpt lat="50.233129" lon="5.765505"><ele>607.462</ele><time>2022-09-18T14:23:36Z</time></trkpt><trkpt lat="50.233189" lon="5.765638"><ele>607.483</ele><time>2022-09-18T14:23:37Z</time></trkpt><trkpt lat="50.233265" lon="5.765756"><ele>607.411</ele><time>2022-09-18T14:23:38Z</time></trkpt><trkpt lat="50.233342" lon="5.765875"><ele>607.409</ele><time>2022-09-18T14:23:39Z</time></trkpt><trkpt lat="50.233435" lon="5.766014"><ele>607.137</ele><time>2022-09-18T14:23:40Z</time></trkpt><trkpt lat="50.233526" lon="5.766167"><ele>606.937</ele><time>2022-09-18T14:23:41Z</time></trkpt><trkpt lat="50.233613" lon="5.766341"><ele>606.749</ele><time>2022-09-18T14:23:42Z</time></trkpt><trkpt lat="50.233689" lon="5.766515"><ele>606.665</ele><time>2022-09-18T14:23:43Z</time></trkpt><trkpt lat="50.233752" lon="5.766693"><ele>606.640</ele><time>2022-09-18T14:23:44Z</time></trkpt><trkpt lat="50.233807" lon="5.766878"><ele>606.645</ele><time>2022-09-18T14:23:45Z</time></trkpt><trkpt lat="50.233859" lon="5.767102"><ele>606.510</ele><time>2022-09-18T14:23:46Z</time></trkpt><trkpt lat="50.233898" lon="5.767322"><ele>606.244</ele><time>2022-09-18T14:23:47Z</time></trkpt><trkpt lat="50.233935" lon="5.767545"><ele>605.671</ele><time>2022-09-18T14:23:48Z</time></trkpt><trkpt lat="50.233970" lon="5.767754"><ele>604.992</ele><time>2022-09-18T14:23:49Z</time></trkpt><trkpt lat="50.234004" lon="5.767955"><ele>604.173</ele><time>2022-09-18T14:23:50Z</time></trkpt><trkpt lat="50.234037" lon="5.768157"><ele>603.620</ele><time>2022-09-18T14:23:51Z</time></trkpt><trkpt lat="50.234071" lon="5.768348"><ele>602.409</ele><time>2022-09-18T14:23:52Z</time></trkpt><trkpt lat="50.234106" lon="5.768535"><ele>601.410</ele><time>2022-09-18T14:23:53Z</time></trkpt><trkpt lat="50.234154" lon="5.768717"><ele>600.330</ele><time>2022-09-18T14:23:54Z</time></trkpt><trkpt lat="50.234228" lon="5.768889"><ele>599.132</ele><time>2022-09-18T14:23:55Z</time></trkpt><trkpt lat="50.234308" lon="5.769052"><ele>598.018</ele><time>2022-09-18T14:23:56Z</time></trkpt><trkpt lat="50.234399" lon="5.769201"><ele>597.293</ele><time>2022-09-18T14:23:57Z</time></trkpt><trkpt lat="50.234507" lon="5.769368"><ele>595.928</ele><time>2022-09-18T14:23:58Z</time></trkpt><trkpt lat="50.234621" lon="5.769546"><ele>595.363</ele><time>2022-09-18T14:23:59Z</time></trkpt><trkpt lat="50.234729" lon="5.769730"><ele>594.677</ele><time>2022-09-18T14:24:00Z</time></trkpt><trkpt lat="50.234833" lon="5.769906"><ele>593.894</ele><time>2022-09-18T14:24:01Z</time></trkpt><trkpt lat="50.234932" lon="5.770055"><ele>593.054</ele><time>2022-09-18T14:24:02Z</time></trkpt><trkpt lat="50.235031" lon="5.770196"><ele>592.056</ele><time>2022-09-18T14:24:03Z</time></trkpt><trkpt lat="50.235136" lon="5.770339"><ele>590.811</ele><time>2022-09-18T14:24:04Z</time></trkpt><trkpt lat="50.235220" lon="5.770474"><ele>590.209</ele><time>2022-09-18T14:24:05Z</time></trkpt><trkpt lat="50.235294" lon="5.770577"><ele>589.426</ele><time>2022-09-18T14:24:06Z</time></trkpt><trkpt lat="50.235363" lon="5.770655"><ele>588.336</ele><time>2022-09-18T14:24:07Z</time></trkpt><trkpt lat="50.235414" lon="5.770729"><ele>587.758</ele><time>2022-09-18T14:24:08Z</time></trkpt><trkpt lat="50.235454" lon="5.770793"><ele>586.554</ele><time>2022-09-18T14:24:09Z</time></trkpt><trkpt lat="50.235559" lon="5.770734"><ele>585.369</ele><time>2022-09-18T14:24:10Z</time></trkpt><trkpt lat="50.235607" lon="5.770745"><ele>584.024</ele><time>2022-09-18T14:24:11Z</time></trkpt><trkpt lat="50.235680" lon="5.770730"><ele>582.839</ele><time>2022-09-18T14:24:13Z</time></trkpt><trkpt lat="50.235683" lon="5.770605"><ele>581.773</ele><time>2022-09-18T14:24:14Z</time></trkpt><trkpt lat="50.235689" lon="5.770476"><ele>580.910</ele><time>2022-09-18T14:24:15Z</time></trkpt><trkpt lat="50.235685" lon="5.770354"><ele>580.638</ele><time>2022-09-18T14:24:16Z</time></trkpt><trkpt lat="50.235702" lon="5.770217"><ele>580.570</ele><time>2022-09-18T14:24:17Z</time></trkpt><trkpt lat="50.235720" lon="5.770075"><ele>580.417</ele><time>2022-09-18T14:24:18Z</time></trkpt><trkpt lat="50.235745" lon="5.769926"><ele>580.309</ele><time>2022-09-18T14:24:19Z</time></trkpt><trkpt lat="50.235749" lon="5.769753"><ele>580.554</ele><time>2022-09-18T14:24:20Z</time></trkpt><trkpt lat="50.235772" lon="5.769585"><ele>580.774</ele><time>2022-09-18T14:24:21Z</time></trkpt><trkpt lat="50.235793" lon="5.769412"><ele>580.826</ele><time>2022-09-18T14:24:22Z</time></trkpt><trkpt lat="50.235809" lon="5.769263"><ele>581.162</ele><time>2022-09-18T14:24:23Z</time></trkpt><trkpt lat="50.235827" lon="5.769117"><ele>581.687</ele><time>2022-09-18T14:24:24Z</time></trkpt><trkpt lat="50.235838" lon="5.769012"><ele>581.792</ele><time>2022-09-18T14:24:25Z</time></trkpt><trkpt lat="50.235846" lon="5.768931"><ele>582.037</ele><time>2022-09-18T14:24:26Z</time></trkpt><trkpt lat="50.235859" lon="5.768819"><ele>582.391</ele><time>2022-09-18T14:24:28Z</time></trkpt><trkpt lat="50.235879" lon="5.768699"><ele>582.738</ele><time>2022-09-18T14:24:30Z</time></trkpt><trkpt lat="50.235882" lon="5.768600"><ele>582.913</ele><time>2022-09-18T14:24:32Z</time></trkpt><trkpt lat="50.235908" lon="5.768520"><ele>583.843</ele><time>2022-09-18T14:24:35Z</time></trkpt><trkpt lat="50.235901" lon="5.768444"><ele>584.007</ele><time>2022-09-18T14:24:37Z</time></trkpt><trkpt lat="50.235909" lon="5.768372"><ele>584.309</ele><time>2022-09-18T14:24:40Z</time></trkpt><trkpt lat="50.235927" lon="5.768267"><ele>584.782</ele><time>2022-09-18T14:24:50Z</time></trkpt><trkpt lat="50.235930" lon="5.768170"><ele>585.272</ele><time>2022-09-18T14:24:52Z</time></trkpt><trkpt lat="50.235940" lon="5.768069"><ele>585.244</ele><time>2022-09-18T14:24:54Z</time></trkpt><trkpt lat="50.235967" lon="5.767990"><ele>585.270</ele><time>2022-09-18T14:24:56Z</time></trkpt><trkpt lat="50.235992" lon="5.767923"><ele>585.465</ele><time>2022-09-18T14:24:58Z</time></trkpt><trkpt lat="50.235989" lon="5.767847"><ele>585.920</ele><time>2022-09-18T14:25:02Z</time></trkpt><trkpt lat="50.236021" lon="5.767789"><ele>586.415</ele><time>2022-09-18T14:25:04Z</time></trkpt><trkpt lat="50.236044" lon="5.767705"><ele>586.639</ele><time>2022-09-18T14:25:08Z</time></trkpt><trkpt lat="50.236059" lon="5.767607"><ele>586.996</ele><time>2022-09-18T14:25:16Z</time></trkpt><trkpt lat="50.236082" lon="5.767540"><ele>586.966</ele><time>2022-09-18T14:25:18Z</time></trkpt><trkpt lat="50.236108" lon="5.767417"><ele>587.429</ele><time>2022-09-18T14:25:20Z</time></trkpt><trkpt lat="50.236127" lon="5.767327"><ele>587.521</ele><time>2022-09-18T14:25:21Z</time></trkpt><trkpt lat="50.236171" lon="5.767244"><ele>587.509</ele><time>2022-09-18T14:25:22Z</time></trkpt><trkpt lat="50.236199" lon="5.767146"><ele>587.687</ele><time>2022-09-18T14:25:23Z</time></trkpt><trkpt lat="50.236229" lon="5.767058"><ele>587.697</ele><time>2022-09-18T14:25:24Z</time></trkpt><trkpt lat="50.236259" lon="5.766959"><ele>588.089</ele><time>2022-09-18T14:25:25Z</time></trkpt><trkpt lat="50.236289" lon="5.766853"><ele>588.255</ele><time>2022-09-18T14:25:26Z</time></trkpt><trkpt lat="50.236316" lon="5.766753"><ele>588.380</ele><time>2022-09-18T14:25:27Z</time></trkpt><trkpt lat="50.236351" lon="5.766640"><ele>588.335</ele><time>2022-09-18T14:25:28Z</time></trkpt><trkpt lat="50.236392" lon="5.766518"><ele>588.390</ele><time>2022-09-18T14:25:29Z</time></trkpt><trkpt lat="50.236419" lon="5.766394"><ele>588.354</ele><time>2022-09-18T14:25:30Z</time></trkpt><trkpt lat="50.236454" lon="5.766274"><ele>588.451</ele><time>2022-09-18T14:25:31Z</time></trkpt><trkpt lat="50.236490" lon="5.766159"><ele>588.673</ele><time>2022-09-18T14:25:32Z</time></trkpt><trkpt lat="50.236523" lon="5.766043"><ele>588.885</ele><time>2022-09-18T14:25:33Z</time></trkpt><trkpt lat="50.236546" lon="5.765916"><ele>589.013</ele><time>2022-09-18T14:25:34Z</time></trkpt><trkpt lat="50.236556" lon="5.765762"><ele>589.309</ele><time>2022-09-18T14:25:35Z</time></trkpt><trkpt lat="50.236549" lon="5.765577"><ele>589.638</ele><time>2022-09-18T14:25:36Z</time></trkpt><trkpt lat="50.236543" lon="5.765370"><ele>589.818</ele><time>2022-09-18T14:25:37Z</time></trkpt><trkpt lat="50.236540" lon="5.765184"><ele>590.220</ele><time>2022-09-18T14:25:38Z</time></trkpt><trkpt lat="50.236546" lon="5.765004"><ele>591.196</ele><time>2022-09-18T14:25:39Z</time></trkpt><trkpt lat="50.236555" lon="5.764819"><ele>591.921</ele><time>2022-09-18T14:25:40Z</time></trkpt><trkpt lat="50.236561" lon="5.764626"><ele>592.756</ele><time>2022-09-18T14:25:41Z</time></trkpt><trkpt lat="50.236560" lon="5.764429"><ele>593.961</ele><time>2022-09-18T14:25:42Z</time></trkpt><trkpt lat="50.236562" lon="5.764253"><ele>594.995</ele><time>2022-09-18T14:25:43Z</time></trkpt><trkpt lat="50.236553" lon="5.764065"><ele>595.552</ele><time>2022-09-18T14:25:44Z</time></trkpt><trkpt lat="50.236532" lon="5.763888"><ele>596.214</ele><time>2022-09-18T14:25:45Z</time></trkpt><trkpt lat="50.236511" lon="5.763732"><ele>596.754</ele><time>2022-09-18T14:25:46Z</time></trkpt><trkpt lat="50.236479" lon="5.763597"><ele>597.309</ele><time>2022-09-18T14:25:47Z</time></trkpt><trkpt lat="50.236459" lon="5.763449"><ele>597.809</ele><time>2022-09-18T14:25:48Z</time></trkpt><trkpt lat="50.236451" lon="5.763302"><ele>598.592</ele><time>2022-09-18T14:25:49Z</time></trkpt><trkpt lat="50.236463" lon="5.763120"><ele>599.262</ele><time>2022-09-18T14:25:50Z</time></trkpt><trkpt lat="50.236472" lon="5.762926"><ele>600.354</ele><time>2022-09-18T14:25:51Z</time></trkpt><trkpt lat="50.236484" lon="5.762715"><ele>601.180</ele><time>2022-09-18T14:25:52Z</time></trkpt><trkpt lat="50.236496" lon="5.762529"><ele>601.615</ele><time>2022-09-18T14:25:53Z</time></trkpt><trkpt lat="50.236509" lon="5.762316"><ele>601.810</ele><time>2022-09-18T14:25:54Z</time></trkpt><trkpt lat="50.236530" lon="5.762121"><ele>602.185</ele><time>2022-09-18T14:25:55Z</time></trkpt><trkpt lat="50.236542" lon="5.761937"><ele>602.219</ele><time>2022-09-18T14:25:56Z</time></trkpt><trkpt lat="50.236553" lon="5.761758"><ele>602.366</ele><time>2022-09-18T14:25:57Z</time></trkpt><trkpt lat="50.236550" lon="5.761545"><ele>602.571</ele><time>2022-09-18T14:25:58Z</time></trkpt><trkpt lat="50.236540" lon="5.761338"><ele>603.541</ele><time>2022-09-18T14:25:59Z</time></trkpt><trkpt lat="50.236517" lon="5.761102"><ele>604.315</ele><time>2022-09-18T14:26:00Z</time></trkpt><trkpt lat="50.236493" lon="5.760866"><ele>605.109</ele><time>2022-09-18T14:26:01Z</time></trkpt><trkpt lat="50.236462" lon="5.760653"><ele>605.728</ele><time>2022-09-18T14:26:02Z</time></trkpt><trkpt lat="50.236442" lon="5.760444"><ele>606.268</ele><time>2022-09-18T14:26:03Z</time></trkpt><trkpt lat="50.236422" lon="5.760263"><ele>606.430</ele><time>2022-09-18T14:26:04Z</time></trkpt><trkpt lat="50.236422" lon="5.760097"><ele>606.556</ele><time>2022-09-18T14:26:05Z</time></trkpt><trkpt lat="50.236428" lon="5.759916"><ele>606.551</ele><time>2022-09-18T14:26:06Z</time></trkpt><trkpt lat="50.236431" lon="5.759789"><ele>606.556</ele><time>2022-09-18T14:26:07Z</time></trkpt><trkpt lat="50.236421" lon="5.759671"><ele>606.551</ele><time>2022-09-18T14:26:08Z</time></trkpt><trkpt lat="50.236399" lon="5.759533"><ele>606.515</ele><time>2022-09-18T14:26:09Z</time></trkpt><trkpt lat="50.236410" lon="5.759425"><ele>606.542</ele><time>2022-09-18T14:26:10Z</time></trkpt><trkpt lat="50.236388" lon="5.759343"><ele>606.661</ele><time>2022-09-18T14:26:11Z</time></trkpt><trkpt lat="50.236367" lon="5.759208"><ele>606.721</ele><time>2022-09-18T14:26:13Z</time></trkpt><trkpt lat="50.236333" lon="5.759262"><ele>606.713</ele><time>2022-09-18T14:26:15Z</time></trkpt><trkpt lat="50.236424" lon="5.759199"><ele>607.009</ele><time>2022-09-18T14:26:18Z</time></trkpt><trkpt lat="50.236479" lon="5.759072"><ele>607.717</ele><time>2022-09-18T14:26:19Z</time></trkpt><trkpt lat="50.236600" lon="5.758909"><ele>608.477</ele><time>2022-09-18T14:26:20Z</time></trkpt><trkpt lat="50.236700" lon="5.758744"><ele>608.979</ele><time>2022-09-18T14:26:21Z</time></trkpt><trkpt lat="50.236807" lon="5.758535"><ele>609.335</ele><time>2022-09-18T14:26:22Z</time></trkpt><trkpt lat="50.236919" lon="5.758369"><ele>609.760</ele><time>2022-09-18T14:26:23Z</time></trkpt><trkpt lat="50.237044" lon="5.758177"><ele>610.385</ele><time>2022-09-18T14:26:24Z</time></trkpt><trkpt lat="50.237155" lon="5.757995"><ele>611.240</ele><time>2022-09-18T14:26:25Z</time></trkpt><trkpt lat="50.237282" lon="5.757786"><ele>612.064</ele><time>2022-09-18T14:26:26Z</time></trkpt><trkpt lat="50.237400" lon="5.757556"><ele>612.721</ele><time>2022-09-18T14:26:27Z</time></trkpt><trkpt lat="50.237533" lon="5.757346"><ele>613.235</ele><time>2022-09-18T14:26:28Z</time></trkpt><trkpt lat="50.237664" lon="5.757139"><ele>613.486</ele><time>2022-09-18T14:26:29Z</time></trkpt><trkpt lat="50.237793" lon="5.756916"><ele>613.614</ele><time>2022-09-18T14:26:30Z</time></trkpt><trkpt lat="50.237933" lon="5.756715"><ele>613.909</ele><time>2022-09-18T14:26:31Z</time></trkpt><trkpt lat="50.238068" lon="5.756490"><ele>614.234</ele><time>2022-09-18T14:26:32Z</time></trkpt><trkpt lat="50.238189" lon="5.756284"><ele>615.364</ele><time>2022-09-18T14:26:33Z</time></trkpt><trkpt lat="50.238318" lon="5.756067"><ele>616.636</ele><time>2022-09-18T14:26:34Z</time></trkpt><trkpt lat="50.238451" lon="5.755843"><ele>616.932</ele><time>2022-09-18T14:26:35Z</time></trkpt><trkpt lat="50.238588" lon="5.755613"><ele>616.927</ele><time>2022-09-18T14:26:36Z</time></trkpt><trkpt lat="50.238708" lon="5.755412"><ele>617.022</ele><time>2022-09-18T14:26:37Z</time></trkpt><trkpt lat="50.238831" lon="5.755205"><ele>617.287</ele><time>2022-09-18T14:26:38Z</time></trkpt><trkpt lat="50.238951" lon="5.755004"><ele>617.271</ele><time>2022-09-18T14:26:39Z</time></trkpt><trkpt lat="50.239082" lon="5.754788"><ele>617.678</ele><time>2022-09-18T14:26:40Z</time></trkpt><trkpt lat="50.239201" lon="5.754572"><ele>618.265</ele><time>2022-09-18T14:26:41Z</time></trkpt><trkpt lat="50.239326" lon="5.754373"><ele>618.468</ele><time>2022-09-18T14:26:42Z</time></trkpt><trkpt lat="50.239438" lon="5.754182"><ele>618.414</ele><time>2022-09-18T14:26:43Z</time></trkpt><trkpt lat="50.239561" lon="5.753987"><ele>618.509</ele><time>2022-09-18T14:26:44Z</time></trkpt><trkpt lat="50.239680" lon="5.753800"><ele>618.667</ele><time>2022-09-18T14:26:45Z</time></trkpt><trkpt lat="50.239805" lon="5.753627"><ele>618.997</ele><time>2022-09-18T14:26:46Z</time></trkpt><trkpt lat="50.239928" lon="5.753428"><ele>619.179</ele><time>2022-09-18T14:26:47Z</time></trkpt><trkpt lat="50.240054" lon="5.753207"><ele>618.995</ele><time>2022-09-18T14:26:48Z</time></trkpt><trkpt lat="50.240181" lon="5.753009"><ele>618.650</ele><time>2022-09-18T14:26:49Z</time></trkpt><trkpt lat="50.240313" lon="5.752827"><ele>618.285</ele><time>2022-09-18T14:26:50Z</time></trkpt><trkpt lat="50.240436" lon="5.752644"><ele>617.730</ele><time>2022-09-18T14:26:51Z</time></trkpt><trkpt lat="50.240568" lon="5.752455"><ele>617.574</ele><time>2022-09-18T14:26:52Z</time></trkpt><trkpt lat="50.240707" lon="5.752249"><ele>617.551</ele><time>2022-09-18T14:26:53Z</time></trkpt><trkpt lat="50.240839" lon="5.752050"><ele>617.655</ele><time>2022-09-18T14:26:54Z</time></trkpt><trkpt lat="50.240971" lon="5.751830"><ele>617.807</ele><time>2022-09-18T14:26:55Z</time></trkpt><trkpt lat="50.241098" lon="5.751611"><ele>618.217</ele><time>2022-09-18T14:26:56Z</time></trkpt><trkpt lat="50.241224" lon="5.751390"><ele>618.609</ele><time>2022-09-18T14:26:57Z</time></trkpt><trkpt lat="50.241349" lon="5.751182"><ele>619.256</ele><time>2022-09-18T14:26:58Z</time></trkpt><trkpt lat="50.241481" lon="5.750979"><ele>619.816</ele><time>2022-09-18T14:26:59Z</time></trkpt><trkpt lat="50.241603" lon="5.750761"><ele>620.098</ele><time>2022-09-18T14:27:00Z</time></trkpt><trkpt lat="50.241741" lon="5.750557"><ele>620.064</ele><time>2022-09-18T14:27:01Z</time></trkpt><trkpt lat="50.241870" lon="5.750346"><ele>620.079</ele><time>2022-09-18T14:27:02Z</time></trkpt><trkpt lat="50.241998" lon="5.750136"><ele>620.094</ele><time>2022-09-18T14:27:03Z</time></trkpt><trkpt lat="50.242119" lon="5.749901"><ele>620.019</ele><time>2022-09-18T14:27:04Z</time></trkpt><trkpt lat="50.242240" lon="5.749661"><ele>620.063</ele><time>2022-09-18T14:27:05Z</time></trkpt><trkpt lat="50.242361" lon="5.749418"><ele>620.160</ele><time>2022-09-18T14:27:06Z</time></trkpt><trkpt lat="50.242486" lon="5.749206"><ele>620.458</ele><time>2022-09-18T14:27:07Z</time></trkpt><trkpt lat="50.242607" lon="5.748985"><ele>620.852</ele><time>2022-09-18T14:27:08Z</time></trkpt><trkpt lat="50.242740" lon="5.748790"><ele>621.017</ele><time>2022-09-18T14:27:09Z</time></trkpt><trkpt lat="50.242865" lon="5.748597"><ele>621.309</ele><time>2022-09-18T14:27:10Z</time></trkpt><trkpt lat="50.242990" lon="5.748380"><ele>621.876</ele><time>2022-09-18T14:27:11Z</time></trkpt><trkpt lat="50.243111" lon="5.748158"><ele>622.116</ele><time>2022-09-18T14:27:12Z</time></trkpt><trkpt lat="50.243243" lon="5.747943"><ele>622.238</ele><time>2022-09-18T14:27:13Z</time></trkpt><trkpt lat="50.243376" lon="5.747733"><ele>622.314</ele><time>2022-09-18T14:27:14Z</time></trkpt><trkpt lat="50.243502" lon="5.747526"><ele>622.519</ele><time>2022-09-18T14:27:15Z</time></trkpt><trkpt lat="50.243618" lon="5.747329"><ele>622.624</ele><time>2022-09-18T14:27:16Z</time></trkpt><trkpt lat="50.243736" lon="5.747118"><ele>622.629</ele><time>2022-09-18T14:27:17Z</time></trkpt><trkpt lat="50.243847" lon="5.746914"><ele>622.593</ele><time>2022-09-18T14:27:18Z</time></trkpt><trkpt lat="50.243977" lon="5.746740"><ele>622.420</ele><time>2022-09-18T14:27:19Z</time></trkpt><trkpt lat="50.244087" lon="5.746539"><ele>622.433</ele><time>2022-09-18T14:27:20Z</time></trkpt><trkpt lat="50.244215" lon="5.746357"><ele>622.423</ele><time>2022-09-18T14:27:21Z</time></trkpt><trkpt lat="50.244326" lon="5.746170"><ele>622.415</ele><time>2022-09-18T14:27:22Z</time></trkpt><trkpt lat="50.244456" lon="5.745970"><ele>622.609</ele><time>2022-09-18T14:27:23Z</time></trkpt><trkpt lat="50.244584" lon="5.745758"><ele>623.034</ele><time>2022-09-18T14:27:24Z</time></trkpt><trkpt lat="50.244706" lon="5.745540"><ele>623.374</ele><time>2022-09-18T14:27:25Z</time></trkpt><trkpt lat="50.244836" lon="5.745345"><ele>623.696</ele><time>2022-09-18T14:27:26Z</time></trkpt><trkpt lat="50.244952" lon="5.745134"><ele>623.922</ele><time>2022-09-18T14:27:27Z</time></trkpt><trkpt lat="50.245077" lon="5.744957"><ele>624.077</ele><time>2022-09-18T14:27:28Z</time></trkpt><trkpt lat="50.245204" lon="5.744748"><ele>624.282</ele><time>2022-09-18T14:27:29Z</time></trkpt><trkpt lat="50.245321" lon="5.744550"><ele>624.487</ele><time>2022-09-18T14:27:30Z</time></trkpt><trkpt lat="50.245448" lon="5.744367"><ele>624.651</ele><time>2022-09-18T14:27:31Z</time></trkpt><trkpt lat="50.245571" lon="5.744201"><ele>625.048</ele><time>2022-09-18T14:27:32Z</time></trkpt><trkpt lat="50.245678" lon="5.744004"><ele>625.427</ele><time>2022-09-18T14:27:33Z</time></trkpt><trkpt lat="50.245787" lon="5.743812"><ele>625.568</ele><time>2022-09-18T14:27:34Z</time></trkpt><trkpt lat="50.245899" lon="5.743650"><ele>625.614</ele><time>2022-09-18T14:27:35Z</time></trkpt><trkpt lat="50.246017" lon="5.743475"><ele>625.709</ele><time>2022-09-18T14:27:36Z</time></trkpt><trkpt lat="50.246131" lon="5.743281"><ele>625.793</ele><time>2022-09-18T14:27:37Z</time></trkpt><trkpt lat="50.246249" lon="5.743088"><ele>625.713</ele><time>2022-09-18T14:27:38Z</time></trkpt><trkpt lat="50.246361" lon="5.742893"><ele>626.075</ele><time>2022-09-18T14:27:39Z</time></trkpt><trkpt lat="50.246473" lon="5.742704"><ele>626.521</ele><time>2022-09-18T14:27:40Z</time></trkpt><trkpt lat="50.246593" lon="5.742532"><ele>626.836</ele><time>2022-09-18T14:27:41Z</time></trkpt><trkpt lat="50.246701" lon="5.742358"><ele>627.121</ele><time>2022-09-18T14:27:42Z</time></trkpt><trkpt lat="50.246827" lon="5.742165"><ele>627.476</ele><time>2022-09-18T14:27:43Z</time></trkpt><trkpt lat="50.246951" lon="5.741972"><ele>627.740</ele><time>2022-09-18T14:27:44Z</time></trkpt><trkpt lat="50.247077" lon="5.741773"><ele>628.027</ele><time>2022-09-18T14:27:45Z</time></trkpt><trkpt lat="50.247197" lon="5.741578"><ele>628.396</ele><time>2022-09-18T14:27:46Z</time></trkpt><trkpt lat="50.247325" lon="5.741412"><ele>628.531</ele><time>2022-09-18T14:27:47Z</time></trkpt><trkpt lat="50.247440" lon="5.741206"><ele>628.824</ele><time>2022-09-18T14:27:48Z</time></trkpt><trkpt lat="50.247532" lon="5.740993"><ele>629.109</ele><time>2022-09-18T14:27:49Z</time></trkpt><trkpt lat="50.247628" lon="5.740813"><ele>629.330</ele><time>2022-09-18T14:27:50Z</time></trkpt><trkpt lat="50.247717" lon="5.740672"><ele>629.320</ele><time>2022-09-18T14:27:51Z</time></trkpt><trkpt lat="50.247813" lon="5.740518"><ele>629.372</ele><time>2022-09-18T14:27:52Z</time></trkpt><trkpt lat="50.247910" lon="5.740344"><ele>629.578</ele><time>2022-09-18T14:27:53Z</time></trkpt><trkpt lat="50.248016" lon="5.740167"><ele>629.543</ele><time>2022-09-18T14:27:54Z</time></trkpt><trkpt lat="50.248115" lon="5.740010"><ele>629.598</ele><time>2022-09-18T14:27:55Z</time></trkpt><trkpt lat="50.248215" lon="5.739854"><ele>629.543</ele><time>2022-09-18T14:27:56Z</time></trkpt><trkpt lat="50.248302" lon="5.739698"><ele>629.697</ele><time>2022-09-18T14:27:57Z</time></trkpt><trkpt lat="50.248395" lon="5.739533"><ele>629.814</ele><time>2022-09-18T14:27:58Z</time></trkpt><trkpt lat="50.248483" lon="5.739394"><ele>629.977</ele><time>2022-09-18T14:27:59Z</time></trkpt><trkpt lat="50.248554" lon="5.739251"><ele>630.061</ele><time>2022-09-18T14:28:00Z</time></trkpt><trkpt lat="50.248627" lon="5.739133"><ele>630.027</ele><time>2022-09-18T14:28:01Z</time></trkpt><trkpt lat="50.248684" lon="5.739020"><ele>630.009</ele><time>2022-09-18T14:28:02Z</time></trkpt><trkpt lat="50.248741" lon="5.738911"><ele>629.968</ele><time>2022-09-18T14:28:03Z</time></trkpt><trkpt lat="50.248791" lon="5.738826"><ele>629.948</ele><time>2022-09-18T14:28:04Z</time></trkpt><trkpt lat="50.248839" lon="5.738760"><ele>629.970</ele><time>2022-09-18T14:28:05Z</time></trkpt><trkpt lat="50.248897" lon="5.738708"><ele>630.076</ele><time>2022-09-18T14:28:06Z</time></trkpt><trkpt lat="50.248951" lon="5.738683"><ele>630.131</ele><time>2022-09-18T14:28:07Z</time></trkpt><trkpt lat="50.249001" lon="5.738676"><ele>630.466</ele><time>2022-09-18T14:28:08Z</time></trkpt><trkpt lat="50.249070" lon="5.738702"><ele>630.771</ele><time>2022-09-18T14:28:09Z</time></trkpt><trkpt lat="50.249128" lon="5.738674"><ele>631.085</ele><time>2022-09-18T14:28:10Z</time></trkpt><trkpt lat="50.249172" lon="5.738630"><ele>631.042</ele><time>2022-09-18T14:28:11Z</time></trkpt><trkpt lat="50.249201" lon="5.738553"><ele>631.034</ele><time>2022-09-18T14:28:12Z</time></trkpt><trkpt lat="50.249206" lon="5.738436"><ele>631.055</ele><time>2022-09-18T14:28:13Z</time></trkpt><trkpt lat="50.249232" lon="5.738314"><ele>630.910</ele><time>2022-09-18T14:28:14Z</time></trkpt><trkpt lat="50.249260" lon="5.738169"><ele>630.809</ele><time>2022-09-18T14:28:15Z</time></trkpt><trkpt lat="50.249320" lon="5.738041"><ele>630.934</ele><time>2022-09-18T14:28:16Z</time></trkpt><trkpt lat="50.249373" lon="5.737894"><ele>631.284</ele><time>2022-09-18T14:28:17Z</time></trkpt><trkpt lat="50.249494" lon="5.737820"><ele>631.536</ele><time>2022-09-18T14:28:18Z</time></trkpt><trkpt lat="50.249597" lon="5.737659"><ele>632.272</ele><time>2022-09-18T14:28:19Z</time></trkpt><trkpt lat="50.249689" lon="5.737510"><ele>632.597</ele><time>2022-09-18T14:28:20Z</time></trkpt><trkpt lat="50.249791" lon="5.737319"><ele>632.862</ele><time>2022-09-18T14:28:21Z</time></trkpt><trkpt lat="50.249890" lon="5.737132"><ele>633.377</ele><time>2022-09-18T14:28:22Z</time></trkpt><trkpt lat="50.249991" lon="5.736913"><ele>633.841</ele><time>2022-09-18T14:28:23Z</time></trkpt><trkpt lat="50.250091" lon="5.736702"><ele>634.488</ele><time>2022-09-18T14:28:24Z</time></trkpt><trkpt lat="50.250206" lon="5.736515"><ele>635.021</ele><time>2022-09-18T14:28:25Z</time></trkpt><trkpt lat="50.250320" lon="5.736333"><ele>635.441</ele><time>2022-09-18T14:28:26Z</time></trkpt><trkpt lat="50.250426" lon="5.736147"><ele>635.705</ele><time>2022-09-18T14:28:27Z</time></trkpt><trkpt lat="50.250542" lon="5.735963"><ele>635.809</ele><time>2022-09-18T14:28:28Z</time></trkpt><trkpt lat="50.250650" lon="5.735773"><ele>635.833</ele><time>2022-09-18T14:28:29Z</time></trkpt><trkpt lat="50.250770" lon="5.735591"><ele>635.833</ele><time>2022-09-18T14:28:30Z</time></trkpt><trkpt lat="50.250883" lon="5.735383"><ele>636.025</ele><time>2022-09-18T14:28:31Z</time></trkpt><trkpt lat="50.251002" lon="5.735170"><ele>636.331</ele><time>2022-09-18T14:28:32Z</time></trkpt><trkpt lat="50.251121" lon="5.734972"><ele>636.676</ele><time>2022-09-18T14:28:33Z</time></trkpt><trkpt lat="50.251244" lon="5.734770"><ele>637.121</ele><time>2022-09-18T14:28:34Z</time></trkpt><trkpt lat="50.251375" lon="5.734558"><ele>637.766</ele><time>2022-09-18T14:28:35Z</time></trkpt><trkpt lat="50.251498" lon="5.734350"><ele>638.160</ele><time>2022-09-18T14:28:36Z</time></trkpt><trkpt lat="50.251626" lon="5.734119"><ele>638.617</ele><time>2022-09-18T14:28:37Z</time></trkpt><trkpt lat="50.251793" lon="5.733940"><ele>639.344</ele><time>2022-09-18T14:28:38Z</time></trkpt><trkpt lat="50.251933" lon="5.733707"><ele>640.005</ele><time>2022-09-18T14:28:39Z</time></trkpt><trkpt lat="50.252071" lon="5.733479"><ele>640.415</ele><time>2022-09-18T14:28:40Z</time></trkpt><trkpt lat="50.252209" lon="5.733260"><ele>640.809</ele><time>2022-09-18T14:28:41Z</time></trkpt><trkpt lat="50.252336" lon="5.733024"><ele>641.085</ele><time>2022-09-18T14:28:42Z</time></trkpt><trkpt lat="50.252466" lon="5.732793"><ele>641.095</ele><time>2022-09-18T14:28:43Z</time></trkpt><trkpt lat="50.252613" lon="5.732606"><ele>640.937</ele><time>2022-09-18T14:28:44Z</time></trkpt><trkpt lat="50.252735" lon="5.732420"><ele>640.893</ele><time>2022-09-18T14:28:45Z</time></trkpt><trkpt lat="50.252856" lon="5.732226"><ele>640.838</ele><time>2022-09-18T14:28:46Z</time></trkpt><trkpt lat="50.252979" lon="5.732023"><ele>640.763</ele><time>2022-09-18T14:28:47Z</time></trkpt><trkpt lat="50.253093" lon="5.731822"><ele>640.768</ele><time>2022-09-18T14:28:48Z</time></trkpt><trkpt lat="50.253208" lon="5.731618"><ele>640.532</ele><time>2022-09-18T14:28:49Z</time></trkpt><trkpt lat="50.253319" lon="5.731415"><ele>640.389</ele><time>2022-09-18T14:28:50Z</time></trkpt><trkpt lat="50.253422" lon="5.731179"><ele>640.329</ele><time>2022-09-18T14:28:51Z</time></trkpt><trkpt lat="50.253536" lon="5.730956"><ele>640.400</ele><time>2022-09-18T14:28:52Z</time></trkpt><trkpt lat="50.253656" lon="5.730719"><ele>640.520</ele><time>2022-09-18T14:28:53Z</time></trkpt><trkpt lat="50.253784" lon="5.730499"><ele>640.709</ele><time>2022-09-18T14:28:54Z</time></trkpt><trkpt lat="50.253886" lon="5.730256"><ele>641.023</ele><time>2022-09-18T14:28:55Z</time></trkpt><trkpt lat="50.254001" lon="5.730017"><ele>641.243</ele><time>2022-09-18T14:28:56Z</time></trkpt><trkpt lat="50.254133" lon="5.729778"><ele>641.465</ele><time>2022-09-18T14:28:57Z</time></trkpt><trkpt lat="50.254240" lon="5.729512"><ele>641.691</ele><time>2022-09-18T14:28:58Z</time></trkpt><trkpt lat="50.254345" lon="5.729239"><ele>641.836</ele><time>2022-09-18T14:28:59Z</time></trkpt><trkpt lat="50.254451" lon="5.728993"><ele>642.171</ele><time>2022-09-18T14:29:00Z</time></trkpt><trkpt lat="50.254552" lon="5.728755"><ele>642.496</ele><time>2022-09-18T14:29:01Z</time></trkpt><trkpt lat="50.254653" lon="5.728527"><ele>642.610</ele><time>2022-09-18T14:29:02Z</time></trkpt><trkpt lat="50.254761" lon="5.728317"><ele>642.747</ele><time>2022-09-18T14:29:03Z</time></trkpt><trkpt lat="50.254857" lon="5.728061"><ele>642.723</ele><time>2022-09-18T14:29:04Z</time></trkpt><trkpt lat="50.254944" lon="5.727828"><ele>642.683</ele><time>2022-09-18T14:29:05Z</time></trkpt><trkpt lat="50.255038" lon="5.727602"><ele>642.211</ele><time>2022-09-18T14:29:06Z</time></trkpt><trkpt lat="50.255137" lon="5.727362"><ele>641.909</ele><time>2022-09-18T14:29:07Z</time></trkpt><trkpt lat="50.255216" lon="5.727135"><ele>641.613</ele><time>2022-09-18T14:29:08Z</time></trkpt><trkpt lat="50.255288" lon="5.726932"><ele>640.963</ele><time>2022-09-18T14:29:09Z</time></trkpt><trkpt lat="50.255361" lon="5.726700"><ele>640.155</ele><time>2022-09-18T14:29:10Z</time></trkpt><trkpt lat="50.255433" lon="5.726493"><ele>639.491</ele><time>2022-09-18T14:29:11Z</time></trkpt><trkpt lat="50.255514" lon="5.726317"><ele>638.586</ele><time>2022-09-18T14:29:12Z</time></trkpt><trkpt lat="50.255586" lon="5.726103"><ele>637.551</ele><time>2022-09-18T14:29:13Z</time></trkpt><trkpt lat="50.255649" lon="5.725889"><ele>636.946</ele><time>2022-09-18T14:29:14Z</time></trkpt><trkpt lat="50.255717" lon="5.725692"><ele>636.470</ele><time>2022-09-18T14:29:15Z</time></trkpt><trkpt lat="50.255788" lon="5.725501"><ele>635.777</ele><time>2022-09-18T14:29:16Z</time></trkpt><trkpt lat="50.255851" lon="5.725316"><ele>634.425</ele><time>2022-09-18T14:29:17Z</time></trkpt><trkpt lat="50.255912" lon="5.725094"><ele>632.526</ele><time>2022-09-18T14:29:18Z</time></trkpt><trkpt lat="50.255985" lon="5.724920"><ele>630.908</ele><time>2022-09-18T14:29:19Z</time></trkpt><trkpt lat="50.256059" lon="5.724704"><ele>629.409</ele><time>2022-09-18T14:29:20Z</time></trkpt><trkpt lat="50.256115" lon="5.724510"><ele>628.093</ele><time>2022-09-18T14:29:21Z</time></trkpt><trkpt lat="50.256177" lon="5.724294"><ele>627.393</ele><time>2022-09-18T14:29:22Z</time></trkpt><trkpt lat="50.256247" lon="5.724079"><ele>627.355</ele><time>2022-09-18T14:29:23Z</time></trkpt><trkpt lat="50.256313" lon="5.723843"><ele>627.351</ele><time>2022-09-18T14:29:24Z</time></trkpt><trkpt lat="50.256393" lon="5.723588"><ele>627.736</ele><time>2022-09-18T14:29:25Z</time></trkpt><trkpt lat="50.256477" lon="5.723315"><ele>628.581</ele><time>2022-09-18T14:29:26Z</time></trkpt><trkpt lat="50.256550" lon="5.723037"><ele>629.126</ele><time>2022-09-18T14:29:27Z</time></trkpt><trkpt lat="50.256627" lon="5.722759"><ele>629.740</ele><time>2022-09-18T14:29:28Z</time></trkpt><trkpt lat="50.256699" lon="5.722460"><ele>630.147</ele><time>2022-09-18T14:29:29Z</time></trkpt><trkpt lat="50.256780" lon="5.722159"><ele>629.893</ele><time>2022-09-18T14:29:30Z</time></trkpt><trkpt lat="50.256863" lon="5.721850"><ele>629.165</ele><time>2022-09-18T14:29:31Z</time></trkpt><trkpt lat="50.256950" lon="5.721535"><ele>628.321</ele><time>2022-09-18T14:29:32Z</time></trkpt><trkpt lat="50.257034" lon="5.721227"><ele>627.609</ele><time>2022-09-18T14:29:33Z</time></trkpt><trkpt lat="50.257121" lon="5.720927"><ele>626.820</ele><time>2022-09-18T14:29:34Z</time></trkpt><trkpt lat="50.257200" lon="5.720629"><ele>625.980</ele><time>2022-09-18T14:29:35Z</time></trkpt><trkpt lat="50.257287" lon="5.720345"><ele>624.922</ele><time>2022-09-18T14:29:36Z</time></trkpt><trkpt lat="50.257380" lon="5.720052"><ele>623.598</ele><time>2022-09-18T14:29:37Z</time></trkpt><trkpt lat="50.257472" lon="5.719778"><ele>621.853</ele><time>2022-09-18T14:29:38Z</time></trkpt><trkpt lat="50.257563" lon="5.719510"><ele>620.078</ele><time>2022-09-18T14:29:39Z</time></trkpt><trkpt lat="50.257655" lon="5.719250"><ele>618.043</ele><time>2022-09-18T14:29:40Z</time></trkpt><trkpt lat="50.257741" lon="5.719014"><ele>615.927</ele><time>2022-09-18T14:29:41Z</time></trkpt><trkpt lat="50.257815" lon="5.718784"><ele>614.084</ele><time>2022-09-18T14:29:42Z</time></trkpt><trkpt lat="50.257910" lon="5.718545"><ele>612.229</ele><time>2022-09-18T14:29:43Z</time></trkpt><trkpt lat="50.258007" lon="5.718306"><ele>610.400</ele><time>2022-09-18T14:29:44Z</time></trkpt><trkpt lat="50.258096" lon="5.718052"><ele>608.720</ele><time>2022-09-18T14:29:45Z</time></trkpt><trkpt lat="50.258185" lon="5.717805"><ele>607.209</ele><time>2022-09-18T14:29:46Z</time></trkpt><trkpt lat="50.258284" lon="5.717563"><ele>605.743</ele><time>2022-09-18T14:29:47Z</time></trkpt><trkpt lat="50.258371" lon="5.717322"><ele>604.443</ele><time>2022-09-18T14:29:48Z</time></trkpt><trkpt lat="50.258465" lon="5.717109"><ele>603.535</ele><time>2022-09-18T14:29:49Z</time></trkpt><trkpt lat="50.258553" lon="5.716877"><ele>602.621</ele><time>2022-09-18T14:29:50Z</time></trkpt><trkpt lat="50.258646" lon="5.716628"><ele>601.726</ele><time>2022-09-18T14:29:51Z</time></trkpt><trkpt lat="50.258740" lon="5.716387"><ele>601.161</ele><time>2022-09-18T14:29:52Z</time></trkpt><trkpt lat="50.258827" lon="5.716149"><ele>600.526</ele><time>2022-09-18T14:29:53Z</time></trkpt><trkpt lat="50.258915" lon="5.715899"><ele>599.660</ele><time>2022-09-18T14:29:54Z</time></trkpt><trkpt lat="50.259003" lon="5.715664"><ele>598.617</ele><time>2022-09-18T14:29:55Z</time></trkpt><trkpt lat="50.259089" lon="5.715437"><ele>597.823</ele><time>2022-09-18T14:29:56Z</time></trkpt><trkpt lat="50.259177" lon="5.715191"><ele>596.983</ele><time>2022-09-18T14:29:57Z</time></trkpt><trkpt lat="50.259258" lon="5.714952"><ele>596.011</ele><time>2022-09-18T14:29:58Z</time></trkpt><trkpt lat="50.259348" lon="5.714715"><ele>595.209</ele><time>2022-09-18T14:29:59Z</time></trkpt><trkpt lat="50.259436" lon="5.714477"><ele>594.633</ele><time>2022-09-18T14:30:00Z</time></trkpt><trkpt lat="50.259521" lon="5.714267"><ele>594.133</ele><time>2022-09-18T14:30:01Z</time></trkpt><trkpt lat="50.259600" lon="5.714058"><ele>593.765</ele><time>2022-09-18T14:30:02Z</time></trkpt><trkpt lat="50.259689" lon="5.713838"><ele>593.311</ele><time>2022-09-18T14:30:03Z</time></trkpt><trkpt lat="50.259778" lon="5.713594"><ele>593.046</ele><time>2022-09-18T14:30:04Z</time></trkpt><trkpt lat="50.259879" lon="5.713358"><ele>592.991</ele><time>2022-09-18T14:30:05Z</time></trkpt><trkpt lat="50.259971" lon="5.713112"><ele>592.866</ele><time>2022-09-18T14:30:06Z</time></trkpt><trkpt lat="50.260055" lon="5.712880"><ele>592.770</ele><time>2022-09-18T14:30:07Z</time></trkpt><trkpt lat="50.260133" lon="5.712614"><ele>592.677</ele><time>2022-09-18T14:30:08Z</time></trkpt><trkpt lat="50.260209" lon="5.712379"><ele>592.429</ele><time>2022-09-18T14:30:09Z</time></trkpt><trkpt lat="50.260295" lon="5.712144"><ele>592.100</ele><time>2022-09-18T14:30:10Z</time></trkpt><trkpt lat="50.260386" lon="5.711923"><ele>591.820</ele><time>2022-09-18T14:30:11Z</time></trkpt><trkpt lat="50.260486" lon="5.711706"><ele>591.609</ele><time>2022-09-18T14:30:12Z</time></trkpt><trkpt lat="50.260577" lon="5.711485"><ele>591.543</ele><time>2022-09-18T14:30:13Z</time></trkpt><trkpt lat="50.260669" lon="5.711260"><ele>591.473</ele><time>2022-09-18T14:30:14Z</time></trkpt><trkpt lat="50.260756" lon="5.711050"><ele>591.365</ele><time>2022-09-18T14:30:15Z</time></trkpt><trkpt lat="50.260838" lon="5.710840"><ele>591.051</ele><time>2022-09-18T14:30:16Z</time></trkpt><trkpt lat="50.260915" lon="5.710594"><ele>590.676</ele><time>2022-09-18T14:30:17Z</time></trkpt><trkpt lat="50.261003" lon="5.710370"><ele>590.231</ele><time>2022-09-18T14:30:18Z</time></trkpt><trkpt lat="50.261083" lon="5.710119"><ele>589.816</ele><time>2022-09-18T14:30:19Z</time></trkpt><trkpt lat="50.261171" lon="5.709888"><ele>589.520</ele><time>2022-09-18T14:30:20Z</time></trkpt><trkpt lat="50.261255" lon="5.709715"><ele>589.327</ele><time>2022-09-18T14:30:21Z</time></trkpt><trkpt lat="50.261328" lon="5.709507"><ele>589.278</ele><time>2022-09-18T14:30:22Z</time></trkpt><trkpt lat="50.261414" lon="5.709267"><ele>589.233</ele><time>2022-09-18T14:30:23Z</time></trkpt><trkpt lat="50.261505" lon="5.709036"><ele>589.226</ele><time>2022-09-18T14:30:24Z</time></trkpt><trkpt lat="50.261583" lon="5.708819"><ele>589.309</ele><time>2022-09-18T14:30:25Z</time></trkpt><trkpt lat="50.261658" lon="5.708614"><ele>589.348</ele><time>2022-09-18T14:30:26Z</time></trkpt><trkpt lat="50.261735" lon="5.708393"><ele>589.398</ele><time>2022-09-18T14:30:27Z</time></trkpt><trkpt lat="50.261819" lon="5.708150"><ele>589.170</ele><time>2022-09-18T14:30:28Z</time></trkpt><trkpt lat="50.261903" lon="5.707905"><ele>588.826</ele><time>2022-09-18T14:30:29Z</time></trkpt><trkpt lat="50.261975" lon="5.707702"><ele>588.621</ele><time>2022-09-18T14:30:30Z</time></trkpt><trkpt lat="50.262058" lon="5.707490"><ele>588.396</ele><time>2022-09-18T14:30:31Z</time></trkpt><trkpt lat="50.262153" lon="5.707264"><ele>587.931</ele><time>2022-09-18T14:30:32Z</time></trkpt><trkpt lat="50.262251" lon="5.707048"><ele>587.645</ele><time>2022-09-18T14:30:33Z</time></trkpt><trkpt lat="50.262361" lon="5.706807"><ele>587.032</ele><time>2022-09-18T14:30:34Z</time></trkpt><trkpt lat="50.262480" lon="5.706555"><ele>586.241</ele><time>2022-09-18T14:30:35Z</time></trkpt><trkpt lat="50.262594" lon="5.706315"><ele>585.481</ele><time>2022-09-18T14:30:36Z</time></trkpt><trkpt lat="50.262708" lon="5.706075"><ele>584.409</ele><time>2022-09-18T14:30:37Z</time></trkpt><trkpt lat="50.262823" lon="5.705848"><ele>583.309</ele><time>2022-09-18T14:30:38Z</time></trkpt><trkpt lat="50.262933" lon="5.705618"><ele>582.365</ele><time>2022-09-18T14:30:39Z</time></trkpt><trkpt lat="50.263031" lon="5.705366"><ele>581.565</ele><time>2022-09-18T14:30:40Z</time></trkpt><trkpt lat="50.263122" lon="5.705120"><ele>580.637</ele><time>2022-09-18T14:30:41Z</time></trkpt><trkpt lat="50.263223" lon="5.704907"><ele>579.753</ele><time>2022-09-18T14:30:42Z</time></trkpt><trkpt lat="50.263327" lon="5.704708"><ele>578.878</ele><time>2022-09-18T14:30:43Z</time></trkpt><trkpt lat="50.263440" lon="5.704523"><ele>577.973</ele><time>2022-09-18T14:30:44Z</time></trkpt><trkpt lat="50.263545" lon="5.704317"><ele>577.158</ele><time>2022-09-18T14:30:45Z</time></trkpt><trkpt lat="50.263631" lon="5.704029"><ele>576.542</ele><time>2022-09-18T14:30:46Z</time></trkpt><trkpt lat="50.263726" lon="5.703849"><ele>576.049</ele><time>2022-09-18T14:30:47Z</time></trkpt><trkpt lat="50.263833" lon="5.703684"><ele>575.478</ele><time>2022-09-18T14:30:48Z</time></trkpt><trkpt lat="50.263911" lon="5.703444"><ele>574.633</ele><time>2022-09-18T14:30:49Z</time></trkpt><trkpt lat="50.264032" lon="5.703221"><ele>573.626</ele><time>2022-09-18T14:30:50Z</time></trkpt><trkpt lat="50.264142" lon="5.703002"><ele>572.609</ele><time>2022-09-18T14:30:51Z</time></trkpt><trkpt lat="50.264238" lon="5.702809"><ele>572.118</ele><time>2022-09-18T14:30:52Z</time></trkpt><trkpt lat="50.264331" lon="5.702616"><ele>571.588</ele><time>2022-09-18T14:30:53Z</time></trkpt><trkpt lat="50.264438" lon="5.702392"><ele>570.480</ele><time>2022-09-18T14:30:54Z</time></trkpt><trkpt lat="50.264534" lon="5.702193"><ele>569.376</ele><time>2022-09-18T14:30:55Z</time></trkpt><trkpt lat="50.264620" lon="5.701985"><ele>568.361</ele><time>2022-09-18T14:30:56Z</time></trkpt><trkpt lat="50.264724" lon="5.701777"><ele>567.536</ele><time>2022-09-18T14:30:57Z</time></trkpt><trkpt lat="50.264836" lon="5.701552"><ele>566.811</ele><time>2022-09-18T14:30:58Z</time></trkpt><trkpt lat="50.264937" lon="5.701321"><ele>566.145</ele><time>2022-09-18T14:30:59Z</time></trkpt><trkpt lat="50.265049" lon="5.701091"><ele>565.542</ele><time>2022-09-18T14:31:00Z</time></trkpt><trkpt lat="50.265154" lon="5.700866"><ele>564.814</ele><time>2022-09-18T14:31:01Z</time></trkpt><trkpt lat="50.265256" lon="5.700627"><ele>563.954</ele><time>2022-09-18T14:31:02Z</time></trkpt><trkpt lat="50.265362" lon="5.700392"><ele>563.009</ele><time>2022-09-18T14:31:03Z</time></trkpt><trkpt lat="50.265461" lon="5.700186"><ele>562.009</ele><time>2022-09-18T14:31:04Z</time></trkpt><trkpt lat="50.265558" lon="5.699958"><ele>560.642</ele><time>2022-09-18T14:31:05Z</time></trkpt><trkpt lat="50.265658" lon="5.699745"><ele>559.172</ele><time>2022-09-18T14:31:06Z</time></trkpt><trkpt lat="50.265756" lon="5.699533"><ele>557.924</ele><time>2022-09-18T14:31:07Z</time></trkpt><trkpt lat="50.265856" lon="5.699325"><ele>556.710</ele><time>2022-09-18T14:31:08Z</time></trkpt><trkpt lat="50.265959" lon="5.699104"><ele>555.635</ele><time>2022-09-18T14:31:09Z</time></trkpt><trkpt lat="50.266057" lon="5.698895"><ele>554.630</ele><time>2022-09-18T14:31:10Z</time></trkpt><trkpt lat="50.266165" lon="5.698687"><ele>553.755</ele><time>2022-09-18T14:31:11Z</time></trkpt><trkpt lat="50.266260" lon="5.698469"><ele>552.619</ele><time>2022-09-18T14:31:12Z</time></trkpt><trkpt lat="50.266358" lon="5.698248"><ele>551.456</ele><time>2022-09-18T14:31:13Z</time></trkpt><trkpt lat="50.266456" lon="5.698038"><ele>550.263</ele><time>2022-09-18T14:31:14Z</time></trkpt><trkpt lat="50.266553" lon="5.697837"><ele>549.144</ele><time>2022-09-18T14:31:15Z</time></trkpt><trkpt lat="50.266654" lon="5.697631"><ele>548.318</ele><time>2022-09-18T14:31:16Z</time></trkpt><trkpt lat="50.266750" lon="5.697384"><ele>547.609</ele><time>2022-09-18T14:31:17Z</time></trkpt><trkpt lat="50.266853" lon="5.697193"><ele>546.947</ele><time>2022-09-18T14:31:18Z</time></trkpt><trkpt lat="50.266959" lon="5.697016"><ele>546.167</ele><time>2022-09-18T14:31:19Z</time></trkpt><trkpt lat="50.267061" lon="5.696805"><ele>545.289</ele><time>2022-09-18T14:31:20Z</time></trkpt><trkpt lat="50.267160" lon="5.696556"><ele>544.245</ele><time>2022-09-18T14:31:21Z</time></trkpt><trkpt lat="50.267261" lon="5.696309"><ele>543.270</ele><time>2022-09-18T14:31:22Z</time></trkpt><trkpt lat="50.267377" lon="5.696067"><ele>542.395</ele><time>2022-09-18T14:31:23Z</time></trkpt><trkpt lat="50.267471" lon="5.695867"><ele>541.630</ele><time>2022-09-18T14:31:24Z</time></trkpt><trkpt lat="50.267574" lon="5.695609"><ele>541.194</ele><time>2022-09-18T14:31:25Z</time></trkpt><trkpt lat="50.267671" lon="5.695411"><ele>540.751</ele><time>2022-09-18T14:31:26Z</time></trkpt><trkpt lat="50.267776" lon="5.695242"><ele>540.446</ele><time>2022-09-18T14:31:27Z</time></trkpt><trkpt lat="50.267874" lon="5.695054"><ele>540.088</ele><time>2022-09-18T14:31:28Z</time></trkpt><trkpt lat="50.267976" lon="5.694858"><ele>539.216</ele><time>2022-09-18T14:31:29Z</time></trkpt><trkpt lat="50.268103" lon="5.694689"><ele>538.109</ele><time>2022-09-18T14:31:30Z</time></trkpt><trkpt lat="50.268220" lon="5.694526"><ele>536.875</ele><time>2022-09-18T14:31:31Z</time></trkpt><trkpt lat="50.268334" lon="5.694364"><ele>535.325</ele><time>2022-09-18T14:31:32Z</time></trkpt><trkpt lat="50.268451" lon="5.694212"><ele>533.767</ele><time>2022-09-18T14:31:33Z</time></trkpt><trkpt lat="50.268572" lon="5.694081"><ele>532.323</ele><time>2022-09-18T14:31:34Z</time></trkpt><trkpt lat="50.268701" lon="5.693951"><ele>530.988</ele><time>2022-09-18T14:31:35Z</time></trkpt><trkpt lat="50.268846" lon="5.693821"><ele>529.723</ele><time>2022-09-18T14:31:36Z</time></trkpt><trkpt lat="50.268998" lon="5.693712"><ele>528.848</ele><time>2022-09-18T14:31:37Z</time></trkpt><trkpt lat="50.269150" lon="5.693598"><ele>528.112</ele><time>2022-09-18T14:31:38Z</time></trkpt><trkpt lat="50.269331" lon="5.693497"><ele>527.539</ele><time>2022-09-18T14:31:39Z</time></trkpt><trkpt lat="50.269507" lon="5.693417"><ele>527.224</ele><time>2022-09-18T14:31:40Z</time></trkpt><trkpt lat="50.269690" lon="5.693354"><ele>527.004</ele><time>2022-09-18T14:31:41Z</time></trkpt><trkpt lat="50.269875" lon="5.693326"><ele>526.614</ele><time>2022-09-18T14:31:42Z</time></trkpt><trkpt lat="50.270065" lon="5.693292"><ele>526.109</ele><time>2022-09-18T14:31:43Z</time></trkpt><trkpt lat="50.270251" lon="5.693250"><ele>525.283</ele><time>2022-09-18T14:31:44Z</time></trkpt><trkpt lat="50.270424" lon="5.693203"><ele>523.733</ele><time>2022-09-18T14:31:45Z</time></trkpt><trkpt lat="50.270607" lon="5.693164"><ele>522.285</ele><time>2022-09-18T14:31:46Z</time></trkpt><trkpt lat="50.270778" lon="5.693125"><ele>520.941</ele><time>2022-09-18T14:31:47Z</time></trkpt><trkpt lat="50.270958" lon="5.693076"><ele>519.896</ele><time>2022-09-18T14:31:48Z</time></trkpt><trkpt lat="50.271143" lon="5.693039"><ele>519.471</ele><time>2022-09-18T14:31:49Z</time></trkpt><trkpt lat="50.271323" lon="5.692990"><ele>519.746</ele><time>2022-09-18T14:31:50Z</time></trkpt><trkpt lat="50.271491" lon="5.692957"><ele>520.170</ele><time>2022-09-18T14:31:51Z</time></trkpt><trkpt lat="50.271656" lon="5.692922"><ele>520.457</ele><time>2022-09-18T14:31:52Z</time></trkpt><trkpt lat="50.271819" lon="5.692884"><ele>520.729</ele><time>2022-09-18T14:31:53Z</time></trkpt><trkpt lat="50.271993" lon="5.692838"><ele>520.800</ele><time>2022-09-18T14:31:54Z</time></trkpt><trkpt lat="50.272186" lon="5.692806"><ele>520.820</ele><time>2022-09-18T14:31:55Z</time></trkpt><trkpt lat="50.272365" lon="5.692776"><ele>520.909</ele><time>2022-09-18T14:31:56Z</time></trkpt><trkpt lat="50.272545" lon="5.692733"><ele>521.053</ele><time>2022-09-18T14:31:57Z</time></trkpt><trkpt lat="50.272724" lon="5.692687"><ele>521.043</ele><time>2022-09-18T14:31:58Z</time></trkpt><trkpt lat="50.272880" lon="5.692638"><ele>520.925</ele><time>2022-09-18T14:31:59Z</time></trkpt><trkpt lat="50.273047" lon="5.692587"><ele>520.711</ele><time>2022-09-18T14:32:00Z</time></trkpt><trkpt lat="50.273227" lon="5.692542"><ele>520.436</ele><time>2022-09-18T14:32:01Z</time></trkpt><trkpt lat="50.273410" lon="5.692505"><ele>520.061</ele><time>2022-09-18T14:32:02Z</time></trkpt><trkpt lat="50.273584" lon="5.692481"><ele>519.846</ele><time>2022-09-18T14:32:03Z</time></trkpt><trkpt lat="50.273764" lon="5.692462"><ele>519.880</ele><time>2022-09-18T14:32:04Z</time></trkpt><trkpt lat="50.273947" lon="5.692468"><ele>519.837</ele><time>2022-09-18T14:32:05Z</time></trkpt><trkpt lat="50.274131" lon="5.692484"><ele>519.726</ele><time>2022-09-18T14:32:06Z</time></trkpt><trkpt lat="50.274312" lon="5.692500"><ele>519.547</ele><time>2022-09-18T14:32:07Z</time></trkpt><trkpt lat="50.274505" lon="5.692536"><ele>519.111</ele><time>2022-09-18T14:32:08Z</time></trkpt><trkpt lat="50.274693" lon="5.692589"><ele>518.709</ele><time>2022-09-18T14:32:09Z</time></trkpt><trkpt lat="50.274865" lon="5.692634"><ele>518.223</ele><time>2022-09-18T14:32:10Z</time></trkpt><trkpt lat="50.275051" lon="5.692699"><ele>517.873</ele><time>2022-09-18T14:32:11Z</time></trkpt><trkpt lat="50.275239" lon="5.692772"><ele>517.545</ele><time>2022-09-18T14:32:12Z</time></trkpt><trkpt lat="50.275416" lon="5.692852"><ele>517.171</ele><time>2022-09-18T14:32:13Z</time></trkpt><trkpt lat="50.275576" lon="5.692926"><ele>516.526</ele><time>2022-09-18T14:32:14Z</time></trkpt><trkpt lat="50.275746" lon="5.692996"><ele>516.021</ele><time>2022-09-18T14:32:15Z</time></trkpt><trkpt lat="50.275905" lon="5.693078"><ele>515.636</ele><time>2022-09-18T14:32:16Z</time></trkpt><trkpt lat="50.276091" lon="5.693141"><ele>515.270</ele><time>2022-09-18T14:32:17Z</time></trkpt><trkpt lat="50.276271" lon="5.693204"><ele>515.047</ele><time>2022-09-18T14:32:18Z</time></trkpt><trkpt lat="50.276430" lon="5.693277"><ele>515.025</ele><time>2022-09-18T14:32:19Z</time></trkpt><trkpt lat="50.276576" lon="5.693350"><ele>515.026</ele><time>2022-09-18T14:32:20Z</time></trkpt><trkpt lat="50.276724" lon="5.693415"><ele>515.008</ele><time>2022-09-18T14:32:21Z</time></trkpt><trkpt lat="50.276879" lon="5.693474"><ele>515.109</ele><time>2022-09-18T14:32:22Z</time></trkpt><trkpt lat="50.277046" lon="5.693536"><ele>515.223</ele><time>2022-09-18T14:32:23Z</time></trkpt><trkpt lat="50.277210" lon="5.693603"><ele>515.343</ele><time>2022-09-18T14:32:24Z</time></trkpt><trkpt lat="50.277370" lon="5.693685"><ele>515.445</ele><time>2022-09-18T14:32:25Z</time></trkpt><trkpt lat="50.277550" lon="5.693760"><ele>515.651</ele><time>2022-09-18T14:32:26Z</time></trkpt><trkpt lat="50.277724" lon="5.693836"><ele>515.876</ele><time>2022-09-18T14:32:27Z</time></trkpt><trkpt lat="50.277914" lon="5.693902"><ele>516.141</ele><time>2022-09-18T14:32:28Z</time></trkpt><trkpt lat="50.278098" lon="5.693955"><ele>516.546</ele><time>2022-09-18T14:32:29Z</time></trkpt><trkpt lat="50.278262" lon="5.694017"><ele>516.960</ele><time>2022-09-18T14:32:30Z</time></trkpt><trkpt lat="50.278414" lon="5.694074"><ele>517.357</ele><time>2022-09-18T14:32:31Z</time></trkpt><trkpt lat="50.278573" lon="5.694150"><ele>517.885</ele><time>2022-09-18T14:32:32Z</time></trkpt><trkpt lat="50.278743" lon="5.694215"><ele>518.189</ele><time>2022-09-18T14:32:33Z</time></trkpt><trkpt lat="50.278905" lon="5.694293"><ele>518.317</ele><time>2022-09-18T14:32:34Z</time></trkpt><trkpt lat="50.279090" lon="5.694382"><ele>518.509</ele><time>2022-09-18T14:32:35Z</time></trkpt><trkpt lat="50.279244" lon="5.694443"><ele>518.639</ele><time>2022-09-18T14:32:36Z</time></trkpt><trkpt lat="50.279377" lon="5.694499"><ele>518.789</ele><time>2022-09-18T14:32:37Z</time></trkpt><trkpt lat="50.279531" lon="5.694563"><ele>518.831</ele><time>2022-09-18T14:32:38Z</time></trkpt><trkpt lat="50.279681" lon="5.694692"><ele>518.977</ele><time>2022-09-18T14:32:39Z</time></trkpt><trkpt lat="50.279857" lon="5.694759"><ele>518.922</ele><time>2022-09-18T14:32:40Z</time></trkpt><trkpt lat="50.280028" lon="5.694826"><ele>518.977</ele><time>2022-09-18T14:32:41Z</time></trkpt><trkpt lat="50.280199" lon="5.694899"><ele>518.912</ele><time>2022-09-18T14:32:42Z</time></trkpt><trkpt lat="50.280360" lon="5.694969"><ele>518.856</ele><time>2022-09-18T14:32:43Z</time></trkpt><trkpt lat="50.280538" lon="5.695036"><ele>518.673</ele><time>2022-09-18T14:32:44Z</time></trkpt><trkpt lat="50.280710" lon="5.695090"><ele>518.325</ele><time>2022-09-18T14:32:45Z</time></trkpt><trkpt lat="50.280880" lon="5.695160"><ele>518.126</ele><time>2022-09-18T14:32:46Z</time></trkpt><trkpt lat="50.281047" lon="5.695219"><ele>518.008</ele><time>2022-09-18T14:32:47Z</time></trkpt><trkpt lat="50.281212" lon="5.695297"><ele>517.909</ele><time>2022-09-18T14:32:48Z</time></trkpt><trkpt lat="50.281372" lon="5.695361"><ele>517.883</ele><time>2022-09-18T14:32:49Z</time></trkpt><trkpt lat="50.281529" lon="5.695417"><ele>518.153</ele><time>2022-09-18T14:32:50Z</time></trkpt><trkpt lat="50.281688" lon="5.695479"><ele>518.765</ele><time>2022-09-18T14:32:51Z</time></trkpt><trkpt lat="50.281852" lon="5.695555"><ele>519.341</ele><time>2022-09-18T14:32:52Z</time></trkpt><trkpt lat="50.282033" lon="5.695634"><ele>519.776</ele><time>2022-09-18T14:32:53Z</time></trkpt><trkpt lat="50.282207" lon="5.695716"><ele>520.071</ele><time>2022-09-18T14:32:54Z</time></trkpt><trkpt lat="50.282377" lon="5.695797"><ele>520.146</ele><time>2022-09-18T14:32:55Z</time></trkpt><trkpt lat="50.282546" lon="5.695859"><ele>519.730</ele><time>2022-09-18T14:32:56Z</time></trkpt><trkpt lat="50.282702" lon="5.695927"><ele>519.087</ele><time>2022-09-18T14:32:57Z</time></trkpt><trkpt lat="50.282864" lon="5.695985"><ele>518.565</ele><time>2022-09-18T14:32:58Z</time></trkpt><trkpt lat="50.283012" lon="5.696028"><ele>518.268</ele><time>2022-09-18T14:32:59Z</time></trkpt><trkpt lat="50.283154" lon="5.696112"><ele>517.914</ele><time>2022-09-18T14:33:00Z</time></trkpt><trkpt lat="50.283302" lon="5.696156"><ele>517.709</ele><time>2022-09-18T14:33:01Z</time></trkpt><trkpt lat="50.283436" lon="5.696229"><ele>517.717</ele><time>2022-09-18T14:33:02Z</time></trkpt><trkpt lat="50.283590" lon="5.696309"><ele>517.817</ele><time>2022-09-18T14:33:03Z</time></trkpt><trkpt lat="50.283734" lon="5.696367"><ele>517.929</ele><time>2022-09-18T14:33:04Z</time></trkpt><trkpt lat="50.283876" lon="5.696428"><ele>518.045</ele><time>2022-09-18T14:33:05Z</time></trkpt><trkpt lat="50.284036" lon="5.696466"><ele>518.120</ele><time>2022-09-18T14:33:06Z</time></trkpt><trkpt lat="50.284207" lon="5.696484"><ele>517.995</ele><time>2022-09-18T14:33:07Z</time></trkpt><trkpt lat="50.284373" lon="5.696493"><ele>517.510</ele><time>2022-09-18T14:33:08Z</time></trkpt><trkpt lat="50.284545" lon="5.696455"><ele>517.124</ele><time>2022-09-18T14:33:09Z</time></trkpt><trkpt lat="50.284712" lon="5.696389"><ele>516.981</ele><time>2022-09-18T14:33:10Z</time></trkpt><trkpt lat="50.284878" lon="5.696302"><ele>517.071</ele><time>2022-09-18T14:33:11Z</time></trkpt><trkpt lat="50.285038" lon="5.696187"><ele>517.341</ele><time>2022-09-18T14:33:12Z</time></trkpt><trkpt lat="50.285192" lon="5.696042"><ele>517.615</ele><time>2022-09-18T14:33:13Z</time></trkpt><trkpt lat="50.285312" lon="5.695863"><ele>517.809</ele><time>2022-09-18T14:33:14Z</time></trkpt><trkpt lat="50.285428" lon="5.695662"><ele>517.988</ele><time>2022-09-18T14:33:15Z</time></trkpt><trkpt lat="50.285527" lon="5.695453"><ele>517.938</ele><time>2022-09-18T14:33:16Z</time></trkpt><trkpt lat="50.285609" lon="5.695236"><ele>517.790</ele><time>2022-09-18T14:33:17Z</time></trkpt><trkpt lat="50.285681" lon="5.694990"><ele>517.466</ele><time>2022-09-18T14:33:18Z</time></trkpt><trkpt lat="50.285735" lon="5.694747"><ele>517.111</ele><time>2022-09-18T14:33:19Z</time></trkpt><trkpt lat="50.285767" lon="5.694512"><ele>516.656</ele><time>2022-09-18T14:33:20Z</time></trkpt><trkpt lat="50.285794" lon="5.694234"><ele>516.291</ele><time>2022-09-18T14:33:21Z</time></trkpt><trkpt lat="50.285828" lon="5.693966"><ele>515.855</ele><time>2022-09-18T14:33:22Z</time></trkpt><trkpt lat="50.285853" lon="5.693683"><ele>515.212</ele><time>2022-09-18T14:33:23Z</time></trkpt><trkpt lat="50.285878" lon="5.693401"><ele>514.535</ele><time>2022-09-18T14:33:24Z</time></trkpt><trkpt lat="50.285900" lon="5.693103"><ele>514.186</ele><time>2022-09-18T14:33:25Z</time></trkpt><trkpt lat="50.285926" lon="5.692823"><ele>513.614</ele><time>2022-09-18T14:33:26Z</time></trkpt><trkpt lat="50.285957" lon="5.692543"><ele>513.009</ele><time>2022-09-18T14:33:27Z</time></trkpt><trkpt lat="50.285993" lon="5.692270"><ele>512.764</ele><time>2022-09-18T14:33:28Z</time></trkpt><trkpt lat="50.286021" lon="5.691997"><ele>512.454</ele><time>2022-09-18T14:33:29Z</time></trkpt><trkpt lat="50.286047" lon="5.691724"><ele>511.786</ele><time>2022-09-18T14:33:30Z</time></trkpt><trkpt lat="50.286073" lon="5.691456"><ele>510.852</ele><time>2022-09-18T14:33:31Z</time></trkpt><trkpt lat="50.286092" lon="5.691186"><ele>509.847</ele><time>2022-09-18T14:33:32Z</time></trkpt><trkpt lat="50.286111" lon="5.690915"><ele>508.742</ele><time>2022-09-18T14:33:33Z</time></trkpt><trkpt lat="50.286118" lon="5.690646"><ele>507.687</ele><time>2022-09-18T14:33:34Z</time></trkpt><trkpt lat="50.286115" lon="5.690364"><ele>506.361</ele><time>2022-09-18T14:33:35Z</time></trkpt><trkpt lat="50.286102" lon="5.690097"><ele>504.888</ele><time>2022-09-18T14:33:36Z</time></trkpt><trkpt lat="50.286088" lon="5.689828"><ele>503.648</ele><time>2022-09-18T14:33:37Z</time></trkpt><trkpt lat="50.286087" lon="5.689552"><ele>502.661</ele><time>2022-09-18T14:33:38Z</time></trkpt><trkpt lat="50.286064" lon="5.689278"><ele>501.617</ele><time>2022-09-18T14:33:39Z</time></trkpt><trkpt lat="50.286038" lon="5.689005"><ele>500.809</ele><time>2022-09-18T14:33:40Z</time></trkpt><trkpt lat="50.286015" lon="5.688749"><ele>500.245</ele><time>2022-09-18T14:33:41Z</time></trkpt><trkpt lat="50.285977" lon="5.688496"><ele>499.575</ele><time>2022-09-18T14:33:42Z</time></trkpt><trkpt lat="50.285969" lon="5.688243"><ele>498.477</ele><time>2022-09-18T14:33:43Z</time></trkpt><trkpt lat="50.285949" lon="5.688021"><ele>496.983</ele><time>2022-09-18T14:33:44Z</time></trkpt><trkpt lat="50.285928" lon="5.687788"><ele>495.358</ele><time>2022-09-18T14:33:45Z</time></trkpt><trkpt lat="50.285909" lon="5.687574"><ele>493.853</ele><time>2022-09-18T14:33:46Z</time></trkpt><trkpt lat="50.285888" lon="5.687342"><ele>492.288</ele><time>2022-09-18T14:33:47Z</time></trkpt><trkpt lat="50.285851" lon="5.687080"><ele>490.642</ele><time>2022-09-18T14:33:48Z</time></trkpt><trkpt lat="50.285826" lon="5.686834"><ele>489.539</ele><time>2022-09-18T14:33:49Z</time></trkpt><trkpt lat="50.285820" lon="5.686586"><ele>488.858</ele><time>2022-09-18T14:33:50Z</time></trkpt><trkpt lat="50.285786" lon="5.686333"><ele>488.152</ele><time>2022-09-18T14:33:51Z</time></trkpt><trkpt lat="50.285767" lon="5.686074"><ele>487.517</ele><time>2022-09-18T14:33:52Z</time></trkpt><trkpt lat="50.285748" lon="5.685800"><ele>487.109</ele><time>2022-09-18T14:33:53Z</time></trkpt><trkpt lat="50.285723" lon="5.685529"><ele>486.596</ele><time>2022-09-18T14:33:54Z</time></trkpt><trkpt lat="50.285704" lon="5.685264"><ele>485.776</ele><time>2022-09-18T14:33:55Z</time></trkpt><trkpt lat="50.285677" lon="5.685012"><ele>484.958</ele><time>2022-09-18T14:33:56Z</time></trkpt><trkpt lat="50.285663" lon="5.684766"><ele>483.884</ele><time>2022-09-18T14:33:57Z</time></trkpt><trkpt lat="50.285644" lon="5.684530"><ele>482.339</ele><time>2022-09-18T14:33:58Z</time></trkpt><trkpt lat="50.285608" lon="5.684295"><ele>480.934</ele><time>2022-09-18T14:33:59Z</time></trkpt><trkpt lat="50.285597" lon="5.684050"><ele>479.549</ele><time>2022-09-18T14:34:00Z</time></trkpt><trkpt lat="50.285582" lon="5.683798"><ele>477.943</ele><time>2022-09-18T14:34:01Z</time></trkpt><trkpt lat="50.285569" lon="5.683536"><ele>476.460</ele><time>2022-09-18T14:34:02Z</time></trkpt><trkpt lat="50.285562" lon="5.683289"><ele>475.498</ele><time>2022-09-18T14:34:03Z</time></trkpt><trkpt lat="50.285561" lon="5.683041"><ele>474.615</ele><time>2022-09-18T14:34:04Z</time></trkpt><trkpt lat="50.285572" lon="5.682808"><ele>473.926</ele><time>2022-09-18T14:34:05Z</time></trkpt><trkpt lat="50.285596" lon="5.682559"><ele>473.309</ele><time>2022-09-18T14:34:06Z</time></trkpt><trkpt lat="50.285637" lon="5.682290"><ele>472.690</ele><time>2022-09-18T14:34:07Z</time></trkpt><trkpt lat="50.285687" lon="5.682037"><ele>471.910</ele><time>2022-09-18T14:34:08Z</time></trkpt><trkpt lat="50.285760" lon="5.681794"><ele>471.262</ele><time>2022-09-18T14:34:09Z</time></trkpt><trkpt lat="50.285876" lon="5.681563"><ele>470.418</ele><time>2022-09-18T14:34:10Z</time></trkpt><trkpt lat="50.285975" lon="5.681322"><ele>469.683</ele><time>2022-09-18T14:34:11Z</time></trkpt><trkpt lat="50.286101" lon="5.681114"><ele>468.748</ele><time>2022-09-18T14:34:12Z</time></trkpt><trkpt lat="50.286265" lon="5.680930"><ele>467.643</ele><time>2022-09-18T14:34:13Z</time></trkpt><trkpt lat="50.286440" lon="5.680747"><ele>466.537</ele><time>2022-09-18T14:34:14Z</time></trkpt><trkpt lat="50.286601" lon="5.680576"><ele>465.564</ele><time>2022-09-18T14:34:15Z</time></trkpt><trkpt lat="50.286774" lon="5.680437"><ele>464.439</ele><time>2022-09-18T14:34:16Z</time></trkpt><trkpt lat="50.286934" lon="5.680291"><ele>463.501</ele><time>2022-09-18T14:34:17Z</time></trkpt><trkpt lat="50.287099" lon="5.680141"><ele>462.721</ele><time>2022-09-18T14:34:18Z</time></trkpt><trkpt lat="50.287261" lon="5.679999"><ele>461.609</ele><time>2022-09-18T14:34:19Z</time></trkpt><trkpt lat="50.287421" lon="5.679855"><ele>460.194</ele><time>2022-09-18T14:34:20Z</time></trkpt><trkpt lat="50.287569" lon="5.679725"><ele>458.784</ele><time>2022-09-18T14:34:21Z</time></trkpt><trkpt lat="50.287718" lon="5.679618"><ele>457.226</ele><time>2022-09-18T14:34:22Z</time></trkpt><trkpt lat="50.287861" lon="5.679495"><ele>455.512</ele><time>2022-09-18T14:34:23Z</time></trkpt><trkpt lat="50.288004" lon="5.679369"><ele>454.137</ele><time>2022-09-18T14:34:24Z</time></trkpt><trkpt lat="50.288167" lon="5.679265"><ele>452.782</ele><time>2022-09-18T14:34:25Z</time></trkpt><trkpt lat="50.288295" lon="5.679147"><ele>451.487</ele><time>2022-09-18T14:34:26Z</time></trkpt><trkpt lat="50.288414" lon="5.679040"><ele>450.451</ele><time>2022-09-18T14:34:27Z</time></trkpt><trkpt lat="50.288539" lon="5.678936"><ele>449.578</ele><time>2022-09-18T14:34:28Z</time></trkpt><trkpt lat="50.288664" lon="5.678818"><ele>448.626</ele><time>2022-09-18T14:34:29Z</time></trkpt><trkpt lat="50.288786" lon="5.678697"><ele>447.747</ele><time>2022-09-18T14:34:30Z</time></trkpt><trkpt lat="50.288912" lon="5.678577"><ele>446.711</ele><time>2022-09-18T14:34:31Z</time></trkpt><trkpt lat="50.289034" lon="5.678461"><ele>445.609</ele><time>2022-09-18T14:34:32Z</time></trkpt><trkpt lat="50.289150" lon="5.678363"><ele>444.713</ele><time>2022-09-18T14:34:33Z</time></trkpt><trkpt lat="50.289262" lon="5.678260"><ele>444.313</ele><time>2022-09-18T14:34:34Z</time></trkpt><trkpt lat="50.289381" lon="5.678157"><ele>443.565</ele><time>2022-09-18T14:34:35Z</time></trkpt><trkpt lat="50.289499" lon="5.678053"><ele>442.321</ele><time>2022-09-18T14:34:36Z</time></trkpt><trkpt lat="50.289620" lon="5.677953"><ele>441.766</ele><time>2022-09-18T14:34:37Z</time></trkpt><trkpt lat="50.289737" lon="5.677853"><ele>441.211</ele><time>2022-09-18T14:34:38Z</time></trkpt><trkpt lat="50.289855" lon="5.677760"><ele>441.016</ele><time>2022-09-18T14:34:39Z</time></trkpt><trkpt lat="50.289972" lon="5.677667"><ele>440.670</ele><time>2022-09-18T14:34:40Z</time></trkpt><trkpt lat="50.290091" lon="5.677559"><ele>440.447</ele><time>2022-09-18T14:34:41Z</time></trkpt><trkpt lat="50.290211" lon="5.677450"><ele>440.473</ele><time>2022-09-18T14:34:42Z</time></trkpt><trkpt lat="50.290331" lon="5.677339"><ele>440.385</ele><time>2022-09-18T14:34:43Z</time></trkpt><trkpt lat="50.290459" lon="5.677218"><ele>440.213</ele><time>2022-09-18T14:34:44Z</time></trkpt><trkpt lat="50.290593" lon="5.677096"><ele>440.109</ele><time>2022-09-18T14:34:45Z</time></trkpt><trkpt lat="50.290727" lon="5.676983"><ele>440.088</ele><time>2022-09-18T14:34:46Z</time></trkpt><trkpt lat="50.290860" lon="5.676866"><ele>439.848</ele><time>2022-09-18T14:34:47Z</time></trkpt><trkpt lat="50.290983" lon="5.676748"><ele>439.640</ele><time>2022-09-18T14:34:48Z</time></trkpt><trkpt lat="50.291105" lon="5.676637"><ele>439.396</ele><time>2022-09-18T14:34:49Z</time></trkpt><trkpt lat="50.291222" lon="5.676538"><ele>438.871</ele><time>2022-09-18T14:34:50Z</time></trkpt><trkpt lat="50.291341" lon="5.676441"><ele>438.516</ele><time>2022-09-18T14:34:51Z</time></trkpt><trkpt lat="50.291455" lon="5.676349"><ele>437.811</ele><time>2022-09-18T14:34:52Z</time></trkpt><trkpt lat="50.291570" lon="5.676252"><ele>437.385</ele><time>2022-09-18T14:34:53Z</time></trkpt><trkpt lat="50.291681" lon="5.676159"><ele>437.042</ele><time>2022-09-18T14:34:54Z</time></trkpt><trkpt lat="50.291788" lon="5.676063"><ele>436.856</ele><time>2022-09-18T14:34:55Z</time></trkpt><trkpt lat="50.291883" lon="5.675974"><ele>436.459</ele><time>2022-09-18T14:34:56Z</time></trkpt><trkpt lat="50.291982" lon="5.675889"><ele>436.214</ele><time>2022-09-18T14:34:57Z</time></trkpt><trkpt lat="50.292075" lon="5.675796"><ele>435.909</ele><time>2022-09-18T14:34:58Z</time></trkpt><trkpt lat="50.292152" lon="5.675729"><ele>435.576</ele><time>2022-09-18T14:34:59Z</time></trkpt><trkpt lat="50.292230" lon="5.675660"><ele>435.346</ele><time>2022-09-18T14:35:00Z</time></trkpt><trkpt lat="50.292302" lon="5.675596"><ele>435.348</ele><time>2022-09-18T14:35:01Z</time></trkpt><trkpt lat="50.292374" lon="5.675532"><ele>435.394</ele><time>2022-09-18T14:35:02Z</time></trkpt><trkpt lat="50.292433" lon="5.675494"><ele>435.329</ele><time>2022-09-18T14:35:03Z</time></trkpt><trkpt lat="50.292405" lon="5.675229"><ele>435.084</ele><time>2022-09-18T14:35:04Z</time></trkpt><trkpt lat="50.292378" lon="5.675080"><ele>434.539</ele><time>2022-09-18T14:35:05Z</time></trkpt><trkpt lat="50.292341" lon="5.674884"><ele>434.563</ele><time>2022-09-18T14:35:06Z</time></trkpt><trkpt lat="50.292308" lon="5.674678"><ele>434.540</ele><time>2022-09-18T14:35:07Z</time></trkpt><trkpt lat="50.292282" lon="5.674469"><ele>434.767</ele><time>2022-09-18T14:35:08Z</time></trkpt><trkpt lat="50.292254" lon="5.674269"><ele>434.781</ele><time>2022-09-18T14:35:09Z</time></trkpt><trkpt lat="50.292223" lon="5.674072"><ele>434.719</ele><time>2022-09-18T14:35:10Z</time></trkpt><trkpt lat="50.292204" lon="5.673851"><ele>434.609</ele><time>2022-09-18T14:35:11Z</time></trkpt><trkpt lat="50.292186" lon="5.673626"><ele>434.547</ele><time>2022-09-18T14:35:12Z</time></trkpt><trkpt lat="50.292156" lon="5.673397"><ele>434.347</ele><time>2022-09-18T14:35:13Z</time></trkpt><trkpt lat="50.292124" lon="5.673164"><ele>434.339</ele><time>2022-09-18T14:35:14Z</time></trkpt><trkpt lat="50.292094" lon="5.672915"><ele>434.345</ele><time>2022-09-18T14:35:15Z</time></trkpt><trkpt lat="50.292060" lon="5.672666"><ele>434.340</ele><time>2022-09-18T14:35:16Z</time></trkpt><trkpt lat="50.292031" lon="5.672425"><ele>434.265</ele><time>2022-09-18T14:35:17Z</time></trkpt><trkpt lat="50.292001" lon="5.672176"><ele>434.140</ele><time>2022-09-18T14:35:18Z</time></trkpt><trkpt lat="50.291975" lon="5.671938"><ele>434.144</ele><time>2022-09-18T14:35:19Z</time></trkpt><trkpt lat="50.291952" lon="5.671688"><ele>433.951</ele><time>2022-09-18T14:35:20Z</time></trkpt><trkpt lat="50.291925" lon="5.671436"><ele>433.429</ele><time>2022-09-18T14:35:21Z</time></trkpt><trkpt lat="50.291902" lon="5.671188"><ele>432.800</ele><time>2022-09-18T14:35:22Z</time></trkpt><trkpt lat="50.291878" lon="5.670933"><ele>432.420</ele><time>2022-09-18T14:35:23Z</time></trkpt><trkpt lat="50.291845" lon="5.670679"><ele>432.209</ele><time>2022-09-18T14:35:24Z</time></trkpt><trkpt lat="50.291810" lon="5.670409"><ele>432.183</ele><time>2022-09-18T14:35:25Z</time></trkpt><trkpt lat="50.291774" lon="5.670147"><ele>431.993</ele><time>2022-09-18T14:35:26Z</time></trkpt><trkpt lat="50.291743" lon="5.669905"><ele>431.835</ele><time>2022-09-18T14:35:27Z</time></trkpt><trkpt lat="50.291712" lon="5.669655"><ele>431.521</ele><time>2022-09-18T14:35:28Z</time></trkpt><trkpt lat="50.291674" lon="5.669391"><ele>430.846</ele><time>2022-09-18T14:35:29Z</time></trkpt><trkpt lat="50.291633" lon="5.669133"><ele>430.291</ele><time>2022-09-18T14:35:30Z</time></trkpt><trkpt lat="50.291592" lon="5.668863"><ele>429.876</ele><time>2022-09-18T14:35:31Z</time></trkpt><trkpt lat="50.291557" lon="5.668600"><ele>429.410</ele><time>2022-09-18T14:35:32Z</time></trkpt><trkpt lat="50.291529" lon="5.668335"><ele>428.927</ele><time>2022-09-18T14:35:33Z</time></trkpt><trkpt lat="50.291497" lon="5.668071"><ele>428.431</ele><time>2022-09-18T14:35:34Z</time></trkpt><trkpt lat="50.291462" lon="5.667780"><ele>427.961</ele><time>2022-09-18T14:35:35Z</time></trkpt><trkpt lat="50.291428" lon="5.667498"><ele>427.507</ele><time>2022-09-18T14:35:36Z</time></trkpt><trkpt lat="50.291404" lon="5.667237"><ele>427.009</ele><time>2022-09-18T14:35:37Z</time></trkpt><trkpt lat="50.291377" lon="5.666962"><ele>426.224</ele><time>2022-09-18T14:35:38Z</time></trkpt><trkpt lat="50.291345" lon="5.666691"><ele>425.364</ele><time>2022-09-18T14:35:39Z</time></trkpt><trkpt lat="50.291312" lon="5.666439"><ele>424.566</ele><time>2022-09-18T14:35:40Z</time></trkpt><trkpt lat="50.291285" lon="5.666190"><ele>423.942</ele><time>2022-09-18T14:35:41Z</time></trkpt><trkpt lat="50.291258" lon="5.665962"><ele>423.227</ele><time>2022-09-18T14:35:42Z</time></trkpt><trkpt lat="50.291232" lon="5.665744"><ele>422.722</ele><time>2022-09-18T14:35:43Z</time></trkpt><trkpt lat="50.291208" lon="5.665541"><ele>422.417</ele><time>2022-09-18T14:35:44Z</time></trkpt><trkpt lat="50.291185" lon="5.665336"><ele>422.321</ele><time>2022-09-18T14:35:45Z</time></trkpt><trkpt lat="50.291163" lon="5.665160"><ele>421.578</ele><time>2022-09-18T14:35:46Z</time></trkpt><trkpt lat="50.291141" lon="5.664998"><ele>420.487</ele><time>2022-09-18T14:35:47Z</time></trkpt><trkpt lat="50.291124" lon="5.664837"><ele>419.242</ele><time>2022-09-18T14:35:48Z</time></trkpt><trkpt lat="50.291131" lon="5.664667"><ele>418.026</ele><time>2022-09-18T14:35:49Z</time></trkpt><trkpt lat="50.291149" lon="5.664521"><ele>417.009</ele><time>2022-09-18T14:35:50Z</time></trkpt><trkpt lat="50.291237" lon="5.664371"><ele>416.529</ele><time>2022-09-18T14:35:51Z</time></trkpt><trkpt lat="50.291329" lon="5.664236"><ele>416.379</ele><time>2022-09-18T14:35:52Z</time></trkpt><trkpt lat="50.291442" lon="5.664136"><ele>416.311</ele><time>2022-09-18T14:35:53Z</time></trkpt><trkpt lat="50.291538" lon="5.664024"><ele>416.417</ele><time>2022-09-18T14:35:54Z</time></trkpt><trkpt lat="50.291659" lon="5.663866"><ele>416.562</ele><time>2022-09-18T14:35:55Z</time></trkpt><trkpt lat="50.291788" lon="5.663682"><ele>416.697</ele><time>2022-09-18T14:35:56Z</time></trkpt><trkpt lat="50.291903" lon="5.663483"><ele>416.872</ele><time>2022-09-18T14:35:57Z</time></trkpt><trkpt lat="50.292047" lon="5.663304"><ele>417.136</ele><time>2022-09-18T14:35:58Z</time></trkpt><trkpt lat="50.292185" lon="5.663105"><ele>417.423</ele><time>2022-09-18T14:35:59Z</time></trkpt><trkpt lat="50.292319" lon="5.662918"><ele>417.737</ele><time>2022-09-18T14:36:00Z</time></trkpt><trkpt lat="50.292442" lon="5.662744"><ele>417.849</ele><time>2022-09-18T14:36:01Z</time></trkpt><trkpt lat="50.292566" lon="5.662569"><ele>417.713</ele><time>2022-09-18T14:36:02Z</time></trkpt><trkpt lat="50.292679" lon="5.662402"><ele>417.409</ele><time>2022-09-18T14:36:03Z</time></trkpt><trkpt lat="50.292800" lon="5.662227"><ele>416.934</ele><time>2022-09-18T14:36:04Z</time></trkpt><trkpt lat="50.292921" lon="5.662046"><ele>416.384</ele><time>2022-09-18T14:36:05Z</time></trkpt><trkpt lat="50.293043" lon="5.661873"><ele>415.796</ele><time>2022-09-18T14:36:06Z</time></trkpt><trkpt lat="50.293170" lon="5.661701"><ele>415.442</ele><time>2022-09-18T14:36:07Z</time></trkpt><trkpt lat="50.293291" lon="5.661526"><ele>415.357</ele><time>2022-09-18T14:36:08Z</time></trkpt><trkpt lat="50.293412" lon="5.661360"><ele>415.282</ele><time>2022-09-18T14:36:09Z</time></trkpt><trkpt lat="50.293542" lon="5.661211"><ele>415.077</ele><time>2022-09-18T14:36:10Z</time></trkpt><trkpt lat="50.293669" lon="5.661036"><ele>414.851</ele><time>2022-09-18T14:36:11Z</time></trkpt><trkpt lat="50.293788" lon="5.660871"><ele>414.638</ele><time>2022-09-18T14:36:12Z</time></trkpt><trkpt lat="50.293897" lon="5.660687"><ele>414.229</ele><time>2022-09-18T14:36:13Z</time></trkpt><trkpt lat="50.294015" lon="5.660529"><ele>413.700</ele><time>2022-09-18T14:36:14Z</time></trkpt><trkpt lat="50.294131" lon="5.660370"><ele>413.420</ele><time>2022-09-18T14:36:15Z</time></trkpt><trkpt lat="50.294251" lon="5.660230"><ele>413.009</ele><time>2022-09-18T14:36:16Z</time></trkpt><trkpt lat="50.294343" lon="5.660048"><ele>412.453</ele><time>2022-09-18T14:36:17Z</time></trkpt><trkpt lat="50.294450" lon="5.659901"><ele>411.943</ele><time>2022-09-18T14:36:18Z</time></trkpt><trkpt lat="50.294559" lon="5.659757"><ele>411.525</ele><time>2022-09-18T14:36:19Z</time></trkpt><trkpt lat="50.294663" lon="5.659604"><ele>411.131</ele><time>2022-09-18T14:36:20Z</time></trkpt><trkpt lat="50.294756" lon="5.659452"><ele>410.876</ele><time>2022-09-18T14:36:21Z</time></trkpt><trkpt lat="50.294827" lon="5.659278"><ele>410.741</ele><time>2022-09-18T14:36:22Z</time></trkpt><trkpt lat="50.294881" lon="5.659076"><ele>410.426</ele><time>2022-09-18T14:36:23Z</time></trkpt><trkpt lat="50.294899" lon="5.658860"><ele>410.260</ele><time>2022-09-18T14:36:24Z</time></trkpt><trkpt lat="50.294909" lon="5.658638"><ele>410.117</ele><time>2022-09-18T14:36:25Z</time></trkpt><trkpt lat="50.294853" lon="5.658421"><ele>410.074</ele><time>2022-09-18T14:36:26Z</time></trkpt><trkpt lat="50.294810" lon="5.658208"><ele>409.956</ele><time>2022-09-18T14:36:27Z</time></trkpt><trkpt lat="50.294716" lon="5.657978"><ele>409.921</ele><time>2022-09-18T14:36:28Z</time></trkpt><trkpt lat="50.294611" lon="5.657768"><ele>410.009</ele><time>2022-09-18T14:36:29Z</time></trkpt><trkpt lat="50.294507" lon="5.657568"><ele>410.168</ele><time>2022-09-18T14:36:30Z</time></trkpt><trkpt lat="50.294388" lon="5.657369"><ele>410.288</ele><time>2022-09-18T14:36:31Z</time></trkpt><trkpt lat="50.294280" lon="5.657171"><ele>410.240</ele><time>2022-09-18T14:36:32Z</time></trkpt><trkpt lat="50.294190" lon="5.656955"><ele>410.136</ele><time>2022-09-18T14:36:33Z</time></trkpt><trkpt lat="50.294132" lon="5.656731"><ele>410.061</ele><time>2022-09-18T14:36:34Z</time></trkpt><trkpt lat="50.294092" lon="5.656491"><ele>409.896</ele><time>2022-09-18T14:36:35Z</time></trkpt><trkpt lat="50.294063" lon="5.656238"><ele>409.761</ele><time>2022-09-18T14:36:36Z</time></trkpt><trkpt lat="50.294056" lon="5.655944"><ele>409.665</ele><time>2022-09-18T14:36:37Z</time></trkpt><trkpt lat="50.294048" lon="5.655696"><ele>409.422</ele><time>2022-09-18T14:36:38Z</time></trkpt><trkpt lat="50.294042" lon="5.655439"><ele>409.114</ele><time>2022-09-18T14:36:39Z</time></trkpt><trkpt lat="50.294032" lon="5.655176"><ele>408.754</ele><time>2022-09-18T14:36:40Z</time></trkpt><trkpt lat="50.294040" lon="5.654911"><ele>408.409</ele><time>2022-09-18T14:36:41Z</time></trkpt><trkpt lat="50.294051" lon="5.654669"><ele>407.909</ele><time>2022-09-18T14:36:42Z</time></trkpt><trkpt lat="50.294091" lon="5.654453"><ele>407.322</ele><time>2022-09-18T14:36:43Z</time></trkpt><trkpt lat="50.294165" lon="5.654243"><ele>406.822</ele><time>2022-09-18T14:36:44Z</time></trkpt><trkpt lat="50.294261" lon="5.654049"><ele>406.484</ele><time>2022-09-18T14:36:45Z</time></trkpt><trkpt lat="50.294390" lon="5.653862"><ele>405.980</ele><time>2022-09-18T14:36:46Z</time></trkpt><trkpt lat="50.294532" lon="5.653682"><ele>405.525</ele><time>2022-09-18T14:36:47Z</time></trkpt><trkpt lat="50.294665" lon="5.653515"><ele>405.340</ele><time>2022-09-18T14:36:48Z</time></trkpt><trkpt lat="50.294803" lon="5.653323"><ele>405.035</ele><time>2022-09-18T14:36:49Z</time></trkpt><trkpt lat="50.294923" lon="5.653107"><ele>404.559</ele><time>2022-09-18T14:36:50Z</time></trkpt><trkpt lat="50.295061" lon="5.652914"><ele>403.976</ele><time>2022-09-18T14:36:51Z</time></trkpt><trkpt lat="50.295200" lon="5.652737"><ele>403.299</ele><time>2022-09-18T14:36:52Z</time></trkpt><trkpt lat="50.295328" lon="5.652556"><ele>402.307</ele><time>2022-09-18T14:36:53Z</time></trkpt><trkpt lat="50.295451" lon="5.652351"><ele>401.427</ele><time>2022-09-18T14:36:54Z</time></trkpt><trkpt lat="50.295599" lon="5.652164"><ele>400.509</ele><time>2022-09-18T14:36:55Z</time></trkpt><trkpt lat="50.295747" lon="5.652015"><ele>399.710</ele><time>2022-09-18T14:36:56Z</time></trkpt><trkpt lat="50.295896" lon="5.651867"><ele>398.970</ele><time>2022-09-18T14:36:57Z</time></trkpt><trkpt lat="50.296062" lon="5.651759"><ele>398.182</ele><time>2022-09-18T14:36:58Z</time></trkpt><trkpt lat="50.296231" lon="5.651662"><ele>397.528</ele><time>2022-09-18T14:36:59Z</time></trkpt><trkpt lat="50.296381" lon="5.651608"><ele>396.923</ele><time>2022-09-18T14:37:00Z</time></trkpt><trkpt lat="50.296543" lon="5.651557"><ele>396.058</ele><time>2022-09-18T14:37:01Z</time></trkpt><trkpt lat="50.296700" lon="5.651507"><ele>395.053</ele><time>2022-09-18T14:37:02Z</time></trkpt><trkpt lat="50.296852" lon="5.651459"><ele>394.157</ele><time>2022-09-18T14:37:03Z</time></trkpt><trkpt lat="50.296988" lon="5.651425"><ele>393.124</ele><time>2022-09-18T14:37:04Z</time></trkpt><trkpt lat="50.297143" lon="5.651421"><ele>392.113</ele><time>2022-09-18T14:37:05Z</time></trkpt><trkpt lat="50.297304" lon="5.651423"><ele>391.443</ele><time>2022-09-18T14:37:06Z</time></trkpt><trkpt lat="50.297467" lon="5.651425"><ele>390.907</ele><time>2022-09-18T14:37:07Z</time></trkpt><trkpt lat="50.297633" lon="5.651444"><ele>390.409</ele><time>2022-09-18T14:37:08Z</time></trkpt><trkpt lat="50.297816" lon="5.651475"><ele>389.892</ele><time>2022-09-18T14:37:09Z</time></trkpt><trkpt lat="50.298000" lon="5.651505"><ele>389.242</ele><time>2022-09-18T14:37:10Z</time></trkpt><trkpt lat="50.298187" lon="5.651532"><ele>388.514</ele><time>2022-09-18T14:37:11Z</time></trkpt><trkpt lat="50.298377" lon="5.651624"><ele>387.830</ele><time>2022-09-18T14:37:12Z</time></trkpt><trkpt lat="50.298564" lon="5.651675"><ele>387.115</ele><time>2022-09-18T14:37:13Z</time></trkpt><trkpt lat="50.298721" lon="5.651652"><ele>386.270</ele><time>2022-09-18T14:37:14Z</time></trkpt><trkpt lat="50.298886" lon="5.651677"><ele>385.345</ele><time>2022-09-18T14:37:15Z</time></trkpt><trkpt lat="50.299072" lon="5.651715"><ele>384.569</ele><time>2022-09-18T14:37:16Z</time></trkpt><trkpt lat="50.299247" lon="5.651686"><ele>383.736</ele><time>2022-09-18T14:37:17Z</time></trkpt><trkpt lat="50.299389" lon="5.651700"><ele>382.916</ele><time>2022-09-18T14:37:18Z</time></trkpt><trkpt lat="50.299571" lon="5.651698"><ele>382.276</ele><time>2022-09-18T14:37:19Z</time></trkpt><trkpt lat="50.299733" lon="5.651653"><ele>381.613</ele><time>2022-09-18T14:37:20Z</time></trkpt><trkpt lat="50.299895" lon="5.651629"><ele>381.009</ele><time>2022-09-18T14:37:21Z</time></trkpt><trkpt lat="50.300067" lon="5.651549"><ele>380.312</ele><time>2022-09-18T14:37:22Z</time></trkpt><trkpt lat="50.300233" lon="5.651493"><ele>379.512</ele><time>2022-09-18T14:37:23Z</time></trkpt><trkpt lat="50.300416" lon="5.651403"><ele>378.844</ele><time>2022-09-18T14:37:24Z</time></trkpt><trkpt lat="50.300586" lon="5.651293"><ele>378.290</ele><time>2022-09-18T14:37:25Z</time></trkpt><trkpt lat="50.300726" lon="5.651153"><ele>377.595</ele><time>2022-09-18T14:37:26Z</time></trkpt><trkpt lat="50.300857" lon="5.650964"><ele>376.980</ele><time>2022-09-18T14:37:27Z</time></trkpt><trkpt lat="50.300951" lon="5.650735"><ele>376.335</ele><time>2022-09-18T14:37:28Z</time></trkpt><trkpt lat="50.301068" lon="5.650517"><ele>375.619</ele><time>2022-09-18T14:37:29Z</time></trkpt><trkpt lat="50.301179" lon="5.650282"><ele>375.076</ele><time>2022-09-18T14:37:30Z</time></trkpt><trkpt lat="50.301280" lon="5.650068"><ele>374.618</ele><time>2022-09-18T14:37:31Z</time></trkpt><trkpt lat="50.301383" lon="5.649827"><ele>374.198</ele><time>2022-09-18T14:37:32Z</time></trkpt><trkpt lat="50.301470" lon="5.649578"><ele>373.517</ele><time>2022-09-18T14:37:33Z</time></trkpt><trkpt lat="50.301572" lon="5.649363"><ele>372.709</ele><time>2022-09-18T14:37:34Z</time></trkpt><trkpt lat="50.301655" lon="5.649150"><ele>371.832</ele><time>2022-09-18T14:37:35Z</time></trkpt><trkpt lat="50.301697" lon="5.648891"><ele>371.072</ele><time>2022-09-18T14:37:36Z</time></trkpt><trkpt lat="50.301743" lon="5.648604"><ele>370.174</ele><time>2022-09-18T14:37:37Z</time></trkpt><trkpt lat="50.301806" lon="5.648328"><ele>369.220</ele><time>2022-09-18T14:37:38Z</time></trkpt><trkpt lat="50.301874" lon="5.648082"><ele>368.525</ele><time>2022-09-18T14:37:39Z</time></trkpt><trkpt lat="50.301969" lon="5.647851"><ele>368.020</ele><time>2022-09-18T14:37:40Z</time></trkpt><trkpt lat="50.302056" lon="5.647617"><ele>367.415</ele><time>2022-09-18T14:37:41Z</time></trkpt><trkpt lat="50.302159" lon="5.647388"><ele>366.949</ele><time>2022-09-18T14:37:42Z</time></trkpt><trkpt lat="50.302264" lon="5.647179"><ele>366.546</ele><time>2022-09-18T14:37:43Z</time></trkpt><trkpt lat="50.302384" lon="5.646977"><ele>366.076</ele><time>2022-09-18T14:37:44Z</time></trkpt><trkpt lat="50.302502" lon="5.646767"><ele>365.390</ele><time>2022-09-18T14:37:45Z</time></trkpt><trkpt lat="50.302620" lon="5.646590"><ele>364.519</ele><time>2022-09-18T14:37:46Z</time></trkpt><trkpt lat="50.302703" lon="5.646373"><ele>363.509</ele><time>2022-09-18T14:37:47Z</time></trkpt><trkpt lat="50.302771" lon="5.646124"><ele>362.558</ele><time>2022-09-18T14:37:48Z</time></trkpt><trkpt lat="50.302873" lon="5.645931"><ele>361.518</ele><time>2022-09-18T14:37:49Z</time></trkpt><trkpt lat="50.302961" lon="5.645715"><ele>360.580</ele><time>2022-09-18T14:37:50Z</time></trkpt><trkpt lat="50.303051" lon="5.645484"><ele>359.626</ele><time>2022-09-18T14:37:51Z</time></trkpt><trkpt lat="50.303095" lon="5.645239"><ele>358.921</ele><time>2022-09-18T14:37:52Z</time></trkpt><trkpt lat="50.303120" lon="5.644990"><ele>358.376</ele><time>2022-09-18T14:37:53Z</time></trkpt><trkpt lat="50.303153" lon="5.644748"><ele>357.541</ele><time>2022-09-18T14:37:54Z</time></trkpt><trkpt lat="50.303173" lon="5.644505"><ele>356.855</ele><time>2022-09-18T14:37:55Z</time></trkpt><trkpt lat="50.303139" lon="5.644236"><ele>356.212</ele><time>2022-09-18T14:37:56Z</time></trkpt><trkpt lat="50.303114" lon="5.643988"><ele>355.483</ele><time>2022-09-18T14:37:57Z</time></trkpt><trkpt lat="50.303080" lon="5.643720"><ele>354.625</ele><time>2022-09-18T14:37:58Z</time></trkpt><trkpt lat="50.303024" lon="5.643462"><ele>354.117</ele><time>2022-09-18T14:37:59Z</time></trkpt><trkpt lat="50.303007" lon="5.643215"><ele>353.609</ele><time>2022-09-18T14:38:00Z</time></trkpt><trkpt lat="50.302985" lon="5.642970"><ele>352.929</ele><time>2022-09-18T14:38:01Z</time></trkpt><trkpt lat="50.302941" lon="5.642727"><ele>352.349</ele><time>2022-09-18T14:38:02Z</time></trkpt><trkpt lat="50.302933" lon="5.642479"><ele>351.851</ele><time>2022-09-18T14:38:03Z</time></trkpt><trkpt lat="50.302929" lon="5.642232"><ele>351.357</ele><time>2022-09-18T14:38:04Z</time></trkpt><trkpt lat="50.302920" lon="5.641993"><ele>350.642</ele><time>2022-09-18T14:38:05Z</time></trkpt><trkpt lat="50.302919" lon="5.641729"><ele>349.927</ele><time>2022-09-18T14:38:06Z</time></trkpt><trkpt lat="50.302949" lon="5.641469"><ele>349.282</ele><time>2022-09-18T14:38:07Z</time></trkpt><trkpt lat="50.302996" lon="5.641217"><ele>348.526</ele><time>2022-09-18T14:38:08Z</time></trkpt><trkpt lat="50.303058" lon="5.640981"><ele>347.873</ele><time>2022-09-18T14:38:09Z</time></trkpt><trkpt lat="50.303137" lon="5.640776"><ele>347.227</ele><time>2022-09-18T14:38:10Z</time></trkpt><trkpt lat="50.303232" lon="5.640536"><ele>346.768</ele><time>2022-09-18T14:38:11Z</time></trkpt><trkpt lat="50.303330" lon="5.640303"><ele>346.314</ele><time>2022-09-18T14:38:12Z</time></trkpt><trkpt lat="50.303447" lon="5.640107"><ele>345.809</ele><time>2022-09-18T14:38:13Z</time></trkpt><trkpt lat="50.303564" lon="5.639912"><ele>345.313</ele><time>2022-09-18T14:38:14Z</time></trkpt><trkpt lat="50.303679" lon="5.639720"><ele>344.853</ele><time>2022-09-18T14:38:15Z</time></trkpt><trkpt lat="50.303805" lon="5.639515"><ele>344.255</ele><time>2022-09-18T14:38:16Z</time></trkpt><trkpt lat="50.303934" lon="5.639320"><ele>343.561</ele><time>2022-09-18T14:38:17Z</time></trkpt><trkpt lat="50.304054" lon="5.639144"><ele>342.746</ele><time>2022-09-18T14:38:18Z</time></trkpt><trkpt lat="50.304174" lon="5.638950"><ele>341.871</ele><time>2022-09-18T14:38:19Z</time></trkpt><trkpt lat="50.304307" lon="5.638741"><ele>340.796</ele><time>2022-09-18T14:38:20Z</time></trkpt><trkpt lat="50.304431" lon="5.638550"><ele>339.540</ele><time>2022-09-18T14:38:21Z</time></trkpt><trkpt lat="50.304551" lon="5.638359"><ele>338.317</ele><time>2022-09-18T14:38:22Z</time></trkpt><trkpt lat="50.304652" lon="5.638195"><ele>337.311</ele><time>2022-09-18T14:38:23Z</time></trkpt><trkpt lat="50.304746" lon="5.638042"><ele>336.621</ele><time>2022-09-18T14:38:24Z</time></trkpt><trkpt lat="50.304868" lon="5.637827"><ele>335.903</ele><time>2022-09-18T14:38:25Z</time></trkpt><trkpt lat="50.304988" lon="5.637665"><ele>335.309</ele><time>2022-09-18T14:38:26Z</time></trkpt><trkpt lat="50.305114" lon="5.637519"><ele>334.952</ele><time>2022-09-18T14:38:27Z</time></trkpt><trkpt lat="50.305249" lon="5.637374"><ele>334.252</ele><time>2022-09-18T14:38:28Z</time></trkpt><trkpt lat="50.305387" lon="5.637217"><ele>333.394</ele><time>2022-09-18T14:38:29Z</time></trkpt><trkpt lat="50.305499" lon="5.637052"><ele>332.730</ele><time>2022-09-18T14:38:30Z</time></trkpt><trkpt lat="50.305602" lon="5.636834"><ele>332.155</ele><time>2022-09-18T14:38:31Z</time></trkpt><trkpt lat="50.305736" lon="5.636712"><ele>331.310</ele><time>2022-09-18T14:38:32Z</time></trkpt><trkpt lat="50.305872" lon="5.636538"><ele>330.425</ele><time>2022-09-18T14:38:33Z</time></trkpt><trkpt lat="50.306008" lon="5.636345"><ele>329.689</ele><time>2022-09-18T14:38:34Z</time></trkpt><trkpt lat="50.306130" lon="5.636173"><ele>328.886</ele><time>2022-09-18T14:38:35Z</time></trkpt><trkpt lat="50.306257" lon="5.635994"><ele>328.188</ele><time>2022-09-18T14:38:36Z</time></trkpt><trkpt lat="50.306370" lon="5.635824"><ele>327.624</ele><time>2022-09-18T14:38:37Z</time></trkpt><trkpt lat="50.306471" lon="5.635639"><ele>327.226</ele><time>2022-09-18T14:38:38Z</time></trkpt><trkpt lat="50.306612" lon="5.635432"><ele>326.709</ele><time>2022-09-18T14:38:39Z</time></trkpt><trkpt lat="50.306713" lon="5.635230"><ele>326.189</ele><time>2022-09-18T14:38:40Z</time></trkpt><trkpt lat="50.306797" lon="5.635000"><ele>325.489</ele><time>2022-09-18T14:38:41Z</time></trkpt><trkpt lat="50.306878" lon="5.634782"><ele>324.791</ele><time>2022-09-18T14:38:42Z</time></trkpt><trkpt lat="50.306969" lon="5.634527"><ele>324.247</ele><time>2022-09-18T14:38:43Z</time></trkpt><trkpt lat="50.307040" lon="5.634284"><ele>323.842</ele><time>2022-09-18T14:38:44Z</time></trkpt><trkpt lat="50.307107" lon="5.634053"><ele>323.287</ele><time>2022-09-18T14:38:45Z</time></trkpt><trkpt lat="50.307171" lon="5.633830"><ele>322.612</ele><time>2022-09-18T14:38:46Z</time></trkpt><trkpt lat="50.307236" lon="5.633603"><ele>322.076</ele><time>2022-09-18T14:38:47Z</time></trkpt><trkpt lat="50.307290" lon="5.633361"><ele>321.283</ele><time>2022-09-18T14:38:48Z</time></trkpt><trkpt lat="50.307342" lon="5.633127"><ele>320.281</ele><time>2022-09-18T14:38:49Z</time></trkpt><trkpt lat="50.307395" lon="5.632881"><ele>319.461</ele><time>2022-09-18T14:38:50Z</time></trkpt><trkpt lat="50.307451" lon="5.632582"><ele>318.917</ele><time>2022-09-18T14:38:51Z</time></trkpt><trkpt lat="50.307499" lon="5.632323"><ele>318.409</ele><time>2022-09-18T14:38:52Z</time></trkpt><trkpt lat="50.307529" lon="5.632086"><ele>317.849</ele><time>2022-09-18T14:38:53Z</time></trkpt><trkpt lat="50.307556" lon="5.631857"><ele>317.259</ele><time>2022-09-18T14:38:54Z</time></trkpt><trkpt lat="50.307585" lon="5.631585"><ele>316.651</ele><time>2022-09-18T14:38:55Z</time></trkpt><trkpt lat="50.307613" lon="5.631317"><ele>315.877</ele><time>2022-09-18T14:38:56Z</time></trkpt><trkpt lat="50.307649" lon="5.631050"><ele>314.922</ele><time>2022-09-18T14:38:57Z</time></trkpt><trkpt lat="50.307683" lon="5.630821"><ele>314.017</ele><time>2022-09-18T14:38:58Z</time></trkpt><trkpt lat="50.307714" lon="5.630612"><ele>313.022</ele><time>2022-09-18T14:38:59Z</time></trkpt><trkpt lat="50.307759" lon="5.630378"><ele>312.186</ele><time>2022-09-18T14:39:00Z</time></trkpt><trkpt lat="50.307816" lon="5.630157"><ele>311.293</ele><time>2022-09-18T14:39:01Z</time></trkpt><trkpt lat="50.307890" lon="5.629944"><ele>310.422</ele><time>2022-09-18T14:39:02Z</time></trkpt><trkpt lat="50.307993" lon="5.629704"><ele>309.862</ele><time>2022-09-18T14:39:03Z</time></trkpt><trkpt lat="50.308116" lon="5.629519"><ele>309.308</ele><time>2022-09-18T14:39:04Z</time></trkpt><trkpt lat="50.308244" lon="5.629308"><ele>308.909</ele><time>2022-09-18T14:39:05Z</time></trkpt><trkpt lat="50.308373" lon="5.629109"><ele>308.573</ele><time>2022-09-18T14:39:06Z</time></trkpt><trkpt lat="50.308492" lon="5.628900"><ele>308.053</ele><time>2022-09-18T14:39:07Z</time></trkpt><trkpt lat="50.308611" lon="5.628683"><ele>307.445</ele><time>2022-09-18T14:39:08Z</time></trkpt><trkpt lat="50.308725" lon="5.628467"><ele>306.751</ele><time>2022-09-18T14:39:09Z</time></trkpt><trkpt lat="50.308839" lon="5.628283"><ele>306.026</ele><time>2022-09-18T14:39:10Z</time></trkpt><trkpt lat="50.308973" lon="5.628102"><ele>305.351</ele><time>2022-09-18T14:39:11Z</time></trkpt><trkpt lat="50.309101" lon="5.627903"><ele>304.576</ele><time>2022-09-18T14:39:12Z</time></trkpt><trkpt lat="50.309222" lon="5.627713"><ele>303.870</ele><time>2022-09-18T14:39:13Z</time></trkpt><trkpt lat="50.309340" lon="5.627529"><ele>303.117</ele><time>2022-09-18T14:39:14Z</time></trkpt><trkpt lat="50.309462" lon="5.627336"><ele>302.348</ele><time>2022-09-18T14:39:15Z</time></trkpt><trkpt lat="50.309584" lon="5.627141"><ele>301.561</ele><time>2022-09-18T14:39:16Z</time></trkpt><trkpt lat="50.309694" lon="5.626977"><ele>300.817</ele><time>2022-09-18T14:39:17Z</time></trkpt><trkpt lat="50.309791" lon="5.626839"><ele>300.109</ele><time>2022-09-18T14:39:18Z</time></trkpt><trkpt lat="50.309896" lon="5.626694"><ele>299.335</ele><time>2022-09-18T14:39:19Z</time></trkpt><trkpt lat="50.310001" lon="5.626525"><ele>298.585</ele><time>2022-09-18T14:39:20Z</time></trkpt><trkpt lat="50.310118" lon="5.626397"><ele>297.717</ele><time>2022-09-18T14:39:21Z</time></trkpt><trkpt lat="50.310270" lon="5.626268"><ele>296.983</ele><time>2022-09-18T14:39:22Z</time></trkpt><trkpt lat="50.310394" lon="5.626096"><ele>296.168</ele><time>2022-09-18T14:39:23Z</time></trkpt><trkpt lat="50.310526" lon="5.625896"><ele>295.453</ele><time>2022-09-18T14:39:24Z</time></trkpt><trkpt lat="50.310661" lon="5.625707"><ele>294.788</ele><time>2022-09-18T14:39:25Z</time></trkpt><trkpt lat="50.310807" lon="5.625500"><ele>293.842</ele><time>2022-09-18T14:39:26Z</time></trkpt><trkpt lat="50.310928" lon="5.625350"><ele>292.929</ele><time>2022-09-18T14:39:27Z</time></trkpt><trkpt lat="50.311082" lon="5.625189"><ele>292.042</ele><time>2022-09-18T14:39:28Z</time></trkpt><trkpt lat="50.311219" lon="5.625011"><ele>291.222</ele><time>2022-09-18T14:39:29Z</time></trkpt><trkpt lat="50.311340" lon="5.624852"><ele>290.514</ele><time>2022-09-18T14:39:30Z</time></trkpt><trkpt lat="50.311472" lon="5.624691"><ele>289.809</ele><time>2022-09-18T14:39:31Z</time></trkpt><trkpt lat="50.311557" lon="5.624509"><ele>289.295</ele><time>2022-09-18T14:39:32Z</time></trkpt><trkpt lat="50.311651" lon="5.624290"><ele>288.755</ele><time>2022-09-18T14:39:33Z</time></trkpt><trkpt lat="50.311768" lon="5.624094"><ele>288.037</ele><time>2022-09-18T14:39:34Z</time></trkpt><trkpt lat="50.311897" lon="5.623906"><ele>287.313</ele><time>2022-09-18T14:39:35Z</time></trkpt><trkpt lat="50.312022" lon="5.623763"><ele>286.788</ele><time>2022-09-18T14:39:36Z</time></trkpt><trkpt lat="50.312119" lon="5.623537"><ele>286.143</ele><time>2022-09-18T14:39:37Z</time></trkpt><trkpt lat="50.312215" lon="5.623346"><ele>285.488</ele><time>2022-09-18T14:39:38Z</time></trkpt><trkpt lat="50.312309" lon="5.623105"><ele>284.722</ele><time>2022-09-18T14:39:39Z</time></trkpt><trkpt lat="50.312409" lon="5.622880"><ele>283.989</ele><time>2022-09-18T14:39:40Z</time></trkpt><trkpt lat="50.312509" lon="5.622678"><ele>283.136</ele><time>2022-09-18T14:39:41Z</time></trkpt><trkpt lat="50.312616" lon="5.622472"><ele>282.417</ele><time>2022-09-18T14:39:42Z</time></trkpt><trkpt lat="50.312736" lon="5.622272"><ele>281.818</ele><time>2022-09-18T14:39:43Z</time></trkpt><trkpt lat="50.312823" lon="5.622064"><ele>281.109</ele><time>2022-09-18T14:39:44Z</time></trkpt><trkpt lat="50.312888" lon="5.621830"><ele>280.484</ele><time>2022-09-18T14:39:45Z</time></trkpt><trkpt lat="50.312931" lon="5.621596"><ele>279.834</ele><time>2022-09-18T14:39:46Z</time></trkpt><trkpt lat="50.312956" lon="5.621351"><ele>279.316</ele><time>2022-09-18T14:39:47Z</time></trkpt><trkpt lat="50.312959" lon="5.621076"><ele>278.862</ele><time>2022-09-18T14:39:48Z</time></trkpt><trkpt lat="50.312939" lon="5.620840"><ele>278.357</ele><time>2022-09-18T14:39:49Z</time></trkpt><trkpt lat="50.312907" lon="5.620582"><ele>277.892</ele><time>2022-09-18T14:39:50Z</time></trkpt><trkpt lat="50.312886" lon="5.620318"><ele>277.397</ele><time>2022-09-18T14:39:51Z</time></trkpt><trkpt lat="50.312869" lon="5.620074"><ele>276.791</ele><time>2022-09-18T14:39:52Z</time></trkpt><trkpt lat="50.312865" lon="5.619811"><ele>276.148</ele><time>2022-09-18T14:39:53Z</time></trkpt><trkpt lat="50.312896" lon="5.619552"><ele>275.582</ele><time>2022-09-18T14:39:54Z</time></trkpt><trkpt lat="50.312939" lon="5.619326"><ele>274.943</ele><time>2022-09-18T14:39:55Z</time></trkpt><trkpt lat="50.313011" lon="5.619099"><ele>274.217</ele><time>2022-09-18T14:39:56Z</time></trkpt><trkpt lat="50.313105" lon="5.618844"><ele>273.509</ele><time>2022-09-18T14:39:57Z</time></trkpt><trkpt lat="50.313215" lon="5.618642"><ele>272.939</ele><time>2022-09-18T14:39:58Z</time></trkpt><trkpt lat="50.313335" lon="5.618465"><ele>272.339</ele><time>2022-09-18T14:39:59Z</time></trkpt><trkpt lat="50.313457" lon="5.618278"><ele>271.761</ele><time>2022-09-18T14:40:00Z</time></trkpt><trkpt lat="50.313564" lon="5.618077"><ele>271.257</ele><time>2022-09-18T14:40:01Z</time></trkpt><trkpt lat="50.313650" lon="5.617828"><ele>270.852</ele><time>2022-09-18T14:40:02Z</time></trkpt><trkpt lat="50.313727" lon="5.617572"><ele>270.467</ele><time>2022-09-18T14:40:03Z</time></trkpt><trkpt lat="50.313788" lon="5.617296"><ele>269.872</ele><time>2022-09-18T14:40:04Z</time></trkpt><trkpt lat="50.313843" lon="5.616998"><ele>269.156</ele><time>2022-09-18T14:40:05Z</time></trkpt><trkpt lat="50.313905" lon="5.616734"><ele>268.523</ele><time>2022-09-18T14:40:06Z</time></trkpt><trkpt lat="50.313961" lon="5.616484"><ele>267.944</ele><time>2022-09-18T14:40:07Z</time></trkpt><trkpt lat="50.314031" lon="5.616235"><ele>267.005</ele><time>2022-09-18T14:40:08Z</time></trkpt><trkpt lat="50.314099" lon="5.616003"><ele>266.115</ele><time>2022-09-18T14:40:09Z</time></trkpt><trkpt lat="50.314146" lon="5.615755"><ele>265.309</ele><time>2022-09-18T14:40:10Z</time></trkpt><trkpt lat="50.314193" lon="5.615519"><ele>264.485</ele><time>2022-09-18T14:40:11Z</time></trkpt><trkpt lat="50.314243" lon="5.615354"><ele>263.465</ele><time>2022-09-18T14:40:12Z</time></trkpt><trkpt lat="50.314327" lon="5.615165"><ele>262.917</ele><time>2022-09-18T14:40:13Z</time></trkpt><trkpt lat="50.314443" lon="5.614976"><ele>262.013</ele><time>2022-09-18T14:40:14Z</time></trkpt><trkpt lat="50.314575" lon="5.614796"><ele>261.648</ele><time>2022-09-18T14:40:15Z</time></trkpt><trkpt lat="50.314712" lon="5.614647"><ele>261.273</ele><time>2022-09-18T14:40:16Z</time></trkpt><trkpt lat="50.314828" lon="5.614486"><ele>260.778</ele><time>2022-09-18T14:40:17Z</time></trkpt><trkpt lat="50.314938" lon="5.614292"><ele>260.132</ele><time>2022-09-18T14:40:18Z</time></trkpt><trkpt lat="50.315044" lon="5.614087"><ele>259.599</ele><time>2022-09-18T14:40:19Z</time></trkpt><trkpt lat="50.315169" lon="5.613917"><ele>258.994</ele><time>2022-09-18T14:40:20Z</time></trkpt><trkpt lat="50.315277" lon="5.613722"><ele>258.657</ele><time>2022-09-18T14:40:21Z</time></trkpt><trkpt lat="50.315371" lon="5.613530"><ele>258.222</ele><time>2022-09-18T14:40:22Z</time></trkpt><trkpt lat="50.315460" lon="5.613346"><ele>257.809</ele><time>2022-09-18T14:40:23Z</time></trkpt><trkpt lat="50.315534" lon="5.613152"><ele>257.680</ele><time>2022-09-18T14:40:24Z</time></trkpt><trkpt lat="50.315616" lon="5.612945"><ele>257.110</ele><time>2022-09-18T14:40:25Z</time></trkpt><trkpt lat="50.315675" lon="5.612716"><ele>256.512</ele><time>2022-09-18T14:40:26Z</time></trkpt><trkpt lat="50.315732" lon="5.612476"><ele>255.938</ele><time>2022-09-18T14:40:27Z</time></trkpt><trkpt lat="50.315786" lon="5.612237"><ele>255.383</ele><time>2022-09-18T14:40:28Z</time></trkpt><trkpt lat="50.315863" lon="5.611980"><ele>254.728</ele><time>2022-09-18T14:40:29Z</time></trkpt><trkpt lat="50.315948" lon="5.611746"><ele>254.173</ele><time>2022-09-18T14:40:30Z</time></trkpt><trkpt lat="50.316049" lon="5.611505"><ele>253.647</ele><time>2022-09-18T14:40:31Z</time></trkpt><trkpt lat="50.316146" lon="5.611259"><ele>253.234</ele><time>2022-09-18T14:40:32Z</time></trkpt><trkpt lat="50.316230" lon="5.611014"><ele>252.788</ele><time>2022-09-18T14:40:33Z</time></trkpt><trkpt lat="50.316323" lon="5.610767"><ele>252.224</ele><time>2022-09-18T14:40:34Z</time></trkpt><trkpt lat="50.316397" lon="5.610531"><ele>251.826</ele><time>2022-09-18T14:40:35Z</time></trkpt><trkpt lat="50.316476" lon="5.610309"><ele>251.209</ele><time>2022-09-18T14:40:36Z</time></trkpt><trkpt lat="50.316549" lon="5.610057"><ele>250.479</ele><time>2022-09-18T14:40:37Z</time></trkpt><trkpt lat="50.316612" lon="5.609869"><ele>249.849</ele><time>2022-09-18T14:40:38Z</time></trkpt><trkpt lat="50.316684" lon="5.609657"><ele>249.431</ele><time>2022-09-18T14:40:39Z</time></trkpt><trkpt lat="50.316759" lon="5.609441"><ele>248.997</ele><time>2022-09-18T14:40:40Z</time></trkpt><trkpt lat="50.316839" lon="5.609216"><ele>248.512</ele><time>2022-09-18T14:40:41Z</time></trkpt><trkpt lat="50.316898" lon="5.608980"><ele>248.277</ele><time>2022-09-18T14:40:42Z</time></trkpt><trkpt lat="50.316982" lon="5.608720"><ele>247.612</ele><time>2022-09-18T14:40:43Z</time></trkpt><trkpt lat="50.317061" lon="5.608480"><ele>246.876</ele><time>2022-09-18T14:40:44Z</time></trkpt><trkpt lat="50.317151" lon="5.608265"><ele>246.213</ele><time>2022-09-18T14:40:45Z</time></trkpt><trkpt lat="50.317230" lon="5.608046"><ele>245.685</ele><time>2022-09-18T14:40:46Z</time></trkpt><trkpt lat="50.317327" lon="5.607786"><ele>245.189</ele><time>2022-09-18T14:40:47Z</time></trkpt><trkpt lat="50.317416" lon="5.607527"><ele>244.817</ele><time>2022-09-18T14:40:48Z</time></trkpt><trkpt lat="50.317508" lon="5.607300"><ele>244.609</ele><time>2022-09-18T14:40:49Z</time></trkpt><trkpt lat="50.317600" lon="5.607065"><ele>244.499</ele><time>2022-09-18T14:40:50Z</time></trkpt><trkpt lat="50.317695" lon="5.606843"><ele>244.239</ele><time>2022-09-18T14:40:51Z</time></trkpt><trkpt lat="50.317792" lon="5.606633"><ele>244.061</ele><time>2022-09-18T14:40:52Z</time></trkpt><trkpt lat="50.317897" lon="5.606427"><ele>243.787</ele><time>2022-09-18T14:40:53Z</time></trkpt><trkpt lat="50.317984" lon="5.606135"><ele>243.312</ele><time>2022-09-18T14:40:54Z</time></trkpt><trkpt lat="50.318068" lon="5.605871"><ele>242.837</ele><time>2022-09-18T14:40:55Z</time></trkpt><trkpt lat="50.318147" lon="5.605665"><ele>242.312</ele><time>2022-09-18T14:40:56Z</time></trkpt><trkpt lat="50.318230" lon="5.605434"><ele>241.976</ele><time>2022-09-18T14:40:57Z</time></trkpt><trkpt lat="50.318328" lon="5.605207"><ele>241.463</ele><time>2022-09-18T14:40:58Z</time></trkpt><trkpt lat="50.318419" lon="5.604969"><ele>240.915</ele><time>2022-09-18T14:40:59Z</time></trkpt><trkpt lat="50.318514" lon="5.604739"><ele>240.665</ele><time>2022-09-18T14:41:00Z</time></trkpt><trkpt lat="50.318613" lon="5.604575"><ele>240.311</ele><time>2022-09-18T14:41:01Z</time></trkpt><trkpt lat="50.318737" lon="5.604375"><ele>239.909</ele><time>2022-09-18T14:41:02Z</time></trkpt><trkpt lat="50.318866" lon="5.604191"><ele>239.592</ele><time>2022-09-18T14:41:03Z</time></trkpt><trkpt lat="50.318998" lon="5.604033"><ele>239.122</ele><time>2022-09-18T14:41:04Z</time></trkpt><trkpt lat="50.319201" lon="5.603993"><ele>238.654</ele><time>2022-09-18T14:41:05Z</time></trkpt><trkpt lat="50.319309" lon="5.603817"><ele>237.990</ele><time>2022-09-18T14:41:06Z</time></trkpt><trkpt lat="50.319421" lon="5.603636"><ele>237.245</ele><time>2022-09-18T14:41:07Z</time></trkpt><trkpt lat="50.319541" lon="5.603441"><ele>236.620</ele><time>2022-09-18T14:41:08Z</time></trkpt><trkpt lat="50.319648" lon="5.603267"><ele>235.945</ele><time>2022-09-18T14:41:09Z</time></trkpt><trkpt lat="50.319778" lon="5.603049"><ele>235.279</ele><time>2022-09-18T14:41:10Z</time></trkpt><trkpt lat="50.319832" lon="5.602954"><ele>234.746</ele><time>2022-09-18T14:41:11Z</time></trkpt><trkpt lat="50.319919" lon="5.602802"><ele>234.565</ele><time>2022-09-18T14:41:12Z</time></trkpt><trkpt lat="50.320004" lon="5.602654"><ele>233.868</ele><time>2022-09-18T14:41:13Z</time></trkpt><trkpt lat="50.320139" lon="5.602494"><ele>232.914</ele><time>2022-09-18T14:41:14Z</time></trkpt><trkpt lat="50.320271" lon="5.602387"><ele>232.509</ele><time>2022-09-18T14:41:15Z</time></trkpt><trkpt lat="50.320405" lon="5.602305"><ele>232.247</ele><time>2022-09-18T14:41:16Z</time></trkpt><trkpt lat="50.320531" lon="5.602187"><ele>232.017</ele><time>2022-09-18T14:41:17Z</time></trkpt><trkpt lat="50.320667" lon="5.602082"><ele>231.919</ele><time>2022-09-18T14:41:18Z</time></trkpt><trkpt lat="50.320820" lon="5.601961"><ele>231.725</ele><time>2022-09-18T14:41:19Z</time></trkpt><trkpt lat="50.320968" lon="5.601851"><ele>231.370</ele><time>2022-09-18T14:41:20Z</time></trkpt><trkpt lat="50.321137" lon="5.601737"><ele>230.955</ele><time>2022-09-18T14:41:21Z</time></trkpt><trkpt lat="50.321317" lon="5.601656"><ele>230.590</ele><time>2022-09-18T14:41:22Z</time></trkpt><trkpt lat="50.321500" lon="5.601601"><ele>230.294</ele><time>2022-09-18T14:41:23Z</time></trkpt><trkpt lat="50.321679" lon="5.601555"><ele>230.061</ele><time>2022-09-18T14:41:24Z</time></trkpt><trkpt lat="50.321847" lon="5.601511"><ele>229.872</ele><time>2022-09-18T14:41:25Z</time></trkpt><trkpt lat="50.322018" lon="5.601467"><ele>229.713</ele><time>2022-09-18T14:41:26Z</time></trkpt><trkpt lat="50.322200" lon="5.601434"><ele>229.514</ele><time>2022-09-18T14:41:27Z</time></trkpt><trkpt lat="50.322377" lon="5.601407"><ele>229.109</ele><time>2022-09-18T14:41:28Z</time></trkpt><trkpt lat="50.322575" lon="5.601382"><ele>228.648</ele><time>2022-09-18T14:41:29Z</time></trkpt><trkpt lat="50.322757" lon="5.601366"><ele>228.078</ele><time>2022-09-18T14:41:30Z</time></trkpt><trkpt lat="50.322928" lon="5.601350"><ele>227.380</ele><time>2022-09-18T14:41:31Z</time></trkpt><trkpt lat="50.323136" lon="5.601356"><ele>226.546</ele><time>2022-09-18T14:41:32Z</time></trkpt><trkpt lat="50.323335" lon="5.601390"><ele>225.871</ele><time>2022-09-18T14:41:33Z</time></trkpt><trkpt lat="50.323523" lon="5.601448"><ele>225.356</ele><time>2022-09-18T14:41:34Z</time></trkpt><trkpt lat="50.323698" lon="5.601538"><ele>225.061</ele><time>2022-09-18T14:41:35Z</time></trkpt><trkpt lat="50.323849" lon="5.601570"><ele>224.745</ele><time>2022-09-18T14:41:36Z</time></trkpt><trkpt lat="50.324005" lon="5.601628"><ele>224.572</ele><time>2022-09-18T14:41:37Z</time></trkpt><trkpt lat="50.324145" lon="5.601681"><ele>224.334</ele><time>2022-09-18T14:41:38Z</time></trkpt><trkpt lat="50.324305" lon="5.601738"><ele>223.955</ele><time>2022-09-18T14:41:39Z</time></trkpt><trkpt lat="50.324478" lon="5.601802"><ele>223.410</ele><time>2022-09-18T14:41:40Z</time></trkpt><trkpt lat="50.324635" lon="5.601826"><ele>222.909</ele><time>2022-09-18T14:41:41Z</time></trkpt><trkpt lat="50.324781" lon="5.601871"><ele>222.554</ele><time>2022-09-18T14:41:42Z</time></trkpt><trkpt lat="50.324930" lon="5.601886"><ele>222.294</ele><time>2022-09-18T14:41:43Z</time></trkpt><trkpt lat="50.325066" lon="5.601895"><ele>221.976</ele><time>2022-09-18T14:41:44Z</time></trkpt><trkpt lat="50.325203" lon="5.601900"><ele>221.542</ele><time>2022-09-18T14:41:45Z</time></trkpt><trkpt lat="50.325322" lon="5.601866"><ele>221.397</ele><time>2022-09-18T14:41:46Z</time></trkpt><trkpt lat="50.325441" lon="5.601829"><ele>220.872</ele><time>2022-09-18T14:41:47Z</time></trkpt><trkpt lat="50.325568" lon="5.601787"><ele>220.697</ele><time>2022-09-18T14:41:48Z</time></trkpt><trkpt lat="50.325699" lon="5.601744"><ele>220.661</ele><time>2022-09-18T14:41:49Z</time></trkpt><trkpt lat="50.325857" lon="5.601692"><ele>220.918</ele><time>2022-09-18T14:41:50Z</time></trkpt><trkpt lat="50.326018" lon="5.601640"><ele>221.389</ele><time>2022-09-18T14:41:51Z</time></trkpt><trkpt lat="50.326176" lon="5.601588"><ele>221.906</ele><time>2022-09-18T14:41:52Z</time></trkpt><trkpt lat="50.326344" lon="5.601533"><ele>222.426</ele><time>2022-09-18T14:41:53Z</time></trkpt><trkpt lat="50.326539" lon="5.601469"><ele>222.809</ele><time>2022-09-18T14:41:54Z</time></trkpt><trkpt lat="50.326740" lon="5.601403"><ele>223.079</ele><time>2022-09-18T14:41:55Z</time></trkpt><trkpt lat="50.326924" lon="5.601333"><ele>223.199</ele><time>2022-09-18T14:41:56Z</time></trkpt><trkpt lat="50.327092" lon="5.601274"><ele>222.941</ele><time>2022-09-18T14:41:57Z</time></trkpt><trkpt lat="50.327256" lon="5.601232"><ele>222.477</ele><time>2022-09-18T14:41:58Z</time></trkpt><trkpt lat="50.327438" lon="5.601191"><ele>221.862</ele><time>2022-09-18T14:41:59Z</time></trkpt><trkpt lat="50.327625" lon="5.601139"><ele>221.257</ele><time>2022-09-18T14:42:00Z</time></trkpt><trkpt lat="50.327809" lon="5.601071"><ele>220.882</ele><time>2022-09-18T14:42:01Z</time></trkpt><trkpt lat="50.327981" lon="5.601000"><ele>220.596</ele><time>2022-09-18T14:42:02Z</time></trkpt><trkpt lat="50.328121" lon="5.600936"><ele>220.133</ele><time>2022-09-18T14:42:03Z</time></trkpt><trkpt lat="50.328298" lon="5.600853"><ele>219.836</ele><time>2022-09-18T14:42:04Z</time></trkpt><trkpt lat="50.328474" lon="5.600764"><ele>219.517</ele><time>2022-09-18T14:42:05Z</time></trkpt><trkpt lat="50.328631" lon="5.600684"><ele>219.118</ele><time>2022-09-18T14:42:06Z</time></trkpt><trkpt lat="50.328789" lon="5.600605"><ele>218.709</ele><time>2022-09-18T14:42:07Z</time></trkpt><trkpt lat="50.328920" lon="5.600483"><ele>218.164</ele><time>2022-09-18T14:42:08Z</time></trkpt><trkpt lat="50.329059" lon="5.600376"><ele>217.434</ele><time>2022-09-18T14:42:09Z</time></trkpt><trkpt lat="50.329216" lon="5.600257"><ele>216.776</ele><time>2022-09-18T14:42:10Z</time></trkpt><trkpt lat="50.329343" lon="5.600129"><ele>215.962</ele><time>2022-09-18T14:42:11Z</time></trkpt><trkpt lat="50.329484" lon="5.599990"><ele>215.377</ele><time>2022-09-18T14:42:12Z</time></trkpt><trkpt lat="50.329594" lon="5.599834"><ele>214.732</ele><time>2022-09-18T14:42:13Z</time></trkpt><trkpt lat="50.329716" lon="5.599740"><ele>214.357</ele><time>2022-09-18T14:42:14Z</time></trkpt><trkpt lat="50.329860" lon="5.599628"><ele>214.191</ele><time>2022-09-18T14:42:15Z</time></trkpt><trkpt lat="50.329999" lon="5.599525"><ele>213.928</ele><time>2022-09-18T14:42:16Z</time></trkpt><trkpt lat="50.330147" lon="5.599424"><ele>213.483</ele><time>2022-09-18T14:42:17Z</time></trkpt><trkpt lat="50.330288" lon="5.599328"><ele>212.825</ele><time>2022-09-18T14:42:18Z</time></trkpt><trkpt lat="50.330430" lon="5.599231"><ele>212.217</ele><time>2022-09-18T14:42:19Z</time></trkpt><trkpt lat="50.330574" lon="5.599132"><ele>211.509</ele><time>2022-09-18T14:42:20Z</time></trkpt><trkpt lat="50.330712" lon="5.599037"><ele>210.849</ele><time>2022-09-18T14:42:21Z</time></trkpt><trkpt lat="50.330845" lon="5.598947"><ele>210.319</ele><time>2022-09-18T14:42:22Z</time></trkpt><trkpt lat="50.330989" lon="5.598846"><ele>209.971</ele><time>2022-09-18T14:42:23Z</time></trkpt><trkpt lat="50.331167" lon="5.598703"><ele>209.577</ele><time>2022-09-18T14:42:24Z</time></trkpt><trkpt lat="50.331298" lon="5.598569"><ele>209.242</ele><time>2022-09-18T14:42:25Z</time></trkpt><trkpt lat="50.331425" lon="5.598428"><ele>208.897</ele><time>2022-09-18T14:42:26Z</time></trkpt><trkpt lat="50.331541" lon="5.598294"><ele>208.172</ele><time>2022-09-18T14:42:27Z</time></trkpt><trkpt lat="50.331664" lon="5.598147"><ele>207.686</ele><time>2022-09-18T14:42:28Z</time></trkpt><trkpt lat="50.331789" lon="5.597994"><ele>207.243</ele><time>2022-09-18T14:42:29Z</time></trkpt><trkpt lat="50.331923" lon="5.597834"><ele>206.677</ele><time>2022-09-18T14:42:30Z</time></trkpt><trkpt lat="50.332057" lon="5.597676"><ele>206.261</ele><time>2022-09-18T14:42:31Z</time></trkpt><trkpt lat="50.332187" lon="5.597508"><ele>206.127</ele><time>2022-09-18T14:42:32Z</time></trkpt><trkpt lat="50.332288" lon="5.597375"><ele>206.109</ele><time>2022-09-18T14:42:33Z</time></trkpt><trkpt lat="50.332409" lon="5.597226"><ele>206.058</ele><time>2022-09-18T14:42:34Z</time></trkpt><trkpt lat="50.332567" lon="5.597056"><ele>205.938</ele><time>2022-09-18T14:42:35Z</time></trkpt><trkpt lat="50.332720" lon="5.596877"><ele>205.770</ele><time>2022-09-18T14:42:36Z</time></trkpt><trkpt lat="50.332859" lon="5.596688"><ele>205.436</ele><time>2022-09-18T14:42:37Z</time></trkpt><trkpt lat="50.332973" lon="5.596534"><ele>205.021</ele><time>2022-09-18T14:42:38Z</time></trkpt><trkpt lat="50.333100" lon="5.596375"><ele>204.556</ele><time>2022-09-18T14:42:39Z</time></trkpt><trkpt lat="50.333253" lon="5.596224"><ele>204.051</ele><time>2022-09-18T14:42:40Z</time></trkpt><trkpt lat="50.333406" lon="5.596082"><ele>203.575</ele><time>2022-09-18T14:42:41Z</time></trkpt><trkpt lat="50.333545" lon="5.595946"><ele>202.962</ele><time>2022-09-18T14:42:42Z</time></trkpt><trkpt lat="50.333692" lon="5.595772"><ele>202.266</ele><time>2022-09-18T14:42:43Z</time></trkpt><trkpt lat="50.333816" lon="5.595617"><ele>201.629</ele><time>2022-09-18T14:42:44Z</time></trkpt><trkpt lat="50.333949" lon="5.595434"><ele>201.021</ele><time>2022-09-18T14:42:45Z</time></trkpt><trkpt lat="50.334068" lon="5.595254"><ele>200.209</ele><time>2022-09-18T14:42:46Z</time></trkpt><trkpt lat="50.334190" lon="5.595058"><ele>199.617</ele><time>2022-09-18T14:42:47Z</time></trkpt><trkpt lat="50.334296" lon="5.594889"><ele>199.397</ele><time>2022-09-18T14:42:48Z</time></trkpt><trkpt lat="50.334417" lon="5.594696"><ele>198.939</ele><time>2022-09-18T14:42:49Z</time></trkpt><trkpt lat="50.334528" lon="5.594512"><ele>198.645</ele><time>2022-09-18T14:42:50Z</time></trkpt><trkpt lat="50.334636" lon="5.594326"><ele>198.680</ele><time>2022-09-18T14:42:51Z</time></trkpt><trkpt lat="50.334743" lon="5.594141"><ele>198.545</ele><time>2022-09-18T14:42:52Z</time></trkpt><trkpt lat="50.334854" lon="5.593950"><ele>198.380</ele><time>2022-09-18T14:42:53Z</time></trkpt><trkpt lat="50.334953" lon="5.593780"><ele>198.114</ele><time>2022-09-18T14:42:54Z</time></trkpt><trkpt lat="50.335062" lon="5.593593"><ele>197.841</ele><time>2022-09-18T14:42:55Z</time></trkpt><trkpt lat="50.335168" lon="5.593410"><ele>197.321</ele><time>2022-09-18T14:42:56Z</time></trkpt><trkpt lat="50.335282" lon="5.593214"><ele>196.841</ele><time>2022-09-18T14:42:57Z</time></trkpt><trkpt lat="50.335367" lon="5.593049"><ele>196.505</ele><time>2022-09-18T14:42:58Z</time></trkpt><trkpt lat="50.335468" lon="5.592882"><ele>196.209</ele><time>2022-09-18T14:42:59Z</time></trkpt><trkpt lat="50.335578" lon="5.592775"><ele>195.933</ele><time>2022-09-18T14:43:00Z</time></trkpt><trkpt lat="50.335660" lon="5.592635"><ele>195.863</ele><time>2022-09-18T14:43:01Z</time></trkpt><trkpt lat="50.335753" lon="5.592474"><ele>195.565</ele><time>2022-09-18T14:43:02Z</time></trkpt><trkpt lat="50.335857" lon="5.592314"><ele>194.871</ele><time>2022-09-18T14:43:03Z</time></trkpt><trkpt lat="50.335962" lon="5.592173"><ele>194.346</ele><time>2022-09-18T14:43:04Z</time></trkpt><trkpt lat="50.336092" lon="5.592054"><ele>193.971</ele><time>2022-09-18T14:43:05Z</time></trkpt><trkpt lat="50.336232" lon="5.591959"><ele>193.696</ele><time>2022-09-18T14:43:06Z</time></trkpt><trkpt lat="50.336385" lon="5.591919"><ele>193.540</ele><time>2022-09-18T14:43:07Z</time></trkpt><trkpt lat="50.336541" lon="5.591883"><ele>193.447</ele><time>2022-09-18T14:43:08Z</time></trkpt><trkpt lat="50.336697" lon="5.591864"><ele>193.272</ele><time>2022-09-18T14:43:09Z</time></trkpt><trkpt lat="50.336843" lon="5.591861"><ele>193.013</ele><time>2022-09-18T14:43:10Z</time></trkpt><trkpt lat="50.336981" lon="5.591839"><ele>192.514</ele><time>2022-09-18T14:43:11Z</time></trkpt><trkpt lat="50.337123" lon="5.591848"><ele>191.809</ele><time>2022-09-18T14:43:12Z</time></trkpt><trkpt lat="50.337267" lon="5.591853"><ele>191.198</ele><time>2022-09-18T14:43:13Z</time></trkpt><trkpt lat="50.337417" lon="5.591865"><ele>190.618</ele><time>2022-09-18T14:43:14Z</time></trkpt><trkpt lat="50.337574" lon="5.591866"><ele>190.250</ele><time>2022-09-18T14:43:15Z</time></trkpt><trkpt lat="50.337733" lon="5.591864"><ele>189.816</ele><time>2022-09-18T14:43:16Z</time></trkpt><trkpt lat="50.337902" lon="5.591858"><ele>189.431</ele><time>2022-09-18T14:43:17Z</time></trkpt><trkpt lat="50.338084" lon="5.591869"><ele>189.116</ele><time>2022-09-18T14:43:18Z</time></trkpt><trkpt lat="50.338258" lon="5.591870"><ele>188.751</ele><time>2022-09-18T14:43:19Z</time></trkpt><trkpt lat="50.338428" lon="5.591866"><ele>188.455</ele><time>2022-09-18T14:43:20Z</time></trkpt><trkpt lat="50.338622" lon="5.591859"><ele>188.372</ele><time>2022-09-18T14:43:21Z</time></trkpt><trkpt lat="50.338804" lon="5.591853"><ele>188.288</ele><time>2022-09-18T14:43:22Z</time></trkpt><trkpt lat="50.338969" lon="5.591879"><ele>188.124</ele><time>2022-09-18T14:43:23Z</time></trkpt><trkpt lat="50.339129" lon="5.591882"><ele>188.126</ele><time>2022-09-18T14:43:24Z</time></trkpt><trkpt lat="50.339286" lon="5.591884"><ele>187.909</ele><time>2022-09-18T14:43:25Z</time></trkpt><trkpt lat="50.339440" lon="5.591885"><ele>187.789</ele><time>2022-09-18T14:43:26Z</time></trkpt><trkpt lat="50.339586" lon="5.591887"><ele>187.699</ele><time>2022-09-18T14:43:27Z</time></trkpt><trkpt lat="50.339726" lon="5.591857"><ele>187.631</ele><time>2022-09-18T14:43:28Z</time></trkpt><trkpt lat="50.339867" lon="5.591851"><ele>187.627</ele><time>2022-09-18T14:43:29Z</time></trkpt><trkpt lat="50.340022" lon="5.591854"><ele>187.792</ele><time>2022-09-18T14:43:30Z</time></trkpt><trkpt lat="50.340142" lon="5.591851"><ele>187.827</ele><time>2022-09-18T14:43:31Z</time></trkpt><trkpt lat="50.340271" lon="5.591833"><ele>187.882</ele><time>2022-09-18T14:43:32Z</time></trkpt><trkpt lat="50.340438" lon="5.591803"><ele>188.046</ele><time>2022-09-18T14:43:33Z</time></trkpt><trkpt lat="50.340520" lon="5.591806"><ele>188.163</ele><time>2022-09-18T14:43:34Z</time></trkpt><trkpt lat="50.340651" lon="5.591771"><ele>188.492</ele><time>2022-09-18T14:43:35Z</time></trkpt><trkpt lat="50.340771" lon="5.591735"><ele>188.473</ele><time>2022-09-18T14:43:36Z</time></trkpt><trkpt lat="50.340896" lon="5.591663"><ele>188.620</ele><time>2022-09-18T14:43:37Z</time></trkpt><trkpt lat="50.340988" lon="5.591631"><ele>188.709</ele><time>2022-09-18T14:43:38Z</time></trkpt><trkpt lat="50.341093" lon="5.591595"><ele>188.750</ele><time>2022-09-18T14:43:39Z</time></trkpt><trkpt lat="50.341194" lon="5.591565"><ele>188.170</ele><time>2022-09-18T14:43:40Z</time></trkpt><trkpt lat="50.341309" lon="5.591534"><ele>187.752</ele><time>2022-09-18T14:43:41Z</time></trkpt><trkpt lat="50.341395" lon="5.591489"><ele>186.948</ele><time>2022-09-18T14:43:42Z</time></trkpt><trkpt lat="50.341480" lon="5.591454"><ele>186.213</ele><time>2022-09-18T14:43:43Z</time></trkpt><trkpt lat="50.341553" lon="5.591309"><ele>185.678</ele><time>2022-09-18T14:43:44Z</time></trkpt><trkpt lat="50.341666" lon="5.591157"><ele>185.683</ele><time>2022-09-18T14:43:45Z</time></trkpt><trkpt lat="50.341742" lon="5.591003"><ele>186.177</ele><time>2022-09-18T14:43:46Z</time></trkpt><trkpt lat="50.341839" lon="5.590840"><ele>186.464</ele><time>2022-09-18T14:43:47Z</time></trkpt><trkpt lat="50.341945" lon="5.590678"><ele>187.594</ele><time>2022-09-18T14:43:48Z</time></trkpt><trkpt lat="50.342045" lon="5.590508"><ele>188.257</ele><time>2022-09-18T14:43:49Z</time></trkpt><trkpt lat="50.342141" lon="5.590333"><ele>188.822</ele><time>2022-09-18T14:43:50Z</time></trkpt><trkpt lat="50.342239" lon="5.590150"><ele>189.209</ele><time>2022-09-18T14:43:51Z</time></trkpt><trkpt lat="50.342335" lon="5.589964"><ele>189.660</ele><time>2022-09-18T14:43:52Z</time></trkpt><trkpt lat="50.342450" lon="5.589772"><ele>190.160</ele><time>2022-09-18T14:43:53Z</time></trkpt><trkpt lat="50.342554" lon="5.589580"><ele>190.612</ele><time>2022-09-18T14:43:54Z</time></trkpt><trkpt lat="50.342656" lon="5.589378"><ele>191.148</ele><time>2022-09-18T14:43:55Z</time></trkpt><trkpt lat="50.342754" lon="5.589193"><ele>191.733</ele><time>2022-09-18T14:43:56Z</time></trkpt><trkpt lat="50.342854" lon="5.589018"><ele>192.398</ele><time>2022-09-18T14:43:57Z</time></trkpt><trkpt lat="50.342947" lon="5.588866"><ele>192.753</ele><time>2022-09-18T14:43:58Z</time></trkpt><trkpt lat="50.343042" lon="5.588687"><ele>193.017</ele><time>2022-09-18T14:43:59Z</time></trkpt><trkpt lat="50.343143" lon="5.588534"><ele>193.394</ele><time>2022-09-18T14:44:00Z</time></trkpt><trkpt lat="50.343232" lon="5.588390"><ele>193.515</ele><time>2022-09-18T14:44:01Z</time></trkpt><trkpt lat="50.343308" lon="5.588259"><ele>193.865</ele><time>2022-09-18T14:44:02Z</time></trkpt><trkpt lat="50.343354" lon="5.588084"><ele>194.411</ele><time>2022-09-18T14:44:03Z</time></trkpt><trkpt lat="50.343449" lon="5.587958"><ele>194.809</ele><time>2022-09-18T14:44:04Z</time></trkpt><trkpt lat="50.343558" lon="5.587822"><ele>195.222</ele><time>2022-09-18T14:44:05Z</time></trkpt><trkpt lat="50.343666" lon="5.587698"><ele>195.272</ele><time>2022-09-18T14:44:06Z</time></trkpt><trkpt lat="50.343768" lon="5.587592"><ele>195.234</ele><time>2022-09-18T14:44:07Z</time></trkpt><trkpt lat="50.343932" lon="5.587489"><ele>194.860</ele><time>2022-09-18T14:44:08Z</time></trkpt><trkpt lat="50.344086" lon="5.587396"><ele>194.555</ele><time>2022-09-18T14:44:09Z</time></trkpt><trkpt lat="50.344249" lon="5.587286"><ele>194.260</ele><time>2022-09-18T14:44:10Z</time></trkpt><trkpt lat="50.344436" lon="5.587167"><ele>194.025</ele><time>2022-09-18T14:44:11Z</time></trkpt><trkpt lat="50.344615" lon="5.587068"><ele>193.759</ele><time>2022-09-18T14:44:12Z</time></trkpt><trkpt lat="50.344791" lon="5.587000"><ele>193.446</ele><time>2022-09-18T14:44:13Z</time></trkpt><trkpt lat="50.344965" lon="5.586919"><ele>192.944</ele><time>2022-09-18T14:44:14Z</time></trkpt><trkpt lat="50.345151" lon="5.586844"><ele>192.205</ele><time>2022-09-18T14:44:15Z</time></trkpt><trkpt lat="50.345323" lon="5.586750"><ele>191.415</ele><time>2022-09-18T14:44:16Z</time></trkpt><trkpt lat="50.345472" lon="5.586665"><ele>190.609</ele><time>2022-09-18T14:44:17Z</time></trkpt><trkpt lat="50.345629" lon="5.586582"><ele>189.755</ele><time>2022-09-18T14:44:18Z</time></trkpt><trkpt lat="50.345796" lon="5.586497"><ele>189.085</ele><time>2022-09-18T14:44:19Z</time></trkpt><trkpt lat="50.345929" lon="5.586438"><ele>188.417</ele><time>2022-09-18T14:44:20Z</time></trkpt><trkpt lat="50.346073" lon="5.586323"><ele>187.863</ele><time>2022-09-18T14:44:21Z</time></trkpt><trkpt lat="50.346216" lon="5.586205"><ele>187.668</ele><time>2022-09-18T14:44:22Z</time></trkpt><trkpt lat="50.346380" lon="5.586116"><ele>187.613</ele><time>2022-09-18T14:44:23Z</time></trkpt><trkpt lat="50.346543" lon="5.586005"><ele>187.868</ele><time>2022-09-18T14:44:24Z</time></trkpt><trkpt lat="50.346700" lon="5.585904"><ele>188.292</ele><time>2022-09-18T14:44:25Z</time></trkpt><trkpt lat="50.346853" lon="5.585804"><ele>188.619</ele><time>2022-09-18T14:44:26Z</time></trkpt><trkpt lat="50.347025" lon="5.585714"><ele>189.041</ele><time>2022-09-18T14:44:27Z</time></trkpt><trkpt lat="50.347159" lon="5.585608"><ele>189.481</ele><time>2022-09-18T14:44:28Z</time></trkpt><trkpt lat="50.347299" lon="5.585481"><ele>189.909</ele><time>2022-09-18T14:44:29Z</time></trkpt><trkpt lat="50.347385" lon="5.585384"><ele>190.209</ele><time>2022-09-18T14:44:30Z</time></trkpt><trkpt lat="50.347519" lon="5.585338"><ele>191.425</ele><time>2022-09-18T14:44:31Z</time></trkpt><trkpt lat="50.347653" lon="5.585280"><ele>192.625</ele><time>2022-09-18T14:44:32Z</time></trkpt><trkpt lat="50.347794" lon="5.585236"><ele>193.527</ele><time>2022-09-18T14:44:33Z</time></trkpt><trkpt lat="50.347936" lon="5.585209"><ele>194.433</ele><time>2022-09-18T14:44:34Z</time></trkpt><trkpt lat="50.348058" lon="5.585130"><ele>195.188</ele><time>2022-09-18T14:44:35Z</time></trkpt><trkpt lat="50.348217" lon="5.585043"><ele>195.873</ele><time>2022-09-18T14:44:36Z</time></trkpt><trkpt lat="50.348375" lon="5.584978"><ele>196.818</ele><time>2022-09-18T14:44:37Z</time></trkpt><trkpt lat="50.348545" lon="5.584954"><ele>197.822</ele><time>2022-09-18T14:44:38Z</time></trkpt><trkpt lat="50.348738" lon="5.584909"><ele>198.669</ele><time>2022-09-18T14:44:39Z</time></trkpt><trkpt lat="50.348908" lon="5.584839"><ele>199.382</ele><time>2022-09-18T14:44:40Z</time></trkpt><trkpt lat="50.349064" lon="5.584766"><ele>200.243</ele><time>2022-09-18T14:44:41Z</time></trkpt><trkpt lat="50.349201" lon="5.584705"><ele>201.117</ele><time>2022-09-18T14:44:42Z</time></trkpt><trkpt lat="50.349379" lon="5.584672"><ele>202.009</ele><time>2022-09-18T14:44:43Z</time></trkpt><trkpt lat="50.349533" lon="5.584538"><ele>202.949</ele><time>2022-09-18T14:44:44Z</time></trkpt><trkpt lat="50.349657" lon="5.584402"><ele>203.829</ele><time>2022-09-18T14:44:45Z</time></trkpt><trkpt lat="50.349786" lon="5.584294"><ele>204.641</ele><time>2022-09-18T14:44:46Z</time></trkpt><trkpt lat="50.349868" lon="5.584189"><ele>204.977</ele><time>2022-09-18T14:44:47Z</time></trkpt><trkpt lat="50.349924" lon="5.584054"><ele>205.692</ele><time>2022-09-18T14:44:48Z</time></trkpt><trkpt lat="50.349957" lon="5.583876"><ele>206.567</ele><time>2022-09-18T14:44:49Z</time></trkpt><trkpt lat="50.349986" lon="5.583678"><ele>207.332</ele><time>2022-09-18T14:44:50Z</time></trkpt><trkpt lat="50.349999" lon="5.583466"><ele>208.246</ele><time>2022-09-18T14:44:51Z</time></trkpt><trkpt lat="50.350033" lon="5.583233"><ele>209.443</ele><time>2022-09-18T14:44:52Z</time></trkpt><trkpt lat="50.350073" lon="5.583009"><ele>210.336</ele><time>2022-09-18T14:44:53Z</time></trkpt><trkpt lat="50.350107" lon="5.582765"><ele>211.317</ele><time>2022-09-18T14:44:54Z</time></trkpt><trkpt lat="50.350159" lon="5.582505"><ele>212.418</ele><time>2022-09-18T14:44:55Z</time></trkpt><trkpt lat="50.350227" lon="5.582259"><ele>213.909</ele><time>2022-09-18T14:44:56Z</time></trkpt><trkpt lat="50.350280" lon="5.582043"><ele>215.644</ele><time>2022-09-18T14:44:57Z</time></trkpt><trkpt lat="50.350337" lon="5.581793"><ele>217.154</ele><time>2022-09-18T14:44:58Z</time></trkpt><trkpt lat="50.350379" lon="5.581529"><ele>218.646</ele><time>2022-09-18T14:44:59Z</time></trkpt><trkpt lat="50.350435" lon="5.581230"><ele>220.162</ele><time>2022-09-18T14:45:00Z</time></trkpt><trkpt lat="50.350497" lon="5.580971"><ele>221.237</ele><time>2022-09-18T14:45:01Z</time></trkpt><trkpt lat="50.350554" lon="5.580706"><ele>222.042</ele><time>2022-09-18T14:45:02Z</time></trkpt><trkpt lat="50.350608" lon="5.580439"><ele>223.017</ele><time>2022-09-18T14:45:03Z</time></trkpt><trkpt lat="50.350666" lon="5.580170"><ele>224.041</ele><time>2022-09-18T14:45:04Z</time></trkpt><trkpt lat="50.350692" lon="5.579903"><ele>224.998</ele><time>2022-09-18T14:45:05Z</time></trkpt><trkpt lat="50.350723" lon="5.579641"><ele>225.823</ele><time>2022-09-18T14:45:06Z</time></trkpt><trkpt lat="50.350726" lon="5.579382"><ele>226.783</ele><time>2022-09-18T14:45:07Z</time></trkpt><trkpt lat="50.350762" lon="5.579123"><ele>227.511</ele><time>2022-09-18T14:45:08Z</time></trkpt><trkpt lat="50.350781" lon="5.578874"><ele>228.209</ele><time>2022-09-18T14:45:09Z</time></trkpt><trkpt lat="50.350793" lon="5.578618"><ele>229.073</ele><time>2022-09-18T14:45:10Z</time></trkpt><trkpt lat="50.350826" lon="5.578364"><ele>229.983</ele><time>2022-09-18T14:45:11Z</time></trkpt><trkpt lat="50.350848" lon="5.578146"><ele>231.065</ele><time>2022-09-18T14:45:12Z</time></trkpt><trkpt lat="50.350861" lon="5.577924"><ele>232.121</ele><time>2022-09-18T14:45:13Z</time></trkpt><trkpt lat="50.350871" lon="5.577678"><ele>233.246</ele><time>2022-09-18T14:45:14Z</time></trkpt><trkpt lat="50.350864" lon="5.577434"><ele>234.561</ele><time>2022-09-18T14:45:15Z</time></trkpt><trkpt lat="50.350837" lon="5.577192"><ele>235.786</ele><time>2022-09-18T14:45:16Z</time></trkpt><trkpt lat="50.350810" lon="5.576949"><ele>236.760</ele><time>2022-09-18T14:45:17Z</time></trkpt><trkpt lat="50.350788" lon="5.576744"><ele>237.837</ele><time>2022-09-18T14:45:18Z</time></trkpt><trkpt lat="50.350762" lon="5.576512"><ele>238.923</ele><time>2022-09-18T14:45:19Z</time></trkpt><trkpt lat="50.350724" lon="5.576258"><ele>239.783</ele><time>2022-09-18T14:45:20Z</time></trkpt><trkpt lat="50.350671" lon="5.576013"><ele>240.311</ele><time>2022-09-18T14:45:21Z</time></trkpt><trkpt lat="50.350605" lon="5.575780"><ele>240.709</ele><time>2022-09-18T14:45:22Z</time></trkpt><trkpt lat="50.350535" lon="5.575569"><ele>240.983</ele><time>2022-09-18T14:45:23Z</time></trkpt><trkpt lat="50.350438" lon="5.575321"><ele>241.073</ele><time>2022-09-18T14:45:24Z</time></trkpt><trkpt lat="50.350338" lon="5.575071"><ele>240.925</ele><time>2022-09-18T14:45:25Z</time></trkpt><trkpt lat="50.350232" lon="5.574797"><ele>240.611</ele><time>2022-09-18T14:45:26Z</time></trkpt><trkpt lat="50.350133" lon="5.574542"><ele>240.436</ele><time>2022-09-18T14:45:27Z</time></trkpt><trkpt lat="50.350038" lon="5.574297"><ele>240.281</ele><time>2022-09-18T14:45:28Z</time></trkpt><trkpt lat="50.349939" lon="5.574041"><ele>239.966</ele><time>2022-09-18T14:45:29Z</time></trkpt><trkpt lat="50.349840" lon="5.573785"><ele>239.730</ele><time>2022-09-18T14:45:30Z</time></trkpt><trkpt lat="50.349744" lon="5.573536"><ele>239.737</ele><time>2022-09-18T14:45:31Z</time></trkpt><trkpt lat="50.349649" lon="5.573293"><ele>239.781</ele><time>2022-09-18T14:45:32Z</time></trkpt><trkpt lat="50.349557" lon="5.573057"><ele>239.461</ele><time>2022-09-18T14:45:33Z</time></trkpt><trkpt lat="50.349471" lon="5.572834"><ele>238.917</ele><time>2022-09-18T14:45:34Z</time></trkpt><trkpt lat="50.349390" lon="5.572624"><ele>238.309</ele><time>2022-09-18T14:45:35Z</time></trkpt><trkpt lat="50.349308" lon="5.572416"><ele>237.749</ele><time>2022-09-18T14:45:36Z</time></trkpt><trkpt lat="50.349253" lon="5.572264"><ele>237.429</ele><time>2022-09-18T14:45:37Z</time></trkpt><trkpt lat="50.349218" lon="5.572078"><ele>237.461</ele><time>2022-09-18T14:45:38Z</time></trkpt><trkpt lat="50.349206" lon="5.571902"><ele>237.767</ele><time>2022-09-18T14:45:39Z</time></trkpt><trkpt lat="50.349191" lon="5.571657"><ele>238.732</ele><time>2022-09-18T14:45:40Z</time></trkpt><trkpt lat="50.349179" lon="5.571449"><ele>239.487</ele><time>2022-09-18T14:45:41Z</time></trkpt><trkpt lat="50.349166" lon="5.571225"><ele>239.972</ele><time>2022-09-18T14:45:42Z</time></trkpt><trkpt lat="50.349158" lon="5.571055"><ele>240.076</ele><time>2022-09-18T14:45:43Z</time></trkpt><trkpt lat="50.349155" lon="5.570829"><ele>240.093</ele><time>2022-09-18T14:45:44Z</time></trkpt><trkpt lat="50.349155" lon="5.570591"><ele>240.061</ele><time>2022-09-18T14:45:45Z</time></trkpt><trkpt lat="50.349179" lon="5.570354"><ele>240.021</ele><time>2022-09-18T14:45:46Z</time></trkpt><trkpt lat="50.349203" lon="5.570114"><ele>240.013</ele><time>2022-09-18T14:45:47Z</time></trkpt><trkpt lat="50.349216" lon="5.569838"><ele>240.009</ele><time>2022-09-18T14:45:48Z</time></trkpt><trkpt lat="50.349218" lon="5.569595"><ele>240.047</ele><time>2022-09-18T14:45:49Z</time></trkpt><trkpt lat="50.349215" lon="5.569371"><ele>240.137</ele><time>2022-09-18T14:45:50Z</time></trkpt><trkpt lat="50.349212" lon="5.569154"><ele>240.349</ele><time>2022-09-18T14:45:51Z</time></trkpt><trkpt lat="50.349209" lon="5.568923"><ele>240.615</ele><time>2022-09-18T14:45:52Z</time></trkpt><trkpt lat="50.349206" lon="5.568709"><ele>241.260</ele><time>2022-09-18T14:45:53Z</time></trkpt><trkpt lat="50.349187" lon="5.568500"><ele>241.755</ele><time>2022-09-18T14:45:54Z</time></trkpt><trkpt lat="50.349167" lon="5.568277"><ele>241.880</ele><time>2022-09-18T14:45:55Z</time></trkpt><trkpt lat="50.349150" lon="5.568087"><ele>241.864</ele><time>2022-09-18T14:45:56Z</time></trkpt><trkpt lat="50.349134" lon="5.567900"><ele>241.841</ele><time>2022-09-18T14:45:57Z</time></trkpt><trkpt lat="50.349117" lon="5.567711"><ele>241.726</ele><time>2022-09-18T14:45:58Z</time></trkpt><trkpt lat="50.349109" lon="5.567526"><ele>241.547</ele><time>2022-09-18T14:45:59Z</time></trkpt><trkpt lat="50.349100" lon="5.567351"><ele>241.511</ele><time>2022-09-18T14:46:00Z</time></trkpt><trkpt lat="50.349090" lon="5.567147"><ele>241.909</ele><time>2022-09-18T14:46:01Z</time></trkpt><trkpt lat="50.349080" lon="5.566940"><ele>242.233</ele><time>2022-09-18T14:46:02Z</time></trkpt><trkpt lat="50.349071" lon="5.566747"><ele>242.583</ele><time>2022-09-18T14:46:03Z</time></trkpt><trkpt lat="50.349060" lon="5.566528"><ele>242.865</ele><time>2022-09-18T14:46:04Z</time></trkpt><trkpt lat="50.349044" lon="5.566305"><ele>242.851</ele><time>2022-09-18T14:46:05Z</time></trkpt><trkpt lat="50.349015" lon="5.566083"><ele>242.856</ele><time>2022-09-18T14:46:06Z</time></trkpt><trkpt lat="50.348974" lon="5.565856"><ele>242.951</ele><time>2022-09-18T14:46:07Z</time></trkpt><trkpt lat="50.348920" lon="5.565626"><ele>243.196</ele><time>2022-09-18T14:46:08Z</time></trkpt><trkpt lat="50.348853" lon="5.565408"><ele>243.480</ele><time>2022-09-18T14:46:09Z</time></trkpt><trkpt lat="50.348778" lon="5.565182"><ele>243.927</ele><time>2022-09-18T14:46:10Z</time></trkpt><trkpt lat="50.348714" lon="5.565005"><ele>244.495</ele><time>2022-09-18T14:46:11Z</time></trkpt><trkpt lat="50.348645" lon="5.564826"><ele>244.649</ele><time>2022-09-18T14:46:12Z</time></trkpt><trkpt lat="50.348563" lon="5.564665"><ele>244.923</ele><time>2022-09-18T14:46:13Z</time></trkpt><trkpt lat="50.348482" lon="5.564526"><ele>245.109</ele><time>2022-09-18T14:46:14Z</time></trkpt><trkpt lat="50.348402" lon="5.564415"><ele>245.470</ele><time>2022-09-18T14:46:15Z</time></trkpt><trkpt lat="50.348297" lon="5.564299"><ele>245.630</ele><time>2022-09-18T14:46:16Z</time></trkpt><trkpt lat="50.348192" lon="5.564204"><ele>245.732</ele><time>2022-09-18T14:46:17Z</time></trkpt><trkpt lat="50.348089" lon="5.564115"><ele>246.158</ele><time>2022-09-18T14:46:18Z</time></trkpt><trkpt lat="50.347985" lon="5.564029"><ele>246.443</ele><time>2022-09-18T14:46:19Z</time></trkpt><trkpt lat="50.347910" lon="5.563909"><ele>246.648</ele><time>2022-09-18T14:46:20Z</time></trkpt><trkpt lat="50.347839" lon="5.563754"><ele>246.963</ele><time>2022-09-18T14:46:21Z</time></trkpt><trkpt lat="50.347788" lon="5.563604"><ele>247.487</ele><time>2022-09-18T14:46:22Z</time></trkpt><trkpt lat="50.347744" lon="5.563461"><ele>247.674</ele><time>2022-09-18T14:46:23Z</time></trkpt><trkpt lat="50.347711" lon="5.563351"><ele>248.182</ele><time>2022-09-18T14:46:24Z</time></trkpt><trkpt lat="50.347678" lon="5.563241"><ele>248.343</ele><time>2022-09-18T14:46:25Z</time></trkpt><trkpt lat="50.347639" lon="5.563119"><ele>248.717</ele><time>2022-09-18T14:46:26Z</time></trkpt><trkpt lat="50.347612" lon="5.563037"><ele>249.009</ele><time>2022-09-18T14:46:27Z</time></trkpt><trkpt lat="50.347584" lon="5.562951"><ele>249.379</ele><time>2022-09-18T14:46:28Z</time></trkpt><trkpt lat="50.347558" lon="5.562873"><ele>249.469</ele><time>2022-09-18T14:46:29Z</time></trkpt><trkpt lat="50.347535" lon="5.562804"><ele>249.511</ele><time>2022-09-18T14:46:30Z</time></trkpt><trkpt lat="50.347483" lon="5.562744"><ele>249.637</ele><time>2022-09-18T14:46:31Z</time></trkpt><trkpt lat="50.347487" lon="5.562623"><ele>249.742</ele><time>2022-09-18T14:46:32Z</time></trkpt><trkpt lat="50.347504" lon="5.562500"><ele>249.867</ele><time>2022-09-18T14:46:33Z</time></trkpt><trkpt lat="50.347528" lon="5.562381"><ele>249.862</ele><time>2022-09-18T14:46:34Z</time></trkpt><trkpt lat="50.347580" lon="5.562268"><ele>249.876</ele><time>2022-09-18T14:46:35Z</time></trkpt><trkpt lat="50.347573" lon="5.562126"><ele>249.693</ele><time>2022-09-18T14:46:36Z</time></trkpt><trkpt lat="50.347557" lon="5.562010"><ele>249.318</ele><time>2022-09-18T14:46:37Z</time></trkpt><trkpt lat="50.347564" lon="5.561880"><ele>249.098</ele><time>2022-09-18T14:46:38Z</time></trkpt><trkpt lat="50.347597" lon="5.561765"><ele>248.617</ele><time>2022-09-18T14:46:39Z</time></trkpt><trkpt lat="50.347649" lon="5.561672"><ele>248.309</ele><time>2022-09-18T14:46:40Z</time></trkpt><trkpt lat="50.347716" lon="5.561581"><ele>248.082</ele><time>2022-09-18T14:46:41Z</time></trkpt><trkpt lat="50.347798" lon="5.561484"><ele>247.632</ele><time>2022-09-18T14:46:42Z</time></trkpt><trkpt lat="50.347890" lon="5.561405"><ele>247.344</ele><time>2022-09-18T14:46:43Z</time></trkpt><trkpt lat="50.348010" lon="5.561431"><ele>246.940</ele><time>2022-09-18T14:46:44Z</time></trkpt><trkpt lat="50.348095" lon="5.561357"><ele>246.225</ele><time>2022-09-18T14:46:45Z</time></trkpt><trkpt lat="50.348179" lon="5.561284"><ele>245.590</ele><time>2022-09-18T14:46:46Z</time></trkpt><trkpt lat="50.348264" lon="5.561209"><ele>244.645</ele><time>2022-09-18T14:46:47Z</time></trkpt><trkpt lat="50.348351" lon="5.561148"><ele>243.729</ele><time>2022-09-18T14:46:48Z</time></trkpt><trkpt lat="50.348449" lon="5.561072"><ele>242.756</ele><time>2022-09-18T14:46:49Z</time></trkpt><trkpt lat="50.348531" lon="5.561009"><ele>241.817</ele><time>2022-09-18T14:46:50Z</time></trkpt><trkpt lat="50.348602" lon="5.560954"><ele>240.787</ele><time>2022-09-18T14:46:51Z</time></trkpt><trkpt lat="50.348655" lon="5.560913"><ele>240.215</ele><time>2022-09-18T14:46:52Z</time></trkpt><trkpt lat="50.348708" lon="5.560882"><ele>239.109</ele><time>2022-09-18T14:46:53Z</time></trkpt><trkpt lat="50.348769" lon="5.560908"><ele>238.542</ele><time>2022-09-18T14:46:54Z</time></trkpt><trkpt lat="50.348827" lon="5.560971"><ele>237.382</ele><time>2022-09-18T14:46:55Z</time></trkpt><trkpt lat="50.348873" lon="5.560977"><ele>236.384</ele><time>2022-09-18T14:46:56Z</time></trkpt><trkpt lat="50.348929" lon="5.560985"><ele>235.410</ele><time>2022-09-18T14:46:57Z</time></trkpt><trkpt lat="50.349000" lon="5.560995"><ele>234.545</ele><time>2022-09-18T14:46:58Z</time></trkpt><trkpt lat="50.349105" lon="5.560988"><ele>233.580</ele><time>2022-09-18T14:46:59Z</time></trkpt><trkpt lat="50.349223" lon="5.560977"><ele>232.875</ele><time>2022-09-18T14:47:00Z</time></trkpt><trkpt lat="50.349378" lon="5.560955"><ele>232.399</ele><time>2022-09-18T14:47:01Z</time></trkpt><trkpt lat="50.349510" lon="5.560957"><ele>232.186</ele><time>2022-09-18T14:47:02Z</time></trkpt><trkpt lat="50.349682" lon="5.560946"><ele>231.821</ele><time>2022-09-18T14:47:03Z</time></trkpt><trkpt lat="50.349852" lon="5.560936"><ele>231.541</ele><time>2022-09-18T14:47:04Z</time></trkpt><trkpt lat="50.350026" lon="5.560937"><ele>230.905</ele><time>2022-09-18T14:47:05Z</time></trkpt><trkpt lat="50.350201" lon="5.560960"><ele>230.109</ele><time>2022-09-18T14:47:06Z</time></trkpt><trkpt lat="50.350355" lon="5.561002"><ele>229.343</ele><time>2022-09-18T14:47:07Z</time></trkpt><trkpt lat="50.350513" lon="5.561074"><ele>228.643</ele><time>2022-09-18T14:47:08Z</time></trkpt><trkpt lat="50.350659" lon="5.561196"><ele>228.095</ele><time>2022-09-18T14:47:09Z</time></trkpt><trkpt lat="50.350802" lon="5.561349"><ele>227.761</ele><time>2022-09-18T14:47:10Z</time></trkpt><trkpt lat="50.350941" lon="5.561497"><ele>227.746</ele><time>2022-09-18T14:47:11Z</time></trkpt><trkpt lat="50.351064" lon="5.561699"><ele>227.751</ele><time>2022-09-18T14:47:12Z</time></trkpt><trkpt lat="50.351197" lon="5.561865"><ele>227.736</ele><time>2022-09-18T14:47:13Z</time></trkpt><trkpt lat="50.351316" lon="5.562037"><ele>227.450</ele><time>2022-09-18T14:47:14Z</time></trkpt><trkpt lat="50.351444" lon="5.562193"><ele>226.977</ele><time>2022-09-18T14:47:15Z</time></trkpt><trkpt lat="50.351572" lon="5.562324"><ele>226.379</ele><time>2022-09-18T14:47:16Z</time></trkpt><trkpt lat="50.351702" lon="5.562439"><ele>225.405</ele><time>2022-09-18T14:47:17Z</time></trkpt><trkpt lat="50.351845" lon="5.562514"><ele>224.325</ele><time>2022-09-18T14:47:18Z</time></trkpt><trkpt lat="50.352003" lon="5.562535"><ele>223.409</ele><time>2022-09-18T14:47:19Z</time></trkpt><trkpt lat="50.352171" lon="5.562502"><ele>222.518</ele><time>2022-09-18T14:47:20Z</time></trkpt><trkpt lat="50.352345" lon="5.562423"><ele>221.758</ele><time>2022-09-18T14:47:21Z</time></trkpt><trkpt lat="50.352509" lon="5.562300"><ele>221.260</ele><time>2022-09-18T14:47:22Z</time></trkpt><trkpt lat="50.352658" lon="5.562206"><ele>220.866</ele><time>2022-09-18T14:47:23Z</time></trkpt><trkpt lat="50.352792" lon="5.562053"><ele>220.491</ele><time>2022-09-18T14:47:24Z</time></trkpt><trkpt lat="50.352924" lon="5.561905"><ele>219.946</ele><time>2022-09-18T14:47:25Z</time></trkpt><trkpt lat="50.353061" lon="5.561756"><ele>219.421</ele><time>2022-09-18T14:47:26Z</time></trkpt><trkpt lat="50.353203" lon="5.561637"><ele>218.875</ele><time>2022-09-18T14:47:27Z</time></trkpt><trkpt lat="50.353345" lon="5.561526"><ele>218.292</ele><time>2022-09-18T14:47:28Z</time></trkpt><trkpt lat="50.353494" lon="5.561428"><ele>217.663</ele><time>2022-09-18T14:47:29Z</time></trkpt><trkpt lat="50.353660" lon="5.561339"><ele>217.144</ele><time>2022-09-18T14:47:30Z</time></trkpt><trkpt lat="50.353826" lon="5.561237"><ele>216.718</ele><time>2022-09-18T14:47:31Z</time></trkpt><trkpt lat="50.353985" lon="5.561140"><ele>216.309</ele><time>2022-09-18T14:47:32Z</time></trkpt><trkpt lat="50.354144" lon="5.561031"><ele>215.827</ele><time>2022-09-18T14:47:33Z</time></trkpt><trkpt lat="50.354296" lon="5.560951"><ele>215.367</ele><time>2022-09-18T14:47:34Z</time></trkpt><trkpt lat="50.354432" lon="5.560821"><ele>214.719</ele><time>2022-09-18T14:47:35Z</time></trkpt><trkpt lat="50.354562" lon="5.560698"><ele>213.895</ele><time>2022-09-18T14:47:36Z</time></trkpt><trkpt lat="50.354691" lon="5.560587"><ele>212.930</ele><time>2022-09-18T14:47:37Z</time></trkpt><trkpt lat="50.354823" lon="5.560474"><ele>212.275</ele><time>2022-09-18T14:47:38Z</time></trkpt><trkpt lat="50.354961" lon="5.560369"><ele>211.560</ele><time>2022-09-18T14:47:39Z</time></trkpt><trkpt lat="50.355108" lon="5.560298"><ele>210.924</ele><time>2022-09-18T14:47:40Z</time></trkpt><trkpt lat="50.355256" lon="5.560234"><ele>210.511</ele><time>2022-09-18T14:47:41Z</time></trkpt><trkpt lat="50.355415" lon="5.560167"><ele>210.023</ele><time>2022-09-18T14:47:42Z</time></trkpt><trkpt lat="50.355565" lon="5.560109"><ele>209.483</ele><time>2022-09-18T14:47:43Z</time></trkpt><trkpt lat="50.355722" lon="5.560025"><ele>208.611</ele><time>2022-09-18T14:47:44Z</time></trkpt><trkpt lat="50.355855" lon="5.559928"><ele>207.509</ele><time>2022-09-18T14:47:45Z</time></trkpt><trkpt lat="50.355995" lon="5.559800"><ele>206.263</ele><time>2022-09-18T14:47:46Z</time></trkpt><trkpt lat="50.356107" lon="5.559692"><ele>204.773</ele><time>2022-09-18T14:47:47Z</time></trkpt><trkpt lat="50.356218" lon="5.559584"><ele>203.915</ele><time>2022-09-18T14:47:48Z</time></trkpt><trkpt lat="50.356355" lon="5.559501"><ele>201.171</ele><time>2022-09-18T14:47:49Z</time></trkpt><trkpt lat="50.356487" lon="5.559421"><ele>199.156</ele><time>2022-09-18T14:47:50Z</time></trkpt><trkpt lat="50.356612" lon="5.559360"><ele>197.061</ele><time>2022-09-18T14:47:51Z</time></trkpt><trkpt lat="50.356712" lon="5.559324"><ele>195.966</ele><time>2022-09-18T14:47:52Z</time></trkpt><trkpt lat="50.356826" lon="5.559241"><ele>193.740</ele><time>2022-09-18T14:47:53Z</time></trkpt><trkpt lat="50.356921" lon="5.559193"><ele>191.527</ele><time>2022-09-18T14:47:54Z</time></trkpt><trkpt lat="50.357013" lon="5.559190"><ele>189.617</ele><time>2022-09-18T14:47:55Z</time></trkpt><trkpt lat="50.357170" lon="5.559134"><ele>187.587</ele><time>2022-09-18T14:47:56Z</time></trkpt><trkpt lat="50.357316" lon="5.559103"><ele>184.315</ele><time>2022-09-18T14:47:57Z</time></trkpt><trkpt lat="50.357450" lon="5.559092"><ele>181.909</ele><time>2022-09-18T14:47:58Z</time></trkpt><trkpt lat="50.357576" lon="5.559097"><ele>180.542</ele><time>2022-09-18T14:47:59Z</time></trkpt><trkpt lat="50.357714" lon="5.559117"><ele>177.922</ele><time>2022-09-18T14:48:00Z</time></trkpt><trkpt lat="50.357872" lon="5.559185"><ele>174.314</ele><time>2022-09-18T14:48:01Z</time></trkpt><trkpt lat="50.358010" lon="5.559222"><ele>171.930</ele><time>2022-09-18T14:48:02Z</time></trkpt><trkpt lat="50.358173" lon="5.559214"><ele>169.885</ele><time>2022-09-18T14:48:03Z</time></trkpt><trkpt lat="50.358308" lon="5.559128"><ele>169.080</ele><time>2022-09-18T14:48:04Z</time></trkpt><trkpt lat="50.358399" lon="5.559012"><ele>169.055</ele><time>2022-09-18T14:48:05Z</time></trkpt><trkpt lat="50.358471" lon="5.558902"><ele>165.259</ele><time>2022-09-18T14:48:06Z</time></trkpt><trkpt lat="50.358556" lon="5.558842"><ele>165.226</ele><time>2022-09-18T14:48:07Z</time></trkpt><trkpt lat="50.358644" lon="5.558819"><ele>163.657</ele><time>2022-09-18T14:48:08Z</time></trkpt><trkpt lat="50.358713" lon="5.558790"><ele>162.900</ele><time>2022-09-18T14:48:09Z</time></trkpt><trkpt lat="50.358786" lon="5.558822"><ele>161.520</ele><time>2022-09-18T14:48:10Z</time></trkpt><trkpt lat="50.358880" lon="5.558899"><ele>160.309</ele><time>2022-09-18T14:48:11Z</time></trkpt><trkpt lat="50.358966" lon="5.559021"><ele>159.056</ele><time>2022-09-18T14:48:12Z</time></trkpt><trkpt lat="50.359068" lon="5.559172"><ele>158.356</ele><time>2022-09-18T14:48:13Z</time></trkpt><trkpt lat="50.359139" lon="5.559297"><ele>158.028</ele><time>2022-09-18T14:48:14Z</time></trkpt><trkpt lat="50.359210" lon="5.559408"><ele>157.834</ele><time>2022-09-18T14:48:15Z</time></trkpt><trkpt lat="50.359270" lon="5.559511"><ele>157.449</ele><time>2022-09-18T14:48:16Z</time></trkpt><trkpt lat="50.359328" lon="5.559593"><ele>157.324</ele><time>2022-09-18T14:48:17Z</time></trkpt><trkpt lat="50.359394" lon="5.559670"><ele>157.129</ele><time>2022-09-18T14:48:18Z</time></trkpt><trkpt lat="50.359434" lon="5.559746"><ele>157.053</ele><time>2022-09-18T14:48:19Z</time></trkpt><trkpt lat="50.359477" lon="5.559808"><ele>156.830</ele><time>2022-09-18T14:48:20Z</time></trkpt><trkpt lat="50.359580" lon="5.559970"><ele>156.548</ele><time>2022-09-18T14:48:22Z</time></trkpt><trkpt lat="50.359676" lon="5.559903"><ele>155.561</ele><time>2022-09-18T14:48:29Z</time></trkpt><trkpt lat="50.359705" lon="5.559848"><ele>153.817</ele><time>2022-09-18T14:48:30Z</time></trkpt><trkpt lat="50.359787" lon="5.559760"><ele>153.809</ele><time>2022-09-18T14:48:31Z</time></trkpt><trkpt lat="50.359852" lon="5.559659"><ele>153.865</ele><time>2022-09-18T14:48:32Z</time></trkpt><trkpt lat="50.359946" lon="5.559545"><ele>154.055</ele><time>2022-09-18T14:48:33Z</time></trkpt><trkpt lat="50.360038" lon="5.559418"><ele>154.267</ele><time>2022-09-18T14:48:34Z</time></trkpt><trkpt lat="50.360136" lon="5.559278"><ele>154.533</ele><time>2022-09-18T14:48:35Z</time></trkpt><trkpt lat="50.360262" lon="5.559124"><ele>154.898</ele><time>2022-09-18T14:48:36Z</time></trkpt><trkpt lat="50.360380" lon="5.558962"><ele>154.933</ele><time>2022-09-18T14:48:37Z</time></trkpt><trkpt lat="50.360506" lon="5.558817"><ele>154.998</ele><time>2022-09-18T14:48:38Z</time></trkpt><trkpt lat="50.360639" lon="5.558670"><ele>154.712</ele><time>2022-09-18T14:48:39Z</time></trkpt><trkpt lat="50.360770" lon="5.558495"><ele>154.599</ele><time>2022-09-18T14:48:40Z</time></trkpt><trkpt lat="50.360908" lon="5.558325"><ele>154.559</ele><time>2022-09-18T14:48:41Z</time></trkpt><trkpt lat="50.361059" lon="5.558160"><ele>154.603</ele><time>2022-09-18T14:48:42Z</time></trkpt><trkpt lat="50.361209" lon="5.558000"><ele>154.923</ele><time>2022-09-18T14:48:43Z</time></trkpt><trkpt lat="50.361365" lon="5.557855"><ele>155.409</ele><time>2022-09-18T14:48:44Z</time></trkpt><trkpt lat="50.361536" lon="5.557707"><ele>155.926</ele><time>2022-09-18T14:48:45Z</time></trkpt><trkpt lat="50.361698" lon="5.557575"><ele>156.146</ele><time>2022-09-18T14:48:46Z</time></trkpt><trkpt lat="50.361868" lon="5.557443"><ele>156.288</ele><time>2022-09-18T14:48:47Z</time></trkpt><trkpt lat="50.362045" lon="5.557342"><ele>156.374</ele><time>2022-09-18T14:48:48Z</time></trkpt><trkpt lat="50.362203" lon="5.557206"><ele>156.419</ele><time>2022-09-18T14:48:49Z</time></trkpt><trkpt lat="50.362370" lon="5.557077"><ele>156.464</ele><time>2022-09-18T14:48:50Z</time></trkpt><trkpt lat="50.362529" lon="5.556936"><ele>156.479</ele><time>2022-09-18T14:48:51Z</time></trkpt><trkpt lat="50.362680" lon="5.556788"><ele>156.353</ele><time>2022-09-18T14:48:52Z</time></trkpt><trkpt lat="50.362845" lon="5.556660"><ele>155.950</ele><time>2022-09-18T14:48:53Z</time></trkpt><trkpt lat="50.363021" lon="5.556523"><ele>155.421</ele><time>2022-09-18T14:48:54Z</time></trkpt><trkpt lat="50.363185" lon="5.556403"><ele>154.941</ele><time>2022-09-18T14:48:55Z</time></trkpt><trkpt lat="50.363341" lon="5.556306"><ele>154.405</ele><time>2022-09-18T14:48:56Z</time></trkpt><trkpt lat="50.363484" lon="5.556162"><ele>153.909</ele><time>2022-09-18T14:48:57Z</time></trkpt><trkpt lat="50.363636" lon="5.556060"><ele>153.483</ele><time>2022-09-18T14:48:58Z</time></trkpt><trkpt lat="50.363789" lon="5.556012"><ele>152.943</ele><time>2022-09-18T14:48:59Z</time></trkpt><trkpt lat="50.363959" lon="5.555921"><ele>152.545</ele><time>2022-09-18T14:49:00Z</time></trkpt><trkpt lat="50.364134" lon="5.555842"><ele>152.381</ele><time>2022-09-18T14:49:01Z</time></trkpt><trkpt lat="50.364303" lon="5.555751"><ele>152.236</ele><time>2022-09-18T14:49:02Z</time></trkpt><trkpt lat="50.364468" lon="5.555682"><ele>152.371</ele><time>2022-09-18T14:49:03Z</time></trkpt><trkpt lat="50.364647" lon="5.555625"><ele>152.646</ele><time>2022-09-18T14:49:04Z</time></trkpt><trkpt lat="50.364819" lon="5.555588"><ele>152.950</ele><time>2022-09-18T14:49:05Z</time></trkpt><trkpt lat="50.364979" lon="5.555533"><ele>153.217</ele><time>2022-09-18T14:49:06Z</time></trkpt><trkpt lat="50.365133" lon="5.555513"><ele>153.423</ele><time>2022-09-18T14:49:07Z</time></trkpt><trkpt lat="50.365281" lon="5.555488"><ele>153.483</ele><time>2022-09-18T14:49:08Z</time></trkpt><trkpt lat="50.365441" lon="5.555422"><ele>153.211</ele><time>2022-09-18T14:49:09Z</time></trkpt><trkpt lat="50.365606" lon="5.555351"><ele>152.909</ele><time>2022-09-18T14:49:10Z</time></trkpt><trkpt lat="50.365787" lon="5.555227"><ele>152.683</ele><time>2022-09-18T14:49:11Z</time></trkpt><trkpt lat="50.365947" lon="5.555107"><ele>152.453</ele><time>2022-09-18T14:49:12Z</time></trkpt><trkpt lat="50.366107" lon="5.554970"><ele>152.455</ele><time>2022-09-18T14:49:13Z</time></trkpt><trkpt lat="50.366229" lon="5.554800"><ele>152.351</ele><time>2022-09-18T14:49:14Z</time></trkpt><trkpt lat="50.366366" lon="5.554700"><ele>152.246</ele><time>2022-09-18T14:49:15Z</time></trkpt><trkpt lat="50.366484" lon="5.554549"><ele>152.241</ele><time>2022-09-18T14:49:16Z</time></trkpt><trkpt lat="50.366621" lon="5.554438"><ele>152.146</ele><time>2022-09-18T14:49:17Z</time></trkpt><trkpt lat="50.366754" lon="5.554322"><ele>151.880</ele><time>2022-09-18T14:49:18Z</time></trkpt><trkpt lat="50.366889" lon="5.554218"><ele>151.587</ele><time>2022-09-18T14:49:19Z</time></trkpt><trkpt lat="50.367031" lon="5.554125"><ele>151.399</ele><time>2022-09-18T14:49:20Z</time></trkpt><trkpt lat="50.367168" lon="5.554038"><ele>151.107</ele><time>2022-09-18T14:49:21Z</time></trkpt><trkpt lat="50.367315" lon="5.553984"><ele>151.027</ele><time>2022-09-18T14:49:22Z</time></trkpt><trkpt lat="50.367474" lon="5.553935"><ele>151.009</ele><time>2022-09-18T14:49:23Z</time></trkpt><trkpt lat="50.367669" lon="5.553858"><ele>151.010</ele><time>2022-09-18T14:49:24Z</time></trkpt><trkpt lat="50.367845" lon="5.553779"><ele>150.930</ele><time>2022-09-18T14:49:25Z</time></trkpt><trkpt lat="50.368006" lon="5.553678"><ele>150.862</ele><time>2022-09-18T14:49:26Z</time></trkpt><trkpt lat="50.368151" lon="5.553534"><ele>150.628</ele><time>2022-09-18T14:49:27Z</time></trkpt><trkpt lat="50.368314" lon="5.553422"><ele>150.443</ele><time>2022-09-18T14:49:28Z</time></trkpt><trkpt lat="50.368438" lon="5.553281"><ele>150.348</ele><time>2022-09-18T14:49:29Z</time></trkpt><trkpt lat="50.368521" lon="5.553089"><ele>150.463</ele><time>2022-09-18T14:49:30Z</time></trkpt><trkpt lat="50.368634" lon="5.552859"><ele>150.537</ele><time>2022-09-18T14:49:31Z</time></trkpt><trkpt lat="50.368751" lon="5.552611"><ele>150.434</ele><time>2022-09-18T14:49:32Z</time></trkpt><trkpt lat="50.368833" lon="5.552353"><ele>150.262</ele><time>2022-09-18T14:49:33Z</time></trkpt><trkpt lat="50.368926" lon="5.552095"><ele>149.983</ele><time>2022-09-18T14:49:34Z</time></trkpt><trkpt lat="50.368966" lon="5.551835"><ele>149.511</ele><time>2022-09-18T14:49:35Z</time></trkpt><trkpt lat="50.369044" lon="5.551571"><ele>149.209</ele><time>2022-09-18T14:49:36Z</time></trkpt><trkpt lat="50.369101" lon="5.551328"><ele>149.127</ele><time>2022-09-18T14:49:37Z</time></trkpt><trkpt lat="50.369155" lon="5.551092"><ele>149.197</ele><time>2022-09-18T14:49:38Z</time></trkpt><trkpt lat="50.369213" lon="5.550841"><ele>149.129</ele><time>2022-09-18T14:49:39Z</time></trkpt><trkpt lat="50.369263" lon="5.550623"><ele>149.115</ele><time>2022-09-18T14:49:40Z</time></trkpt><trkpt lat="50.369311" lon="5.550413"><ele>149.160</ele><time>2022-09-18T14:49:41Z</time></trkpt><trkpt lat="50.369354" lon="5.550229"><ele>149.175</ele><time>2022-09-18T14:49:42Z</time></trkpt><trkpt lat="50.369412" lon="5.549980"><ele>148.730</ele><time>2022-09-18T14:49:43Z</time></trkpt><trkpt lat="50.369439" lon="5.549751"><ele>148.414</ele><time>2022-09-18T14:49:44Z</time></trkpt><trkpt lat="50.369441" lon="5.549560"><ele>148.051</ele><time>2022-09-18T14:49:45Z</time></trkpt><trkpt lat="50.369437" lon="5.549356"><ele>147.887</ele><time>2022-09-18T14:49:46Z</time></trkpt><trkpt lat="50.369433" lon="5.549150"><ele>147.342</ele><time>2022-09-18T14:49:47Z</time></trkpt><trkpt lat="50.369428" lon="5.548924"><ele>146.826</ele><time>2022-09-18T14:49:48Z</time></trkpt><trkpt lat="50.369438" lon="5.548707"><ele>146.509</ele><time>2022-09-18T14:49:49Z</time></trkpt><trkpt lat="50.369451" lon="5.548533"><ele>146.359</ele><time>2022-09-18T14:49:50Z</time></trkpt><trkpt lat="50.369469" lon="5.548321"><ele>146.149</ele><time>2022-09-18T14:49:51Z</time></trkpt><trkpt lat="50.369489" lon="5.548176"><ele>146.031</ele><time>2022-09-18T14:49:52Z</time></trkpt><trkpt lat="50.369504" lon="5.548062"><ele>145.857</ele><time>2022-09-18T14:49:53Z</time></trkpt><trkpt lat="50.369519" lon="5.547950"><ele>145.782</ele><time>2022-09-18T14:49:54Z</time></trkpt><trkpt lat="50.369534" lon="5.547838"><ele>145.567</ele><time>2022-09-18T14:49:55Z</time></trkpt><trkpt lat="50.369548" lon="5.547732"><ele>145.172</ele><time>2022-09-18T14:49:56Z</time></trkpt><trkpt lat="50.369557" lon="5.547662"><ele>144.836</ele><time>2022-09-18T14:49:57Z</time></trkpt><trkpt lat="50.369606" lon="5.547617"><ele>144.413</ele><time>2022-09-18T14:49:58Z</time></trkpt><trkpt lat="50.369695" lon="5.547606"><ele>144.124</ele><time>2022-09-18T14:49:59Z</time></trkpt><trkpt lat="50.369787" lon="5.547609"><ele>143.904</ele><time>2022-09-18T14:50:00Z</time></trkpt><trkpt lat="50.369887" lon="5.547605"><ele>143.914</ele><time>2022-09-18T14:50:01Z</time></trkpt><trkpt lat="50.369995" lon="5.547628"><ele>144.309</ele><time>2022-09-18T14:50:02Z</time></trkpt><trkpt lat="50.370110" lon="5.547661"><ele>144.923</ele><time>2022-09-18T14:50:03Z</time></trkpt><trkpt lat="50.370222" lon="5.547672"><ele>145.943</ele><time>2022-09-18T14:50:04Z</time></trkpt><trkpt lat="50.370327" lon="5.547705"><ele>147.235</ele><time>2022-09-18T14:50:05Z</time></trkpt><trkpt lat="50.370430" lon="5.547706"><ele>148.421</ele><time>2022-09-18T14:50:06Z</time></trkpt><trkpt lat="50.370522" lon="5.547704"><ele>149.796</ele><time>2022-09-18T14:50:07Z</time></trkpt><trkpt lat="50.370620" lon="5.547712"><ele>151.071</ele><time>2022-09-18T14:50:08Z</time></trkpt><trkpt lat="50.370751" lon="5.547735"><ele>152.386</ele><time>2022-09-18T14:50:09Z</time></trkpt><trkpt lat="50.370896" lon="5.547735"><ele>154.380</ele><time>2022-09-18T14:50:10Z</time></trkpt><trkpt lat="50.371000" lon="5.547722"><ele>155.087</ele><time>2022-09-18T14:50:11Z</time></trkpt><trkpt lat="50.371103" lon="5.547723"><ele>156.297</ele><time>2022-09-18T14:50:12Z</time></trkpt><trkpt lat="50.371198" lon="5.547740"><ele>157.623</ele><time>2022-09-18T14:50:13Z</time></trkpt><trkpt lat="50.371276" lon="5.547748"><ele>159.025</ele><time>2022-09-18T14:50:14Z</time></trkpt><trkpt lat="50.371324" lon="5.547736"><ele>159.609</ele><time>2022-09-18T14:50:15Z</time></trkpt><trkpt lat="50.371487" lon="5.547798"><ele>161.440</ele><time>2022-09-18T14:50:17Z</time></trkpt><trkpt lat="50.371416" lon="5.547965"><ele>164.270</ele><time>2022-09-18T14:50:18Z</time></trkpt><trkpt lat="50.371367" lon="5.547949"><ele>164.612</ele><time>2022-09-18T14:50:19Z</time></trkpt><trkpt lat="50.371301" lon="5.547986"><ele>165.038</ele><time>2022-09-18T14:50:20Z</time></trkpt><trkpt lat="50.371236" lon="5.548052"><ele>165.973</ele><time>2022-09-18T14:50:21Z</time></trkpt><trkpt lat="50.371166" lon="5.548153"><ele>166.918</ele><time>2022-09-18T14:50:22Z</time></trkpt><trkpt lat="50.371100" lon="5.548305"><ele>168.463</ele><time>2022-09-18T14:50:23Z</time></trkpt><trkpt lat="50.371201" lon="5.548074"><ele>170.237</ele><time>2022-09-18T14:50:24Z</time></trkpt><trkpt lat="50.371127" lon="5.548275"><ele>171.684</ele><time>2022-09-18T14:50:25Z</time></trkpt><trkpt lat="50.371040" lon="5.548531"><ele>173.059</ele><time>2022-09-18T14:50:26Z</time></trkpt><trkpt lat="50.370969" lon="5.548756"><ele>174.503</ele><time>2022-09-18T14:50:27Z</time></trkpt><trkpt lat="50.370904" lon="5.548951"><ele>176.023</ele><time>2022-09-18T14:50:28Z</time></trkpt><trkpt lat="50.370839" lon="5.549131"><ele>177.509</ele><time>2022-09-18T14:50:29Z</time></trkpt><trkpt lat="50.370779" lon="5.549275"><ele>178.256</ele><time>2022-09-18T14:50:30Z</time></trkpt><trkpt lat="50.370713" lon="5.549406"><ele>179.736</ele><time>2022-09-18T14:50:31Z</time></trkpt><trkpt lat="50.370635" lon="5.549553"><ele>181.298</ele><time>2022-09-18T14:50:32Z</time></trkpt><trkpt lat="50.370557" lon="5.549690"><ele>182.764</ele><time>2022-09-18T14:50:33Z</time></trkpt><trkpt lat="50.370470" lon="5.549934"><ele>185.199</ele><time>2022-09-18T14:50:34Z</time></trkpt><trkpt lat="50.370378" lon="5.550142"><ele>186.654</ele><time>2022-09-18T14:50:35Z</time></trkpt><trkpt lat="50.370300" lon="5.550372"><ele>188.159</ele><time>2022-09-18T14:50:36Z</time></trkpt><trkpt lat="50.370258" lon="5.550598"><ele>189.743</ele><time>2022-09-18T14:50:37Z</time></trkpt><trkpt lat="50.370222" lon="5.550857"><ele>191.560</ele><time>2022-09-18T14:50:38Z</time></trkpt><trkpt lat="50.370154" lon="5.551110"><ele>193.278</ele><time>2022-09-18T14:50:39Z</time></trkpt><trkpt lat="50.370101" lon="5.551316"><ele>195.033</ele><time>2022-09-18T14:50:40Z</time></trkpt><trkpt lat="50.370066" lon="5.551531"><ele>196.826</ele><time>2022-09-18T14:50:41Z</time></trkpt><trkpt lat="50.370023" lon="5.551718"><ele>197.709</ele><time>2022-09-18T14:50:42Z</time></trkpt><trkpt lat="50.369980" lon="5.551936"><ele>200.378</ele><time>2022-09-18T14:50:43Z</time></trkpt><trkpt lat="50.369940" lon="5.552126"><ele>202.148</ele><time>2022-09-18T14:50:44Z</time></trkpt><trkpt lat="50.369945" lon="5.552341"><ele>203.030</ele><time>2022-09-18T14:50:45Z</time></trkpt><trkpt lat="50.369961" lon="5.552534"><ele>204.716</ele><time>2022-09-18T14:50:46Z</time></trkpt><trkpt lat="50.369979" lon="5.552710"><ele>206.471</ele><time>2022-09-18T14:50:47Z</time></trkpt><trkpt lat="50.370120" lon="5.552783"><ele>208.216</ele><time>2022-09-18T14:50:48Z</time></trkpt><trkpt lat="50.370195" lon="5.552919"><ele>210.031</ele><time>2022-09-18T14:50:49Z</time></trkpt><trkpt lat="50.370280" lon="5.553040"><ele>211.615</ele><time>2022-09-18T14:50:50Z</time></trkpt><trkpt lat="50.370356" lon="5.553173"><ele>213.142</ele><time>2022-09-18T14:50:51Z</time></trkpt><trkpt lat="50.370439" lon="5.553299"><ele>214.498</ele><time>2022-09-18T14:50:52Z</time></trkpt><trkpt lat="50.370522" lon="5.553428"><ele>215.715</ele><time>2022-09-18T14:50:53Z</time></trkpt><trkpt lat="50.370613" lon="5.553547"><ele>217.126</ele><time>2022-09-18T14:50:54Z</time></trkpt><trkpt lat="50.370706" lon="5.553654"><ele>218.509</ele><time>2022-09-18T14:50:55Z</time></trkpt><trkpt lat="50.370833" lon="5.553736"><ele>220.010</ele><time>2022-09-18T14:50:56Z</time></trkpt><trkpt lat="50.370991" lon="5.553844"><ele>222.040</ele><time>2022-09-18T14:50:57Z</time></trkpt><trkpt lat="50.371154" lon="5.553915"><ele>223.172</ele><time>2022-09-18T14:50:58Z</time></trkpt><trkpt lat="50.371289" lon="5.553977"><ele>224.188</ele><time>2022-09-18T14:50:59Z</time></trkpt><trkpt lat="50.371415" lon="5.554067"><ele>225.043</ele><time>2022-09-18T14:51:00Z</time></trkpt><trkpt lat="50.371509" lon="5.554203"><ele>225.468</ele><time>2022-09-18T14:51:01Z</time></trkpt><trkpt lat="50.371651" lon="5.554342"><ele>227.173</ele><time>2022-09-18T14:51:02Z</time></trkpt><trkpt lat="50.371776" lon="5.554431"><ele>228.377</ele><time>2022-09-18T14:51:03Z</time></trkpt><trkpt lat="50.371904" lon="5.554465"><ele>228.974</ele><time>2022-09-18T14:51:04Z</time></trkpt><trkpt lat="50.372034" lon="5.554474"><ele>230.272</ele><time>2022-09-18T14:51:05Z</time></trkpt><trkpt lat="50.372162" lon="5.554477"><ele>231.413</ele><time>2022-09-18T14:51:06Z</time></trkpt><trkpt lat="50.372293" lon="5.554481"><ele>232.314</ele><time>2022-09-18T14:51:07Z</time></trkpt><trkpt lat="50.372401" lon="5.554490"><ele>233.109</ele><time>2022-09-18T14:51:08Z</time></trkpt><trkpt lat="50.372480" lon="5.554500"><ele>234.058</ele><time>2022-09-18T14:51:09Z</time></trkpt><trkpt lat="50.372596" lon="5.554520"><ele>234.618</ele><time>2022-09-18T14:51:10Z</time></trkpt><trkpt lat="50.372718" lon="5.554541"><ele>235.320</ele><time>2022-09-18T14:51:11Z</time></trkpt><trkpt lat="50.372831" lon="5.554561"><ele>236.036</ele><time>2022-09-18T14:51:12Z</time></trkpt><trkpt lat="50.373020" lon="5.554595"><ele>237.251</ele><time>2022-09-18T14:51:13Z</time></trkpt><trkpt lat="50.373161" lon="5.554622"><ele>237.826</ele><time>2022-09-18T14:51:14Z</time></trkpt><trkpt lat="50.373325" lon="5.554653"><ele>238.211</ele><time>2022-09-18T14:51:15Z</time></trkpt><trkpt lat="50.373454" lon="5.554677"><ele>238.635</ele><time>2022-09-18T14:51:16Z</time></trkpt><trkpt lat="50.373598" lon="5.554704"><ele>239.012</ele><time>2022-09-18T14:51:17Z</time></trkpt><trkpt lat="50.373750" lon="5.554733"><ele>239.346</ele><time>2022-09-18T14:51:18Z</time></trkpt><trkpt lat="50.373869" lon="5.554757"><ele>239.588</ele><time>2022-09-18T14:51:19Z</time></trkpt><trkpt lat="50.373986" lon="5.554802"><ele>239.616</ele><time>2022-09-18T14:51:20Z</time></trkpt><trkpt lat="50.374102" lon="5.554862"><ele>239.809</ele><time>2022-09-18T14:51:21Z</time></trkpt><trkpt lat="50.374160" lon="5.554917"><ele>239.925</ele><time>2022-09-18T14:51:22Z</time></trkpt><trkpt lat="50.374300" lon="5.554972"><ele>240.195</ele><time>2022-09-18T14:51:23Z</time></trkpt><trkpt lat="50.374412" lon="5.555093"><ele>240.757</ele><time>2022-09-18T14:51:24Z</time></trkpt><trkpt lat="50.374542" lon="5.555242"><ele>241.223</ele><time>2022-09-18T14:51:25Z</time></trkpt><trkpt lat="50.374667" lon="5.555346"><ele>241.758</ele><time>2022-09-18T14:51:26Z</time></trkpt><trkpt lat="50.374794" lon="5.555440"><ele>242.373</ele><time>2022-09-18T14:51:27Z</time></trkpt><trkpt lat="50.374923" lon="5.555539"><ele>243.048</ele><time>2022-09-18T14:51:28Z</time></trkpt><trkpt lat="50.375056" lon="5.555649"><ele>243.882</ele><time>2022-09-18T14:51:29Z</time></trkpt><trkpt lat="50.375174" lon="5.555756"><ele>244.719</ele><time>2022-09-18T14:51:30Z</time></trkpt><trkpt lat="50.375286" lon="5.555859"><ele>245.242</ele><time>2022-09-18T14:51:31Z</time></trkpt><trkpt lat="50.375425" lon="5.555968"><ele>246.522</ele><time>2022-09-18T14:51:32Z</time></trkpt><trkpt lat="50.375551" lon="5.556073"><ele>247.214</ele><time>2022-09-18T14:51:33Z</time></trkpt><trkpt lat="50.375691" lon="5.556156"><ele>247.809</ele><time>2022-09-18T14:51:34Z</time></trkpt><trkpt lat="50.375827" lon="5.556294"><ele>248.255</ele><time>2022-09-18T14:51:35Z</time></trkpt><trkpt lat="50.375976" lon="5.556401"><ele>248.535</ele><time>2022-09-18T14:51:36Z</time></trkpt><trkpt lat="50.376094" lon="5.556510"><ele>248.767</ele><time>2022-09-18T14:51:37Z</time></trkpt><trkpt lat="50.376224" lon="5.556609"><ele>248.833</ele><time>2022-09-18T14:51:38Z</time></trkpt><trkpt lat="50.376362" lon="5.556710"><ele>248.798</ele><time>2022-09-18T14:51:39Z</time></trkpt><trkpt lat="50.376486" lon="5.556822"><ele>248.673</ele><time>2022-09-18T14:51:40Z</time></trkpt><trkpt lat="50.376616" lon="5.556948"><ele>248.698</ele><time>2022-09-18T14:51:41Z</time></trkpt><trkpt lat="50.376740" lon="5.557087"><ele>248.682</ele><time>2022-09-18T14:51:42Z</time></trkpt><trkpt lat="50.376864" lon="5.557248"><ele>248.839</ele><time>2022-09-18T14:51:43Z</time></trkpt><trkpt lat="50.376942" lon="5.557488"><ele>249.178</ele><time>2022-09-18T14:51:44Z</time></trkpt><trkpt lat="50.377043" lon="5.557642"><ele>249.533</ele><time>2022-09-18T14:51:45Z</time></trkpt><trkpt lat="50.377126" lon="5.557770"><ele>249.726</ele><time>2022-09-18T14:51:46Z</time></trkpt><trkpt lat="50.377195" lon="5.557885"><ele>249.909</ele><time>2022-09-18T14:51:47Z</time></trkpt><trkpt lat="50.377236" lon="5.558013"><ele>249.958</ele><time>2022-09-18T14:51:48Z</time></trkpt><trkpt lat="50.377278" lon="5.558133"><ele>249.838</ele><time>2022-09-18T14:51:49Z</time></trkpt><trkpt lat="50.377286" lon="5.558300"><ele>249.860</ele><time>2022-09-18T14:51:50Z</time></trkpt><trkpt lat="50.377268" lon="5.558460"><ele>249.866</ele><time>2022-09-18T14:51:51Z</time></trkpt><trkpt lat="50.377205" lon="5.558604"><ele>249.971</ele><time>2022-09-18T14:51:52Z</time></trkpt><trkpt lat="50.377101" lon="5.558712"><ele>250.226</ele><time>2022-09-18T14:51:53Z</time></trkpt><trkpt lat="50.377002" lon="5.558939"><ele>250.761</ele><time>2022-09-18T14:51:54Z</time></trkpt><trkpt lat="50.376966" lon="5.559129"><ele>250.975</ele><time>2022-09-18T14:51:55Z</time></trkpt><trkpt lat="50.376940" lon="5.559303"><ele>251.082</ele><time>2022-09-18T14:51:56Z</time></trkpt><trkpt lat="50.376920" lon="5.559438"><ele>251.342</ele><time>2022-09-18T14:51:57Z</time></trkpt><trkpt lat="50.377119" lon="5.559539"><ele>252.022</ele><time>2022-09-18T14:51:58Z</time></trkpt><trkpt lat="50.377226" lon="5.559611"><ele>252.714</ele><time>2022-09-18T14:51:59Z</time></trkpt><trkpt lat="50.377338" lon="5.559698"><ele>253.109</ele><time>2022-09-18T14:52:00Z</time></trkpt><trkpt lat="50.377453" lon="5.559858"><ele>254.275</ele><time>2022-09-18T14:52:01Z</time></trkpt><trkpt lat="50.377595" lon="5.560036"><ele>254.895</ele><time>2022-09-18T14:52:02Z</time></trkpt><trkpt lat="50.377717" lon="5.560234"><ele>255.197</ele><time>2022-09-18T14:52:03Z</time></trkpt><trkpt lat="50.377835" lon="5.560415"><ele>255.253</ele><time>2022-09-18T14:52:04Z</time></trkpt><trkpt lat="50.377942" lon="5.560602"><ele>255.368</ele><time>2022-09-18T14:52:05Z</time></trkpt><trkpt lat="50.378044" lon="5.560800"><ele>255.473</ele><time>2022-09-18T14:52:06Z</time></trkpt><trkpt lat="50.378141" lon="5.561003"><ele>255.448</ele><time>2022-09-18T14:52:07Z</time></trkpt><trkpt lat="50.378242" lon="5.561203"><ele>255.452</ele><time>2022-09-18T14:52:08Z</time></trkpt><trkpt lat="50.378340" lon="5.561413"><ele>255.389</ele><time>2022-09-18T14:52:09Z</time></trkpt><trkpt lat="50.378441" lon="5.561625"><ele>255.176</ele><time>2022-09-18T14:52:10Z</time></trkpt><trkpt lat="50.378550" lon="5.561828"><ele>254.990</ele><time>2022-09-18T14:52:11Z</time></trkpt><trkpt lat="50.378648" lon="5.562027"><ele>254.619</ele><time>2022-09-18T14:52:12Z</time></trkpt><trkpt lat="50.378742" lon="5.562230"><ele>254.309</ele><time>2022-09-18T14:52:13Z</time></trkpt><trkpt lat="50.378831" lon="5.562424"><ele>254.218</ele><time>2022-09-18T14:52:14Z</time></trkpt><trkpt lat="50.378908" lon="5.562644"><ele>254.178</ele><time>2022-09-18T14:52:15Z</time></trkpt><trkpt lat="50.378993" lon="5.562845"><ele>254.020</ele><time>2022-09-18T14:52:16Z</time></trkpt><trkpt lat="50.379073" lon="5.563078"><ele>254.186</ele><time>2022-09-18T14:52:17Z</time></trkpt><trkpt lat="50.379137" lon="5.563308"><ele>254.491</ele><time>2022-09-18T14:52:18Z</time></trkpt><trkpt lat="50.379196" lon="5.563544"><ele>254.716</ele><time>2022-09-18T14:52:19Z</time></trkpt><trkpt lat="50.379252" lon="5.563771"><ele>254.951</ele><time>2022-09-18T14:52:20Z</time></trkpt><trkpt lat="50.379313" lon="5.563961"><ele>255.195</ele><time>2022-09-18T14:52:21Z</time></trkpt><trkpt lat="50.379381" lon="5.564175"><ele>255.332</ele><time>2022-09-18T14:52:22Z</time></trkpt><trkpt lat="50.379445" lon="5.564348"><ele>255.643</ele><time>2022-09-18T14:52:23Z</time></trkpt><trkpt lat="50.379518" lon="5.564521"><ele>255.864</ele><time>2022-09-18T14:52:24Z</time></trkpt><trkpt lat="50.379601" lon="5.564699"><ele>256.410</ele><time>2022-09-18T14:52:25Z</time></trkpt><trkpt lat="50.379718" lon="5.564892"><ele>257.009</ele><time>2022-09-18T14:52:26Z</time></trkpt><trkpt lat="50.379813" lon="5.565082"><ele>257.775</ele><time>2022-09-18T14:52:27Z</time></trkpt><trkpt lat="50.379933" lon="5.565247"><ele>258.435</ele><time>2022-09-18T14:52:28Z</time></trkpt><trkpt lat="50.380072" lon="5.565424"><ele>259.147</ele><time>2022-09-18T14:52:29Z</time></trkpt><trkpt lat="50.380216" lon="5.565590"><ele>259.823</ele><time>2022-09-18T14:52:30Z</time></trkpt><trkpt lat="50.380364" lon="5.565754"><ele>260.478</ele><time>2022-09-18T14:52:31Z</time></trkpt><trkpt lat="50.380505" lon="5.565939"><ele>260.843</ele><time>2022-09-18T14:52:32Z</time></trkpt><trkpt lat="50.380637" lon="5.566104"><ele>261.158</ele><time>2022-09-18T14:52:33Z</time></trkpt><trkpt lat="50.380779" lon="5.566284"><ele>261.472</ele><time>2022-09-18T14:52:34Z</time></trkpt><trkpt lat="50.380909" lon="5.566452"><ele>261.699</ele><time>2022-09-18T14:52:35Z</time></trkpt><trkpt lat="50.381043" lon="5.566618"><ele>261.862</ele><time>2022-09-18T14:52:36Z</time></trkpt><trkpt lat="50.381173" lon="5.566780"><ele>261.983</ele><time>2022-09-18T14:52:37Z</time></trkpt><trkpt lat="50.381305" lon="5.566944"><ele>261.911</ele><time>2022-09-18T14:52:38Z</time></trkpt><trkpt lat="50.381416" lon="5.567110"><ele>261.909</ele><time>2022-09-18T14:52:39Z</time></trkpt><trkpt lat="50.381546" lon="5.567287"><ele>261.977</ele><time>2022-09-18T14:52:40Z</time></trkpt><trkpt lat="50.381672" lon="5.567462"><ele>261.897</ele><time>2022-09-18T14:52:41Z</time></trkpt><trkpt lat="50.381791" lon="5.567629"><ele>261.729</ele><time>2022-09-18T14:52:42Z</time></trkpt><trkpt lat="50.381920" lon="5.567801"><ele>261.735</ele><time>2022-09-18T14:52:43Z</time></trkpt><trkpt lat="50.382046" lon="5.567977"><ele>261.720</ele><time>2022-09-18T14:52:44Z</time></trkpt><trkpt lat="50.382167" lon="5.568164"><ele>261.815</ele><time>2022-09-18T14:52:45Z</time></trkpt><trkpt lat="50.382298" lon="5.568349"><ele>261.990</ele><time>2022-09-18T14:52:46Z</time></trkpt><trkpt lat="50.382421" lon="5.568523"><ele>262.094</ele><time>2022-09-18T14:52:47Z</time></trkpt><trkpt lat="50.382545" lon="5.568697"><ele>262.211</ele><time>2022-09-18T14:52:48Z</time></trkpt><trkpt lat="50.382671" lon="5.568859"><ele>262.322</ele><time>2022-09-18T14:52:49Z</time></trkpt><trkpt lat="50.382793" lon="5.569018"><ele>262.462</ele><time>2022-09-18T14:52:50Z</time></trkpt><trkpt lat="50.382915" lon="5.569182"><ele>262.408</ele><time>2022-09-18T14:52:51Z</time></trkpt><trkpt lat="50.383036" lon="5.569338"><ele>262.309</ele><time>2022-09-18T14:52:52Z</time></trkpt><trkpt lat="50.383129" lon="5.569476"><ele>262.293</ele><time>2022-09-18T14:52:53Z</time></trkpt><trkpt lat="50.383243" lon="5.569613"><ele>262.053</ele><time>2022-09-18T14:52:54Z</time></trkpt><trkpt lat="50.383343" lon="5.569729"><ele>261.985</ele><time>2022-09-18T14:52:55Z</time></trkpt><trkpt lat="50.383423" lon="5.569886"><ele>261.791</ele><time>2022-09-18T14:52:56Z</time></trkpt><trkpt lat="50.383512" lon="5.570016"><ele>261.546</ele><time>2022-09-18T14:52:57Z</time></trkpt><trkpt lat="50.383597" lon="5.570141"><ele>261.371</ele><time>2022-09-18T14:52:58Z</time></trkpt><trkpt lat="50.383672" lon="5.570250"><ele>261.216</ele><time>2022-09-18T14:52:59Z</time></trkpt><trkpt lat="50.383745" lon="5.570366"><ele>261.160</ele><time>2022-09-18T14:53:00Z</time></trkpt><trkpt lat="50.383809" lon="5.570473"><ele>261.127</ele><time>2022-09-18T14:53:01Z</time></trkpt><trkpt lat="50.383863" lon="5.570563"><ele>261.128</ele><time>2022-09-18T14:53:02Z</time></trkpt><trkpt lat="50.383916" lon="5.570651"><ele>261.189</ele><time>2022-09-18T14:53:03Z</time></trkpt><trkpt lat="50.383949" lon="5.570705"><ele>261.017</ele><time>2022-09-18T14:53:04Z</time></trkpt><trkpt lat="50.383996" lon="5.570755"><ele>260.909</ele><time>2022-09-18T14:53:05Z</time></trkpt><trkpt lat="50.384043" lon="5.570793"><ele>260.713</ele><time>2022-09-18T14:53:06Z</time></trkpt><trkpt lat="50.384097" lon="5.570537"><ele>260.313</ele><time>2022-09-18T14:53:10Z</time></trkpt><trkpt lat="50.384092" lon="5.570429"><ele>259.785</ele><time>2022-09-18T14:53:11Z</time></trkpt><trkpt lat="50.384071" lon="5.570257"><ele>259.741</ele><time>2022-09-18T14:53:12Z</time></trkpt><trkpt lat="50.384060" lon="5.570045"><ele>259.896</ele><time>2022-09-18T14:53:13Z</time></trkpt><trkpt lat="50.384059" lon="5.569794"><ele>260.351</ele><time>2022-09-18T14:53:14Z</time></trkpt><trkpt lat="50.384060" lon="5.569538"><ele>260.656</ele><time>2022-09-18T14:53:15Z</time></trkpt><trkpt lat="50.384056" lon="5.569303"><ele>260.720</ele><time>2022-09-18T14:53:16Z</time></trkpt><trkpt lat="50.384050" lon="5.569047"><ele>260.737</ele><time>2022-09-18T14:53:17Z</time></trkpt><trkpt lat="50.384051" lon="5.568797"><ele>260.536</ele><time>2022-09-18T14:53:18Z</time></trkpt><trkpt lat="50.384053" lon="5.568553"><ele>260.117</ele><time>2022-09-18T14:53:19Z</time></trkpt><trkpt lat="50.384055" lon="5.568305"><ele>259.618</ele><time>2022-09-18T14:53:20Z</time></trkpt><trkpt lat="50.384066" lon="5.568058"><ele>259.109</ele><time>2022-09-18T14:53:21Z</time></trkpt><trkpt lat="50.384078" lon="5.567785"><ele>258.634</ele><time>2022-09-18T14:53:22Z</time></trkpt><trkpt lat="50.384102" lon="5.567520"><ele>258.184</ele><time>2022-09-18T14:53:23Z</time></trkpt><trkpt lat="50.384116" lon="5.567267"><ele>257.636</ele><time>2022-09-18T14:53:24Z</time></trkpt><trkpt lat="50.384143" lon="5.567016"><ele>257.092</ele><time>2022-09-18T14:53:25Z</time></trkpt><trkpt lat="50.384168" lon="5.566749"><ele>256.337</ele><time>2022-09-18T14:53:26Z</time></trkpt><trkpt lat="50.384207" lon="5.566513"><ele>255.372</ele><time>2022-09-18T14:53:27Z</time></trkpt><trkpt lat="50.384238" lon="5.566261"><ele>254.157</ele><time>2022-09-18T14:53:28Z</time></trkpt><trkpt lat="50.384269" lon="5.566006"><ele>253.031</ele><time>2022-09-18T14:53:29Z</time></trkpt><trkpt lat="50.384299" lon="5.565752"><ele>251.718</ele><time>2022-09-18T14:53:30Z</time></trkpt><trkpt lat="50.384339" lon="5.565504"><ele>250.452</ele><time>2022-09-18T14:53:31Z</time></trkpt><trkpt lat="50.384392" lon="5.565242"><ele>249.453</ele><time>2022-09-18T14:53:32Z</time></trkpt><trkpt lat="50.384464" lon="5.564990"><ele>248.708</ele><time>2022-09-18T14:53:33Z</time></trkpt><trkpt lat="50.384566" lon="5.564768"><ele>248.109</ele><time>2022-09-18T14:53:34Z</time></trkpt><trkpt lat="50.384674" lon="5.564563"><ele>247.686</ele><time>2022-09-18T14:53:35Z</time></trkpt><trkpt lat="50.384771" lon="5.564350"><ele>247.296</ele><time>2022-09-18T14:53:36Z</time></trkpt><trkpt lat="50.384867" lon="5.564131"><ele>246.688</ele><time>2022-09-18T14:53:37Z</time></trkpt><trkpt lat="50.384962" lon="5.563885"><ele>245.764</ele><time>2022-09-18T14:53:38Z</time></trkpt><trkpt lat="50.385042" lon="5.563646"><ele>244.729</ele><time>2022-09-18T14:53:39Z</time></trkpt><trkpt lat="50.385112" lon="5.563407"><ele>243.624</ele><time>2022-09-18T14:53:40Z</time></trkpt><trkpt lat="50.385178" lon="5.563160"><ele>242.479</ele><time>2022-09-18T14:53:41Z</time></trkpt><trkpt lat="50.385230" lon="5.562911"><ele>241.213</ele><time>2022-09-18T14:53:42Z</time></trkpt><trkpt lat="50.385279" lon="5.562672"><ele>240.160</ele><time>2022-09-18T14:53:43Z</time></trkpt><trkpt lat="50.385313" lon="5.562451"><ele>239.097</ele><time>2022-09-18T14:53:44Z</time></trkpt><trkpt lat="50.385350" lon="5.562212"><ele>238.023</ele><time>2022-09-18T14:53:45Z</time></trkpt><trkpt lat="50.385391" lon="5.561965"><ele>237.125</ele><time>2022-09-18T14:53:46Z</time></trkpt><trkpt lat="50.385416" lon="5.561739"><ele>236.209</ele><time>2022-09-18T14:53:47Z</time></trkpt><trkpt lat="50.385441" lon="5.561495"><ele>235.450</ele><time>2022-09-18T14:53:48Z</time></trkpt><trkpt lat="50.385459" lon="5.561266"><ele>234.640</ele><time>2022-09-18T14:53:49Z</time></trkpt><trkpt lat="50.385470" lon="5.561015"><ele>233.922</ele><time>2022-09-18T14:53:50Z</time></trkpt><trkpt lat="50.385485" lon="5.560775"><ele>233.088</ele><time>2022-09-18T14:53:51Z</time></trkpt><trkpt lat="50.385503" lon="5.560547"><ele>232.133</ele><time>2022-09-18T14:53:52Z</time></trkpt><trkpt lat="50.385517" lon="5.560345"><ele>231.068</ele><time>2022-09-18T14:53:53Z</time></trkpt><trkpt lat="50.385532" lon="5.560149"><ele>230.313</ele><time>2022-09-18T14:53:54Z</time></trkpt><trkpt lat="50.385556" lon="5.559978"><ele>228.617</ele><time>2022-09-18T14:53:55Z</time></trkpt><trkpt lat="50.385573" lon="5.559846"><ele>227.484</ele><time>2022-09-18T14:53:56Z</time></trkpt><trkpt lat="50.385619" lon="5.559679"><ele>226.629</ele><time>2022-09-18T14:53:57Z</time></trkpt><trkpt lat="50.385708" lon="5.559570"><ele>225.700</ele><time>2022-09-18T14:53:58Z</time></trkpt><trkpt lat="50.385795" lon="5.559416"><ele>225.720</ele><time>2022-09-18T14:53:59Z</time></trkpt><trkpt lat="50.385883" lon="5.559266"><ele>225.509</ele><time>2022-09-18T14:54:00Z</time></trkpt><trkpt lat="50.385981" lon="5.559109"><ele>225.543</ele><time>2022-09-18T14:54:01Z</time></trkpt><trkpt lat="50.386090" lon="5.558952"><ele>225.563</ele><time>2022-09-18T14:54:02Z</time></trkpt><trkpt lat="50.386213" lon="5.558826"><ele>225.575</ele><time>2022-09-18T14:54:03Z</time></trkpt><trkpt lat="50.386335" lon="5.558700"><ele>225.451</ele><time>2022-09-18T14:54:04Z</time></trkpt><trkpt lat="50.386463" lon="5.558584"><ele>225.356</ele><time>2022-09-18T14:54:05Z</time></trkpt><trkpt lat="50.386608" lon="5.558462"><ele>225.181</ele><time>2022-09-18T14:54:06Z</time></trkpt><trkpt lat="50.386748" lon="5.558344"><ele>224.666</ele><time>2022-09-18T14:54:07Z</time></trkpt><trkpt lat="50.386878" lon="5.558208"><ele>224.060</ele><time>2022-09-18T14:54:08Z</time></trkpt><trkpt lat="50.387025" lon="5.558111"><ele>223.447</ele><time>2022-09-18T14:54:09Z</time></trkpt><trkpt lat="50.387166" lon="5.557992"><ele>222.936</ele><time>2022-09-18T14:54:10Z</time></trkpt><trkpt lat="50.387303" lon="5.557851"><ele>222.517</ele><time>2022-09-18T14:54:11Z</time></trkpt><trkpt lat="50.387442" lon="5.557740"><ele>222.318</ele><time>2022-09-18T14:54:12Z</time></trkpt><trkpt lat="50.387574" lon="5.557632"><ele>222.009</ele><time>2022-09-18T14:54:13Z</time></trkpt><trkpt lat="50.387698" lon="5.557524"><ele>221.674</ele><time>2022-09-18T14:54:14Z</time></trkpt><trkpt lat="50.387806" lon="5.557402"><ele>221.324</ele><time>2022-09-18T14:54:15Z</time></trkpt><trkpt lat="50.387917" lon="5.557272"><ele>220.896</ele><time>2022-09-18T14:54:16Z</time></trkpt><trkpt lat="50.388020" lon="5.557130"><ele>220.382</ele><time>2022-09-18T14:54:17Z</time></trkpt><trkpt lat="50.388115" lon="5.556991"><ele>220.167</ele><time>2022-09-18T14:54:18Z</time></trkpt><trkpt lat="50.388214" lon="5.556854"><ele>219.712</ele><time>2022-09-18T14:54:19Z</time></trkpt><trkpt lat="50.388305" lon="5.556715"><ele>219.697</ele><time>2022-09-18T14:54:20Z</time></trkpt><trkpt lat="50.388394" lon="5.556582"><ele>219.691</ele><time>2022-09-18T14:54:21Z</time></trkpt><trkpt lat="50.388486" lon="5.556421"><ele>219.678</ele><time>2022-09-18T14:54:22Z</time></trkpt><trkpt lat="50.388577" lon="5.556258"><ele>219.688</ele><time>2022-09-18T14:54:23Z</time></trkpt><trkpt lat="50.388661" lon="5.556091"><ele>219.624</ele><time>2022-09-18T14:54:24Z</time></trkpt><trkpt lat="50.388748" lon="5.555941"><ele>219.626</ele><time>2022-09-18T14:54:25Z</time></trkpt><trkpt lat="50.388838" lon="5.555796"><ele>219.309</ele><time>2022-09-18T14:54:26Z</time></trkpt><trkpt lat="50.388922" lon="5.555670"><ele>219.069</ele><time>2022-09-18T14:54:27Z</time></trkpt><trkpt lat="50.389012" lon="5.555549"><ele>218.579</ele><time>2022-09-18T14:54:28Z</time></trkpt><trkpt lat="50.389080" lon="5.555428"><ele>217.761</ele><time>2022-09-18T14:54:29Z</time></trkpt><trkpt lat="50.389153" lon="5.555357"><ele>217.247</ele><time>2022-09-18T14:54:30Z</time></trkpt><trkpt lat="50.389228" lon="5.555287"><ele>216.662</ele><time>2022-09-18T14:54:31Z</time></trkpt><trkpt lat="50.389287" lon="5.555196"><ele>216.587</ele><time>2022-09-18T14:54:32Z</time></trkpt><trkpt lat="50.389342" lon="5.555122"><ele>216.582</ele><time>2022-09-18T14:54:33Z</time></trkpt><trkpt lat="50.389402" lon="5.555041"><ele>216.526</ele><time>2022-09-18T14:54:34Z</time></trkpt><trkpt lat="50.389530" lon="5.555059"><ele>216.563</ele><time>2022-09-18T14:54:35Z</time></trkpt><trkpt lat="50.389611" lon="5.554988"><ele>216.528</ele><time>2022-09-18T14:54:36Z</time></trkpt><trkpt lat="50.389679" lon="5.554924"><ele>216.389</ele><time>2022-09-18T14:54:37Z</time></trkpt><trkpt lat="50.389753" lon="5.554856"><ele>216.117</ele><time>2022-09-18T14:54:38Z</time></trkpt><trkpt lat="50.389826" lon="5.554791"><ele>215.809</ele><time>2022-09-18T14:54:39Z</time></trkpt><trkpt lat="50.389907" lon="5.554722"><ele>215.523</ele><time>2022-09-18T14:54:40Z</time></trkpt><trkpt lat="50.389985" lon="5.554660"><ele>215.123</ele><time>2022-09-18T14:54:41Z</time></trkpt><trkpt lat="50.390067" lon="5.554588"><ele>214.545</ele><time>2022-09-18T14:54:42Z</time></trkpt><trkpt lat="50.390144" lon="5.554512"><ele>214.131</ele><time>2022-09-18T14:54:43Z</time></trkpt><trkpt lat="50.390229" lon="5.554437"><ele>213.716</ele><time>2022-09-18T14:54:44Z</time></trkpt><trkpt lat="50.390309" lon="5.554369"><ele>213.431</ele><time>2022-09-18T14:54:45Z</time></trkpt><trkpt lat="50.390385" lon="5.554302"><ele>213.096</ele><time>2022-09-18T14:54:46Z</time></trkpt><trkpt lat="50.390466" lon="5.554233"><ele>212.410</ele><time>2022-09-18T14:54:47Z</time></trkpt><trkpt lat="50.390547" lon="5.554182"><ele>212.157</ele><time>2022-09-18T14:54:48Z</time></trkpt><trkpt lat="50.390626" lon="5.554125"><ele>211.518</ele><time>2022-09-18T14:54:49Z</time></trkpt><trkpt lat="50.390721" lon="5.554052"><ele>210.598</ele><time>2022-09-18T14:54:50Z</time></trkpt><trkpt lat="50.390819" lon="5.553998"><ele>209.817</ele><time>2022-09-18T14:54:51Z</time></trkpt><trkpt lat="50.390906" lon="5.553945"><ele>209.209</ele><time>2022-09-18T14:54:52Z</time></trkpt><trkpt lat="50.390989" lon="5.553892"><ele>208.762</ele><time>2022-09-18T14:54:53Z</time></trkpt><trkpt lat="50.391071" lon="5.553834"><ele>208.282</ele><time>2022-09-18T14:54:54Z</time></trkpt><trkpt lat="50.391146" lon="5.553791"><ele>207.944</ele><time>2022-09-18T14:54:55Z</time></trkpt><trkpt lat="50.391230" lon="5.553760"><ele>207.470</ele><time>2022-09-18T14:54:56Z</time></trkpt><trkpt lat="50.391306" lon="5.553723"><ele>207.095</ele><time>2022-09-18T14:54:57Z</time></trkpt><trkpt lat="50.391396" lon="5.553665"><ele>206.620</ele><time>2022-09-18T14:54:58Z</time></trkpt><trkpt lat="50.391477" lon="5.553609"><ele>206.145</ele><time>2022-09-18T14:54:59Z</time></trkpt><trkpt lat="50.391574" lon="5.553561"><ele>205.499</ele><time>2022-09-18T14:55:00Z</time></trkpt><trkpt lat="50.391669" lon="5.553523"><ele>204.626</ele><time>2022-09-18T14:55:01Z</time></trkpt><trkpt lat="50.391747" lon="5.553464"><ele>203.855</ele><time>2022-09-18T14:55:02Z</time></trkpt><trkpt lat="50.391830" lon="5.553386"><ele>202.707</ele><time>2022-09-18T14:55:03Z</time></trkpt><trkpt lat="50.391895" lon="5.553321"><ele>202.217</ele><time>2022-09-18T14:55:04Z</time></trkpt><trkpt lat="50.391953" lon="5.553261"><ele>201.209</ele><time>2022-09-18T14:55:05Z</time></trkpt><trkpt lat="50.392021" lon="5.553188"><ele>200.256</ele><time>2022-09-18T14:55:06Z</time></trkpt><trkpt lat="50.392078" lon="5.553107"><ele>199.456</ele><time>2022-09-18T14:55:07Z</time></trkpt><trkpt lat="50.392121" lon="5.553000"><ele>198.918</ele><time>2022-09-18T14:55:08Z</time></trkpt><trkpt lat="50.392154" lon="5.552868"><ele>198.544</ele><time>2022-09-18T14:55:09Z</time></trkpt><trkpt lat="50.392203" lon="5.552724"><ele>198.059</ele><time>2022-09-18T14:55:10Z</time></trkpt><trkpt lat="50.392249" lon="5.552585"><ele>197.394</ele><time>2022-09-18T14:55:11Z</time></trkpt><trkpt lat="50.392298" lon="5.552462"><ele>196.779</ele><time>2022-09-18T14:55:12Z</time></trkpt><trkpt lat="50.392339" lon="5.552342"><ele>195.993</ele><time>2022-09-18T14:55:13Z</time></trkpt><trkpt lat="50.392385" lon="5.552228"><ele>195.680</ele><time>2022-09-18T14:55:14Z</time></trkpt><trkpt lat="50.392436" lon="5.552116"><ele>194.963</ele><time>2022-09-18T14:55:15Z</time></trkpt><trkpt lat="50.392496" lon="5.552025"><ele>194.444</ele><time>2022-09-18T14:55:16Z</time></trkpt><trkpt lat="50.392548" lon="5.551929"><ele>194.218</ele><time>2022-09-18T14:55:17Z</time></trkpt><trkpt lat="50.392588" lon="5.551849"><ele>194.009</ele><time>2022-09-18T14:55:18Z</time></trkpt><trkpt lat="50.392620" lon="5.551752"><ele>193.987</ele><time>2022-09-18T14:55:19Z</time></trkpt><trkpt lat="50.392615" lon="5.551632"><ele>193.847</ele><time>2022-09-18T14:55:20Z</time></trkpt><trkpt lat="50.392607" lon="5.551512"><ele>193.769</ele><time>2022-09-18T14:55:21Z</time></trkpt><trkpt lat="50.392579" lon="5.551410"><ele>193.425</ele><time>2022-09-18T14:55:22Z</time></trkpt><trkpt lat="50.392515" lon="5.551323"><ele>193.120</ele><time>2022-09-18T14:55:23Z</time></trkpt><trkpt lat="50.392449" lon="5.551237"><ele>192.815</ele><time>2022-09-18T14:55:24Z</time></trkpt><trkpt lat="50.392382" lon="5.551145"><ele>192.320</ele><time>2022-09-18T14:55:25Z</time></trkpt><trkpt lat="50.392310" lon="5.551095"><ele>191.734</ele><time>2022-09-18T14:55:26Z</time></trkpt><trkpt lat="50.392245" lon="5.551048"><ele>191.051</ele><time>2022-09-18T14:55:27Z</time></trkpt><trkpt lat="50.392163" lon="5.550986"><ele>190.273</ele><time>2022-09-18T14:55:28Z</time></trkpt><trkpt lat="50.392095" lon="5.550966"><ele>189.385</ele><time>2022-09-18T14:55:29Z</time></trkpt><trkpt lat="50.392034" lon="5.550942"><ele>188.313</ele><time>2022-09-18T14:55:30Z</time></trkpt><trkpt lat="50.391969" lon="5.550910"><ele>187.209</ele><time>2022-09-18T14:55:31Z</time></trkpt><trkpt lat="50.391852" lon="5.550917"><ele>186.188</ele><time>2022-09-18T14:55:33Z</time></trkpt><trkpt lat="50.391774" lon="5.550910"><ele>184.568</ele><time>2022-09-18T14:55:34Z</time></trkpt><trkpt lat="50.391703" lon="5.550827"><ele>182.420</ele><time>2022-09-18T14:55:35Z</time></trkpt><trkpt lat="50.391615" lon="5.550774"><ele>181.976</ele><time>2022-09-18T14:55:36Z</time></trkpt><trkpt lat="50.391533" lon="5.550716"><ele>180.371</ele><time>2022-09-18T14:55:37Z</time></trkpt><trkpt lat="50.391471" lon="5.550656"><ele>179.776</ele><time>2022-09-18T14:55:38Z</time></trkpt><trkpt lat="50.391402" lon="5.550554"><ele>178.681</ele><time>2022-09-18T14:55:39Z</time></trkpt><trkpt lat="50.391353" lon="5.550441"><ele>177.775</ele><time>2022-09-18T14:55:40Z</time></trkpt><trkpt lat="50.391302" lon="5.550317"><ele>176.452</ele><time>2022-09-18T14:55:41Z</time></trkpt><trkpt lat="50.391267" lon="5.550180"><ele>175.581</ele><time>2022-09-18T14:55:42Z</time></trkpt><trkpt lat="50.391229" lon="5.550107"><ele>175.161</ele><time>2022-09-18T14:55:43Z</time></trkpt><trkpt lat="50.391206" lon="5.550008"><ele>174.317</ele><time>2022-09-18T14:55:44Z</time></trkpt><trkpt lat="50.391176" lon="5.549875"><ele>173.409</ele><time>2022-09-18T14:55:45Z</time></trkpt><trkpt lat="50.391149" lon="5.549722"><ele>172.469</ele><time>2022-09-18T14:55:46Z</time></trkpt><trkpt lat="50.391139" lon="5.549626"><ele>171.269</ele><time>2022-09-18T14:55:47Z</time></trkpt><trkpt lat="50.391131" lon="5.549510"><ele>170.191</ele><time>2022-09-18T14:55:48Z</time></trkpt><trkpt lat="50.391123" lon="5.549393"><ele>169.077</ele><time>2022-09-18T14:55:49Z</time></trkpt><trkpt lat="50.391129" lon="5.549275"><ele>167.932</ele><time>2022-09-18T14:55:50Z</time></trkpt><trkpt lat="50.391162" lon="5.549210"><ele>166.947</ele><time>2022-09-18T14:55:51Z</time></trkpt><trkpt lat="50.391213" lon="5.549202"><ele>166.472</ele><time>2022-09-18T14:55:52Z</time></trkpt><trkpt lat="50.391288" lon="5.549158"><ele>165.786</ele><time>2022-09-18T14:55:54Z</time></trkpt><trkpt lat="50.391298" lon="5.549032"><ele>164.863</ele><time>2022-09-18T14:56:07Z</time></trkpt><trkpt lat="50.391277" lon="5.548925"><ele>162.248</ele><time>2022-09-18T14:56:24Z</time></trkpt><trkpt lat="50.391310" lon="5.548852"><ele>161.261</ele><time>2022-09-18T14:56:25Z</time></trkpt><trkpt lat="50.391342" lon="5.548764"><ele>161.117</ele><time>2022-09-18T14:56:26Z</time></trkpt><trkpt lat="50.391363" lon="5.548683"><ele>161.009</ele><time>2022-09-18T14:56:27Z</time></trkpt><trkpt lat="50.391424" lon="5.548579"><ele>160.715</ele><time>2022-09-18T14:56:28Z</time></trkpt><trkpt lat="50.391472" lon="5.548393"><ele>159.215</ele><time>2022-09-18T14:56:29Z</time></trkpt><trkpt lat="50.391496" lon="5.548184"><ele>158.147</ele><time>2022-09-18T14:56:30Z</time></trkpt><trkpt lat="50.391517" lon="5.548034"><ele>156.643</ele><time>2022-09-18T14:56:31Z</time></trkpt><trkpt lat="50.391514" lon="5.547911"><ele>155.598</ele><time>2022-09-18T14:56:32Z</time></trkpt><trkpt lat="50.391544" lon="5.547793"><ele>154.913</ele><time>2022-09-18T14:56:33Z</time></trkpt><trkpt lat="50.391572" lon="5.547699"><ele>153.598</ele><time>2022-09-18T14:56:34Z</time></trkpt><trkpt lat="50.391581" lon="5.547621"><ele>152.112</ele><time>2022-09-18T14:56:35Z</time></trkpt><trkpt lat="50.391636" lon="5.547580"><ele>151.439</ele><time>2022-09-18T14:56:36Z</time></trkpt><trkpt lat="50.391719" lon="5.547608"><ele>150.427</ele><time>2022-09-18T14:56:37Z</time></trkpt><trkpt lat="50.391769" lon="5.547639"><ele>149.268</ele><time>2022-09-18T14:56:38Z</time></trkpt><trkpt lat="50.391850" lon="5.547743"><ele>147.614</ele><time>2022-09-18T14:56:39Z</time></trkpt><trkpt lat="50.391946" lon="5.547764"><ele>146.609</ele><time>2022-09-18T14:56:40Z</time></trkpt><trkpt lat="50.392045" lon="5.547829"><ele>145.083</ele><time>2022-09-18T14:56:41Z</time></trkpt><trkpt lat="50.392104" lon="5.547877"><ele>144.063</ele><time>2022-09-18T14:56:42Z</time></trkpt><trkpt lat="50.392154" lon="5.547939"><ele>144.065</ele><time>2022-09-18T14:56:43Z</time></trkpt><trkpt lat="50.392203" lon="5.547958"><ele>142.971</ele><time>2022-09-18T14:56:45Z</time></trkpt><trkpt lat="50.392247" lon="5.547988"><ele>141.896</ele><time>2022-09-18T14:56:52Z</time></trkpt><trkpt lat="50.392204" lon="5.547964"><ele>140.891</ele><time>2022-09-18T14:57:50Z</time></trkpt><trkpt lat="50.392347" lon="5.548093"><ele>138.086</ele><time>2022-09-18T14:58:13Z</time></trkpt><trkpt lat="50.392391" lon="5.548190"><ele>137.950</ele><time>2022-09-18T14:58:14Z</time></trkpt><trkpt lat="50.392477" lon="5.548309"><ele>137.927</ele><time>2022-09-18T14:58:15Z</time></trkpt><trkpt lat="50.392531" lon="5.548387"><ele>137.973</ele><time>2022-09-18T14:58:16Z</time></trkpt><trkpt lat="50.392570" lon="5.548635"><ele>138.085</ele><time>2022-09-18T14:58:17Z</time></trkpt><trkpt lat="50.392660" lon="5.548771"><ele>138.013</ele><time>2022-09-18T14:58:18Z</time></trkpt><trkpt lat="50.392770" lon="5.548890"><ele>138.009</ele><time>2022-09-18T14:58:19Z</time></trkpt><trkpt lat="50.392846" lon="5.548963"><ele>137.998</ele><time>2022-09-18T14:58:20Z</time></trkpt><trkpt lat="50.392940" lon="5.549121"><ele>137.628</ele><time>2022-09-18T14:58:21Z</time></trkpt><trkpt lat="50.393093" lon="5.549178"><ele>137.310</ele><time>2022-09-18T14:58:22Z</time></trkpt><trkpt lat="50.393258" lon="5.549309"><ele>137.116</ele><time>2022-09-18T14:58:23Z</time></trkpt><trkpt lat="50.393367" lon="5.549387"><ele>137.011</ele><time>2022-09-18T14:58:24Z</time></trkpt><trkpt lat="50.393484" lon="5.549444"><ele>137.096</ele><time>2022-09-18T14:58:25Z</time></trkpt><trkpt lat="50.393549" lon="5.549509"><ele>136.611</ele><time>2022-09-18T14:58:26Z</time></trkpt><trkpt lat="50.393640" lon="5.549595"><ele>136.475</ele><time>2022-09-18T14:58:27Z</time></trkpt><trkpt lat="50.393722" lon="5.549660"><ele>135.972</ele><time>2022-09-18T14:58:28Z</time></trkpt><trkpt lat="50.393856" lon="5.549519"><ele>135.633</ele><time>2022-09-18T14:58:29Z</time></trkpt><trkpt lat="50.393967" lon="5.549470"><ele>135.323</ele><time>2022-09-18T14:58:30Z</time></trkpt><trkpt lat="50.394057" lon="5.549463"><ele>135.315</ele><time>2022-09-18T14:58:31Z</time></trkpt><trkpt lat="50.394155" lon="5.549429"><ele>135.309</ele><time>2022-09-18T14:58:32Z</time></trkpt><trkpt lat="50.394260" lon="5.549394"><ele>135.334</ele><time>2022-09-18T14:58:33Z</time></trkpt><trkpt lat="50.394332" lon="5.549376"><ele>135.394</ele><time>2022-09-18T14:58:34Z</time></trkpt><trkpt lat="50.394392" lon="5.549361"><ele>135.386</ele><time>2022-09-18T14:58:35Z</time></trkpt><trkpt lat="50.394451" lon="5.549346"><ele>135.392</ele><time>2022-09-18T14:58:36Z</time></trkpt><trkpt lat="50.394528" lon="5.549326"><ele>135.347</ele><time>2022-09-18T14:58:37Z</time></trkpt><trkpt lat="50.394617" lon="5.549242"><ele>135.382</ele><time>2022-09-18T14:58:38Z</time></trkpt><trkpt lat="50.394711" lon="5.549174"><ele>135.637</ele><time>2022-09-18T14:58:39Z</time></trkpt><trkpt lat="50.394807" lon="5.549110"><ele>135.921</ele><time>2022-09-18T14:58:40Z</time></trkpt><trkpt lat="50.394911" lon="5.549024"><ele>136.278</ele><time>2022-09-18T14:58:41Z</time></trkpt><trkpt lat="50.394984" lon="5.548903"><ele>136.785</ele><time>2022-09-18T14:58:42Z</time></trkpt><trkpt lat="50.395044" lon="5.548781"><ele>137.789</ele><time>2022-09-18T14:58:43Z</time></trkpt><trkpt lat="50.395091" lon="5.548668"><ele>138.917</ele><time>2022-09-18T14:58:44Z</time></trkpt><trkpt lat="50.395133" lon="5.548569"><ele>139.509</ele><time>2022-09-18T14:58:45Z</time></trkpt><trkpt lat="50.395173" lon="5.548474"><ele>140.989</ele><time>2022-09-18T14:58:46Z</time></trkpt><trkpt lat="50.395207" lon="5.548402"><ele>142.499</ele><time>2022-09-18T14:58:47Z</time></trkpt><trkpt lat="50.395256" lon="5.548310"><ele>143.861</ele><time>2022-09-18T14:58:48Z</time></trkpt><trkpt lat="50.395333" lon="5.548324"><ele>145.077</ele><time>2022-09-18T14:58:49Z</time></trkpt><trkpt lat="50.395437" lon="5.548354"><ele>146.152</ele><time>2022-09-18T14:58:50Z</time></trkpt><trkpt lat="50.395543" lon="5.548430"><ele>147.957</ele><time>2022-09-18T14:58:51Z</time></trkpt><trkpt lat="50.395634" lon="5.548504"><ele>149.232</ele><time>2022-09-18T14:58:52Z</time></trkpt><trkpt lat="50.395714" lon="5.548581"><ele>150.576</ele><time>2022-09-18T14:58:53Z</time></trkpt><trkpt lat="50.395816" lon="5.548695"><ele>151.943</ele><time>2022-09-18T14:58:54Z</time></trkpt><trkpt lat="50.395916" lon="5.548756"><ele>153.579</ele><time>2022-09-18T14:58:55Z</time></trkpt><trkpt lat="50.396011" lon="5.548837"><ele>155.105</ele><time>2022-09-18T14:58:56Z</time></trkpt><trkpt lat="50.396081" lon="5.548895"><ele>156.525</ele><time>2022-09-18T14:58:57Z</time></trkpt><trkpt lat="50.396140" lon="5.548961"><ele>157.209</ele><time>2022-09-18T14:58:58Z</time></trkpt><trkpt lat="50.396193" lon="5.548942"><ele>158.668</ele><time>2022-09-18T14:58:59Z</time></trkpt><trkpt lat="50.396257" lon="5.549006"><ele>160.088</ele><time>2022-09-18T14:59:00Z</time></trkpt><trkpt lat="50.396343" lon="5.549009"><ele>161.370</ele><time>2022-09-18T14:59:01Z</time></trkpt><trkpt lat="50.396451" lon="5.548956"><ele>163.136</ele><time>2022-09-18T14:59:02Z</time></trkpt><trkpt lat="50.396523" lon="5.548885"><ele>164.311</ele><time>2022-09-18T14:59:03Z</time></trkpt><trkpt lat="50.396632" lon="5.548746"><ele>165.376</ele><time>2022-09-18T14:59:04Z</time></trkpt><trkpt lat="50.396754" lon="5.548626"><ele>166.211</ele><time>2022-09-18T14:59:05Z</time></trkpt><trkpt lat="50.396891" lon="5.548493"><ele>166.795</ele><time>2022-09-18T14:59:06Z</time></trkpt><trkpt lat="50.396978" lon="5.548331"><ele>167.212</ele><time>2022-09-18T14:59:07Z</time></trkpt><trkpt lat="50.397081" lon="5.548140"><ele>168.017</ele><time>2022-09-18T14:59:08Z</time></trkpt><trkpt lat="50.397180" lon="5.547957"><ele>169.287</ele><time>2022-09-18T14:59:09Z</time></trkpt><trkpt lat="50.397277" lon="5.547776"><ele>170.715</ele><time>2022-09-18T14:59:10Z</time></trkpt><trkpt lat="50.397368" lon="5.547608"><ele>172.409</ele><time>2022-09-18T14:59:11Z</time></trkpt><trkpt lat="50.397462" lon="5.547433"><ele>174.182</ele><time>2022-09-18T14:59:12Z</time></trkpt><trkpt lat="50.397559" lon="5.547255"><ele>175.732</ele><time>2022-09-18T14:59:13Z</time></trkpt><trkpt lat="50.397646" lon="5.547093"><ele>177.254</ele><time>2022-09-18T14:59:14Z</time></trkpt><trkpt lat="50.397730" lon="5.546948"><ele>177.920</ele><time>2022-09-18T14:59:15Z</time></trkpt><trkpt lat="50.397828" lon="5.546802"><ele>179.315</ele><time>2022-09-18T14:59:16Z</time></trkpt><trkpt lat="50.397941" lon="5.546665"><ele>181.280</ele><time>2022-09-18T14:59:17Z</time></trkpt><trkpt lat="50.398039" lon="5.546553"><ele>181.955</ele><time>2022-09-18T14:59:18Z</time></trkpt><trkpt lat="50.398131" lon="5.546441"><ele>183.259</ele><time>2022-09-18T14:59:19Z</time></trkpt><trkpt lat="50.398223" lon="5.546321"><ele>184.376</ele><time>2022-09-18T14:59:20Z</time></trkpt><trkpt lat="50.398336" lon="5.546203"><ele>185.431</ele><time>2022-09-18T14:59:21Z</time></trkpt><trkpt lat="50.398460" lon="5.546126"><ele>186.561</ele><time>2022-09-18T14:59:22Z</time></trkpt><trkpt lat="50.398563" lon="5.546056"><ele>187.807</ele><time>2022-09-18T14:59:23Z</time></trkpt><trkpt lat="50.398641" lon="5.545995"><ele>189.109</ele><time>2022-09-18T14:59:24Z</time></trkpt><trkpt lat="50.398769" lon="5.546019"><ele>190.454</ele><time>2022-09-18T14:59:25Z</time></trkpt><trkpt lat="50.398882" lon="5.546000"><ele>191.874</ele><time>2022-09-18T14:59:26Z</time></trkpt><trkpt lat="50.398974" lon="5.545989"><ele>193.186</ele><time>2022-09-18T14:59:27Z</time></trkpt><trkpt lat="50.399065" lon="5.545978"><ele>194.142</ele><time>2022-09-18T14:59:29Z</time></trkpt><trkpt lat="50.399119" lon="5.545971"><ele>195.087</ele><time>2022-09-18T14:59:30Z</time></trkpt><trkpt lat="50.399193" lon="5.545965"><ele>196.382</ele><time>2022-09-18T14:59:31Z</time></trkpt><trkpt lat="50.399262" lon="5.545917"><ele>197.057</ele><time>2022-09-18T14:59:32Z</time></trkpt><trkpt lat="50.399362" lon="5.545839"><ele>197.521</ele><time>2022-09-18T14:59:33Z</time></trkpt><trkpt lat="50.399452" lon="5.545757"><ele>198.228</ele><time>2022-09-18T14:59:34Z</time></trkpt><trkpt lat="50.399492" lon="5.545630"><ele>198.759</ele><time>2022-09-18T14:59:35Z</time></trkpt><trkpt lat="50.399505" lon="5.545485"><ele>199.203</ele><time>2022-09-18T14:59:36Z</time></trkpt><trkpt lat="50.399505" lon="5.545328"><ele>199.823</ele><time>2022-09-18T14:59:37Z</time></trkpt><trkpt lat="50.399504" lon="5.545137"><ele>200.209</ele><time>2022-09-18T14:59:38Z</time></trkpt><trkpt lat="50.399494" lon="5.544930"><ele>200.866</ele><time>2022-09-18T14:59:39Z</time></trkpt><trkpt lat="50.399483" lon="5.544747"><ele>201.616</ele><time>2022-09-18T14:59:40Z</time></trkpt><trkpt lat="50.399478" lon="5.544572"><ele>202.448</ele><time>2022-09-18T14:59:41Z</time></trkpt><trkpt lat="50.399544" lon="5.544420"><ele>203.114</ele><time>2022-09-18T14:59:42Z</time></trkpt><trkpt lat="50.399640" lon="5.544306"><ele>204.259</ele><time>2022-09-18T14:59:43Z</time></trkpt><trkpt lat="50.399722" lon="5.544229"><ele>205.174</ele><time>2022-09-18T14:59:44Z</time></trkpt><trkpt lat="50.399782" lon="5.544206"><ele>205.889</ele><time>2022-09-18T14:59:45Z</time></trkpt><trkpt lat="50.399833" lon="5.544163"><ele>206.153</ele><time>2022-09-18T14:59:46Z</time></trkpt><trkpt lat="50.399871" lon="5.544125"><ele>206.430</ele><time>2022-09-18T14:59:47Z</time></trkpt><trkpt lat="50.399922" lon="5.544081"><ele>206.974</ele><time>2022-09-18T14:59:49Z</time></trkpt><trkpt lat="50.399933" lon="5.543999"><ele>207.356</ele><time>2022-09-18T15:02:16Z</time></trkpt><trkpt lat="50.400020" lon="5.543918"><ele>207.821</ele><time>2022-09-18T15:02:18Z</time></trkpt><trkpt lat="50.400089" lon="5.543872"><ele>209.009</ele><time>2022-09-18T15:02:19Z</time></trkpt><trkpt lat="50.400159" lon="5.543808"><ele>209.278</ele><time>2022-09-18T15:02:20Z</time></trkpt><trkpt lat="50.400308" lon="5.543754"><ele>209.818</ele><time>2022-09-18T15:02:21Z</time></trkpt><trkpt lat="50.400413" lon="5.543671"><ele>211.040</ele><time>2022-09-18T15:02:22Z</time></trkpt><trkpt lat="50.400526" lon="5.543572"><ele>211.466</ele><time>2022-09-18T15:02:23Z</time></trkpt><trkpt lat="50.400661" lon="5.543462"><ele>212.741</ele><time>2022-09-18T15:02:24Z</time></trkpt><trkpt lat="50.400784" lon="5.543381"><ele>213.516</ele><time>2022-09-18T15:02:25Z</time></trkpt><trkpt lat="50.400920" lon="5.543285"><ele>214.261</ele><time>2022-09-18T15:02:26Z</time></trkpt><trkpt lat="50.401045" lon="5.543198"><ele>214.885</ele><time>2022-09-18T15:02:27Z</time></trkpt><trkpt lat="50.401142" lon="5.543127"><ele>215.162</ele><time>2022-09-18T15:02:28Z</time></trkpt><trkpt lat="50.401258" lon="5.543048"><ele>215.832</ele><time>2022-09-18T15:02:29Z</time></trkpt><trkpt lat="50.401364" lon="5.542972"><ele>216.492</ele><time>2022-09-18T15:02:30Z</time></trkpt><trkpt lat="50.401459" lon="5.542901"><ele>217.011</ele><time>2022-09-18T15:02:31Z</time></trkpt><trkpt lat="50.401574" lon="5.542815"><ele>217.709</ele><time>2022-09-18T15:02:32Z</time></trkpt><trkpt lat="50.401700" lon="5.542748"><ele>218.354</ele><time>2022-09-18T15:02:33Z</time></trkpt><trkpt lat="50.401817" lon="5.542654"><ele>218.944</ele><time>2022-09-18T15:02:34Z</time></trkpt><trkpt lat="50.401920" lon="5.542571"><ele>219.996</ele><time>2022-09-18T15:02:35Z</time></trkpt><trkpt lat="50.402035" lon="5.542472"><ele>221.052</ele><time>2022-09-18T15:02:36Z</time></trkpt><trkpt lat="50.402155" lon="5.542363"><ele>222.027</ele><time>2022-09-18T15:02:37Z</time></trkpt><trkpt lat="50.402300" lon="5.542246"><ele>223.412</ele><time>2022-09-18T15:02:38Z</time></trkpt><trkpt lat="50.402421" lon="5.542134"><ele>224.027</ele><time>2022-09-18T15:02:39Z</time></trkpt><trkpt lat="50.402531" lon="5.542030"><ele>224.261</ele><time>2022-09-18T15:02:40Z</time></trkpt><trkpt lat="50.402638" lon="5.541906"><ele>224.418</ele><time>2022-09-18T15:02:41Z</time></trkpt><trkpt lat="50.402731" lon="5.541798"><ele>224.685</ele><time>2022-09-18T15:02:42Z</time></trkpt><trkpt lat="50.402852" lon="5.541673"><ele>224.789</ele><time>2022-09-18T15:02:43Z</time></trkpt><trkpt lat="50.402964" lon="5.541556"><ele>225.017</ele><time>2022-09-18T15:02:44Z</time></trkpt><trkpt lat="50.403077" lon="5.541445"><ele>225.109</ele><time>2022-09-18T15:02:45Z</time></trkpt><trkpt lat="50.403191" lon="5.541340"><ele>225.159</ele><time>2022-09-18T15:02:46Z</time></trkpt><trkpt lat="50.403292" lon="5.541247"><ele>225.159</ele><time>2022-09-18T15:02:47Z</time></trkpt><trkpt lat="50.403417" lon="5.541109"><ele>224.921</ele><time>2022-09-18T15:02:48Z</time></trkpt><trkpt lat="50.403532" lon="5.540999"><ele>224.677</ele><time>2022-09-18T15:02:49Z</time></trkpt><trkpt lat="50.403659" lon="5.540872"><ele>224.132</ele><time>2022-09-18T15:02:50Z</time></trkpt><trkpt lat="50.403810" lon="5.540765"><ele>223.747</ele><time>2022-09-18T15:02:51Z</time></trkpt><trkpt lat="50.403933" lon="5.540636"><ele>223.152</ele><time>2022-09-18T15:02:52Z</time></trkpt><trkpt lat="50.404055" lon="5.540496"><ele>222.366</ele><time>2022-09-18T15:02:53Z</time></trkpt><trkpt lat="50.404151" lon="5.540335"><ele>221.553</ele><time>2022-09-18T15:02:54Z</time></trkpt><trkpt lat="50.404226" lon="5.540150"><ele>220.896</ele><time>2022-09-18T15:02:55Z</time></trkpt><trkpt lat="50.404309" lon="5.539967"><ele>220.431</ele><time>2022-09-18T15:02:56Z</time></trkpt><trkpt lat="50.404392" lon="5.539785"><ele>220.324</ele><time>2022-09-18T15:02:57Z</time></trkpt><trkpt lat="50.404444" lon="5.539612"><ele>220.309</ele><time>2022-09-18T15:02:58Z</time></trkpt><trkpt lat="50.404497" lon="5.539427"><ele>220.590</ele><time>2022-09-18T15:02:59Z</time></trkpt><trkpt lat="50.404536" lon="5.539233"><ele>221.050</ele><time>2022-09-18T15:03:00Z</time></trkpt><trkpt lat="50.404558" lon="5.539053"><ele>221.542</ele><time>2022-09-18T15:03:01Z</time></trkpt><trkpt lat="50.404593" lon="5.538864"><ele>222.048</ele><time>2022-09-18T15:03:02Z</time></trkpt><trkpt lat="50.404641" lon="5.538682"><ele>222.243</ele><time>2022-09-18T15:03:03Z</time></trkpt><trkpt lat="50.404698" lon="5.538538"><ele>222.628</ele><time>2022-09-18T15:03:04Z</time></trkpt><trkpt lat="50.404760" lon="5.538382"><ele>222.673</ele><time>2022-09-18T15:03:05Z</time></trkpt><trkpt lat="50.404871" lon="5.538278"><ele>222.557</ele><time>2022-09-18T15:03:06Z</time></trkpt><trkpt lat="50.405012" lon="5.538214"><ele>221.934</ele><time>2022-09-18T15:03:07Z</time></trkpt><trkpt lat="50.405123" lon="5.538227"><ele>221.651</ele><time>2022-09-18T15:03:08Z</time></trkpt><trkpt lat="50.405227" lon="5.538257"><ele>220.901</ele><time>2022-09-18T15:03:09Z</time></trkpt><trkpt lat="50.405334" lon="5.538271"><ele>220.211</ele><time>2022-09-18T15:03:10Z</time></trkpt><trkpt lat="50.405448" lon="5.538338"><ele>219.409</ele><time>2022-09-18T15:03:11Z</time></trkpt><trkpt lat="50.405573" lon="5.538463"><ele>218.296</ele><time>2022-09-18T15:03:12Z</time></trkpt><trkpt lat="50.405688" lon="5.538598"><ele>217.476</ele><time>2022-09-18T15:03:13Z</time></trkpt><trkpt lat="50.405807" lon="5.538757"><ele>216.648</ele><time>2022-09-18T15:03:14Z</time></trkpt><trkpt lat="50.405921" lon="5.538874"><ele>215.894</ele><time>2022-09-18T15:03:15Z</time></trkpt><trkpt lat="50.405996" lon="5.538988"><ele>215.429</ele><time>2022-09-18T15:03:16Z</time></trkpt><trkpt lat="50.406043" lon="5.539041"><ele>214.894</ele><time>2022-09-18T15:03:17Z</time></trkpt><trkpt lat="50.406132" lon="5.539065"><ele>214.449</ele><time>2022-09-18T15:03:18Z</time></trkpt><trkpt lat="50.406205" lon="5.539082"><ele>213.683</ele><time>2022-09-18T15:03:19Z</time></trkpt><trkpt lat="50.406276" lon="5.539125"><ele>212.930</ele><time>2022-09-18T15:03:20Z</time></trkpt><trkpt lat="50.406373" lon="5.539083"><ele>212.313</ele><time>2022-09-18T15:03:21Z</time></trkpt><trkpt lat="50.406510" lon="5.539012"><ele>211.243</ele><time>2022-09-18T15:03:22Z</time></trkpt><trkpt lat="50.406573" lon="5.538888"><ele>210.507</ele><time>2022-09-18T15:03:23Z</time></trkpt><trkpt lat="50.406623" lon="5.538732"><ele>209.809</ele><time>2022-09-18T15:03:24Z</time></trkpt><trkpt lat="50.406625" lon="5.538542"><ele>209.042</ele><time>2022-09-18T15:03:25Z</time></trkpt><trkpt lat="50.406610" lon="5.538315"><ele>208.232</ele><time>2022-09-18T15:03:26Z</time></trkpt><trkpt lat="50.406579" lon="5.538083"><ele>207.484</ele><time>2022-09-18T15:03:27Z</time></trkpt><trkpt lat="50.406541" lon="5.537870"><ele>206.880</ele><time>2022-09-18T15:03:28Z</time></trkpt><trkpt lat="50.406501" lon="5.537646"><ele>206.265</ele><time>2022-09-18T15:03:29Z</time></trkpt><trkpt lat="50.406460" lon="5.537418"><ele>205.620</ele><time>2022-09-18T15:03:30Z</time></trkpt><trkpt lat="50.406417" lon="5.537175"><ele>204.855</ele><time>2022-09-18T15:03:31Z</time></trkpt><trkpt lat="50.406377" lon="5.536942"><ele>203.759</ele><time>2022-09-18T15:03:32Z</time></trkpt><trkpt lat="50.406345" lon="5.536698"><ele>202.666</ele><time>2022-09-18T15:03:33Z</time></trkpt><trkpt lat="50.406309" lon="5.536468"><ele>201.568</ele><time>2022-09-18T15:03:34Z</time></trkpt><trkpt lat="50.406271" lon="5.536254"><ele>200.442</ele><time>2022-09-18T15:03:35Z</time></trkpt><trkpt lat="50.406233" lon="5.536038"><ele>199.326</ele><time>2022-09-18T15:03:36Z</time></trkpt><trkpt lat="50.406203" lon="5.535854"><ele>198.709</ele><time>2022-09-18T15:03:37Z</time></trkpt><trkpt lat="50.406161" lon="5.535637"><ele>197.787</ele><time>2022-09-18T15:03:38Z</time></trkpt><trkpt lat="50.406106" lon="5.535392"><ele>196.467</ele><time>2022-09-18T15:03:39Z</time></trkpt><trkpt lat="50.406049" lon="5.535174"><ele>195.499</ele><time>2022-09-18T15:03:40Z</time></trkpt><trkpt lat="50.405988" lon="5.534951"><ele>194.595</ele><time>2022-09-18T15:03:41Z</time></trkpt><trkpt lat="50.405912" lon="5.534755"><ele>193.860</ele><time>2022-09-18T15:03:42Z</time></trkpt><trkpt lat="50.405831" lon="5.534534"><ele>193.065</ele><time>2022-09-18T15:03:43Z</time></trkpt><trkpt lat="50.405753" lon="5.534317"><ele>192.120</ele><time>2022-09-18T15:03:44Z</time></trkpt><trkpt lat="50.405679" lon="5.534115"><ele>191.324</ele><time>2022-09-18T15:03:45Z</time></trkpt><trkpt lat="50.405610" lon="5.533891"><ele>190.521</ele><time>2022-09-18T15:03:46Z</time></trkpt><trkpt lat="50.405558" lon="5.533667"><ele>189.578</ele><time>2022-09-18T15:03:47Z</time></trkpt><trkpt lat="50.405489" lon="5.533447"><ele>188.533</ele><time>2022-09-18T15:03:48Z</time></trkpt><trkpt lat="50.405441" lon="5.533258"><ele>187.526</ele><time>2022-09-18T15:03:49Z</time></trkpt><trkpt lat="50.405387" lon="5.533075"><ele>187.009</ele><time>2022-09-18T15:03:50Z</time></trkpt><trkpt lat="50.405325" lon="5.532868"><ele>185.188</ele><time>2022-09-18T15:03:51Z</time></trkpt><trkpt lat="50.405277" lon="5.532640"><ele>183.898</ele><time>2022-09-18T15:03:52Z</time></trkpt><trkpt lat="50.405253" lon="5.532411"><ele>182.670</ele><time>2022-09-18T15:03:53Z</time></trkpt><trkpt lat="50.405232" lon="5.532219"><ele>181.356</ele><time>2022-09-18T15:03:54Z</time></trkpt><trkpt lat="50.405208" lon="5.532018"><ele>180.671</ele><time>2022-09-18T15:03:55Z</time></trkpt><trkpt lat="50.405195" lon="5.531909"><ele>179.656</ele><time>2022-09-18T15:03:56Z</time></trkpt><trkpt lat="50.405201" lon="5.531730"><ele>178.841</ele><time>2022-09-18T15:03:57Z</time></trkpt><trkpt lat="50.405228" lon="5.531591"><ele>178.115</ele><time>2022-09-18T15:03:58Z</time></trkpt><trkpt lat="50.405269" lon="5.531474"><ele>177.682</ele><time>2022-09-18T15:03:59Z</time></trkpt><trkpt lat="50.405324" lon="5.531362"><ele>177.469</ele><time>2022-09-18T15:04:00Z</time></trkpt><trkpt lat="50.405351" lon="5.531233"><ele>177.104</ele><time>2022-09-18T15:04:01Z</time></trkpt><trkpt lat="50.405438" lon="5.531186"><ele>176.924</ele><time>2022-09-18T15:04:03Z</time></trkpt><trkpt lat="50.405489" lon="5.531131"><ele>176.609</ele><time>2022-09-18T15:04:05Z</time></trkpt><trkpt lat="50.405498" lon="5.531033"><ele>176.347</ele><time>2022-09-18T15:04:07Z</time></trkpt><trkpt lat="50.405514" lon="5.530942"><ele>176.147</ele><time>2022-09-18T15:04:29Z</time></trkpt><trkpt lat="50.405537" lon="5.530771"><ele>176.019</ele><time>2022-09-18T15:04:31Z</time></trkpt><trkpt lat="50.405555" lon="5.530668"><ele>176.065</ele><time>2022-09-18T15:04:32Z</time></trkpt><trkpt lat="50.405590" lon="5.530546"><ele>175.950</ele><time>2022-09-18T15:04:33Z</time></trkpt><trkpt lat="50.405605" lon="5.530418"><ele>175.815</ele><time>2022-09-18T15:04:34Z</time></trkpt><trkpt lat="50.405645" lon="5.530277"><ele>175.610</ele><time>2022-09-18T15:04:35Z</time></trkpt><trkpt lat="50.405674" lon="5.530120"><ele>175.184</ele><time>2022-09-18T15:04:36Z</time></trkpt><trkpt lat="50.405699" lon="5.529989"><ele>174.471</ele><time>2022-09-18T15:04:37Z</time></trkpt><trkpt lat="50.405727" lon="5.529829"><ele>173.796</ele><time>2022-09-18T15:04:38Z</time></trkpt><trkpt lat="50.405758" lon="5.529673"><ele>172.931</ele><time>2022-09-18T15:04:39Z</time></trkpt><trkpt lat="50.405793" lon="5.529523"><ele>172.124</ele><time>2022-09-18T15:04:40Z</time></trkpt><trkpt lat="50.405843" lon="5.529376"><ele>171.309</ele><time>2022-09-18T15:04:41Z</time></trkpt><trkpt lat="50.405868" lon="5.529203"><ele>170.790</ele><time>2022-09-18T15:04:42Z</time></trkpt><trkpt lat="50.405926" lon="5.529071"><ele>170.250</ele><time>2022-09-18T15:04:43Z</time></trkpt><trkpt lat="50.406020" lon="5.528888"><ele>169.662</ele><time>2022-09-18T15:04:44Z</time></trkpt><trkpt lat="50.406127" lon="5.528790"><ele>168.688</ele><time>2022-09-18T15:04:45Z</time></trkpt><trkpt lat="50.406293" lon="5.528724"><ele>167.873</ele><time>2022-09-18T15:04:46Z</time></trkpt><trkpt lat="50.406390" lon="5.528708"><ele>167.488</ele><time>2022-09-18T15:04:47Z</time></trkpt><trkpt lat="50.406494" lon="5.528657"><ele>166.473</ele><time>2022-09-18T15:04:48Z</time></trkpt><trkpt lat="50.406571" lon="5.528583"><ele>165.527</ele><time>2022-09-18T15:04:49Z</time></trkpt><trkpt lat="50.406639" lon="5.528431"><ele>164.674</ele><time>2022-09-18T15:04:50Z</time></trkpt><trkpt lat="50.406688" lon="5.528265"><ele>163.894</ele><time>2022-09-18T15:04:51Z</time></trkpt><trkpt lat="50.406695" lon="5.528118"><ele>163.157</ele><time>2022-09-18T15:04:52Z</time></trkpt><trkpt lat="50.406687" lon="5.527948"><ele>162.422</ele><time>2022-09-18T15:04:53Z</time></trkpt><trkpt lat="50.406628" lon="5.527765"><ele>161.609</ele><time>2022-09-18T15:04:54Z</time></trkpt><trkpt lat="50.406535" lon="5.527600"><ele>160.680</ele><time>2022-09-18T15:04:55Z</time></trkpt><trkpt lat="50.406417" lon="5.527438"><ele>160.010</ele><time>2022-09-18T15:04:56Z</time></trkpt><trkpt lat="50.406318" lon="5.527225"><ele>159.252</ele><time>2022-09-18T15:04:57Z</time></trkpt><trkpt lat="50.406224" lon="5.527037"><ele>158.438</ele><time>2022-09-18T15:04:58Z</time></trkpt><trkpt lat="50.406133" lon="5.526856"><ele>157.613</ele><time>2022-09-18T15:04:59Z</time></trkpt><trkpt lat="50.406045" lon="5.526672"><ele>156.638</ele><time>2022-09-18T15:05:00Z</time></trkpt><trkpt lat="50.405945" lon="5.526479"><ele>155.593</ele><time>2022-09-18T15:05:01Z</time></trkpt><trkpt lat="50.405847" lon="5.526290"><ele>154.637</ele><time>2022-09-18T15:05:02Z</time></trkpt><trkpt lat="50.405765" lon="5.526121"><ele>153.794</ele><time>2022-09-18T15:05:03Z</time></trkpt><trkpt lat="50.405678" lon="5.525951"><ele>152.636</ele><time>2022-09-18T15:05:04Z</time></trkpt><trkpt lat="50.405591" lon="5.525783"><ele>151.417</ele><time>2022-09-18T15:05:05Z</time></trkpt><trkpt lat="50.405525" lon="5.525642"><ele>150.718</ele><time>2022-09-18T15:05:06Z</time></trkpt><trkpt lat="50.405449" lon="5.525476"><ele>149.409</ele><time>2022-09-18T15:05:07Z</time></trkpt><trkpt lat="50.405372" lon="5.525333"><ele>148.094</ele><time>2022-09-18T15:05:08Z</time></trkpt><trkpt lat="50.405287" lon="5.525182"><ele>147.054</ele><time>2022-09-18T15:05:09Z</time></trkpt><trkpt lat="50.405226" lon="5.525028"><ele>146.186</ele><time>2022-09-18T15:05:10Z</time></trkpt><trkpt lat="50.405163" lon="5.524880"><ele>145.782</ele><time>2022-09-18T15:05:11Z</time></trkpt><trkpt lat="50.405126" lon="5.524738"><ele>145.097</ele><time>2022-09-18T15:05:12Z</time></trkpt><trkpt lat="50.405082" lon="5.524577"><ele>144.482</ele><time>2022-09-18T15:05:13Z</time></trkpt><trkpt lat="50.405045" lon="5.524427"><ele>143.487</ele><time>2022-09-18T15:05:14Z</time></trkpt><trkpt lat="50.405029" lon="5.524317"><ele>143.481</ele><time>2022-09-18T15:05:15Z</time></trkpt><trkpt lat="50.405025" lon="5.524219"><ele>142.648</ele><time>2022-09-18T15:05:16Z</time></trkpt><trkpt lat="50.405055" lon="5.524088"><ele>141.877</ele><time>2022-09-18T15:05:17Z</time></trkpt><trkpt lat="50.405108" lon="5.523958"><ele>141.561</ele><time>2022-09-18T15:05:18Z</time></trkpt><trkpt lat="50.405167" lon="5.523845"><ele>140.627</ele><time>2022-09-18T15:05:19Z</time></trkpt><trkpt lat="50.405214" lon="5.523724"><ele>140.109</ele><time>2022-09-18T15:05:20Z</time></trkpt><trkpt lat="50.405262" lon="5.523589"><ele>139.538</ele><time>2022-09-18T15:05:21Z</time></trkpt><trkpt lat="50.405263" lon="5.523458"><ele>138.688</ele><time>2022-09-18T15:05:22Z</time></trkpt><trkpt lat="50.405220" lon="5.523317"><ele>137.730</ele><time>2022-09-18T15:05:23Z</time></trkpt><trkpt lat="50.405129" lon="5.523246"><ele>136.986</ele><time>2022-09-18T15:05:24Z</time></trkpt><trkpt lat="50.405048" lon="5.523237"><ele>136.271</ele><time>2022-09-18T15:05:25Z</time></trkpt><trkpt lat="50.404967" lon="5.523280"><ele>135.926</ele><time>2022-09-18T15:05:26Z</time></trkpt><trkpt lat="50.404897" lon="5.523387"><ele>135.461</ele><time>2022-09-18T15:05:27Z</time></trkpt><trkpt lat="50.404813" lon="5.523495"><ele>134.975</ele><time>2022-09-18T15:05:28Z</time></trkpt><trkpt lat="50.404722" lon="5.523600"><ele>134.762</ele><time>2022-09-18T15:05:29Z</time></trkpt><trkpt lat="50.404629" lon="5.523710"><ele>134.523</ele><time>2022-09-18T15:05:30Z</time></trkpt><trkpt lat="50.404557" lon="5.523822"><ele>134.183</ele><time>2022-09-18T15:05:31Z</time></trkpt><trkpt lat="50.404479" lon="5.523933"><ele>133.911</ele><time>2022-09-18T15:05:32Z</time></trkpt><trkpt lat="50.404400" lon="5.524043"><ele>133.509</ele><time>2022-09-18T15:05:33Z</time></trkpt><trkpt lat="50.404327" lon="5.524149"><ele>132.793</ele><time>2022-09-18T15:05:34Z</time></trkpt><trkpt lat="50.404234" lon="5.524203"><ele>132.093</ele><time>2022-09-18T15:05:35Z</time></trkpt><trkpt lat="50.404146" lon="5.524259"><ele>131.265</ele><time>2022-09-18T15:05:36Z</time></trkpt><trkpt lat="50.404065" lon="5.524287"><ele>130.441</ele><time>2022-09-18T15:05:37Z</time></trkpt><trkpt lat="50.403988" lon="5.524313"><ele>130.046</ele><time>2022-09-18T15:05:38Z</time></trkpt><trkpt lat="50.403924" lon="5.524403"><ele>129.391</ele><time>2022-09-18T15:05:39Z</time></trkpt><trkpt lat="50.403857" lon="5.524462"><ele>128.616</ele><time>2022-09-18T15:05:40Z</time></trkpt><trkpt lat="50.403778" lon="5.524527"><ele>127.920</ele><time>2022-09-18T15:05:41Z</time></trkpt><trkpt lat="50.403705" lon="5.524576"><ele>127.187</ele><time>2022-09-18T15:05:42Z</time></trkpt><trkpt lat="50.403643" lon="5.524616"><ele>126.385</ele><time>2022-09-18T15:05:43Z</time></trkpt><trkpt lat="50.403604" lon="5.524691"><ele>125.889</ele><time>2022-09-18T15:05:44Z</time></trkpt><trkpt lat="50.403614" lon="5.524808"><ele>125.717</ele><time>2022-09-18T15:05:46Z</time></trkpt><trkpt lat="50.403661" lon="5.524872"><ele>125.709</ele><time>2022-09-18T15:05:47Z</time></trkpt><trkpt lat="50.403702" lon="5.524954"><ele>125.749</ele><time>2022-09-18T15:05:48Z</time></trkpt><trkpt lat="50.403768" lon="5.525048"><ele>126.339</ele><time>2022-09-18T15:05:49Z</time></trkpt><trkpt lat="50.403846" lon="5.525129"><ele>126.871</ele><time>2022-09-18T15:05:50Z</time></trkpt><trkpt lat="50.403915" lon="5.525261"><ele>127.887</ele><time>2022-09-18T15:05:51Z</time></trkpt><trkpt lat="50.403988" lon="5.525372"><ele>128.732</ele><time>2022-09-18T15:05:52Z</time></trkpt><trkpt lat="50.404073" lon="5.525496"><ele>129.827</ele><time>2022-09-18T15:05:53Z</time></trkpt><trkpt lat="50.404150" lon="5.525605"><ele>131.072</ele><time>2022-09-18T15:05:54Z</time></trkpt><trkpt lat="50.404238" lon="5.525728"><ele>132.166</ele><time>2022-09-18T15:05:55Z</time></trkpt><trkpt lat="50.404332" lon="5.525862"><ele>133.413</ele><time>2022-09-18T15:05:56Z</time></trkpt><trkpt lat="50.404410" lon="5.525997"><ele>134.737</ele><time>2022-09-18T15:05:57Z</time></trkpt><trkpt lat="50.404488" lon="5.526146"><ele>136.149</ele><time>2022-09-18T15:05:58Z</time></trkpt><trkpt lat="50.404569" lon="5.526301"><ele>137.413</ele><time>2022-09-18T15:05:59Z</time></trkpt><trkpt lat="50.404658" lon="5.526459"><ele>138.909</ele><time>2022-09-18T15:06:00Z</time></trkpt><trkpt lat="50.404760" lon="5.526636"><ele>141.214</ele><time>2022-09-18T15:06:01Z</time></trkpt><trkpt lat="50.404859" lon="5.526809"><ele>142.824</ele><time>2022-09-18T15:06:02Z</time></trkpt><trkpt lat="50.404961" lon="5.526993"><ele>144.486</ele><time>2022-09-18T15:06:03Z</time></trkpt><trkpt lat="50.405062" lon="5.527177"><ele>146.082</ele><time>2022-09-18T15:06:04Z</time></trkpt><trkpt lat="50.405144" lon="5.527341"><ele>147.617</ele><time>2022-09-18T15:06:05Z</time></trkpt><trkpt lat="50.405221" lon="5.527495"><ele>148.452</ele><time>2022-09-18T15:06:06Z</time></trkpt><trkpt lat="50.405295" lon="5.527669"><ele>149.977</ele><time>2022-09-18T15:06:07Z</time></trkpt><trkpt lat="50.405364" lon="5.527824"><ele>151.681</ele><time>2022-09-18T15:06:08Z</time></trkpt><trkpt lat="50.405419" lon="5.527976"><ele>153.128</ele><time>2022-09-18T15:06:09Z</time></trkpt><trkpt lat="50.405484" lon="5.528135"><ele>154.746</ele><time>2022-09-18T15:06:10Z</time></trkpt><trkpt lat="50.405563" lon="5.528302"><ele>156.488</ele><time>2022-09-18T15:06:11Z</time></trkpt><trkpt lat="50.405635" lon="5.528469"><ele>157.816</ele><time>2022-09-18T15:06:12Z</time></trkpt><trkpt lat="50.405694" lon="5.528634"><ele>159.109</ele><time>2022-09-18T15:06:13Z</time></trkpt><trkpt lat="50.405737" lon="5.528778"><ele>160.535</ele><time>2022-09-18T15:06:14Z</time></trkpt><trkpt lat="50.405781" lon="5.528903"><ele>161.695</ele><time>2022-09-18T15:06:15Z</time></trkpt><trkpt lat="50.405826" lon="5.529027"><ele>162.757</ele><time>2022-09-18T15:06:16Z</time></trkpt><trkpt lat="50.405856" lon="5.529123"><ele>163.243</ele><time>2022-09-18T15:06:17Z</time></trkpt><trkpt lat="50.405859" lon="5.529247"><ele>164.128</ele><time>2022-09-18T15:06:18Z</time></trkpt><trkpt lat="50.405800" lon="5.529359"><ele>164.913</ele><time>2022-09-18T15:06:19Z</time></trkpt><trkpt lat="50.405764" lon="5.529522"><ele>166.358</ele><time>2022-09-18T15:06:20Z</time></trkpt><trkpt lat="50.405719" lon="5.529726"><ele>167.252</ele><time>2022-09-18T15:06:21Z</time></trkpt><trkpt lat="50.405685" lon="5.529895"><ele>168.149</ele><time>2022-09-18T15:06:22Z</time></trkpt><trkpt lat="50.405663" lon="5.530113"><ele>169.174</ele><time>2022-09-18T15:06:23Z</time></trkpt><trkpt lat="50.405617" lon="5.530298"><ele>170.256</ele><time>2022-09-18T15:06:24Z</time></trkpt><trkpt lat="50.405572" lon="5.530498"><ele>171.021</ele><time>2022-09-18T15:06:25Z</time></trkpt><trkpt lat="50.405533" lon="5.530655"><ele>171.709</ele><time>2022-09-18T15:06:26Z</time></trkpt><trkpt lat="50.405489" lon="5.530872"><ele>172.518</ele><time>2022-09-18T15:06:27Z</time></trkpt><trkpt lat="50.405451" lon="5.531048"><ele>173.378</ele><time>2022-09-18T15:06:28Z</time></trkpt><trkpt lat="50.405416" lon="5.531189"><ele>173.920</ele><time>2022-09-18T15:06:29Z</time></trkpt><trkpt lat="50.405364" lon="5.531372"><ele>174.926</ele><time>2022-09-18T15:06:30Z</time></trkpt><trkpt lat="50.405326" lon="5.531552"><ele>175.891</ele><time>2022-09-18T15:06:31Z</time></trkpt><trkpt lat="50.405296" lon="5.531732"><ele>175.976</ele><time>2022-09-18T15:06:32Z</time></trkpt><trkpt lat="50.405288" lon="5.531933"><ele>175.981</ele><time>2022-09-18T15:06:33Z</time></trkpt><trkpt lat="50.405318" lon="5.532072"><ele>175.315</ele><time>2022-09-18T15:06:34Z</time></trkpt><trkpt lat="50.405345" lon="5.532229"><ele>174.392</ele><time>2022-09-18T15:06:35Z</time></trkpt><trkpt lat="50.405448" lon="5.532292"><ele>172.941</ele><time>2022-09-18T15:06:36Z</time></trkpt><trkpt lat="50.405515" lon="5.532384"><ele>171.681</ele><time>2022-09-18T15:06:37Z</time></trkpt><trkpt lat="50.405597" lon="5.532466"><ele>170.709</ele><time>2022-09-18T15:06:38Z</time></trkpt><trkpt lat="50.405688" lon="5.532544"><ele>170.009</ele><time>2022-09-18T15:06:39Z</time></trkpt><trkpt lat="50.405796" lon="5.532590"><ele>169.945</ele><time>2022-09-18T15:06:40Z</time></trkpt><trkpt lat="50.405900" lon="5.532645"><ele>169.975</ele><time>2022-09-18T15:06:41Z</time></trkpt><trkpt lat="50.406014" lon="5.532714"><ele>170.587</ele><time>2022-09-18T15:06:42Z</time></trkpt><trkpt lat="50.406140" lon="5.532790"><ele>171.223</ele><time>2022-09-18T15:06:43Z</time></trkpt><trkpt lat="50.406271" lon="5.532902"><ele>172.368</ele><time>2022-09-18T15:06:44Z</time></trkpt><trkpt lat="50.406374" lon="5.533047"><ele>173.173</ele><time>2022-09-18T15:06:45Z</time></trkpt><trkpt lat="50.406454" lon="5.533223"><ele>174.168</ele><time>2022-09-18T15:06:46Z</time></trkpt><trkpt lat="50.406529" lon="5.533409"><ele>175.212</ele><time>2022-09-18T15:06:47Z</time></trkpt><trkpt lat="50.406607" lon="5.533606"><ele>176.629</ele><time>2022-09-18T15:06:48Z</time></trkpt><trkpt lat="50.406696" lon="5.533833"><ele>178.241</ele><time>2022-09-18T15:06:49Z</time></trkpt><trkpt lat="50.406793" lon="5.534077"><ele>180.181</ele><time>2022-09-18T15:06:50Z</time></trkpt><trkpt lat="50.406877" lon="5.534288"><ele>182.009</ele><time>2022-09-18T15:06:51Z</time></trkpt><trkpt lat="50.406999" lon="5.534497"><ele>183.709</ele><time>2022-09-18T15:06:52Z</time></trkpt><trkpt lat="50.407121" lon="5.534697"><ele>185.115</ele><time>2022-09-18T15:06:53Z</time></trkpt><trkpt lat="50.407210" lon="5.534940"><ele>186.345</ele><time>2022-09-18T15:06:54Z</time></trkpt><trkpt lat="50.407285" lon="5.535180"><ele>187.337</ele><time>2022-09-18T15:06:55Z</time></trkpt><trkpt lat="50.407383" lon="5.535411"><ele>188.153</ele><time>2022-09-18T15:06:56Z</time></trkpt><trkpt lat="50.407456" lon="5.535668"><ele>188.848</ele><time>2022-09-18T15:06:57Z</time></trkpt><trkpt lat="50.407533" lon="5.535905"><ele>189.523</ele><time>2022-09-18T15:06:58Z</time></trkpt><trkpt lat="50.407645" lon="5.536100"><ele>190.278</ele><time>2022-09-18T15:06:59Z</time></trkpt><trkpt lat="50.407717" lon="5.536312"><ele>190.732</ele><time>2022-09-18T15:07:00Z</time></trkpt><trkpt lat="50.407794" lon="5.536522"><ele>191.199</ele><time>2022-09-18T15:07:01Z</time></trkpt><trkpt lat="50.407877" lon="5.536734"><ele>191.311</ele><time>2022-09-18T15:07:02Z</time></trkpt><trkpt lat="50.407946" lon="5.536906"><ele>191.421</ele><time>2022-09-18T15:07:03Z</time></trkpt><trkpt lat="50.408005" lon="5.537052"><ele>191.503</ele><time>2022-09-18T15:07:04Z</time></trkpt><trkpt lat="50.408085" lon="5.537247"><ele>191.909</ele><time>2022-09-18T15:07:05Z</time></trkpt><trkpt lat="50.408154" lon="5.537402"><ele>192.192</ele><time>2022-09-18T15:07:06Z</time></trkpt><trkpt lat="50.408228" lon="5.537542"><ele>192.512</ele><time>2022-09-18T15:07:07Z</time></trkpt><trkpt lat="50.408294" lon="5.537663"><ele>193.144</ele><time>2022-09-18T15:07:08Z</time></trkpt><trkpt lat="50.408376" lon="5.537806"><ele>193.680</ele><time>2022-09-18T15:07:09Z</time></trkpt><trkpt lat="50.408455" lon="5.537941"><ele>193.995</ele><time>2022-09-18T15:07:10Z</time></trkpt><trkpt lat="50.408535" lon="5.538074"><ele>194.470</ele><time>2022-09-18T15:07:11Z</time></trkpt><trkpt lat="50.408613" lon="5.538235"><ele>194.715</ele><time>2022-09-18T15:07:12Z</time></trkpt><trkpt lat="50.408691" lon="5.538424"><ele>195.149</ele><time>2022-09-18T15:07:13Z</time></trkpt><trkpt lat="50.408761" lon="5.538621"><ele>195.436</ele><time>2022-09-18T15:07:14Z</time></trkpt><trkpt lat="50.408838" lon="5.538831"><ele>195.755</ele><time>2022-09-18T15:07:15Z</time></trkpt><trkpt lat="50.408914" lon="5.539029"><ele>196.007</ele><time>2022-09-18T15:07:16Z</time></trkpt><trkpt lat="50.408982" lon="5.539227"><ele>196.317</ele><time>2022-09-18T15:07:17Z</time></trkpt><trkpt lat="50.409053" lon="5.539445"><ele>196.709</ele><time>2022-09-18T15:07:18Z</time></trkpt><trkpt lat="50.409132" lon="5.539669"><ele>197.126</ele><time>2022-09-18T15:07:19Z</time></trkpt><trkpt lat="50.409215" lon="5.539895"><ele>197.416</ele><time>2022-09-18T15:07:20Z</time></trkpt><trkpt lat="50.409296" lon="5.540117"><ele>197.618</ele><time>2022-09-18T15:07:21Z</time></trkpt><trkpt lat="50.409352" lon="5.540358"><ele>197.944</ele><time>2022-09-18T15:07:22Z</time></trkpt><trkpt lat="50.409415" lon="5.540582"><ele>198.329</ele><time>2022-09-18T15:07:23Z</time></trkpt><trkpt lat="50.409498" lon="5.540802"><ele>198.914</ele><time>2022-09-18T15:07:24Z</time></trkpt><trkpt lat="50.409552" lon="5.541038"><ele>199.669</ele><time>2022-09-18T15:07:25Z</time></trkpt><trkpt lat="50.409620" lon="5.541253"><ele>200.313</ele><time>2022-09-18T15:07:26Z</time></trkpt><trkpt lat="50.409687" lon="5.541472"><ele>201.090</ele><time>2022-09-18T15:07:27Z</time></trkpt><trkpt lat="50.409778" lon="5.541688"><ele>201.612</ele><time>2022-09-18T15:07:28Z</time></trkpt><trkpt lat="50.409881" lon="5.541904"><ele>202.132</ele><time>2022-09-18T15:07:29Z</time></trkpt><trkpt lat="50.409977" lon="5.542112"><ele>202.605</ele><time>2022-09-18T15:07:30Z</time></trkpt><trkpt lat="50.410061" lon="5.542346"><ele>203.109</ele><time>2022-09-18T15:07:31Z</time></trkpt><trkpt lat="50.410148" lon="5.542556"><ele>203.542</ele><time>2022-09-18T15:07:32Z</time></trkpt><trkpt lat="50.410238" lon="5.542736"><ele>203.762</ele><time>2022-09-18T15:07:33Z</time></trkpt><trkpt lat="50.410325" lon="5.542922"><ele>203.874</ele><time>2022-09-18T15:07:34Z</time></trkpt><trkpt lat="50.410423" lon="5.543079"><ele>203.610</ele><time>2022-09-18T15:07:35Z</time></trkpt><trkpt lat="50.410532" lon="5.543232"><ele>203.325</ele><time>2022-09-18T15:07:36Z</time></trkpt><trkpt lat="50.410651" lon="5.543400"><ele>203.080</ele><time>2022-09-18T15:07:37Z</time></trkpt><trkpt lat="50.410756" lon="5.543573"><ele>202.625</ele><time>2022-09-18T15:07:38Z</time></trkpt><trkpt lat="50.410848" lon="5.543778"><ele>202.299</ele><time>2022-09-18T15:07:39Z</time></trkpt><trkpt lat="50.410935" lon="5.543962"><ele>202.056</ele><time>2022-09-18T15:07:40Z</time></trkpt><trkpt lat="50.411024" lon="5.544137"><ele>201.885</ele><time>2022-09-18T15:07:41Z</time></trkpt><trkpt lat="50.411119" lon="5.544304"><ele>201.589</ele><time>2022-09-18T15:07:42Z</time></trkpt><trkpt lat="50.411223" lon="5.544487"><ele>201.417</ele><time>2022-09-18T15:07:43Z</time></trkpt><trkpt lat="50.411329" lon="5.544647"><ele>201.409</ele><time>2022-09-18T15:07:44Z</time></trkpt><trkpt lat="50.411434" lon="5.544794"><ele>201.559</ele><time>2022-09-18T15:07:45Z</time></trkpt><trkpt lat="50.411532" lon="5.544959"><ele>201.769</ele><time>2022-09-18T15:07:46Z</time></trkpt><trkpt lat="50.411613" lon="5.545121"><ele>202.121</ele><time>2022-09-18T15:07:47Z</time></trkpt><trkpt lat="50.411705" lon="5.545290"><ele>202.667</ele><time>2022-09-18T15:07:48Z</time></trkpt><trkpt lat="50.411806" lon="5.545462"><ele>203.022</ele><time>2022-09-18T15:07:49Z</time></trkpt><trkpt lat="50.411888" lon="5.545620"><ele>203.477</ele><time>2022-09-18T15:07:50Z</time></trkpt><trkpt lat="50.411965" lon="5.545796"><ele>203.682</ele><time>2022-09-18T15:07:51Z</time></trkpt><trkpt lat="50.412044" lon="5.545980"><ele>204.116</ele><time>2022-09-18T15:07:52Z</time></trkpt><trkpt lat="50.412122" lon="5.546148"><ele>204.453</ele><time>2022-09-18T15:07:53Z</time></trkpt><trkpt lat="50.412210" lon="5.546327"><ele>204.878</ele><time>2022-09-18T15:07:54Z</time></trkpt><trkpt lat="50.412297" lon="5.546522"><ele>205.333</ele><time>2022-09-18T15:07:55Z</time></trkpt><trkpt lat="50.412387" lon="5.546705"><ele>205.826</ele><time>2022-09-18T15:07:56Z</time></trkpt><trkpt lat="50.412465" lon="5.546924"><ele>206.309</ele><time>2022-09-18T15:07:57Z</time></trkpt><trkpt lat="50.412543" lon="5.547139"><ele>206.758</ele><time>2022-09-18T15:07:58Z</time></trkpt><trkpt lat="50.412619" lon="5.547349"><ele>207.068</ele><time>2022-09-18T15:07:59Z</time></trkpt><trkpt lat="50.412698" lon="5.547534"><ele>207.310</ele><time>2022-09-18T15:08:00Z</time></trkpt><trkpt lat="50.412788" lon="5.547735"><ele>207.456</ele><time>2022-09-18T15:08:01Z</time></trkpt><trkpt lat="50.412872" lon="5.547926"><ele>207.511</ele><time>2022-09-18T15:08:02Z</time></trkpt><trkpt lat="50.412955" lon="5.548101"><ele>207.766</ele><time>2022-09-18T15:08:03Z</time></trkpt><trkpt lat="50.413049" lon="5.548295"><ele>207.941</ele><time>2022-09-18T15:08:04Z</time></trkpt><trkpt lat="50.413135" lon="5.548476"><ele>208.135</ele><time>2022-09-18T15:08:05Z</time></trkpt><trkpt lat="50.413238" lon="5.548646"><ele>208.442</ele><time>2022-09-18T15:08:06Z</time></trkpt><trkpt lat="50.413352" lon="5.548826"><ele>208.721</ele><time>2022-09-18T15:08:07Z</time></trkpt><trkpt lat="50.413471" lon="5.549011"><ele>208.941</ele><time>2022-09-18T15:08:08Z</time></trkpt><trkpt lat="50.413590" lon="5.549170"><ele>209.205</ele><time>2022-09-18T15:08:09Z</time></trkpt><trkpt lat="50.413698" lon="5.549362"><ele>209.509</ele><time>2022-09-18T15:08:10Z</time></trkpt><trkpt lat="50.413788" lon="5.549556"><ele>209.853</ele><time>2022-09-18T15:08:11Z</time></trkpt><trkpt lat="50.413882" lon="5.549772"><ele>210.163</ele><time>2022-09-18T15:08:12Z</time></trkpt><trkpt lat="50.413982" lon="5.549988"><ele>210.555</ele><time>2022-09-18T15:08:13Z</time></trkpt><trkpt lat="50.414078" lon="5.550196"><ele>210.921</ele><time>2022-09-18T15:08:14Z</time></trkpt><trkpt lat="50.414177" lon="5.550409"><ele>211.496</ele><time>2022-09-18T15:08:15Z</time></trkpt><trkpt lat="50.414272" lon="5.550613"><ele>212.181</ele><time>2022-09-18T15:08:16Z</time></trkpt><trkpt lat="50.414366" lon="5.550814"><ele>212.836</ele><time>2022-09-18T15:08:17Z</time></trkpt><trkpt lat="50.414462" lon="5.551019"><ele>213.420</ele><time>2022-09-18T15:08:18Z</time></trkpt><trkpt lat="50.414560" lon="5.551229"><ele>214.017</ele><time>2022-09-18T15:08:19Z</time></trkpt><trkpt lat="50.414659" lon="5.551440"><ele>214.524</ele><time>2022-09-18T15:08:20Z</time></trkpt><trkpt lat="50.414755" lon="5.551639"><ele>214.904</ele><time>2022-09-18T15:08:21Z</time></trkpt><trkpt lat="50.414856" lon="5.551842"><ele>215.414</ele><time>2022-09-18T15:08:22Z</time></trkpt><trkpt lat="50.414956" lon="5.552037"><ele>215.809</ele><time>2022-09-18T15:08:23Z</time></trkpt><trkpt lat="50.415054" lon="5.552224"><ele>216.253</ele><time>2022-09-18T15:08:24Z</time></trkpt><trkpt lat="50.415159" lon="5.552424"><ele>216.643</ele><time>2022-09-18T15:08:25Z</time></trkpt><trkpt lat="50.415261" lon="5.552617"><ele>217.115</ele><time>2022-09-18T15:08:26Z</time></trkpt><trkpt lat="50.415360" lon="5.552806"><ele>217.671</ele><time>2022-09-18T15:08:27Z</time></trkpt><trkpt lat="50.415462" lon="5.553001"><ele>218.136</ele><time>2022-09-18T15:08:28Z</time></trkpt><trkpt lat="50.415561" lon="5.553190"><ele>218.661</ele><time>2022-09-18T15:08:29Z</time></trkpt><trkpt lat="50.415663" lon="5.553383"><ele>219.226</ele><time>2022-09-18T15:08:30Z</time></trkpt><trkpt lat="50.415764" lon="5.553576"><ele>219.830</ele><time>2022-09-18T15:08:31Z</time></trkpt><trkpt lat="50.415867" lon="5.553774"><ele>220.317</ele><time>2022-09-18T15:08:32Z</time></trkpt><trkpt lat="50.415969" lon="5.553970"><ele>220.998</ele><time>2022-09-18T15:08:33Z</time></trkpt><trkpt lat="50.416067" lon="5.554158"><ele>221.715</ele><time>2022-09-18T15:08:34Z</time></trkpt><trkpt lat="50.416163" lon="5.554341"><ele>222.426</ele><time>2022-09-18T15:08:35Z</time></trkpt><trkpt lat="50.416260" lon="5.554526"><ele>223.109</ele><time>2022-09-18T15:08:36Z</time></trkpt><trkpt lat="50.416356" lon="5.554711"><ele>223.860</ele><time>2022-09-18T15:08:37Z</time></trkpt><trkpt lat="50.416458" lon="5.554904"><ele>224.590</ele><time>2022-09-18T15:08:38Z</time></trkpt><trkpt lat="50.416564" lon="5.555097"><ele>225.362</ele><time>2022-09-18T15:08:39Z</time></trkpt><trkpt lat="50.416674" lon="5.555279"><ele>226.288</ele><time>2022-09-18T15:08:40Z</time></trkpt><trkpt lat="50.416786" lon="5.555455"><ele>227.093</ele><time>2022-09-18T15:08:41Z</time></trkpt><trkpt lat="50.416910" lon="5.555632"><ele>228.078</ele><time>2022-09-18T15:08:42Z</time></trkpt><trkpt lat="50.417031" lon="5.555786"><ele>229.063</ele><time>2022-09-18T15:08:43Z</time></trkpt><trkpt lat="50.417161" lon="5.555915"><ele>229.987</ele><time>2022-09-18T15:08:44Z</time></trkpt><trkpt lat="50.417279" lon="5.556073"><ele>230.884</ele><time>2022-09-18T15:08:45Z</time></trkpt><trkpt lat="50.417392" lon="5.556207"><ele>231.825</ele><time>2022-09-18T15:08:46Z</time></trkpt><trkpt lat="50.417514" lon="5.556346"><ele>232.826</ele><time>2022-09-18T15:08:47Z</time></trkpt><trkpt lat="50.417638" lon="5.556487"><ele>233.808</ele><time>2022-09-18T15:08:48Z</time></trkpt><trkpt lat="50.417752" lon="5.556632"><ele>234.809</ele><time>2022-09-18T15:08:49Z</time></trkpt><trkpt lat="50.417874" lon="5.556784"><ele>235.763</ele><time>2022-09-18T15:08:50Z</time></trkpt><trkpt lat="50.418002" lon="5.556908"><ele>236.593</ele><time>2022-09-18T15:08:51Z</time></trkpt><trkpt lat="50.418131" lon="5.557046"><ele>237.225</ele><time>2022-09-18T15:08:52Z</time></trkpt><trkpt lat="50.418251" lon="5.557195"><ele>237.811</ele><time>2022-09-18T15:08:53Z</time></trkpt><trkpt lat="50.418372" lon="5.557322"><ele>238.376</ele><time>2022-09-18T15:08:54Z</time></trkpt><trkpt lat="50.418509" lon="5.557463"><ele>238.871</ele><time>2022-09-18T15:08:55Z</time></trkpt><trkpt lat="50.418647" lon="5.557572"><ele>239.326</ele><time>2022-09-18T15:08:56Z</time></trkpt><trkpt lat="50.418749" lon="5.557697"><ele>239.880</ele><time>2022-09-18T15:08:57Z</time></trkpt><trkpt lat="50.418847" lon="5.557827"><ele>240.127</ele><time>2022-09-18T15:08:58Z</time></trkpt><trkpt lat="50.418964" lon="5.557944"><ele>240.628</ele><time>2022-09-18T15:08:59Z</time></trkpt><trkpt lat="50.419108" lon="5.558051"><ele>241.589</ele><time>2022-09-18T15:09:00Z</time></trkpt><trkpt lat="50.419225" lon="5.558198"><ele>241.817</ele><time>2022-09-18T15:09:01Z</time></trkpt><trkpt lat="50.419350" lon="5.558365"><ele>241.809</ele><time>2022-09-18T15:09:02Z</time></trkpt><trkpt lat="50.419464" lon="5.558519"><ele>241.733</ele><time>2022-09-18T15:09:03Z</time></trkpt><trkpt lat="50.419577" lon="5.558672"><ele>241.563</ele><time>2022-09-18T15:09:04Z</time></trkpt><trkpt lat="50.419675" lon="5.558810"><ele>241.065</ele><time>2022-09-18T15:09:05Z</time></trkpt><trkpt lat="50.419773" lon="5.558948"><ele>240.731</ele><time>2022-09-18T15:09:06Z</time></trkpt><trkpt lat="50.419860" lon="5.559072"><ele>240.146</ele><time>2022-09-18T15:09:07Z</time></trkpt><trkpt lat="50.419969" lon="5.559175"><ele>239.531</ele><time>2022-09-18T15:09:08Z</time></trkpt><trkpt lat="50.420060" lon="5.559294"><ele>238.996</ele><time>2022-09-18T15:09:09Z</time></trkpt><trkpt lat="50.420144" lon="5.559437"><ele>238.110</ele><time>2022-09-18T15:09:10Z</time></trkpt><trkpt lat="50.420237" lon="5.559571"><ele>237.377</ele><time>2022-09-18T15:09:11Z</time></trkpt><trkpt lat="50.420328" lon="5.559695"><ele>236.628</ele><time>2022-09-18T15:09:12Z</time></trkpt><trkpt lat="50.420428" lon="5.559827"><ele>235.889</ele><time>2022-09-18T15:09:13Z</time></trkpt><trkpt lat="50.420523" lon="5.559936"><ele>234.817</ele><time>2022-09-18T15:09:14Z</time></trkpt><trkpt lat="50.420628" lon="5.560037"><ele>234.009</ele><time>2022-09-18T15:09:15Z</time></trkpt><trkpt lat="50.420745" lon="5.560151"><ele>233.043</ele><time>2022-09-18T15:09:16Z</time></trkpt><trkpt lat="50.420837" lon="5.560259"><ele>231.953</ele><time>2022-09-18T15:09:17Z</time></trkpt><trkpt lat="50.420932" lon="5.560384"><ele>231.165</ele><time>2022-09-18T15:09:18Z</time></trkpt><trkpt lat="50.421013" lon="5.560515"><ele>230.381</ele><time>2022-09-18T15:09:19Z</time></trkpt><trkpt lat="50.421085" lon="5.560661"><ele>229.556</ele><time>2022-09-18T15:09:20Z</time></trkpt><trkpt lat="50.421176" lon="5.560808"><ele>228.891</ele><time>2022-09-18T15:09:21Z</time></trkpt><trkpt lat="50.421267" lon="5.560939"><ele>228.156</ele><time>2022-09-18T15:09:22Z</time></trkpt><trkpt lat="50.421383" lon="5.561088"><ele>226.830</ele><time>2022-09-18T15:09:23Z</time></trkpt><trkpt lat="50.421492" lon="5.561233"><ele>225.957</ele><time>2022-09-18T15:09:24Z</time></trkpt><trkpt lat="50.421613" lon="5.561369"><ele>225.177</ele><time>2022-09-18T15:09:25Z</time></trkpt><trkpt lat="50.421729" lon="5.561521"><ele>224.561</ele><time>2022-09-18T15:09:26Z</time></trkpt><trkpt lat="50.421852" lon="5.561664"><ele>224.027</ele><time>2022-09-18T15:09:27Z</time></trkpt><trkpt lat="50.421977" lon="5.561812"><ele>223.409</ele><time>2022-09-18T15:09:28Z</time></trkpt><trkpt lat="50.422091" lon="5.561944"><ele>222.818</ele><time>2022-09-18T15:09:29Z</time></trkpt><trkpt lat="50.422203" lon="5.562092"><ele>222.368</ele><time>2022-09-18T15:09:30Z</time></trkpt><trkpt lat="50.422301" lon="5.562212"><ele>221.980</ele><time>2022-09-18T15:09:31Z</time></trkpt><trkpt lat="50.422408" lon="5.562343"><ele>221.736</ele><time>2022-09-18T15:09:32Z</time></trkpt><trkpt lat="50.422514" lon="5.562458"><ele>221.391</ele><time>2022-09-18T15:09:33Z</time></trkpt><trkpt lat="50.422620" lon="5.562566"><ele>221.126</ele><time>2022-09-18T15:09:34Z</time></trkpt><trkpt lat="50.422707" lon="5.562656"><ele>220.831</ele><time>2022-09-18T15:09:35Z</time></trkpt><trkpt lat="50.422804" lon="5.562754"><ele>220.235</ele><time>2022-09-18T15:09:36Z</time></trkpt><trkpt lat="50.422893" lon="5.562833"><ele>219.552</ele><time>2022-09-18T15:09:37Z</time></trkpt><trkpt lat="50.422980" lon="5.562914"><ele>218.867</ele><time>2022-09-18T15:09:38Z</time></trkpt><trkpt lat="50.423042" lon="5.563003"><ele>218.181</ele><time>2022-09-18T15:09:39Z</time></trkpt><trkpt lat="50.423088" lon="5.563084"><ele>217.819</ele><time>2022-09-18T15:09:40Z</time></trkpt><trkpt lat="50.423126" lon="5.563145"><ele>217.209</ele><time>2022-09-18T15:09:41Z</time></trkpt><trkpt lat="50.423158" lon="5.563196"><ele>216.937</ele><time>2022-09-18T15:09:43Z</time></trkpt><trkpt lat="50.423233" lon="5.563273"><ele>216.447</ele><time>2022-09-18T15:09:57Z</time></trkpt><trkpt lat="50.423264" lon="5.563351"><ele>215.689</ele><time>2022-09-18T15:10:00Z</time></trkpt><trkpt lat="50.423341" lon="5.563126"><ele>214.995</ele><time>2022-09-18T15:10:02Z</time></trkpt><trkpt lat="50.423313" lon="5.563001"><ele>214.720</ele><time>2022-09-18T15:10:03Z</time></trkpt><trkpt lat="50.423292" lon="5.562843"><ele>214.575</ele><time>2022-09-18T15:10:04Z</time></trkpt><trkpt lat="50.423265" lon="5.562670"><ele>214.490</ele><time>2022-09-18T15:10:05Z</time></trkpt><trkpt lat="50.423246" lon="5.562480"><ele>214.264</ele><time>2022-09-18T15:10:06Z</time></trkpt><trkpt lat="50.423224" lon="5.562239"><ele>213.711</ele><time>2022-09-18T15:10:07Z</time></trkpt><trkpt lat="50.423205" lon="5.562040"><ele>213.239</ele><time>2022-09-18T15:10:08Z</time></trkpt><trkpt lat="50.423189" lon="5.561831"><ele>212.901</ele><time>2022-09-18T15:10:09Z</time></trkpt><trkpt lat="50.423173" lon="5.561629"><ele>212.321</ele><time>2022-09-18T15:10:10Z</time></trkpt><trkpt lat="50.423185" lon="5.561424"><ele>211.809</ele><time>2022-09-18T15:10:11Z</time></trkpt><trkpt lat="50.423167" lon="5.561221"><ele>211.274</ele><time>2022-09-18T15:10:12Z</time></trkpt><trkpt lat="50.423145" lon="5.561000"><ele>210.594</ele><time>2022-09-18T15:10:13Z</time></trkpt><trkpt lat="50.423129" lon="5.560794"><ele>209.996</ele><time>2022-09-18T15:10:14Z</time></trkpt><trkpt lat="50.423113" lon="5.560572"><ele>209.342</ele><time>2022-09-18T15:10:15Z</time></trkpt><trkpt lat="50.423094" lon="5.560380"><ele>209.087</ele><time>2022-09-18T15:10:16Z</time></trkpt><trkpt lat="50.423073" lon="5.560177"><ele>208.662</ele><time>2022-09-18T15:10:17Z</time></trkpt><trkpt lat="50.423055" lon="5.559995"><ele>208.027</ele><time>2022-09-18T15:10:18Z</time></trkpt><trkpt lat="50.423047" lon="5.559804"><ele>207.471</ele><time>2022-09-18T15:10:19Z</time></trkpt><trkpt lat="50.423064" lon="5.559584"><ele>206.718</ele><time>2022-09-18T15:10:20Z</time></trkpt><trkpt lat="50.423102" lon="5.559390"><ele>205.258</ele><time>2022-09-18T15:10:21Z</time></trkpt><trkpt lat="50.423152" lon="5.559210"><ele>204.652</ele><time>2022-09-18T15:10:22Z</time></trkpt><trkpt lat="50.423241" lon="5.559067"><ele>203.517</ele><time>2022-09-18T15:10:23Z</time></trkpt><trkpt lat="50.423338" lon="5.558935"><ele>202.509</ele><time>2022-09-18T15:10:24Z</time></trkpt><trkpt lat="50.423423" lon="5.558792"><ele>201.716</ele><time>2022-09-18T15:10:25Z</time></trkpt><trkpt lat="50.423520" lon="5.558674"><ele>201.076</ele><time>2022-09-18T15:10:26Z</time></trkpt><trkpt lat="50.423599" lon="5.558523"><ele>200.448</ele><time>2022-09-18T15:10:27Z</time></trkpt><trkpt lat="50.423677" lon="5.558403"><ele>200.024</ele><time>2022-09-18T15:10:28Z</time></trkpt><trkpt lat="50.423755" lon="5.558259"><ele>199.529</ele><time>2022-09-18T15:10:29Z</time></trkpt><trkpt lat="50.423816" lon="5.558078"><ele>199.094</ele><time>2022-09-18T15:10:30Z</time></trkpt><trkpt lat="50.423853" lon="5.557889"><ele>198.549</ele><time>2022-09-18T15:10:31Z</time></trkpt><trkpt lat="50.423871" lon="5.557689"><ele>197.933</ele><time>2022-09-18T15:10:32Z</time></trkpt><trkpt lat="50.423873" lon="5.557487"><ele>197.210</ele><time>2022-09-18T15:10:33Z</time></trkpt><trkpt lat="50.423865" lon="5.557279"><ele>196.558</ele><time>2022-09-18T15:10:34Z</time></trkpt><trkpt lat="50.423841" lon="5.557055"><ele>195.652</ele><time>2022-09-18T15:10:35Z</time></trkpt><trkpt lat="50.423821" lon="5.556816"><ele>195.117</ele><time>2022-09-18T15:10:36Z</time></trkpt><trkpt lat="50.423790" lon="5.556560"><ele>194.609</ele><time>2022-09-18T15:10:37Z</time></trkpt><trkpt lat="50.423781" lon="5.556307"><ele>194.136</ele><time>2022-09-18T15:10:38Z</time></trkpt><trkpt lat="50.423762" lon="5.556062"><ele>193.496</ele><time>2022-09-18T15:10:39Z</time></trkpt><trkpt lat="50.423744" lon="5.555810"><ele>192.418</ele><time>2022-09-18T15:10:40Z</time></trkpt><trkpt lat="50.423727" lon="5.555565"><ele>191.434</ele><time>2022-09-18T15:10:41Z</time></trkpt><trkpt lat="50.423737" lon="5.555351"><ele>190.469</ele><time>2022-09-18T15:10:42Z</time></trkpt><trkpt lat="50.423756" lon="5.555123"><ele>189.414</ele><time>2022-09-18T15:10:43Z</time></trkpt><trkpt lat="50.423789" lon="5.554913"><ele>188.499</ele><time>2022-09-18T15:10:44Z</time></trkpt><trkpt lat="50.423825" lon="5.554709"><ele>187.633</ele><time>2022-09-18T15:10:45Z</time></trkpt><trkpt lat="50.423858" lon="5.554518"><ele>187.250</ele><time>2022-09-18T15:10:46Z</time></trkpt><trkpt lat="50.423879" lon="5.554340"><ele>186.387</ele><time>2022-09-18T15:10:47Z</time></trkpt><trkpt lat="50.423927" lon="5.554156"><ele>185.442</ele><time>2022-09-18T15:10:48Z</time></trkpt><trkpt lat="50.423967" lon="5.553947"><ele>184.826</ele><time>2022-09-18T15:10:49Z</time></trkpt><trkpt lat="50.424013" lon="5.553714"><ele>183.809</ele><time>2022-09-18T15:10:50Z</time></trkpt><trkpt lat="50.424056" lon="5.553496"><ele>183.119</ele><time>2022-09-18T15:10:51Z</time></trkpt><trkpt lat="50.424098" lon="5.553279"><ele>182.489</ele><time>2022-09-18T15:10:52Z</time></trkpt><trkpt lat="50.424139" lon="5.553067"><ele>181.651</ele><time>2022-09-18T15:10:53Z</time></trkpt><trkpt lat="50.424177" lon="5.552869"><ele>180.727</ele><time>2022-09-18T15:10:54Z</time></trkpt><trkpt lat="50.424215" lon="5.552668"><ele>180.382</ele><time>2022-09-18T15:10:55Z</time></trkpt><trkpt lat="50.424253" lon="5.552464"><ele>179.317</ele><time>2022-09-18T15:10:56Z</time></trkpt><trkpt lat="50.424291" lon="5.552263"><ele>178.672</ele><time>2022-09-18T15:10:57Z</time></trkpt><trkpt lat="50.424329" lon="5.552064"><ele>178.246</ele><time>2022-09-18T15:10:58Z</time></trkpt><trkpt lat="50.424375" lon="5.551824"><ele>177.123</ele><time>2022-09-18T15:10:59Z</time></trkpt><trkpt lat="50.424417" lon="5.551602"><ele>176.386</ele><time>2022-09-18T15:11:00Z</time></trkpt><trkpt lat="50.424464" lon="5.551359"><ele>175.360</ele><time>2022-09-18T15:11:01Z</time></trkpt><trkpt lat="50.424507" lon="5.551132"><ele>174.426</ele><time>2022-09-18T15:11:02Z</time></trkpt><trkpt lat="50.424552" lon="5.550897"><ele>173.709</ele><time>2022-09-18T15:11:03Z</time></trkpt><trkpt lat="50.424599" lon="5.550647"><ele>173.059</ele><time>2022-09-18T15:11:04Z</time></trkpt><trkpt lat="50.424633" lon="5.550463"><ele>172.459</ele><time>2022-09-18T15:11:05Z</time></trkpt><trkpt lat="50.424663" lon="5.550224"><ele>171.721</ele><time>2022-09-18T15:11:06Z</time></trkpt><trkpt lat="50.424681" lon="5.549988"><ele>171.087</ele><time>2022-09-18T15:11:07Z</time></trkpt><trkpt lat="50.424690" lon="5.549725"><ele>170.362</ele><time>2022-09-18T15:11:08Z</time></trkpt><trkpt lat="50.424686" lon="5.549472"><ele>169.537</ele><time>2022-09-18T15:11:09Z</time></trkpt><trkpt lat="50.424670" lon="5.549215"><ele>168.642</ele><time>2022-09-18T15:11:10Z</time></trkpt><trkpt lat="50.424632" lon="5.548961"><ele>167.756</ele><time>2022-09-18T15:11:11Z</time></trkpt><trkpt lat="50.424573" lon="5.548726"><ele>166.873</ele><time>2022-09-18T15:11:12Z</time></trkpt><trkpt lat="50.424495" lon="5.548503"><ele>165.848</ele><time>2022-09-18T15:11:13Z</time></trkpt><trkpt lat="50.424412" lon="5.548285"><ele>164.961</ele><time>2022-09-18T15:11:14Z</time></trkpt><trkpt lat="50.424307" lon="5.548064"><ele>164.117</ele><time>2022-09-18T15:11:15Z</time></trkpt><trkpt lat="50.424195" lon="5.547853"><ele>163.409</ele><time>2022-09-18T15:11:16Z</time></trkpt><trkpt lat="50.424064" lon="5.547615"><ele>162.825</ele><time>2022-09-18T15:11:17Z</time></trkpt><trkpt lat="50.423937" lon="5.547382"><ele>162.395</ele><time>2022-09-18T15:11:18Z</time></trkpt><trkpt lat="50.423822" lon="5.547166"><ele>161.887</ele><time>2022-09-18T15:11:19Z</time></trkpt><trkpt lat="50.423697" lon="5.546926"><ele>161.213</ele><time>2022-09-18T15:11:20Z</time></trkpt><trkpt lat="50.423583" lon="5.546705"><ele>160.388</ele><time>2022-09-18T15:11:21Z</time></trkpt><trkpt lat="50.423482" lon="5.546511"><ele>159.223</ele><time>2022-09-18T15:11:22Z</time></trkpt><trkpt lat="50.423391" lon="5.546336"><ele>158.098</ele><time>2022-09-18T15:11:23Z</time></trkpt><trkpt lat="50.423297" lon="5.546134"><ele>156.732</ele><time>2022-09-18T15:11:24Z</time></trkpt><trkpt lat="50.423200" lon="5.545909"><ele>155.369</ele><time>2022-09-18T15:11:25Z</time></trkpt><trkpt lat="50.423130" lon="5.545702"><ele>154.021</ele><time>2022-09-18T15:11:26Z</time></trkpt><trkpt lat="50.423059" lon="5.545472"><ele>152.941</ele><time>2022-09-18T15:11:27Z</time></trkpt><trkpt lat="50.422988" lon="5.545241"><ele>151.805</ele><time>2022-09-18T15:11:28Z</time></trkpt><trkpt lat="50.422922" lon="5.545020"><ele>150.709</ele><time>2022-09-18T15:11:29Z</time></trkpt><trkpt lat="50.422857" lon="5.544805"><ele>149.663</ele><time>2022-09-18T15:11:30Z</time></trkpt><trkpt lat="50.422805" lon="5.544575"><ele>148.523</ele><time>2022-09-18T15:11:31Z</time></trkpt><trkpt lat="50.422763" lon="5.544380"><ele>147.425</ele><time>2022-09-18T15:11:32Z</time></trkpt><trkpt lat="50.422716" lon="5.544159"><ele>146.441</ele><time>2022-09-18T15:11:33Z</time></trkpt><trkpt lat="50.422669" lon="5.543938"><ele>145.536</ele><time>2022-09-18T15:11:34Z</time></trkpt><trkpt lat="50.422635" lon="5.543746"><ele>144.551</ele><time>2022-09-18T15:11:35Z</time></trkpt><trkpt lat="50.422608" lon="5.543546"><ele>144.186</ele><time>2022-09-18T15:11:36Z</time></trkpt><trkpt lat="50.422614" lon="5.543343"><ele>143.480</ele><time>2022-09-18T15:11:37Z</time></trkpt><trkpt lat="50.422670" lon="5.543166"><ele>142.667</ele><time>2022-09-18T15:11:38Z</time></trkpt><trkpt lat="50.422747" lon="5.542990"><ele>141.834</ele><time>2022-09-18T15:11:39Z</time></trkpt><trkpt lat="50.422851" lon="5.542833"><ele>140.855</ele><time>2022-09-18T15:11:40Z</time></trkpt><trkpt lat="50.422961" lon="5.542693"><ele>140.110</ele><time>2022-09-18T15:11:41Z</time></trkpt><trkpt lat="50.423065" lon="5.542586"><ele>139.709</ele><time>2022-09-18T15:11:42Z</time></trkpt><trkpt lat="50.423152" lon="5.542402"><ele>138.644</ele><time>2022-09-18T15:11:43Z</time></trkpt><trkpt lat="50.423239" lon="5.542237"><ele>137.734</ele><time>2022-09-18T15:11:44Z</time></trkpt><trkpt lat="50.423291" lon="5.542078"><ele>137.376</ele><time>2022-09-18T15:11:45Z</time></trkpt><trkpt lat="50.423315" lon="5.541905"><ele>136.582</ele><time>2022-09-18T15:11:46Z</time></trkpt><trkpt lat="50.423294" lon="5.541702"><ele>135.847</ele><time>2022-09-18T15:11:47Z</time></trkpt><trkpt lat="50.423291" lon="5.541486"><ele>135.182</ele><time>2022-09-18T15:11:48Z</time></trkpt><trkpt lat="50.423304" lon="5.541252"><ele>134.357</ele><time>2022-09-18T15:11:49Z</time></trkpt><trkpt lat="50.423346" lon="5.541030"><ele>133.781</ele><time>2022-09-18T15:11:50Z</time></trkpt><trkpt lat="50.423405" lon="5.540830"><ele>133.158</ele><time>2022-09-18T15:11:51Z</time></trkpt><trkpt lat="50.423480" lon="5.540626"><ele>132.428</ele><time>2022-09-18T15:11:52Z</time></trkpt><trkpt lat="50.423569" lon="5.540446"><ele>131.789</ele><time>2022-09-18T15:11:53Z</time></trkpt><trkpt lat="50.423670" lon="5.540282"><ele>130.917</ele><time>2022-09-18T15:11:54Z</time></trkpt><trkpt lat="50.423762" lon="5.540129"><ele>130.009</ele><time>2022-09-18T15:11:55Z</time></trkpt><trkpt lat="50.423848" lon="5.539977"><ele>129.593</ele><time>2022-09-18T15:11:56Z</time></trkpt><trkpt lat="50.423975" lon="5.539875"><ele>127.963</ele><time>2022-09-18T15:11:57Z</time></trkpt><trkpt lat="50.424068" lon="5.539749"><ele>127.465</ele><time>2022-09-18T15:11:58Z</time></trkpt><trkpt lat="50.424170" lon="5.539606"><ele>126.471</ele><time>2022-09-18T15:11:59Z</time></trkpt><trkpt lat="50.424256" lon="5.539488"><ele>125.556</ele><time>2022-09-18T15:12:00Z</time></trkpt><trkpt lat="50.424343" lon="5.539375"><ele>124.751</ele><time>2022-09-18T15:12:01Z</time></trkpt><trkpt lat="50.424423" lon="5.539270"><ele>124.276</ele><time>2022-09-18T15:12:02Z</time></trkpt><trkpt lat="50.424497" lon="5.539163"><ele>123.550</ele><time>2022-09-18T15:12:03Z</time></trkpt><trkpt lat="50.424580" lon="5.539048"><ele>122.997</ele><time>2022-09-18T15:12:04Z</time></trkpt><trkpt lat="50.424662" lon="5.538935"><ele>122.289</ele><time>2022-09-18T15:12:05Z</time></trkpt><trkpt lat="50.424750" lon="5.538813"><ele>121.606</ele><time>2022-09-18T15:12:06Z</time></trkpt><trkpt lat="50.424840" lon="5.538697"><ele>120.826</ele><time>2022-09-18T15:12:07Z</time></trkpt><trkpt lat="50.424934" lon="5.538579"><ele>120.109</ele><time>2022-09-18T15:12:08Z</time></trkpt><trkpt lat="50.425019" lon="5.538448"><ele>119.339</ele><time>2022-09-18T15:12:09Z</time></trkpt><trkpt lat="50.425096" lon="5.538314"><ele>118.639</ele><time>2022-09-18T15:12:10Z</time></trkpt><trkpt lat="50.425185" lon="5.538172"><ele>117.981</ele><time>2022-09-18T15:12:11Z</time></trkpt><trkpt lat="50.425244" lon="5.538016"><ele>117.247</ele><time>2022-09-18T15:12:12Z</time></trkpt><trkpt lat="50.425301" lon="5.537865"><ele>116.572</ele><time>2022-09-18T15:12:13Z</time></trkpt><trkpt lat="50.425347" lon="5.537717"><ele>115.937</ele><time>2022-09-18T15:12:14Z</time></trkpt><trkpt lat="50.425393" lon="5.537568"><ele>115.282</ele><time>2022-09-18T15:12:15Z</time></trkpt><trkpt lat="50.425440" lon="5.537400"><ele>114.646</ele><time>2022-09-18T15:12:16Z</time></trkpt><trkpt lat="50.425475" lon="5.537237"><ele>114.163</ele><time>2022-09-18T15:12:17Z</time></trkpt><trkpt lat="50.425501" lon="5.537082"><ele>113.719</ele><time>2022-09-18T15:12:18Z</time></trkpt><trkpt lat="50.425523" lon="5.536946"><ele>113.209</ele><time>2022-09-18T15:12:19Z</time></trkpt><trkpt lat="50.425544" lon="5.536819"><ele>112.919</ele><time>2022-09-18T15:12:20Z</time></trkpt><trkpt lat="50.425566" lon="5.536689"><ele>112.809</ele><time>2022-09-18T15:12:21Z</time></trkpt><trkpt lat="50.425589" lon="5.536558"><ele>112.692</ele><time>2022-09-18T15:12:22Z</time></trkpt><trkpt lat="50.425606" lon="5.536460"><ele>112.622</ele><time>2022-09-18T15:12:23Z</time></trkpt><trkpt lat="50.425625" lon="5.536351"><ele>112.614</ele><time>2022-09-18T15:12:24Z</time></trkpt><trkpt lat="50.425646" lon="5.536232"><ele>112.740</ele><time>2022-09-18T15:12:25Z</time></trkpt><trkpt lat="50.425661" lon="5.536143"><ele>112.825</ele><time>2022-09-18T15:12:26Z</time></trkpt><trkpt lat="50.425674" lon="5.536070"><ele>112.810</ele><time>2022-09-18T15:12:27Z</time></trkpt><trkpt lat="50.425764" lon="5.536057"><ele>112.895</ele><time>2022-09-18T15:12:29Z</time></trkpt><trkpt lat="50.425826" lon="5.536099"><ele>112.839</ele><time>2022-09-18T15:12:30Z</time></trkpt><trkpt lat="50.425895" lon="5.536131"><ele>112.636</ele><time>2022-09-18T15:12:31Z</time></trkpt><trkpt lat="50.425973" lon="5.536173"><ele>112.524</ele><time>2022-09-18T15:12:32Z</time></trkpt><trkpt lat="50.426055" lon="5.536201"><ele>112.204</ele><time>2022-09-18T15:12:33Z</time></trkpt><trkpt lat="50.426130" lon="5.536224"><ele>111.814</ele><time>2022-09-18T15:12:34Z</time></trkpt><trkpt lat="50.426205" lon="5.536222"><ele>111.309</ele><time>2022-09-18T15:12:35Z</time></trkpt><trkpt lat="50.426272" lon="5.536227"><ele>110.763</ele><time>2022-09-18T15:12:36Z</time></trkpt><trkpt lat="50.426330" lon="5.536233"><ele>110.183</ele><time>2022-09-18T15:12:37Z</time></trkpt><trkpt lat="50.426425" lon="5.536262"><ele>109.615</ele><time>2022-09-18T15:12:39Z</time></trkpt><trkpt lat="50.426479" lon="5.536274"><ele>109.141</ele><time>2022-09-18T15:12:40Z</time></trkpt><trkpt lat="50.426535" lon="5.536277"><ele>108.836</ele><time>2022-09-18T15:12:41Z</time></trkpt><trkpt lat="50.426594" lon="5.536290"><ele>108.711</ele><time>2022-09-18T15:12:42Z</time></trkpt><trkpt lat="50.426648" lon="5.536295"><ele>108.616</ele><time>2022-09-18T15:12:43Z</time></trkpt><trkpt lat="50.426695" lon="5.536308"><ele>108.530</ele><time>2022-09-18T15:12:44Z</time></trkpt><trkpt lat="50.426740" lon="5.536312"><ele>108.587</ele><time>2022-09-18T15:12:45Z</time></trkpt><trkpt lat="50.426811" lon="5.536327"><ele>108.579</ele><time>2022-09-18T15:12:47Z</time></trkpt><trkpt lat="50.426872" lon="5.536337"><ele>108.505</ele><time>2022-09-18T15:12:49Z</time></trkpt><trkpt lat="50.426932" lon="5.536342"><ele>108.525</ele><time>2022-09-18T15:12:52Z</time></trkpt><trkpt lat="50.426994" lon="5.536396"><ele>108.509</ele><time>2022-09-18T15:12:55Z</time></trkpt><trkpt lat="50.427048" lon="5.536402"><ele>108.478</ele><time>2022-09-18T15:12:57Z</time></trkpt><trkpt lat="50.426918" lon="5.536385"><ele>108.438</ele><time>2022-09-18T15:14:19Z</time></trkpt><trkpt lat="50.426961" lon="5.536407"><ele>108.580</ele><time>2022-09-18T15:14:32Z</time></trkpt><trkpt lat="50.426947" lon="5.536490"><ele>108.656</ele><time>2022-09-18T15:14:33Z</time></trkpt><trkpt lat="50.426992" lon="5.536506"><ele>108.611</ele><time>2022-09-18T15:14:55Z</time></trkpt><trkpt lat="50.426993" lon="5.536600"><ele>108.666</ele><time>2022-09-18T15:15:05Z</time></trkpt><trkpt lat="50.427016" lon="5.536535"><ele>108.661</ele><time>2022-09-18T15:15:15Z</time></trkpt><trkpt lat="50.426958" lon="5.536528"><ele>108.755</ele><time>2022-09-18T15:15:36Z</time></trkpt><trkpt lat="50.426897" lon="5.536503"><ele>108.862</ele><time>2022-09-18T15:15:43Z</time></trkpt><trkpt lat="50.426936" lon="5.536544"><ele>108.884</ele><time>2022-09-18T15:15:46Z</time></trkpt><trkpt lat="50.426882" lon="5.536549"><ele>108.807</ele><time>2022-09-18T15:15:58Z</time></trkpt><trkpt lat="50.426954" lon="5.536572"><ele>108.817</ele><time>2022-09-18T15:16:10Z</time></trkpt><trkpt lat="50.426977" lon="5.536502"><ele>108.809</ele><time>2022-09-18T15:16:13Z</time></trkpt><trkpt lat="50.426892" lon="5.536413"><ele>108.859</ele><time>2022-09-18T15:17:21Z</time></trkpt><trkpt lat="50.426959" lon="5.536471"><ele>108.839</ele><time>2022-09-18T15:17:31Z</time></trkpt><trkpt lat="50.426907" lon="5.536458"><ele>108.951</ele><time>2022-09-18T15:18:00Z</time></trkpt><trkpt lat="50.426939" lon="5.536520"><ele>108.977</ele><time>2022-09-18T15:18:16Z</time></trkpt><trkpt lat="50.426919" lon="5.536608"><ele>108.972</ele><time>2022-09-18T15:18:37Z</time></trkpt><trkpt lat="50.426891" lon="5.536680"><ele>108.977</ele><time>2022-09-18T15:18:42Z</time></trkpt><trkpt lat="50.426945" lon="5.536461"><ele>108.942</ele><time>2022-09-18T15:18:48Z</time></trkpt><trkpt lat="50.427002" lon="5.536500"><ele>109.066</ele><time>2022-09-18T15:25:21Z</time></trkpt><trkpt lat="50.427035" lon="5.536442"><ele>109.143</ele><time>2022-09-18T15:25:24Z</time></trkpt><trkpt lat="50.427047" lon="5.536363"><ele>109.163</ele><time>2022-09-18T15:25:27Z</time></trkpt><trkpt lat="50.427000" lon="5.536333"><ele>109.044</ele><time>2022-09-18T15:25:29Z</time></trkpt><trkpt lat="50.426959" lon="5.536302"><ele>109.018</ele><time>2022-09-18T15:25:31Z</time></trkpt><trkpt lat="50.426919" lon="5.536232"><ele>108.909</ele><time>2022-09-18T15:25:36Z</time></trkpt><trkpt lat="50.426870" lon="5.536230"><ele>108.957</ele><time>2022-09-18T15:25:40Z</time></trkpt><trkpt lat="50.426829" lon="5.536303"><ele>108.917</ele><time>2022-09-18T15:25:45Z</time></trkpt><trkpt lat="50.426776" lon="5.536330"><ele>109.129</ele><time>2022-09-18T15:25:50Z</time></trkpt><trkpt lat="50.426708" lon="5.536329"><ele>109.295</ele><time>2022-09-18T15:25:53Z</time></trkpt><trkpt lat="50.426655" lon="5.536299"><ele>109.240</ele><time>2022-09-18T15:25:59Z</time></trkpt><trkpt lat="50.426606" lon="5.536353"><ele>109.255</ele><time>2022-09-18T15:26:02Z</time></trkpt><trkpt lat="50.426570" lon="5.536428"><ele>109.210</ele><time>2022-09-18T15:26:04Z</time></trkpt><trkpt lat="50.426539" lon="5.536373"><ele>109.274</ele><time>2022-09-18T15:26:18Z</time></trkpt><trkpt lat="50.426511" lon="5.536294"><ele>109.251</ele><time>2022-09-18T15:26:20Z</time></trkpt><trkpt lat="50.426533" lon="5.536386"><ele>109.839</ele><time>2022-09-18T15:26:26Z</time></trkpt><trkpt lat="50.426536" lon="5.536478"><ele>110.001</ele><time>2022-09-18T15:26:29Z</time></trkpt><trkpt lat="50.426511" lon="5.536414"><ele>110.121</ele><time>2022-09-18T15:26:32Z</time></trkpt><trkpt lat="50.426483" lon="5.536487"><ele>110.309</ele><time>2022-09-18T15:26:35Z</time></trkpt><trkpt lat="50.426581" lon="5.536268"><ele>110.594</ele><time>2022-09-18T15:26:47Z</time></trkpt><trkpt lat="50.426634" lon="5.536245"><ele>109.734</ele><time>2022-09-18T15:26:50Z</time></trkpt><trkpt lat="50.426685" lon="5.536243"><ele>109.536</ele><time>2022-09-18T15:26:52Z</time></trkpt><trkpt lat="50.426720" lon="5.536294"><ele>109.572</ele><time>2022-09-18T15:27:01Z</time></trkpt><trkpt lat="50.426760" lon="5.536363"><ele>109.567</ele><time>2022-09-18T15:27:07Z</time></trkpt><trkpt lat="50.426801" lon="5.536393"><ele>109.622</ele><time>2022-09-18T15:27:15Z</time></trkpt><trkpt lat="50.426854" lon="5.536415"><ele>109.757</ele><time>2022-09-18T15:27:19Z</time></trkpt><trkpt lat="50.426905" lon="5.536406"><ele>109.961</ele><time>2022-09-18T15:27:21Z</time></trkpt><trkpt lat="50.426946" lon="5.536437"><ele>109.918</ele><time>2022-09-18T15:27:26Z</time></trkpt><trkpt lat="50.426930" lon="5.536505"><ele>109.942</ele><time>2022-09-18T15:27:32Z</time></trkpt><trkpt lat="50.426994" lon="5.536500"><ele>109.922</ele><time>2022-09-18T15:27:36Z</time></trkpt><trkpt lat="50.426966" lon="5.536564"><ele>109.914</ele><time>2022-09-18T15:27:56Z</time></trkpt><trkpt lat="50.426962" lon="5.536647"><ele>109.909</ele><time>2022-09-18T15:28:02Z</time></trkpt><trkpt lat="50.426900" lon="5.536725"><ele>109.925</ele><time>2022-09-18T15:28:35Z</time></trkpt><trkpt lat="50.426941" lon="5.536652"><ele>110.045</ele><time>2022-09-18T15:28:41Z</time></trkpt><trkpt lat="50.426963" lon="5.536570"><ele>109.997</ele><time>2022-09-18T15:28:45Z</time></trkpt><trkpt lat="50.426926" lon="5.536496"><ele>110.023</ele><time>2022-09-18T15:28:58Z</time></trkpt><trkpt lat="50.426973" lon="5.536500"><ele>110.178</ele><time>2022-09-18T15:29:11Z</time></trkpt><trkpt lat="50.427029" lon="5.536588"><ele>110.123</ele><time>2022-09-18T15:30:01Z</time></trkpt><trkpt lat="50.427063" lon="5.536539"><ele>110.118</ele><time>2022-09-18T15:32:07Z</time></trkpt><trkpt lat="50.427013" lon="5.536541"><ele>110.142</ele><time>2022-09-18T15:32:24Z</time></trkpt><trkpt lat="50.427057" lon="5.536503"><ele>110.199</ele><time>2022-09-18T15:33:17Z</time></trkpt><trkpt lat="50.427004" lon="5.536521"><ele>110.157</ele><time>2022-09-18T15:33:36Z</time></trkpt><trkpt lat="50.427054" lon="5.536500"><ele>110.200</ele><time>2022-09-18T15:33:40Z</time></trkpt><trkpt lat="50.426991" lon="5.536481"><ele>110.220</ele><time>2022-09-18T15:33:42Z</time></trkpt><trkpt lat="50.427025" lon="5.536528"><ele>110.109</ele><time>2022-09-18T15:33:58Z</time></trkpt><trkpt lat="50.426980" lon="5.536551"><ele>110.156</ele><time>2022-09-18T15:34:14Z</time></trkpt><trkpt lat="50.427027" lon="5.536583"><ele>110.146</ele><time>2022-09-18T15:34:40Z</time></trkpt><trkpt lat="50.427069" lon="5.536552"><ele>110.058</ele><time>2022-09-18T15:34:46Z</time></trkpt><trkpt lat="50.427126" lon="5.536577"><ele>110.044</ele><time>2022-09-18T15:34:48Z</time></trkpt><trkpt lat="50.427174" lon="5.536626"><ele>110.089</ele><time>2022-09-18T15:34:59Z</time></trkpt><trkpt lat="50.427260" lon="5.536631"><ele>110.014</ele><time>2022-09-18T15:38:06Z</time></trkpt><trkpt lat="50.427212" lon="5.536672"><ele>110.189</ele><time>2022-09-18T15:40:13Z</time></trkpt></trkseg></trk></gpx>